<?xml version="1.0" encoding="UTF-8" standalone="no" ?>
<gpx xmlns="http://www.topografix.com/GPX/1/1" xmlns:xsi="http://www.w3.org/2001/XMLSchema-instance" xsi:schemaLocation="http://www.topografix.com/GPX/1/1 http://www.topografix.com/GPX/1/1/gpx.xsd" version="1.1" creator="VisuGPX - https://www.visugpx.com">
  <metadata>
    <name>GR 70 - trace totale</name>
    <desc><![CDATA[Created with GOTOES STRAVA TOOLS Version 16.9]]></desc>
  </metadata>
  <trk>
    <name><![CDATA[GOTOES Export]]></name>
    <trkseg>
      <trkpt lat="45.04555" lon="3.88553">
        <ele>688.92</ele>
        <time>2022-07-31T13:47:56Z</time>
      </trkpt>
      <trkpt lat="45.04553" lon="3.88555">
        <ele>695.17</ele>
        <time>2022-07-31T13:48:25Z</time>
      </trkpt>
      <trkpt lat="45.04553" lon="3.88551">
        <ele>689.4</ele>
        <time>2022-07-31T13:48:57Z</time>
      </trkpt>
      <trkpt lat="45.04555" lon="3.88551">
        <ele>686.04</ele>
        <time>2022-07-31T13:49:22Z</time>
      </trkpt>
      <trkpt lat="45.04557" lon="3.8855">
        <ele>683.15</ele>
        <time>2022-07-31T13:49:45Z</time>
      </trkpt>
      <trkpt lat="45.04555" lon="3.88549">
        <ele>687.48</ele>
        <time>2022-07-31T13:50:21Z</time>
      </trkpt>
      <trkpt lat="45.04554" lon="3.88548">
        <ele>686.52</ele>
        <time>2022-07-31T13:50:48Z</time>
      </trkpt>
      <trkpt lat="45.04554" lon="3.88549">
        <ele>687</ele>
        <time>2022-07-31T13:51:16Z</time>
      </trkpt>
      <trkpt lat="45.04552" lon="3.88548">
        <ele>688.92</ele>
        <time>2022-07-31T13:51:42Z</time>
      </trkpt>
      <trkpt lat="45.04552" lon="3.88551">
        <ele>687.48</ele>
        <time>2022-07-31T13:52:14Z</time>
      </trkpt>
      <trkpt lat="45.04553" lon="3.88552">
        <ele>686.52</ele>
        <time>2022-07-31T13:52:44Z</time>
      </trkpt>
      <trkpt lat="45.04553" lon="3.88552">
        <ele>684.6</ele>
        <time>2022-07-31T13:53:14Z</time>
      </trkpt>
      <trkpt lat="45.04555" lon="3.88551">
        <ele>685.56</ele>
        <time>2022-07-31T13:53:45Z</time>
      </trkpt>
      <trkpt lat="45.04555" lon="3.88553">
        <ele>687.96</ele>
        <time>2022-07-31T13:54:05Z</time>
      </trkpt>
      <trkpt lat="45.04555" lon="3.88552">
        <ele>695.17</ele>
        <time>2022-07-31T13:54:40Z</time>
      </trkpt>
      <trkpt lat="45.04554" lon="3.8855">
        <ele>693.73</ele>
        <time>2022-07-31T13:55:14Z</time>
      </trkpt>
      <trkpt lat="45.04554" lon="3.88551">
        <ele>691.81</ele>
        <time>2022-07-31T13:55:40Z</time>
      </trkpt>
      <trkpt lat="45.04554" lon="3.8855">
        <ele>690.84</ele>
        <time>2022-07-31T13:56:13Z</time>
      </trkpt>
      <trkpt lat="45.04553" lon="3.88551">
        <ele>688.92</ele>
        <time>2022-07-31T13:56:47Z</time>
      </trkpt>
      <trkpt lat="45.04553" lon="3.88549">
        <ele>688.92</ele>
        <time>2022-07-31T13:56:58Z</time>
      </trkpt>
      <trkpt lat="45.04568" lon="3.88599">
        <ele>689.88</ele>
        <time>2022-08-01T05:10:33Z</time>
      </trkpt>
      <trkpt lat="45.04569" lon="3.88605">
        <ele>689.88</ele>
        <time>2022-08-01T05:11:03Z</time>
      </trkpt>
      <trkpt lat="45.04562" lon="3.88607">
        <ele>689.88</ele>
        <time>2022-08-01T05:11:11Z</time>
      </trkpt>
      <trkpt lat="45.04547" lon="3.88615">
        <ele>689.88</ele>
        <time>2022-08-01T05:11:29Z</time>
      </trkpt>
      <trkpt lat="45.04547" lon="3.88615">
        <ele>689.88</ele>
        <time>2022-08-01T05:11:30Z</time>
      </trkpt>
      <trkpt lat="45.04536" lon="3.88592">
        <ele>689.88</ele>
        <time>2022-08-01T05:11:45Z</time>
      </trkpt>
      <trkpt lat="45.04533" lon="3.88587">
        <ele>689.88</ele>
        <time>2022-08-01T05:11:49Z</time>
      </trkpt>
      <trkpt lat="45.04521" lon="3.88561">
        <ele>689.88</ele>
        <time>2022-08-01T05:12:06Z</time>
      </trkpt>
      <trkpt lat="45.04514" lon="3.88533">
        <ele>689.88</ele>
        <time>2022-08-01T05:12:22Z</time>
      </trkpt>
      <trkpt lat="45.04497" lon="3.88521">
        <ele>689.88</ele>
        <time>2022-08-01T05:12:36Z</time>
      </trkpt>
      <trkpt lat="45.04489" lon="3.88509">
        <ele>689.88</ele>
        <time>2022-08-01T05:12:46Z</time>
      </trkpt>
      <trkpt lat="45.04481" lon="3.88514">
        <ele>689.88</ele>
        <time>2022-08-01T05:12:55Z</time>
      </trkpt>
      <trkpt lat="45.04479" lon="3.88526">
        <ele>689.88</ele>
        <time>2022-08-01T05:13:07Z</time>
      </trkpt>
      <trkpt lat="45.04479" lon="3.88527">
        <ele>689.88</ele>
        <time>2022-08-01T05:13:08Z</time>
      </trkpt>
      <trkpt lat="45.04479" lon="3.88533">
        <ele>689.88</ele>
        <time>2022-08-01T05:13:11Z</time>
      </trkpt>
      <trkpt lat="45.04478" lon="3.88562">
        <ele>689.88</ele>
        <time>2022-08-01T05:13:28Z</time>
      </trkpt>
      <trkpt lat="45.04476" lon="3.88574">
        <ele>689.4</ele>
        <time>2022-08-01T05:13:38Z</time>
      </trkpt>
      <trkpt lat="45.04469" lon="3.88562">
        <ele>689.4</ele>
        <time>2022-08-01T05:13:49Z</time>
      </trkpt>
      <trkpt lat="45.04468" lon="3.88556">
        <ele>689.4</ele>
        <time>2022-08-01T05:13:52Z</time>
      </trkpt>
      <trkpt lat="45.04458" lon="3.88542">
        <ele>689.4</ele>
        <time>2022-08-01T05:14:07Z</time>
      </trkpt>
      <trkpt lat="45.04443" lon="3.8855">
        <ele>689.4</ele>
        <time>2022-08-01T05:14:24Z</time>
      </trkpt>
      <trkpt lat="45.04441" lon="3.88553">
        <ele>689.4</ele>
        <time>2022-08-01T05:14:27Z</time>
      </trkpt>
      <trkpt lat="45.04426" lon="3.88557">
        <ele>689.4</ele>
        <time>2022-08-01T05:14:43Z</time>
      </trkpt>
      <trkpt lat="45.04418" lon="3.88533">
        <ele>689.4</ele>
        <time>2022-08-01T05:14:59Z</time>
      </trkpt>
      <trkpt lat="45.04409" lon="3.88524">
        <ele>689.4</ele>
        <time>2022-08-01T05:15:11Z</time>
      </trkpt>
      <trkpt lat="45.04405" lon="3.88508">
        <ele>688.92</ele>
        <time>2022-08-01T05:15:23Z</time>
      </trkpt>
      <trkpt lat="45.04398" lon="3.88504">
        <ele>688.92</ele>
        <time>2022-08-01T05:15:38Z</time>
      </trkpt>
      <trkpt lat="45.04386" lon="3.8851">
        <ele>688.92</ele>
        <time>2022-08-01T05:15:58Z</time>
      </trkpt>
      <trkpt lat="45.0437" lon="3.8851">
        <ele>688.92</ele>
        <time>2022-08-01T05:16:18Z</time>
      </trkpt>
      <trkpt lat="45.04355" lon="3.88515">
        <ele>688.92</ele>
        <time>2022-08-01T05:16:36Z</time>
      </trkpt>
      <trkpt lat="45.0435" lon="3.88516">
        <ele>688.92</ele>
        <time>2022-08-01T05:16:42Z</time>
      </trkpt>
      <trkpt lat="45.04329" lon="3.88527">
        <ele>688.92</ele>
        <time>2022-08-01T05:16:59Z</time>
      </trkpt>
      <trkpt lat="45.04308" lon="3.88537">
        <ele>688.92</ele>
        <time>2022-08-01T05:17:18Z</time>
      </trkpt>
      <trkpt lat="45.04302" lon="3.88541">
        <ele>688.44</ele>
        <time>2022-08-01T05:17:33Z</time>
      </trkpt>
      <trkpt lat="45.0429" lon="3.88543">
        <ele>688.44</ele>
        <time>2022-08-01T05:17:48Z</time>
      </trkpt>
      <trkpt lat="45.04271" lon="3.88543">
        <ele>688.44</ele>
        <time>2022-08-01T05:18:04Z</time>
      </trkpt>
      <trkpt lat="45.04247" lon="3.88544">
        <ele>688.44</ele>
        <time>2022-08-01T05:18:22Z</time>
      </trkpt>
      <trkpt lat="45.04223" lon="3.88546">
        <ele>687.96</ele>
        <time>2022-08-01T05:18:39Z</time>
      </trkpt>
      <trkpt lat="45.04218" lon="3.88548">
        <ele>687.96</ele>
        <time>2022-08-01T05:18:43Z</time>
      </trkpt>
      <trkpt lat="45.04215" lon="3.88556">
        <ele>687.96</ele>
        <time>2022-08-01T05:18:48Z</time>
      </trkpt>
      <trkpt lat="45.04212" lon="3.88585">
        <ele>687.96</ele>
        <time>2022-08-01T05:19:03Z</time>
      </trkpt>
      <trkpt lat="45.0421" lon="3.88597">
        <ele>687.96</ele>
        <time>2022-08-01T05:19:17Z</time>
      </trkpt>
      <trkpt lat="45.04209" lon="3.88591">
        <ele>688.44</ele>
        <time>2022-08-01T05:19:31Z</time>
      </trkpt>
      <trkpt lat="45.04216" lon="3.88595">
        <ele>688.44</ele>
        <time>2022-08-01T05:19:56Z</time>
      </trkpt>
      <trkpt lat="45.04227" lon="3.88595">
        <ele>688.44</ele>
        <time>2022-08-01T05:20:17Z</time>
      </trkpt>
      <trkpt lat="45.04228" lon="3.88592">
        <ele>688.44</ele>
        <time>2022-08-01T05:20:43Z</time>
      </trkpt>
      <trkpt lat="45.04232" lon="3.88598">
        <ele>688.44</ele>
        <time>2022-08-01T05:21:06Z</time>
      </trkpt>
      <trkpt lat="45.04247" lon="3.88615">
        <ele>688.44</ele>
        <time>2022-08-01T05:22:12Z</time>
      </trkpt>
      <trkpt lat="45.04202" lon="3.8858">
        <ele>688.92</ele>
        <time>2022-08-01T05:23:30Z</time>
      </trkpt>
      <trkpt lat="45.04203" lon="3.88586">
        <ele>689.4</ele>
        <time>2022-08-01T05:23:31Z</time>
      </trkpt>
      <trkpt lat="45.04204" lon="3.88613">
        <ele>677.87</ele>
        <time>2022-08-01T05:23:45Z</time>
      </trkpt>
      <trkpt lat="45.04202" lon="3.88637">
        <ele>676.91</ele>
        <time>2022-08-01T05:24:01Z</time>
      </trkpt>
      <trkpt lat="45.04199" lon="3.88661">
        <ele>678.83</ele>
        <time>2022-08-01T05:24:16Z</time>
      </trkpt>
      <trkpt lat="45.04199" lon="3.88668">
        <ele>663.93</ele>
        <time>2022-08-01T05:24:19Z</time>
      </trkpt>
      <trkpt lat="45.04201" lon="3.88686">
        <ele>626.92</ele>
        <time>2022-08-01T05:24:26Z</time>
      </trkpt>
      <trkpt lat="45.04201" lon="3.88688">
        <ele>628.36</ele>
        <time>2022-08-01T05:24:28Z</time>
      </trkpt>
      <trkpt lat="45.04204" lon="3.88692">
        <ele>640.86</ele>
        <time>2022-08-01T05:24:43Z</time>
      </trkpt>
      <trkpt lat="45.04192" lon="3.88701">
        <ele>640.38</ele>
        <time>2022-08-01T05:24:58Z</time>
      </trkpt>
      <trkpt lat="45.0418" lon="3.88706">
        <ele>640.38</ele>
        <time>2022-08-01T05:25:14Z</time>
      </trkpt>
      <trkpt lat="45.04177" lon="3.88715">
        <ele>639.89</ele>
        <time>2022-08-01T05:25:19Z</time>
      </trkpt>
      <trkpt lat="45.04177" lon="3.88716">
        <ele>639.41</ele>
        <time>2022-08-01T05:25:20Z</time>
      </trkpt>
      <trkpt lat="45.04178" lon="3.88717">
        <ele>639.89</ele>
        <time>2022-08-01T05:25:21Z</time>
      </trkpt>
      <trkpt lat="45.04178" lon="3.88719">
        <ele>639.89</ele>
        <time>2022-08-01T05:25:22Z</time>
      </trkpt>
      <trkpt lat="45.04179" lon="3.8872">
        <ele>639.89</ele>
        <time>2022-08-01T05:25:23Z</time>
      </trkpt>
      <trkpt lat="45.04179" lon="3.88721">
        <ele>639.89</ele>
        <time>2022-08-01T05:25:24Z</time>
      </trkpt>
      <trkpt lat="45.04178" lon="3.88725">
        <ele>639.89</ele>
        <time>2022-08-01T05:25:27Z</time>
      </trkpt>
      <trkpt lat="45.04178" lon="3.88726">
        <ele>639.89</ele>
        <time>2022-08-01T05:25:28Z</time>
      </trkpt>
      <trkpt lat="45.04177" lon="3.88727">
        <ele>640.38</ele>
        <time>2022-08-01T05:25:29Z</time>
      </trkpt>
      <trkpt lat="45.04177" lon="3.88729">
        <ele>640.38</ele>
        <time>2022-08-01T05:25:30Z</time>
      </trkpt>
      <trkpt lat="45.04176" lon="3.8873">
        <ele>640.38</ele>
        <time>2022-08-01T05:25:31Z</time>
      </trkpt>
      <trkpt lat="45.0417" lon="3.88739">
        <ele>641.34</ele>
        <time>2022-08-01T05:25:45Z</time>
      </trkpt>
      <trkpt lat="45.04161" lon="3.88735">
        <ele>641.82</ele>
        <time>2022-08-01T05:26:02Z</time>
      </trkpt>
      <trkpt lat="45.04154" lon="3.88738">
        <ele>646.62</ele>
        <time>2022-08-01T05:26:15Z</time>
      </trkpt>
      <trkpt lat="45.04152" lon="3.88738">
        <ele>647.59</ele>
        <time>2022-08-01T05:26:17Z</time>
      </trkpt>
      <trkpt lat="45.04152" lon="3.8874">
        <ele>647.1</ele>
        <time>2022-08-01T05:26:18Z</time>
      </trkpt>
      <trkpt lat="45.04152" lon="3.88742">
        <ele>647.59</ele>
        <time>2022-08-01T05:26:19Z</time>
      </trkpt>
      <trkpt lat="45.04153" lon="3.88753">
        <ele>648.07</ele>
        <time>2022-08-01T05:26:24Z</time>
      </trkpt>
      <trkpt lat="45.04152" lon="3.88754">
        <ele>647.1</ele>
        <time>2022-08-01T05:26:25Z</time>
      </trkpt>
      <trkpt lat="45.04151" lon="3.88755">
        <ele>647.1</ele>
        <time>2022-08-01T05:26:26Z</time>
      </trkpt>
      <trkpt lat="45.0415" lon="3.88756">
        <ele>647.1</ele>
        <time>2022-08-01T05:26:27Z</time>
      </trkpt>
      <trkpt lat="45.04149" lon="3.88757">
        <ele>646.62</ele>
        <time>2022-08-01T05:26:28Z</time>
      </trkpt>
      <trkpt lat="45.04148" lon="3.88758">
        <ele>646.14</ele>
        <time>2022-08-01T05:26:29Z</time>
      </trkpt>
      <trkpt lat="45.04147" lon="3.88759">
        <ele>645.66</ele>
        <time>2022-08-01T05:26:30Z</time>
      </trkpt>
      <trkpt lat="45.04146" lon="3.88761">
        <ele>645.66</ele>
        <time>2022-08-01T05:26:31Z</time>
      </trkpt>
      <trkpt lat="45.04145" lon="3.88762">
        <ele>645.18</ele>
        <time>2022-08-01T05:26:32Z</time>
      </trkpt>
      <trkpt lat="45.04138" lon="3.88773">
        <ele>646.14</ele>
        <time>2022-08-01T05:26:41Z</time>
      </trkpt>
      <trkpt lat="45.04138" lon="3.88775">
        <ele>646.14</ele>
        <time>2022-08-01T05:26:42Z</time>
      </trkpt>
      <trkpt lat="45.04137" lon="3.88777">
        <ele>646.14</ele>
        <time>2022-08-01T05:26:43Z</time>
      </trkpt>
      <trkpt lat="45.04135" lon="3.88793">
        <ele>645.18</ele>
        <time>2022-08-01T05:26:51Z</time>
      </trkpt>
      <trkpt lat="45.04134" lon="3.88795">
        <ele>644.7</ele>
        <time>2022-08-01T05:26:52Z</time>
      </trkpt>
      <trkpt lat="45.04134" lon="3.88797">
        <ele>644.7</ele>
        <time>2022-08-01T05:26:53Z</time>
      </trkpt>
      <trkpt lat="45.04134" lon="3.88799">
        <ele>644.7</ele>
        <time>2022-08-01T05:26:54Z</time>
      </trkpt>
      <trkpt lat="45.04134" lon="3.88801">
        <ele>644.7</ele>
        <time>2022-08-01T05:26:55Z</time>
      </trkpt>
      <trkpt lat="45.04134" lon="3.88803">
        <ele>644.7</ele>
        <time>2022-08-01T05:26:56Z</time>
      </trkpt>
      <trkpt lat="45.04134" lon="3.88805">
        <ele>644.22</ele>
        <time>2022-08-01T05:26:57Z</time>
      </trkpt>
      <trkpt lat="45.04134" lon="3.88807">
        <ele>644.22</ele>
        <time>2022-08-01T05:26:58Z</time>
      </trkpt>
      <trkpt lat="45.04134" lon="3.88811">
        <ele>643.74</ele>
        <time>2022-08-01T05:26:59Z</time>
      </trkpt>
      <trkpt lat="45.04134" lon="3.88814">
        <ele>642.78</ele>
        <time>2022-08-01T05:27:00Z</time>
      </trkpt>
      <trkpt lat="45.04133" lon="3.88821">
        <ele>641.34</ele>
        <time>2022-08-01T05:27:08Z</time>
      </trkpt>
      <trkpt lat="45.04131" lon="3.88822">
        <ele>641.34</ele>
        <time>2022-08-01T05:27:10Z</time>
      </trkpt>
      <trkpt lat="45.0413" lon="3.88823">
        <ele>640.86</ele>
        <time>2022-08-01T05:27:11Z</time>
      </trkpt>
      <trkpt lat="45.04129" lon="3.88824">
        <ele>640.86</ele>
        <time>2022-08-01T05:27:12Z</time>
      </trkpt>
      <trkpt lat="45.04128" lon="3.88826">
        <ele>640.86</ele>
        <time>2022-08-01T05:27:13Z</time>
      </trkpt>
      <trkpt lat="45.04127" lon="3.88827">
        <ele>640.86</ele>
        <time>2022-08-01T05:27:14Z</time>
      </trkpt>
      <trkpt lat="45.04126" lon="3.88828">
        <ele>640.86</ele>
        <time>2022-08-01T05:27:15Z</time>
      </trkpt>
      <trkpt lat="45.0412" lon="3.88843">
        <ele>638.45</ele>
        <time>2022-08-01T05:27:25Z</time>
      </trkpt>
      <trkpt lat="45.04114" lon="3.88867">
        <ele>641.82</ele>
        <time>2022-08-01T05:27:41Z</time>
      </trkpt>
      <trkpt lat="45.04111" lon="3.8888">
        <ele>642.3</ele>
        <time>2022-08-01T05:27:50Z</time>
      </trkpt>
      <trkpt lat="45.0411" lon="3.88882">
        <ele>642.78</ele>
        <time>2022-08-01T05:27:51Z</time>
      </trkpt>
      <trkpt lat="45.0411" lon="3.88883">
        <ele>642.78</ele>
        <time>2022-08-01T05:27:52Z</time>
      </trkpt>
      <trkpt lat="45.0411" lon="3.88885">
        <ele>643.74</ele>
        <time>2022-08-01T05:27:53Z</time>
      </trkpt>
      <trkpt lat="45.04109" lon="3.88898">
        <ele>644.22</ele>
        <time>2022-08-01T05:28:01Z</time>
      </trkpt>
      <trkpt lat="45.0411" lon="3.889">
        <ele>644.22</ele>
        <time>2022-08-01T05:28:02Z</time>
      </trkpt>
      <trkpt lat="45.0411" lon="3.88902">
        <ele>644.22</ele>
        <time>2022-08-01T05:28:03Z</time>
      </trkpt>
      <trkpt lat="45.04109" lon="3.88904">
        <ele>644.22</ele>
        <time>2022-08-01T05:28:04Z</time>
      </trkpt>
      <trkpt lat="45.04109" lon="3.88906">
        <ele>644.22</ele>
        <time>2022-08-01T05:28:05Z</time>
      </trkpt>
      <trkpt lat="45.04109" lon="3.88909">
        <ele>643.74</ele>
        <time>2022-08-01T05:28:06Z</time>
      </trkpt>
      <trkpt lat="45.04107" lon="3.88931">
        <ele>646.62</ele>
        <time>2022-08-01T05:28:19Z</time>
      </trkpt>
      <trkpt lat="45.04107" lon="3.88939">
        <ele>647.59</ele>
        <time>2022-08-01T05:28:24Z</time>
      </trkpt>
      <trkpt lat="45.04108" lon="3.88943">
        <ele>647.59</ele>
        <time>2022-08-01T05:28:26Z</time>
      </trkpt>
      <trkpt lat="45.04108" lon="3.88944">
        <ele>647.59</ele>
        <time>2022-08-01T05:28:27Z</time>
      </trkpt>
      <trkpt lat="45.04109" lon="3.88959">
        <ele>648.07</ele>
        <time>2022-08-01T05:28:35Z</time>
      </trkpt>
      <trkpt lat="45.04109" lon="3.88961">
        <ele>647.59</ele>
        <time>2022-08-01T05:28:36Z</time>
      </trkpt>
      <trkpt lat="45.04109" lon="3.88983">
        <ele>649.03</ele>
        <time>2022-08-01T05:28:52Z</time>
      </trkpt>
      <trkpt lat="45.04116" lon="3.89004">
        <ele>649.03</ele>
        <time>2022-08-01T05:29:04Z</time>
      </trkpt>
      <trkpt lat="45.04125" lon="3.89015">
        <ele>648.55</ele>
        <time>2022-08-01T05:29:12Z</time>
      </trkpt>
      <trkpt lat="45.04125" lon="3.89017">
        <ele>648.07</ele>
        <time>2022-08-01T05:29:13Z</time>
      </trkpt>
      <trkpt lat="45.04124" lon="3.89031">
        <ele>647.59</ele>
        <time>2022-08-01T05:29:21Z</time>
      </trkpt>
      <trkpt lat="45.04124" lon="3.89034">
        <ele>647.1</ele>
        <time>2022-08-01T05:29:22Z</time>
      </trkpt>
      <trkpt lat="45.04129" lon="3.89064">
        <ele>647.1</ele>
        <time>2022-08-01T05:29:39Z</time>
      </trkpt>
      <trkpt lat="45.04129" lon="3.89066">
        <ele>647.1</ele>
        <time>2022-08-01T05:29:40Z</time>
      </trkpt>
      <trkpt lat="45.0413" lon="3.89068">
        <ele>647.1</ele>
        <time>2022-08-01T05:29:41Z</time>
      </trkpt>
      <trkpt lat="45.04135" lon="3.8909">
        <ele>647.59</ele>
        <time>2022-08-01T05:29:56Z</time>
      </trkpt>
      <trkpt lat="45.04137" lon="3.8911">
        <ele>649.03</ele>
        <time>2022-08-01T05:30:08Z</time>
      </trkpt>
      <trkpt lat="45.04138" lon="3.89117">
        <ele>647.59</ele>
        <time>2022-08-01T05:30:12Z</time>
      </trkpt>
      <trkpt lat="45.04138" lon="3.8912">
        <ele>646.62</ele>
        <time>2022-08-01T05:30:13Z</time>
      </trkpt>
      <trkpt lat="45.04141" lon="3.89148">
        <ele>641.82</ele>
        <time>2022-08-01T05:30:28Z</time>
      </trkpt>
      <trkpt lat="45.04144" lon="3.89153">
        <ele>641.82</ele>
        <time>2022-08-01T05:30:39Z</time>
      </trkpt>
      <trkpt lat="45.04143" lon="3.89154">
        <ele>643.26</ele>
        <time>2022-08-01T05:30:42Z</time>
      </trkpt>
      <trkpt lat="45.04143" lon="3.89155">
        <ele>643.74</ele>
        <time>2022-08-01T05:30:43Z</time>
      </trkpt>
      <trkpt lat="45.04142" lon="3.89156">
        <ele>643.74</ele>
        <time>2022-08-01T05:30:44Z</time>
      </trkpt>
      <trkpt lat="45.04142" lon="3.89158">
        <ele>644.22</ele>
        <time>2022-08-01T05:30:45Z</time>
      </trkpt>
      <trkpt lat="45.04143" lon="3.89175">
        <ele>647.1</ele>
        <time>2022-08-01T05:30:58Z</time>
      </trkpt>
      <trkpt lat="45.04134" lon="3.89192">
        <ele>647.59</ele>
        <time>2022-08-01T05:31:13Z</time>
      </trkpt>
      <trkpt lat="45.0412" lon="3.89208">
        <ele>649.03</ele>
        <time>2022-08-01T05:31:31Z</time>
      </trkpt>
      <trkpt lat="45.04105" lon="3.89224">
        <ele>651.43</ele>
        <time>2022-08-01T05:31:47Z</time>
      </trkpt>
      <trkpt lat="45.04093" lon="3.89243">
        <ele>657.68</ele>
        <time>2022-08-01T05:32:04Z</time>
      </trkpt>
      <trkpt lat="45.0408" lon="3.89258">
        <ele>660.56</ele>
        <time>2022-08-01T05:32:20Z</time>
      </trkpt>
      <trkpt lat="45.04067" lon="3.89278">
        <ele>661.52</ele>
        <time>2022-08-01T05:32:36Z</time>
      </trkpt>
      <trkpt lat="45.04056" lon="3.89296">
        <ele>662.01</ele>
        <time>2022-08-01T05:32:51Z</time>
      </trkpt>
      <trkpt lat="45.04049" lon="3.89314">
        <ele>662.97</ele>
        <time>2022-08-01T05:33:06Z</time>
      </trkpt>
      <trkpt lat="45.04049" lon="3.89315">
        <ele>662.97</ele>
        <time>2022-08-01T05:33:07Z</time>
      </trkpt>
      <trkpt lat="45.04049" lon="3.89324">
        <ele>664.41</ele>
        <time>2022-08-01T05:33:13Z</time>
      </trkpt>
      <trkpt lat="45.04049" lon="3.89325">
        <ele>664.89</ele>
        <time>2022-08-01T05:33:14Z</time>
      </trkpt>
      <trkpt lat="45.04048" lon="3.89327">
        <ele>665.37</ele>
        <time>2022-08-01T05:33:15Z</time>
      </trkpt>
      <trkpt lat="45.0404" lon="3.89352">
        <ele>673.54</ele>
        <time>2022-08-01T05:33:35Z</time>
      </trkpt>
      <trkpt lat="45.04034" lon="3.89386">
        <ele>675.94</ele>
        <time>2022-08-01T05:33:53Z</time>
      </trkpt>
      <trkpt lat="45.0403" lon="3.89416">
        <ele>677.39</ele>
        <time>2022-08-01T05:34:12Z</time>
      </trkpt>
      <trkpt lat="45.04024" lon="3.89444">
        <ele>674.02</ele>
        <time>2022-08-01T05:34:29Z</time>
      </trkpt>
      <trkpt lat="45.04022" lon="3.89449">
        <ele>674.5</ele>
        <time>2022-08-01T05:34:32Z</time>
      </trkpt>
      <trkpt lat="45.04019" lon="3.89472">
        <ele>674.5</ele>
        <time>2022-08-01T05:34:46Z</time>
      </trkpt>
      <trkpt lat="45.04018" lon="3.89473">
        <ele>674.5</ele>
        <time>2022-08-01T05:34:47Z</time>
      </trkpt>
      <trkpt lat="45.0401" lon="3.89498">
        <ele>674.5</ele>
        <time>2022-08-01T05:35:04Z</time>
      </trkpt>
      <trkpt lat="45.04" lon="3.89525">
        <ele>676.91</ele>
        <time>2022-08-01T05:35:21Z</time>
      </trkpt>
      <trkpt lat="45.03999" lon="3.89545">
        <ele>676.42</ele>
        <time>2022-08-01T05:35:35Z</time>
      </trkpt>
      <trkpt lat="45.03997" lon="3.89552">
        <ele>677.39</ele>
        <time>2022-08-01T05:35:40Z</time>
      </trkpt>
      <trkpt lat="45.03996" lon="3.89555">
        <ele>677.87</ele>
        <time>2022-08-01T05:35:42Z</time>
      </trkpt>
      <trkpt lat="45.03995" lon="3.89558">
        <ele>678.35</ele>
        <time>2022-08-01T05:35:45Z</time>
      </trkpt>
      <trkpt lat="45.03994" lon="3.8956">
        <ele>678.83</ele>
        <time>2022-08-01T05:35:46Z</time>
      </trkpt>
      <trkpt lat="45.03994" lon="3.89561">
        <ele>678.83</ele>
        <time>2022-08-01T05:35:47Z</time>
      </trkpt>
      <trkpt lat="45.03993" lon="3.89563">
        <ele>679.31</ele>
        <time>2022-08-01T05:35:49Z</time>
      </trkpt>
      <trkpt lat="45.03992" lon="3.89565">
        <ele>679.31</ele>
        <time>2022-08-01T05:35:50Z</time>
      </trkpt>
      <trkpt lat="45.03991" lon="3.89566">
        <ele>679.79</ele>
        <time>2022-08-01T05:35:51Z</time>
      </trkpt>
      <trkpt lat="45.03983" lon="3.89577">
        <ele>681.71</ele>
        <time>2022-08-01T05:36:03Z</time>
      </trkpt>
      <trkpt lat="45.03982" lon="3.89578">
        <ele>682.19</ele>
        <time>2022-08-01T05:36:04Z</time>
      </trkpt>
      <trkpt lat="45.03981" lon="3.89579">
        <ele>682.67</ele>
        <time>2022-08-01T05:36:05Z</time>
      </trkpt>
      <trkpt lat="45.03965" lon="3.89584">
        <ele>688.44</ele>
        <time>2022-08-01T05:36:23Z</time>
      </trkpt>
      <trkpt lat="45.03949" lon="3.89594">
        <ele>692.77</ele>
        <time>2022-08-01T05:36:41Z</time>
      </trkpt>
      <trkpt lat="45.03934" lon="3.896">
        <ele>695.17</ele>
        <time>2022-08-01T05:36:56Z</time>
      </trkpt>
      <trkpt lat="45.03925" lon="3.89609">
        <ele>697.09</ele>
        <time>2022-08-01T05:37:06Z</time>
      </trkpt>
      <trkpt lat="45.03924" lon="3.8961">
        <ele>697.57</ele>
        <time>2022-08-01T05:37:07Z</time>
      </trkpt>
      <trkpt lat="45.03923" lon="3.89611">
        <ele>697.57</ele>
        <time>2022-08-01T05:37:08Z</time>
      </trkpt>
      <trkpt lat="45.03911" lon="3.89628">
        <ele>700.94</ele>
        <time>2022-08-01T05:37:24Z</time>
      </trkpt>
      <trkpt lat="45.03901" lon="3.89643">
        <ele>703.34</ele>
        <time>2022-08-01T05:37:38Z</time>
      </trkpt>
      <trkpt lat="45.03887" lon="3.89658">
        <ele>705.26</ele>
        <time>2022-08-01T05:37:55Z</time>
      </trkpt>
      <trkpt lat="45.03877" lon="3.89677">
        <ele>706.71</ele>
        <time>2022-08-01T05:38:10Z</time>
      </trkpt>
      <trkpt lat="45.03872" lon="3.89686">
        <ele>705.75</ele>
        <time>2022-08-01T05:38:18Z</time>
      </trkpt>
      <trkpt lat="45.03871" lon="3.89686">
        <ele>705.75</ele>
        <time>2022-08-01T05:38:19Z</time>
      </trkpt>
      <trkpt lat="45.03869" lon="3.89687">
        <ele>706.23</ele>
        <time>2022-08-01T05:38:21Z</time>
      </trkpt>
      <trkpt lat="45.03856" lon="3.89704">
        <ele>704.78</ele>
        <time>2022-08-01T05:38:35Z</time>
      </trkpt>
      <trkpt lat="45.03846" lon="3.8971">
        <ele>704.78</ele>
        <time>2022-08-01T05:38:46Z</time>
      </trkpt>
      <trkpt lat="45.03845" lon="3.8971">
        <ele>704.3</ele>
        <time>2022-08-01T05:38:48Z</time>
      </trkpt>
      <trkpt lat="45.03844" lon="3.8971">
        <ele>704.3</ele>
        <time>2022-08-01T05:38:49Z</time>
      </trkpt>
      <trkpt lat="45.03824" lon="3.89709">
        <ele>706.23</ele>
        <time>2022-08-01T05:39:07Z</time>
      </trkpt>
      <trkpt lat="45.03819" lon="3.89709">
        <ele>706.71</ele>
        <time>2022-08-01T05:39:11Z</time>
      </trkpt>
      <trkpt lat="45.03818" lon="3.89709">
        <ele>707.19</ele>
        <time>2022-08-01T05:39:12Z</time>
      </trkpt>
      <trkpt lat="45.03799" lon="3.89706">
        <ele>709.11</ele>
        <time>2022-08-01T05:39:28Z</time>
      </trkpt>
      <trkpt lat="45.03784" lon="3.89702">
        <ele>711.99</ele>
        <time>2022-08-01T05:39:42Z</time>
      </trkpt>
      <trkpt lat="45.03765" lon="3.89704">
        <ele>712.95</ele>
        <time>2022-08-01T05:39:59Z</time>
      </trkpt>
      <trkpt lat="45.03751" lon="3.8972">
        <ele>712.47</ele>
        <time>2022-08-01T05:40:13Z</time>
      </trkpt>
      <trkpt lat="45.03742" lon="3.89739">
        <ele>711.99</ele>
        <time>2022-08-01T05:40:29Z</time>
      </trkpt>
      <trkpt lat="45.03728" lon="3.89752">
        <ele>715.84</ele>
        <time>2022-08-01T05:40:47Z</time>
      </trkpt>
      <trkpt lat="45.03717" lon="3.89763">
        <ele>719.2</ele>
        <time>2022-08-01T05:41:03Z</time>
      </trkpt>
      <trkpt lat="45.03705" lon="3.89771">
        <ele>725.45</ele>
        <time>2022-08-01T05:41:18Z</time>
      </trkpt>
      <trkpt lat="45.03693" lon="3.89779">
        <ele>730.26</ele>
        <time>2022-08-01T05:41:35Z</time>
      </trkpt>
      <trkpt lat="45.03682" lon="3.89785">
        <ele>733.62</ele>
        <time>2022-08-01T05:41:50Z</time>
      </trkpt>
      <trkpt lat="45.03671" lon="3.89793">
        <ele>737.95</ele>
        <time>2022-08-01T05:42:05Z</time>
      </trkpt>
      <trkpt lat="45.03664" lon="3.89801">
        <ele>739.87</ele>
        <time>2022-08-01T05:42:19Z</time>
      </trkpt>
      <trkpt lat="45.03661" lon="3.89805">
        <ele>741.31</ele>
        <time>2022-08-01T05:42:37Z</time>
      </trkpt>
      <trkpt lat="45.03663" lon="3.89809">
        <ele>737.95</ele>
        <time>2022-08-01T05:43:12Z</time>
      </trkpt>
      <trkpt lat="45.03665" lon="3.89806">
        <ele>739.87</ele>
        <time>2022-08-01T05:43:35Z</time>
      </trkpt>
      <trkpt lat="45.0366" lon="3.89808">
        <ele>740.83</ele>
        <time>2022-08-01T05:44:01Z</time>
      </trkpt>
      <trkpt lat="45.03653" lon="3.89821">
        <ele>741.31</ele>
        <time>2022-08-01T05:44:17Z</time>
      </trkpt>
      <trkpt lat="45.03643" lon="3.89829">
        <ele>743.72</ele>
        <time>2022-08-01T05:44:32Z</time>
      </trkpt>
      <trkpt lat="45.0363" lon="3.89834">
        <ele>746.6</ele>
        <time>2022-08-01T05:44:48Z</time>
      </trkpt>
      <trkpt lat="45.03617" lon="3.89846">
        <ele>750.45</ele>
        <time>2022-08-01T05:45:07Z</time>
      </trkpt>
      <trkpt lat="45.03607" lon="3.89857">
        <ele>753.81</ele>
        <time>2022-08-01T05:45:23Z</time>
      </trkpt>
      <trkpt lat="45.03596" lon="3.89868">
        <ele>757.66</ele>
        <time>2022-08-01T05:45:41Z</time>
      </trkpt>
      <trkpt lat="45.03586" lon="3.89883">
        <ele>759.1</ele>
        <time>2022-08-01T05:45:58Z</time>
      </trkpt>
      <trkpt lat="45.03575" lon="3.89896">
        <ele>760.54</ele>
        <time>2022-08-01T05:46:12Z</time>
      </trkpt>
      <trkpt lat="45.0357" lon="3.89903">
        <ele>761.98</ele>
        <time>2022-08-01T05:46:19Z</time>
      </trkpt>
      <trkpt lat="45.03556" lon="3.89923">
        <ele>760.06</ele>
        <time>2022-08-01T05:46:36Z</time>
      </trkpt>
      <trkpt lat="45.03551" lon="3.89942">
        <ele>761.98</ele>
        <time>2022-08-01T05:46:49Z</time>
      </trkpt>
      <trkpt lat="45.03546" lon="3.89965">
        <ele>764.39</ele>
        <time>2022-08-01T05:47:03Z</time>
      </trkpt>
      <trkpt lat="45.03542" lon="3.89989">
        <ele>766.31</ele>
        <time>2022-08-01T05:47:18Z</time>
      </trkpt>
      <trkpt lat="45.03541" lon="3.89993">
        <ele>766.31</ele>
        <time>2022-08-01T05:47:20Z</time>
      </trkpt>
      <trkpt lat="45.03541" lon="3.90001">
        <ele>766.31</ele>
        <time>2022-08-01T05:47:33Z</time>
      </trkpt>
      <trkpt lat="45.03533" lon="3.90021">
        <ele>770.15</ele>
        <time>2022-08-01T05:47:48Z</time>
      </trkpt>
      <trkpt lat="45.03529" lon="3.90041">
        <ele>770.15</ele>
        <time>2022-08-01T05:48:01Z</time>
      </trkpt>
      <trkpt lat="45.0353" lon="3.90046">
        <ele>771.6</ele>
        <time>2022-08-01T05:48:17Z</time>
      </trkpt>
      <trkpt lat="45.03535" lon="3.90047">
        <ele>768.23</ele>
        <time>2022-08-01T05:48:51Z</time>
      </trkpt>
      <trkpt lat="45.03532" lon="3.90042">
        <ele>766.31</ele>
        <time>2022-08-01T05:49:20Z</time>
      </trkpt>
      <trkpt lat="45.03525" lon="3.90047">
        <ele>766.79</ele>
        <time>2022-08-01T05:49:29Z</time>
      </trkpt>
      <trkpt lat="45.03521" lon="3.90048">
        <ele>767.27</ele>
        <time>2022-08-01T05:49:47Z</time>
      </trkpt>
      <trkpt lat="45.03509" lon="3.90054">
        <ele>767.27</ele>
        <time>2022-08-01T05:49:58Z</time>
      </trkpt>
      <trkpt lat="45.03497" lon="3.90068">
        <ele>771.6</ele>
        <time>2022-08-01T05:50:13Z</time>
      </trkpt>
      <trkpt lat="45.03495" lon="3.90069">
        <ele>772.08</ele>
        <time>2022-08-01T05:50:15Z</time>
      </trkpt>
      <trkpt lat="45.03489" lon="3.9009">
        <ele>776.88</ele>
        <time>2022-08-01T05:50:31Z</time>
      </trkpt>
      <trkpt lat="45.03488" lon="3.901">
        <ele>777.36</ele>
        <time>2022-08-01T05:50:38Z</time>
      </trkpt>
      <trkpt lat="45.03485" lon="3.90112">
        <ele>777.36</ele>
        <time>2022-08-01T05:50:48Z</time>
      </trkpt>
      <trkpt lat="45.0347" lon="3.90118">
        <ele>782.65</ele>
        <time>2022-08-01T05:51:03Z</time>
      </trkpt>
      <trkpt lat="45.03452" lon="3.90127">
        <ele>785.53</ele>
        <time>2022-08-01T05:51:19Z</time>
      </trkpt>
      <trkpt lat="45.03432" lon="3.90133">
        <ele>786.98</ele>
        <time>2022-08-01T05:51:36Z</time>
      </trkpt>
      <trkpt lat="45.03411" lon="3.90142">
        <ele>784.57</ele>
        <time>2022-08-01T05:51:51Z</time>
      </trkpt>
      <trkpt lat="45.03391" lon="3.90148">
        <ele>783.61</ele>
        <time>2022-08-01T05:52:08Z</time>
      </trkpt>
      <trkpt lat="45.03365" lon="3.90157">
        <ele>785.05</ele>
        <time>2022-08-01T05:52:25Z</time>
      </trkpt>
      <trkpt lat="45.03348" lon="3.90174">
        <ele>786.02</ele>
        <time>2022-08-01T05:52:41Z</time>
      </trkpt>
      <trkpt lat="45.03323" lon="3.9019">
        <ele>786.5</ele>
        <time>2022-08-01T05:53:00Z</time>
      </trkpt>
      <trkpt lat="45.03302" lon="3.90203">
        <ele>786.02</ele>
        <time>2022-08-01T05:53:17Z</time>
      </trkpt>
      <trkpt lat="45.03287" lon="3.90193">
        <ele>781.21</ele>
        <time>2022-08-01T05:53:33Z</time>
      </trkpt>
      <trkpt lat="45.03274" lon="3.90183">
        <ele>778.81</ele>
        <time>2022-08-01T05:53:45Z</time>
      </trkpt>
      <trkpt lat="45.03263" lon="3.90174">
        <ele>776.4</ele>
        <time>2022-08-01T05:53:59Z</time>
      </trkpt>
      <trkpt lat="45.0325" lon="3.90178">
        <ele>773.04</ele>
        <time>2022-08-01T05:54:13Z</time>
      </trkpt>
      <trkpt lat="45.03244" lon="3.9018">
        <ele>774</ele>
        <time>2022-08-01T05:54:19Z</time>
      </trkpt>
      <trkpt lat="45.03222" lon="3.902">
        <ele>773.52</ele>
        <time>2022-08-01T05:54:37Z</time>
      </trkpt>
      <trkpt lat="45.03217" lon="3.90228">
        <ele>769.19</ele>
        <time>2022-08-01T05:54:55Z</time>
      </trkpt>
      <trkpt lat="45.03218" lon="3.90236">
        <ele>767.75</ele>
        <time>2022-08-01T05:55:00Z</time>
      </trkpt>
      <trkpt lat="45.03204" lon="3.90258">
        <ele>763.9</ele>
        <time>2022-08-01T05:55:18Z</time>
      </trkpt>
      <trkpt lat="45.03185" lon="3.90259">
        <ele>758.14</ele>
        <time>2022-08-01T05:55:36Z</time>
      </trkpt>
      <trkpt lat="45.03164" lon="3.90264">
        <ele>756.21</ele>
        <time>2022-08-01T05:55:52Z</time>
      </trkpt>
      <trkpt lat="45.0315" lon="3.90288">
        <ele>755.73</ele>
        <time>2022-08-01T05:56:09Z</time>
      </trkpt>
      <trkpt lat="45.03154" lon="3.90322">
        <ele>753.33</ele>
        <time>2022-08-01T05:56:27Z</time>
      </trkpt>
      <trkpt lat="45.03158" lon="3.90354">
        <ele>751.89</ele>
        <time>2022-08-01T05:56:44Z</time>
      </trkpt>
      <trkpt lat="45.03163" lon="3.90388">
        <ele>751.89</ele>
        <time>2022-08-01T05:57:02Z</time>
      </trkpt>
      <trkpt lat="45.03166" lon="3.90418">
        <ele>752.37</ele>
        <time>2022-08-01T05:57:18Z</time>
      </trkpt>
      <trkpt lat="45.03171" lon="3.90447">
        <ele>750.93</ele>
        <time>2022-08-01T05:57:33Z</time>
      </trkpt>
      <trkpt lat="45.03173" lon="3.90474">
        <ele>750.45</ele>
        <time>2022-08-01T05:57:48Z</time>
      </trkpt>
      <trkpt lat="45.03174" lon="3.90506">
        <ele>749.49</ele>
        <time>2022-08-01T05:58:04Z</time>
      </trkpt>
      <trkpt lat="45.03173" lon="3.90529">
        <ele>749</ele>
        <time>2022-08-01T05:58:18Z</time>
      </trkpt>
      <trkpt lat="45.03152" lon="3.90543">
        <ele>749.97</ele>
        <time>2022-08-01T05:58:35Z</time>
      </trkpt>
      <trkpt lat="45.03128" lon="3.90545">
        <ele>749.97</ele>
        <time>2022-08-01T05:58:54Z</time>
      </trkpt>
      <trkpt lat="45.03106" lon="3.90548">
        <ele>750.45</ele>
        <time>2022-08-01T05:59:11Z</time>
      </trkpt>
      <trkpt lat="45.03099" lon="3.90572">
        <ele>752.37</ele>
        <time>2022-08-01T05:59:26Z</time>
      </trkpt>
      <trkpt lat="45.03102" lon="3.90602">
        <ele>753.33</ele>
        <time>2022-08-01T05:59:43Z</time>
      </trkpt>
      <trkpt lat="45.03101" lon="3.90631">
        <ele>753.33</ele>
        <time>2022-08-01T06:00:00Z</time>
      </trkpt>
      <trkpt lat="45.03103" lon="3.90661">
        <ele>756.21</ele>
        <time>2022-08-01T06:00:17Z</time>
      </trkpt>
      <trkpt lat="45.03112" lon="3.90685">
        <ele>758.14</ele>
        <time>2022-08-01T06:00:33Z</time>
      </trkpt>
      <trkpt lat="45.03116" lon="3.90696">
        <ele>759.1</ele>
        <time>2022-08-01T06:00:41Z</time>
      </trkpt>
      <trkpt lat="45.03099" lon="3.90715">
        <ele>759.58</ele>
        <time>2022-08-01T06:00:58Z</time>
      </trkpt>
      <trkpt lat="45.03081" lon="3.90731">
        <ele>760.54</ele>
        <time>2022-08-01T06:01:15Z</time>
      </trkpt>
      <trkpt lat="45.03062" lon="3.9074">
        <ele>761.5</ele>
        <time>2022-08-01T06:01:31Z</time>
      </trkpt>
      <trkpt lat="45.03045" lon="3.90745">
        <ele>761.98</ele>
        <time>2022-08-01T06:01:47Z</time>
      </trkpt>
      <trkpt lat="45.03036" lon="3.90748">
        <ele>762.46</ele>
        <time>2022-08-01T06:02:06Z</time>
      </trkpt>
      <trkpt lat="45.03018" lon="3.90759">
        <ele>763.9</ele>
        <time>2022-08-01T06:02:21Z</time>
      </trkpt>
      <trkpt lat="45.03003" lon="3.90775">
        <ele>764.87</ele>
        <time>2022-08-01T06:02:36Z</time>
      </trkpt>
      <trkpt lat="45.02991" lon="3.90789">
        <ele>766.31</ele>
        <time>2022-08-01T06:02:49Z</time>
      </trkpt>
      <trkpt lat="45.02978" lon="3.90807">
        <ele>770.63</ele>
        <time>2022-08-01T06:03:04Z</time>
      </trkpt>
      <trkpt lat="45.02965" lon="3.90823">
        <ele>773.04</ele>
        <time>2022-08-01T06:03:22Z</time>
      </trkpt>
      <trkpt lat="45.02954" lon="3.90839">
        <ele>776.88</ele>
        <time>2022-08-01T06:03:37Z</time>
      </trkpt>
      <trkpt lat="45.02945" lon="3.90856">
        <ele>779.29</ele>
        <time>2022-08-01T06:03:51Z</time>
      </trkpt>
      <trkpt lat="45.02936" lon="3.90871">
        <ele>782.65</ele>
        <time>2022-08-01T06:04:07Z</time>
      </trkpt>
      <trkpt lat="45.02926" lon="3.90883">
        <ele>784.57</ele>
        <time>2022-08-01T06:04:24Z</time>
      </trkpt>
      <trkpt lat="45.02916" lon="3.90895">
        <ele>786.98</ele>
        <time>2022-08-01T06:04:41Z</time>
      </trkpt>
      <trkpt lat="45.02904" lon="3.90902">
        <ele>787.94</ele>
        <time>2022-08-01T06:04:56Z</time>
      </trkpt>
      <trkpt lat="45.02893" lon="3.90909">
        <ele>790.82</ele>
        <time>2022-08-01T06:05:11Z</time>
      </trkpt>
      <trkpt lat="45.02883" lon="3.90914">
        <ele>793.71</ele>
        <time>2022-08-01T06:05:25Z</time>
      </trkpt>
      <trkpt lat="45.02871" lon="3.90923">
        <ele>795.15</ele>
        <time>2022-08-01T06:05:39Z</time>
      </trkpt>
      <trkpt lat="45.02866" lon="3.90926">
        <ele>796.59</ele>
        <time>2022-08-01T06:05:44Z</time>
      </trkpt>
      <trkpt lat="45.02853" lon="3.9094">
        <ele>799.95</ele>
        <time>2022-08-01T06:06:01Z</time>
      </trkpt>
      <trkpt lat="45.0284" lon="3.90947">
        <ele>801.88</ele>
        <time>2022-08-01T06:06:17Z</time>
      </trkpt>
      <trkpt lat="45.02827" lon="3.90955">
        <ele>805.24</ele>
        <time>2022-08-01T06:06:31Z</time>
      </trkpt>
      <trkpt lat="45.02823" lon="3.90958">
        <ele>806.2</ele>
        <time>2022-08-01T06:06:36Z</time>
      </trkpt>
      <trkpt lat="45.02807" lon="3.90968">
        <ele>809.09</ele>
        <time>2022-08-01T06:06:53Z</time>
      </trkpt>
      <trkpt lat="45.02788" lon="3.90975">
        <ele>810.53</ele>
        <time>2022-08-01T06:07:10Z</time>
      </trkpt>
      <trkpt lat="45.02767" lon="3.90984">
        <ele>811.97</ele>
        <time>2022-08-01T06:07:28Z</time>
      </trkpt>
      <trkpt lat="45.02748" lon="3.9099">
        <ele>812.93</ele>
        <time>2022-08-01T06:07:44Z</time>
      </trkpt>
      <trkpt lat="45.02739" lon="3.90994">
        <ele>813.41</ele>
        <time>2022-08-01T06:07:52Z</time>
      </trkpt>
      <trkpt lat="45.02726" lon="3.9101">
        <ele>816.3</ele>
        <time>2022-08-01T06:08:07Z</time>
      </trkpt>
      <trkpt lat="45.02721" lon="3.91013">
        <ele>816.78</ele>
        <time>2022-08-01T06:08:12Z</time>
      </trkpt>
      <trkpt lat="45.02703" lon="3.91019">
        <ele>817.74</ele>
        <time>2022-08-01T06:08:29Z</time>
      </trkpt>
      <trkpt lat="45.02696" lon="3.91019">
        <ele>817.26</ele>
        <time>2022-08-01T06:08:36Z</time>
      </trkpt>
      <trkpt lat="45.02677" lon="3.91015">
        <ele>816.78</ele>
        <time>2022-08-01T06:08:52Z</time>
      </trkpt>
      <trkpt lat="45.02657" lon="3.91015">
        <ele>817.26</ele>
        <time>2022-08-01T06:09:08Z</time>
      </trkpt>
      <trkpt lat="45.02641" lon="3.91015">
        <ele>818.7</ele>
        <time>2022-08-01T06:09:20Z</time>
      </trkpt>
      <trkpt lat="45.02635" lon="3.91015">
        <ele>819.66</ele>
        <time>2022-08-01T06:09:24Z</time>
      </trkpt>
      <trkpt lat="45.02614" lon="3.91016">
        <ele>822.06</ele>
        <time>2022-08-01T06:09:41Z</time>
      </trkpt>
      <trkpt lat="45.02595" lon="3.91022">
        <ele>822.55</ele>
        <time>2022-08-01T06:09:57Z</time>
      </trkpt>
      <trkpt lat="45.02575" lon="3.91025">
        <ele>823.03</ele>
        <time>2022-08-01T06:10:13Z</time>
      </trkpt>
      <trkpt lat="45.02552" lon="3.91032">
        <ele>825.43</ele>
        <time>2022-08-01T06:10:31Z</time>
      </trkpt>
      <trkpt lat="45.02531" lon="3.91041">
        <ele>826.39</ele>
        <time>2022-08-01T06:10:48Z</time>
      </trkpt>
      <trkpt lat="45.02514" lon="3.9105">
        <ele>828.31</ele>
        <time>2022-08-01T06:11:03Z</time>
      </trkpt>
      <trkpt lat="45.02498" lon="3.9106">
        <ele>830.72</ele>
        <time>2022-08-01T06:11:18Z</time>
      </trkpt>
      <trkpt lat="45.0248" lon="3.91056">
        <ele>828.31</ele>
        <time>2022-08-01T06:11:34Z</time>
      </trkpt>
      <trkpt lat="45.02464" lon="3.91051">
        <ele>827.83</ele>
        <time>2022-08-01T06:11:49Z</time>
      </trkpt>
      <trkpt lat="45.02462" lon="3.91051">
        <ele>827.83</ele>
        <time>2022-08-01T06:11:51Z</time>
      </trkpt>
      <trkpt lat="45.02438" lon="3.91052">
        <ele>830.24</ele>
        <time>2022-08-01T06:12:11Z</time>
      </trkpt>
      <trkpt lat="45.02415" lon="3.91057">
        <ele>831.2</ele>
        <time>2022-08-01T06:12:28Z</time>
      </trkpt>
      <trkpt lat="45.02396" lon="3.91064">
        <ele>830.72</ele>
        <time>2022-08-01T06:12:46Z</time>
      </trkpt>
      <trkpt lat="45.02391" lon="3.9107">
        <ele>833.6</ele>
        <time>2022-08-01T06:13:00Z</time>
      </trkpt>
      <trkpt lat="45.0238" lon="3.91077">
        <ele>834.08</ele>
        <time>2022-08-01T06:13:14Z</time>
      </trkpt>
      <trkpt lat="45.02367" lon="3.91085">
        <ele>835.52</ele>
        <time>2022-08-01T06:13:29Z</time>
      </trkpt>
      <trkpt lat="45.02358" lon="3.9109">
        <ele>836.96</ele>
        <time>2022-08-01T06:13:44Z</time>
      </trkpt>
      <trkpt lat="45.02351" lon="3.91097">
        <ele>837.93</ele>
        <time>2022-08-01T06:14:06Z</time>
      </trkpt>
      <trkpt lat="45.0234" lon="3.91103">
        <ele>836.96</ele>
        <time>2022-08-01T06:14:20Z</time>
      </trkpt>
      <trkpt lat="45.02328" lon="3.91112">
        <ele>836.96</ele>
        <time>2022-08-01T06:14:34Z</time>
      </trkpt>
      <trkpt lat="45.02309" lon="3.91127">
        <ele>836.96</ele>
        <time>2022-08-01T06:14:51Z</time>
      </trkpt>
      <trkpt lat="45.0229" lon="3.91137">
        <ele>836.48</ele>
        <time>2022-08-01T06:15:07Z</time>
      </trkpt>
      <trkpt lat="45.02269" lon="3.91147">
        <ele>836</ele>
        <time>2022-08-01T06:15:24Z</time>
      </trkpt>
      <trkpt lat="45.02247" lon="3.9116">
        <ele>835.52</ele>
        <time>2022-08-01T06:15:42Z</time>
      </trkpt>
      <trkpt lat="45.02225" lon="3.91176">
        <ele>835.52</ele>
        <time>2022-08-01T06:16:00Z</time>
      </trkpt>
      <trkpt lat="45.02204" lon="3.9119">
        <ele>835.52</ele>
        <time>2022-08-01T06:16:18Z</time>
      </trkpt>
      <trkpt lat="45.02185" lon="3.91206">
        <ele>835.04</ele>
        <time>2022-08-01T06:16:35Z</time>
      </trkpt>
      <trkpt lat="45.02168" lon="3.91223">
        <ele>834.08</ele>
        <time>2022-08-01T06:16:53Z</time>
      </trkpt>
      <trkpt lat="45.02152" lon="3.91246">
        <ele>834.56</ele>
        <time>2022-08-01T06:17:13Z</time>
      </trkpt>
      <trkpt lat="45.02139" lon="3.91263">
        <ele>834.08</ele>
        <time>2022-08-01T06:17:30Z</time>
      </trkpt>
      <trkpt lat="45.02128" lon="3.91282">
        <ele>833.6</ele>
        <time>2022-08-01T06:17:46Z</time>
      </trkpt>
      <trkpt lat="45.02115" lon="3.91305">
        <ele>832.16</ele>
        <time>2022-08-01T06:18:04Z</time>
      </trkpt>
      <trkpt lat="45.02102" lon="3.91322">
        <ele>830.72</ele>
        <time>2022-08-01T06:18:20Z</time>
      </trkpt>
      <trkpt lat="45.02087" lon="3.91337">
        <ele>829.27</ele>
        <time>2022-08-01T06:18:37Z</time>
      </trkpt>
      <trkpt lat="45.02084" lon="3.91338">
        <ele>828.31</ele>
        <time>2022-08-01T06:18:41Z</time>
      </trkpt>
      <trkpt lat="45.02066" lon="3.91337">
        <ele>822.55</ele>
        <time>2022-08-01T06:18:56Z</time>
      </trkpt>
      <trkpt lat="45.02047" lon="3.91336">
        <ele>819.66</ele>
        <time>2022-08-01T06:19:12Z</time>
      </trkpt>
      <trkpt lat="45.02028" lon="3.91333">
        <ele>816.78</ele>
        <time>2022-08-01T06:19:28Z</time>
      </trkpt>
      <trkpt lat="45.02011" lon="3.91341">
        <ele>816.3</ele>
        <time>2022-08-01T06:19:43Z</time>
      </trkpt>
      <trkpt lat="45.01994" lon="3.91347">
        <ele>815.82</ele>
        <time>2022-08-01T06:20:00Z</time>
      </trkpt>
      <trkpt lat="45.0198" lon="3.91353">
        <ele>814.37</ele>
        <time>2022-08-01T06:20:15Z</time>
      </trkpt>
      <trkpt lat="45.01964" lon="3.91358">
        <ele>813.89</ele>
        <time>2022-08-01T06:20:33Z</time>
      </trkpt>
      <trkpt lat="45.0196" lon="3.9136">
        <ele>813.41</ele>
        <time>2022-08-01T06:20:38Z</time>
      </trkpt>
      <trkpt lat="45.01947" lon="3.91366">
        <ele>811.01</ele>
        <time>2022-08-01T06:20:52Z</time>
      </trkpt>
      <trkpt lat="45.01942" lon="3.91367">
        <ele>809.57</ele>
        <time>2022-08-01T06:20:58Z</time>
      </trkpt>
      <trkpt lat="45.01921" lon="3.91375">
        <ele>806.68</ele>
        <time>2022-08-01T06:21:16Z</time>
      </trkpt>
      <trkpt lat="45.01904" lon="3.91383">
        <ele>802.36</ele>
        <time>2022-08-01T06:21:33Z</time>
      </trkpt>
      <trkpt lat="45.01883" lon="3.91391">
        <ele>800.92</ele>
        <time>2022-08-01T06:21:51Z</time>
      </trkpt>
      <trkpt lat="45.01866" lon="3.91389">
        <ele>798.51</ele>
        <time>2022-08-01T06:22:06Z</time>
      </trkpt>
      <trkpt lat="45.01845" lon="3.91393">
        <ele>796.59</ele>
        <time>2022-08-01T06:22:24Z</time>
      </trkpt>
      <trkpt lat="45.0182" lon="3.91396">
        <ele>795.15</ele>
        <time>2022-08-01T06:22:44Z</time>
      </trkpt>
      <trkpt lat="45.018" lon="3.914">
        <ele>794.67</ele>
        <time>2022-08-01T06:23:00Z</time>
      </trkpt>
      <trkpt lat="45.01785" lon="3.91405">
        <ele>794.67</ele>
        <time>2022-08-01T06:23:13Z</time>
      </trkpt>
      <trkpt lat="45.01766" lon="3.9141">
        <ele>794.67</ele>
        <time>2022-08-01T06:23:29Z</time>
      </trkpt>
      <trkpt lat="45.01743" lon="3.91412">
        <ele>793.71</ele>
        <time>2022-08-01T06:23:47Z</time>
      </trkpt>
      <trkpt lat="45.01726" lon="3.91415">
        <ele>793.22</ele>
        <time>2022-08-01T06:24:01Z</time>
      </trkpt>
      <trkpt lat="45.0171" lon="3.91424">
        <ele>793.22</ele>
        <time>2022-08-01T06:24:15Z</time>
      </trkpt>
      <trkpt lat="45.01708" lon="3.91425">
        <ele>793.22</ele>
        <time>2022-08-01T06:24:17Z</time>
      </trkpt>
      <trkpt lat="45.01691" lon="3.91442">
        <ele>793.22</ele>
        <time>2022-08-01T06:24:34Z</time>
      </trkpt>
      <trkpt lat="45.01675" lon="3.91458">
        <ele>794.19</ele>
        <time>2022-08-01T06:24:50Z</time>
      </trkpt>
      <trkpt lat="45.01657" lon="3.91473">
        <ele>795.63</ele>
        <time>2022-08-01T06:25:06Z</time>
      </trkpt>
      <trkpt lat="45.01637" lon="3.91484">
        <ele>795.15</ele>
        <time>2022-08-01T06:25:23Z</time>
      </trkpt>
      <trkpt lat="45.01614" lon="3.91489">
        <ele>794.67</ele>
        <time>2022-08-01T06:25:41Z</time>
      </trkpt>
      <trkpt lat="45.01595" lon="3.91485">
        <ele>794.19</ele>
        <time>2022-08-01T06:25:56Z</time>
      </trkpt>
      <trkpt lat="45.01588" lon="3.9146">
        <ele>794.19</ele>
        <time>2022-08-01T06:26:10Z</time>
      </trkpt>
      <trkpt lat="45.01584" lon="3.91445">
        <ele>795.15</ele>
        <time>2022-08-01T06:26:20Z</time>
      </trkpt>
      <trkpt lat="45.01575" lon="3.9142">
        <ele>797.07</ele>
        <time>2022-08-01T06:26:36Z</time>
      </trkpt>
      <trkpt lat="45.01567" lon="3.91395">
        <ele>796.11</ele>
        <time>2022-08-01T06:26:52Z</time>
      </trkpt>
      <trkpt lat="45.01553" lon="3.9137">
        <ele>793.71</ele>
        <time>2022-08-01T06:27:09Z</time>
      </trkpt>
      <trkpt lat="45.01535" lon="3.91367">
        <ele>790.82</ele>
        <time>2022-08-01T06:27:25Z</time>
      </trkpt>
      <trkpt lat="45.01515" lon="3.9138">
        <ele>788.9</ele>
        <time>2022-08-01T06:27:42Z</time>
      </trkpt>
      <trkpt lat="45.01497" lon="3.91383">
        <ele>788.42</ele>
        <time>2022-08-01T06:27:56Z</time>
      </trkpt>
      <trkpt lat="45.01477" lon="3.91378">
        <ele>788.42</ele>
        <time>2022-08-01T06:28:12Z</time>
      </trkpt>
      <trkpt lat="45.01458" lon="3.91372">
        <ele>787.94</ele>
        <time>2022-08-01T06:28:27Z</time>
      </trkpt>
      <trkpt lat="45.0144" lon="3.9136">
        <ele>787.46</ele>
        <time>2022-08-01T06:28:43Z</time>
      </trkpt>
      <trkpt lat="45.01422" lon="3.91346">
        <ele>788.9</ele>
        <time>2022-08-01T06:28:59Z</time>
      </trkpt>
      <trkpt lat="45.01406" lon="3.91356">
        <ele>786.98</ele>
        <time>2022-08-01T06:29:14Z</time>
      </trkpt>
      <trkpt lat="45.01396" lon="3.91376">
        <ele>789.38</ele>
        <time>2022-08-01T06:29:29Z</time>
      </trkpt>
      <trkpt lat="45.01374" lon="3.91386">
        <ele>790.82</ele>
        <time>2022-08-01T06:29:48Z</time>
      </trkpt>
      <trkpt lat="45.01369" lon="3.91384">
        <ele>790.34</ele>
        <time>2022-08-01T06:29:53Z</time>
      </trkpt>
      <trkpt lat="45.01353" lon="3.9137">
        <ele>788.9</ele>
        <time>2022-08-01T06:30:08Z</time>
      </trkpt>
      <trkpt lat="45.01336" lon="3.91355">
        <ele>789.38</ele>
        <time>2022-08-01T06:30:24Z</time>
      </trkpt>
      <trkpt lat="45.01323" lon="3.9133">
        <ele>790.82</ele>
        <time>2022-08-01T06:30:41Z</time>
      </trkpt>
      <trkpt lat="45.01313" lon="3.91309">
        <ele>792.26</ele>
        <time>2022-08-01T06:30:56Z</time>
      </trkpt>
      <trkpt lat="45.01303" lon="3.91281">
        <ele>792.26</ele>
        <time>2022-08-01T06:31:13Z</time>
      </trkpt>
      <trkpt lat="45.01298" lon="3.91248">
        <ele>793.22</ele>
        <time>2022-08-01T06:31:32Z</time>
      </trkpt>
      <trkpt lat="45.01302" lon="3.91217">
        <ele>793.22</ele>
        <time>2022-08-01T06:31:49Z</time>
      </trkpt>
      <trkpt lat="45.01307" lon="3.91191">
        <ele>793.22</ele>
        <time>2022-08-01T06:32:04Z</time>
      </trkpt>
      <trkpt lat="45.01313" lon="3.9116">
        <ele>793.22</ele>
        <time>2022-08-01T06:32:23Z</time>
      </trkpt>
      <trkpt lat="45.01318" lon="3.91133">
        <ele>793.22</ele>
        <time>2022-08-01T06:32:39Z</time>
      </trkpt>
      <trkpt lat="45.01324" lon="3.91106">
        <ele>793.22</ele>
        <time>2022-08-01T06:32:55Z</time>
      </trkpt>
      <trkpt lat="45.01328" lon="3.91075">
        <ele>794.67</ele>
        <time>2022-08-01T06:33:13Z</time>
      </trkpt>
      <trkpt lat="45.01334" lon="3.91047">
        <ele>796.11</ele>
        <time>2022-08-01T06:33:30Z</time>
      </trkpt>
      <trkpt lat="45.01339" lon="3.91017">
        <ele>796.59</ele>
        <time>2022-08-01T06:33:48Z</time>
      </trkpt>
      <trkpt lat="45.0134" lon="3.90988">
        <ele>798.03</ele>
        <time>2022-08-01T06:34:06Z</time>
      </trkpt>
      <trkpt lat="45.01338" lon="3.90963">
        <ele>798.51</ele>
        <time>2022-08-01T06:34:22Z</time>
      </trkpt>
      <trkpt lat="45.0134" lon="3.90948">
        <ele>798.51</ele>
        <time>2022-08-01T06:34:32Z</time>
      </trkpt>
      <trkpt lat="45.01342" lon="3.9093">
        <ele>799.47</ele>
        <time>2022-08-01T06:34:44Z</time>
      </trkpt>
      <trkpt lat="45.01342" lon="3.90921">
        <ele>799.95</ele>
        <time>2022-08-01T06:34:49Z</time>
      </trkpt>
      <trkpt lat="45.0135" lon="3.90897">
        <ele>799.95</ele>
        <time>2022-08-01T06:35:05Z</time>
      </trkpt>
      <trkpt lat="45.01345" lon="3.90877">
        <ele>801.88</ele>
        <time>2022-08-01T06:35:21Z</time>
      </trkpt>
      <trkpt lat="45.01333" lon="3.90859">
        <ele>802.36</ele>
        <time>2022-08-01T06:35:37Z</time>
      </trkpt>
      <trkpt lat="45.01322" lon="3.90836">
        <ele>803.8</ele>
        <time>2022-08-01T06:35:55Z</time>
      </trkpt>
      <trkpt lat="45.01316" lon="3.90827">
        <ele>804.76</ele>
        <time>2022-08-01T06:36:02Z</time>
      </trkpt>
      <trkpt lat="45.01304" lon="3.90804">
        <ele>806.68</ele>
        <time>2022-08-01T06:36:20Z</time>
      </trkpt>
      <trkpt lat="45.01293" lon="3.90783">
        <ele>807.16</ele>
        <time>2022-08-01T06:36:36Z</time>
      </trkpt>
      <trkpt lat="45.01283" lon="3.90762">
        <ele>807.64</ele>
        <time>2022-08-01T06:36:50Z</time>
      </trkpt>
      <trkpt lat="45.01269" lon="3.90741">
        <ele>809.09</ele>
        <time>2022-08-01T06:37:06Z</time>
      </trkpt>
      <trkpt lat="45.01255" lon="3.90718">
        <ele>809.09</ele>
        <time>2022-08-01T06:37:24Z</time>
      </trkpt>
      <trkpt lat="45.01245" lon="3.9069">
        <ele>810.53</ele>
        <time>2022-08-01T06:37:42Z</time>
      </trkpt>
      <trkpt lat="45.01243" lon="3.90674">
        <ele>811.01</ele>
        <time>2022-08-01T06:37:51Z</time>
      </trkpt>
      <trkpt lat="45.01239" lon="3.90672">
        <ele>811.49</ele>
        <time>2022-08-01T06:37:54Z</time>
      </trkpt>
      <trkpt lat="45.01235" lon="3.90674">
        <ele>811.49</ele>
        <time>2022-08-01T06:37:58Z</time>
      </trkpt>
      <trkpt lat="45.01218" lon="3.90694">
        <ele>812.45</ele>
        <time>2022-08-01T06:38:14Z</time>
      </trkpt>
      <trkpt lat="45.01199" lon="3.90716">
        <ele>812.93</ele>
        <time>2022-08-01T06:38:33Z</time>
      </trkpt>
      <trkpt lat="45.01181" lon="3.90735">
        <ele>811.01</ele>
        <time>2022-08-01T06:38:50Z</time>
      </trkpt>
      <trkpt lat="45.01165" lon="3.90751">
        <ele>808.61</ele>
        <time>2022-08-01T06:39:06Z</time>
      </trkpt>
      <trkpt lat="45.0115" lon="3.9077">
        <ele>806.68</ele>
        <time>2022-08-01T06:39:22Z</time>
      </trkpt>
      <trkpt lat="45.01136" lon="3.90791">
        <ele>805.72</ele>
        <time>2022-08-01T06:39:38Z</time>
      </trkpt>
      <trkpt lat="45.01124" lon="3.90817">
        <ele>806.2</ele>
        <time>2022-08-01T06:39:55Z</time>
      </trkpt>
      <trkpt lat="45.01112" lon="3.90844">
        <ele>805.72</ele>
        <time>2022-08-01T06:40:12Z</time>
      </trkpt>
      <trkpt lat="45.01101" lon="3.90869">
        <ele>805.24</ele>
        <time>2022-08-01T06:40:28Z</time>
      </trkpt>
      <trkpt lat="45.0109" lon="3.90896">
        <ele>804.76</ele>
        <time>2022-08-01T06:40:45Z</time>
      </trkpt>
      <trkpt lat="45.0108" lon="3.90926">
        <ele>804.28</ele>
        <time>2022-08-01T06:41:04Z</time>
      </trkpt>
      <trkpt lat="45.0107" lon="3.90957">
        <ele>803.32</ele>
        <time>2022-08-01T06:41:23Z</time>
      </trkpt>
      <trkpt lat="45.0106" lon="3.90985">
        <ele>801.4</ele>
        <time>2022-08-01T06:41:40Z</time>
      </trkpt>
      <trkpt lat="45.01049" lon="3.91012">
        <ele>802.36</ele>
        <time>2022-08-01T06:41:57Z</time>
      </trkpt>
      <trkpt lat="45.01038" lon="3.91036">
        <ele>801.88</ele>
        <time>2022-08-01T06:42:12Z</time>
      </trkpt>
      <trkpt lat="45.01026" lon="3.91058">
        <ele>800.92</ele>
        <time>2022-08-01T06:42:28Z</time>
      </trkpt>
      <trkpt lat="45.01011" lon="3.91082">
        <ele>798.99</ele>
        <time>2022-08-01T06:42:45Z</time>
      </trkpt>
      <trkpt lat="45.00998" lon="3.91099">
        <ele>797.07</ele>
        <time>2022-08-01T06:43:00Z</time>
      </trkpt>
      <trkpt lat="45.00995" lon="3.91102">
        <ele>796.59</ele>
        <time>2022-08-01T06:43:03Z</time>
      </trkpt>
      <trkpt lat="45.00991" lon="3.91106">
        <ele>796.11</ele>
        <time>2022-08-01T06:43:07Z</time>
      </trkpt>
      <trkpt lat="45.00971" lon="3.91107">
        <ele>793.22</ele>
        <time>2022-08-01T06:43:24Z</time>
      </trkpt>
      <trkpt lat="45.00952" lon="3.91099">
        <ele>792.74</ele>
        <time>2022-08-01T06:43:38Z</time>
      </trkpt>
      <trkpt lat="45.00936" lon="3.91091">
        <ele>790.82</ele>
        <time>2022-08-01T06:43:52Z</time>
      </trkpt>
      <trkpt lat="45.00914" lon="3.91075">
        <ele>786.98</ele>
        <time>2022-08-01T06:44:11Z</time>
      </trkpt>
      <trkpt lat="45.00896" lon="3.91069">
        <ele>785.53</ele>
        <time>2022-08-01T06:44:26Z</time>
      </trkpt>
      <trkpt lat="45.00873" lon="3.91064">
        <ele>784.09</ele>
        <time>2022-08-01T06:44:44Z</time>
      </trkpt>
      <trkpt lat="45.00855" lon="3.91062">
        <ele>784.09</ele>
        <time>2022-08-01T06:44:59Z</time>
      </trkpt>
      <trkpt lat="45.00841" lon="3.91063">
        <ele>782.17</ele>
        <time>2022-08-01T06:45:10Z</time>
      </trkpt>
      <trkpt lat="45.00833" lon="3.91063">
        <ele>781.69</ele>
        <time>2022-08-01T06:45:17Z</time>
      </trkpt>
      <trkpt lat="45.00813" lon="3.91062">
        <ele>782.17</ele>
        <time>2022-08-01T06:45:32Z</time>
      </trkpt>
      <trkpt lat="45.00792" lon="3.91062">
        <ele>779.77</ele>
        <time>2022-08-01T06:45:48Z</time>
      </trkpt>
      <trkpt lat="45.00772" lon="3.91066">
        <ele>775.44</ele>
        <time>2022-08-01T06:46:05Z</time>
      </trkpt>
      <trkpt lat="45.00757" lon="3.91069">
        <ele>772.08</ele>
        <time>2022-08-01T06:46:18Z</time>
      </trkpt>
      <trkpt lat="45.00739" lon="3.91075">
        <ele>768.71</ele>
        <time>2022-08-01T06:46:34Z</time>
      </trkpt>
      <trkpt lat="45.00717" lon="3.91085">
        <ele>763.42</ele>
        <time>2022-08-01T06:46:53Z</time>
      </trkpt>
      <trkpt lat="45.00701" lon="3.91102">
        <ele>761.5</ele>
        <time>2022-08-01T06:47:10Z</time>
      </trkpt>
      <trkpt lat="45.00692" lon="3.9111">
        <ele>760.54</ele>
        <time>2022-08-01T06:47:19Z</time>
      </trkpt>
      <trkpt lat="45.00677" lon="3.91126">
        <ele>759.1</ele>
        <time>2022-08-01T06:47:35Z</time>
      </trkpt>
      <trkpt lat="45.0066" lon="3.91141">
        <ele>757.18</ele>
        <time>2022-08-01T06:47:51Z</time>
      </trkpt>
      <trkpt lat="45.00648" lon="3.91152">
        <ele>755.73</ele>
        <time>2022-08-01T06:48:03Z</time>
      </trkpt>
      <trkpt lat="45.00644" lon="3.91157">
        <ele>754.77</ele>
        <time>2022-08-01T06:48:08Z</time>
      </trkpt>
      <trkpt lat="45.00623" lon="3.91175">
        <ele>753.33</ele>
        <time>2022-08-01T06:48:28Z</time>
      </trkpt>
      <trkpt lat="45.00611" lon="3.91185">
        <ele>752.37</ele>
        <time>2022-08-01T06:48:40Z</time>
      </trkpt>
      <trkpt lat="45.00607" lon="3.91193">
        <ele>750.93</ele>
        <time>2022-08-01T06:48:47Z</time>
      </trkpt>
      <trkpt lat="45.00608" lon="3.91213">
        <ele>749.49</ele>
        <time>2022-08-01T06:49:01Z</time>
      </trkpt>
      <trkpt lat="45.00611" lon="3.91223">
        <ele>748.52</ele>
        <time>2022-08-01T06:49:07Z</time>
      </trkpt>
      <trkpt lat="45.00607" lon="3.9123">
        <ele>747.08</ele>
        <time>2022-08-01T06:49:12Z</time>
      </trkpt>
      <trkpt lat="45.00589" lon="3.91238">
        <ele>742.28</ele>
        <time>2022-08-01T06:49:29Z</time>
      </trkpt>
      <trkpt lat="45.00569" lon="3.91239">
        <ele>739.39</ele>
        <time>2022-08-01T06:49:46Z</time>
      </trkpt>
      <trkpt lat="45.00561" lon="3.91236">
        <ele>737.95</ele>
        <time>2022-08-01T06:49:53Z</time>
      </trkpt>
      <trkpt lat="45.00544" lon="3.91244">
        <ele>736.99</ele>
        <time>2022-08-01T06:50:08Z</time>
      </trkpt>
      <trkpt lat="45.00528" lon="3.91252">
        <ele>735.07</ele>
        <time>2022-08-01T06:50:23Z</time>
      </trkpt>
      <trkpt lat="45.00511" lon="3.91264">
        <ele>734.58</ele>
        <time>2022-08-01T06:50:39Z</time>
      </trkpt>
      <trkpt lat="45.00495" lon="3.91279">
        <ele>732.66</ele>
        <time>2022-08-01T06:50:55Z</time>
      </trkpt>
      <trkpt lat="45.00481" lon="3.91296">
        <ele>730.74</ele>
        <time>2022-08-01T06:51:11Z</time>
      </trkpt>
      <trkpt lat="45.00469" lon="3.91309">
        <ele>729.78</ele>
        <time>2022-08-01T06:51:24Z</time>
      </trkpt>
      <trkpt lat="45.00465" lon="3.91311">
        <ele>729.3</ele>
        <time>2022-08-01T06:51:28Z</time>
      </trkpt>
      <trkpt lat="45.00456" lon="3.91305">
        <ele>725.93</ele>
        <time>2022-08-01T06:51:43Z</time>
      </trkpt>
      <trkpt lat="45.00453" lon="3.91303">
        <ele>724.49</ele>
        <time>2022-08-01T06:51:48Z</time>
      </trkpt>
      <trkpt lat="45.00455" lon="3.91317">
        <ele>724.01</ele>
        <time>2022-08-01T06:51:57Z</time>
      </trkpt>
      <trkpt lat="45.00445" lon="3.9133">
        <ele>724.97</ele>
        <time>2022-08-01T06:52:10Z</time>
      </trkpt>
      <trkpt lat="45.0044" lon="3.91336">
        <ele>725.45</ele>
        <time>2022-08-01T06:52:21Z</time>
      </trkpt>
      <trkpt lat="45.00443" lon="3.91325">
        <ele>725.45</ele>
        <time>2022-08-01T06:52:36Z</time>
      </trkpt>
      <trkpt lat="45.00442" lon="3.91326">
        <ele>724.49</ele>
        <time>2022-08-01T06:52:41Z</time>
      </trkpt>
      <trkpt lat="45.00429" lon="3.91337">
        <ele>724.49</ele>
        <time>2022-08-01T06:52:53Z</time>
      </trkpt>
      <trkpt lat="45.00418" lon="3.91332">
        <ele>724.49</ele>
        <time>2022-08-01T06:53:03Z</time>
      </trkpt>
      <trkpt lat="45.00408" lon="3.91336">
        <ele>724.01</ele>
        <time>2022-08-01T06:53:11Z</time>
      </trkpt>
      <trkpt lat="45.00403" lon="3.91334">
        <ele>724.01</ele>
        <time>2022-08-01T06:53:16Z</time>
      </trkpt>
      <trkpt lat="45.00386" lon="3.91325">
        <ele>723.05</ele>
        <time>2022-08-01T06:53:33Z</time>
      </trkpt>
      <trkpt lat="45.00364" lon="3.91314">
        <ele>721.61</ele>
        <time>2022-08-01T06:53:51Z</time>
      </trkpt>
      <trkpt lat="45.00351" lon="3.91303">
        <ele>721.61</ele>
        <time>2022-08-01T06:54:05Z</time>
      </trkpt>
      <trkpt lat="45.00346" lon="3.91302">
        <ele>720.16</ele>
        <time>2022-08-01T06:54:11Z</time>
      </trkpt>
      <trkpt lat="45.00345" lon="3.91305">
        <ele>719.2</ele>
        <time>2022-08-01T06:54:15Z</time>
      </trkpt>
      <trkpt lat="45.0034" lon="3.91302">
        <ele>718.72</ele>
        <time>2022-08-01T06:54:20Z</time>
      </trkpt>
      <trkpt lat="45.00326" lon="3.91298">
        <ele>716.8</ele>
        <time>2022-08-01T06:54:34Z</time>
      </trkpt>
      <trkpt lat="45.00323" lon="3.91296">
        <ele>716.32</ele>
        <time>2022-08-01T06:54:37Z</time>
      </trkpt>
      <trkpt lat="45.00321" lon="3.91296">
        <ele>715.84</ele>
        <time>2022-08-01T06:54:39Z</time>
      </trkpt>
      <trkpt lat="45.00319" lon="3.91299">
        <ele>715.36</ele>
        <time>2022-08-01T06:54:43Z</time>
      </trkpt>
      <trkpt lat="45.00312" lon="3.91302">
        <ele>715.36</ele>
        <time>2022-08-01T06:54:49Z</time>
      </trkpt>
      <trkpt lat="45.00303" lon="3.91318">
        <ele>711.99</ele>
        <time>2022-08-01T06:55:03Z</time>
      </trkpt>
      <trkpt lat="45.00306" lon="3.91344">
        <ele>709.59</ele>
        <time>2022-08-01T06:55:20Z</time>
      </trkpt>
      <trkpt lat="45.00309" lon="3.91364">
        <ele>706.71</ele>
        <time>2022-08-01T06:55:35Z</time>
      </trkpt>
      <trkpt lat="45.0031" lon="3.91365">
        <ele>705.75</ele>
        <time>2022-08-01T06:55:47Z</time>
      </trkpt>
      <trkpt lat="45.00312" lon="3.91375">
        <ele>706.71</ele>
        <time>2022-08-01T06:55:58Z</time>
      </trkpt>
      <trkpt lat="45.00313" lon="3.91399">
        <ele>703.34</ele>
        <time>2022-08-01T06:56:13Z</time>
      </trkpt>
      <trkpt lat="45.00307" lon="3.91424">
        <ele>699.98</ele>
        <time>2022-08-01T06:56:29Z</time>
      </trkpt>
      <trkpt lat="45.00294" lon="3.91442">
        <ele>697.09</ele>
        <time>2022-08-01T06:56:45Z</time>
      </trkpt>
      <trkpt lat="45.00293" lon="3.91444">
        <ele>697.09</ele>
        <time>2022-08-01T06:56:47Z</time>
      </trkpt>
      <trkpt lat="45.00277" lon="3.91458">
        <ele>695.65</ele>
        <time>2022-08-01T06:57:03Z</time>
      </trkpt>
      <trkpt lat="45.00256" lon="3.91472">
        <ele>695.65</ele>
        <time>2022-08-01T06:57:21Z</time>
      </trkpt>
      <trkpt lat="45.00242" lon="3.91483">
        <ele>694.21</ele>
        <time>2022-08-01T06:57:35Z</time>
      </trkpt>
      <trkpt lat="45.00224" lon="3.91496">
        <ele>693.73</ele>
        <time>2022-08-01T06:57:50Z</time>
      </trkpt>
      <trkpt lat="45.00209" lon="3.91504">
        <ele>692.29</ele>
        <time>2022-08-01T06:58:04Z</time>
      </trkpt>
      <trkpt lat="45.00191" lon="3.91515">
        <ele>688.92</ele>
        <time>2022-08-01T06:58:22Z</time>
      </trkpt>
      <trkpt lat="45.00174" lon="3.91526">
        <ele>687.48</ele>
        <time>2022-08-01T06:58:37Z</time>
      </trkpt>
      <trkpt lat="45.00157" lon="3.91536">
        <ele>686.04</ele>
        <time>2022-08-01T06:58:53Z</time>
      </trkpt>
      <trkpt lat="45.0014" lon="3.91545">
        <ele>686.04</ele>
        <time>2022-08-01T06:59:08Z</time>
      </trkpt>
      <trkpt lat="45.00122" lon="3.91556">
        <ele>687</ele>
        <time>2022-08-01T06:59:24Z</time>
      </trkpt>
      <trkpt lat="45.00105" lon="3.91566">
        <ele>687</ele>
        <time>2022-08-01T06:59:40Z</time>
      </trkpt>
      <trkpt lat="45.00087" lon="3.9157">
        <ele>684.6</ele>
        <time>2022-08-01T06:59:56Z</time>
      </trkpt>
      <trkpt lat="45.00074" lon="3.91582">
        <ele>680.75</ele>
        <time>2022-08-01T07:00:11Z</time>
      </trkpt>
      <trkpt lat="45.0008" lon="3.91598">
        <ele>677.39</ele>
        <time>2022-08-01T07:00:23Z</time>
      </trkpt>
      <trkpt lat="45.0009" lon="3.91609">
        <ele>674.98</ele>
        <time>2022-08-01T07:00:34Z</time>
      </trkpt>
      <trkpt lat="45.00103" lon="3.91626">
        <ele>672.1</ele>
        <time>2022-08-01T07:00:50Z</time>
      </trkpt>
      <trkpt lat="45.00106" lon="3.91651">
        <ele>668.25</ele>
        <time>2022-08-01T07:01:06Z</time>
      </trkpt>
      <trkpt lat="45.00104" lon="3.91676">
        <ele>665.37</ele>
        <time>2022-08-01T07:01:21Z</time>
      </trkpt>
      <trkpt lat="45.00097" lon="3.91698">
        <ele>663.93</ele>
        <time>2022-08-01T07:01:38Z</time>
      </trkpt>
      <trkpt lat="45.00094" lon="3.91699">
        <ele>663.93</ele>
        <time>2022-08-01T07:01:40Z</time>
      </trkpt>
      <trkpt lat="45.00078" lon="3.91702">
        <ele>664.41</ele>
        <time>2022-08-01T07:01:53Z</time>
      </trkpt>
      <trkpt lat="45.00059" lon="3.91703">
        <ele>664.89</ele>
        <time>2022-08-01T07:02:09Z</time>
      </trkpt>
      <trkpt lat="45.00042" lon="3.91703">
        <ele>663.93</ele>
        <time>2022-08-01T07:02:22Z</time>
      </trkpt>
      <trkpt lat="45.00038" lon="3.91704">
        <ele>663.93</ele>
        <time>2022-08-01T07:02:26Z</time>
      </trkpt>
      <trkpt lat="45.00019" lon="3.91704">
        <ele>663.93</ele>
        <time>2022-08-01T07:02:41Z</time>
      </trkpt>
      <trkpt lat="45.00001" lon="3.91704">
        <ele>663.45</ele>
        <time>2022-08-01T07:02:56Z</time>
      </trkpt>
      <trkpt lat="44.99983" lon="3.91705">
        <ele>662.01</ele>
        <time>2022-08-01T07:03:11Z</time>
      </trkpt>
      <trkpt lat="44.99963" lon="3.91705">
        <ele>657.68</ele>
        <time>2022-08-01T07:03:28Z</time>
      </trkpt>
      <trkpt lat="44.99947" lon="3.91701">
        <ele>654.8</ele>
        <time>2022-08-01T07:03:44Z</time>
      </trkpt>
      <trkpt lat="44.99928" lon="3.91705">
        <ele>652.87</ele>
        <time>2022-08-01T07:04:00Z</time>
      </trkpt>
      <trkpt lat="44.99915" lon="3.91718">
        <ele>649.51</ele>
        <time>2022-08-01T07:04:15Z</time>
      </trkpt>
      <trkpt lat="44.99909" lon="3.91723">
        <ele>649.51</ele>
        <time>2022-08-01T07:04:21Z</time>
      </trkpt>
      <trkpt lat="44.99896" lon="3.91734">
        <ele>647.1</ele>
        <time>2022-08-01T07:04:35Z</time>
      </trkpt>
      <trkpt lat="44.99887" lon="3.91743">
        <ele>645.18</ele>
        <time>2022-08-01T07:04:45Z</time>
      </trkpt>
      <trkpt lat="44.99886" lon="3.91737">
        <ele>642.78</ele>
        <time>2022-08-01T07:04:52Z</time>
      </trkpt>
      <trkpt lat="44.99882" lon="3.91726">
        <ele>642.3</ele>
        <time>2022-08-01T07:05:01Z</time>
      </trkpt>
      <trkpt lat="44.99878" lon="3.91721">
        <ele>641.34</ele>
        <time>2022-08-01T07:05:05Z</time>
      </trkpt>
      <trkpt lat="44.99871" lon="3.91707">
        <ele>639.41</ele>
        <time>2022-08-01T07:05:15Z</time>
      </trkpt>
      <trkpt lat="44.99868" lon="3.91705">
        <ele>638.93</ele>
        <time>2022-08-01T07:05:18Z</time>
      </trkpt>
      <trkpt lat="44.99845" lon="3.91711">
        <ele>641.34</ele>
        <time>2022-08-01T07:05:35Z</time>
      </trkpt>
      <trkpt lat="44.99825" lon="3.91718">
        <ele>642.3</ele>
        <time>2022-08-01T07:05:53Z</time>
      </trkpt>
      <trkpt lat="44.99809" lon="3.91723">
        <ele>640.86</ele>
        <time>2022-08-01T07:06:08Z</time>
      </trkpt>
      <trkpt lat="44.99793" lon="3.91728">
        <ele>639.89</ele>
        <time>2022-08-01T07:06:23Z</time>
      </trkpt>
      <trkpt lat="44.99776" lon="3.91733">
        <ele>640.38</ele>
        <time>2022-08-01T07:06:38Z</time>
      </trkpt>
      <trkpt lat="44.99755" lon="3.91737">
        <ele>638.93</ele>
        <time>2022-08-01T07:06:54Z</time>
      </trkpt>
      <trkpt lat="44.99736" lon="3.91746">
        <ele>638.93</ele>
        <time>2022-08-01T07:07:08Z</time>
      </trkpt>
      <trkpt lat="44.99731" lon="3.91768">
        <ele>638.93</ele>
        <time>2022-08-01T07:07:21Z</time>
      </trkpt>
      <trkpt lat="44.99727" lon="3.91773">
        <ele>638.45</ele>
        <time>2022-08-01T07:07:25Z</time>
      </trkpt>
      <trkpt lat="44.99723" lon="3.91791">
        <ele>639.89</ele>
        <time>2022-08-01T07:07:40Z</time>
      </trkpt>
      <trkpt lat="44.99723" lon="3.918">
        <ele>640.86</ele>
        <time>2022-08-01T07:07:51Z</time>
      </trkpt>
      <trkpt lat="44.99721" lon="3.91799">
        <ele>641.34</ele>
        <time>2022-08-01T07:07:52Z</time>
      </trkpt>
      <trkpt lat="44.99714" lon="3.91801">
        <ele>642.3</ele>
        <time>2022-08-01T07:07:58Z</time>
      </trkpt>
      <trkpt lat="44.99696" lon="3.91811">
        <ele>642.3</ele>
        <time>2022-08-01T07:08:12Z</time>
      </trkpt>
      <trkpt lat="44.9969" lon="3.91821">
        <ele>642.78</ele>
        <time>2022-08-01T07:08:20Z</time>
      </trkpt>
      <trkpt lat="44.99687" lon="3.91822">
        <ele>642.78</ele>
        <time>2022-08-01T07:08:23Z</time>
      </trkpt>
      <trkpt lat="44.99685" lon="3.91823">
        <ele>642.78</ele>
        <time>2022-08-01T07:08:25Z</time>
      </trkpt>
      <trkpt lat="44.99674" lon="3.91832">
        <ele>642.78</ele>
        <time>2022-08-01T07:08:38Z</time>
      </trkpt>
      <trkpt lat="44.99667" lon="3.91834">
        <ele>643.26</ele>
        <time>2022-08-01T07:08:44Z</time>
      </trkpt>
      <trkpt lat="44.99656" lon="3.91839">
        <ele>646.14</ele>
        <time>2022-08-01T07:08:56Z</time>
      </trkpt>
      <trkpt lat="44.99635" lon="3.91832">
        <ele>652.39</ele>
        <time>2022-08-01T07:09:11Z</time>
      </trkpt>
      <trkpt lat="44.99623" lon="3.91825">
        <ele>658.16</ele>
        <time>2022-08-01T07:09:21Z</time>
      </trkpt>
      <trkpt lat="44.99606" lon="3.91814">
        <ele>666.33</ele>
        <time>2022-08-01T07:09:34Z</time>
      </trkpt>
      <trkpt lat="44.99607" lon="3.91824">
        <ele>668.25</ele>
        <time>2022-08-01T07:09:44Z</time>
      </trkpt>
      <trkpt lat="44.99609" lon="3.91825">
        <ele>668.25</ele>
        <time>2022-08-01T07:09:45Z</time>
      </trkpt>
      <trkpt lat="44.99609" lon="3.91825">
        <ele>667.77</ele>
        <time>2022-08-01T07:09:46Z</time>
      </trkpt>
      <trkpt lat="44.99608" lon="3.91825">
        <ele>666.81</ele>
        <time>2022-08-01T07:09:47Z</time>
      </trkpt>
      <trkpt lat="44.99607" lon="3.91824">
        <ele>667.29</ele>
        <time>2022-08-01T07:09:50Z</time>
      </trkpt>
      <trkpt lat="44.9959" lon="3.91823">
        <ele>662.97</ele>
        <time>2022-08-01T07:10:02Z</time>
      </trkpt>
      <trkpt lat="44.9957" lon="3.91819">
        <ele>653.35</ele>
        <time>2022-08-01T07:10:15Z</time>
      </trkpt>
      <trkpt lat="44.99557" lon="3.91813">
        <ele>650.95</ele>
        <time>2022-08-01T07:10:27Z</time>
      </trkpt>
      <trkpt lat="44.99544" lon="3.91804">
        <ele>650.47</ele>
        <time>2022-08-01T07:10:41Z</time>
      </trkpt>
      <trkpt lat="44.99531" lon="3.91798">
        <ele>651.91</ele>
        <time>2022-08-01T07:10:57Z</time>
      </trkpt>
      <trkpt lat="44.99516" lon="3.91788">
        <ele>652.39</ele>
        <time>2022-08-01T07:11:11Z</time>
      </trkpt>
      <trkpt lat="44.99501" lon="3.91781">
        <ele>655.76</ele>
        <time>2022-08-01T07:11:26Z</time>
      </trkpt>
      <trkpt lat="44.99485" lon="3.91778">
        <ele>659.12</ele>
        <time>2022-08-01T07:11:41Z</time>
      </trkpt>
      <trkpt lat="44.9947" lon="3.91775">
        <ele>660.56</ele>
        <time>2022-08-01T07:11:54Z</time>
      </trkpt>
      <trkpt lat="44.99453" lon="3.91786">
        <ele>661.52</ele>
        <time>2022-08-01T07:12:10Z</time>
      </trkpt>
      <trkpt lat="44.9945" lon="3.9179">
        <ele>662.97</ele>
        <time>2022-08-01T07:12:14Z</time>
      </trkpt>
      <trkpt lat="44.9944" lon="3.9181">
        <ele>667.77</ele>
        <time>2022-08-01T07:12:30Z</time>
      </trkpt>
      <trkpt lat="44.9943" lon="3.91824">
        <ele>670.18</ele>
        <time>2022-08-01T07:12:44Z</time>
      </trkpt>
      <trkpt lat="44.99415" lon="3.91838">
        <ele>668.73</ele>
        <time>2022-08-01T07:12:58Z</time>
      </trkpt>
      <trkpt lat="44.99401" lon="3.91851">
        <ele>668.25</ele>
        <time>2022-08-01T07:13:13Z</time>
      </trkpt>
      <trkpt lat="44.99391" lon="3.91864">
        <ele>669.22</ele>
        <time>2022-08-01T07:13:28Z</time>
      </trkpt>
      <trkpt lat="44.99381" lon="3.91869">
        <ele>671.62</ele>
        <time>2022-08-01T07:13:37Z</time>
      </trkpt>
      <trkpt lat="44.99368" lon="3.91885">
        <ele>673.06</ele>
        <time>2022-08-01T07:13:52Z</time>
      </trkpt>
      <trkpt lat="44.99357" lon="3.91899">
        <ele>673.06</ele>
        <time>2022-08-01T07:14:05Z</time>
      </trkpt>
      <trkpt lat="44.99356" lon="3.91901">
        <ele>673.06</ele>
        <time>2022-08-01T07:14:07Z</time>
      </trkpt>
      <trkpt lat="44.99353" lon="3.91915">
        <ele>673.06</ele>
        <time>2022-08-01T07:14:16Z</time>
      </trkpt>
      <trkpt lat="44.99352" lon="3.91917">
        <ele>673.06</ele>
        <time>2022-08-01T07:14:17Z</time>
      </trkpt>
      <trkpt lat="44.99351" lon="3.91919">
        <ele>673.54</ele>
        <time>2022-08-01T07:14:19Z</time>
      </trkpt>
      <trkpt lat="44.9935" lon="3.91922">
        <ele>673.54</ele>
        <time>2022-08-01T07:14:21Z</time>
      </trkpt>
      <trkpt lat="44.99341" lon="3.91942">
        <ele>674.98</ele>
        <time>2022-08-01T07:14:37Z</time>
      </trkpt>
      <trkpt lat="44.99333" lon="3.91961">
        <ele>676.91</ele>
        <time>2022-08-01T07:14:52Z</time>
      </trkpt>
      <trkpt lat="44.99325" lon="3.91977">
        <ele>679.31</ele>
        <time>2022-08-01T07:15:06Z</time>
      </trkpt>
      <trkpt lat="44.99324" lon="3.91979">
        <ele>679.79</ele>
        <time>2022-08-01T07:15:08Z</time>
      </trkpt>
      <trkpt lat="44.99322" lon="3.91982">
        <ele>679.79</ele>
        <time>2022-08-01T07:15:11Z</time>
      </trkpt>
      <trkpt lat="44.99319" lon="3.91988">
        <ele>679.31</ele>
        <time>2022-08-01T07:15:15Z</time>
      </trkpt>
      <trkpt lat="44.99312" lon="3.92007">
        <ele>681.71</ele>
        <time>2022-08-01T07:15:29Z</time>
      </trkpt>
      <trkpt lat="44.9931" lon="3.9201">
        <ele>682.19</ele>
        <time>2022-08-01T07:15:32Z</time>
      </trkpt>
      <trkpt lat="44.99307" lon="3.92013">
        <ele>683.15</ele>
        <time>2022-08-01T07:15:36Z</time>
      </trkpt>
      <trkpt lat="44.99306" lon="3.92015">
        <ele>683.15</ele>
        <time>2022-08-01T07:15:37Z</time>
      </trkpt>
      <trkpt lat="44.99305" lon="3.92016">
        <ele>683.15</ele>
        <time>2022-08-01T07:15:38Z</time>
      </trkpt>
      <trkpt lat="44.99305" lon="3.92017">
        <ele>683.15</ele>
        <time>2022-08-01T07:15:39Z</time>
      </trkpt>
      <trkpt lat="44.99304" lon="3.92019">
        <ele>683.15</ele>
        <time>2022-08-01T07:15:40Z</time>
      </trkpt>
      <trkpt lat="44.99303" lon="3.9202">
        <ele>683.15</ele>
        <time>2022-08-01T07:15:41Z</time>
      </trkpt>
      <trkpt lat="44.99302" lon="3.92021">
        <ele>683.63</ele>
        <time>2022-08-01T07:15:43Z</time>
      </trkpt>
      <trkpt lat="44.99301" lon="3.92023">
        <ele>684.12</ele>
        <time>2022-08-01T07:15:45Z</time>
      </trkpt>
      <trkpt lat="44.99297" lon="3.92032">
        <ele>685.08</ele>
        <time>2022-08-01T07:15:52Z</time>
      </trkpt>
      <trkpt lat="44.99286" lon="3.9205">
        <ele>686.04</ele>
        <time>2022-08-01T07:16:06Z</time>
      </trkpt>
      <trkpt lat="44.99268" lon="3.92065">
        <ele>687.48</ele>
        <time>2022-08-01T07:16:24Z</time>
      </trkpt>
      <trkpt lat="44.9925" lon="3.92065">
        <ele>688.44</ele>
        <time>2022-08-01T07:16:39Z</time>
      </trkpt>
      <trkpt lat="44.99236" lon="3.92064">
        <ele>688.44</ele>
        <time>2022-08-01T07:16:52Z</time>
      </trkpt>
      <trkpt lat="44.99231" lon="3.92063">
        <ele>689.88</ele>
        <time>2022-08-01T07:16:58Z</time>
      </trkpt>
      <trkpt lat="44.9922" lon="3.92058">
        <ele>691.33</ele>
        <time>2022-08-01T07:17:10Z</time>
      </trkpt>
      <trkpt lat="44.99203" lon="3.92055">
        <ele>693.25</ele>
        <time>2022-08-01T07:17:25Z</time>
      </trkpt>
      <trkpt lat="44.99188" lon="3.9205">
        <ele>695.65</ele>
        <time>2022-08-01T07:17:41Z</time>
      </trkpt>
      <trkpt lat="44.99173" lon="3.92045">
        <ele>700.46</ele>
        <time>2022-08-01T07:17:56Z</time>
      </trkpt>
      <trkpt lat="44.99168" lon="3.92036">
        <ele>701.9</ele>
        <time>2022-08-01T07:18:08Z</time>
      </trkpt>
      <trkpt lat="44.99166" lon="3.92032">
        <ele>702.38</ele>
        <time>2022-08-01T07:18:13Z</time>
      </trkpt>
      <trkpt lat="44.99164" lon="3.92019">
        <ele>700.46</ele>
        <time>2022-08-01T07:18:26Z</time>
      </trkpt>
      <trkpt lat="44.99157" lon="3.92002">
        <ele>698.05</ele>
        <time>2022-08-01T07:18:40Z</time>
      </trkpt>
      <trkpt lat="44.99152" lon="3.91984">
        <ele>700.46</ele>
        <time>2022-08-01T07:18:55Z</time>
      </trkpt>
      <trkpt lat="44.9915" lon="3.91967">
        <ele>706.71</ele>
        <time>2022-08-01T07:19:11Z</time>
      </trkpt>
      <trkpt lat="44.99143" lon="3.91943">
        <ele>707.19</ele>
        <time>2022-08-01T07:19:28Z</time>
      </trkpt>
      <trkpt lat="44.99132" lon="3.9193">
        <ele>710.55</ele>
        <time>2022-08-01T07:19:43Z</time>
      </trkpt>
      <trkpt lat="44.99129" lon="3.91928">
        <ele>711.51</ele>
        <time>2022-08-01T07:19:46Z</time>
      </trkpt>
      <trkpt lat="44.9912" lon="3.9192">
        <ele>712.47</ele>
        <time>2022-08-01T07:19:56Z</time>
      </trkpt>
      <trkpt lat="44.99104" lon="3.91905">
        <ele>714.88</ele>
        <time>2022-08-01T07:20:13Z</time>
      </trkpt>
      <trkpt lat="44.99089" lon="3.91888">
        <ele>717.76</ele>
        <time>2022-08-01T07:20:30Z</time>
      </trkpt>
      <trkpt lat="44.99077" lon="3.91876">
        <ele>720.65</ele>
        <time>2022-08-01T07:20:44Z</time>
      </trkpt>
      <trkpt lat="44.9907" lon="3.91863">
        <ele>723.05</ele>
        <time>2022-08-01T07:20:58Z</time>
      </trkpt>
      <trkpt lat="44.99066" lon="3.91843">
        <ele>724.01</ele>
        <time>2022-08-01T07:21:15Z</time>
      </trkpt>
      <trkpt lat="44.99065" lon="3.91841">
        <ele>724.01</ele>
        <time>2022-08-01T07:21:16Z</time>
      </trkpt>
      <trkpt lat="44.99065" lon="3.91826">
        <ele>726.41</ele>
        <time>2022-08-01T07:21:29Z</time>
      </trkpt>
      <trkpt lat="44.99066" lon="3.91808">
        <ele>728.34</ele>
        <time>2022-08-01T07:21:43Z</time>
      </trkpt>
      <trkpt lat="44.99069" lon="3.91788">
        <ele>729.78</ele>
        <time>2022-08-01T07:21:57Z</time>
      </trkpt>
      <trkpt lat="44.99071" lon="3.9177">
        <ele>730.74</ele>
        <time>2022-08-01T07:22:11Z</time>
      </trkpt>
      <trkpt lat="44.99073" lon="3.91765">
        <ele>730.26</ele>
        <time>2022-08-01T07:22:16Z</time>
      </trkpt>
      <trkpt lat="44.99075" lon="3.91744">
        <ele>733.62</ele>
        <time>2022-08-01T07:22:29Z</time>
      </trkpt>
      <trkpt lat="44.9908" lon="3.91723">
        <ele>735.55</ele>
        <time>2022-08-01T07:22:43Z</time>
      </trkpt>
      <trkpt lat="44.99084" lon="3.91707">
        <ele>738.91</ele>
        <time>2022-08-01T07:22:58Z</time>
      </trkpt>
      <trkpt lat="44.9908" lon="3.91698">
        <ele>740.83</ele>
        <time>2022-08-01T07:23:05Z</time>
      </trkpt>
      <trkpt lat="44.99076" lon="3.91697">
        <ele>741.79</ele>
        <time>2022-08-01T07:23:07Z</time>
      </trkpt>
      <trkpt lat="44.99074" lon="3.91696">
        <ele>741.79</ele>
        <time>2022-08-01T07:23:08Z</time>
      </trkpt>
      <trkpt lat="44.99072" lon="3.91695">
        <ele>741.79</ele>
        <time>2022-08-01T07:23:09Z</time>
      </trkpt>
      <trkpt lat="44.9907" lon="3.91695">
        <ele>741.79</ele>
        <time>2022-08-01T07:23:10Z</time>
      </trkpt>
      <trkpt lat="44.99069" lon="3.91694">
        <ele>741.79</ele>
        <time>2022-08-01T07:23:11Z</time>
      </trkpt>
      <trkpt lat="44.99068" lon="3.91694">
        <ele>741.79</ele>
        <time>2022-08-01T07:23:12Z</time>
      </trkpt>
      <trkpt lat="44.99053" lon="3.91684">
        <ele>742.76</ele>
        <time>2022-08-01T07:23:26Z</time>
      </trkpt>
      <trkpt lat="44.99037" lon="3.91675">
        <ele>746.12</ele>
        <time>2022-08-01T07:23:44Z</time>
      </trkpt>
      <trkpt lat="44.99029" lon="3.91666">
        <ele>747.56</ele>
        <time>2022-08-01T07:23:57Z</time>
      </trkpt>
      <trkpt lat="44.9903" lon="3.91659">
        <ele>749.49</ele>
        <time>2022-08-01T07:24:04Z</time>
      </trkpt>
      <trkpt lat="44.99039" lon="3.91654">
        <ele>748.04</ele>
        <time>2022-08-01T07:24:16Z</time>
      </trkpt>
      <trkpt lat="44.9905" lon="3.9164">
        <ele>749.49</ele>
        <time>2022-08-01T07:24:31Z</time>
      </trkpt>
      <trkpt lat="44.99062" lon="3.91624">
        <ele>750.45</ele>
        <time>2022-08-01T07:24:46Z</time>
      </trkpt>
      <trkpt lat="44.99074" lon="3.91611">
        <ele>751.89</ele>
        <time>2022-08-01T07:25:00Z</time>
      </trkpt>
      <trkpt lat="44.99084" lon="3.91597">
        <ele>753.81</ele>
        <time>2022-08-01T07:25:13Z</time>
      </trkpt>
      <trkpt lat="44.99096" lon="3.91583">
        <ele>753.33</ele>
        <time>2022-08-01T07:25:28Z</time>
      </trkpt>
      <trkpt lat="44.99098" lon="3.91577">
        <ele>753.33</ele>
        <time>2022-08-01T07:25:32Z</time>
      </trkpt>
      <trkpt lat="44.99099" lon="3.91574">
        <ele>753.33</ele>
        <time>2022-08-01T07:25:34Z</time>
      </trkpt>
      <trkpt lat="44.99091" lon="3.91564">
        <ele>755.73</ele>
        <time>2022-08-01T07:25:45Z</time>
      </trkpt>
      <trkpt lat="44.9909" lon="3.91564">
        <ele>755.73</ele>
        <time>2022-08-01T07:25:46Z</time>
      </trkpt>
      <trkpt lat="44.99075" lon="3.91558">
        <ele>758.14</ele>
        <time>2022-08-01T07:26:00Z</time>
      </trkpt>
      <trkpt lat="44.9906" lon="3.91554">
        <ele>759.1</ele>
        <time>2022-08-01T07:26:15Z</time>
      </trkpt>
      <trkpt lat="44.99044" lon="3.91549">
        <ele>761.98</ele>
        <time>2022-08-01T07:26:31Z</time>
      </trkpt>
      <trkpt lat="44.99028" lon="3.91546">
        <ele>763.9</ele>
        <time>2022-08-01T07:26:47Z</time>
      </trkpt>
      <trkpt lat="44.99029" lon="3.91548">
        <ele>765.35</ele>
        <time>2022-08-01T07:27:05Z</time>
      </trkpt>
      <trkpt lat="44.99025" lon="3.91547">
        <ele>765.35</ele>
        <time>2022-08-01T07:27:19Z</time>
      </trkpt>
      <trkpt lat="44.9902" lon="3.91544">
        <ele>764.87</ele>
        <time>2022-08-01T07:27:40Z</time>
      </trkpt>
      <trkpt lat="44.99007" lon="3.9154">
        <ele>766.79</ele>
        <time>2022-08-01T07:27:53Z</time>
      </trkpt>
      <trkpt lat="44.98992" lon="3.91529">
        <ele>770.15</ele>
        <time>2022-08-01T07:28:10Z</time>
      </trkpt>
      <trkpt lat="44.98983" lon="3.91519">
        <ele>773.04</ele>
        <time>2022-08-01T07:28:24Z</time>
      </trkpt>
      <trkpt lat="44.98978" lon="3.91505">
        <ele>776.88</ele>
        <time>2022-08-01T07:28:37Z</time>
      </trkpt>
      <trkpt lat="44.98971" lon="3.91491">
        <ele>780.25</ele>
        <time>2022-08-01T07:28:50Z</time>
      </trkpt>
      <trkpt lat="44.98962" lon="3.91473">
        <ele>782.17</ele>
        <time>2022-08-01T07:29:05Z</time>
      </trkpt>
      <trkpt lat="44.98955" lon="3.91457">
        <ele>785.05</ele>
        <time>2022-08-01T07:29:19Z</time>
      </trkpt>
      <trkpt lat="44.98947" lon="3.9144">
        <ele>790.34</ele>
        <time>2022-08-01T07:29:34Z</time>
      </trkpt>
      <trkpt lat="44.98938" lon="3.91423">
        <ele>793.71</ele>
        <time>2022-08-01T07:29:49Z</time>
      </trkpt>
      <trkpt lat="44.98924" lon="3.91408">
        <ele>792.74</ele>
        <time>2022-08-01T07:30:03Z</time>
      </trkpt>
      <trkpt lat="44.98917" lon="3.91401">
        <ele>793.71</ele>
        <time>2022-08-01T07:30:10Z</time>
      </trkpt>
      <trkpt lat="44.98914" lon="3.91395">
        <ele>794.67</ele>
        <time>2022-08-01T07:30:15Z</time>
      </trkpt>
      <trkpt lat="44.98905" lon="3.91377">
        <ele>798.03</ele>
        <time>2022-08-01T07:30:29Z</time>
      </trkpt>
      <trkpt lat="44.98896" lon="3.91363">
        <ele>800.92</ele>
        <time>2022-08-01T07:30:42Z</time>
      </trkpt>
      <trkpt lat="44.98892" lon="3.91358">
        <ele>801.88</ele>
        <time>2022-08-01T07:30:47Z</time>
      </trkpt>
      <trkpt lat="44.98875" lon="3.91343">
        <ele>797.55</ele>
        <time>2022-08-01T07:31:00Z</time>
      </trkpt>
      <trkpt lat="44.9886" lon="3.91339">
        <ele>794.19</ele>
        <time>2022-08-01T07:31:10Z</time>
      </trkpt>
      <trkpt lat="44.98844" lon="3.91337">
        <ele>791.3</ele>
        <time>2022-08-01T07:31:21Z</time>
      </trkpt>
      <trkpt lat="44.98828" lon="3.91335">
        <ele>790.34</ele>
        <time>2022-08-01T07:31:33Z</time>
      </trkpt>
      <trkpt lat="44.98808" lon="3.91334">
        <ele>786.98</ele>
        <time>2022-08-01T07:31:46Z</time>
      </trkpt>
      <trkpt lat="44.98803" lon="3.91335">
        <ele>786.02</ele>
        <time>2022-08-01T07:31:50Z</time>
      </trkpt>
      <trkpt lat="44.988" lon="3.91335">
        <ele>785.53</ele>
        <time>2022-08-01T07:31:52Z</time>
      </trkpt>
      <trkpt lat="44.98781" lon="3.9134">
        <ele>784.57</ele>
        <time>2022-08-01T07:32:07Z</time>
      </trkpt>
      <trkpt lat="44.98766" lon="3.91342">
        <ele>786.5</ele>
        <time>2022-08-01T07:32:23Z</time>
      </trkpt>
      <trkpt lat="44.98748" lon="3.91352">
        <ele>785.53</ele>
        <time>2022-08-01T07:32:37Z</time>
      </trkpt>
      <trkpt lat="44.98734" lon="3.91359">
        <ele>785.05</ele>
        <time>2022-08-01T07:32:51Z</time>
      </trkpt>
      <trkpt lat="44.98716" lon="3.91366">
        <ele>786.98</ele>
        <time>2022-08-01T07:33:07Z</time>
      </trkpt>
      <trkpt lat="44.98702" lon="3.91373">
        <ele>786.5</ele>
        <time>2022-08-01T07:33:22Z</time>
      </trkpt>
      <trkpt lat="44.98687" lon="3.91375">
        <ele>792.74</ele>
        <time>2022-08-01T07:33:38Z</time>
      </trkpt>
      <trkpt lat="44.98681" lon="3.91374">
        <ele>792.74</ele>
        <time>2022-08-01T07:33:46Z</time>
      </trkpt>
      <trkpt lat="44.98669" lon="3.91371">
        <ele>795.63</ele>
        <time>2022-08-01T07:34:01Z</time>
      </trkpt>
      <trkpt lat="44.9866" lon="3.91372">
        <ele>796.59</ele>
        <time>2022-08-01T07:34:09Z</time>
      </trkpt>
      <trkpt lat="44.98647" lon="3.91379">
        <ele>796.59</ele>
        <time>2022-08-01T07:34:20Z</time>
      </trkpt>
      <trkpt lat="44.98646" lon="3.9138">
        <ele>796.59</ele>
        <time>2022-08-01T07:34:21Z</time>
      </trkpt>
      <trkpt lat="44.98633" lon="3.91384">
        <ele>798.99</ele>
        <time>2022-08-01T07:34:35Z</time>
      </trkpt>
      <trkpt lat="44.98626" lon="3.91383">
        <ele>800.44</ele>
        <time>2022-08-01T07:34:44Z</time>
      </trkpt>
      <trkpt lat="44.98607" lon="3.91386">
        <ele>802.84</ele>
        <time>2022-08-01T07:35:02Z</time>
      </trkpt>
      <trkpt lat="44.98588" lon="3.91394">
        <ele>807.16</ele>
        <time>2022-08-01T07:35:21Z</time>
      </trkpt>
      <trkpt lat="44.98573" lon="3.91404">
        <ele>808.61</ele>
        <time>2022-08-01T07:35:36Z</time>
      </trkpt>
      <trkpt lat="44.9856" lon="3.91417">
        <ele>809.09</ele>
        <time>2022-08-01T07:35:51Z</time>
      </trkpt>
      <trkpt lat="44.98548" lon="3.91426">
        <ele>810.53</ele>
        <time>2022-08-01T07:36:05Z</time>
      </trkpt>
      <trkpt lat="44.98536" lon="3.91437">
        <ele>811.01</ele>
        <time>2022-08-01T07:36:19Z</time>
      </trkpt>
      <trkpt lat="44.98523" lon="3.91446">
        <ele>812.93</ele>
        <time>2022-08-01T07:36:33Z</time>
      </trkpt>
      <trkpt lat="44.98509" lon="3.91442">
        <ele>815.34</ele>
        <time>2022-08-01T07:36:48Z</time>
      </trkpt>
      <trkpt lat="44.98509" lon="3.91447">
        <ele>817.26</ele>
        <time>2022-08-01T07:37:00Z</time>
      </trkpt>
      <trkpt lat="44.98506" lon="3.91448">
        <ele>816.78</ele>
        <time>2022-08-01T07:37:24Z</time>
      </trkpt>
      <trkpt lat="44.98501" lon="3.91449">
        <ele>816.3</ele>
        <time>2022-08-01T07:37:38Z</time>
      </trkpt>
      <trkpt lat="44.985" lon="3.91455">
        <ele>815.82</ele>
        <time>2022-08-01T07:37:52Z</time>
      </trkpt>
      <trkpt lat="44.985" lon="3.91456">
        <ele>816.3</ele>
        <time>2022-08-01T07:38:16Z</time>
      </trkpt>
      <trkpt lat="44.985" lon="3.91456">
        <ele>814.85</ele>
        <time>2022-08-01T07:38:37Z</time>
      </trkpt>
      <trkpt lat="44.98499" lon="3.91458">
        <ele>813.41</ele>
        <time>2022-08-01T07:39:26Z</time>
      </trkpt>
      <trkpt lat="44.98498" lon="3.91457">
        <ele>813.89</ele>
        <time>2022-08-01T07:40:13Z</time>
      </trkpt>
      <trkpt lat="44.98499" lon="3.91455">
        <ele>818.22</ele>
        <time>2022-08-01T07:40:52Z</time>
      </trkpt>
      <trkpt lat="44.98499" lon="3.91456">
        <ele>815.82</ele>
        <time>2022-08-01T07:41:34Z</time>
      </trkpt>
      <trkpt lat="44.985" lon="3.91455">
        <ele>816.78</ele>
        <time>2022-08-01T07:42:07Z</time>
      </trkpt>
      <trkpt lat="44.98499" lon="3.91455">
        <ele>812.93</ele>
        <time>2022-08-01T07:42:48Z</time>
      </trkpt>
      <trkpt lat="44.98498" lon="3.91454">
        <ele>811.97</ele>
        <time>2022-08-01T07:43:30Z</time>
      </trkpt>
      <trkpt lat="44.98501" lon="3.91456">
        <ele>812.93</ele>
        <time>2022-08-01T07:44:18Z</time>
      </trkpt>
      <trkpt lat="44.98499" lon="3.91453">
        <ele>814.37</ele>
        <time>2022-08-01T07:44:55Z</time>
      </trkpt>
      <trkpt lat="44.98499" lon="3.91451">
        <ele>815.34</ele>
        <time>2022-08-01T07:45:24Z</time>
      </trkpt>
      <trkpt lat="44.98498" lon="3.91451">
        <ele>816.78</ele>
        <time>2022-08-01T07:45:53Z</time>
      </trkpt>
      <trkpt lat="44.98498" lon="3.91453">
        <ele>816.3</ele>
        <time>2022-08-01T07:46:26Z</time>
      </trkpt>
      <trkpt lat="44.985" lon="3.91453">
        <ele>817.26</ele>
        <time>2022-08-01T07:47:05Z</time>
      </trkpt>
      <trkpt lat="44.985" lon="3.91454">
        <ele>815.34</ele>
        <time>2022-08-01T07:47:47Z</time>
      </trkpt>
      <trkpt lat="44.98499" lon="3.91454">
        <ele>814.37</ele>
        <time>2022-08-01T07:48:34Z</time>
      </trkpt>
      <trkpt lat="44.98499" lon="3.91453">
        <ele>812.45</ele>
        <time>2022-08-01T07:49:07Z</time>
      </trkpt>
      <trkpt lat="44.98499" lon="3.91453">
        <ele>817.74</ele>
        <time>2022-08-01T07:49:52Z</time>
      </trkpt>
      <trkpt lat="44.985" lon="3.91454">
        <ele>818.22</ele>
        <time>2022-08-01T07:50:29Z</time>
      </trkpt>
      <trkpt lat="44.98502" lon="3.91456">
        <ele>817.26</ele>
        <time>2022-08-01T07:51:07Z</time>
      </trkpt>
      <trkpt lat="44.98499" lon="3.91455">
        <ele>817.26</ele>
        <time>2022-08-01T07:51:45Z</time>
      </trkpt>
      <trkpt lat="44.98497" lon="3.91458">
        <ele>817.74</ele>
        <time>2022-08-01T07:52:00Z</time>
      </trkpt>
      <trkpt lat="44.98499" lon="3.91457">
        <ele>819.18</ele>
        <time>2022-08-01T07:52:17Z</time>
      </trkpt>
      <trkpt lat="44.98504" lon="3.91448">
        <ele>817.26</ele>
        <time>2022-08-01T07:52:34Z</time>
      </trkpt>
      <trkpt lat="44.98505" lon="3.91446">
        <ele>817.26</ele>
        <time>2022-08-01T07:52:35Z</time>
      </trkpt>
      <trkpt lat="44.98508" lon="3.9144">
        <ele>815.82</ele>
        <time>2022-08-01T07:52:40Z</time>
      </trkpt>
      <trkpt lat="44.98508" lon="3.91438">
        <ele>816.3</ele>
        <time>2022-08-01T07:52:41Z</time>
      </trkpt>
      <trkpt lat="44.98507" lon="3.91437">
        <ele>816.3</ele>
        <time>2022-08-01T07:52:42Z</time>
      </trkpt>
      <trkpt lat="44.98507" lon="3.91435">
        <ele>816.3</ele>
        <time>2022-08-01T07:52:43Z</time>
      </trkpt>
      <trkpt lat="44.985" lon="3.91423">
        <ele>816.78</ele>
        <time>2022-08-01T07:52:54Z</time>
      </trkpt>
      <trkpt lat="44.98485" lon="3.91407">
        <ele>815.34</ele>
        <time>2022-08-01T07:53:11Z</time>
      </trkpt>
      <trkpt lat="44.98473" lon="3.91393">
        <ele>815.82</ele>
        <time>2022-08-01T07:53:24Z</time>
      </trkpt>
      <trkpt lat="44.98472" lon="3.91393">
        <ele>815.82</ele>
        <time>2022-08-01T07:53:25Z</time>
      </trkpt>
      <trkpt lat="44.98458" lon="3.91375">
        <ele>816.78</ele>
        <time>2022-08-01T07:53:42Z</time>
      </trkpt>
      <trkpt lat="44.98448" lon="3.91363">
        <ele>816.78</ele>
        <time>2022-08-01T07:53:56Z</time>
      </trkpt>
      <trkpt lat="44.98443" lon="3.91356">
        <ele>815.82</ele>
        <time>2022-08-01T07:54:02Z</time>
      </trkpt>
      <trkpt lat="44.98442" lon="3.91355">
        <ele>815.34</ele>
        <time>2022-08-01T07:54:03Z</time>
      </trkpt>
      <trkpt lat="44.98427" lon="3.91352">
        <ele>813.89</ele>
        <time>2022-08-01T07:54:12Z</time>
      </trkpt>
      <trkpt lat="44.98414" lon="3.91365">
        <ele>814.85</ele>
        <time>2022-08-01T07:54:25Z</time>
      </trkpt>
      <trkpt lat="44.98413" lon="3.91366">
        <ele>814.85</ele>
        <time>2022-08-01T07:54:26Z</time>
      </trkpt>
      <trkpt lat="44.98412" lon="3.91367">
        <ele>814.85</ele>
        <time>2022-08-01T07:54:27Z</time>
      </trkpt>
      <trkpt lat="44.98406" lon="3.91393">
        <ele>813.41</ele>
        <time>2022-08-01T07:54:43Z</time>
      </trkpt>
      <trkpt lat="44.98405" lon="3.9141">
        <ele>815.82</ele>
        <time>2022-08-01T07:54:54Z</time>
      </trkpt>
      <trkpt lat="44.98405" lon="3.91412">
        <ele>816.3</ele>
        <time>2022-08-01T07:54:55Z</time>
      </trkpt>
      <trkpt lat="44.98404" lon="3.91416">
        <ele>816.78</ele>
        <time>2022-08-01T07:54:58Z</time>
      </trkpt>
      <trkpt lat="44.98402" lon="3.91445">
        <ele>816.78</ele>
        <time>2022-08-01T07:55:15Z</time>
      </trkpt>
      <trkpt lat="44.98403" lon="3.91448">
        <ele>816.78</ele>
        <time>2022-08-01T07:55:17Z</time>
      </trkpt>
      <trkpt lat="44.98403" lon="3.9145">
        <ele>816.3</ele>
        <time>2022-08-01T07:55:18Z</time>
      </trkpt>
      <trkpt lat="44.98407" lon="3.9147">
        <ele>815.34</ele>
        <time>2022-08-01T07:55:30Z</time>
      </trkpt>
      <trkpt lat="44.98407" lon="3.91483">
        <ele>815.34</ele>
        <time>2022-08-01T07:55:38Z</time>
      </trkpt>
      <trkpt lat="44.98401" lon="3.91502">
        <ele>815.82</ele>
        <time>2022-08-01T07:55:52Z</time>
      </trkpt>
      <trkpt lat="44.98398" lon="3.91513">
        <ele>816.3</ele>
        <time>2022-08-01T07:56:00Z</time>
      </trkpt>
      <trkpt lat="44.98391" lon="3.91531">
        <ele>819.66</ele>
        <time>2022-08-01T07:56:15Z</time>
      </trkpt>
      <trkpt lat="44.98383" lon="3.91547">
        <ele>821.58</ele>
        <time>2022-08-01T07:56:29Z</time>
      </trkpt>
      <trkpt lat="44.98374" lon="3.91563">
        <ele>822.06</ele>
        <time>2022-08-01T07:56:43Z</time>
      </trkpt>
      <trkpt lat="44.98372" lon="3.91567">
        <ele>822.06</ele>
        <time>2022-08-01T07:56:46Z</time>
      </trkpt>
      <trkpt lat="44.98365" lon="3.91576">
        <ele>822.06</ele>
        <time>2022-08-01T07:56:54Z</time>
      </trkpt>
      <trkpt lat="44.98353" lon="3.91589">
        <ele>821.58</ele>
        <time>2022-08-01T07:57:07Z</time>
      </trkpt>
      <trkpt lat="44.98349" lon="3.91596">
        <ele>822.55</ele>
        <time>2022-08-01T07:57:13Z</time>
      </trkpt>
      <trkpt lat="44.98348" lon="3.91598">
        <ele>822.55</ele>
        <time>2022-08-01T07:57:14Z</time>
      </trkpt>
      <trkpt lat="44.98347" lon="3.91599">
        <ele>822.55</ele>
        <time>2022-08-01T07:57:15Z</time>
      </trkpt>
      <trkpt lat="44.98346" lon="3.916">
        <ele>823.03</ele>
        <time>2022-08-01T07:57:16Z</time>
      </trkpt>
      <trkpt lat="44.98346" lon="3.91601">
        <ele>823.03</ele>
        <time>2022-08-01T07:57:17Z</time>
      </trkpt>
      <trkpt lat="44.98345" lon="3.91602">
        <ele>823.03</ele>
        <time>2022-08-01T07:57:18Z</time>
      </trkpt>
      <trkpt lat="44.98339" lon="3.91607">
        <ele>823.03</ele>
        <time>2022-08-01T07:57:24Z</time>
      </trkpt>
      <trkpt lat="44.98339" lon="3.91609">
        <ele>823.51</ele>
        <time>2022-08-01T07:57:25Z</time>
      </trkpt>
      <trkpt lat="44.98338" lon="3.9161">
        <ele>823.51</ele>
        <time>2022-08-01T07:57:26Z</time>
      </trkpt>
      <trkpt lat="44.98337" lon="3.91611">
        <ele>823.51</ele>
        <time>2022-08-01T07:57:27Z</time>
      </trkpt>
      <trkpt lat="44.98336" lon="3.91612">
        <ele>823.51</ele>
        <time>2022-08-01T07:57:28Z</time>
      </trkpt>
      <trkpt lat="44.98321" lon="3.91629">
        <ele>823.51</ele>
        <time>2022-08-01T07:57:45Z</time>
      </trkpt>
      <trkpt lat="44.98316" lon="3.91632">
        <ele>823.03</ele>
        <time>2022-08-01T07:57:49Z</time>
      </trkpt>
      <trkpt lat="44.98315" lon="3.91633">
        <ele>823.03</ele>
        <time>2022-08-01T07:57:50Z</time>
      </trkpt>
      <trkpt lat="44.98301" lon="3.91651">
        <ele>824.95</ele>
        <time>2022-08-01T07:58:08Z</time>
      </trkpt>
      <trkpt lat="44.98289" lon="3.91667">
        <ele>825.43</ele>
        <time>2022-08-01T07:58:23Z</time>
      </trkpt>
      <trkpt lat="44.98277" lon="3.91683">
        <ele>825.91</ele>
        <time>2022-08-01T07:58:38Z</time>
      </trkpt>
      <trkpt lat="44.98261" lon="3.91693">
        <ele>827.35</ele>
        <time>2022-08-01T07:58:53Z</time>
      </trkpt>
      <trkpt lat="44.98246" lon="3.91698">
        <ele>828.79</ele>
        <time>2022-08-01T07:59:08Z</time>
      </trkpt>
      <trkpt lat="44.98233" lon="3.91693">
        <ele>830.72</ele>
        <time>2022-08-01T07:59:22Z</time>
      </trkpt>
      <trkpt lat="44.98219" lon="3.91686">
        <ele>833.6</ele>
        <time>2022-08-01T07:59:39Z</time>
      </trkpt>
      <trkpt lat="44.98204" lon="3.91679">
        <ele>836</ele>
        <time>2022-08-01T07:59:52Z</time>
      </trkpt>
      <trkpt lat="44.98188" lon="3.9168">
        <ele>839.37</ele>
        <time>2022-08-01T08:00:08Z</time>
      </trkpt>
      <trkpt lat="44.98171" lon="3.9169">
        <ele>843.69</ele>
        <time>2022-08-01T08:00:25Z</time>
      </trkpt>
      <trkpt lat="44.98162" lon="3.91698">
        <ele>848.02</ele>
        <time>2022-08-01T08:00:36Z</time>
      </trkpt>
      <trkpt lat="44.98161" lon="3.91699">
        <ele>848.5</ele>
        <time>2022-08-01T08:00:37Z</time>
      </trkpt>
      <trkpt lat="44.98151" lon="3.91719">
        <ele>850.9</ele>
        <time>2022-08-01T08:00:52Z</time>
      </trkpt>
      <trkpt lat="44.98149" lon="3.91733">
        <ele>849.46</ele>
        <time>2022-08-01T08:01:00Z</time>
      </trkpt>
      <trkpt lat="44.98145" lon="3.91748">
        <ele>847.54</ele>
        <time>2022-08-01T08:01:10Z</time>
      </trkpt>
      <trkpt lat="44.98145" lon="3.91762">
        <ele>846.58</ele>
        <time>2022-08-01T08:01:18Z</time>
      </trkpt>
      <trkpt lat="44.98141" lon="3.91777">
        <ele>846.1</ele>
        <time>2022-08-01T08:01:28Z</time>
      </trkpt>
      <trkpt lat="44.9814" lon="3.91804">
        <ele>846.1</ele>
        <time>2022-08-01T08:01:45Z</time>
      </trkpt>
      <trkpt lat="44.98143" lon="3.91826">
        <ele>845.62</ele>
        <time>2022-08-01T08:01:59Z</time>
      </trkpt>
      <trkpt lat="44.98143" lon="3.91848">
        <ele>846.1</ele>
        <time>2022-08-01T08:02:13Z</time>
      </trkpt>
      <trkpt lat="44.98133" lon="3.91871">
        <ele>846.58</ele>
        <time>2022-08-01T08:02:31Z</time>
      </trkpt>
      <trkpt lat="44.98127" lon="3.91882">
        <ele>847.06</ele>
        <time>2022-08-01T08:02:40Z</time>
      </trkpt>
      <trkpt lat="44.98113" lon="3.91901">
        <ele>849.94</ele>
        <time>2022-08-01T08:02:58Z</time>
      </trkpt>
      <trkpt lat="44.98111" lon="3.91907">
        <ele>849.94</ele>
        <time>2022-08-01T08:03:02Z</time>
      </trkpt>
      <trkpt lat="44.981" lon="3.9192">
        <ele>851.87</ele>
        <time>2022-08-01T08:03:16Z</time>
      </trkpt>
      <trkpt lat="44.98096" lon="3.91926">
        <ele>851.87</ele>
        <time>2022-08-01T08:03:21Z</time>
      </trkpt>
      <trkpt lat="44.98096" lon="3.91927">
        <ele>851.87</ele>
        <time>2022-08-01T08:03:22Z</time>
      </trkpt>
      <trkpt lat="44.98095" lon="3.91928">
        <ele>851.38</ele>
        <time>2022-08-01T08:03:23Z</time>
      </trkpt>
      <trkpt lat="44.98094" lon="3.9193">
        <ele>851.87</ele>
        <time>2022-08-01T08:03:24Z</time>
      </trkpt>
      <trkpt lat="44.9808" lon="3.91948">
        <ele>854.75</ele>
        <time>2022-08-01T08:03:42Z</time>
      </trkpt>
      <trkpt lat="44.98068" lon="3.91972">
        <ele>854.75</ele>
        <time>2022-08-01T08:04:00Z</time>
      </trkpt>
      <trkpt lat="44.98056" lon="3.91994">
        <ele>855.71</ele>
        <time>2022-08-01T08:04:17Z</time>
      </trkpt>
      <trkpt lat="44.98044" lon="3.92015">
        <ele>856.67</ele>
        <time>2022-08-01T08:04:34Z</time>
      </trkpt>
      <trkpt lat="44.98031" lon="3.92034">
        <ele>858.11</ele>
        <time>2022-08-01T08:04:51Z</time>
      </trkpt>
      <trkpt lat="44.9802" lon="3.92051">
        <ele>859.56</ele>
        <time>2022-08-01T08:05:07Z</time>
      </trkpt>
      <trkpt lat="44.98016" lon="3.92054">
        <ele>860.04</ele>
        <time>2022-08-01T08:05:26Z</time>
      </trkpt>
      <trkpt lat="44.98014" lon="3.92061">
        <ele>859.56</ele>
        <time>2022-08-01T08:05:32Z</time>
      </trkpt>
      <trkpt lat="44.98003" lon="3.92076">
        <ele>860.04</ele>
        <time>2022-08-01T08:05:47Z</time>
      </trkpt>
      <trkpt lat="44.9799" lon="3.92096">
        <ele>861</ele>
        <time>2022-08-01T08:06:06Z</time>
      </trkpt>
      <trkpt lat="44.97979" lon="3.92112">
        <ele>861.48</ele>
        <time>2022-08-01T08:06:21Z</time>
      </trkpt>
      <trkpt lat="44.97967" lon="3.92127">
        <ele>861.96</ele>
        <time>2022-08-01T08:06:37Z</time>
      </trkpt>
      <trkpt lat="44.97956" lon="3.92145">
        <ele>862.92</ele>
        <time>2022-08-01T08:06:53Z</time>
      </trkpt>
      <trkpt lat="44.97943" lon="3.92166">
        <ele>866.77</ele>
        <time>2022-08-01T08:07:10Z</time>
      </trkpt>
      <trkpt lat="44.97933" lon="3.92185">
        <ele>868.21</ele>
        <time>2022-08-01T08:07:25Z</time>
      </trkpt>
      <trkpt lat="44.97926" lon="3.92201">
        <ele>869.17</ele>
        <time>2022-08-01T08:07:37Z</time>
      </trkpt>
      <trkpt lat="44.97918" lon="3.92221">
        <ele>869.17</ele>
        <time>2022-08-01T08:07:51Z</time>
      </trkpt>
      <trkpt lat="44.97908" lon="3.92243">
        <ele>870.13</ele>
        <time>2022-08-01T08:08:08Z</time>
      </trkpt>
      <trkpt lat="44.97898" lon="3.92266">
        <ele>872.05</ele>
        <time>2022-08-01T08:08:26Z</time>
      </trkpt>
      <trkpt lat="44.97889" lon="3.92285">
        <ele>875.42</ele>
        <time>2022-08-01T08:08:42Z</time>
      </trkpt>
      <trkpt lat="44.97888" lon="3.92288">
        <ele>875.9</ele>
        <time>2022-08-01T08:08:44Z</time>
      </trkpt>
      <trkpt lat="44.97879" lon="3.92306">
        <ele>876.38</ele>
        <time>2022-08-01T08:08:59Z</time>
      </trkpt>
      <trkpt lat="44.97868" lon="3.92327">
        <ele>878.78</ele>
        <time>2022-08-01T08:09:16Z</time>
      </trkpt>
      <trkpt lat="44.9786" lon="3.92342">
        <ele>879.26</ele>
        <time>2022-08-01T08:09:28Z</time>
      </trkpt>
      <trkpt lat="44.9785" lon="3.92359">
        <ele>881.19</ele>
        <time>2022-08-01T08:09:43Z</time>
      </trkpt>
      <trkpt lat="44.97838" lon="3.92378">
        <ele>882.63</ele>
        <time>2022-08-01T08:09:59Z</time>
      </trkpt>
      <trkpt lat="44.9783" lon="3.92392">
        <ele>883.59</ele>
        <time>2022-08-01T08:10:11Z</time>
      </trkpt>
      <trkpt lat="44.97818" lon="3.92411">
        <ele>884.55</ele>
        <time>2022-08-01T08:10:27Z</time>
      </trkpt>
      <trkpt lat="44.97815" lon="3.92418">
        <ele>885.51</ele>
        <time>2022-08-01T08:10:44Z</time>
      </trkpt>
      <trkpt lat="44.97803" lon="3.92439">
        <ele>886.95</ele>
        <time>2022-08-01T08:11:00Z</time>
      </trkpt>
      <trkpt lat="44.978" lon="3.92443">
        <ele>887.43</ele>
        <time>2022-08-01T08:11:04Z</time>
      </trkpt>
      <trkpt lat="44.9779" lon="3.92457">
        <ele>889.36</ele>
        <time>2022-08-01T08:11:17Z</time>
      </trkpt>
      <trkpt lat="44.97782" lon="3.92471">
        <ele>889.84</ele>
        <time>2022-08-01T08:11:29Z</time>
      </trkpt>
      <trkpt lat="44.97772" lon="3.92489">
        <ele>888.88</ele>
        <time>2022-08-01T08:11:43Z</time>
      </trkpt>
      <trkpt lat="44.97762" lon="3.92504">
        <ele>890.32</ele>
        <time>2022-08-01T08:11:56Z</time>
      </trkpt>
      <trkpt lat="44.97757" lon="3.9251">
        <ele>891.76</ele>
        <time>2022-08-01T08:12:02Z</time>
      </trkpt>
      <trkpt lat="44.97743" lon="3.92523">
        <ele>894.16</ele>
        <time>2022-08-01T08:12:17Z</time>
      </trkpt>
      <trkpt lat="44.97733" lon="3.92529">
        <ele>894.64</ele>
        <time>2022-08-01T08:12:28Z</time>
      </trkpt>
      <trkpt lat="44.97721" lon="3.92542">
        <ele>895.12</ele>
        <time>2022-08-01T08:12:42Z</time>
      </trkpt>
      <trkpt lat="44.97707" lon="3.92559">
        <ele>895.61</ele>
        <time>2022-08-01T08:12:58Z</time>
      </trkpt>
      <trkpt lat="44.97694" lon="3.92578">
        <ele>896.09</ele>
        <time>2022-08-01T08:13:14Z</time>
      </trkpt>
      <trkpt lat="44.97684" lon="3.92593">
        <ele>897.05</ele>
        <time>2022-08-01T08:13:27Z</time>
      </trkpt>
      <trkpt lat="44.9768" lon="3.92598">
        <ele>898.01</ele>
        <time>2022-08-01T08:13:32Z</time>
      </trkpt>
      <trkpt lat="44.97668" lon="3.92617">
        <ele>899.93</ele>
        <time>2022-08-01T08:13:48Z</time>
      </trkpt>
      <trkpt lat="44.97658" lon="3.92633">
        <ele>900.41</ele>
        <time>2022-08-01T08:14:01Z</time>
      </trkpt>
      <trkpt lat="44.97648" lon="3.92654">
        <ele>898.97</ele>
        <time>2022-08-01T08:14:18Z</time>
      </trkpt>
      <trkpt lat="44.97648" lon="3.92652">
        <ele>896.57</ele>
        <time>2022-08-01T08:14:33Z</time>
      </trkpt>
      <trkpt lat="44.97649" lon="3.92654">
        <ele>897.53</ele>
        <time>2022-08-01T08:15:03Z</time>
      </trkpt>
      <trkpt lat="44.97646" lon="3.92656">
        <ele>898.49</ele>
        <time>2022-08-01T08:15:06Z</time>
      </trkpt>
      <trkpt lat="44.97646" lon="3.92657">
        <ele>898.49</ele>
        <time>2022-08-01T08:15:07Z</time>
      </trkpt>
      <trkpt lat="44.97645" lon="3.92659">
        <ele>898.49</ele>
        <time>2022-08-01T08:15:08Z</time>
      </trkpt>
      <trkpt lat="44.97644" lon="3.9266">
        <ele>898.49</ele>
        <time>2022-08-01T08:15:09Z</time>
      </trkpt>
      <trkpt lat="44.97643" lon="3.92661">
        <ele>898.49</ele>
        <time>2022-08-01T08:15:10Z</time>
      </trkpt>
      <trkpt lat="44.97643" lon="3.92662">
        <ele>898.49</ele>
        <time>2022-08-01T08:15:11Z</time>
      </trkpt>
      <trkpt lat="44.97629" lon="3.92685">
        <ele>897.53</ele>
        <time>2022-08-01T08:15:28Z</time>
      </trkpt>
      <trkpt lat="44.97616" lon="3.92705">
        <ele>897.05</ele>
        <time>2022-08-01T08:15:44Z</time>
      </trkpt>
      <trkpt lat="44.97602" lon="3.92726">
        <ele>894.64</ele>
        <time>2022-08-01T08:16:00Z</time>
      </trkpt>
      <trkpt lat="44.97582" lon="3.92744">
        <ele>893.68</ele>
        <time>2022-08-01T08:16:18Z</time>
      </trkpt>
      <trkpt lat="44.97562" lon="3.92756">
        <ele>892.24</ele>
        <time>2022-08-01T08:16:35Z</time>
      </trkpt>
      <trkpt lat="44.97542" lon="3.92766">
        <ele>890.8</ele>
        <time>2022-08-01T08:16:51Z</time>
      </trkpt>
      <trkpt lat="44.97522" lon="3.92778">
        <ele>890.8</ele>
        <time>2022-08-01T08:17:08Z</time>
      </trkpt>
      <trkpt lat="44.97498" lon="3.9279">
        <ele>889.84</ele>
        <time>2022-08-01T08:17:28Z</time>
      </trkpt>
      <trkpt lat="44.97489" lon="3.92794">
        <ele>889.36</ele>
        <time>2022-08-01T08:17:36Z</time>
      </trkpt>
      <trkpt lat="44.97468" lon="3.92797">
        <ele>888.88</ele>
        <time>2022-08-01T08:17:52Z</time>
      </trkpt>
      <trkpt lat="44.97447" lon="3.92803">
        <ele>887.91</ele>
        <time>2022-08-01T08:18:09Z</time>
      </trkpt>
      <trkpt lat="44.9743" lon="3.92814">
        <ele>888.4</ele>
        <time>2022-08-01T08:18:24Z</time>
      </trkpt>
      <trkpt lat="44.97413" lon="3.92827">
        <ele>890.32</ele>
        <time>2022-08-01T08:18:39Z</time>
      </trkpt>
      <trkpt lat="44.97397" lon="3.92844">
        <ele>890.8</ele>
        <time>2022-08-01T08:18:55Z</time>
      </trkpt>
      <trkpt lat="44.9738" lon="3.92864">
        <ele>893.2</ele>
        <time>2022-08-01T08:19:13Z</time>
      </trkpt>
      <trkpt lat="44.97372" lon="3.92877">
        <ele>891.76</ele>
        <time>2022-08-01T08:19:31Z</time>
      </trkpt>
      <trkpt lat="44.97364" lon="3.9289">
        <ele>888.88</ele>
        <time>2022-08-01T08:19:49Z</time>
      </trkpt>
      <trkpt lat="44.97349" lon="3.92912">
        <ele>885.99</ele>
        <time>2022-08-01T08:20:07Z</time>
      </trkpt>
      <trkpt lat="44.9734" lon="3.9293">
        <ele>884.55</ele>
        <time>2022-08-01T08:20:20Z</time>
      </trkpt>
      <trkpt lat="44.9734" lon="3.92931">
        <ele>884.55</ele>
        <time>2022-08-01T08:20:21Z</time>
      </trkpt>
      <trkpt lat="44.97339" lon="3.92932">
        <ele>884.55</ele>
        <time>2022-08-01T08:20:22Z</time>
      </trkpt>
      <trkpt lat="44.97338" lon="3.92934">
        <ele>884.07</ele>
        <time>2022-08-01T08:20:23Z</time>
      </trkpt>
      <trkpt lat="44.97338" lon="3.92936">
        <ele>884.07</ele>
        <time>2022-08-01T08:20:24Z</time>
      </trkpt>
      <trkpt lat="44.97337" lon="3.92937">
        <ele>883.59</ele>
        <time>2022-08-01T08:20:25Z</time>
      </trkpt>
      <trkpt lat="44.97326" lon="3.92965">
        <ele>883.11</ele>
        <time>2022-08-01T08:20:43Z</time>
      </trkpt>
      <trkpt lat="44.97326" lon="3.92967">
        <ele>883.11</ele>
        <time>2022-08-01T08:20:44Z</time>
      </trkpt>
      <trkpt lat="44.97316" lon="3.92989">
        <ele>881.67</ele>
        <time>2022-08-01T08:21:00Z</time>
      </trkpt>
      <trkpt lat="44.97301" lon="3.93016">
        <ele>880.71</ele>
        <time>2022-08-01T08:21:19Z</time>
      </trkpt>
      <trkpt lat="44.97296" lon="3.93032">
        <ele>880.71</ele>
        <time>2022-08-01T08:21:30Z</time>
      </trkpt>
      <trkpt lat="44.97295" lon="3.93035">
        <ele>880.71</ele>
        <time>2022-08-01T08:21:32Z</time>
      </trkpt>
      <trkpt lat="44.97295" lon="3.93037">
        <ele>881.19</ele>
        <time>2022-08-01T08:21:33Z</time>
      </trkpt>
      <trkpt lat="44.97293" lon="3.93039">
        <ele>881.19</ele>
        <time>2022-08-01T08:21:36Z</time>
      </trkpt>
      <trkpt lat="44.97291" lon="3.93042">
        <ele>881.19</ele>
        <time>2022-08-01T08:21:39Z</time>
      </trkpt>
      <trkpt lat="44.9728" lon="3.93068">
        <ele>882.15</ele>
        <time>2022-08-01T08:21:56Z</time>
      </trkpt>
      <trkpt lat="44.97271" lon="3.93093">
        <ele>882.15</ele>
        <time>2022-08-01T08:22:12Z</time>
      </trkpt>
      <trkpt lat="44.97267" lon="3.93108">
        <ele>881.67</ele>
        <time>2022-08-01T08:22:21Z</time>
      </trkpt>
      <trkpt lat="44.97266" lon="3.9311">
        <ele>881.67</ele>
        <time>2022-08-01T08:22:22Z</time>
      </trkpt>
      <trkpt lat="44.97257" lon="3.93137">
        <ele>881.19</ele>
        <time>2022-08-01T08:22:38Z</time>
      </trkpt>
      <trkpt lat="44.97248" lon="3.93165">
        <ele>881.19</ele>
        <time>2022-08-01T08:22:55Z</time>
      </trkpt>
      <trkpt lat="44.97239" lon="3.93189">
        <ele>882.63</ele>
        <time>2022-08-01T08:23:11Z</time>
      </trkpt>
      <trkpt lat="44.97228" lon="3.93212">
        <ele>884.55</ele>
        <time>2022-08-01T08:23:27Z</time>
      </trkpt>
      <trkpt lat="44.97217" lon="3.93237">
        <ele>886.47</ele>
        <time>2022-08-01T08:23:44Z</time>
      </trkpt>
      <trkpt lat="44.97207" lon="3.93266">
        <ele>887.91</ele>
        <time>2022-08-01T08:24:02Z</time>
      </trkpt>
      <trkpt lat="44.97204" lon="3.93275">
        <ele>887.43</ele>
        <time>2022-08-01T08:24:08Z</time>
      </trkpt>
      <trkpt lat="44.97204" lon="3.93277">
        <ele>887.91</ele>
        <time>2022-08-01T08:24:09Z</time>
      </trkpt>
      <trkpt lat="44.97204" lon="3.93278">
        <ele>887.91</ele>
        <time>2022-08-01T08:24:10Z</time>
      </trkpt>
      <trkpt lat="44.97194" lon="3.93302">
        <ele>889.84</ele>
        <time>2022-08-01T08:24:26Z</time>
      </trkpt>
      <trkpt lat="44.97185" lon="3.93327">
        <ele>889.84</ele>
        <time>2022-08-01T08:24:43Z</time>
      </trkpt>
      <trkpt lat="44.97174" lon="3.93347">
        <ele>890.8</ele>
        <time>2022-08-01T08:24:59Z</time>
      </trkpt>
      <trkpt lat="44.97164" lon="3.93372">
        <ele>891.76</ele>
        <time>2022-08-01T08:25:15Z</time>
      </trkpt>
      <trkpt lat="44.97154" lon="3.93399">
        <ele>892.72</ele>
        <time>2022-08-01T08:25:32Z</time>
      </trkpt>
      <trkpt lat="44.97144" lon="3.93422">
        <ele>894.16</ele>
        <time>2022-08-01T08:25:47Z</time>
      </trkpt>
      <trkpt lat="44.97135" lon="3.93448">
        <ele>893.68</ele>
        <time>2022-08-01T08:26:04Z</time>
      </trkpt>
      <trkpt lat="44.97121" lon="3.9347">
        <ele>895.12</ele>
        <time>2022-08-01T08:26:21Z</time>
      </trkpt>
      <trkpt lat="44.97107" lon="3.93489">
        <ele>896.09</ele>
        <time>2022-08-01T08:26:37Z</time>
      </trkpt>
      <trkpt lat="44.97092" lon="3.93509">
        <ele>895.61</ele>
        <time>2022-08-01T08:26:53Z</time>
      </trkpt>
      <trkpt lat="44.97078" lon="3.93527">
        <ele>896.09</ele>
        <time>2022-08-01T08:27:08Z</time>
      </trkpt>
      <trkpt lat="44.97066" lon="3.93551">
        <ele>897.53</ele>
        <time>2022-08-01T08:27:25Z</time>
      </trkpt>
      <trkpt lat="44.97055" lon="3.93581">
        <ele>897.05</ele>
        <time>2022-08-01T08:27:43Z</time>
      </trkpt>
      <trkpt lat="44.97052" lon="3.93586">
        <ele>897.05</ele>
        <time>2022-08-01T08:27:47Z</time>
      </trkpt>
      <trkpt lat="44.97051" lon="3.93588">
        <ele>897.05</ele>
        <time>2022-08-01T08:27:48Z</time>
      </trkpt>
      <trkpt lat="44.9705" lon="3.93589">
        <ele>897.05</ele>
        <time>2022-08-01T08:27:49Z</time>
      </trkpt>
      <trkpt lat="44.9705" lon="3.9359">
        <ele>897.05</ele>
        <time>2022-08-01T08:27:50Z</time>
      </trkpt>
      <trkpt lat="44.97049" lon="3.93592">
        <ele>897.05</ele>
        <time>2022-08-01T08:27:51Z</time>
      </trkpt>
      <trkpt lat="44.97036" lon="3.93616">
        <ele>897.05</ele>
        <time>2022-08-01T08:28:08Z</time>
      </trkpt>
      <trkpt lat="44.97024" lon="3.93638">
        <ele>897.53</ele>
        <time>2022-08-01T08:28:24Z</time>
      </trkpt>
      <trkpt lat="44.97013" lon="3.93662">
        <ele>898.01</ele>
        <time>2022-08-01T08:28:39Z</time>
      </trkpt>
      <trkpt lat="44.97" lon="3.93684">
        <ele>899.93</ele>
        <time>2022-08-01T08:28:55Z</time>
      </trkpt>
      <trkpt lat="44.96987" lon="3.93703">
        <ele>902.33</ele>
        <time>2022-08-01T08:29:10Z</time>
      </trkpt>
      <trkpt lat="44.96973" lon="3.93731">
        <ele>902.33</ele>
        <time>2022-08-01T08:29:28Z</time>
      </trkpt>
      <trkpt lat="44.9696" lon="3.93759">
        <ele>898.49</ele>
        <time>2022-08-01T08:29:46Z</time>
      </trkpt>
      <trkpt lat="44.96948" lon="3.93788">
        <ele>896.57</ele>
        <time>2022-08-01T08:30:04Z</time>
      </trkpt>
      <trkpt lat="44.96938" lon="3.93812">
        <ele>894.16</ele>
        <time>2022-08-01T08:30:20Z</time>
      </trkpt>
      <trkpt lat="44.96928" lon="3.93838">
        <ele>892.72</ele>
        <time>2022-08-01T08:30:34Z</time>
      </trkpt>
      <trkpt lat="44.96917" lon="3.93863">
        <ele>892.72</ele>
        <time>2022-08-01T08:30:49Z</time>
      </trkpt>
      <trkpt lat="44.96903" lon="3.93889">
        <ele>891.76</ele>
        <time>2022-08-01T08:31:07Z</time>
      </trkpt>
      <trkpt lat="44.9689" lon="3.93909">
        <ele>892.24</ele>
        <time>2022-08-01T08:31:22Z</time>
      </trkpt>
      <trkpt lat="44.96875" lon="3.93933">
        <ele>892.72</ele>
        <time>2022-08-01T08:31:40Z</time>
      </trkpt>
      <trkpt lat="44.96862" lon="3.93946">
        <ele>894.64</ele>
        <time>2022-08-01T08:31:52Z</time>
      </trkpt>
      <trkpt lat="44.9686" lon="3.93948">
        <ele>895.12</ele>
        <time>2022-08-01T08:31:53Z</time>
      </trkpt>
      <trkpt lat="44.96859" lon="3.93949">
        <ele>895.12</ele>
        <time>2022-08-01T08:31:54Z</time>
      </trkpt>
      <trkpt lat="44.96846" lon="3.93963">
        <ele>897.53</ele>
        <time>2022-08-01T08:32:07Z</time>
      </trkpt>
      <trkpt lat="44.96838" lon="3.93971">
        <ele>898.49</ele>
        <time>2022-08-01T08:32:14Z</time>
      </trkpt>
      <trkpt lat="44.96837" lon="3.93972">
        <ele>898.49</ele>
        <time>2022-08-01T08:32:15Z</time>
      </trkpt>
      <trkpt lat="44.96836" lon="3.93974">
        <ele>898.49</ele>
        <time>2022-08-01T08:32:16Z</time>
      </trkpt>
      <trkpt lat="44.96834" lon="3.93975">
        <ele>898.97</ele>
        <time>2022-08-01T08:32:17Z</time>
      </trkpt>
      <trkpt lat="44.96833" lon="3.93976">
        <ele>898.97</ele>
        <time>2022-08-01T08:32:18Z</time>
      </trkpt>
      <trkpt lat="44.96832" lon="3.93978">
        <ele>898.97</ele>
        <time>2022-08-01T08:32:19Z</time>
      </trkpt>
      <trkpt lat="44.9682" lon="3.93995">
        <ele>900.41</ele>
        <time>2022-08-01T08:32:33Z</time>
      </trkpt>
      <trkpt lat="44.96809" lon="3.94007">
        <ele>900.89</ele>
        <time>2022-08-01T08:32:44Z</time>
      </trkpt>
      <trkpt lat="44.96808" lon="3.94008">
        <ele>900.89</ele>
        <time>2022-08-01T08:32:45Z</time>
      </trkpt>
      <trkpt lat="44.96807" lon="3.94009">
        <ele>900.41</ele>
        <time>2022-08-01T08:32:46Z</time>
      </trkpt>
      <trkpt lat="44.96806" lon="3.9401">
        <ele>900.41</ele>
        <time>2022-08-01T08:32:47Z</time>
      </trkpt>
      <trkpt lat="44.96805" lon="3.94011">
        <ele>899.93</ele>
        <time>2022-08-01T08:32:48Z</time>
      </trkpt>
      <trkpt lat="44.96804" lon="3.94012">
        <ele>899.93</ele>
        <time>2022-08-01T08:32:49Z</time>
      </trkpt>
      <trkpt lat="44.96803" lon="3.94013">
        <ele>899.45</ele>
        <time>2022-08-01T08:32:50Z</time>
      </trkpt>
      <trkpt lat="44.96787" lon="3.94028">
        <ele>897.53</ele>
        <time>2022-08-01T08:33:05Z</time>
      </trkpt>
      <trkpt lat="44.96772" lon="3.94043">
        <ele>898.01</ele>
        <time>2022-08-01T08:33:21Z</time>
      </trkpt>
      <trkpt lat="44.9677" lon="3.94045">
        <ele>898.01</ele>
        <time>2022-08-01T08:33:23Z</time>
      </trkpt>
      <trkpt lat="44.96769" lon="3.94047">
        <ele>898.01</ele>
        <time>2022-08-01T08:33:24Z</time>
      </trkpt>
      <trkpt lat="44.96768" lon="3.94048">
        <ele>898.01</ele>
        <time>2022-08-01T08:33:25Z</time>
      </trkpt>
      <trkpt lat="44.96749" lon="3.94069">
        <ele>896.09</ele>
        <time>2022-08-01T08:33:42Z</time>
      </trkpt>
      <trkpt lat="44.96735" lon="3.94082">
        <ele>896.57</ele>
        <time>2022-08-01T08:33:55Z</time>
      </trkpt>
      <trkpt lat="44.96734" lon="3.94083">
        <ele>896.57</ele>
        <time>2022-08-01T08:33:56Z</time>
      </trkpt>
      <trkpt lat="44.96722" lon="3.94094">
        <ele>897.53</ele>
        <time>2022-08-01T08:34:07Z</time>
      </trkpt>
      <trkpt lat="44.96721" lon="3.94094">
        <ele>898.01</ele>
        <time>2022-08-01T08:34:08Z</time>
      </trkpt>
      <trkpt lat="44.96705" lon="3.94107">
        <ele>900.41</ele>
        <time>2022-08-01T08:34:22Z</time>
      </trkpt>
      <trkpt lat="44.96706" lon="3.94119">
        <ele>896.57</ele>
        <time>2022-08-01T08:34:34Z</time>
      </trkpt>
      <trkpt lat="44.96706" lon="3.94122">
        <ele>895.61</ele>
        <time>2022-08-01T08:34:54Z</time>
      </trkpt>
      <trkpt lat="44.96705" lon="3.94122">
        <ele>895.12</ele>
        <time>2022-08-01T08:35:22Z</time>
      </trkpt>
      <trkpt lat="44.967" lon="3.94122">
        <ele>895.12</ele>
        <time>2022-08-01T08:35:43Z</time>
      </trkpt>
      <trkpt lat="44.96683" lon="3.94134">
        <ele>894.64</ele>
        <time>2022-08-01T08:35:58Z</time>
      </trkpt>
      <trkpt lat="44.96664" lon="3.94154">
        <ele>894.16</ele>
        <time>2022-08-01T08:36:15Z</time>
      </trkpt>
      <trkpt lat="44.96646" lon="3.94175">
        <ele>893.68</ele>
        <time>2022-08-01T08:36:32Z</time>
      </trkpt>
      <trkpt lat="44.96641" lon="3.9418">
        <ele>893.2</ele>
        <time>2022-08-01T08:36:36Z</time>
      </trkpt>
      <trkpt lat="44.96625" lon="3.94202">
        <ele>894.16</ele>
        <time>2022-08-01T08:36:53Z</time>
      </trkpt>
      <trkpt lat="44.96613" lon="3.9422">
        <ele>893.2</ele>
        <time>2022-08-01T08:37:06Z</time>
      </trkpt>
      <trkpt lat="44.96593" lon="3.94238">
        <ele>894.16</ele>
        <time>2022-08-01T08:37:23Z</time>
      </trkpt>
      <trkpt lat="44.96575" lon="3.94254">
        <ele>896.09</ele>
        <time>2022-08-01T08:37:39Z</time>
      </trkpt>
      <trkpt lat="44.96559" lon="3.94269">
        <ele>895.61</ele>
        <time>2022-08-01T08:37:54Z</time>
      </trkpt>
      <trkpt lat="44.96543" lon="3.94285">
        <ele>894.64</ele>
        <time>2022-08-01T08:38:08Z</time>
      </trkpt>
      <trkpt lat="44.96528" lon="3.94311">
        <ele>893.68</ele>
        <time>2022-08-01T08:38:25Z</time>
      </trkpt>
      <trkpt lat="44.96517" lon="3.94327">
        <ele>893.68</ele>
        <time>2022-08-01T08:38:37Z</time>
      </trkpt>
      <trkpt lat="44.96503" lon="3.94352">
        <ele>893.2</ele>
        <time>2022-08-01T08:38:54Z</time>
      </trkpt>
      <trkpt lat="44.9649" lon="3.94374">
        <ele>893.68</ele>
        <time>2022-08-01T08:39:09Z</time>
      </trkpt>
      <trkpt lat="44.96476" lon="3.94393">
        <ele>894.64</ele>
        <time>2022-08-01T08:39:24Z</time>
      </trkpt>
      <trkpt lat="44.96461" lon="3.94416">
        <ele>895.12</ele>
        <time>2022-08-01T08:39:41Z</time>
      </trkpt>
      <trkpt lat="44.96449" lon="3.94441">
        <ele>895.61</ele>
        <time>2022-08-01T08:39:56Z</time>
      </trkpt>
      <trkpt lat="44.96434" lon="3.94463">
        <ele>895.61</ele>
        <time>2022-08-01T08:40:12Z</time>
      </trkpt>
      <trkpt lat="44.96427" lon="3.94478">
        <ele>897.05</ele>
        <time>2022-08-01T08:40:22Z</time>
      </trkpt>
      <trkpt lat="44.96416" lon="3.94503">
        <ele>898.01</ele>
        <time>2022-08-01T08:40:39Z</time>
      </trkpt>
      <trkpt lat="44.96404" lon="3.94527">
        <ele>899.93</ele>
        <time>2022-08-01T08:40:54Z</time>
      </trkpt>
      <trkpt lat="44.96391" lon="3.9455">
        <ele>901.37</ele>
        <time>2022-08-01T08:41:09Z</time>
      </trkpt>
      <trkpt lat="44.96375" lon="3.94569">
        <ele>900.89</ele>
        <time>2022-08-01T08:41:24Z</time>
      </trkpt>
      <trkpt lat="44.9636" lon="3.94589">
        <ele>901.37</ele>
        <time>2022-08-01T08:41:39Z</time>
      </trkpt>
      <trkpt lat="44.96346" lon="3.94607">
        <ele>900.89</ele>
        <time>2022-08-01T08:41:53Z</time>
      </trkpt>
      <trkpt lat="44.96334" lon="3.94629">
        <ele>896.09</ele>
        <time>2022-08-01T08:42:08Z</time>
      </trkpt>
      <trkpt lat="44.96322" lon="3.94647">
        <ele>895.12</ele>
        <time>2022-08-01T08:42:21Z</time>
      </trkpt>
      <trkpt lat="44.96309" lon="3.94667">
        <ele>894.16</ele>
        <time>2022-08-01T08:42:36Z</time>
      </trkpt>
      <trkpt lat="44.96294" lon="3.94687">
        <ele>891.76</ele>
        <time>2022-08-01T08:42:51Z</time>
      </trkpt>
      <trkpt lat="44.9628" lon="3.94706">
        <ele>891.76</ele>
        <time>2022-08-01T08:43:06Z</time>
      </trkpt>
      <trkpt lat="44.96265" lon="3.94726">
        <ele>891.28</ele>
        <time>2022-08-01T08:43:22Z</time>
      </trkpt>
      <trkpt lat="44.9625" lon="3.94744">
        <ele>891.28</ele>
        <time>2022-08-01T08:43:37Z</time>
      </trkpt>
      <trkpt lat="44.96245" lon="3.94752">
        <ele>891.28</ele>
        <time>2022-08-01T08:43:43Z</time>
      </trkpt>
      <trkpt lat="44.96244" lon="3.94753">
        <ele>891.28</ele>
        <time>2022-08-01T08:43:44Z</time>
      </trkpt>
      <trkpt lat="44.96243" lon="3.94754">
        <ele>890.8</ele>
        <time>2022-08-01T08:43:45Z</time>
      </trkpt>
      <trkpt lat="44.96235" lon="3.9477">
        <ele>889.84</ele>
        <time>2022-08-01T08:43:57Z</time>
      </trkpt>
      <trkpt lat="44.96223" lon="3.9479">
        <ele>888.88</ele>
        <time>2022-08-01T08:44:12Z</time>
      </trkpt>
      <trkpt lat="44.96208" lon="3.94809">
        <ele>891.76</ele>
        <time>2022-08-01T08:44:28Z</time>
      </trkpt>
      <trkpt lat="44.96203" lon="3.94815">
        <ele>894.16</ele>
        <time>2022-08-01T08:44:33Z</time>
      </trkpt>
      <trkpt lat="44.96198" lon="3.94819">
        <ele>896.09</ele>
        <time>2022-08-01T08:44:37Z</time>
      </trkpt>
      <trkpt lat="44.96196" lon="3.94822">
        <ele>897.53</ele>
        <time>2022-08-01T08:44:39Z</time>
      </trkpt>
      <trkpt lat="44.96195" lon="3.94824">
        <ele>898.49</ele>
        <time>2022-08-01T08:44:40Z</time>
      </trkpt>
      <trkpt lat="44.96194" lon="3.94825">
        <ele>898.97</ele>
        <time>2022-08-01T08:44:41Z</time>
      </trkpt>
      <trkpt lat="44.96193" lon="3.94827">
        <ele>899.93</ele>
        <time>2022-08-01T08:44:42Z</time>
      </trkpt>
      <trkpt lat="44.96193" lon="3.94828">
        <ele>900.89</ele>
        <time>2022-08-01T08:44:43Z</time>
      </trkpt>
      <trkpt lat="44.96188" lon="3.94847">
        <ele>904.74</ele>
        <time>2022-08-01T08:44:53Z</time>
      </trkpt>
      <trkpt lat="44.96188" lon="3.94849">
        <ele>904.74</ele>
        <time>2022-08-01T08:44:54Z</time>
      </trkpt>
      <trkpt lat="44.96188" lon="3.94851">
        <ele>904.74</ele>
        <time>2022-08-01T08:44:55Z</time>
      </trkpt>
      <trkpt lat="44.96188" lon="3.94853">
        <ele>904.74</ele>
        <time>2022-08-01T08:44:56Z</time>
      </trkpt>
      <trkpt lat="44.96187" lon="3.94854">
        <ele>905.22</ele>
        <time>2022-08-01T08:44:57Z</time>
      </trkpt>
      <trkpt lat="44.96184" lon="3.94878">
        <ele>907.14</ele>
        <time>2022-08-01T08:45:11Z</time>
      </trkpt>
      <trkpt lat="44.96185" lon="3.94885">
        <ele>907.14</ele>
        <time>2022-08-01T08:45:15Z</time>
      </trkpt>
      <trkpt lat="44.96185" lon="3.94887">
        <ele>907.14</ele>
        <time>2022-08-01T08:45:16Z</time>
      </trkpt>
      <trkpt lat="44.96185" lon="3.94889">
        <ele>907.14</ele>
        <time>2022-08-01T08:45:17Z</time>
      </trkpt>
      <trkpt lat="44.96185" lon="3.94912">
        <ele>907.14</ele>
        <time>2022-08-01T08:45:30Z</time>
      </trkpt>
      <trkpt lat="44.96186" lon="3.94931">
        <ele>908.58</ele>
        <time>2022-08-01T08:45:40Z</time>
      </trkpt>
      <trkpt lat="44.96187" lon="3.94946">
        <ele>909.54</ele>
        <time>2022-08-01T08:45:48Z</time>
      </trkpt>
      <trkpt lat="44.96188" lon="3.94952">
        <ele>910.03</ele>
        <time>2022-08-01T08:45:52Z</time>
      </trkpt>
      <trkpt lat="44.96188" lon="3.94954">
        <ele>910.03</ele>
        <time>2022-08-01T08:45:53Z</time>
      </trkpt>
      <trkpt lat="44.96188" lon="3.94955">
        <ele>910.51</ele>
        <time>2022-08-01T08:45:54Z</time>
      </trkpt>
      <trkpt lat="44.96192" lon="3.94982">
        <ele>910.51</ele>
        <time>2022-08-01T08:46:09Z</time>
      </trkpt>
      <trkpt lat="44.96194" lon="3.94991">
        <ele>910.03</ele>
        <time>2022-08-01T08:46:14Z</time>
      </trkpt>
      <trkpt lat="44.96195" lon="3.94998">
        <ele>909.54</ele>
        <time>2022-08-01T08:46:19Z</time>
      </trkpt>
      <trkpt lat="44.96197" lon="3.95007">
        <ele>909.54</ele>
        <time>2022-08-01T08:46:24Z</time>
      </trkpt>
      <trkpt lat="44.96198" lon="3.95015">
        <ele>909.54</ele>
        <time>2022-08-01T08:46:28Z</time>
      </trkpt>
      <trkpt lat="44.96199" lon="3.95017">
        <ele>909.54</ele>
        <time>2022-08-01T08:46:29Z</time>
      </trkpt>
      <trkpt lat="44.96201" lon="3.95042">
        <ele>912.43</ele>
        <time>2022-08-01T08:46:42Z</time>
      </trkpt>
      <trkpt lat="44.96203" lon="3.95049">
        <ele>912.43</ele>
        <time>2022-08-01T08:46:46Z</time>
      </trkpt>
      <trkpt lat="44.96203" lon="3.95052">
        <ele>912.43</ele>
        <time>2022-08-01T08:46:48Z</time>
      </trkpt>
      <trkpt lat="44.96203" lon="3.95073">
        <ele>911.95</ele>
        <time>2022-08-01T08:47:02Z</time>
      </trkpt>
      <trkpt lat="44.96205" lon="3.95097">
        <ele>913.87</ele>
        <time>2022-08-01T08:47:17Z</time>
      </trkpt>
      <trkpt lat="44.96205" lon="3.9512">
        <ele>915.31</ele>
        <time>2022-08-01T08:47:30Z</time>
      </trkpt>
      <trkpt lat="44.96208" lon="3.95152">
        <ele>912.43</ele>
        <time>2022-08-01T08:47:47Z</time>
      </trkpt>
      <trkpt lat="44.96211" lon="3.95175">
        <ele>910.99</ele>
        <time>2022-08-01T08:47:59Z</time>
      </trkpt>
      <trkpt lat="44.96211" lon="3.95177">
        <ele>911.47</ele>
        <time>2022-08-01T08:48:00Z</time>
      </trkpt>
      <trkpt lat="44.96212" lon="3.95204">
        <ele>912.91</ele>
        <time>2022-08-01T08:48:14Z</time>
      </trkpt>
      <trkpt lat="44.96212" lon="3.95206">
        <ele>912.91</ele>
        <time>2022-08-01T08:48:15Z</time>
      </trkpt>
      <trkpt lat="44.96211" lon="3.95208">
        <ele>912.91</ele>
        <time>2022-08-01T08:48:16Z</time>
      </trkpt>
      <trkpt lat="44.96212" lon="3.9524">
        <ele>911.47</ele>
        <time>2022-08-01T08:48:33Z</time>
      </trkpt>
      <trkpt lat="44.96213" lon="3.95269">
        <ele>911.95</ele>
        <time>2022-08-01T08:48:49Z</time>
      </trkpt>
      <trkpt lat="44.96216" lon="3.95298">
        <ele>912.43</ele>
        <time>2022-08-01T08:49:06Z</time>
      </trkpt>
      <trkpt lat="44.96218" lon="3.9531">
        <ele>910.51</ele>
        <time>2022-08-01T08:49:14Z</time>
      </trkpt>
      <trkpt lat="44.96219" lon="3.95314">
        <ele>910.51</ele>
        <time>2022-08-01T08:49:16Z</time>
      </trkpt>
      <trkpt lat="44.96219" lon="3.95316">
        <ele>910.03</ele>
        <time>2022-08-01T08:49:17Z</time>
      </trkpt>
      <trkpt lat="44.96219" lon="3.95318">
        <ele>910.03</ele>
        <time>2022-08-01T08:49:18Z</time>
      </trkpt>
      <trkpt lat="44.96219" lon="3.9532">
        <ele>910.03</ele>
        <time>2022-08-01T08:49:19Z</time>
      </trkpt>
      <trkpt lat="44.96219" lon="3.95321">
        <ele>910.03</ele>
        <time>2022-08-01T08:49:20Z</time>
      </trkpt>
      <trkpt lat="44.96219" lon="3.95323">
        <ele>910.03</ele>
        <time>2022-08-01T08:49:21Z</time>
      </trkpt>
      <trkpt lat="44.96219" lon="3.95325">
        <ele>910.03</ele>
        <time>2022-08-01T08:49:22Z</time>
      </trkpt>
      <trkpt lat="44.96218" lon="3.95343">
        <ele>909.54</ele>
        <time>2022-08-01T08:49:33Z</time>
      </trkpt>
      <trkpt lat="44.96219" lon="3.95354">
        <ele>910.03</ele>
        <time>2022-08-01T08:49:40Z</time>
      </trkpt>
      <trkpt lat="44.9622" lon="3.95375">
        <ele>911.95</ele>
        <time>2022-08-01T08:49:53Z</time>
      </trkpt>
      <trkpt lat="44.96221" lon="3.95399">
        <ele>912.91</ele>
        <time>2022-08-01T08:50:05Z</time>
      </trkpt>
      <trkpt lat="44.96221" lon="3.95413">
        <ele>912.91</ele>
        <time>2022-08-01T08:50:12Z</time>
      </trkpt>
      <trkpt lat="44.96222" lon="3.95419">
        <ele>912.43</ele>
        <time>2022-08-01T08:50:15Z</time>
      </trkpt>
      <trkpt lat="44.96222" lon="3.95421">
        <ele>912.43</ele>
        <time>2022-08-01T08:50:16Z</time>
      </trkpt>
      <trkpt lat="44.96222" lon="3.95423">
        <ele>911.95</ele>
        <time>2022-08-01T08:50:17Z</time>
      </trkpt>
      <trkpt lat="44.96222" lon="3.95426">
        <ele>911.95</ele>
        <time>2022-08-01T08:50:18Z</time>
      </trkpt>
      <trkpt lat="44.96222" lon="3.95449">
        <ele>909.54</ele>
        <time>2022-08-01T08:50:30Z</time>
      </trkpt>
      <trkpt lat="44.96222" lon="3.95477">
        <ele>910.99</ele>
        <time>2022-08-01T08:50:46Z</time>
      </trkpt>
      <trkpt lat="44.96223" lon="3.95479">
        <ele>910.99</ele>
        <time>2022-08-01T08:50:47Z</time>
      </trkpt>
      <trkpt lat="44.96225" lon="3.95508">
        <ele>913.87</ele>
        <time>2022-08-01T08:51:02Z</time>
      </trkpt>
      <trkpt lat="44.96227" lon="3.95531">
        <ele>911.47</ele>
        <time>2022-08-01T08:51:15Z</time>
      </trkpt>
      <trkpt lat="44.96227" lon="3.95533">
        <ele>911.47</ele>
        <time>2022-08-01T08:51:16Z</time>
      </trkpt>
      <trkpt lat="44.96228" lon="3.95543">
        <ele>911.47</ele>
        <time>2022-08-01T08:51:22Z</time>
      </trkpt>
      <trkpt lat="44.96228" lon="3.95547">
        <ele>911.47</ele>
        <time>2022-08-01T08:51:24Z</time>
      </trkpt>
      <trkpt lat="44.96228" lon="3.95548">
        <ele>911.95</ele>
        <time>2022-08-01T08:51:25Z</time>
      </trkpt>
      <trkpt lat="44.96227" lon="3.95574">
        <ele>914.83</ele>
        <time>2022-08-01T08:51:38Z</time>
      </trkpt>
      <trkpt lat="44.96227" lon="3.95576">
        <ele>915.31</ele>
        <time>2022-08-01T08:51:39Z</time>
      </trkpt>
      <trkpt lat="44.96227" lon="3.95578">
        <ele>915.31</ele>
        <time>2022-08-01T08:51:40Z</time>
      </trkpt>
      <trkpt lat="44.96227" lon="3.9558">
        <ele>915.79</ele>
        <time>2022-08-01T08:51:41Z</time>
      </trkpt>
      <trkpt lat="44.96228" lon="3.95602">
        <ele>919.16</ele>
        <time>2022-08-01T08:51:54Z</time>
      </trkpt>
      <trkpt lat="44.96234" lon="3.95623">
        <ele>923.48</ele>
        <time>2022-08-01T08:52:08Z</time>
      </trkpt>
      <trkpt lat="44.96237" lon="3.95648">
        <ele>925.89</ele>
        <time>2022-08-01T08:52:22Z</time>
      </trkpt>
      <trkpt lat="44.96238" lon="3.95669">
        <ele>926.37</ele>
        <time>2022-08-01T08:52:32Z</time>
      </trkpt>
      <trkpt lat="44.96238" lon="3.95671">
        <ele>926.37</ele>
        <time>2022-08-01T08:52:33Z</time>
      </trkpt>
      <trkpt lat="44.96242" lon="3.95687">
        <ele>924.93</ele>
        <time>2022-08-01T08:52:42Z</time>
      </trkpt>
      <trkpt lat="44.96242" lon="3.95689">
        <ele>924.93</ele>
        <time>2022-08-01T08:52:43Z</time>
      </trkpt>
      <trkpt lat="44.96245" lon="3.95711">
        <ele>926.85</ele>
        <time>2022-08-01T08:52:56Z</time>
      </trkpt>
      <trkpt lat="44.96245" lon="3.95713">
        <ele>927.33</ele>
        <time>2022-08-01T08:52:57Z</time>
      </trkpt>
      <trkpt lat="44.96245" lon="3.95736">
        <ele>927.81</ele>
        <time>2022-08-01T08:53:10Z</time>
      </trkpt>
      <trkpt lat="44.96244" lon="3.95744">
        <ele>928.29</ele>
        <time>2022-08-01T08:53:14Z</time>
      </trkpt>
      <trkpt lat="44.96244" lon="3.95754">
        <ele>928.29</ele>
        <time>2022-08-01T08:53:20Z</time>
      </trkpt>
      <trkpt lat="44.96243" lon="3.95757">
        <ele>928.29</ele>
        <time>2022-08-01T08:53:21Z</time>
      </trkpt>
      <trkpt lat="44.96243" lon="3.95759">
        <ele>928.29</ele>
        <time>2022-08-01T08:53:22Z</time>
      </trkpt>
      <trkpt lat="44.96248" lon="3.95789">
        <ele>921.08</ele>
        <time>2022-08-01T08:53:36Z</time>
      </trkpt>
      <trkpt lat="44.9625" lon="3.9582">
        <ele>917.72</ele>
        <time>2022-08-01T08:53:51Z</time>
      </trkpt>
      <trkpt lat="44.96256" lon="3.95846">
        <ele>914.83</ele>
        <time>2022-08-01T08:54:05Z</time>
      </trkpt>
      <trkpt lat="44.96257" lon="3.95862">
        <ele>913.39</ele>
        <time>2022-08-01T08:54:16Z</time>
      </trkpt>
      <trkpt lat="44.96256" lon="3.95863">
        <ele>912.91</ele>
        <time>2022-08-01T08:54:17Z</time>
      </trkpt>
      <trkpt lat="44.96251" lon="3.95878">
        <ele>910.51</ele>
        <time>2022-08-01T08:54:31Z</time>
      </trkpt>
      <trkpt lat="44.96243" lon="3.95891">
        <ele>910.03</ele>
        <time>2022-08-01T08:54:44Z</time>
      </trkpt>
      <trkpt lat="44.96233" lon="3.95909">
        <ele>912.91</ele>
        <time>2022-08-01T08:54:59Z</time>
      </trkpt>
      <trkpt lat="44.9622" lon="3.95933">
        <ele>916.27</ele>
        <time>2022-08-01T08:55:16Z</time>
      </trkpt>
      <trkpt lat="44.9621" lon="3.95953">
        <ele>919.16</ele>
        <time>2022-08-01T08:55:30Z</time>
      </trkpt>
      <trkpt lat="44.96198" lon="3.95961">
        <ele>921.08</ele>
        <time>2022-08-01T08:55:39Z</time>
      </trkpt>
      <trkpt lat="44.96197" lon="3.95962">
        <ele>921.56</ele>
        <time>2022-08-01T08:55:40Z</time>
      </trkpt>
      <trkpt lat="44.96196" lon="3.95963">
        <ele>921.56</ele>
        <time>2022-08-01T08:55:41Z</time>
      </trkpt>
      <trkpt lat="44.96195" lon="3.95964">
        <ele>922.04</ele>
        <time>2022-08-01T08:55:42Z</time>
      </trkpt>
      <trkpt lat="44.96194" lon="3.95965">
        <ele>922.04</ele>
        <time>2022-08-01T08:55:43Z</time>
      </trkpt>
      <trkpt lat="44.96193" lon="3.95966">
        <ele>922.52</ele>
        <time>2022-08-01T08:55:44Z</time>
      </trkpt>
      <trkpt lat="44.96192" lon="3.95967">
        <ele>922.52</ele>
        <time>2022-08-01T08:55:45Z</time>
      </trkpt>
      <trkpt lat="44.96182" lon="3.95981">
        <ele>926.85</ele>
        <time>2022-08-01T08:55:56Z</time>
      </trkpt>
      <trkpt lat="44.96182" lon="3.95983">
        <ele>927.33</ele>
        <time>2022-08-01T08:55:57Z</time>
      </trkpt>
      <trkpt lat="44.96173" lon="3.95999">
        <ele>931.65</ele>
        <time>2022-08-01T08:56:09Z</time>
      </trkpt>
      <trkpt lat="44.96167" lon="3.96021">
        <ele>935.5</ele>
        <time>2022-08-01T08:56:22Z</time>
      </trkpt>
      <trkpt lat="44.96156" lon="3.96046">
        <ele>937.9</ele>
        <time>2022-08-01T08:56:36Z</time>
      </trkpt>
      <trkpt lat="44.96145" lon="3.96067">
        <ele>937.42</ele>
        <time>2022-08-01T08:56:48Z</time>
      </trkpt>
      <trkpt lat="44.96145" lon="3.96069">
        <ele>937.42</ele>
        <time>2022-08-01T08:56:49Z</time>
      </trkpt>
      <trkpt lat="44.96145" lon="3.96071">
        <ele>936.94</ele>
        <time>2022-08-01T08:56:50Z</time>
      </trkpt>
      <trkpt lat="44.96136" lon="3.96092">
        <ele>937.42</ele>
        <time>2022-08-01T08:57:03Z</time>
      </trkpt>
      <trkpt lat="44.96126" lon="3.96113">
        <ele>936.94</ele>
        <time>2022-08-01T08:57:18Z</time>
      </trkpt>
      <trkpt lat="44.96121" lon="3.96119">
        <ele>935.02</ele>
        <time>2022-08-01T08:57:22Z</time>
      </trkpt>
      <trkpt lat="44.96121" lon="3.96126">
        <ele>933.1</ele>
        <time>2022-08-01T08:57:25Z</time>
      </trkpt>
      <trkpt lat="44.9612" lon="3.96128">
        <ele>932.62</ele>
        <time>2022-08-01T08:57:26Z</time>
      </trkpt>
      <trkpt lat="44.96119" lon="3.96128">
        <ele>932.14</ele>
        <time>2022-08-01T08:57:27Z</time>
      </trkpt>
      <trkpt lat="44.96117" lon="3.96129">
        <ele>932.14</ele>
        <time>2022-08-01T08:57:28Z</time>
      </trkpt>
      <trkpt lat="44.96116" lon="3.9613">
        <ele>931.17</ele>
        <time>2022-08-01T08:57:29Z</time>
      </trkpt>
      <trkpt lat="44.96105" lon="3.96148">
        <ele>921.08</ele>
        <time>2022-08-01T08:57:43Z</time>
      </trkpt>
      <trkpt lat="44.96104" lon="3.96149">
        <ele>920.6</ele>
        <time>2022-08-01T08:57:44Z</time>
      </trkpt>
      <trkpt lat="44.96103" lon="3.96151">
        <ele>920.12</ele>
        <time>2022-08-01T08:57:45Z</time>
      </trkpt>
      <trkpt lat="44.96102" lon="3.96152">
        <ele>919.64</ele>
        <time>2022-08-01T08:57:46Z</time>
      </trkpt>
      <trkpt lat="44.96094" lon="3.96163">
        <ele>916.27</ele>
        <time>2022-08-01T08:57:55Z</time>
      </trkpt>
      <trkpt lat="44.96081" lon="3.96171">
        <ele>915.31</ele>
        <time>2022-08-01T08:58:08Z</time>
      </trkpt>
      <trkpt lat="44.96066" lon="3.96178">
        <ele>907.62</ele>
        <time>2022-08-01T08:58:24Z</time>
      </trkpt>
      <trkpt lat="44.96046" lon="3.96179">
        <ele>904.74</ele>
        <time>2022-08-01T08:58:41Z</time>
      </trkpt>
      <trkpt lat="44.96035" lon="3.96181">
        <ele>903.3</ele>
        <time>2022-08-01T08:58:50Z</time>
      </trkpt>
      <trkpt lat="44.96023" lon="3.96193">
        <ele>907.62</ele>
        <time>2022-08-01T08:59:03Z</time>
      </trkpt>
      <trkpt lat="44.96002" lon="3.96209">
        <ele>913.87</ele>
        <time>2022-08-01T08:59:19Z</time>
      </trkpt>
      <trkpt lat="44.95998" lon="3.96231">
        <ele>913.39</ele>
        <time>2022-08-01T08:59:31Z</time>
      </trkpt>
      <trkpt lat="44.95996" lon="3.96247">
        <ele>912.91</ele>
        <time>2022-08-01T08:59:44Z</time>
      </trkpt>
      <trkpt lat="44.95987" lon="3.96262">
        <ele>910.99</ele>
        <time>2022-08-01T08:59:57Z</time>
      </trkpt>
      <trkpt lat="44.95977" lon="3.96275">
        <ele>911.95</ele>
        <time>2022-08-01T09:00:06Z</time>
      </trkpt>
      <trkpt lat="44.95975" lon="3.96276">
        <ele>911.47</ele>
        <time>2022-08-01T09:00:07Z</time>
      </trkpt>
      <trkpt lat="44.95974" lon="3.96278">
        <ele>911.95</ele>
        <time>2022-08-01T09:00:08Z</time>
      </trkpt>
      <trkpt lat="44.95963" lon="3.96294">
        <ele>910.99</ele>
        <time>2022-08-01T09:00:21Z</time>
      </trkpt>
      <trkpt lat="44.95944" lon="3.96311">
        <ele>911.47</ele>
        <time>2022-08-01T09:00:37Z</time>
      </trkpt>
      <trkpt lat="44.95931" lon="3.96323">
        <ele>910.03</ele>
        <time>2022-08-01T09:00:50Z</time>
      </trkpt>
      <trkpt lat="44.9592" lon="3.96346">
        <ele>907.14</ele>
        <time>2022-08-01T09:01:05Z</time>
      </trkpt>
      <trkpt lat="44.95911" lon="3.96366">
        <ele>910.03</ele>
        <time>2022-08-01T09:01:18Z</time>
      </trkpt>
      <trkpt lat="44.95909" lon="3.96369">
        <ele>910.51</ele>
        <time>2022-08-01T09:01:20Z</time>
      </trkpt>
      <trkpt lat="44.95904" lon="3.96389">
        <ele>913.39</ele>
        <time>2022-08-01T09:01:33Z</time>
      </trkpt>
      <trkpt lat="44.95904" lon="3.96395">
        <ele>913.87</ele>
        <time>2022-08-01T09:01:36Z</time>
      </trkpt>
      <trkpt lat="44.95904" lon="3.964">
        <ele>914.83</ele>
        <time>2022-08-01T09:01:39Z</time>
      </trkpt>
      <trkpt lat="44.95898" lon="3.96423">
        <ele>917.24</ele>
        <time>2022-08-01T09:01:54Z</time>
      </trkpt>
      <trkpt lat="44.95892" lon="3.96449">
        <ele>916.75</ele>
        <time>2022-08-01T09:02:10Z</time>
      </trkpt>
      <trkpt lat="44.95882" lon="3.96471">
        <ele>914.35</ele>
        <time>2022-08-01T09:02:23Z</time>
      </trkpt>
      <trkpt lat="44.95869" lon="3.96497">
        <ele>912.43</ele>
        <time>2022-08-01T09:02:38Z</time>
      </trkpt>
      <trkpt lat="44.95858" lon="3.96517">
        <ele>911.95</ele>
        <time>2022-08-01T09:02:52Z</time>
      </trkpt>
      <trkpt lat="44.95844" lon="3.96545">
        <ele>907.62</ele>
        <time>2022-08-01T09:03:09Z</time>
      </trkpt>
      <trkpt lat="44.95829" lon="3.96567">
        <ele>904.74</ele>
        <time>2022-08-01T09:03:26Z</time>
      </trkpt>
      <trkpt lat="44.95816" lon="3.96588">
        <ele>904.74</ele>
        <time>2022-08-01T09:03:41Z</time>
      </trkpt>
      <trkpt lat="44.95801" lon="3.96603">
        <ele>906.18</ele>
        <time>2022-08-01T09:03:56Z</time>
      </trkpt>
      <trkpt lat="44.95799" lon="3.96604">
        <ele>906.18</ele>
        <time>2022-08-01T09:03:58Z</time>
      </trkpt>
      <trkpt lat="44.95798" lon="3.96605">
        <ele>906.18</ele>
        <time>2022-08-01T09:03:59Z</time>
      </trkpt>
      <trkpt lat="44.95796" lon="3.96605">
        <ele>906.66</ele>
        <time>2022-08-01T09:04:00Z</time>
      </trkpt>
      <trkpt lat="44.95795" lon="3.96606">
        <ele>906.66</ele>
        <time>2022-08-01T09:04:01Z</time>
      </trkpt>
      <trkpt lat="44.95794" lon="3.96607">
        <ele>906.66</ele>
        <time>2022-08-01T09:04:02Z</time>
      </trkpt>
      <trkpt lat="44.95793" lon="3.96608">
        <ele>906.66</ele>
        <time>2022-08-01T09:04:03Z</time>
      </trkpt>
      <trkpt lat="44.95776" lon="3.96621">
        <ele>907.14</ele>
        <time>2022-08-01T09:04:18Z</time>
      </trkpt>
      <trkpt lat="44.95758" lon="3.96634">
        <ele>909.06</ele>
        <time>2022-08-01T09:04:32Z</time>
      </trkpt>
      <trkpt lat="44.95752" lon="3.9664">
        <ele>909.54</ele>
        <time>2022-08-01T09:04:38Z</time>
      </trkpt>
      <trkpt lat="44.95751" lon="3.96641">
        <ele>909.54</ele>
        <time>2022-08-01T09:04:39Z</time>
      </trkpt>
      <trkpt lat="44.95735" lon="3.96659">
        <ele>908.1</ele>
        <time>2022-08-01T09:04:54Z</time>
      </trkpt>
      <trkpt lat="44.9572" lon="3.96676">
        <ele>907.62</ele>
        <time>2022-08-01T09:05:09Z</time>
      </trkpt>
      <trkpt lat="44.95719" lon="3.96677">
        <ele>907.62</ele>
        <time>2022-08-01T09:05:10Z</time>
      </trkpt>
      <trkpt lat="44.95718" lon="3.96678">
        <ele>907.62</ele>
        <time>2022-08-01T09:05:11Z</time>
      </trkpt>
      <trkpt lat="44.95713" lon="3.96682">
        <ele>907.14</ele>
        <time>2022-08-01T09:05:15Z</time>
      </trkpt>
      <trkpt lat="44.95712" lon="3.96683">
        <ele>906.66</ele>
        <time>2022-08-01T09:05:16Z</time>
      </trkpt>
      <trkpt lat="44.9571" lon="3.96684">
        <ele>906.18</ele>
        <time>2022-08-01T09:05:18Z</time>
      </trkpt>
      <trkpt lat="44.95699" lon="3.96696">
        <ele>905.7</ele>
        <time>2022-08-01T09:05:29Z</time>
      </trkpt>
      <trkpt lat="44.95686" lon="3.96716">
        <ele>902.82</ele>
        <time>2022-08-01T09:05:44Z</time>
      </trkpt>
      <trkpt lat="44.95685" lon="3.96718">
        <ele>902.82</ele>
        <time>2022-08-01T09:05:45Z</time>
      </trkpt>
      <trkpt lat="44.95684" lon="3.9672">
        <ele>902.82</ele>
        <time>2022-08-01T09:05:46Z</time>
      </trkpt>
      <trkpt lat="44.95684" lon="3.96722">
        <ele>902.82</ele>
        <time>2022-08-01T09:05:47Z</time>
      </trkpt>
      <trkpt lat="44.95683" lon="3.96723">
        <ele>902.82</ele>
        <time>2022-08-01T09:05:48Z</time>
      </trkpt>
      <trkpt lat="44.95682" lon="3.96725">
        <ele>902.33</ele>
        <time>2022-08-01T09:05:49Z</time>
      </trkpt>
      <trkpt lat="44.9567" lon="3.96744">
        <ele>903.3</ele>
        <time>2022-08-01T09:06:01Z</time>
      </trkpt>
      <trkpt lat="44.95669" lon="3.96745">
        <ele>903.3</ele>
        <time>2022-08-01T09:06:02Z</time>
      </trkpt>
      <trkpt lat="44.95666" lon="3.9675">
        <ele>904.26</ele>
        <time>2022-08-01T09:06:05Z</time>
      </trkpt>
      <trkpt lat="44.95653" lon="3.96769">
        <ele>907.14</ele>
        <time>2022-08-01T09:06:19Z</time>
      </trkpt>
      <trkpt lat="44.9564" lon="3.96788">
        <ele>907.14</ele>
        <time>2022-08-01T09:06:32Z</time>
      </trkpt>
      <trkpt lat="44.95626" lon="3.96811">
        <ele>904.26</ele>
        <time>2022-08-01T09:06:48Z</time>
      </trkpt>
      <trkpt lat="44.95613" lon="3.96829">
        <ele>903.78</ele>
        <time>2022-08-01T09:07:02Z</time>
      </trkpt>
      <trkpt lat="44.956" lon="3.96851">
        <ele>905.22</ele>
        <time>2022-08-01T09:07:17Z</time>
      </trkpt>
      <trkpt lat="44.9559" lon="3.9687">
        <ele>906.18</ele>
        <time>2022-08-01T09:07:31Z</time>
      </trkpt>
      <trkpt lat="44.95579" lon="3.9689">
        <ele>905.22</ele>
        <time>2022-08-01T09:07:46Z</time>
      </trkpt>
      <trkpt lat="44.95567" lon="3.96906">
        <ele>904.74</ele>
        <time>2022-08-01T09:07:59Z</time>
      </trkpt>
      <trkpt lat="44.95566" lon="3.96908">
        <ele>904.74</ele>
        <time>2022-08-01T09:08:00Z</time>
      </trkpt>
      <trkpt lat="44.95564" lon="3.9691">
        <ele>904.74</ele>
        <time>2022-08-01T09:08:02Z</time>
      </trkpt>
      <trkpt lat="44.95562" lon="3.96912">
        <ele>905.22</ele>
        <time>2022-08-01T09:08:04Z</time>
      </trkpt>
      <trkpt lat="44.95561" lon="3.96914">
        <ele>905.22</ele>
        <time>2022-08-01T09:08:05Z</time>
      </trkpt>
      <trkpt lat="44.9556" lon="3.96916">
        <ele>905.7</ele>
        <time>2022-08-01T09:08:06Z</time>
      </trkpt>
      <trkpt lat="44.95559" lon="3.96918">
        <ele>905.7</ele>
        <time>2022-08-01T09:08:07Z</time>
      </trkpt>
      <trkpt lat="44.95558" lon="3.96919">
        <ele>905.7</ele>
        <time>2022-08-01T09:08:08Z</time>
      </trkpt>
      <trkpt lat="44.95549" lon="3.96944">
        <ele>907.62</ele>
        <time>2022-08-01T09:08:21Z</time>
      </trkpt>
      <trkpt lat="44.95546" lon="3.96977">
        <ele>903.3</ele>
        <time>2022-08-01T09:08:35Z</time>
      </trkpt>
      <trkpt lat="44.95546" lon="3.96982">
        <ele>901.85</ele>
        <time>2022-08-01T09:08:37Z</time>
      </trkpt>
      <trkpt lat="44.95544" lon="3.96998">
        <ele>897.53</ele>
        <time>2022-08-01T09:08:45Z</time>
      </trkpt>
      <trkpt lat="44.95544" lon="3.97">
        <ele>897.53</ele>
        <time>2022-08-01T09:08:46Z</time>
      </trkpt>
      <trkpt lat="44.95544" lon="3.97002">
        <ele>897.05</ele>
        <time>2022-08-01T09:08:47Z</time>
      </trkpt>
      <trkpt lat="44.95534" lon="3.9703">
        <ele>894.64</ele>
        <time>2022-08-01T09:09:02Z</time>
      </trkpt>
      <trkpt lat="44.95532" lon="3.97046">
        <ele>895.61</ele>
        <time>2022-08-01T09:09:10Z</time>
      </trkpt>
      <trkpt lat="44.95532" lon="3.97048">
        <ele>895.61</ele>
        <time>2022-08-01T09:09:11Z</time>
      </trkpt>
      <trkpt lat="44.95532" lon="3.9705">
        <ele>896.09</ele>
        <time>2022-08-01T09:09:12Z</time>
      </trkpt>
      <trkpt lat="44.95528" lon="3.97062">
        <ele>897.05</ele>
        <time>2022-08-01T09:09:21Z</time>
      </trkpt>
      <trkpt lat="44.95507" lon="3.97062">
        <ele>898.49</ele>
        <time>2022-08-01T09:09:37Z</time>
      </trkpt>
      <trkpt lat="44.95485" lon="3.97063">
        <ele>898.49</ele>
        <time>2022-08-01T09:09:52Z</time>
      </trkpt>
      <trkpt lat="44.95468" lon="3.97068">
        <ele>902.33</ele>
        <time>2022-08-01T09:10:07Z</time>
      </trkpt>
      <trkpt lat="44.95453" lon="3.97087">
        <ele>905.7</ele>
        <time>2022-08-01T09:10:23Z</time>
      </trkpt>
      <trkpt lat="44.95447" lon="3.97094">
        <ele>907.14</ele>
        <time>2022-08-01T09:10:33Z</time>
      </trkpt>
      <trkpt lat="44.95432" lon="3.97096">
        <ele>908.1</ele>
        <time>2022-08-01T09:10:50Z</time>
      </trkpt>
      <trkpt lat="44.95422" lon="3.97096">
        <ele>907.62</ele>
        <time>2022-08-01T09:11:04Z</time>
      </trkpt>
      <trkpt lat="44.95406" lon="3.97097">
        <ele>908.58</ele>
        <time>2022-08-01T09:11:18Z</time>
      </trkpt>
      <trkpt lat="44.95395" lon="3.97099">
        <ele>910.03</ele>
        <time>2022-08-01T09:11:32Z</time>
      </trkpt>
      <trkpt lat="44.95379" lon="3.97106">
        <ele>912.43</ele>
        <time>2022-08-01T09:11:47Z</time>
      </trkpt>
      <trkpt lat="44.95368" lon="3.9711">
        <ele>913.39</ele>
        <time>2022-08-01T09:11:59Z</time>
      </trkpt>
      <trkpt lat="44.9535" lon="3.97117">
        <ele>915.31</ele>
        <time>2022-08-01T09:12:14Z</time>
      </trkpt>
      <trkpt lat="44.9534" lon="3.97114">
        <ele>915.79</ele>
        <time>2022-08-01T09:12:28Z</time>
      </trkpt>
      <trkpt lat="44.95341" lon="3.97111">
        <ele>916.75</ele>
        <time>2022-08-01T09:12:31Z</time>
      </trkpt>
      <trkpt lat="44.95342" lon="3.9711">
        <ele>917.24</ele>
        <time>2022-08-01T09:12:32Z</time>
      </trkpt>
      <trkpt lat="44.95343" lon="3.97097">
        <ele>919.16</ele>
        <time>2022-08-01T09:12:44Z</time>
      </trkpt>
      <trkpt lat="44.95336" lon="3.97092">
        <ele>918.68</ele>
        <time>2022-08-01T09:12:57Z</time>
      </trkpt>
      <trkpt lat="44.95331" lon="3.97087">
        <ele>917.72</ele>
        <time>2022-08-01T09:13:09Z</time>
      </trkpt>
      <trkpt lat="44.95324" lon="3.97084">
        <ele>915.79</ele>
        <time>2022-08-01T09:13:22Z</time>
      </trkpt>
      <trkpt lat="44.95308" lon="3.97082">
        <ele>917.24</ele>
        <time>2022-08-01T09:13:36Z</time>
      </trkpt>
      <trkpt lat="44.953" lon="3.9708">
        <ele>917.24</ele>
        <time>2022-08-01T09:13:43Z</time>
      </trkpt>
      <trkpt lat="44.95288" lon="3.97078">
        <ele>919.16</ele>
        <time>2022-08-01T09:13:57Z</time>
      </trkpt>
      <trkpt lat="44.95279" lon="3.97071">
        <ele>922.52</ele>
        <time>2022-08-01T09:14:12Z</time>
      </trkpt>
      <trkpt lat="44.95271" lon="3.97068">
        <ele>926.37</ele>
        <time>2022-08-01T09:14:23Z</time>
      </trkpt>
      <trkpt lat="44.9526" lon="3.97058">
        <ele>929.73</ele>
        <time>2022-08-01T09:14:38Z</time>
      </trkpt>
      <trkpt lat="44.95259" lon="3.97058">
        <ele>929.73</ele>
        <time>2022-08-01T09:14:39Z</time>
      </trkpt>
      <trkpt lat="44.95248" lon="3.97053">
        <ele>929.25</ele>
        <time>2022-08-01T09:14:51Z</time>
      </trkpt>
      <trkpt lat="44.95239" lon="3.97048">
        <ele>930.69</ele>
        <time>2022-08-01T09:15:05Z</time>
      </trkpt>
      <trkpt lat="44.95229" lon="3.97044">
        <ele>932.14</ele>
        <time>2022-08-01T09:15:17Z</time>
      </trkpt>
      <trkpt lat="44.95215" lon="3.9704">
        <ele>931.65</ele>
        <time>2022-08-01T09:15:32Z</time>
      </trkpt>
      <trkpt lat="44.95201" lon="3.97037">
        <ele>932.14</ele>
        <time>2022-08-01T09:15:46Z</time>
      </trkpt>
      <trkpt lat="44.95188" lon="3.97036">
        <ele>934.06</ele>
        <time>2022-08-01T09:16:01Z</time>
      </trkpt>
      <trkpt lat="44.95178" lon="3.97032">
        <ele>936.94</ele>
        <time>2022-08-01T09:16:15Z</time>
      </trkpt>
      <trkpt lat="44.9517" lon="3.97027">
        <ele>940.31</ele>
        <time>2022-08-01T09:16:27Z</time>
      </trkpt>
      <trkpt lat="44.95162" lon="3.97023">
        <ele>945.11</ele>
        <time>2022-08-01T09:16:39Z</time>
      </trkpt>
      <trkpt lat="44.95151" lon="3.97021">
        <ele>949.92</ele>
        <time>2022-08-01T09:16:53Z</time>
      </trkpt>
      <trkpt lat="44.95129" lon="3.9702">
        <ele>958.57</ele>
        <time>2022-08-01T09:17:09Z</time>
      </trkpt>
      <trkpt lat="44.95113" lon="3.97024">
        <ele>966.74</ele>
        <time>2022-08-01T09:17:22Z</time>
      </trkpt>
      <trkpt lat="44.95111" lon="3.97025">
        <ele>967.7</ele>
        <time>2022-08-01T09:17:24Z</time>
      </trkpt>
      <trkpt lat="44.95106" lon="3.97027">
        <ele>969.63</ele>
        <time>2022-08-01T09:17:28Z</time>
      </trkpt>
      <trkpt lat="44.95089" lon="3.97035">
        <ele>974.43</ele>
        <time>2022-08-01T09:17:43Z</time>
      </trkpt>
      <trkpt lat="44.95086" lon="3.97035">
        <ele>975.88</ele>
        <time>2022-08-01T09:17:46Z</time>
      </trkpt>
      <trkpt lat="44.95085" lon="3.97035">
        <ele>976.36</ele>
        <time>2022-08-01T09:17:47Z</time>
      </trkpt>
      <trkpt lat="44.95084" lon="3.97035">
        <ele>976.84</ele>
        <time>2022-08-01T09:17:48Z</time>
      </trkpt>
      <trkpt lat="44.9507" lon="3.97035">
        <ele>978.28</ele>
        <time>2022-08-01T09:18:00Z</time>
      </trkpt>
      <trkpt lat="44.95055" lon="3.97036">
        <ele>976.84</ele>
        <time>2022-08-01T09:18:13Z</time>
      </trkpt>
      <trkpt lat="44.95036" lon="3.97037">
        <ele>976.36</ele>
        <time>2022-08-01T09:18:28Z</time>
      </trkpt>
      <trkpt lat="44.95015" lon="3.97036">
        <ele>975.88</ele>
        <time>2022-08-01T09:18:44Z</time>
      </trkpt>
      <trkpt lat="44.94996" lon="3.97033">
        <ele>976.84</ele>
        <time>2022-08-01T09:19:00Z</time>
      </trkpt>
      <trkpt lat="44.94995" lon="3.97033">
        <ele>976.84</ele>
        <time>2022-08-01T09:19:01Z</time>
      </trkpt>
      <trkpt lat="44.9498" lon="3.97031">
        <ele>975.88</ele>
        <time>2022-08-01T09:19:13Z</time>
      </trkpt>
      <trkpt lat="44.94959" lon="3.97029">
        <ele>977.32</ele>
        <time>2022-08-01T09:19:29Z</time>
      </trkpt>
      <trkpt lat="44.94941" lon="3.97028">
        <ele>977.32</ele>
        <time>2022-08-01T09:19:43Z</time>
      </trkpt>
      <trkpt lat="44.94937" lon="3.97027">
        <ele>977.32</ele>
        <time>2022-08-01T09:19:46Z</time>
      </trkpt>
      <trkpt lat="44.94936" lon="3.97026">
        <ele>977.32</ele>
        <time>2022-08-01T09:19:47Z</time>
      </trkpt>
      <trkpt lat="44.94935" lon="3.97025">
        <ele>977.32</ele>
        <time>2022-08-01T09:19:48Z</time>
      </trkpt>
      <trkpt lat="44.94934" lon="3.97024">
        <ele>977.8</ele>
        <time>2022-08-01T09:19:49Z</time>
      </trkpt>
      <trkpt lat="44.94933" lon="3.97024">
        <ele>977.8</ele>
        <time>2022-08-01T09:19:50Z</time>
      </trkpt>
      <trkpt lat="44.94914" lon="3.97016">
        <ele>977.8</ele>
        <time>2022-08-01T09:20:05Z</time>
      </trkpt>
      <trkpt lat="44.94894" lon="3.97009">
        <ele>976.84</ele>
        <time>2022-08-01T09:20:20Z</time>
      </trkpt>
      <trkpt lat="44.94872" lon="3.97003">
        <ele>975.88</ele>
        <time>2022-08-01T09:20:36Z</time>
      </trkpt>
      <trkpt lat="44.94851" lon="3.97011">
        <ele>974.43</ele>
        <time>2022-08-01T09:20:52Z</time>
      </trkpt>
      <trkpt lat="44.9483" lon="3.9702">
        <ele>974.43</ele>
        <time>2022-08-01T09:21:07Z</time>
      </trkpt>
      <trkpt lat="44.94812" lon="3.97038">
        <ele>975.39</ele>
        <time>2022-08-01T09:21:23Z</time>
      </trkpt>
      <trkpt lat="44.94793" lon="3.97059">
        <ele>975.88</ele>
        <time>2022-08-01T09:21:40Z</time>
      </trkpt>
      <trkpt lat="44.94775" lon="3.97078">
        <ele>976.84</ele>
        <time>2022-08-01T09:21:56Z</time>
      </trkpt>
      <trkpt lat="44.94781" lon="3.97103">
        <ele>978.28</ele>
        <time>2022-08-01T09:22:09Z</time>
      </trkpt>
      <trkpt lat="44.94777" lon="3.97133">
        <ele>979.24</ele>
        <time>2022-08-01T09:22:26Z</time>
      </trkpt>
      <trkpt lat="44.94767" lon="3.97148">
        <ele>980.2</ele>
        <time>2022-08-01T09:22:38Z</time>
      </trkpt>
      <trkpt lat="44.94766" lon="3.97149">
        <ele>980.2</ele>
        <time>2022-08-01T09:22:39Z</time>
      </trkpt>
      <trkpt lat="44.94748" lon="3.97159">
        <ele>979.72</ele>
        <time>2022-08-01T09:22:54Z</time>
      </trkpt>
      <trkpt lat="44.94743" lon="3.97161">
        <ele>979.72</ele>
        <time>2022-08-01T09:22:58Z</time>
      </trkpt>
      <trkpt lat="44.9473" lon="3.97165">
        <ele>976.84</ele>
        <time>2022-08-01T09:23:09Z</time>
      </trkpt>
      <trkpt lat="44.94726" lon="3.97163">
        <ele>975.88</ele>
        <time>2022-08-01T09:23:12Z</time>
      </trkpt>
      <trkpt lat="44.94725" lon="3.97162">
        <ele>975.39</ele>
        <time>2022-08-01T09:23:13Z</time>
      </trkpt>
      <trkpt lat="44.94723" lon="3.97162">
        <ele>975.39</ele>
        <time>2022-08-01T09:23:14Z</time>
      </trkpt>
      <trkpt lat="44.94722" lon="3.97163">
        <ele>975.39</ele>
        <time>2022-08-01T09:23:15Z</time>
      </trkpt>
      <trkpt lat="44.9472" lon="3.97163">
        <ele>974.91</ele>
        <time>2022-08-01T09:23:16Z</time>
      </trkpt>
      <trkpt lat="44.94701" lon="3.9717">
        <ele>978.76</ele>
        <time>2022-08-01T09:23:29Z</time>
      </trkpt>
      <trkpt lat="44.94697" lon="3.97173">
        <ele>980.2</ele>
        <time>2022-08-01T09:23:32Z</time>
      </trkpt>
      <trkpt lat="44.9468" lon="3.97176">
        <ele>981.16</ele>
        <time>2022-08-01T09:23:46Z</time>
      </trkpt>
      <trkpt lat="44.94662" lon="3.97179">
        <ele>983.09</ele>
        <time>2022-08-01T09:23:59Z</time>
      </trkpt>
      <trkpt lat="44.94644" lon="3.97191">
        <ele>985.49</ele>
        <time>2022-08-01T09:24:13Z</time>
      </trkpt>
      <trkpt lat="44.94623" lon="3.97212">
        <ele>985.01</ele>
        <time>2022-08-01T09:24:31Z</time>
      </trkpt>
      <trkpt lat="44.94608" lon="3.97232">
        <ele>985.97</ele>
        <time>2022-08-01T09:24:46Z</time>
      </trkpt>
      <trkpt lat="44.94597" lon="3.97266">
        <ele>985.97</ele>
        <time>2022-08-01T09:25:04Z</time>
      </trkpt>
      <trkpt lat="44.94591" lon="3.97295">
        <ele>985.97</ele>
        <time>2022-08-01T09:25:20Z</time>
      </trkpt>
      <trkpt lat="44.94584" lon="3.97325">
        <ele>987.89</ele>
        <time>2022-08-01T09:25:36Z</time>
      </trkpt>
      <trkpt lat="44.94584" lon="3.97354">
        <ele>987.89</ele>
        <time>2022-08-01T09:25:51Z</time>
      </trkpt>
      <trkpt lat="44.9459" lon="3.97384">
        <ele>988.37</ele>
        <time>2022-08-01T09:26:07Z</time>
      </trkpt>
      <trkpt lat="44.94591" lon="3.97412">
        <ele>989.81</ele>
        <time>2022-08-01T09:26:22Z</time>
      </trkpt>
      <trkpt lat="44.94593" lon="3.97442">
        <ele>991.26</ele>
        <time>2022-08-01T09:26:37Z</time>
      </trkpt>
      <trkpt lat="44.946" lon="3.97477">
        <ele>992.7</ele>
        <time>2022-08-01T09:26:54Z</time>
      </trkpt>
      <trkpt lat="44.94606" lon="3.97506">
        <ele>993.18</ele>
        <time>2022-08-01T09:27:09Z</time>
      </trkpt>
      <trkpt lat="44.9461" lon="3.97536">
        <ele>994.62</ele>
        <time>2022-08-01T09:27:24Z</time>
      </trkpt>
      <trkpt lat="44.9461" lon="3.97568">
        <ele>995.1</ele>
        <time>2022-08-01T09:27:40Z</time>
      </trkpt>
      <trkpt lat="44.94612" lon="3.97601">
        <ele>994.14</ele>
        <time>2022-08-01T09:27:56Z</time>
      </trkpt>
      <trkpt lat="44.94617" lon="3.97628">
        <ele>993.18</ele>
        <time>2022-08-01T09:28:11Z</time>
      </trkpt>
      <trkpt lat="44.9462" lon="3.97661">
        <ele>993.18</ele>
        <time>2022-08-01T09:28:28Z</time>
      </trkpt>
      <trkpt lat="44.94625" lon="3.97694">
        <ele>994.14</ele>
        <time>2022-08-01T09:28:45Z</time>
      </trkpt>
      <trkpt lat="44.94627" lon="3.97721">
        <ele>993.66</ele>
        <time>2022-08-01T09:29:02Z</time>
      </trkpt>
      <trkpt lat="44.94628" lon="3.97726">
        <ele>994.14</ele>
        <time>2022-08-01T09:29:19Z</time>
      </trkpt>
      <trkpt lat="44.94632" lon="3.97736">
        <ele>993.66</ele>
        <time>2022-08-01T09:29:34Z</time>
      </trkpt>
      <trkpt lat="44.94632" lon="3.97743">
        <ele>993.66</ele>
        <time>2022-08-01T09:29:39Z</time>
      </trkpt>
      <trkpt lat="44.94631" lon="3.97746">
        <ele>993.66</ele>
        <time>2022-08-01T09:29:42Z</time>
      </trkpt>
      <trkpt lat="44.9463" lon="3.97747">
        <ele>993.66</ele>
        <time>2022-08-01T09:29:43Z</time>
      </trkpt>
      <trkpt lat="44.94629" lon="3.97775">
        <ele>992.22</ele>
        <time>2022-08-01T09:29:59Z</time>
      </trkpt>
      <trkpt lat="44.94629" lon="3.97797">
        <ele>994.14</ele>
        <time>2022-08-01T09:30:13Z</time>
      </trkpt>
      <trkpt lat="44.94627" lon="3.97824">
        <ele>993.66</ele>
        <time>2022-08-01T09:30:29Z</time>
      </trkpt>
      <trkpt lat="44.94625" lon="3.97849">
        <ele>994.14</ele>
        <time>2022-08-01T09:30:44Z</time>
      </trkpt>
      <trkpt lat="44.94624" lon="3.97862">
        <ele>995.1</ele>
        <time>2022-08-01T09:30:58Z</time>
      </trkpt>
      <trkpt lat="44.94619" lon="3.97892">
        <ele>996.54</ele>
        <time>2022-08-01T09:31:15Z</time>
      </trkpt>
      <trkpt lat="44.94613" lon="3.97923">
        <ele>998.47</ele>
        <time>2022-08-01T09:31:31Z</time>
      </trkpt>
      <trkpt lat="44.94616" lon="3.97956">
        <ele>998.47</ele>
        <time>2022-08-01T09:31:47Z</time>
      </trkpt>
      <trkpt lat="44.94613" lon="3.97985">
        <ele>999.43</ele>
        <time>2022-08-01T09:32:03Z</time>
      </trkpt>
      <trkpt lat="44.94612" lon="3.98017">
        <ele>1000.39</ele>
        <time>2022-08-01T09:32:21Z</time>
      </trkpt>
      <trkpt lat="44.94612" lon="3.98047">
        <ele>1000.39</ele>
        <time>2022-08-01T09:32:37Z</time>
      </trkpt>
      <trkpt lat="44.9461" lon="3.98071">
        <ele>999.91</ele>
        <time>2022-08-01T09:32:52Z</time>
      </trkpt>
      <trkpt lat="44.94609" lon="3.98076">
        <ele>999.43</ele>
        <time>2022-08-01T09:32:55Z</time>
      </trkpt>
      <trkpt lat="44.94608" lon="3.9808">
        <ele>999.91</ele>
        <time>2022-08-01T09:32:58Z</time>
      </trkpt>
      <trkpt lat="44.94607" lon="3.98081">
        <ele>999.91</ele>
        <time>2022-08-01T09:32:59Z</time>
      </trkpt>
      <trkpt lat="44.94607" lon="3.98083">
        <ele>999.91</ele>
        <time>2022-08-01T09:33:00Z</time>
      </trkpt>
      <trkpt lat="44.94606" lon="3.98084">
        <ele>1000.39</ele>
        <time>2022-08-01T09:33:01Z</time>
      </trkpt>
      <trkpt lat="44.94606" lon="3.98086">
        <ele>1000.39</ele>
        <time>2022-08-01T09:33:02Z</time>
      </trkpt>
      <trkpt lat="44.94606" lon="3.98088">
        <ele>1000.39</ele>
        <time>2022-08-01T09:33:03Z</time>
      </trkpt>
      <trkpt lat="44.94606" lon="3.9809">
        <ele>1000.39</ele>
        <time>2022-08-01T09:33:04Z</time>
      </trkpt>
      <trkpt lat="44.94606" lon="3.98121">
        <ele>1000.87</ele>
        <time>2022-08-01T09:33:20Z</time>
      </trkpt>
      <trkpt lat="44.94609" lon="3.98147">
        <ele>1000.87</ele>
        <time>2022-08-01T09:33:34Z</time>
      </trkpt>
      <trkpt lat="44.94617" lon="3.98166">
        <ele>1000.87</ele>
        <time>2022-08-01T09:33:47Z</time>
      </trkpt>
      <trkpt lat="44.94618" lon="3.98167">
        <ele>1000.87</ele>
        <time>2022-08-01T09:33:48Z</time>
      </trkpt>
      <trkpt lat="44.94619" lon="3.98168">
        <ele>1000.39</ele>
        <time>2022-08-01T09:33:49Z</time>
      </trkpt>
      <trkpt lat="44.94619" lon="3.9817">
        <ele>1000.39</ele>
        <time>2022-08-01T09:33:50Z</time>
      </trkpt>
      <trkpt lat="44.94619" lon="3.98172">
        <ele>999.91</ele>
        <time>2022-08-01T09:33:51Z</time>
      </trkpt>
      <trkpt lat="44.94619" lon="3.98173">
        <ele>999.91</ele>
        <time>2022-08-01T09:33:52Z</time>
      </trkpt>
      <trkpt lat="44.9462" lon="3.98175">
        <ele>999.43</ele>
        <time>2022-08-01T09:33:53Z</time>
      </trkpt>
      <trkpt lat="44.9462" lon="3.98177">
        <ele>999.43</ele>
        <time>2022-08-01T09:33:54Z</time>
      </trkpt>
      <trkpt lat="44.94621" lon="3.98178">
        <ele>999.91</ele>
        <time>2022-08-01T09:33:55Z</time>
      </trkpt>
      <trkpt lat="44.94622" lon="3.98189">
        <ele>999.43</ele>
        <time>2022-08-01T09:34:02Z</time>
      </trkpt>
      <trkpt lat="44.94622" lon="3.98192">
        <ele>999.43</ele>
        <time>2022-08-01T09:34:04Z</time>
      </trkpt>
      <trkpt lat="44.94622" lon="3.98194">
        <ele>999.43</ele>
        <time>2022-08-01T09:34:05Z</time>
      </trkpt>
      <trkpt lat="44.94623" lon="3.98195">
        <ele>998.95</ele>
        <time>2022-08-01T09:34:06Z</time>
      </trkpt>
      <trkpt lat="44.94628" lon="3.98212">
        <ele>995.1</ele>
        <time>2022-08-01T09:34:19Z</time>
      </trkpt>
      <trkpt lat="44.94636" lon="3.98233">
        <ele>991.26</ele>
        <time>2022-08-01T09:34:34Z</time>
      </trkpt>
      <trkpt lat="44.94642" lon="3.98254">
        <ele>988.85</ele>
        <time>2022-08-01T09:34:49Z</time>
      </trkpt>
      <trkpt lat="44.94647" lon="3.98263">
        <ele>985.97</ele>
        <time>2022-08-01T09:35:01Z</time>
      </trkpt>
      <trkpt lat="44.9465" lon="3.98272">
        <ele>984.53</ele>
        <time>2022-08-01T09:35:11Z</time>
      </trkpt>
      <trkpt lat="44.9466" lon="3.98278">
        <ele>982.12</ele>
        <time>2022-08-01T09:35:26Z</time>
      </trkpt>
      <trkpt lat="44.94663" lon="3.98284">
        <ele>980.68</ele>
        <time>2022-08-01T09:35:32Z</time>
      </trkpt>
      <trkpt lat="44.94668" lon="3.98311">
        <ele>976.84</ele>
        <time>2022-08-01T09:35:48Z</time>
      </trkpt>
      <trkpt lat="44.94668" lon="3.98312">
        <ele>976.84</ele>
        <time>2022-08-01T09:35:49Z</time>
      </trkpt>
      <trkpt lat="44.94668" lon="3.98336">
        <ele>973.95</ele>
        <time>2022-08-01T09:36:06Z</time>
      </trkpt>
      <trkpt lat="44.94669" lon="3.98361">
        <ele>969.15</ele>
        <time>2022-08-01T09:36:21Z</time>
      </trkpt>
      <trkpt lat="44.94668" lon="3.98384">
        <ele>962.9</ele>
        <time>2022-08-01T09:36:36Z</time>
      </trkpt>
      <trkpt lat="44.94667" lon="3.98397">
        <ele>960.01</ele>
        <time>2022-08-01T09:36:44Z</time>
      </trkpt>
      <trkpt lat="44.94666" lon="3.9841">
        <ele>956.65</ele>
        <time>2022-08-01T09:36:53Z</time>
      </trkpt>
      <trkpt lat="44.94666" lon="3.98412">
        <ele>956.65</ele>
        <time>2022-08-01T09:36:54Z</time>
      </trkpt>
      <trkpt lat="44.9467" lon="3.98442">
        <ele>954.25</ele>
        <time>2022-08-01T09:37:11Z</time>
      </trkpt>
      <trkpt lat="44.94672" lon="3.98446">
        <ele>953.77</ele>
        <time>2022-08-01T09:37:14Z</time>
      </trkpt>
      <trkpt lat="44.94679" lon="3.98456">
        <ele>951.84</ele>
        <time>2022-08-01T09:37:23Z</time>
      </trkpt>
      <trkpt lat="44.94689" lon="3.98471">
        <ele>948.96</ele>
        <time>2022-08-01T09:37:36Z</time>
      </trkpt>
      <trkpt lat="44.94688" lon="3.98473">
        <ele>948.96</ele>
        <time>2022-08-01T09:37:37Z</time>
      </trkpt>
      <trkpt lat="44.94688" lon="3.98474">
        <ele>948.96</ele>
        <time>2022-08-01T09:37:38Z</time>
      </trkpt>
      <trkpt lat="44.94687" lon="3.98475">
        <ele>948.96</ele>
        <time>2022-08-01T09:37:39Z</time>
      </trkpt>
      <trkpt lat="44.94686" lon="3.98477">
        <ele>948.96</ele>
        <time>2022-08-01T09:37:40Z</time>
      </trkpt>
      <trkpt lat="44.94686" lon="3.98479">
        <ele>948.96</ele>
        <time>2022-08-01T09:37:41Z</time>
      </trkpt>
      <trkpt lat="44.94685" lon="3.98481">
        <ele>948.96</ele>
        <time>2022-08-01T09:37:42Z</time>
      </trkpt>
      <trkpt lat="44.94685" lon="3.98482">
        <ele>948.96</ele>
        <time>2022-08-01T09:37:43Z</time>
      </trkpt>
      <trkpt lat="44.94683" lon="3.98485">
        <ele>949.44</ele>
        <time>2022-08-01T09:37:45Z</time>
      </trkpt>
      <trkpt lat="44.94683" lon="3.98487">
        <ele>949.44</ele>
        <time>2022-08-01T09:37:46Z</time>
      </trkpt>
      <trkpt lat="44.94682" lon="3.98488">
        <ele>949.44</ele>
        <time>2022-08-01T09:37:47Z</time>
      </trkpt>
      <trkpt lat="44.94681" lon="3.9849">
        <ele>949.44</ele>
        <time>2022-08-01T09:37:48Z</time>
      </trkpt>
      <trkpt lat="44.94681" lon="3.98491">
        <ele>949.44</ele>
        <time>2022-08-01T09:37:49Z</time>
      </trkpt>
      <trkpt lat="44.9468" lon="3.98493">
        <ele>948.96</ele>
        <time>2022-08-01T09:37:50Z</time>
      </trkpt>
      <trkpt lat="44.9468" lon="3.98494">
        <ele>948.96</ele>
        <time>2022-08-01T09:37:51Z</time>
      </trkpt>
      <trkpt lat="44.94679" lon="3.98496">
        <ele>948.96</ele>
        <time>2022-08-01T09:37:52Z</time>
      </trkpt>
      <trkpt lat="44.94679" lon="3.98497">
        <ele>948.48</ele>
        <time>2022-08-01T09:37:53Z</time>
      </trkpt>
      <trkpt lat="44.94678" lon="3.98499">
        <ele>948.48</ele>
        <time>2022-08-01T09:37:54Z</time>
      </trkpt>
      <trkpt lat="44.94678" lon="3.98501">
        <ele>948</ele>
        <time>2022-08-01T09:37:55Z</time>
      </trkpt>
      <trkpt lat="44.94677" lon="3.98502">
        <ele>948</ele>
        <time>2022-08-01T09:37:56Z</time>
      </trkpt>
      <trkpt lat="44.94673" lon="3.98524">
        <ele>943.19</ele>
        <time>2022-08-01T09:38:09Z</time>
      </trkpt>
      <trkpt lat="44.94668" lon="3.98551">
        <ele>941.75</ele>
        <time>2022-08-01T09:38:24Z</time>
      </trkpt>
      <trkpt lat="44.94666" lon="3.98584">
        <ele>940.79</ele>
        <time>2022-08-01T09:38:42Z</time>
      </trkpt>
      <trkpt lat="44.94669" lon="3.98619">
        <ele>938.86</ele>
        <time>2022-08-01T09:39:00Z</time>
      </trkpt>
      <trkpt lat="44.94673" lon="3.9865">
        <ele>937.9</ele>
        <time>2022-08-01T09:39:17Z</time>
      </trkpt>
      <trkpt lat="44.94679" lon="3.98681">
        <ele>937.42</ele>
        <time>2022-08-01T09:39:34Z</time>
      </trkpt>
      <trkpt lat="44.94686" lon="3.98714">
        <ele>935.98</ele>
        <time>2022-08-01T09:39:53Z</time>
      </trkpt>
      <trkpt lat="44.94688" lon="3.98742">
        <ele>935.98</ele>
        <time>2022-08-01T09:40:09Z</time>
      </trkpt>
      <trkpt lat="44.94686" lon="3.98775">
        <ele>935.5</ele>
        <time>2022-08-01T09:40:28Z</time>
      </trkpt>
      <trkpt lat="44.94679" lon="3.98807">
        <ele>936.46</ele>
        <time>2022-08-01T09:40:45Z</time>
      </trkpt>
      <trkpt lat="44.94674" lon="3.9884">
        <ele>935.02</ele>
        <time>2022-08-01T09:41:03Z</time>
      </trkpt>
      <trkpt lat="44.94665" lon="3.98869">
        <ele>937.42</ele>
        <time>2022-08-01T09:41:20Z</time>
      </trkpt>
      <trkpt lat="44.94666" lon="3.98891">
        <ele>937.9</ele>
        <time>2022-08-01T09:41:32Z</time>
      </trkpt>
      <trkpt lat="44.94664" lon="3.98916">
        <ele>937.42</ele>
        <time>2022-08-01T09:41:47Z</time>
      </trkpt>
      <trkpt lat="44.94662" lon="3.98919">
        <ele>937.42</ele>
        <time>2022-08-01T09:41:49Z</time>
      </trkpt>
      <trkpt lat="44.94661" lon="3.98921">
        <ele>937.42</ele>
        <time>2022-08-01T09:41:50Z</time>
      </trkpt>
      <trkpt lat="44.94661" lon="3.98922">
        <ele>937.42</ele>
        <time>2022-08-01T09:41:51Z</time>
      </trkpt>
      <trkpt lat="44.94645" lon="3.98937">
        <ele>938.38</ele>
        <time>2022-08-01T09:42:08Z</time>
      </trkpt>
      <trkpt lat="44.94627" lon="3.98951">
        <ele>937.42</ele>
        <time>2022-08-01T09:42:24Z</time>
      </trkpt>
      <trkpt lat="44.94609" lon="3.98965">
        <ele>937.42</ele>
        <time>2022-08-01T09:42:41Z</time>
      </trkpt>
      <trkpt lat="44.94593" lon="3.98976">
        <ele>937.9</ele>
        <time>2022-08-01T09:42:55Z</time>
      </trkpt>
      <trkpt lat="44.94573" lon="3.98991">
        <ele>937.42</ele>
        <time>2022-08-01T09:43:12Z</time>
      </trkpt>
      <trkpt lat="44.94555" lon="3.99004">
        <ele>937.42</ele>
        <time>2022-08-01T09:43:28Z</time>
      </trkpt>
      <trkpt lat="44.94541" lon="3.99013">
        <ele>937.42</ele>
        <time>2022-08-01T09:43:43Z</time>
      </trkpt>
      <trkpt lat="44.94528" lon="3.99022">
        <ele>939.83</ele>
        <time>2022-08-01T09:43:56Z</time>
      </trkpt>
      <trkpt lat="44.94521" lon="3.99026">
        <ele>940.31</ele>
        <time>2022-08-01T09:44:03Z</time>
      </trkpt>
      <trkpt lat="44.94519" lon="3.99027">
        <ele>940.31</ele>
        <time>2022-08-01T09:44:04Z</time>
      </trkpt>
      <trkpt lat="44.94517" lon="3.99028">
        <ele>940.31</ele>
        <time>2022-08-01T09:44:05Z</time>
      </trkpt>
      <trkpt lat="44.94516" lon="3.99029">
        <ele>940.31</ele>
        <time>2022-08-01T09:44:06Z</time>
      </trkpt>
      <trkpt lat="44.94514" lon="3.99029">
        <ele>940.31</ele>
        <time>2022-08-01T09:44:07Z</time>
      </trkpt>
      <trkpt lat="44.94507" lon="3.99035">
        <ele>941.75</ele>
        <time>2022-08-01T09:44:13Z</time>
      </trkpt>
      <trkpt lat="44.94505" lon="3.99035">
        <ele>941.75</ele>
        <time>2022-08-01T09:44:14Z</time>
      </trkpt>
      <trkpt lat="44.94504" lon="3.99037">
        <ele>941.75</ele>
        <time>2022-08-01T09:44:15Z</time>
      </trkpt>
      <trkpt lat="44.94503" lon="3.99038">
        <ele>941.75</ele>
        <time>2022-08-01T09:44:16Z</time>
      </trkpt>
      <trkpt lat="44.94502" lon="3.99039">
        <ele>942.23</ele>
        <time>2022-08-01T09:44:17Z</time>
      </trkpt>
      <trkpt lat="44.94483" lon="3.99051">
        <ele>941.75</ele>
        <time>2022-08-01T09:44:33Z</time>
      </trkpt>
      <trkpt lat="44.94463" lon="3.99061">
        <ele>940.79</ele>
        <time>2022-08-01T09:44:49Z</time>
      </trkpt>
      <trkpt lat="44.94446" lon="3.99073">
        <ele>941.27</ele>
        <time>2022-08-01T09:45:04Z</time>
      </trkpt>
      <trkpt lat="44.94424" lon="3.99086">
        <ele>941.75</ele>
        <time>2022-08-01T09:45:20Z</time>
      </trkpt>
      <trkpt lat="44.94407" lon="3.99098">
        <ele>941.75</ele>
        <time>2022-08-01T09:45:34Z</time>
      </trkpt>
      <trkpt lat="44.94389" lon="3.99114">
        <ele>941.27</ele>
        <time>2022-08-01T09:45:49Z</time>
      </trkpt>
      <trkpt lat="44.94371" lon="3.99132">
        <ele>942.23</ele>
        <time>2022-08-01T09:46:05Z</time>
      </trkpt>
      <trkpt lat="44.94349" lon="3.99157">
        <ele>939.83</ele>
        <time>2022-08-01T09:46:24Z</time>
      </trkpt>
      <trkpt lat="44.94333" lon="3.99181">
        <ele>941.75</ele>
        <time>2022-08-01T09:46:40Z</time>
      </trkpt>
      <trkpt lat="44.94317" lon="3.99203">
        <ele>941.75</ele>
        <time>2022-08-01T09:46:56Z</time>
      </trkpt>
      <trkpt lat="44.94308" lon="3.99216">
        <ele>941.27</ele>
        <time>2022-08-01T09:47:06Z</time>
      </trkpt>
      <trkpt lat="44.94288" lon="3.99228">
        <ele>939.35</ele>
        <time>2022-08-01T09:47:22Z</time>
      </trkpt>
      <trkpt lat="44.94275" lon="3.99236">
        <ele>938.38</ele>
        <time>2022-08-01T09:47:34Z</time>
      </trkpt>
      <trkpt lat="44.94256" lon="3.99247">
        <ele>937.42</ele>
        <time>2022-08-01T09:47:49Z</time>
      </trkpt>
      <trkpt lat="44.94242" lon="3.99256">
        <ele>936.94</ele>
        <time>2022-08-01T09:48:01Z</time>
      </trkpt>
      <trkpt lat="44.94219" lon="3.9927">
        <ele>937.9</ele>
        <time>2022-08-01T09:48:18Z</time>
      </trkpt>
      <trkpt lat="44.94199" lon="3.99284">
        <ele>939.83</ele>
        <time>2022-08-01T09:48:35Z</time>
      </trkpt>
      <trkpt lat="44.9418" lon="3.99297">
        <ele>937.9</ele>
        <time>2022-08-01T09:48:50Z</time>
      </trkpt>
      <trkpt lat="44.94163" lon="3.99308">
        <ele>936.94</ele>
        <time>2022-08-01T09:49:05Z</time>
      </trkpt>
      <trkpt lat="44.94156" lon="3.99312">
        <ele>936.94</ele>
        <time>2022-08-01T09:49:12Z</time>
      </trkpt>
      <trkpt lat="44.94155" lon="3.99312">
        <ele>936.94</ele>
        <time>2022-08-01T09:49:13Z</time>
      </trkpt>
      <trkpt lat="44.94154" lon="3.99313">
        <ele>936.94</ele>
        <time>2022-08-01T09:49:14Z</time>
      </trkpt>
      <trkpt lat="44.94153" lon="3.99313">
        <ele>937.42</ele>
        <time>2022-08-01T09:49:15Z</time>
      </trkpt>
      <trkpt lat="44.94144" lon="3.99318">
        <ele>939.83</ele>
        <time>2022-08-01T09:49:24Z</time>
      </trkpt>
      <trkpt lat="44.94142" lon="3.99318">
        <ele>939.83</ele>
        <time>2022-08-01T09:49:25Z</time>
      </trkpt>
      <trkpt lat="44.94126" lon="3.99323">
        <ele>941.27</ele>
        <time>2022-08-01T09:49:36Z</time>
      </trkpt>
      <trkpt lat="44.94124" lon="3.99323">
        <ele>940.79</ele>
        <time>2022-08-01T09:49:38Z</time>
      </trkpt>
      <trkpt lat="44.94122" lon="3.99323">
        <ele>940.79</ele>
        <time>2022-08-01T09:49:39Z</time>
      </trkpt>
      <trkpt lat="44.9412" lon="3.99323">
        <ele>940.31</ele>
        <time>2022-08-01T09:49:40Z</time>
      </trkpt>
      <trkpt lat="44.94119" lon="3.99324">
        <ele>940.31</ele>
        <time>2022-08-01T09:49:41Z</time>
      </trkpt>
      <trkpt lat="44.94117" lon="3.99324">
        <ele>940.31</ele>
        <time>2022-08-01T09:49:42Z</time>
      </trkpt>
      <trkpt lat="44.941" lon="3.99326">
        <ele>939.83</ele>
        <time>2022-08-01T09:49:55Z</time>
      </trkpt>
      <trkpt lat="44.94099" lon="3.99327">
        <ele>940.31</ele>
        <time>2022-08-01T09:49:56Z</time>
      </trkpt>
      <trkpt lat="44.94081" lon="3.99335">
        <ele>946.56</ele>
        <time>2022-08-01T09:50:10Z</time>
      </trkpt>
      <trkpt lat="44.94062" lon="3.99349">
        <ele>951.36</ele>
        <time>2022-08-01T09:50:24Z</time>
      </trkpt>
      <trkpt lat="44.94062" lon="3.99351">
        <ele>951.84</ele>
        <time>2022-08-01T09:50:25Z</time>
      </trkpt>
      <trkpt lat="44.94061" lon="3.99352">
        <ele>951.84</ele>
        <time>2022-08-01T09:50:26Z</time>
      </trkpt>
      <trkpt lat="44.94061" lon="3.99357">
        <ele>950.88</ele>
        <time>2022-08-01T09:50:29Z</time>
      </trkpt>
      <trkpt lat="44.9406" lon="3.99358">
        <ele>950.4</ele>
        <time>2022-08-01T09:50:30Z</time>
      </trkpt>
      <trkpt lat="44.94059" lon="3.99359">
        <ele>949.92</ele>
        <time>2022-08-01T09:50:31Z</time>
      </trkpt>
      <trkpt lat="44.94045" lon="3.9937">
        <ele>949.44</ele>
        <time>2022-08-01T09:50:44Z</time>
      </trkpt>
      <trkpt lat="44.94042" lon="3.99372">
        <ele>949.44</ele>
        <time>2022-08-01T09:50:47Z</time>
      </trkpt>
      <trkpt lat="44.94041" lon="3.99373">
        <ele>949.44</ele>
        <time>2022-08-01T09:50:48Z</time>
      </trkpt>
      <trkpt lat="44.94032" lon="3.99382">
        <ele>949.44</ele>
        <time>2022-08-01T09:51:02Z</time>
      </trkpt>
      <trkpt lat="44.94007" lon="3.99394">
        <ele>949.92</ele>
        <time>2022-08-01T09:51:13Z</time>
      </trkpt>
      <trkpt lat="44.94004" lon="3.99395">
        <ele>949.92</ele>
        <time>2022-08-01T09:51:14Z</time>
      </trkpt>
      <trkpt lat="44.93993" lon="3.99399">
        <ele>945.59</ele>
        <time>2022-08-01T09:51:28Z</time>
      </trkpt>
      <trkpt lat="44.9399" lon="3.99397">
        <ele>941.27</ele>
        <time>2022-08-01T09:51:39Z</time>
      </trkpt>
      <trkpt lat="44.93986" lon="3.99397">
        <ele>940.31</ele>
        <time>2022-08-01T09:51:42Z</time>
      </trkpt>
      <trkpt lat="44.93983" lon="3.99399">
        <ele>940.31</ele>
        <time>2022-08-01T09:51:43Z</time>
      </trkpt>
      <trkpt lat="44.9398" lon="3.994">
        <ele>939.83</ele>
        <time>2022-08-01T09:51:44Z</time>
      </trkpt>
      <trkpt lat="44.93976" lon="3.99402">
        <ele>939.35</ele>
        <time>2022-08-01T09:51:46Z</time>
      </trkpt>
      <trkpt lat="44.93969" lon="3.99406">
        <ele>938.38</ele>
        <time>2022-08-01T09:51:51Z</time>
      </trkpt>
      <trkpt lat="44.93962" lon="3.9941">
        <ele>937.42</ele>
        <time>2022-08-01T09:51:56Z</time>
      </trkpt>
      <trkpt lat="44.9395" lon="3.99416">
        <ele>936.94</ele>
        <time>2022-08-01T09:52:08Z</time>
      </trkpt>
      <trkpt lat="44.9394" lon="3.99428">
        <ele>935.98</ele>
        <time>2022-08-01T09:52:22Z</time>
      </trkpt>
      <trkpt lat="44.93936" lon="3.99432">
        <ele>936.46</ele>
        <time>2022-08-01T09:52:38Z</time>
      </trkpt>
      <trkpt lat="44.93934" lon="3.99434">
        <ele>935.5</ele>
        <time>2022-08-01T09:53:02Z</time>
      </trkpt>
      <trkpt lat="44.93932" lon="3.99437">
        <ele>935.98</ele>
        <time>2022-08-01T09:53:21Z</time>
      </trkpt>
      <trkpt lat="44.93929" lon="3.99436">
        <ele>936.46</ele>
        <time>2022-08-01T09:53:24Z</time>
      </trkpt>
      <trkpt lat="44.93921" lon="3.99439">
        <ele>936.94</ele>
        <time>2022-08-01T09:53:34Z</time>
      </trkpt>
      <trkpt lat="44.93918" lon="3.99439">
        <ele>936.46</ele>
        <time>2022-08-01T09:53:38Z</time>
      </trkpt>
      <trkpt lat="44.9392" lon="3.99437">
        <ele>935.5</ele>
        <time>2022-08-01T09:53:50Z</time>
      </trkpt>
      <trkpt lat="44.93929" lon="3.99435">
        <ele>936.94</ele>
        <time>2022-08-01T09:53:59Z</time>
      </trkpt>
      <trkpt lat="44.93937" lon="3.99427">
        <ele>939.83</ele>
        <time>2022-08-01T09:54:12Z</time>
      </trkpt>
      <trkpt lat="44.93946" lon="3.99421">
        <ele>942.71</ele>
        <time>2022-08-01T09:54:26Z</time>
      </trkpt>
      <trkpt lat="44.93942" lon="3.99408">
        <ele>945.11</ele>
        <time>2022-08-01T09:54:48Z</time>
      </trkpt>
      <trkpt lat="44.93942" lon="3.99405">
        <ele>945.11</ele>
        <time>2022-08-01T09:55:15Z</time>
      </trkpt>
      <trkpt lat="44.93935" lon="3.99402">
        <ele>945.59</ele>
        <time>2022-08-01T09:55:41Z</time>
      </trkpt>
      <trkpt lat="44.93951" lon="3.99417">
        <ele>940.31</ele>
        <time>2022-08-01T09:59:22Z</time>
      </trkpt>
      <trkpt lat="44.93938" lon="3.99408">
        <ele>950.88</ele>
        <time>2022-08-01T09:59:36Z</time>
      </trkpt>
      <trkpt lat="44.9393" lon="3.99416">
        <ele>948</ele>
        <time>2022-08-01T09:59:52Z</time>
      </trkpt>
      <trkpt lat="44.93929" lon="3.99422">
        <ele>944.15</ele>
        <time>2022-08-01T10:00:08Z</time>
      </trkpt>
      <trkpt lat="44.93925" lon="3.99426">
        <ele>941.75</ele>
        <time>2022-08-01T10:00:29Z</time>
      </trkpt>
      <trkpt lat="44.93927" lon="3.99431">
        <ele>940.31</ele>
        <time>2022-08-01T10:00:42Z</time>
      </trkpt>
      <trkpt lat="44.93929" lon="3.99433">
        <ele>941.27</ele>
        <time>2022-08-01T10:01:08Z</time>
      </trkpt>
      <trkpt lat="44.93927" lon="3.99433">
        <ele>937.9</ele>
        <time>2022-08-01T10:01:40Z</time>
      </trkpt>
      <trkpt lat="44.93927" lon="3.99432">
        <ele>934.06</ele>
        <time>2022-08-01T10:02:14Z</time>
      </trkpt>
      <trkpt lat="44.93928" lon="3.99431">
        <ele>931.65</ele>
        <time>2022-08-01T10:02:51Z</time>
      </trkpt>
      <trkpt lat="44.93927" lon="3.99432">
        <ele>931.65</ele>
        <time>2022-08-01T10:03:28Z</time>
      </trkpt>
      <trkpt lat="44.93928" lon="3.99435">
        <ele>941.27</ele>
        <time>2022-08-01T10:04:00Z</time>
      </trkpt>
      <trkpt lat="44.93927" lon="3.99436">
        <ele>940.79</ele>
        <time>2022-08-01T10:04:30Z</time>
      </trkpt>
      <trkpt lat="44.93925" lon="3.99435">
        <ele>940.31</ele>
        <time>2022-08-01T10:05:06Z</time>
      </trkpt>
      <trkpt lat="44.93927" lon="3.99432">
        <ele>936.94</ele>
        <time>2022-08-01T10:05:37Z</time>
      </trkpt>
      <trkpt lat="44.93928" lon="3.99433">
        <ele>939.35</ele>
        <time>2022-08-01T10:06:09Z</time>
      </trkpt>
      <trkpt lat="44.93929" lon="3.99433">
        <ele>936.46</ele>
        <time>2022-08-01T10:06:40Z</time>
      </trkpt>
      <trkpt lat="44.93931" lon="3.99431">
        <ele>935.02</ele>
        <time>2022-08-01T10:07:12Z</time>
      </trkpt>
      <trkpt lat="44.93929" lon="3.99432">
        <ele>932.14</ele>
        <time>2022-08-01T10:07:43Z</time>
      </trkpt>
      <trkpt lat="44.93926" lon="3.9943">
        <ele>932.14</ele>
        <time>2022-08-01T10:08:25Z</time>
      </trkpt>
      <trkpt lat="44.93925" lon="3.9943">
        <ele>931.65</ele>
        <time>2022-08-01T10:09:05Z</time>
      </trkpt>
      <trkpt lat="44.93929" lon="3.99433">
        <ele>930.21</ele>
        <time>2022-08-01T10:09:48Z</time>
      </trkpt>
      <trkpt lat="44.93929" lon="3.99434">
        <ele>930.21</ele>
        <time>2022-08-01T10:10:22Z</time>
      </trkpt>
      <trkpt lat="44.93927" lon="3.99433">
        <ele>929.25</ele>
        <time>2022-08-01T10:11:04Z</time>
      </trkpt>
      <trkpt lat="44.93925" lon="3.99437">
        <ele>932.14</ele>
        <time>2022-08-01T10:11:45Z</time>
      </trkpt>
      <trkpt lat="44.93926" lon="3.99433">
        <ele>928.29</ele>
        <time>2022-08-01T10:12:32Z</time>
      </trkpt>
      <trkpt lat="44.93928" lon="3.99432">
        <ele>933.58</ele>
        <time>2022-08-01T10:13:06Z</time>
      </trkpt>
      <trkpt lat="44.93929" lon="3.99431">
        <ele>936.46</ele>
        <time>2022-08-01T10:13:47Z</time>
      </trkpt>
      <trkpt lat="44.93926" lon="3.99433">
        <ele>936.46</ele>
        <time>2022-08-01T10:14:30Z</time>
      </trkpt>
      <trkpt lat="44.93924" lon="3.99432">
        <ele>937.9</ele>
        <time>2022-08-01T10:15:12Z</time>
      </trkpt>
      <trkpt lat="44.93923" lon="3.99432">
        <ele>940.31</ele>
        <time>2022-08-01T10:15:51Z</time>
      </trkpt>
      <trkpt lat="44.93922" lon="3.99433">
        <ele>938.86</ele>
        <time>2022-08-01T10:16:30Z</time>
      </trkpt>
      <trkpt lat="44.93927" lon="3.9943">
        <ele>939.35</ele>
        <time>2022-08-01T10:17:12Z</time>
      </trkpt>
      <trkpt lat="44.93929" lon="3.99432">
        <ele>938.38</ele>
        <time>2022-08-01T10:17:43Z</time>
      </trkpt>
      <trkpt lat="44.93923" lon="3.99433">
        <ele>946.56</ele>
        <time>2022-08-01T10:18:25Z</time>
      </trkpt>
      <trkpt lat="44.93925" lon="3.99433">
        <ele>945.59</ele>
        <time>2022-08-01T10:19:06Z</time>
      </trkpt>
      <trkpt lat="44.93931" lon="3.99438">
        <ele>940.79</ele>
        <time>2022-08-01T10:19:47Z</time>
      </trkpt>
      <trkpt lat="44.93928" lon="3.9943">
        <ele>933.58</ele>
        <time>2022-08-01T10:20:40Z</time>
      </trkpt>
      <trkpt lat="44.93928" lon="3.99437">
        <ele>934.06</ele>
        <time>2022-08-01T10:21:22Z</time>
      </trkpt>
      <trkpt lat="44.93927" lon="3.99433">
        <ele>937.9</ele>
        <time>2022-08-01T10:21:59Z</time>
      </trkpt>
      <trkpt lat="44.93929" lon="3.99436">
        <ele>940.79</ele>
        <time>2022-08-01T10:22:36Z</time>
      </trkpt>
      <trkpt lat="44.93933" lon="3.99437">
        <ele>939.35</ele>
        <time>2022-08-01T10:23:18Z</time>
      </trkpt>
      <trkpt lat="44.93933" lon="3.99433">
        <ele>936.94</ele>
        <time>2022-08-01T10:24:01Z</time>
      </trkpt>
      <trkpt lat="44.93936" lon="3.99435">
        <ele>936.94</ele>
        <time>2022-08-01T10:24:37Z</time>
      </trkpt>
      <trkpt lat="44.93935" lon="3.99434">
        <ele>938.86</ele>
        <time>2022-08-01T10:25:20Z</time>
      </trkpt>
      <trkpt lat="44.93935" lon="3.99433">
        <ele>935.5</ele>
        <time>2022-08-01T10:25:53Z</time>
      </trkpt>
      <trkpt lat="44.93933" lon="3.99433">
        <ele>935.98</ele>
        <time>2022-08-01T10:26:32Z</time>
      </trkpt>
      <trkpt lat="44.93932" lon="3.99433">
        <ele>935.02</ele>
        <time>2022-08-01T10:27:02Z</time>
      </trkpt>
      <trkpt lat="44.93931" lon="3.99434">
        <ele>936.46</ele>
        <time>2022-08-01T10:27:44Z</time>
      </trkpt>
      <trkpt lat="44.93931" lon="3.99435">
        <ele>935.02</ele>
        <time>2022-08-01T10:28:25Z</time>
      </trkpt>
      <trkpt lat="44.9393" lon="3.99434">
        <ele>933.58</ele>
        <time>2022-08-01T10:29:06Z</time>
      </trkpt>
      <trkpt lat="44.93932" lon="3.99431">
        <ele>938.38</ele>
        <time>2022-08-01T10:29:49Z</time>
      </trkpt>
      <trkpt lat="44.93931" lon="3.99433">
        <ele>940.31</ele>
        <time>2022-08-01T10:30:26Z</time>
      </trkpt>
      <trkpt lat="44.93932" lon="3.99429">
        <ele>941.27</ele>
        <time>2022-08-01T10:30:55Z</time>
      </trkpt>
      <trkpt lat="44.93934" lon="3.99433">
        <ele>938.38</ele>
        <time>2022-08-01T10:31:41Z</time>
      </trkpt>
      <trkpt lat="44.93928" lon="3.99435">
        <ele>944.15</ele>
        <time>2022-08-01T10:32:19Z</time>
      </trkpt>
      <trkpt lat="44.9393" lon="3.99435">
        <ele>951.84</ele>
        <time>2022-08-01T10:32:57Z</time>
      </trkpt>
      <trkpt lat="44.93936" lon="3.99435">
        <ele>949.92</ele>
        <time>2022-08-01T10:33:21Z</time>
      </trkpt>
      <trkpt lat="44.93934" lon="3.9943">
        <ele>940.79</ele>
        <time>2022-08-01T10:34:06Z</time>
      </trkpt>
      <trkpt lat="44.93934" lon="3.99434">
        <ele>936.46</ele>
        <time>2022-08-01T10:34:53Z</time>
      </trkpt>
      <trkpt lat="44.93929" lon="3.99433">
        <ele>942.23</ele>
        <time>2022-08-01T10:35:36Z</time>
      </trkpt>
      <trkpt lat="44.93929" lon="3.99432">
        <ele>940.79</ele>
        <time>2022-08-01T10:36:21Z</time>
      </trkpt>
      <trkpt lat="44.93933" lon="3.99433">
        <ele>939.83</ele>
        <time>2022-08-01T10:37:02Z</time>
      </trkpt>
      <trkpt lat="44.93935" lon="3.99433">
        <ele>939.35</ele>
        <time>2022-08-01T10:37:45Z</time>
      </trkpt>
      <trkpt lat="44.93934" lon="3.99432">
        <ele>939.35</ele>
        <time>2022-08-01T10:38:18Z</time>
      </trkpt>
      <trkpt lat="44.93932" lon="3.99434">
        <ele>942.71</ele>
        <time>2022-08-01T10:38:51Z</time>
      </trkpt>
      <trkpt lat="44.93933" lon="3.99434">
        <ele>944.15</ele>
        <time>2022-08-01T10:39:22Z</time>
      </trkpt>
      <trkpt lat="44.93932" lon="3.99432">
        <ele>941.75</ele>
        <time>2022-08-01T10:39:59Z</time>
      </trkpt>
      <trkpt lat="44.93933" lon="3.99434">
        <ele>940.31</ele>
        <time>2022-08-01T10:40:36Z</time>
      </trkpt>
      <trkpt lat="44.93934" lon="3.99432">
        <ele>936.94</ele>
        <time>2022-08-01T10:41:13Z</time>
      </trkpt>
      <trkpt lat="44.93925" lon="3.99438">
        <ele>943.19</ele>
        <time>2022-08-01T10:41:52Z</time>
      </trkpt>
      <trkpt lat="44.93925" lon="3.99436">
        <ele>944.63</ele>
        <time>2022-08-01T10:42:26Z</time>
      </trkpt>
      <trkpt lat="44.93927" lon="3.99436">
        <ele>944.15</ele>
        <time>2022-08-01T10:43:02Z</time>
      </trkpt>
      <trkpt lat="44.93928" lon="3.99434">
        <ele>940.79</ele>
        <time>2022-08-01T10:43:47Z</time>
      </trkpt>
      <trkpt lat="44.93926" lon="3.99433">
        <ele>936.94</ele>
        <time>2022-08-01T10:44:24Z</time>
      </trkpt>
      <trkpt lat="44.93927" lon="3.99434">
        <ele>931.17</ele>
        <time>2022-08-01T10:45:01Z</time>
      </trkpt>
      <trkpt lat="44.93926" lon="3.99432">
        <ele>929.73</ele>
        <time>2022-08-01T10:45:27Z</time>
      </trkpt>
      <trkpt lat="44.93925" lon="3.99436">
        <ele>938.86</ele>
        <time>2022-08-01T10:45:59Z</time>
      </trkpt>
      <trkpt lat="44.93927" lon="3.99433">
        <ele>944.15</ele>
        <time>2022-08-01T10:46:35Z</time>
      </trkpt>
      <trkpt lat="44.93929" lon="3.99431">
        <ele>940.79</ele>
        <time>2022-08-01T10:46:59Z</time>
      </trkpt>
      <trkpt lat="44.9393" lon="3.99433">
        <ele>935.5</ele>
        <time>2022-08-01T10:47:43Z</time>
      </trkpt>
      <trkpt lat="44.93926" lon="3.99431">
        <ele>934.06</ele>
        <time>2022-08-01T10:48:21Z</time>
      </trkpt>
      <trkpt lat="44.93925" lon="3.9943">
        <ele>939.35</ele>
        <time>2022-08-01T10:49:11Z</time>
      </trkpt>
      <trkpt lat="44.93926" lon="3.9943">
        <ele>933.58</ele>
        <time>2022-08-01T10:49:49Z</time>
      </trkpt>
      <trkpt lat="44.93925" lon="3.9943">
        <ele>933.58</ele>
        <time>2022-08-01T10:50:27Z</time>
      </trkpt>
      <trkpt lat="44.93927" lon="3.99431">
        <ele>935.5</ele>
        <time>2022-08-01T10:50:58Z</time>
      </trkpt>
      <trkpt lat="44.93929" lon="3.99431">
        <ele>932.62</ele>
        <time>2022-08-01T10:51:34Z</time>
      </trkpt>
      <trkpt lat="44.93926" lon="3.9943">
        <ele>934.54</ele>
        <time>2022-08-01T10:52:09Z</time>
      </trkpt>
      <trkpt lat="44.93923" lon="3.99432">
        <ele>936.46</ele>
        <time>2022-08-01T10:52:30Z</time>
      </trkpt>
      <trkpt lat="44.93924" lon="3.99432">
        <ele>944.15</ele>
        <time>2022-08-01T10:52:57Z</time>
      </trkpt>
      <trkpt lat="44.93926" lon="3.99431">
        <ele>948.48</ele>
        <time>2022-08-01T10:53:31Z</time>
      </trkpt>
      <trkpt lat="44.93926" lon="3.99431">
        <ele>943.19</ele>
        <time>2022-08-01T10:54:11Z</time>
      </trkpt>
      <trkpt lat="44.93925" lon="3.99431">
        <ele>939.35</ele>
        <time>2022-08-01T10:54:45Z</time>
      </trkpt>
      <trkpt lat="44.93927" lon="3.99431">
        <ele>940.31</ele>
        <time>2022-08-01T10:55:17Z</time>
      </trkpt>
      <trkpt lat="44.93927" lon="3.9943">
        <ele>935.5</ele>
        <time>2022-08-01T10:55:49Z</time>
      </trkpt>
      <trkpt lat="44.93928" lon="3.99433">
        <ele>933.58</ele>
        <time>2022-08-01T10:56:21Z</time>
      </trkpt>
      <trkpt lat="44.93925" lon="3.99425">
        <ele>937.42</ele>
        <time>2022-08-01T10:57:03Z</time>
      </trkpt>
      <trkpt lat="44.93926" lon="3.99428">
        <ele>937.9</ele>
        <time>2022-08-01T10:57:35Z</time>
      </trkpt>
      <trkpt lat="44.93926" lon="3.99429">
        <ele>939.35</ele>
        <time>2022-08-01T10:58:10Z</time>
      </trkpt>
      <trkpt lat="44.93925" lon="3.99429">
        <ele>940.79</ele>
        <time>2022-08-01T10:58:45Z</time>
      </trkpt>
      <trkpt lat="44.93925" lon="3.99431">
        <ele>942.71</ele>
        <time>2022-08-01T10:59:17Z</time>
      </trkpt>
      <trkpt lat="44.93923" lon="3.9943">
        <ele>940.79</ele>
        <time>2022-08-01T10:59:42Z</time>
      </trkpt>
      <trkpt lat="44.93922" lon="3.99432">
        <ele>942.23</ele>
        <time>2022-08-01T11:00:04Z</time>
      </trkpt>
      <trkpt lat="44.93921" lon="3.99431">
        <ele>941.75</ele>
        <time>2022-08-01T11:00:19Z</time>
      </trkpt>
      <trkpt lat="44.93923" lon="3.9943">
        <ele>941.75</ele>
        <time>2022-08-01T11:00:25Z</time>
      </trkpt>
      <trkpt lat="44.93925" lon="3.99435">
        <ele>941.27</ele>
        <time>2022-08-01T11:00:31Z</time>
      </trkpt>
      <trkpt lat="44.93921" lon="3.9944">
        <ele>940.31</ele>
        <time>2022-08-01T11:00:41Z</time>
      </trkpt>
      <trkpt lat="44.93915" lon="3.99444">
        <ele>940.31</ele>
        <time>2022-08-01T11:00:48Z</time>
      </trkpt>
      <trkpt lat="44.93909" lon="3.99456">
        <ele>941.27</ele>
        <time>2022-08-01T11:00:59Z</time>
      </trkpt>
      <trkpt lat="44.939" lon="3.99466">
        <ele>940.79</ele>
        <time>2022-08-01T11:01:09Z</time>
      </trkpt>
      <trkpt lat="44.93899" lon="3.99468">
        <ele>940.31</ele>
        <time>2022-08-01T11:01:11Z</time>
      </trkpt>
      <trkpt lat="44.93895" lon="3.99485">
        <ele>940.31</ele>
        <time>2022-08-01T11:01:22Z</time>
      </trkpt>
      <trkpt lat="44.9389" lon="3.99503">
        <ele>947.04</ele>
        <time>2022-08-01T11:01:37Z</time>
      </trkpt>
      <trkpt lat="44.93898" lon="3.99504">
        <ele>945.59</ele>
        <time>2022-08-01T11:01:50Z</time>
      </trkpt>
      <trkpt lat="44.93897" lon="3.99507">
        <ele>945.59</ele>
        <time>2022-08-01T11:01:53Z</time>
      </trkpt>
      <trkpt lat="44.93897" lon="3.9951">
        <ele>945.11</ele>
        <time>2022-08-01T11:01:57Z</time>
      </trkpt>
      <trkpt lat="44.93896" lon="3.99514">
        <ele>944.63</ele>
        <time>2022-08-01T11:02:00Z</time>
      </trkpt>
      <trkpt lat="44.93886" lon="3.99533">
        <ele>951.36</ele>
        <time>2022-08-01T11:02:15Z</time>
      </trkpt>
      <trkpt lat="44.93886" lon="3.99547">
        <ele>953.28</ele>
        <time>2022-08-01T11:02:25Z</time>
      </trkpt>
      <trkpt lat="44.93887" lon="3.99559">
        <ele>954.73</ele>
        <time>2022-08-01T11:02:40Z</time>
      </trkpt>
      <trkpt lat="44.93888" lon="3.99566">
        <ele>954.73</ele>
        <time>2022-08-01T11:02:55Z</time>
      </trkpt>
      <trkpt lat="44.93888" lon="3.99568">
        <ele>957.13</ele>
        <time>2022-08-01T11:03:17Z</time>
      </trkpt>
      <trkpt lat="44.93889" lon="3.99563">
        <ele>955.69</ele>
        <time>2022-08-01T11:03:36Z</time>
      </trkpt>
      <trkpt lat="44.93888" lon="3.99561">
        <ele>955.69</ele>
        <time>2022-08-01T11:04:08Z</time>
      </trkpt>
      <trkpt lat="44.93889" lon="3.99562">
        <ele>953.28</ele>
        <time>2022-08-01T11:04:28Z</time>
      </trkpt>
      <trkpt lat="44.93894" lon="3.99557">
        <ele>955.69</ele>
        <time>2022-08-01T11:04:54Z</time>
      </trkpt>
      <trkpt lat="44.93896" lon="3.99557">
        <ele>959.05</ele>
        <time>2022-08-01T11:05:24Z</time>
      </trkpt>
      <trkpt lat="44.93895" lon="3.99562">
        <ele>954.73</ele>
        <time>2022-08-01T11:05:44Z</time>
      </trkpt>
      <trkpt lat="44.93893" lon="3.99559">
        <ele>953.77</ele>
        <time>2022-08-01T11:05:46Z</time>
      </trkpt>
      <trkpt lat="44.9389" lon="3.9954">
        <ele>950.88</ele>
        <time>2022-08-01T11:05:59Z</time>
      </trkpt>
      <trkpt lat="44.93872" lon="3.99541">
        <ele>951.84</ele>
        <time>2022-08-01T11:06:13Z</time>
      </trkpt>
      <trkpt lat="44.93852" lon="3.9954">
        <ele>956.65</ele>
        <time>2022-08-01T11:06:25Z</time>
      </trkpt>
      <trkpt lat="44.93829" lon="3.99542">
        <ele>965.3</ele>
        <time>2022-08-01T11:06:42Z</time>
      </trkpt>
      <trkpt lat="44.93824" lon="3.99544">
        <ele>966.74</ele>
        <time>2022-08-01T11:06:46Z</time>
      </trkpt>
      <trkpt lat="44.93809" lon="3.99546">
        <ele>966.26</ele>
        <time>2022-08-01T11:07:04Z</time>
      </trkpt>
      <trkpt lat="44.93786" lon="3.99545">
        <ele>964.34</ele>
        <time>2022-08-01T11:07:20Z</time>
      </trkpt>
      <trkpt lat="44.93777" lon="3.99547">
        <ele>963.86</ele>
        <time>2022-08-01T11:07:29Z</time>
      </trkpt>
      <trkpt lat="44.93755" lon="3.99557">
        <ele>965.78</ele>
        <time>2022-08-01T11:07:45Z</time>
      </trkpt>
      <trkpt lat="44.93735" lon="3.99565">
        <ele>968.67</ele>
        <time>2022-08-01T11:07:59Z</time>
      </trkpt>
      <trkpt lat="44.93716" lon="3.9957">
        <ele>967.7</ele>
        <time>2022-08-01T11:08:13Z</time>
      </trkpt>
      <trkpt lat="44.93703" lon="3.99567">
        <ele>965.3</ele>
        <time>2022-08-01T11:08:23Z</time>
      </trkpt>
      <trkpt lat="44.937" lon="3.99566">
        <ele>963.86</ele>
        <time>2022-08-01T11:08:25Z</time>
      </trkpt>
      <trkpt lat="44.93682" lon="3.99573">
        <ele>961.94</ele>
        <time>2022-08-01T11:08:39Z</time>
      </trkpt>
      <trkpt lat="44.93666" lon="3.99587">
        <ele>956.65</ele>
        <time>2022-08-01T11:08:55Z</time>
      </trkpt>
      <trkpt lat="44.93648" lon="3.99596">
        <ele>955.69</ele>
        <time>2022-08-01T11:09:09Z</time>
      </trkpt>
      <trkpt lat="44.93629" lon="3.99604">
        <ele>957.61</ele>
        <time>2022-08-01T11:09:24Z</time>
      </trkpt>
      <trkpt lat="44.93614" lon="3.99607">
        <ele>959.53</ele>
        <time>2022-08-01T11:09:37Z</time>
      </trkpt>
      <trkpt lat="44.93603" lon="3.99611">
        <ele>956.17</ele>
        <time>2022-08-01T11:09:50Z</time>
      </trkpt>
      <trkpt lat="44.93581" lon="3.99626">
        <ele>953.77</ele>
        <time>2022-08-01T11:10:08Z</time>
      </trkpt>
      <trkpt lat="44.93564" lon="3.99632">
        <ele>948.48</ele>
        <time>2022-08-01T11:10:20Z</time>
      </trkpt>
      <trkpt lat="44.93551" lon="3.99633">
        <ele>947.52</ele>
        <time>2022-08-01T11:10:32Z</time>
      </trkpt>
      <trkpt lat="44.93537" lon="3.99633">
        <ele>943.19</ele>
        <time>2022-08-01T11:10:45Z</time>
      </trkpt>
      <trkpt lat="44.93533" lon="3.99626">
        <ele>942.23</ele>
        <time>2022-08-01T11:10:51Z</time>
      </trkpt>
      <trkpt lat="44.93527" lon="3.99601">
        <ele>934.06</ele>
        <time>2022-08-01T11:11:08Z</time>
      </trkpt>
      <trkpt lat="44.93522" lon="3.99574">
        <ele>929.25</ele>
        <time>2022-08-01T11:11:26Z</time>
      </trkpt>
      <trkpt lat="44.93522" lon="3.99573">
        <ele>929.25</ele>
        <time>2022-08-01T11:11:27Z</time>
      </trkpt>
      <trkpt lat="44.93527" lon="3.99558">
        <ele>927.33</ele>
        <time>2022-08-01T11:11:37Z</time>
      </trkpt>
      <trkpt lat="44.93526" lon="3.99556">
        <ele>928.29</ele>
        <time>2022-08-01T11:11:53Z</time>
      </trkpt>
      <trkpt lat="44.93524" lon="3.99558">
        <ele>928.29</ele>
        <time>2022-08-01T11:12:19Z</time>
      </trkpt>
      <trkpt lat="44.93526" lon="3.99558">
        <ele>927.81</ele>
        <time>2022-08-01T11:12:27Z</time>
      </trkpt>
      <trkpt lat="44.93538" lon="3.99531">
        <ele>923.48</ele>
        <time>2022-08-01T11:12:43Z</time>
      </trkpt>
      <trkpt lat="44.9355" lon="3.99507">
        <ele>921.08</ele>
        <time>2022-08-01T11:12:59Z</time>
      </trkpt>
      <trkpt lat="44.93556" lon="3.99493">
        <ele>919.16</ele>
        <time>2022-08-01T11:13:07Z</time>
      </trkpt>
      <trkpt lat="44.93562" lon="3.99485">
        <ele>917.24</ele>
        <time>2022-08-01T11:13:13Z</time>
      </trkpt>
      <trkpt lat="44.93573" lon="3.99454">
        <ele>911.47</ele>
        <time>2022-08-01T11:13:31Z</time>
      </trkpt>
      <trkpt lat="44.93584" lon="3.99423">
        <ele>907.62</ele>
        <time>2022-08-01T11:13:49Z</time>
      </trkpt>
      <trkpt lat="44.93596" lon="3.99387">
        <ele>902.82</ele>
        <time>2022-08-01T11:14:10Z</time>
      </trkpt>
      <trkpt lat="44.93602" lon="3.99356">
        <ele>898.01</ele>
        <time>2022-08-01T11:14:28Z</time>
      </trkpt>
      <trkpt lat="44.93607" lon="3.99334">
        <ele>895.12</ele>
        <time>2022-08-01T11:14:41Z</time>
      </trkpt>
      <trkpt lat="44.93614" lon="3.99318">
        <ele>893.68</ele>
        <time>2022-08-01T11:14:51Z</time>
      </trkpt>
      <trkpt lat="44.93624" lon="3.99292">
        <ele>890.8</ele>
        <time>2022-08-01T11:15:08Z</time>
      </trkpt>
      <trkpt lat="44.93626" lon="3.99288">
        <ele>890.32</ele>
        <time>2022-08-01T11:15:11Z</time>
      </trkpt>
      <trkpt lat="44.93632" lon="3.99286">
        <ele>888.88</ele>
        <time>2022-08-01T11:15:25Z</time>
      </trkpt>
      <trkpt lat="44.93632" lon="3.99287">
        <ele>889.36</ele>
        <time>2022-08-01T11:15:27Z</time>
      </trkpt>
      <trkpt lat="44.93628" lon="3.99288">
        <ele>891.28</ele>
        <time>2022-08-01T11:15:36Z</time>
      </trkpt>
      <trkpt lat="44.93631" lon="3.99261">
        <ele>890.32</ele>
        <time>2022-08-01T11:15:51Z</time>
      </trkpt>
      <trkpt lat="44.93635" lon="3.99236">
        <ele>888.88</ele>
        <time>2022-08-01T11:16:05Z</time>
      </trkpt>
      <trkpt lat="44.93637" lon="3.99226">
        <ele>887.91</ele>
        <time>2022-08-01T11:16:11Z</time>
      </trkpt>
      <trkpt lat="44.93638" lon="3.9919">
        <ele>885.03</ele>
        <time>2022-08-01T11:16:30Z</time>
      </trkpt>
      <trkpt lat="44.93636" lon="3.99163">
        <ele>883.11</ele>
        <time>2022-08-01T11:16:46Z</time>
      </trkpt>
      <trkpt lat="44.93635" lon="3.99132">
        <ele>881.19</ele>
        <time>2022-08-01T11:17:03Z</time>
      </trkpt>
      <trkpt lat="44.93638" lon="3.99094">
        <ele>877.82</ele>
        <time>2022-08-01T11:17:24Z</time>
      </trkpt>
      <trkpt lat="44.93641" lon="3.99061">
        <ele>875.42</ele>
        <time>2022-08-01T11:17:42Z</time>
      </trkpt>
      <trkpt lat="44.93646" lon="3.9903">
        <ele>873.01</ele>
        <time>2022-08-01T11:17:59Z</time>
      </trkpt>
      <trkpt lat="44.93651" lon="3.99001">
        <ele>869.17</ele>
        <time>2022-08-01T11:18:15Z</time>
      </trkpt>
      <trkpt lat="44.93655" lon="3.98972">
        <ele>865.32</ele>
        <time>2022-08-01T11:18:31Z</time>
      </trkpt>
      <trkpt lat="44.93664" lon="3.98947">
        <ele>861.48</ele>
        <time>2022-08-01T11:18:47Z</time>
      </trkpt>
      <trkpt lat="44.93675" lon="3.98928">
        <ele>859.56</ele>
        <time>2022-08-01T11:19:00Z</time>
      </trkpt>
      <trkpt lat="44.93679" lon="3.98918">
        <ele>858.11</ele>
        <time>2022-08-01T11:19:06Z</time>
      </trkpt>
      <trkpt lat="44.93686" lon="3.98887">
        <ele>854.27</ele>
        <time>2022-08-01T11:19:23Z</time>
      </trkpt>
      <trkpt lat="44.93686" lon="3.98853">
        <ele>849.46</ele>
        <time>2022-08-01T11:19:42Z</time>
      </trkpt>
      <trkpt lat="44.93688" lon="3.98822">
        <ele>847.54</ele>
        <time>2022-08-01T11:20:00Z</time>
      </trkpt>
      <trkpt lat="44.93693" lon="3.98798">
        <ele>847.06</ele>
        <time>2022-08-01T11:20:14Z</time>
      </trkpt>
      <trkpt lat="44.93706" lon="3.98777">
        <ele>845.62</ele>
        <time>2022-08-01T11:20:29Z</time>
      </trkpt>
      <trkpt lat="44.93716" lon="3.98755">
        <ele>843.21</ele>
        <time>2022-08-01T11:20:44Z</time>
      </trkpt>
      <trkpt lat="44.93722" lon="3.98727">
        <ele>838.41</ele>
        <time>2022-08-01T11:21:02Z</time>
      </trkpt>
      <trkpt lat="44.9372" lon="3.98695">
        <ele>836</ele>
        <time>2022-08-01T11:21:19Z</time>
      </trkpt>
      <trkpt lat="44.93714" lon="3.98668">
        <ele>832.64</ele>
        <time>2022-08-01T11:21:35Z</time>
      </trkpt>
      <trkpt lat="44.93708" lon="3.98643">
        <ele>830.72</ele>
        <time>2022-08-01T11:21:51Z</time>
      </trkpt>
      <trkpt lat="44.93701" lon="3.98617">
        <ele>829.27</ele>
        <time>2022-08-01T11:22:06Z</time>
      </trkpt>
      <trkpt lat="44.93695" lon="3.98589">
        <ele>828.31</ele>
        <time>2022-08-01T11:22:23Z</time>
      </trkpt>
      <trkpt lat="44.93688" lon="3.98562">
        <ele>826.87</ele>
        <time>2022-08-01T11:22:39Z</time>
      </trkpt>
      <trkpt lat="44.93682" lon="3.98536">
        <ele>825.91</ele>
        <time>2022-08-01T11:22:54Z</time>
      </trkpt>
      <trkpt lat="44.93675" lon="3.98511">
        <ele>827.35</ele>
        <time>2022-08-01T11:23:09Z</time>
      </trkpt>
      <trkpt lat="44.93668" lon="3.98485">
        <ele>825.43</ele>
        <time>2022-08-01T11:23:25Z</time>
      </trkpt>
      <trkpt lat="44.93667" lon="3.9848">
        <ele>824.95</ele>
        <time>2022-08-01T11:23:28Z</time>
      </trkpt>
      <trkpt lat="44.9366" lon="3.98454">
        <ele>823.51</ele>
        <time>2022-08-01T11:23:44Z</time>
      </trkpt>
      <trkpt lat="44.93647" lon="3.98432">
        <ele>823.51</ele>
        <time>2022-08-01T11:24:00Z</time>
      </trkpt>
      <trkpt lat="44.93642" lon="3.98426">
        <ele>823.03</ele>
        <time>2022-08-01T11:24:05Z</time>
      </trkpt>
      <trkpt lat="44.93628" lon="3.98413">
        <ele>819.66</ele>
        <time>2022-08-01T11:24:18Z</time>
      </trkpt>
      <trkpt lat="44.9361" lon="3.98397">
        <ele>816.78</ele>
        <time>2022-08-01T11:24:34Z</time>
      </trkpt>
      <trkpt lat="44.93592" lon="3.98386">
        <ele>814.85</ele>
        <time>2022-08-01T11:24:49Z</time>
      </trkpt>
      <trkpt lat="44.93587" lon="3.98384">
        <ele>815.34</ele>
        <time>2022-08-01T11:24:53Z</time>
      </trkpt>
      <trkpt lat="44.93568" lon="3.98371">
        <ele>817.26</ele>
        <time>2022-08-01T11:25:10Z</time>
      </trkpt>
      <trkpt lat="44.93548" lon="3.98362">
        <ele>817.26</ele>
        <time>2022-08-01T11:25:27Z</time>
      </trkpt>
      <trkpt lat="44.93529" lon="3.98358">
        <ele>820.14</ele>
        <time>2022-08-01T11:25:42Z</time>
      </trkpt>
      <trkpt lat="44.93508" lon="3.98354">
        <ele>819.18</ele>
        <time>2022-08-01T11:25:58Z</time>
      </trkpt>
      <trkpt lat="44.93493" lon="3.98344">
        <ele>821.1</ele>
        <time>2022-08-01T11:26:13Z</time>
      </trkpt>
      <trkpt lat="44.93483" lon="3.98326">
        <ele>824.95</ele>
        <time>2022-08-01T11:26:31Z</time>
      </trkpt>
      <trkpt lat="44.93468" lon="3.98319">
        <ele>829.27</ele>
        <time>2022-08-01T11:26:47Z</time>
      </trkpt>
      <trkpt lat="44.93454" lon="3.9832">
        <ele>832.64</ele>
        <time>2022-08-01T11:27:04Z</time>
      </trkpt>
      <trkpt lat="44.93436" lon="3.98314">
        <ele>834.56</ele>
        <time>2022-08-01T11:27:20Z</time>
      </trkpt>
      <trkpt lat="44.93423" lon="3.98305">
        <ele>835.52</ele>
        <time>2022-08-01T11:27:35Z</time>
      </trkpt>
      <trkpt lat="44.93411" lon="3.98295">
        <ele>836.48</ele>
        <time>2022-08-01T11:27:51Z</time>
      </trkpt>
      <trkpt lat="44.93413" lon="3.98293">
        <ele>837.45</ele>
        <time>2022-08-01T11:27:55Z</time>
      </trkpt>
      <trkpt lat="44.93414" lon="3.9829">
        <ele>838.41</ele>
        <time>2022-08-01T11:27:58Z</time>
      </trkpt>
      <trkpt lat="44.93415" lon="3.98285">
        <ele>838.89</ele>
        <time>2022-08-01T11:28:04Z</time>
      </trkpt>
      <trkpt lat="44.93422" lon="3.98271">
        <ele>840.33</ele>
        <time>2022-08-01T11:28:18Z</time>
      </trkpt>
      <trkpt lat="44.9343" lon="3.98249">
        <ele>839.37</ele>
        <time>2022-08-01T11:28:33Z</time>
      </trkpt>
      <trkpt lat="44.9343" lon="3.98245">
        <ele>840.81</ele>
        <time>2022-08-01T11:28:35Z</time>
      </trkpt>
      <trkpt lat="44.93426" lon="3.98223">
        <ele>842.73</ele>
        <time>2022-08-01T11:28:50Z</time>
      </trkpt>
      <trkpt lat="44.93421" lon="3.98207">
        <ele>847.06</ele>
        <time>2022-08-01T11:29:03Z</time>
      </trkpt>
      <trkpt lat="44.93425" lon="3.98193">
        <ele>851.87</ele>
        <time>2022-08-01T11:29:16Z</time>
      </trkpt>
      <trkpt lat="44.93426" lon="3.98169">
        <ele>854.27</ele>
        <time>2022-08-01T11:29:31Z</time>
      </trkpt>
      <trkpt lat="44.93422" lon="3.98153">
        <ele>854.75</ele>
        <time>2022-08-01T11:29:42Z</time>
      </trkpt>
      <trkpt lat="44.93418" lon="3.9813">
        <ele>859.08</ele>
        <time>2022-08-01T11:29:57Z</time>
      </trkpt>
      <trkpt lat="44.93417" lon="3.98122">
        <ele>861</ele>
        <time>2022-08-01T11:30:03Z</time>
      </trkpt>
      <trkpt lat="44.93412" lon="3.98104">
        <ele>864.36</ele>
        <time>2022-08-01T11:30:16Z</time>
      </trkpt>
      <trkpt lat="44.93404" lon="3.98086">
        <ele>865.32</ele>
        <time>2022-08-01T11:30:31Z</time>
      </trkpt>
      <trkpt lat="44.93403" lon="3.98076">
        <ele>871.09</ele>
        <time>2022-08-01T11:30:44Z</time>
      </trkpt>
      <trkpt lat="44.93396" lon="3.98062">
        <ele>875.42</ele>
        <time>2022-08-01T11:30:59Z</time>
      </trkpt>
      <trkpt lat="44.93382" lon="3.98051">
        <ele>874.94</ele>
        <time>2022-08-01T11:31:15Z</time>
      </trkpt>
      <trkpt lat="44.93373" lon="3.98044">
        <ele>878.78</ele>
        <time>2022-08-01T11:31:31Z</time>
      </trkpt>
      <trkpt lat="44.93359" lon="3.98036">
        <ele>881.67</ele>
        <time>2022-08-01T11:31:43Z</time>
      </trkpt>
      <trkpt lat="44.93347" lon="3.98027">
        <ele>878.78</ele>
        <time>2022-08-01T11:31:55Z</time>
      </trkpt>
      <trkpt lat="44.93349" lon="3.9802">
        <ele>879.26</ele>
        <time>2022-08-01T11:32:03Z</time>
      </trkpt>
      <trkpt lat="44.93348" lon="3.9801">
        <ele>880.22</ele>
        <time>2022-08-01T11:32:10Z</time>
      </trkpt>
      <trkpt lat="44.93339" lon="3.97989">
        <ele>877.34</ele>
        <time>2022-08-01T11:32:24Z</time>
      </trkpt>
      <trkpt lat="44.93336" lon="3.97972">
        <ele>876.86</ele>
        <time>2022-08-01T11:32:37Z</time>
      </trkpt>
      <trkpt lat="44.9334" lon="3.97956">
        <ele>878.3</ele>
        <time>2022-08-01T11:32:48Z</time>
      </trkpt>
      <trkpt lat="44.93342" lon="3.97952">
        <ele>878.3</ele>
        <time>2022-08-01T11:32:51Z</time>
      </trkpt>
      <trkpt lat="44.93345" lon="3.9794">
        <ele>876.86</ele>
        <time>2022-08-01T11:32:58Z</time>
      </trkpt>
      <trkpt lat="44.93347" lon="3.97925">
        <ele>874.46</ele>
        <time>2022-08-01T11:33:06Z</time>
      </trkpt>
      <trkpt lat="44.93348" lon="3.97912">
        <ele>874.46</ele>
        <time>2022-08-01T11:33:13Z</time>
      </trkpt>
      <trkpt lat="44.9335" lon="3.97888">
        <ele>876.86</ele>
        <time>2022-08-01T11:33:29Z</time>
      </trkpt>
      <trkpt lat="44.9335" lon="3.97884">
        <ele>877.34</ele>
        <time>2022-08-01T11:33:32Z</time>
      </trkpt>
      <trkpt lat="44.93356" lon="3.97872">
        <ele>879.26</ele>
        <time>2022-08-01T11:33:43Z</time>
      </trkpt>
      <trkpt lat="44.93357" lon="3.97861">
        <ele>879.74</ele>
        <time>2022-08-01T11:33:50Z</time>
      </trkpt>
      <trkpt lat="44.93361" lon="3.97842">
        <ele>878.78</ele>
        <time>2022-08-01T11:34:01Z</time>
      </trkpt>
      <trkpt lat="44.93372" lon="3.97821">
        <ele>874.46</ele>
        <time>2022-08-01T11:34:16Z</time>
      </trkpt>
      <trkpt lat="44.93377" lon="3.97804">
        <ele>872.05</ele>
        <time>2022-08-01T11:34:26Z</time>
      </trkpt>
      <trkpt lat="44.93372" lon="3.97776">
        <ele>870.13</ele>
        <time>2022-08-01T11:34:41Z</time>
      </trkpt>
      <trkpt lat="44.93363" lon="3.97761">
        <ele>868.69</ele>
        <time>2022-08-01T11:34:53Z</time>
      </trkpt>
      <trkpt lat="44.93358" lon="3.9775">
        <ele>868.21</ele>
        <time>2022-08-01T11:35:02Z</time>
      </trkpt>
      <trkpt lat="44.93358" lon="3.97739">
        <ele>869.65</ele>
        <time>2022-08-01T11:35:09Z</time>
      </trkpt>
      <trkpt lat="44.93355" lon="3.9773">
        <ele>871.57</ele>
        <time>2022-08-01T11:35:15Z</time>
      </trkpt>
      <trkpt lat="44.93355" lon="3.97724">
        <ele>874.94</ele>
        <time>2022-08-01T11:35:19Z</time>
      </trkpt>
      <trkpt lat="44.93356" lon="3.97712">
        <ele>877.34</ele>
        <time>2022-08-01T11:35:25Z</time>
      </trkpt>
      <trkpt lat="44.93348" lon="3.9769">
        <ele>876.86</ele>
        <time>2022-08-01T11:35:38Z</time>
      </trkpt>
      <trkpt lat="44.93339" lon="3.97675">
        <ele>876.86</ele>
        <time>2022-08-01T11:35:51Z</time>
      </trkpt>
      <trkpt lat="44.93335" lon="3.97661">
        <ele>881.67</ele>
        <time>2022-08-01T11:36:05Z</time>
      </trkpt>
      <trkpt lat="44.93331" lon="3.97643">
        <ele>883.59</ele>
        <time>2022-08-01T11:36:19Z</time>
      </trkpt>
      <trkpt lat="44.93328" lon="3.97625">
        <ele>882.63</ele>
        <time>2022-08-01T11:36:34Z</time>
      </trkpt>
      <trkpt lat="44.93329" lon="3.97624">
        <ele>882.63</ele>
        <time>2022-08-01T11:36:35Z</time>
      </trkpt>
      <trkpt lat="44.93332" lon="3.97609">
        <ele>886.47</ele>
        <time>2022-08-01T11:36:48Z</time>
      </trkpt>
      <trkpt lat="44.93333" lon="3.97608">
        <ele>886.95</ele>
        <time>2022-08-01T11:36:49Z</time>
      </trkpt>
      <trkpt lat="44.93334" lon="3.97599">
        <ele>889.84</ele>
        <time>2022-08-01T11:36:55Z</time>
      </trkpt>
      <trkpt lat="44.93342" lon="3.97585">
        <ele>897.05</ele>
        <time>2022-08-01T11:37:09Z</time>
      </trkpt>
      <trkpt lat="44.93354" lon="3.97561">
        <ele>896.09</ele>
        <time>2022-08-01T11:37:26Z</time>
      </trkpt>
      <trkpt lat="44.93363" lon="3.97545">
        <ele>897.05</ele>
        <time>2022-08-01T11:37:39Z</time>
      </trkpt>
      <trkpt lat="44.93372" lon="3.97527">
        <ele>900.41</ele>
        <time>2022-08-01T11:37:53Z</time>
      </trkpt>
      <trkpt lat="44.93374" lon="3.97506">
        <ele>903.78</ele>
        <time>2022-08-01T11:38:08Z</time>
      </trkpt>
      <trkpt lat="44.93377" lon="3.9749">
        <ele>906.66</ele>
        <time>2022-08-01T11:38:20Z</time>
      </trkpt>
      <trkpt lat="44.93379" lon="3.97476">
        <ele>908.1</ele>
        <time>2022-08-01T11:38:28Z</time>
      </trkpt>
      <trkpt lat="44.93386" lon="3.97455">
        <ele>908.58</ele>
        <time>2022-08-01T11:38:43Z</time>
      </trkpt>
      <trkpt lat="44.93386" lon="3.97429">
        <ele>910.03</ele>
        <time>2022-08-01T11:38:57Z</time>
      </trkpt>
      <trkpt lat="44.9339" lon="3.97408">
        <ele>911.95</ele>
        <time>2022-08-01T11:39:12Z</time>
      </trkpt>
      <trkpt lat="44.93389" lon="3.974">
        <ele>911.95</ele>
        <time>2022-08-01T11:39:16Z</time>
      </trkpt>
      <trkpt lat="44.93379" lon="3.97371">
        <ele>907.14</ele>
        <time>2022-08-01T11:39:29Z</time>
      </trkpt>
      <trkpt lat="44.93378" lon="3.97363">
        <ele>905.22</ele>
        <time>2022-08-01T11:39:34Z</time>
      </trkpt>
      <trkpt lat="44.93376" lon="3.97349">
        <ele>905.7</ele>
        <time>2022-08-01T11:39:47Z</time>
      </trkpt>
      <trkpt lat="44.93374" lon="3.97332">
        <ele>916.75</ele>
        <time>2022-08-01T11:40:02Z</time>
      </trkpt>
      <trkpt lat="44.93373" lon="3.97318">
        <ele>923</ele>
        <time>2022-08-01T11:40:15Z</time>
      </trkpt>
      <trkpt lat="44.93374" lon="3.9731">
        <ele>923</ele>
        <time>2022-08-01T11:40:31Z</time>
      </trkpt>
      <trkpt lat="44.93371" lon="3.97309">
        <ele>922.04</ele>
        <time>2022-08-01T11:40:36Z</time>
      </trkpt>
      <trkpt lat="44.9337" lon="3.9729">
        <ele>920.6</ele>
        <time>2022-08-01T11:40:49Z</time>
      </trkpt>
      <trkpt lat="44.93367" lon="3.97285">
        <ele>919.16</ele>
        <time>2022-08-01T11:41:06Z</time>
      </trkpt>
      <trkpt lat="44.93366" lon="3.97284">
        <ele>916.75</ele>
        <time>2022-08-01T11:41:40Z</time>
      </trkpt>
      <trkpt lat="44.93366" lon="3.97282">
        <ele>920.12</ele>
        <time>2022-08-01T11:42:11Z</time>
      </trkpt>
      <trkpt lat="44.93366" lon="3.97271">
        <ele>918.2</ele>
        <time>2022-08-01T11:42:24Z</time>
      </trkpt>
      <trkpt lat="44.93365" lon="3.97258">
        <ele>915.79</ele>
        <time>2022-08-01T11:42:37Z</time>
      </trkpt>
      <trkpt lat="44.93365" lon="3.97251">
        <ele>918.68</ele>
        <time>2022-08-01T11:42:54Z</time>
      </trkpt>
      <trkpt lat="44.93362" lon="3.97245">
        <ele>921.08</ele>
        <time>2022-08-01T11:43:17Z</time>
      </trkpt>
      <trkpt lat="44.93367" lon="3.97228">
        <ele>923</ele>
        <time>2022-08-01T11:43:30Z</time>
      </trkpt>
      <trkpt lat="44.93368" lon="3.9721">
        <ele>927.33</ele>
        <time>2022-08-01T11:43:43Z</time>
      </trkpt>
      <trkpt lat="44.93367" lon="3.97196">
        <ele>929.73</ele>
        <time>2022-08-01T11:43:56Z</time>
      </trkpt>
      <trkpt lat="44.93367" lon="3.97177">
        <ele>928.29</ele>
        <time>2022-08-01T11:44:10Z</time>
      </trkpt>
      <trkpt lat="44.9337" lon="3.97159">
        <ele>930.21</ele>
        <time>2022-08-01T11:44:23Z</time>
      </trkpt>
      <trkpt lat="44.93368" lon="3.9714">
        <ele>936.46</ele>
        <time>2022-08-01T11:44:37Z</time>
      </trkpt>
      <trkpt lat="44.93369" lon="3.97127">
        <ele>939.35</ele>
        <time>2022-08-01T11:44:46Z</time>
      </trkpt>
      <trkpt lat="44.93355" lon="3.97114">
        <ele>937.42</ele>
        <time>2022-08-01T11:44:58Z</time>
      </trkpt>
      <trkpt lat="44.93349" lon="3.97109">
        <ele>935.5</ele>
        <time>2022-08-01T11:45:04Z</time>
      </trkpt>
      <trkpt lat="44.93334" lon="3.97104">
        <ele>935.5</ele>
        <time>2022-08-01T11:45:17Z</time>
      </trkpt>
      <trkpt lat="44.9332" lon="3.97101">
        <ele>935.5</ele>
        <time>2022-08-01T11:45:32Z</time>
      </trkpt>
      <trkpt lat="44.93306" lon="3.97096">
        <ele>936.94</ele>
        <time>2022-08-01T11:45:46Z</time>
      </trkpt>
      <trkpt lat="44.93292" lon="3.9709">
        <ele>938.38</ele>
        <time>2022-08-01T11:46:01Z</time>
      </trkpt>
      <trkpt lat="44.9328" lon="3.97079">
        <ele>941.27</ele>
        <time>2022-08-01T11:46:15Z</time>
      </trkpt>
      <trkpt lat="44.93267" lon="3.97061">
        <ele>942.23</ele>
        <time>2022-08-01T11:46:28Z</time>
      </trkpt>
      <trkpt lat="44.93261" lon="3.97041">
        <ele>944.63</ele>
        <time>2022-08-01T11:46:45Z</time>
      </trkpt>
      <trkpt lat="44.93257" lon="3.97017">
        <ele>945.11</ele>
        <time>2022-08-01T11:47:00Z</time>
      </trkpt>
      <trkpt lat="44.93255" lon="3.97007">
        <ele>945.11</ele>
        <time>2022-08-01T11:47:07Z</time>
      </trkpt>
      <trkpt lat="44.93255" lon="3.97001">
        <ele>945.11</ele>
        <time>2022-08-01T11:47:11Z</time>
      </trkpt>
      <trkpt lat="44.93257" lon="3.96983">
        <ele>946.07</ele>
        <time>2022-08-01T11:47:24Z</time>
      </trkpt>
      <trkpt lat="44.9326" lon="3.96964">
        <ele>948.96</ele>
        <time>2022-08-01T11:47:36Z</time>
      </trkpt>
      <trkpt lat="44.9326" lon="3.96951">
        <ele>949.92</ele>
        <time>2022-08-01T11:47:43Z</time>
      </trkpt>
      <trkpt lat="44.93262" lon="3.96923">
        <ele>948.96</ele>
        <time>2022-08-01T11:47:57Z</time>
      </trkpt>
      <trkpt lat="44.93266" lon="3.96895">
        <ele>947.04</ele>
        <time>2022-08-01T11:48:13Z</time>
      </trkpt>
      <trkpt lat="44.93266" lon="3.96865">
        <ele>946.56</ele>
        <time>2022-08-01T11:48:30Z</time>
      </trkpt>
      <trkpt lat="44.93259" lon="3.96839">
        <ele>946.07</ele>
        <time>2022-08-01T11:48:45Z</time>
      </trkpt>
      <trkpt lat="44.9325" lon="3.96817">
        <ele>949.44</ele>
        <time>2022-08-01T11:49:01Z</time>
      </trkpt>
      <trkpt lat="44.9324" lon="3.96798">
        <ele>955.69</ele>
        <time>2022-08-01T11:49:16Z</time>
      </trkpt>
      <trkpt lat="44.93233" lon="3.96779">
        <ele>958.09</ele>
        <time>2022-08-01T11:49:32Z</time>
      </trkpt>
      <trkpt lat="44.93227" lon="3.96764">
        <ele>960.01</ele>
        <time>2022-08-01T11:49:43Z</time>
      </trkpt>
      <trkpt lat="44.93226" lon="3.96763">
        <ele>959.53</ele>
        <time>2022-08-01T11:49:44Z</time>
      </trkpt>
      <trkpt lat="44.93217" lon="3.96739">
        <ele>959.53</ele>
        <time>2022-08-01T11:49:59Z</time>
      </trkpt>
      <trkpt lat="44.93206" lon="3.96722">
        <ele>959.05</ele>
        <time>2022-08-01T11:50:12Z</time>
      </trkpt>
      <trkpt lat="44.93192" lon="3.967">
        <ele>960.49</ele>
        <time>2022-08-01T11:50:28Z</time>
      </trkpt>
      <trkpt lat="44.9319" lon="3.96698">
        <ele>960.01</ele>
        <time>2022-08-01T11:50:30Z</time>
      </trkpt>
      <trkpt lat="44.93171" lon="3.9668">
        <ele>957.61</ele>
        <time>2022-08-01T11:50:48Z</time>
      </trkpt>
      <trkpt lat="44.93158" lon="3.96657">
        <ele>957.61</ele>
        <time>2022-08-01T11:51:06Z</time>
      </trkpt>
      <trkpt lat="44.93151" lon="3.96653">
        <ele>957.61</ele>
        <time>2022-08-01T11:51:20Z</time>
      </trkpt>
      <trkpt lat="44.93151" lon="3.96657">
        <ele>959.05</ele>
        <time>2022-08-01T11:51:51Z</time>
      </trkpt>
      <trkpt lat="44.93153" lon="3.96654">
        <ele>960.01</ele>
        <time>2022-08-01T11:52:18Z</time>
      </trkpt>
      <trkpt lat="44.93151" lon="3.96652">
        <ele>960.49</ele>
        <time>2022-08-01T11:52:38Z</time>
      </trkpt>
      <trkpt lat="44.9315" lon="3.9665">
        <ele>960.49</ele>
        <time>2022-08-01T11:52:40Z</time>
      </trkpt>
      <trkpt lat="44.93147" lon="3.96648">
        <ele>960.49</ele>
        <time>2022-08-01T11:52:42Z</time>
      </trkpt>
      <trkpt lat="44.93131" lon="3.96637">
        <ele>960.98</ele>
        <time>2022-08-01T11:52:57Z</time>
      </trkpt>
      <trkpt lat="44.93128" lon="3.96634">
        <ele>960.98</ele>
        <time>2022-08-01T11:53:00Z</time>
      </trkpt>
      <trkpt lat="44.93117" lon="3.96629">
        <ele>960.98</ele>
        <time>2022-08-01T11:53:12Z</time>
      </trkpt>
      <trkpt lat="44.93114" lon="3.96627">
        <ele>961.94</ele>
        <time>2022-08-01T11:53:28Z</time>
      </trkpt>
      <trkpt lat="44.93114" lon="3.96627">
        <ele>962.9</ele>
        <time>2022-08-01T11:53:37Z</time>
      </trkpt>
      <trkpt lat="44.93108" lon="3.96625">
        <ele>962.42</ele>
        <time>2022-08-01T11:53:41Z</time>
      </trkpt>
      <trkpt lat="44.93097" lon="3.96618">
        <ele>960.49</ele>
        <time>2022-08-01T11:53:57Z</time>
      </trkpt>
      <trkpt lat="44.93092" lon="3.96615">
        <ele>960.49</ele>
        <time>2022-08-01T11:54:13Z</time>
      </trkpt>
      <trkpt lat="44.93073" lon="3.96596">
        <ele>959.05</ele>
        <time>2022-08-01T11:54:30Z</time>
      </trkpt>
      <trkpt lat="44.93055" lon="3.96585">
        <ele>959.05</ele>
        <time>2022-08-01T11:54:45Z</time>
      </trkpt>
      <trkpt lat="44.93037" lon="3.96579">
        <ele>959.05</ele>
        <time>2022-08-01T11:54:59Z</time>
      </trkpt>
      <trkpt lat="44.93018" lon="3.96576">
        <ele>959.05</ele>
        <time>2022-08-01T11:55:14Z</time>
      </trkpt>
      <trkpt lat="44.93007" lon="3.96574">
        <ele>957.61</ele>
        <time>2022-08-01T11:55:30Z</time>
      </trkpt>
      <trkpt lat="44.9301" lon="3.96572">
        <ele>957.61</ele>
        <time>2022-08-01T11:55:42Z</time>
      </trkpt>
      <trkpt lat="44.93011" lon="3.9657">
        <ele>957.13</ele>
        <time>2022-08-01T11:56:01Z</time>
      </trkpt>
      <trkpt lat="44.9301" lon="3.9657">
        <ele>956.65</ele>
        <time>2022-08-01T11:56:19Z</time>
      </trkpt>
      <trkpt lat="44.93009" lon="3.96572">
        <ele>955.69</ele>
        <time>2022-08-01T11:56:43Z</time>
      </trkpt>
      <trkpt lat="44.9301" lon="3.9657">
        <ele>959.05</ele>
        <time>2022-08-01T11:57:08Z</time>
      </trkpt>
      <trkpt lat="44.93009" lon="3.9657">
        <ele>958.09</ele>
        <time>2022-08-01T11:57:34Z</time>
      </trkpt>
      <trkpt lat="44.93009" lon="3.96572">
        <ele>958.09</ele>
        <time>2022-08-01T11:57:59Z</time>
      </trkpt>
      <trkpt lat="44.93009" lon="3.96569">
        <ele>958.09</ele>
        <time>2022-08-01T11:58:16Z</time>
      </trkpt>
      <trkpt lat="44.93002" lon="3.96573">
        <ele>958.57</ele>
        <time>2022-08-01T11:58:34Z</time>
      </trkpt>
      <trkpt lat="44.92996" lon="3.96567">
        <ele>958.09</ele>
        <time>2022-08-01T11:58:40Z</time>
      </trkpt>
      <trkpt lat="44.92976" lon="3.96555">
        <ele>954.25</ele>
        <time>2022-08-01T11:58:59Z</time>
      </trkpt>
      <trkpt lat="44.92956" lon="3.96539">
        <ele>952.32</ele>
        <time>2022-08-01T11:59:15Z</time>
      </trkpt>
      <trkpt lat="44.92932" lon="3.96529">
        <ele>951.36</ele>
        <time>2022-08-01T11:59:33Z</time>
      </trkpt>
      <trkpt lat="44.92911" lon="3.96534">
        <ele>948.96</ele>
        <time>2022-08-01T11:59:48Z</time>
      </trkpt>
      <trkpt lat="44.9289" lon="3.96533">
        <ele>946.56</ele>
        <time>2022-08-01T12:00:03Z</time>
      </trkpt>
      <trkpt lat="44.92871" lon="3.96521">
        <ele>945.11</ele>
        <time>2022-08-01T12:00:18Z</time>
      </trkpt>
      <trkpt lat="44.92856" lon="3.96499">
        <ele>944.15</ele>
        <time>2022-08-01T12:00:34Z</time>
      </trkpt>
      <trkpt lat="44.92843" lon="3.96471">
        <ele>942.23</ele>
        <time>2022-08-01T12:00:51Z</time>
      </trkpt>
      <trkpt lat="44.92831" lon="3.96444">
        <ele>939.35</ele>
        <time>2022-08-01T12:01:07Z</time>
      </trkpt>
      <trkpt lat="44.9282" lon="3.96416">
        <ele>935.98</ele>
        <time>2022-08-01T12:01:23Z</time>
      </trkpt>
      <trkpt lat="44.92808" lon="3.96392">
        <ele>932.14</ele>
        <time>2022-08-01T12:01:38Z</time>
      </trkpt>
      <trkpt lat="44.92791" lon="3.96373">
        <ele>929.73</ele>
        <time>2022-08-01T12:01:53Z</time>
      </trkpt>
      <trkpt lat="44.92772" lon="3.96359">
        <ele>930.69</ele>
        <time>2022-08-01T12:02:08Z</time>
      </trkpt>
      <trkpt lat="44.92758" lon="3.96343">
        <ele>931.65</ele>
        <time>2022-08-01T12:02:23Z</time>
      </trkpt>
      <trkpt lat="44.9275" lon="3.96326">
        <ele>935.02</ele>
        <time>2022-08-01T12:02:34Z</time>
      </trkpt>
      <trkpt lat="44.92749" lon="3.96318">
        <ele>936.94</ele>
        <time>2022-08-01T12:02:40Z</time>
      </trkpt>
      <trkpt lat="44.92733" lon="3.96303">
        <ele>937.9</ele>
        <time>2022-08-01T12:02:54Z</time>
      </trkpt>
      <trkpt lat="44.92713" lon="3.9629">
        <ele>937.9</ele>
        <time>2022-08-01T12:03:11Z</time>
      </trkpt>
      <trkpt lat="44.92702" lon="3.96284">
        <ele>938.38</ele>
        <time>2022-08-01T12:03:21Z</time>
      </trkpt>
      <trkpt lat="44.92693" lon="3.96283">
        <ele>939.35</ele>
        <time>2022-08-01T12:03:29Z</time>
      </trkpt>
      <trkpt lat="44.92684" lon="3.96267">
        <ele>941.27</ele>
        <time>2022-08-01T12:03:42Z</time>
      </trkpt>
      <trkpt lat="44.92676" lon="3.96246">
        <ele>944.15</ele>
        <time>2022-08-01T12:03:57Z</time>
      </trkpt>
      <trkpt lat="44.92674" lon="3.96242">
        <ele>945.11</ele>
        <time>2022-08-01T12:04:00Z</time>
      </trkpt>
      <trkpt lat="44.92673" lon="3.96237">
        <ele>945.59</ele>
        <time>2022-08-01T12:04:03Z</time>
      </trkpt>
      <trkpt lat="44.92669" lon="3.96229">
        <ele>947.04</ele>
        <time>2022-08-01T12:04:09Z</time>
      </trkpt>
      <trkpt lat="44.92656" lon="3.96216">
        <ele>950.88</ele>
        <time>2022-08-01T12:04:24Z</time>
      </trkpt>
      <trkpt lat="44.9264" lon="3.96205">
        <ele>954.25</ele>
        <time>2022-08-01T12:04:38Z</time>
      </trkpt>
      <trkpt lat="44.92629" lon="3.962">
        <ele>955.69</ele>
        <time>2022-08-01T12:04:48Z</time>
      </trkpt>
      <trkpt lat="44.92623" lon="3.96197">
        <ele>957.13</ele>
        <time>2022-08-01T12:04:54Z</time>
      </trkpt>
      <trkpt lat="44.92616" lon="3.9619">
        <ele>957.61</ele>
        <time>2022-08-01T12:05:04Z</time>
      </trkpt>
      <trkpt lat="44.92613" lon="3.96184">
        <ele>957.13</ele>
        <time>2022-08-01T12:05:09Z</time>
      </trkpt>
      <trkpt lat="44.92615" lon="3.96169">
        <ele>956.17</ele>
        <time>2022-08-01T12:05:21Z</time>
      </trkpt>
      <trkpt lat="44.92617" lon="3.96145">
        <ele>957.13</ele>
        <time>2022-08-01T12:05:36Z</time>
      </trkpt>
      <trkpt lat="44.92611" lon="3.96118">
        <ele>958.09</ele>
        <time>2022-08-01T12:05:51Z</time>
      </trkpt>
      <trkpt lat="44.92602" lon="3.96099">
        <ele>959.53</ele>
        <time>2022-08-01T12:06:05Z</time>
      </trkpt>
      <trkpt lat="44.926" lon="3.96096">
        <ele>959.53</ele>
        <time>2022-08-01T12:06:07Z</time>
      </trkpt>
      <trkpt lat="44.92591" lon="3.96069">
        <ele>960.01</ele>
        <time>2022-08-01T12:06:25Z</time>
      </trkpt>
      <trkpt lat="44.92578" lon="3.96047">
        <ele>961.46</ele>
        <time>2022-08-01T12:06:40Z</time>
      </trkpt>
      <trkpt lat="44.92565" lon="3.96025">
        <ele>960.98</ele>
        <time>2022-08-01T12:06:55Z</time>
      </trkpt>
      <trkpt lat="44.92558" lon="3.96015">
        <ele>961.46</ele>
        <time>2022-08-01T12:07:02Z</time>
      </trkpt>
      <trkpt lat="44.92542" lon="3.95986">
        <ele>960.01</ele>
        <time>2022-08-01T12:07:20Z</time>
      </trkpt>
      <trkpt lat="44.92536" lon="3.95957">
        <ele>956.65</ele>
        <time>2022-08-01T12:07:36Z</time>
      </trkpt>
      <trkpt lat="44.92526" lon="3.95938">
        <ele>952.32</ele>
        <time>2022-08-01T12:07:49Z</time>
      </trkpt>
      <trkpt lat="44.92527" lon="3.9591">
        <ele>950.88</ele>
        <time>2022-08-01T12:08:05Z</time>
      </trkpt>
      <trkpt lat="44.92535" lon="3.95884">
        <ele>952.8</ele>
        <time>2022-08-01T12:08:21Z</time>
      </trkpt>
      <trkpt lat="44.92536" lon="3.95873">
        <ele>953.28</ele>
        <time>2022-08-01T12:08:27Z</time>
      </trkpt>
      <trkpt lat="44.92536" lon="3.95861">
        <ele>954.25</ele>
        <time>2022-08-01T12:08:34Z</time>
      </trkpt>
      <trkpt lat="44.9253" lon="3.95844">
        <ele>955.21</ele>
        <time>2022-08-01T12:08:44Z</time>
      </trkpt>
      <trkpt lat="44.92517" lon="3.95822">
        <ele>957.13</ele>
        <time>2022-08-01T12:09:00Z</time>
      </trkpt>
      <trkpt lat="44.92509" lon="3.958">
        <ele>959.53</ele>
        <time>2022-08-01T12:09:14Z</time>
      </trkpt>
      <trkpt lat="44.92502" lon="3.95777">
        <ele>960.49</ele>
        <time>2022-08-01T12:09:29Z</time>
      </trkpt>
      <trkpt lat="44.9249" lon="3.95751">
        <ele>960.49</ele>
        <time>2022-08-01T12:09:46Z</time>
      </trkpt>
      <trkpt lat="44.9248" lon="3.95727">
        <ele>962.42</ele>
        <time>2022-08-01T12:10:02Z</time>
      </trkpt>
      <trkpt lat="44.9247" lon="3.95704">
        <ele>964.82</ele>
        <time>2022-08-01T12:10:18Z</time>
      </trkpt>
      <trkpt lat="44.92463" lon="3.95678">
        <ele>968.18</ele>
        <time>2022-08-01T12:10:33Z</time>
      </trkpt>
      <trkpt lat="44.92457" lon="3.95657">
        <ele>970.59</ele>
        <time>2022-08-01T12:10:46Z</time>
      </trkpt>
      <trkpt lat="44.92456" lon="3.95654">
        <ele>970.59</ele>
        <time>2022-08-01T12:10:48Z</time>
      </trkpt>
      <trkpt lat="44.92445" lon="3.95647">
        <ele>971.07</ele>
        <time>2022-08-01T12:10:58Z</time>
      </trkpt>
      <trkpt lat="44.92427" lon="3.95635">
        <ele>972.03</ele>
        <time>2022-08-01T12:11:14Z</time>
      </trkpt>
      <trkpt lat="44.92409" lon="3.95623">
        <ele>972.99</ele>
        <time>2022-08-01T12:11:29Z</time>
      </trkpt>
      <trkpt lat="44.92395" lon="3.95611">
        <ele>972.99</ele>
        <time>2022-08-01T12:11:42Z</time>
      </trkpt>
      <trkpt lat="44.92393" lon="3.95603">
        <ele>973.95</ele>
        <time>2022-08-01T12:11:47Z</time>
      </trkpt>
      <trkpt lat="44.92397" lon="3.95584">
        <ele>974.91</ele>
        <time>2022-08-01T12:11:58Z</time>
      </trkpt>
      <trkpt lat="44.92399" lon="3.95554">
        <ele>974.43</ele>
        <time>2022-08-01T12:12:15Z</time>
      </trkpt>
      <trkpt lat="44.92399" lon="3.95552">
        <ele>974.43</ele>
        <time>2022-08-01T12:12:16Z</time>
      </trkpt>
      <trkpt lat="44.92397" lon="3.9553">
        <ele>972.99</ele>
        <time>2022-08-01T12:12:28Z</time>
      </trkpt>
      <trkpt lat="44.92395" lon="3.95516">
        <ele>973.95</ele>
        <time>2022-08-01T12:12:43Z</time>
      </trkpt>
      <trkpt lat="44.92397" lon="3.95512">
        <ele>974.91</ele>
        <time>2022-08-01T12:13:01Z</time>
      </trkpt>
      <trkpt lat="44.92395" lon="3.95508">
        <ele>975.88</ele>
        <time>2022-08-01T12:13:19Z</time>
      </trkpt>
      <trkpt lat="44.92399" lon="3.95482">
        <ele>974.91</ele>
        <time>2022-08-01T12:13:34Z</time>
      </trkpt>
      <trkpt lat="44.92401" lon="3.95467">
        <ele>972.51</ele>
        <time>2022-08-01T12:13:45Z</time>
      </trkpt>
      <trkpt lat="44.92397" lon="3.95464">
        <ele>971.55</ele>
        <time>2022-08-01T12:13:58Z</time>
      </trkpt>
      <trkpt lat="44.92396" lon="3.95465">
        <ele>971.55</ele>
        <time>2022-08-01T12:14:14Z</time>
      </trkpt>
      <trkpt lat="44.92399" lon="3.95461">
        <ele>971.07</ele>
        <time>2022-08-01T12:14:18Z</time>
      </trkpt>
      <trkpt lat="44.92402" lon="3.95438">
        <ele>970.11</ele>
        <time>2022-08-01T12:14:31Z</time>
      </trkpt>
      <trkpt lat="44.92415" lon="3.95408">
        <ele>968.18</ele>
        <time>2022-08-01T12:14:49Z</time>
      </trkpt>
      <trkpt lat="44.92428" lon="3.95391">
        <ele>964.82</ele>
        <time>2022-08-01T12:15:02Z</time>
      </trkpt>
      <trkpt lat="44.92427" lon="3.95376">
        <ele>963.38</ele>
        <time>2022-08-01T12:15:10Z</time>
      </trkpt>
      <trkpt lat="44.92425" lon="3.95345">
        <ele>962.9</ele>
        <time>2022-08-01T12:15:26Z</time>
      </trkpt>
      <trkpt lat="44.92424" lon="3.95339">
        <ele>962.9</ele>
        <time>2022-08-01T12:15:29Z</time>
      </trkpt>
      <trkpt lat="44.92423" lon="3.95331">
        <ele>962.42</ele>
        <time>2022-08-01T12:15:33Z</time>
      </trkpt>
      <trkpt lat="44.92419" lon="3.95298">
        <ele>961.46</ele>
        <time>2022-08-01T12:15:50Z</time>
      </trkpt>
      <trkpt lat="44.92415" lon="3.95268">
        <ele>958.57</ele>
        <time>2022-08-01T12:16:06Z</time>
      </trkpt>
      <trkpt lat="44.92417" lon="3.95261">
        <ele>957.61</ele>
        <time>2022-08-01T12:16:18Z</time>
      </trkpt>
      <trkpt lat="44.92416" lon="3.95261">
        <ele>958.09</ele>
        <time>2022-08-01T12:16:45Z</time>
      </trkpt>
      <trkpt lat="44.92416" lon="3.95261">
        <ele>958.09</ele>
        <time>2022-08-01T12:17:14Z</time>
      </trkpt>
      <trkpt lat="44.92414" lon="3.9526">
        <ele>958.57</ele>
        <time>2022-08-01T12:17:38Z</time>
      </trkpt>
      <trkpt lat="44.92413" lon="3.95247">
        <ele>959.53</ele>
        <time>2022-08-01T12:17:57Z</time>
      </trkpt>
      <trkpt lat="44.92413" lon="3.95238">
        <ele>960.01</ele>
        <time>2022-08-01T12:18:02Z</time>
      </trkpt>
      <trkpt lat="44.92412" lon="3.95227">
        <ele>960.49</ele>
        <time>2022-08-01T12:18:14Z</time>
      </trkpt>
      <trkpt lat="44.92409" lon="3.95207">
        <ele>960.01</ele>
        <time>2022-08-01T12:18:30Z</time>
      </trkpt>
      <trkpt lat="44.92402" lon="3.95172">
        <ele>960.01</ele>
        <time>2022-08-01T12:18:48Z</time>
      </trkpt>
      <trkpt lat="44.92395" lon="3.95139">
        <ele>959.53</ele>
        <time>2022-08-01T12:19:06Z</time>
      </trkpt>
      <trkpt lat="44.9239" lon="3.95107">
        <ele>959.53</ele>
        <time>2022-08-01T12:19:23Z</time>
      </trkpt>
      <trkpt lat="44.92386" lon="3.95076">
        <ele>959.05</ele>
        <time>2022-08-01T12:19:39Z</time>
      </trkpt>
      <trkpt lat="44.92381" lon="3.95038">
        <ele>958.57</ele>
        <time>2022-08-01T12:19:58Z</time>
      </trkpt>
      <trkpt lat="44.92374" lon="3.95002">
        <ele>957.13</ele>
        <time>2022-08-01T12:20:17Z</time>
      </trkpt>
      <trkpt lat="44.92366" lon="3.94966">
        <ele>957.13</ele>
        <time>2022-08-01T12:20:36Z</time>
      </trkpt>
      <trkpt lat="44.92358" lon="3.94944">
        <ele>956.17</ele>
        <time>2022-08-01T12:20:52Z</time>
      </trkpt>
      <trkpt lat="44.92347" lon="3.94917">
        <ele>955.69</ele>
        <time>2022-08-01T12:21:09Z</time>
      </trkpt>
      <trkpt lat="44.92334" lon="3.94886">
        <ele>956.17</ele>
        <time>2022-08-01T12:21:27Z</time>
      </trkpt>
      <trkpt lat="44.92319" lon="3.9486">
        <ele>955.21</ele>
        <time>2022-08-01T12:21:44Z</time>
      </trkpt>
      <trkpt lat="44.92304" lon="3.94832">
        <ele>956.17</ele>
        <time>2022-08-01T12:22:03Z</time>
      </trkpt>
      <trkpt lat="44.92289" lon="3.9481">
        <ele>955.69</ele>
        <time>2022-08-01T12:22:19Z</time>
      </trkpt>
      <trkpt lat="44.92268" lon="3.94786">
        <ele>956.65</ele>
        <time>2022-08-01T12:22:39Z</time>
      </trkpt>
      <trkpt lat="44.92245" lon="3.94766">
        <ele>955.69</ele>
        <time>2022-08-01T12:22:58Z</time>
      </trkpt>
      <trkpt lat="44.92224" lon="3.94749">
        <ele>955.21</ele>
        <time>2022-08-01T12:23:15Z</time>
      </trkpt>
      <trkpt lat="44.92201" lon="3.94734">
        <ele>952.8</ele>
        <time>2022-08-01T12:23:32Z</time>
      </trkpt>
      <trkpt lat="44.92177" lon="3.94719">
        <ele>950.4</ele>
        <time>2022-08-01T12:23:50Z</time>
      </trkpt>
      <trkpt lat="44.92156" lon="3.94709">
        <ele>948.96</ele>
        <time>2022-08-01T12:24:06Z</time>
      </trkpt>
      <trkpt lat="44.92132" lon="3.94691">
        <ele>948.96</ele>
        <time>2022-08-01T12:24:26Z</time>
      </trkpt>
      <trkpt lat="44.92112" lon="3.94674">
        <ele>943.67</ele>
        <time>2022-08-01T12:24:44Z</time>
      </trkpt>
      <trkpt lat="44.92088" lon="3.94661">
        <ele>939.83</ele>
        <time>2022-08-01T12:25:03Z</time>
      </trkpt>
      <trkpt lat="44.92068" lon="3.94679">
        <ele>937.9</ele>
        <time>2022-08-01T12:25:20Z</time>
      </trkpt>
      <trkpt lat="44.92044" lon="3.94699">
        <ele>933.58</ele>
        <time>2022-08-01T12:25:39Z</time>
      </trkpt>
      <trkpt lat="44.92024" lon="3.94704">
        <ele>930.21</ele>
        <time>2022-08-01T12:25:55Z</time>
      </trkpt>
      <trkpt lat="44.92012" lon="3.94687">
        <ele>928.77</ele>
        <time>2022-08-01T12:26:10Z</time>
      </trkpt>
      <trkpt lat="44.92009" lon="3.9468">
        <ele>927.81</ele>
        <time>2022-08-01T12:26:15Z</time>
      </trkpt>
      <trkpt lat="44.92005" lon="3.94671">
        <ele>925.41</ele>
        <time>2022-08-01T12:26:20Z</time>
      </trkpt>
      <trkpt lat="44.92007" lon="3.94646">
        <ele>924.45</ele>
        <time>2022-08-01T12:26:32Z</time>
      </trkpt>
      <trkpt lat="44.92006" lon="3.9464">
        <ele>923.48</ele>
        <time>2022-08-01T12:26:36Z</time>
      </trkpt>
      <trkpt lat="44.92011" lon="3.9461">
        <ele>923.96</ele>
        <time>2022-08-01T12:26:53Z</time>
      </trkpt>
      <trkpt lat="44.92011" lon="3.94603">
        <ele>925.41</ele>
        <time>2022-08-01T12:26:57Z</time>
      </trkpt>
      <trkpt lat="44.92014" lon="3.9457">
        <ele>929.73</ele>
        <time>2022-08-01T12:27:15Z</time>
      </trkpt>
      <trkpt lat="44.92016" lon="3.94544">
        <ele>933.58</ele>
        <time>2022-08-01T12:27:31Z</time>
      </trkpt>
      <trkpt lat="44.92018" lon="3.94519">
        <ele>938.38</ele>
        <time>2022-08-01T12:27:47Z</time>
      </trkpt>
      <trkpt lat="44.92016" lon="3.94496">
        <ele>942.71</ele>
        <time>2022-08-01T12:28:03Z</time>
      </trkpt>
      <trkpt lat="44.92001" lon="3.94464">
        <ele>944.15</ele>
        <time>2022-08-01T12:28:22Z</time>
      </trkpt>
      <trkpt lat="44.91991" lon="3.94435">
        <ele>944.63</ele>
        <time>2022-08-01T12:28:38Z</time>
      </trkpt>
      <trkpt lat="44.91981" lon="3.944">
        <ele>944.15</ele>
        <time>2022-08-01T12:28:57Z</time>
      </trkpt>
      <trkpt lat="44.9197" lon="3.94367">
        <ele>944.63</ele>
        <time>2022-08-01T12:29:15Z</time>
      </trkpt>
      <trkpt lat="44.91957" lon="3.94339">
        <ele>943.19</ele>
        <time>2022-08-01T12:29:32Z</time>
      </trkpt>
      <trkpt lat="44.9194" lon="3.94314">
        <ele>941.75</ele>
        <time>2022-08-01T12:29:49Z</time>
      </trkpt>
      <trkpt lat="44.91922" lon="3.9429">
        <ele>943.19</ele>
        <time>2022-08-01T12:30:07Z</time>
      </trkpt>
      <trkpt lat="44.91905" lon="3.94268">
        <ele>945.11</ele>
        <time>2022-08-01T12:30:23Z</time>
      </trkpt>
      <trkpt lat="44.91895" lon="3.94253">
        <ele>948</ele>
        <time>2022-08-01T12:30:36Z</time>
      </trkpt>
      <trkpt lat="44.91893" lon="3.94247">
        <ele>948.48</ele>
        <time>2022-08-01T12:30:40Z</time>
      </trkpt>
      <trkpt lat="44.91886" lon="3.94246">
        <ele>948.96</ele>
        <time>2022-08-01T12:30:45Z</time>
      </trkpt>
      <trkpt lat="44.91872" lon="3.94241">
        <ele>946.56</ele>
        <time>2022-08-01T12:30:59Z</time>
      </trkpt>
      <trkpt lat="44.91863" lon="3.94219">
        <ele>945.11</ele>
        <time>2022-08-01T12:31:14Z</time>
      </trkpt>
      <trkpt lat="44.91862" lon="3.94202">
        <ele>943.19</ele>
        <time>2022-08-01T12:31:27Z</time>
      </trkpt>
      <trkpt lat="44.91854" lon="3.94172">
        <ele>940.79</ele>
        <time>2022-08-01T12:31:44Z</time>
      </trkpt>
      <trkpt lat="44.91856" lon="3.94147">
        <ele>942.23</ele>
        <time>2022-08-01T12:31:59Z</time>
      </trkpt>
      <trkpt lat="44.91856" lon="3.94136">
        <ele>943.67</ele>
        <time>2022-08-01T12:32:05Z</time>
      </trkpt>
      <trkpt lat="44.91852" lon="3.94111">
        <ele>948.48</ele>
        <time>2022-08-01T12:32:22Z</time>
      </trkpt>
      <trkpt lat="44.91836" lon="3.94099">
        <ele>947.04</ele>
        <time>2022-08-01T12:32:34Z</time>
      </trkpt>
      <trkpt lat="44.91824" lon="3.94087">
        <ele>947.52</ele>
        <time>2022-08-01T12:32:47Z</time>
      </trkpt>
      <trkpt lat="44.91838" lon="3.94064">
        <ele>949.44</ele>
        <time>2022-08-01T12:33:03Z</time>
      </trkpt>
      <trkpt lat="44.9185" lon="3.94034">
        <ele>946.56</ele>
        <time>2022-08-01T12:33:20Z</time>
      </trkpt>
      <trkpt lat="44.91863" lon="3.94004">
        <ele>944.15</ele>
        <time>2022-08-01T12:33:37Z</time>
      </trkpt>
      <trkpt lat="44.91856" lon="3.93975">
        <ele>945.59</ele>
        <time>2022-08-01T12:33:53Z</time>
      </trkpt>
      <trkpt lat="44.91829" lon="3.93959">
        <ele>946.07</ele>
        <time>2022-08-01T12:34:12Z</time>
      </trkpt>
      <trkpt lat="44.91805" lon="3.93958">
        <ele>946.56</ele>
        <time>2022-08-01T12:34:29Z</time>
      </trkpt>
      <trkpt lat="44.91784" lon="3.93948">
        <ele>947.04</ele>
        <time>2022-08-01T12:34:45Z</time>
      </trkpt>
      <trkpt lat="44.91778" lon="3.9394">
        <ele>946.56</ele>
        <time>2022-08-01T12:34:52Z</time>
      </trkpt>
      <trkpt lat="44.91773" lon="3.93928">
        <ele>947.04</ele>
        <time>2022-08-01T12:35:00Z</time>
      </trkpt>
      <trkpt lat="44.91758" lon="3.93901">
        <ele>947.04</ele>
        <time>2022-08-01T12:35:18Z</time>
      </trkpt>
      <trkpt lat="44.91741" lon="3.93874">
        <ele>947.52</ele>
        <time>2022-08-01T12:35:37Z</time>
      </trkpt>
      <trkpt lat="44.91722" lon="3.93854">
        <ele>947.04</ele>
        <time>2022-08-01T12:35:55Z</time>
      </trkpt>
      <trkpt lat="44.91699" lon="3.93859">
        <ele>946.56</ele>
        <time>2022-08-01T12:36:13Z</time>
      </trkpt>
      <trkpt lat="44.91674" lon="3.93864">
        <ele>947.52</ele>
        <time>2022-08-01T12:36:31Z</time>
      </trkpt>
      <trkpt lat="44.91652" lon="3.93867">
        <ele>948.48</ele>
        <time>2022-08-01T12:36:47Z</time>
      </trkpt>
      <trkpt lat="44.91625" lon="3.93869">
        <ele>949.44</ele>
        <time>2022-08-01T12:37:07Z</time>
      </trkpt>
      <trkpt lat="44.91602" lon="3.93874">
        <ele>949.92</ele>
        <time>2022-08-01T12:37:24Z</time>
      </trkpt>
      <trkpt lat="44.91581" lon="3.93879">
        <ele>950.4</ele>
        <time>2022-08-01T12:37:41Z</time>
      </trkpt>
      <trkpt lat="44.91558" lon="3.93877">
        <ele>951.84</ele>
        <time>2022-08-01T12:37:58Z</time>
      </trkpt>
      <trkpt lat="44.91535" lon="3.93871">
        <ele>954.25</ele>
        <time>2022-08-01T12:38:15Z</time>
      </trkpt>
      <trkpt lat="44.91515" lon="3.93865">
        <ele>955.21</ele>
        <time>2022-08-01T12:38:31Z</time>
      </trkpt>
      <trkpt lat="44.91493" lon="3.93859">
        <ele>955.69</ele>
        <time>2022-08-01T12:38:47Z</time>
      </trkpt>
      <trkpt lat="44.91471" lon="3.93852">
        <ele>953.77</ele>
        <time>2022-08-01T12:39:04Z</time>
      </trkpt>
      <trkpt lat="44.9145" lon="3.93841">
        <ele>952.32</ele>
        <time>2022-08-01T12:39:22Z</time>
      </trkpt>
      <trkpt lat="44.91429" lon="3.93827">
        <ele>951.84</ele>
        <time>2022-08-01T12:39:38Z</time>
      </trkpt>
      <trkpt lat="44.91408" lon="3.93814">
        <ele>953.28</ele>
        <time>2022-08-01T12:39:56Z</time>
      </trkpt>
      <trkpt lat="44.91389" lon="3.93804">
        <ele>954.73</ele>
        <time>2022-08-01T12:40:11Z</time>
      </trkpt>
      <trkpt lat="44.91366" lon="3.93796">
        <ele>958.09</ele>
        <time>2022-08-01T12:40:30Z</time>
      </trkpt>
      <trkpt lat="44.91343" lon="3.93792">
        <ele>958.09</ele>
        <time>2022-08-01T12:40:47Z</time>
      </trkpt>
      <trkpt lat="44.91321" lon="3.93785">
        <ele>959.05</ele>
        <time>2022-08-01T12:41:04Z</time>
      </trkpt>
      <trkpt lat="44.91302" lon="3.93773">
        <ele>959.53</ele>
        <time>2022-08-01T12:41:21Z</time>
      </trkpt>
      <trkpt lat="44.91298" lon="3.93769">
        <ele>960.01</ele>
        <time>2022-08-01T12:41:25Z</time>
      </trkpt>
      <trkpt lat="44.91285" lon="3.93762">
        <ele>961.46</ele>
        <time>2022-08-01T12:41:36Z</time>
      </trkpt>
      <trkpt lat="44.91265" lon="3.9376">
        <ele>963.38</ele>
        <time>2022-08-01T12:41:51Z</time>
      </trkpt>
      <trkpt lat="44.91243" lon="3.93758">
        <ele>965.3</ele>
        <time>2022-08-01T12:42:07Z</time>
      </trkpt>
      <trkpt lat="44.91223" lon="3.93757">
        <ele>967.7</ele>
        <time>2022-08-01T12:42:22Z</time>
      </trkpt>
      <trkpt lat="44.91204" lon="3.93758">
        <ele>968.67</ele>
        <time>2022-08-01T12:42:37Z</time>
      </trkpt>
      <trkpt lat="44.91184" lon="3.93755">
        <ele>970.11</ele>
        <time>2022-08-01T12:42:54Z</time>
      </trkpt>
      <trkpt lat="44.91166" lon="3.93748">
        <ele>972.51</ele>
        <time>2022-08-01T12:43:09Z</time>
      </trkpt>
      <trkpt lat="44.91149" lon="3.93735">
        <ele>972.99</ele>
        <time>2022-08-01T12:43:24Z</time>
      </trkpt>
      <trkpt lat="44.91131" lon="3.93717">
        <ele>974.91</ele>
        <time>2022-08-01T12:43:42Z</time>
      </trkpt>
      <trkpt lat="44.91117" lon="3.937">
        <ele>977.32</ele>
        <time>2022-08-01T12:43:58Z</time>
      </trkpt>
      <trkpt lat="44.911" lon="3.9369">
        <ele>977.8</ele>
        <time>2022-08-01T12:44:13Z</time>
      </trkpt>
      <trkpt lat="44.91082" lon="3.93683">
        <ele>978.76</ele>
        <time>2022-08-01T12:44:27Z</time>
      </trkpt>
      <trkpt lat="44.91061" lon="3.93677">
        <ele>979.72</ele>
        <time>2022-08-01T12:44:44Z</time>
      </trkpt>
      <trkpt lat="44.91043" lon="3.93669">
        <ele>981.16</ele>
        <time>2022-08-01T12:44:58Z</time>
      </trkpt>
      <trkpt lat="44.91027" lon="3.93658">
        <ele>985.01</ele>
        <time>2022-08-01T12:45:13Z</time>
      </trkpt>
      <trkpt lat="44.91008" lon="3.93643">
        <ele>985.49</ele>
        <time>2022-08-01T12:45:29Z</time>
      </trkpt>
      <trkpt lat="44.90993" lon="3.93634">
        <ele>987.89</ele>
        <time>2022-08-01T12:45:42Z</time>
      </trkpt>
      <trkpt lat="44.90979" lon="3.93625">
        <ele>991.74</ele>
        <time>2022-08-01T12:45:58Z</time>
      </trkpt>
      <trkpt lat="44.90964" lon="3.93615">
        <ele>994.14</ele>
        <time>2022-08-01T12:46:12Z</time>
      </trkpt>
      <trkpt lat="44.90944" lon="3.93606">
        <ele>994.62</ele>
        <time>2022-08-01T12:46:28Z</time>
      </trkpt>
      <trkpt lat="44.9093" lon="3.93602">
        <ele>994.14</ele>
        <time>2022-08-01T12:46:42Z</time>
      </trkpt>
      <trkpt lat="44.90927" lon="3.93601">
        <ele>994.62</ele>
        <time>2022-08-01T12:46:45Z</time>
      </trkpt>
      <trkpt lat="44.90905" lon="3.93593">
        <ele>996.06</ele>
        <time>2022-08-01T12:47:05Z</time>
      </trkpt>
      <trkpt lat="44.90887" lon="3.93596">
        <ele>997.51</ele>
        <time>2022-08-01T12:47:22Z</time>
      </trkpt>
      <trkpt lat="44.90867" lon="3.93596">
        <ele>999.43</ele>
        <time>2022-08-01T12:47:39Z</time>
      </trkpt>
      <trkpt lat="44.90847" lon="3.93587">
        <ele>1001.83</ele>
        <time>2022-08-01T12:47:55Z</time>
      </trkpt>
      <trkpt lat="44.90828" lon="3.93577">
        <ele>1002.79</ele>
        <time>2022-08-01T12:48:12Z</time>
      </trkpt>
      <trkpt lat="44.90806" lon="3.93564">
        <ele>1003.75</ele>
        <time>2022-08-01T12:48:30Z</time>
      </trkpt>
      <trkpt lat="44.908" lon="3.93563">
        <ele>1004.72</ele>
        <time>2022-08-01T12:48:36Z</time>
      </trkpt>
      <trkpt lat="44.9079" lon="3.93566">
        <ele>1006.64</ele>
        <time>2022-08-01T12:48:52Z</time>
      </trkpt>
      <trkpt lat="44.90791" lon="3.93564">
        <ele>1007.12</ele>
        <time>2022-08-01T12:49:07Z</time>
      </trkpt>
      <trkpt lat="44.90788" lon="3.93569">
        <ele>1003.75</ele>
        <time>2022-08-01T12:49:43Z</time>
      </trkpt>
      <trkpt lat="44.90789" lon="3.93574">
        <ele>999.43</ele>
        <time>2022-08-01T12:50:25Z</time>
      </trkpt>
      <trkpt lat="44.90787" lon="3.93568">
        <ele>1000.87</ele>
        <time>2022-08-01T12:50:52Z</time>
      </trkpt>
      <trkpt lat="44.90789" lon="3.93567">
        <ele>1001.83</ele>
        <time>2022-08-01T12:51:07Z</time>
      </trkpt>
      <trkpt lat="44.9079" lon="3.93569">
        <ele>1005.68</ele>
        <time>2022-08-01T12:51:32Z</time>
      </trkpt>
      <trkpt lat="44.90793" lon="3.9357">
        <ele>1010</ele>
        <time>2022-08-01T12:52:13Z</time>
      </trkpt>
      <trkpt lat="44.90791" lon="3.93572">
        <ele>1007.6</ele>
        <time>2022-08-01T12:52:52Z</time>
      </trkpt>
      <trkpt lat="44.90792" lon="3.93571">
        <ele>1007.12</ele>
        <time>2022-08-01T12:53:24Z</time>
      </trkpt>
      <trkpt lat="44.90795" lon="3.93569">
        <ele>1007.12</ele>
        <time>2022-08-01T12:54:07Z</time>
      </trkpt>
      <trkpt lat="44.90795" lon="3.93568">
        <ele>1007.12</ele>
        <time>2022-08-01T12:54:45Z</time>
      </trkpt>
      <trkpt lat="44.90791" lon="3.93566">
        <ele>1006.16</ele>
        <time>2022-08-01T12:55:09Z</time>
      </trkpt>
      <trkpt lat="44.90791" lon="3.93566">
        <ele>1005.2</ele>
        <time>2022-08-01T12:55:27Z</time>
      </trkpt>
      <trkpt lat="44.90794" lon="3.9357">
        <ele>1004.23</ele>
        <time>2022-08-01T12:55:54Z</time>
      </trkpt>
      <trkpt lat="44.90783" lon="3.93565">
        <ele>1006.16</ele>
        <time>2022-08-01T12:56:07Z</time>
      </trkpt>
      <trkpt lat="44.90766" lon="3.93565">
        <ele>1009.52</ele>
        <time>2022-08-01T12:56:24Z</time>
      </trkpt>
      <trkpt lat="44.90752" lon="3.93566">
        <ele>1010.96</ele>
        <time>2022-08-01T12:56:39Z</time>
      </trkpt>
      <trkpt lat="44.90744" lon="3.93566">
        <ele>1010.48</ele>
        <time>2022-08-01T12:56:52Z</time>
      </trkpt>
      <trkpt lat="44.90724" lon="3.93569">
        <ele>1012.41</ele>
        <time>2022-08-01T12:57:08Z</time>
      </trkpt>
      <trkpt lat="44.90719" lon="3.9357">
        <ele>1012.89</ele>
        <time>2022-08-01T12:57:12Z</time>
      </trkpt>
      <trkpt lat="44.90704" lon="3.93577">
        <ele>1014.33</ele>
        <time>2022-08-01T12:57:24Z</time>
      </trkpt>
      <trkpt lat="44.9069" lon="3.93584">
        <ele>1017.21</ele>
        <time>2022-08-01T12:57:36Z</time>
      </trkpt>
      <trkpt lat="44.90669" lon="3.93583">
        <ele>1016.73</ele>
        <time>2022-08-01T12:57:53Z</time>
      </trkpt>
      <trkpt lat="44.90647" lon="3.93579">
        <ele>1015.77</ele>
        <time>2022-08-01T12:58:10Z</time>
      </trkpt>
      <trkpt lat="44.90626" lon="3.93578">
        <ele>1015.77</ele>
        <time>2022-08-01T12:58:26Z</time>
      </trkpt>
      <trkpt lat="44.9061" lon="3.93575">
        <ele>1015.77</ele>
        <time>2022-08-01T12:58:39Z</time>
      </trkpt>
      <trkpt lat="44.90591" lon="3.93575">
        <ele>1015.77</ele>
        <time>2022-08-01T12:58:53Z</time>
      </trkpt>
      <trkpt lat="44.9058" lon="3.93561">
        <ele>1012.89</ele>
        <time>2022-08-01T12:59:07Z</time>
      </trkpt>
      <trkpt lat="44.90578" lon="3.93554">
        <ele>1010</ele>
        <time>2022-08-01T12:59:13Z</time>
      </trkpt>
      <trkpt lat="44.90572" lon="3.93526">
        <ele>1007.6</ele>
        <time>2022-08-01T12:59:29Z</time>
      </trkpt>
      <trkpt lat="44.90571" lon="3.93524">
        <ele>1007.6</ele>
        <time>2022-08-01T12:59:30Z</time>
      </trkpt>
      <trkpt lat="44.90563" lon="3.93519">
        <ele>1008.56</ele>
        <time>2022-08-01T12:59:37Z</time>
      </trkpt>
      <trkpt lat="44.90554" lon="3.93488">
        <ele>1006.16</ele>
        <time>2022-08-01T12:59:54Z</time>
      </trkpt>
      <trkpt lat="44.90556" lon="3.93465">
        <ele>1005.2</ele>
        <time>2022-08-01T13:00:08Z</time>
      </trkpt>
      <trkpt lat="44.90554" lon="3.93458">
        <ele>1005.2</ele>
        <time>2022-08-01T13:00:12Z</time>
      </trkpt>
      <trkpt lat="44.90547" lon="3.93453">
        <ele>1004.72</ele>
        <time>2022-08-01T13:00:18Z</time>
      </trkpt>
      <trkpt lat="44.90541" lon="3.9345">
        <ele>1004.72</ele>
        <time>2022-08-01T13:00:22Z</time>
      </trkpt>
      <trkpt lat="44.90534" lon="3.93451">
        <ele>1003.75</ele>
        <time>2022-08-01T13:00:28Z</time>
      </trkpt>
      <trkpt lat="44.90529" lon="3.93452">
        <ele>1002.31</ele>
        <time>2022-08-01T13:00:33Z</time>
      </trkpt>
      <trkpt lat="44.90525" lon="3.9345">
        <ele>1001.83</ele>
        <time>2022-08-01T13:00:38Z</time>
      </trkpt>
      <trkpt lat="44.90516" lon="3.93444">
        <ele>1001.83</ele>
        <time>2022-08-01T13:00:47Z</time>
      </trkpt>
      <trkpt lat="44.90503" lon="3.93425">
        <ele>1001.35</ele>
        <time>2022-08-01T13:01:01Z</time>
      </trkpt>
      <trkpt lat="44.90502" lon="3.9342">
        <ele>1001.83</ele>
        <time>2022-08-01T13:01:05Z</time>
      </trkpt>
      <trkpt lat="44.90483" lon="3.93404">
        <ele>997.99</ele>
        <time>2022-08-01T13:01:20Z</time>
      </trkpt>
      <trkpt lat="44.9048" lon="3.93398">
        <ele>996.54</ele>
        <time>2022-08-01T13:01:24Z</time>
      </trkpt>
      <trkpt lat="44.90469" lon="3.93366">
        <ele>994.14</ele>
        <time>2022-08-01T13:01:42Z</time>
      </trkpt>
      <trkpt lat="44.90464" lon="3.93352">
        <ele>992.22</ele>
        <time>2022-08-01T13:01:56Z</time>
      </trkpt>
      <trkpt lat="44.90463" lon="3.93348">
        <ele>992.22</ele>
        <time>2022-08-01T13:01:58Z</time>
      </trkpt>
      <trkpt lat="44.90461" lon="3.93341">
        <ele>992.22</ele>
        <time>2022-08-01T13:02:02Z</time>
      </trkpt>
      <trkpt lat="44.90447" lon="3.93325">
        <ele>991.74</ele>
        <time>2022-08-01T13:02:17Z</time>
      </trkpt>
      <trkpt lat="44.90429" lon="3.93311">
        <ele>994.14</ele>
        <time>2022-08-01T13:02:33Z</time>
      </trkpt>
      <trkpt lat="44.90411" lon="3.93301">
        <ele>995.58</ele>
        <time>2022-08-01T13:02:49Z</time>
      </trkpt>
      <trkpt lat="44.90392" lon="3.93292">
        <ele>997.51</ele>
        <time>2022-08-01T13:03:06Z</time>
      </trkpt>
      <trkpt lat="44.90381" lon="3.93279">
        <ele>999.43</ele>
        <time>2022-08-01T13:03:20Z</time>
      </trkpt>
      <trkpt lat="44.90368" lon="3.93259">
        <ele>1001.83</ele>
        <time>2022-08-01T13:03:35Z</time>
      </trkpt>
      <trkpt lat="44.90365" lon="3.93255">
        <ele>1002.79</ele>
        <time>2022-08-01T13:03:38Z</time>
      </trkpt>
      <trkpt lat="44.90355" lon="3.93231">
        <ele>1003.27</ele>
        <time>2022-08-01T13:03:54Z</time>
      </trkpt>
      <trkpt lat="44.90339" lon="3.93209">
        <ele>1004.23</ele>
        <time>2022-08-01T13:04:09Z</time>
      </trkpt>
      <trkpt lat="44.90317" lon="3.93188">
        <ele>1002.31</ele>
        <time>2022-08-01T13:04:26Z</time>
      </trkpt>
      <trkpt lat="44.90311" lon="3.93183">
        <ele>1002.31</ele>
        <time>2022-08-01T13:04:31Z</time>
      </trkpt>
      <trkpt lat="44.90293" lon="3.93167">
        <ele>1000.87</ele>
        <time>2022-08-01T13:04:46Z</time>
      </trkpt>
      <trkpt lat="44.90272" lon="3.93151">
        <ele>1000.39</ele>
        <time>2022-08-01T13:05:03Z</time>
      </trkpt>
      <trkpt lat="44.90257" lon="3.93141">
        <ele>999.91</ele>
        <time>2022-08-01T13:05:16Z</time>
      </trkpt>
      <trkpt lat="44.90236" lon="3.93144">
        <ele>1003.75</ele>
        <time>2022-08-01T13:05:34Z</time>
      </trkpt>
      <trkpt lat="44.90213" lon="3.93147">
        <ele>1005.68</ele>
        <time>2022-08-01T13:05:52Z</time>
      </trkpt>
      <trkpt lat="44.90193" lon="3.93144">
        <ele>1007.12</ele>
        <time>2022-08-01T13:06:08Z</time>
      </trkpt>
      <trkpt lat="44.90174" lon="3.93138">
        <ele>1007.6</ele>
        <time>2022-08-01T13:06:23Z</time>
      </trkpt>
      <trkpt lat="44.90152" lon="3.93129">
        <ele>1005.68</ele>
        <time>2022-08-01T13:06:40Z</time>
      </trkpt>
      <trkpt lat="44.90132" lon="3.9312">
        <ele>1002.31</ele>
        <time>2022-08-01T13:06:57Z</time>
      </trkpt>
      <trkpt lat="44.9011" lon="3.93106">
        <ele>1001.35</ele>
        <time>2022-08-01T13:07:15Z</time>
      </trkpt>
      <trkpt lat="44.90091" lon="3.93095">
        <ele>1002.31</ele>
        <time>2022-08-01T13:07:31Z</time>
      </trkpt>
      <trkpt lat="44.90069" lon="3.93088">
        <ele>1002.79</ele>
        <time>2022-08-01T13:07:48Z</time>
      </trkpt>
      <trkpt lat="44.90055" lon="3.93086">
        <ele>1003.75</ele>
        <time>2022-08-01T13:08:02Z</time>
      </trkpt>
      <trkpt lat="44.90041" lon="3.93086">
        <ele>1005.2</ele>
        <time>2022-08-01T13:08:14Z</time>
      </trkpt>
      <trkpt lat="44.90026" lon="3.93087">
        <ele>1006.64</ele>
        <time>2022-08-01T13:08:27Z</time>
      </trkpt>
      <trkpt lat="44.90021" lon="3.93088">
        <ele>1006.64</ele>
        <time>2022-08-01T13:08:32Z</time>
      </trkpt>
      <trkpt lat="44.90002" lon="3.93092">
        <ele>1008.08</ele>
        <time>2022-08-01T13:08:48Z</time>
      </trkpt>
      <trkpt lat="44.89992" lon="3.93095">
        <ele>1008.08</ele>
        <time>2022-08-01T13:08:56Z</time>
      </trkpt>
      <trkpt lat="44.89973" lon="3.93097">
        <ele>1008.56</ele>
        <time>2022-08-01T13:09:11Z</time>
      </trkpt>
      <trkpt lat="44.89958" lon="3.93102">
        <ele>1009.04</ele>
        <time>2022-08-01T13:09:23Z</time>
      </trkpt>
      <trkpt lat="44.89937" lon="3.93108">
        <ele>1009.52</ele>
        <time>2022-08-01T13:09:40Z</time>
      </trkpt>
      <trkpt lat="44.89915" lon="3.93115">
        <ele>1010</ele>
        <time>2022-08-01T13:09:57Z</time>
      </trkpt>
      <trkpt lat="44.89896" lon="3.93117">
        <ele>1009.04</ele>
        <time>2022-08-01T13:10:12Z</time>
      </trkpt>
      <trkpt lat="44.89877" lon="3.93113">
        <ele>1008.08</ele>
        <time>2022-08-01T13:10:27Z</time>
      </trkpt>
      <trkpt lat="44.89857" lon="3.93111">
        <ele>1007.12</ele>
        <time>2022-08-01T13:10:42Z</time>
      </trkpt>
      <trkpt lat="44.89835" lon="3.93111">
        <ele>1005.68</ele>
        <time>2022-08-01T13:10:59Z</time>
      </trkpt>
      <trkpt lat="44.89814" lon="3.93112">
        <ele>1004.23</ele>
        <time>2022-08-01T13:11:15Z</time>
      </trkpt>
      <trkpt lat="44.89793" lon="3.93112">
        <ele>1003.75</ele>
        <time>2022-08-01T13:11:31Z</time>
      </trkpt>
      <trkpt lat="44.89775" lon="3.93115">
        <ele>1002.31</ele>
        <time>2022-08-01T13:11:45Z</time>
      </trkpt>
      <trkpt lat="44.89754" lon="3.93121">
        <ele>1000.87</ele>
        <time>2022-08-01T13:12:02Z</time>
      </trkpt>
      <trkpt lat="44.89731" lon="3.93124">
        <ele>999.91</ele>
        <time>2022-08-01T13:12:19Z</time>
      </trkpt>
      <trkpt lat="44.8971" lon="3.93128">
        <ele>998.95</ele>
        <time>2022-08-01T13:12:35Z</time>
      </trkpt>
      <trkpt lat="44.8969" lon="3.93133">
        <ele>997.02</ele>
        <time>2022-08-01T13:12:51Z</time>
      </trkpt>
      <trkpt lat="44.89666" lon="3.93136">
        <ele>996.06</ele>
        <time>2022-08-01T13:13:09Z</time>
      </trkpt>
      <trkpt lat="44.89645" lon="3.93138">
        <ele>996.06</ele>
        <time>2022-08-01T13:13:24Z</time>
      </trkpt>
      <trkpt lat="44.89624" lon="3.93141">
        <ele>995.58</ele>
        <time>2022-08-01T13:13:40Z</time>
      </trkpt>
      <trkpt lat="44.89605" lon="3.93145">
        <ele>995.1</ele>
        <time>2022-08-01T13:13:55Z</time>
      </trkpt>
      <trkpt lat="44.89579" lon="3.93148">
        <ele>995.1</ele>
        <time>2022-08-01T13:14:14Z</time>
      </trkpt>
      <trkpt lat="44.89556" lon="3.93152">
        <ele>995.1</ele>
        <time>2022-08-01T13:14:31Z</time>
      </trkpt>
      <trkpt lat="44.89533" lon="3.9315">
        <ele>993.18</ele>
        <time>2022-08-01T13:14:48Z</time>
      </trkpt>
      <trkpt lat="44.89513" lon="3.93143">
        <ele>992.7</ele>
        <time>2022-08-01T13:15:03Z</time>
      </trkpt>
      <trkpt lat="44.89498" lon="3.9313">
        <ele>989.81</ele>
        <time>2022-08-01T13:15:18Z</time>
      </trkpt>
      <trkpt lat="44.89481" lon="3.93112">
        <ele>986.93</ele>
        <time>2022-08-01T13:15:34Z</time>
      </trkpt>
      <trkpt lat="44.89461" lon="3.93096">
        <ele>984.05</ele>
        <time>2022-08-01T13:15:51Z</time>
      </trkpt>
      <trkpt lat="44.89458" lon="3.93094">
        <ele>983.57</ele>
        <time>2022-08-01T13:15:54Z</time>
      </trkpt>
      <trkpt lat="44.89441" lon="3.93084">
        <ele>979.72</ele>
        <time>2022-08-01T13:16:09Z</time>
      </trkpt>
      <trkpt lat="44.89438" lon="3.93082">
        <ele>979.24</ele>
        <time>2022-08-01T13:16:11Z</time>
      </trkpt>
      <trkpt lat="44.89422" lon="3.9306">
        <ele>977.8</ele>
        <time>2022-08-01T13:16:27Z</time>
      </trkpt>
      <trkpt lat="44.89414" lon="3.9303">
        <ele>977.32</ele>
        <time>2022-08-01T13:16:43Z</time>
      </trkpt>
      <trkpt lat="44.89414" lon="3.93021">
        <ele>976.84</ele>
        <time>2022-08-01T13:16:47Z</time>
      </trkpt>
      <trkpt lat="44.89418" lon="3.93008">
        <ele>978.28</ele>
        <time>2022-08-01T13:16:54Z</time>
      </trkpt>
      <trkpt lat="44.89429" lon="3.92986">
        <ele>977.8</ele>
        <time>2022-08-01T13:17:09Z</time>
      </trkpt>
      <trkpt lat="44.89431" lon="3.92982">
        <ele>977.32</ele>
        <time>2022-08-01T13:17:12Z</time>
      </trkpt>
      <trkpt lat="44.89429" lon="3.92963">
        <ele>974.91</ele>
        <time>2022-08-01T13:17:23Z</time>
      </trkpt>
      <trkpt lat="44.89406" lon="3.92939">
        <ele>972.51</ele>
        <time>2022-08-01T13:17:42Z</time>
      </trkpt>
      <trkpt lat="44.8939" lon="3.92919">
        <ele>973.47</ele>
        <time>2022-08-01T13:17:57Z</time>
      </trkpt>
      <trkpt lat="44.89367" lon="3.92903">
        <ele>970.59</ele>
        <time>2022-08-01T13:18:13Z</time>
      </trkpt>
      <trkpt lat="44.8936" lon="3.929">
        <ele>969.63</ele>
        <time>2022-08-01T13:18:18Z</time>
      </trkpt>
      <trkpt lat="44.89359" lon="3.92891">
        <ele>967.7</ele>
        <time>2022-08-01T13:18:25Z</time>
      </trkpt>
      <trkpt lat="44.89355" lon="3.92868">
        <ele>963.86</ele>
        <time>2022-08-01T13:18:41Z</time>
      </trkpt>
      <trkpt lat="44.89352" lon="3.92853">
        <ele>960.98</ele>
        <time>2022-08-01T13:18:50Z</time>
      </trkpt>
      <trkpt lat="44.89349" lon="3.92826">
        <ele>959.05</ele>
        <time>2022-08-01T13:19:07Z</time>
      </trkpt>
      <trkpt lat="44.89348" lon="3.92813">
        <ele>959.05</ele>
        <time>2022-08-01T13:19:21Z</time>
      </trkpt>
      <trkpt lat="44.89347" lon="3.92789">
        <ele>958.09</ele>
        <time>2022-08-01T13:19:34Z</time>
      </trkpt>
      <trkpt lat="44.89353" lon="3.92768">
        <ele>955.69</ele>
        <time>2022-08-01T13:19:48Z</time>
      </trkpt>
      <trkpt lat="44.89361" lon="3.92745">
        <ele>951.84</ele>
        <time>2022-08-01T13:20:05Z</time>
      </trkpt>
      <trkpt lat="44.89366" lon="3.92735">
        <ele>949.44</ele>
        <time>2022-08-01T13:20:14Z</time>
      </trkpt>
      <trkpt lat="44.89367" lon="3.92733">
        <ele>947.04</ele>
        <time>2022-08-01T13:20:31Z</time>
      </trkpt>
      <trkpt lat="44.89364" lon="3.92732">
        <ele>944.63</ele>
        <time>2022-08-01T13:20:54Z</time>
      </trkpt>
      <trkpt lat="44.89365" lon="3.9272">
        <ele>946.07</ele>
        <time>2022-08-01T13:21:10Z</time>
      </trkpt>
      <trkpt lat="44.89365" lon="3.92699">
        <ele>944.63</ele>
        <time>2022-08-01T13:21:27Z</time>
      </trkpt>
      <trkpt lat="44.89362" lon="3.92685">
        <ele>940.79</ele>
        <time>2022-08-01T13:21:39Z</time>
      </trkpt>
      <trkpt lat="44.8936" lon="3.92668">
        <ele>942.23</ele>
        <time>2022-08-01T13:21:53Z</time>
      </trkpt>
      <trkpt lat="44.89359" lon="3.92658">
        <ele>944.15</ele>
        <time>2022-08-01T13:22:16Z</time>
      </trkpt>
      <trkpt lat="44.89358" lon="3.92653">
        <ele>943.19</ele>
        <time>2022-08-01T13:22:31Z</time>
      </trkpt>
      <trkpt lat="44.89351" lon="3.9264">
        <ele>938.86</ele>
        <time>2022-08-01T13:22:46Z</time>
      </trkpt>
      <trkpt lat="44.89351" lon="3.92627">
        <ele>935.02</ele>
        <time>2022-08-01T13:23:00Z</time>
      </trkpt>
      <trkpt lat="44.89349" lon="3.92622">
        <ele>933.58</ele>
        <time>2022-08-01T13:23:06Z</time>
      </trkpt>
      <trkpt lat="44.89349" lon="3.9261">
        <ele>930.69</ele>
        <time>2022-08-01T13:23:16Z</time>
      </trkpt>
      <trkpt lat="44.89357" lon="3.92591">
        <ele>925.89</ele>
        <time>2022-08-01T13:23:34Z</time>
      </trkpt>
      <trkpt lat="44.89354" lon="3.92581">
        <ele>921.56</ele>
        <time>2022-08-01T13:23:46Z</time>
      </trkpt>
      <trkpt lat="44.89354" lon="3.92578">
        <ele>920.6</ele>
        <time>2022-08-01T13:23:48Z</time>
      </trkpt>
      <trkpt lat="44.8935" lon="3.92568">
        <ele>917.72</ele>
        <time>2022-08-01T13:23:56Z</time>
      </trkpt>
      <trkpt lat="44.89344" lon="3.92553">
        <ele>913.87</ele>
        <time>2022-08-01T13:24:10Z</time>
      </trkpt>
      <trkpt lat="44.89337" lon="3.92534">
        <ele>910.99</ele>
        <time>2022-08-01T13:24:23Z</time>
      </trkpt>
      <trkpt lat="44.89331" lon="3.92509">
        <ele>910.03</ele>
        <time>2022-08-01T13:24:36Z</time>
      </trkpt>
      <trkpt lat="44.89338" lon="3.92482">
        <ele>904.74</ele>
        <time>2022-08-01T13:24:55Z</time>
      </trkpt>
      <trkpt lat="44.89339" lon="3.92481">
        <ele>904.74</ele>
        <time>2022-08-01T13:24:56Z</time>
      </trkpt>
      <trkpt lat="44.89339" lon="3.92478">
        <ele>904.26</ele>
        <time>2022-08-01T13:24:58Z</time>
      </trkpt>
      <trkpt lat="44.8934" lon="3.92467">
        <ele>902.33</ele>
        <time>2022-08-01T13:25:06Z</time>
      </trkpt>
      <trkpt lat="44.89343" lon="3.92448">
        <ele>898.01</ele>
        <time>2022-08-01T13:25:21Z</time>
      </trkpt>
      <trkpt lat="44.89347" lon="3.92436">
        <ele>895.61</ele>
        <time>2022-08-01T13:25:40Z</time>
      </trkpt>
      <trkpt lat="44.89347" lon="3.92436">
        <ele>896.57</ele>
        <time>2022-08-01T13:25:59Z</time>
      </trkpt>
      <trkpt lat="44.89345" lon="3.92439">
        <ele>897.05</ele>
        <time>2022-08-01T13:26:30Z</time>
      </trkpt>
      <trkpt lat="44.89347" lon="3.92433">
        <ele>897.53</ele>
        <time>2022-08-01T13:26:56Z</time>
      </trkpt>
      <trkpt lat="44.8935" lon="3.92415">
        <ele>896.09</ele>
        <time>2022-08-01T13:27:08Z</time>
      </trkpt>
      <trkpt lat="44.89351" lon="3.92409">
        <ele>896.57</ele>
        <time>2022-08-01T13:27:11Z</time>
      </trkpt>
      <trkpt lat="44.89347" lon="3.92398">
        <ele>892.24</ele>
        <time>2022-08-01T13:27:26Z</time>
      </trkpt>
      <trkpt lat="44.8935" lon="3.92384">
        <ele>888.4</ele>
        <time>2022-08-01T13:27:42Z</time>
      </trkpt>
      <trkpt lat="44.89352" lon="3.92371">
        <ele>886.47</ele>
        <time>2022-08-01T13:27:53Z</time>
      </trkpt>
      <trkpt lat="44.89353" lon="3.92351">
        <ele>881.19</ele>
        <time>2022-08-01T13:28:09Z</time>
      </trkpt>
      <trkpt lat="44.89355" lon="3.92333">
        <ele>875.9</ele>
        <time>2022-08-01T13:28:23Z</time>
      </trkpt>
      <trkpt lat="44.89356" lon="3.92329">
        <ele>874.46</ele>
        <time>2022-08-01T13:28:26Z</time>
      </trkpt>
      <trkpt lat="44.89349" lon="3.92314">
        <ele>869.65</ele>
        <time>2022-08-01T13:28:41Z</time>
      </trkpt>
      <trkpt lat="44.89346" lon="3.92311">
        <ele>869.65</ele>
        <time>2022-08-01T13:28:55Z</time>
      </trkpt>
      <trkpt lat="44.89347" lon="3.92311">
        <ele>868.69</ele>
        <time>2022-08-01T13:29:23Z</time>
      </trkpt>
      <trkpt lat="44.89346" lon="3.92313">
        <ele>867.73</ele>
        <time>2022-08-01T13:29:44Z</time>
      </trkpt>
      <trkpt lat="44.89348" lon="3.92313">
        <ele>867.25</ele>
        <time>2022-08-01T13:30:09Z</time>
      </trkpt>
      <trkpt lat="44.8935" lon="3.9231">
        <ele>867.25</ele>
        <time>2022-08-01T13:30:13Z</time>
      </trkpt>
      <trkpt lat="44.89361" lon="3.92309">
        <ele>864.36</ele>
        <time>2022-08-01T13:30:25Z</time>
      </trkpt>
      <trkpt lat="44.89366" lon="3.9231">
        <ele>862.92</ele>
        <time>2022-08-01T13:30:30Z</time>
      </trkpt>
      <trkpt lat="44.89368" lon="3.92309">
        <ele>862.44</ele>
        <time>2022-08-01T13:30:32Z</time>
      </trkpt>
      <trkpt lat="44.89365" lon="3.92297">
        <ele>860.52</ele>
        <time>2022-08-01T13:30:41Z</time>
      </trkpt>
      <trkpt lat="44.89359" lon="3.92292">
        <ele>859.56</ele>
        <time>2022-08-01T13:30:47Z</time>
      </trkpt>
      <trkpt lat="44.89348" lon="3.92276">
        <ele>857.63</ele>
        <time>2022-08-01T13:31:00Z</time>
      </trkpt>
      <trkpt lat="44.89331" lon="3.92272">
        <ele>853.31</ele>
        <time>2022-08-01T13:31:14Z</time>
      </trkpt>
      <trkpt lat="44.89331" lon="3.92264">
        <ele>851.87</ele>
        <time>2022-08-01T13:31:21Z</time>
      </trkpt>
      <trkpt lat="44.89338" lon="3.92261">
        <ele>849.94</ele>
        <time>2022-08-01T13:31:27Z</time>
      </trkpt>
      <trkpt lat="44.89334" lon="3.92243">
        <ele>848.02</ele>
        <time>2022-08-01T13:31:41Z</time>
      </trkpt>
      <trkpt lat="44.89329" lon="3.92243">
        <ele>847.06</ele>
        <time>2022-08-01T13:31:45Z</time>
      </trkpt>
      <trkpt lat="44.89325" lon="3.92243">
        <ele>846.58</ele>
        <time>2022-08-01T13:31:50Z</time>
      </trkpt>
      <trkpt lat="44.8931" lon="3.9225">
        <ele>843.69</ele>
        <time>2022-08-01T13:32:04Z</time>
      </trkpt>
      <trkpt lat="44.89304" lon="3.92255">
        <ele>842.25</ele>
        <time>2022-08-01T13:32:10Z</time>
      </trkpt>
      <trkpt lat="44.89303" lon="3.92257">
        <ele>841.29</ele>
        <time>2022-08-01T13:32:12Z</time>
      </trkpt>
      <trkpt lat="44.8929" lon="3.92273">
        <ele>838.89</ele>
        <time>2022-08-01T13:32:27Z</time>
      </trkpt>
      <trkpt lat="44.89278" lon="3.92284">
        <ele>836.48</ele>
        <time>2022-08-01T13:32:40Z</time>
      </trkpt>
      <trkpt lat="44.8927" lon="3.92291">
        <ele>835.04</ele>
        <time>2022-08-01T13:32:48Z</time>
      </trkpt>
      <trkpt lat="44.89267" lon="3.92297">
        <ele>834.08</ele>
        <time>2022-08-01T13:32:52Z</time>
      </trkpt>
      <trkpt lat="44.89257" lon="3.92309">
        <ele>832.64</ele>
        <time>2022-08-01T13:33:04Z</time>
      </trkpt>
      <trkpt lat="44.89255" lon="3.92314">
        <ele>832.16</ele>
        <time>2022-08-01T13:33:07Z</time>
      </trkpt>
      <trkpt lat="44.89242" lon="3.92323">
        <ele>831.2</ele>
        <time>2022-08-01T13:33:19Z</time>
      </trkpt>
      <trkpt lat="44.89226" lon="3.92341">
        <ele>827.83</ele>
        <time>2022-08-01T13:33:34Z</time>
      </trkpt>
      <trkpt lat="44.89219" lon="3.92347">
        <ele>826.39</ele>
        <time>2022-08-01T13:33:41Z</time>
      </trkpt>
      <trkpt lat="44.89216" lon="3.9235">
        <ele>825.91</ele>
        <time>2022-08-01T13:33:44Z</time>
      </trkpt>
      <trkpt lat="44.89208" lon="3.92364">
        <ele>823.03</ele>
        <time>2022-08-01T13:33:55Z</time>
      </trkpt>
      <trkpt lat="44.89204" lon="3.92367">
        <ele>822.55</ele>
        <time>2022-08-01T13:33:58Z</time>
      </trkpt>
      <trkpt lat="44.89199" lon="3.92373">
        <ele>821.1</ele>
        <time>2022-08-01T13:34:04Z</time>
      </trkpt>
      <trkpt lat="44.89196" lon="3.92379">
        <ele>820.14</ele>
        <time>2022-08-01T13:34:08Z</time>
      </trkpt>
      <trkpt lat="44.89194" lon="3.92382">
        <ele>819.18</ele>
        <time>2022-08-01T13:34:10Z</time>
      </trkpt>
      <trkpt lat="44.89191" lon="3.92385">
        <ele>818.22</ele>
        <time>2022-08-01T13:34:13Z</time>
      </trkpt>
      <trkpt lat="44.89184" lon="3.92389">
        <ele>816.78</ele>
        <time>2022-08-01T13:34:28Z</time>
      </trkpt>
      <trkpt lat="44.89183" lon="3.92388">
        <ele>817.74</ele>
        <time>2022-08-01T13:34:38Z</time>
      </trkpt>
      <trkpt lat="44.8918" lon="3.92398">
        <ele>817.26</ele>
        <time>2022-08-01T13:34:44Z</time>
      </trkpt>
      <trkpt lat="44.89165" lon="3.92423">
        <ele>814.37</ele>
        <time>2022-08-01T13:35:01Z</time>
      </trkpt>
      <trkpt lat="44.89162" lon="3.92427">
        <ele>813.89</ele>
        <time>2022-08-01T13:35:04Z</time>
      </trkpt>
      <trkpt lat="44.89151" lon="3.92443">
        <ele>811.49</ele>
        <time>2022-08-01T13:35:16Z</time>
      </trkpt>
      <trkpt lat="44.8915" lon="3.92446">
        <ele>811.01</ele>
        <time>2022-08-01T13:35:18Z</time>
      </trkpt>
      <trkpt lat="44.89146" lon="3.92451">
        <ele>810.53</ele>
        <time>2022-08-01T13:35:22Z</time>
      </trkpt>
      <trkpt lat="44.89145" lon="3.92453">
        <ele>809.57</ele>
        <time>2022-08-01T13:35:24Z</time>
      </trkpt>
      <trkpt lat="44.89138" lon="3.92463">
        <ele>808.61</ele>
        <time>2022-08-01T13:35:31Z</time>
      </trkpt>
      <trkpt lat="44.89133" lon="3.9247">
        <ele>807.16</ele>
        <time>2022-08-01T13:35:37Z</time>
      </trkpt>
      <trkpt lat="44.89121" lon="3.92491">
        <ele>803.32</ele>
        <time>2022-08-01T13:35:52Z</time>
      </trkpt>
      <trkpt lat="44.89113" lon="3.92503">
        <ele>801.4</ele>
        <time>2022-08-01T13:36:01Z</time>
      </trkpt>
      <trkpt lat="44.89104" lon="3.92505">
        <ele>802.84</ele>
        <time>2022-08-01T13:36:08Z</time>
      </trkpt>
      <trkpt lat="44.89087" lon="3.92488">
        <ele>804.28</ele>
        <time>2022-08-01T13:36:22Z</time>
      </trkpt>
      <trkpt lat="44.89075" lon="3.92472">
        <ele>799.95</ele>
        <time>2022-08-01T13:36:37Z</time>
      </trkpt>
      <trkpt lat="44.89075" lon="3.92472">
        <ele>799.47</ele>
        <time>2022-08-01T13:36:39Z</time>
      </trkpt>
      <trkpt lat="44.89052" lon="3.92467">
        <ele>793.22</ele>
        <time>2022-08-01T13:36:58Z</time>
      </trkpt>
      <trkpt lat="44.89035" lon="3.92459">
        <ele>787.46</ele>
        <time>2022-08-01T13:37:13Z</time>
      </trkpt>
      <trkpt lat="44.89014" lon="3.92451">
        <ele>783.13</ele>
        <time>2022-08-01T13:37:30Z</time>
      </trkpt>
      <trkpt lat="44.89011" lon="3.92447">
        <ele>782.17</ele>
        <time>2022-08-01T13:37:33Z</time>
      </trkpt>
      <trkpt lat="44.89005" lon="3.92447">
        <ele>780.73</ele>
        <time>2022-08-01T13:37:38Z</time>
      </trkpt>
      <trkpt lat="44.89" lon="3.92447">
        <ele>778.81</ele>
        <time>2022-08-01T13:37:47Z</time>
      </trkpt>
      <trkpt lat="44.88986" lon="3.92467">
        <ele>777.36</ele>
        <time>2022-08-01T13:38:03Z</time>
      </trkpt>
      <trkpt lat="44.88966" lon="3.9247">
        <ele>776.4</ele>
        <time>2022-08-01T13:38:19Z</time>
      </trkpt>
      <trkpt lat="44.88946" lon="3.92464">
        <ele>775.92</ele>
        <time>2022-08-01T13:38:34Z</time>
      </trkpt>
      <trkpt lat="44.8893" lon="3.9246">
        <ele>772.56</ele>
        <time>2022-08-01T13:38:47Z</time>
      </trkpt>
      <trkpt lat="44.88918" lon="3.92453">
        <ele>769.67</ele>
        <time>2022-08-01T13:38:59Z</time>
      </trkpt>
      <trkpt lat="44.88919" lon="3.92431">
        <ele>768.71</ele>
        <time>2022-08-01T13:39:12Z</time>
      </trkpt>
      <trkpt lat="44.8892" lon="3.92427">
        <ele>768.71</ele>
        <time>2022-08-01T13:39:14Z</time>
      </trkpt>
      <trkpt lat="44.88926" lon="3.92401">
        <ele>771.6</ele>
        <time>2022-08-01T13:39:29Z</time>
      </trkpt>
      <trkpt lat="44.88927" lon="3.92385">
        <ele>772.08</ele>
        <time>2022-08-01T13:39:39Z</time>
      </trkpt>
      <trkpt lat="44.88925" lon="3.92356">
        <ele>773.04</ele>
        <time>2022-08-01T13:39:56Z</time>
      </trkpt>
      <trkpt lat="44.88925" lon="3.92349">
        <ele>773.04</ele>
        <time>2022-08-01T13:40:00Z</time>
      </trkpt>
      <trkpt lat="44.88933" lon="3.92325">
        <ele>773.52</ele>
        <time>2022-08-01T13:40:16Z</time>
      </trkpt>
      <trkpt lat="44.88934" lon="3.92323">
        <ele>773.52</ele>
        <time>2022-08-01T13:40:18Z</time>
      </trkpt>
      <trkpt lat="44.88935" lon="3.92307">
        <ele>774</ele>
        <time>2022-08-01T13:40:26Z</time>
      </trkpt>
      <trkpt lat="44.8892" lon="3.92286">
        <ele>772.56</ele>
        <time>2022-08-01T13:40:42Z</time>
      </trkpt>
      <trkpt lat="44.88907" lon="3.92266">
        <ele>775.44</ele>
        <time>2022-08-01T13:40:57Z</time>
      </trkpt>
      <trkpt lat="44.88897" lon="3.92245">
        <ele>778.81</ele>
        <time>2022-08-01T13:41:12Z</time>
      </trkpt>
      <trkpt lat="44.88899" lon="3.92235">
        <ele>780.73</ele>
        <time>2022-08-01T13:41:24Z</time>
      </trkpt>
      <trkpt lat="44.88904" lon="3.92225">
        <ele>778.81</ele>
        <time>2022-08-01T13:41:38Z</time>
      </trkpt>
      <trkpt lat="44.88905" lon="3.92224">
        <ele>778.32</ele>
        <time>2022-08-01T13:41:46Z</time>
      </trkpt>
      <trkpt lat="44.88922" lon="3.92211">
        <ele>777.36</ele>
        <time>2022-08-01T13:42:03Z</time>
      </trkpt>
      <trkpt lat="44.88935" lon="3.92199">
        <ele>776.88</ele>
        <time>2022-08-01T13:42:17Z</time>
      </trkpt>
      <trkpt lat="44.88937" lon="3.922">
        <ele>777.36</ele>
        <time>2022-08-01T13:42:19Z</time>
      </trkpt>
      <trkpt lat="44.88942" lon="3.92205">
        <ele>777.36</ele>
        <time>2022-08-01T13:42:25Z</time>
      </trkpt>
      <trkpt lat="44.88944" lon="3.92214">
        <ele>778.32</ele>
        <time>2022-08-01T13:42:32Z</time>
      </trkpt>
      <trkpt lat="44.88947" lon="3.92218">
        <ele>778.32</ele>
        <time>2022-08-01T13:42:36Z</time>
      </trkpt>
      <trkpt lat="44.88956" lon="3.92222">
        <ele>778.32</ele>
        <time>2022-08-01T13:42:45Z</time>
      </trkpt>
      <trkpt lat="44.88962" lon="3.9222">
        <ele>777.84</ele>
        <time>2022-08-01T13:42:49Z</time>
      </trkpt>
      <trkpt lat="44.88969" lon="3.92214">
        <ele>777.36</ele>
        <time>2022-08-01T13:42:55Z</time>
      </trkpt>
      <trkpt lat="44.88996" lon="3.92217">
        <ele>774</ele>
        <time>2022-08-01T13:43:15Z</time>
      </trkpt>
      <trkpt lat="44.89013" lon="3.92211">
        <ele>772.08</ele>
        <time>2022-08-01T13:43:30Z</time>
      </trkpt>
      <trkpt lat="44.89033" lon="3.92199">
        <ele>769.67</ele>
        <time>2022-08-01T13:43:47Z</time>
      </trkpt>
      <trkpt lat="44.89041" lon="3.92199">
        <ele>769.19</ele>
        <time>2022-08-01T13:44:01Z</time>
      </trkpt>
      <trkpt lat="44.89041" lon="3.92199">
        <ele>769.67</ele>
        <time>2022-08-01T13:44:11Z</time>
      </trkpt>
      <trkpt lat="44.8906" lon="3.92183">
        <ele>767.75</ele>
        <time>2022-08-01T13:44:28Z</time>
      </trkpt>
      <trkpt lat="44.89074" lon="3.92166">
        <ele>766.31</ele>
        <time>2022-08-01T13:44:42Z</time>
      </trkpt>
      <trkpt lat="44.89091" lon="3.92146">
        <ele>766.31</ele>
        <time>2022-08-01T13:44:59Z</time>
      </trkpt>
      <trkpt lat="44.89103" lon="3.92127">
        <ele>766.31</ele>
        <time>2022-08-01T13:45:12Z</time>
      </trkpt>
      <trkpt lat="44.89107" lon="3.9212">
        <ele>765.83</ele>
        <time>2022-08-01T13:45:17Z</time>
      </trkpt>
      <trkpt lat="44.89107" lon="3.9211">
        <ele>766.31</ele>
        <time>2022-08-01T13:45:30Z</time>
      </trkpt>
      <trkpt lat="44.89106" lon="3.92112">
        <ele>764.39</ele>
        <time>2022-08-01T13:45:50Z</time>
      </trkpt>
      <trkpt lat="44.89111" lon="3.92106">
        <ele>767.75</ele>
        <time>2022-08-01T13:45:59Z</time>
      </trkpt>
      <trkpt lat="44.8911" lon="3.92094">
        <ele>767.75</ele>
        <time>2022-08-01T13:46:08Z</time>
      </trkpt>
      <trkpt lat="44.89109" lon="3.92091">
        <ele>767.75</ele>
        <time>2022-08-01T13:46:10Z</time>
      </trkpt>
      <trkpt lat="44.89107" lon="3.92073">
        <ele>768.71</ele>
        <time>2022-08-01T13:46:27Z</time>
      </trkpt>
      <trkpt lat="44.89107" lon="3.92072">
        <ele>768.71</ele>
        <time>2022-08-01T13:46:44Z</time>
      </trkpt>
      <trkpt lat="44.89105" lon="3.92071">
        <ele>769.19</ele>
        <time>2022-08-01T13:47:07Z</time>
      </trkpt>
      <trkpt lat="44.89109" lon="3.92073">
        <ele>765.83</ele>
        <time>2022-08-01T13:47:30Z</time>
      </trkpt>
      <trkpt lat="44.89107" lon="3.92075">
        <ele>765.35</ele>
        <time>2022-08-01T13:48:02Z</time>
      </trkpt>
      <trkpt lat="44.89107" lon="3.92076">
        <ele>767.27</ele>
        <time>2022-08-01T13:48:31Z</time>
      </trkpt>
      <trkpt lat="44.8911" lon="3.92074">
        <ele>770.15</ele>
        <time>2022-08-01T13:49:05Z</time>
      </trkpt>
      <trkpt lat="44.89109" lon="3.92074">
        <ele>771.11</ele>
        <time>2022-08-01T13:49:42Z</time>
      </trkpt>
      <trkpt lat="44.8911" lon="3.92076">
        <ele>774.96</ele>
        <time>2022-08-01T13:50:14Z</time>
      </trkpt>
      <trkpt lat="44.89108" lon="3.92081">
        <ele>777.36</ele>
        <time>2022-08-01T13:50:40Z</time>
      </trkpt>
      <trkpt lat="44.89107" lon="3.92074">
        <ele>775.44</ele>
        <time>2022-08-01T13:51:14Z</time>
      </trkpt>
      <trkpt lat="44.89106" lon="3.92073">
        <ele>774.48</ele>
        <time>2022-08-01T13:51:51Z</time>
      </trkpt>
      <trkpt lat="44.89107" lon="3.92072">
        <ele>775.92</ele>
        <time>2022-08-01T13:52:17Z</time>
      </trkpt>
      <trkpt lat="44.89107" lon="3.92078">
        <ele>774.48</ele>
        <time>2022-08-01T13:52:53Z</time>
      </trkpt>
      <trkpt lat="44.89108" lon="3.92072">
        <ele>771.6</ele>
        <time>2022-08-01T13:53:28Z</time>
      </trkpt>
      <trkpt lat="44.89109" lon="3.92075">
        <ele>769.67</ele>
        <time>2022-08-01T13:54:12Z</time>
      </trkpt>
      <trkpt lat="44.89107" lon="3.92073">
        <ele>770.63</ele>
        <time>2022-08-01T13:54:49Z</time>
      </trkpt>
      <trkpt lat="44.89107" lon="3.92076">
        <ele>768.71</ele>
        <time>2022-08-01T13:55:11Z</time>
      </trkpt>
      <trkpt lat="44.89109" lon="3.92073">
        <ele>767.75</ele>
        <time>2022-08-01T13:55:36Z</time>
      </trkpt>
      <trkpt lat="44.89105" lon="3.92072">
        <ele>770.63</ele>
        <time>2022-08-01T13:56:37Z</time>
      </trkpt>
      <trkpt lat="44.89107" lon="3.92073">
        <ele>769.19</ele>
        <time>2022-08-01T13:57:08Z</time>
      </trkpt>
      <trkpt lat="44.89108" lon="3.92076">
        <ele>771.11</ele>
        <time>2022-08-01T13:57:53Z</time>
      </trkpt>
      <trkpt lat="44.89108" lon="3.92072">
        <ele>773.04</ele>
        <time>2022-08-01T13:58:22Z</time>
      </trkpt>
      <trkpt lat="44.89107" lon="3.92073">
        <ele>773.52</ele>
        <time>2022-08-01T13:58:50Z</time>
      </trkpt>
      <trkpt lat="44.89106" lon="3.92072">
        <ele>771.6</ele>
        <time>2022-08-01T13:59:20Z</time>
      </trkpt>
      <trkpt lat="44.89106" lon="3.92073">
        <ele>771.11</ele>
        <time>2022-08-01T13:59:49Z</time>
      </trkpt>
      <trkpt lat="44.89106" lon="3.92069">
        <ele>770.15</ele>
        <time>2022-08-01T14:00:21Z</time>
      </trkpt>
      <trkpt lat="44.89107" lon="3.92071">
        <ele>767.27</ele>
        <time>2022-08-01T14:01:01Z</time>
      </trkpt>
      <trkpt lat="44.89107" lon="3.92069">
        <ele>769.19</ele>
        <time>2022-08-01T14:01:37Z</time>
      </trkpt>
      <trkpt lat="44.89108" lon="3.9207">
        <ele>768.71</ele>
        <time>2022-08-01T14:02:09Z</time>
      </trkpt>
      <trkpt lat="44.89108" lon="3.92071">
        <ele>768.71</ele>
        <time>2022-08-01T14:02:30Z</time>
      </trkpt>
      <trkpt lat="44.89109" lon="3.9207">
        <ele>768.23</ele>
        <time>2022-08-01T14:02:57Z</time>
      </trkpt>
      <trkpt lat="44.89106" lon="3.92073">
        <ele>772.56</ele>
        <time>2022-08-01T14:03:27Z</time>
      </trkpt>
      <trkpt lat="44.89107" lon="3.92071">
        <ele>770.63</ele>
        <time>2022-08-01T14:03:56Z</time>
      </trkpt>
      <trkpt lat="44.89108" lon="3.92076">
        <ele>770.63</ele>
        <time>2022-08-01T14:04:27Z</time>
      </trkpt>
      <trkpt lat="44.89107" lon="3.92075">
        <ele>770.15</ele>
        <time>2022-08-01T14:04:58Z</time>
      </trkpt>
      <trkpt lat="44.89109" lon="3.92078">
        <ele>773.04</ele>
        <time>2022-08-01T14:05:45Z</time>
      </trkpt>
      <trkpt lat="44.89107" lon="3.92076">
        <ele>773.04</ele>
        <time>2022-08-01T14:06:25Z</time>
      </trkpt>
      <trkpt lat="44.89107" lon="3.92076">
        <ele>773.52</ele>
        <time>2022-08-01T14:07:11Z</time>
      </trkpt>
      <trkpt lat="44.89108" lon="3.92076">
        <ele>773.52</ele>
        <time>2022-08-01T14:07:14Z</time>
      </trkpt>
      <trkpt lat="44.89083" lon="3.91937">
        <ele>764.87</ele>
        <time>2022-08-02T04:58:56Z</time>
      </trkpt>
      <trkpt lat="44.8908" lon="3.91942">
        <ele>765.83</ele>
        <time>2022-08-02T04:59:00Z</time>
      </trkpt>
      <trkpt lat="44.89079" lon="3.91945">
        <ele>766.31</ele>
        <time>2022-08-02T04:59:02Z</time>
      </trkpt>
      <trkpt lat="44.89068" lon="3.91963">
        <ele>768.23</ele>
        <time>2022-08-02T04:59:17Z</time>
      </trkpt>
      <trkpt lat="44.89065" lon="3.9198">
        <ele>771.11</ele>
        <time>2022-08-02T04:59:33Z</time>
      </trkpt>
      <trkpt lat="44.89062" lon="3.91983">
        <ele>769.67</ele>
        <time>2022-08-02T04:59:37Z</time>
      </trkpt>
      <trkpt lat="44.89061" lon="3.91985">
        <ele>769.19</ele>
        <time>2022-08-02T04:59:39Z</time>
      </trkpt>
      <trkpt lat="44.8906" lon="3.91987">
        <ele>768.23</ele>
        <time>2022-08-02T04:59:41Z</time>
      </trkpt>
      <trkpt lat="44.89059" lon="3.92004">
        <ele>767.75</ele>
        <time>2022-08-02T04:59:52Z</time>
      </trkpt>
      <trkpt lat="44.89061" lon="3.92011">
        <ele>769.19</ele>
        <time>2022-08-02T04:59:56Z</time>
      </trkpt>
      <trkpt lat="44.89067" lon="3.92034">
        <ele>773.52</ele>
        <time>2022-08-02T05:00:12Z</time>
      </trkpt>
      <trkpt lat="44.89069" lon="3.92038">
        <ele>774</ele>
        <time>2022-08-02T05:00:15Z</time>
      </trkpt>
      <trkpt lat="44.89074" lon="3.92046">
        <ele>774</ele>
        <time>2022-08-02T05:00:21Z</time>
      </trkpt>
      <trkpt lat="44.89083" lon="3.92064">
        <ele>776.4</ele>
        <time>2022-08-02T05:00:35Z</time>
      </trkpt>
      <trkpt lat="44.89089" lon="3.92078">
        <ele>777.84</ele>
        <time>2022-08-02T05:00:50Z</time>
      </trkpt>
      <trkpt lat="44.89093" lon="3.92077">
        <ele>782.17</ele>
        <time>2022-08-02T05:01:10Z</time>
      </trkpt>
      <trkpt lat="44.89093" lon="3.9208">
        <ele>782.17</ele>
        <time>2022-08-02T05:01:13Z</time>
      </trkpt>
      <trkpt lat="44.89105" lon="3.921">
        <ele>772.56</ele>
        <time>2022-08-02T05:01:26Z</time>
      </trkpt>
      <trkpt lat="44.891" lon="3.92114">
        <ele>769.67</ele>
        <time>2022-08-02T05:01:36Z</time>
      </trkpt>
      <trkpt lat="44.89091" lon="3.92131">
        <ele>769.19</ele>
        <time>2022-08-02T05:01:49Z</time>
      </trkpt>
      <trkpt lat="44.89078" lon="3.9215">
        <ele>770.63</ele>
        <time>2022-08-02T05:02:04Z</time>
      </trkpt>
      <trkpt lat="44.89073" lon="3.92157">
        <ele>771.11</ele>
        <time>2022-08-02T05:02:10Z</time>
      </trkpt>
      <trkpt lat="44.8906" lon="3.92171">
        <ele>770.63</ele>
        <time>2022-08-02T05:02:24Z</time>
      </trkpt>
      <trkpt lat="44.89053" lon="3.92178">
        <ele>770.63</ele>
        <time>2022-08-02T05:02:34Z</time>
      </trkpt>
      <trkpt lat="44.89042" lon="3.92186">
        <ele>772.08</ele>
        <time>2022-08-02T05:02:45Z</time>
      </trkpt>
      <trkpt lat="44.89038" lon="3.92191">
        <ele>772.08</ele>
        <time>2022-08-02T05:02:49Z</time>
      </trkpt>
      <trkpt lat="44.89031" lon="3.92195">
        <ele>771.6</ele>
        <time>2022-08-02T05:02:55Z</time>
      </trkpt>
      <trkpt lat="44.89016" lon="3.92202">
        <ele>773.52</ele>
        <time>2022-08-02T05:03:10Z</time>
      </trkpt>
      <trkpt lat="44.88999" lon="3.92204">
        <ele>777.36</ele>
        <time>2022-08-02T05:03:25Z</time>
      </trkpt>
      <trkpt lat="44.88982" lon="3.9221">
        <ele>780.25</ele>
        <time>2022-08-02T05:03:40Z</time>
      </trkpt>
      <trkpt lat="44.88968" lon="3.9221">
        <ele>782.65</ele>
        <time>2022-08-02T05:03:54Z</time>
      </trkpt>
      <trkpt lat="44.88962" lon="3.92211">
        <ele>783.61</ele>
        <time>2022-08-02T05:04:02Z</time>
      </trkpt>
      <trkpt lat="44.88953" lon="3.92201">
        <ele>784.57</ele>
        <time>2022-08-02T05:04:16Z</time>
      </trkpt>
      <trkpt lat="44.88949" lon="3.92198">
        <ele>784.57</ele>
        <time>2022-08-02T05:04:23Z</time>
      </trkpt>
      <trkpt lat="44.88947" lon="3.92194">
        <ele>784.09</ele>
        <time>2022-08-02T05:04:30Z</time>
      </trkpt>
      <trkpt lat="44.88959" lon="3.92193">
        <ele>783.61</ele>
        <time>2022-08-02T05:04:43Z</time>
      </trkpt>
      <trkpt lat="44.88967" lon="3.92185">
        <ele>784.57</ele>
        <time>2022-08-02T05:04:53Z</time>
      </trkpt>
      <trkpt lat="44.88968" lon="3.92182">
        <ele>784.57</ele>
        <time>2022-08-02T05:04:55Z</time>
      </trkpt>
      <trkpt lat="44.88969" lon="3.9218">
        <ele>784.57</ele>
        <time>2022-08-02T05:04:57Z</time>
      </trkpt>
      <trkpt lat="44.88975" lon="3.92159">
        <ele>784.09</ele>
        <time>2022-08-02T05:05:13Z</time>
      </trkpt>
      <trkpt lat="44.88979" lon="3.9214">
        <ele>786.02</ele>
        <time>2022-08-02T05:05:27Z</time>
      </trkpt>
      <trkpt lat="44.88983" lon="3.92124">
        <ele>786.98</ele>
        <time>2022-08-02T05:05:40Z</time>
      </trkpt>
      <trkpt lat="44.88983" lon="3.92115">
        <ele>785.53</ele>
        <time>2022-08-02T05:06:06Z</time>
      </trkpt>
      <trkpt lat="44.88986" lon="3.92097">
        <ele>785.05</ele>
        <time>2022-08-02T05:06:21Z</time>
      </trkpt>
      <trkpt lat="44.88989" lon="3.92078">
        <ele>786.02</ele>
        <time>2022-08-02T05:06:35Z</time>
      </trkpt>
      <trkpt lat="44.8899" lon="3.92075">
        <ele>786.5</ele>
        <time>2022-08-02T05:06:38Z</time>
      </trkpt>
      <trkpt lat="44.88992" lon="3.92063">
        <ele>786.5</ele>
        <time>2022-08-02T05:06:46Z</time>
      </trkpt>
      <trkpt lat="44.88996" lon="3.92047">
        <ele>785.53</ele>
        <time>2022-08-02T05:06:57Z</time>
      </trkpt>
      <trkpt lat="44.89001" lon="3.92024">
        <ele>786.5</ele>
        <time>2022-08-02T05:07:14Z</time>
      </trkpt>
      <trkpt lat="44.89005" lon="3.92002">
        <ele>790.82</ele>
        <time>2022-08-02T05:07:30Z</time>
      </trkpt>
      <trkpt lat="44.89008" lon="3.91992">
        <ele>791.78</ele>
        <time>2022-08-02T05:07:37Z</time>
      </trkpt>
      <trkpt lat="44.89012" lon="3.91978">
        <ele>792.26</ele>
        <time>2022-08-02T05:07:47Z</time>
      </trkpt>
      <trkpt lat="44.89015" lon="3.91953">
        <ele>789.38</ele>
        <time>2022-08-02T05:08:04Z</time>
      </trkpt>
      <trkpt lat="44.89019" lon="3.91928">
        <ele>789.86</ele>
        <time>2022-08-02T05:08:22Z</time>
      </trkpt>
      <trkpt lat="44.89023" lon="3.91905">
        <ele>793.22</ele>
        <time>2022-08-02T05:08:37Z</time>
      </trkpt>
      <trkpt lat="44.89028" lon="3.91883">
        <ele>795.63</ele>
        <time>2022-08-02T05:08:52Z</time>
      </trkpt>
      <trkpt lat="44.8903" lon="3.91876">
        <ele>796.59</ele>
        <time>2022-08-02T05:08:57Z</time>
      </trkpt>
      <trkpt lat="44.89032" lon="3.91851">
        <ele>799.95</ele>
        <time>2022-08-02T05:09:14Z</time>
      </trkpt>
      <trkpt lat="44.89033" lon="3.91822">
        <ele>804.28</ele>
        <time>2022-08-02T05:09:32Z</time>
      </trkpt>
      <trkpt lat="44.89036" lon="3.918">
        <ele>804.76</ele>
        <time>2022-08-02T05:09:47Z</time>
      </trkpt>
      <trkpt lat="44.89037" lon="3.9179">
        <ele>805.72</ele>
        <time>2022-08-02T05:09:53Z</time>
      </trkpt>
      <trkpt lat="44.89039" lon="3.91766">
        <ele>805.24</ele>
        <time>2022-08-02T05:10:07Z</time>
      </trkpt>
      <trkpt lat="44.89043" lon="3.91738">
        <ele>804.76</ele>
        <time>2022-08-02T05:10:23Z</time>
      </trkpt>
      <trkpt lat="44.89042" lon="3.9173">
        <ele>805.24</ele>
        <time>2022-08-02T05:10:28Z</time>
      </trkpt>
      <trkpt lat="44.89046" lon="3.917">
        <ele>805.24</ele>
        <time>2022-08-02T05:10:46Z</time>
      </trkpt>
      <trkpt lat="44.89051" lon="3.91674">
        <ele>806.68</ele>
        <time>2022-08-02T05:11:01Z</time>
      </trkpt>
      <trkpt lat="44.89051" lon="3.9166">
        <ele>806.68</ele>
        <time>2022-08-02T05:11:12Z</time>
      </trkpt>
      <trkpt lat="44.89044" lon="3.91648">
        <ele>807.16</ele>
        <time>2022-08-02T05:11:21Z</time>
      </trkpt>
      <trkpt lat="44.8904" lon="3.91645">
        <ele>806.68</ele>
        <time>2022-08-02T05:11:30Z</time>
      </trkpt>
      <trkpt lat="44.89036" lon="3.91634">
        <ele>806.2</ele>
        <time>2022-08-02T05:11:37Z</time>
      </trkpt>
      <trkpt lat="44.89034" lon="3.91629">
        <ele>805.72</ele>
        <time>2022-08-02T05:11:42Z</time>
      </trkpt>
      <trkpt lat="44.89029" lon="3.91614">
        <ele>803.32</ele>
        <time>2022-08-02T05:11:55Z</time>
      </trkpt>
      <trkpt lat="44.89026" lon="3.91592">
        <ele>802.36</ele>
        <time>2022-08-02T05:12:09Z</time>
      </trkpt>
      <trkpt lat="44.89025" lon="3.91586">
        <ele>801.4</ele>
        <time>2022-08-02T05:12:13Z</time>
      </trkpt>
      <trkpt lat="44.89025" lon="3.91577">
        <ele>800.92</ele>
        <time>2022-08-02T05:12:18Z</time>
      </trkpt>
      <trkpt lat="44.89024" lon="3.9155">
        <ele>797.55</ele>
        <time>2022-08-02T05:12:36Z</time>
      </trkpt>
      <trkpt lat="44.89025" lon="3.91539">
        <ele>797.07</ele>
        <time>2022-08-02T05:12:42Z</time>
      </trkpt>
      <trkpt lat="44.89024" lon="3.91509">
        <ele>796.59</ele>
        <time>2022-08-02T05:12:59Z</time>
      </trkpt>
      <trkpt lat="44.89022" lon="3.91487">
        <ele>797.07</ele>
        <time>2022-08-02T05:13:14Z</time>
      </trkpt>
      <trkpt lat="44.8902" lon="3.9147">
        <ele>797.07</ele>
        <time>2022-08-02T05:13:26Z</time>
      </trkpt>
      <trkpt lat="44.89026" lon="3.91452">
        <ele>797.07</ele>
        <time>2022-08-02T05:13:40Z</time>
      </trkpt>
      <trkpt lat="44.8903" lon="3.91431">
        <ele>798.51</ele>
        <time>2022-08-02T05:13:55Z</time>
      </trkpt>
      <trkpt lat="44.8903" lon="3.91416">
        <ele>798.99</ele>
        <time>2022-08-02T05:14:06Z</time>
      </trkpt>
      <trkpt lat="44.89016" lon="3.91408">
        <ele>801.4</ele>
        <time>2022-08-02T05:14:20Z</time>
      </trkpt>
      <trkpt lat="44.89" lon="3.9141">
        <ele>804.28</ele>
        <time>2022-08-02T05:14:37Z</time>
      </trkpt>
      <trkpt lat="44.88986" lon="3.91407">
        <ele>808.61</ele>
        <time>2022-08-02T05:14:54Z</time>
      </trkpt>
      <trkpt lat="44.88976" lon="3.91405">
        <ele>810.05</ele>
        <time>2022-08-02T05:15:09Z</time>
      </trkpt>
      <trkpt lat="44.88974" lon="3.91398">
        <ele>811.97</ele>
        <time>2022-08-02T05:15:24Z</time>
      </trkpt>
      <trkpt lat="44.88973" lon="3.91391">
        <ele>812.93</ele>
        <time>2022-08-02T05:15:37Z</time>
      </trkpt>
      <trkpt lat="44.8897" lon="3.91382">
        <ele>814.37</ele>
        <time>2022-08-02T05:15:53Z</time>
      </trkpt>
      <trkpt lat="44.8896" lon="3.91376">
        <ele>819.18</ele>
        <time>2022-08-02T05:16:12Z</time>
      </trkpt>
      <trkpt lat="44.88951" lon="3.91375">
        <ele>822.55</ele>
        <time>2022-08-02T05:16:28Z</time>
      </trkpt>
      <trkpt lat="44.88941" lon="3.91382">
        <ele>826.87</ele>
        <time>2022-08-02T05:16:45Z</time>
      </trkpt>
      <trkpt lat="44.88938" lon="3.91379">
        <ele>825.91</ele>
        <time>2022-08-02T05:17:03Z</time>
      </trkpt>
      <trkpt lat="44.88931" lon="3.91372">
        <ele>824.47</ele>
        <time>2022-08-02T05:17:18Z</time>
      </trkpt>
      <trkpt lat="44.88928" lon="3.91368">
        <ele>825.91</ele>
        <time>2022-08-02T05:17:33Z</time>
      </trkpt>
      <trkpt lat="44.88922" lon="3.91364">
        <ele>831.2</ele>
        <time>2022-08-02T05:17:50Z</time>
      </trkpt>
      <trkpt lat="44.88912" lon="3.91363">
        <ele>835.04</ele>
        <time>2022-08-02T05:18:09Z</time>
      </trkpt>
      <trkpt lat="44.889" lon="3.91356">
        <ele>836.48</ele>
        <time>2022-08-02T05:18:28Z</time>
      </trkpt>
      <trkpt lat="44.88887" lon="3.9135">
        <ele>836.96</ele>
        <time>2022-08-02T05:18:49Z</time>
      </trkpt>
      <trkpt lat="44.88876" lon="3.91345">
        <ele>838.89</ele>
        <time>2022-08-02T05:19:09Z</time>
      </trkpt>
      <trkpt lat="44.88865" lon="3.91342">
        <ele>842.73</ele>
        <time>2022-08-02T05:19:28Z</time>
      </trkpt>
      <trkpt lat="44.88856" lon="3.91342">
        <ele>845.62</ele>
        <time>2022-08-02T05:19:44Z</time>
      </trkpt>
      <trkpt lat="44.88847" lon="3.9134">
        <ele>850.9</ele>
        <time>2022-08-02T05:20:02Z</time>
      </trkpt>
      <trkpt lat="44.88832" lon="3.91338">
        <ele>854.27</ele>
        <time>2022-08-02T05:20:20Z</time>
      </trkpt>
      <trkpt lat="44.88822" lon="3.91334">
        <ele>857.15</ele>
        <time>2022-08-02T05:20:37Z</time>
      </trkpt>
      <trkpt lat="44.88814" lon="3.91333">
        <ele>857.63</ele>
        <time>2022-08-02T05:20:51Z</time>
      </trkpt>
      <trkpt lat="44.88799" lon="3.9133">
        <ele>860.04</ele>
        <time>2022-08-02T05:21:07Z</time>
      </trkpt>
      <trkpt lat="44.88787" lon="3.91326">
        <ele>861.96</ele>
        <time>2022-08-02T05:21:22Z</time>
      </trkpt>
      <trkpt lat="44.88775" lon="3.91327">
        <ele>864.84</ele>
        <time>2022-08-02T05:21:38Z</time>
      </trkpt>
      <trkpt lat="44.88763" lon="3.91324">
        <ele>869.17</ele>
        <time>2022-08-02T05:21:57Z</time>
      </trkpt>
      <trkpt lat="44.88749" lon="3.91323">
        <ele>873.98</ele>
        <time>2022-08-02T05:22:19Z</time>
      </trkpt>
      <trkpt lat="44.88734" lon="3.91322">
        <ele>876.38</ele>
        <time>2022-08-02T05:22:38Z</time>
      </trkpt>
      <trkpt lat="44.88718" lon="3.91325">
        <ele>878.78</ele>
        <time>2022-08-02T05:22:55Z</time>
      </trkpt>
      <trkpt lat="44.88705" lon="3.91332">
        <ele>882.15</ele>
        <time>2022-08-02T05:23:11Z</time>
      </trkpt>
      <trkpt lat="44.88694" lon="3.91343">
        <ele>885.51</ele>
        <time>2022-08-02T05:23:26Z</time>
      </trkpt>
      <trkpt lat="44.8869" lon="3.91347">
        <ele>887.43</ele>
        <time>2022-08-02T05:23:31Z</time>
      </trkpt>
      <trkpt lat="44.88678" lon="3.91359">
        <ele>889.36</ele>
        <time>2022-08-02T05:23:47Z</time>
      </trkpt>
      <trkpt lat="44.88673" lon="3.91363">
        <ele>889.84</ele>
        <time>2022-08-02T05:23:53Z</time>
      </trkpt>
      <trkpt lat="44.88661" lon="3.91372">
        <ele>889.84</ele>
        <time>2022-08-02T05:24:08Z</time>
      </trkpt>
      <trkpt lat="44.8865" lon="3.91379">
        <ele>893.2</ele>
        <time>2022-08-02T05:24:23Z</time>
      </trkpt>
      <trkpt lat="44.8864" lon="3.91384">
        <ele>893.68</ele>
        <time>2022-08-02T05:24:35Z</time>
      </trkpt>
      <trkpt lat="44.88627" lon="3.91385">
        <ele>893.68</ele>
        <time>2022-08-02T05:24:49Z</time>
      </trkpt>
      <trkpt lat="44.8861" lon="3.9139">
        <ele>894.64</ele>
        <time>2022-08-02T05:25:04Z</time>
      </trkpt>
      <trkpt lat="44.88596" lon="3.91393">
        <ele>893.68</ele>
        <time>2022-08-02T05:25:17Z</time>
      </trkpt>
      <trkpt lat="44.88581" lon="3.91388">
        <ele>891.28</ele>
        <time>2022-08-02T05:25:33Z</time>
      </trkpt>
      <trkpt lat="44.88572" lon="3.91379">
        <ele>895.61</ele>
        <time>2022-08-02T05:25:49Z</time>
      </trkpt>
      <trkpt lat="44.88566" lon="3.91366">
        <ele>897.05</ele>
        <time>2022-08-02T05:26:03Z</time>
      </trkpt>
      <trkpt lat="44.88568" lon="3.9135">
        <ele>899.93</ele>
        <time>2022-08-02T05:26:18Z</time>
      </trkpt>
      <trkpt lat="44.88569" lon="3.91335">
        <ele>903.3</ele>
        <time>2022-08-02T05:26:32Z</time>
      </trkpt>
      <trkpt lat="44.88573" lon="3.91321">
        <ele>906.18</ele>
        <time>2022-08-02T05:26:46Z</time>
      </trkpt>
      <trkpt lat="44.88576" lon="3.91306">
        <ele>907.14</ele>
        <time>2022-08-02T05:27:00Z</time>
      </trkpt>
      <trkpt lat="44.88577" lon="3.91289">
        <ele>910.03</ele>
        <time>2022-08-02T05:27:14Z</time>
      </trkpt>
      <trkpt lat="44.88577" lon="3.91269">
        <ele>910.51</ele>
        <time>2022-08-02T05:27:31Z</time>
      </trkpt>
      <trkpt lat="44.88579" lon="3.91253">
        <ele>912.43</ele>
        <time>2022-08-02T05:27:46Z</time>
      </trkpt>
      <trkpt lat="44.8858" lon="3.91239">
        <ele>915.79</ele>
        <time>2022-08-02T05:28:01Z</time>
      </trkpt>
      <trkpt lat="44.88583" lon="3.91229">
        <ele>917.24</ele>
        <time>2022-08-02T05:28:14Z</time>
      </trkpt>
      <trkpt lat="44.88585" lon="3.91215">
        <ele>919.64</ele>
        <time>2022-08-02T05:28:31Z</time>
      </trkpt>
      <trkpt lat="44.88584" lon="3.91197">
        <ele>923</ele>
        <time>2022-08-02T05:28:46Z</time>
      </trkpt>
      <trkpt lat="44.88577" lon="3.91182">
        <ele>925.89</ele>
        <time>2022-08-02T05:29:02Z</time>
      </trkpt>
      <trkpt lat="44.88569" lon="3.9117">
        <ele>928.29</ele>
        <time>2022-08-02T05:29:17Z</time>
      </trkpt>
      <trkpt lat="44.88558" lon="3.91161">
        <ele>931.17</ele>
        <time>2022-08-02T05:29:33Z</time>
      </trkpt>
      <trkpt lat="44.88549" lon="3.91151">
        <ele>934.06</ele>
        <time>2022-08-02T05:29:48Z</time>
      </trkpt>
      <trkpt lat="44.88549" lon="3.91153">
        <ele>934.06</ele>
        <time>2022-08-02T05:30:03Z</time>
      </trkpt>
      <trkpt lat="44.88556" lon="3.9115">
        <ele>934.54</ele>
        <time>2022-08-02T05:30:10Z</time>
      </trkpt>
      <trkpt lat="44.88573" lon="3.91156">
        <ele>936.94</ele>
        <time>2022-08-02T05:30:27Z</time>
      </trkpt>
      <trkpt lat="44.8859" lon="3.91155">
        <ele>937.9</ele>
        <time>2022-08-02T05:30:46Z</time>
      </trkpt>
      <trkpt lat="44.88602" lon="3.91153">
        <ele>939.35</ele>
        <time>2022-08-02T05:31:00Z</time>
      </trkpt>
      <trkpt lat="44.88615" lon="3.91143">
        <ele>940.79</ele>
        <time>2022-08-02T05:31:16Z</time>
      </trkpt>
      <trkpt lat="44.88616" lon="3.91141">
        <ele>941.27</ele>
        <time>2022-08-02T05:31:18Z</time>
      </trkpt>
      <trkpt lat="44.8862" lon="3.91125">
        <ele>943.67</ele>
        <time>2022-08-02T05:31:34Z</time>
      </trkpt>
      <trkpt lat="44.88619" lon="3.91107">
        <ele>946.56</ele>
        <time>2022-08-02T05:31:49Z</time>
      </trkpt>
      <trkpt lat="44.88618" lon="3.91088">
        <ele>948.48</ele>
        <time>2022-08-02T05:32:03Z</time>
      </trkpt>
      <trkpt lat="44.88617" lon="3.9107">
        <ele>950.4</ele>
        <time>2022-08-02T05:32:18Z</time>
      </trkpt>
      <trkpt lat="44.88615" lon="3.91048">
        <ele>952.32</ele>
        <time>2022-08-02T05:32:34Z</time>
      </trkpt>
      <trkpt lat="44.88617" lon="3.91039">
        <ele>953.28</ele>
        <time>2022-08-02T05:32:48Z</time>
      </trkpt>
      <trkpt lat="44.88615" lon="3.91039">
        <ele>953.28</ele>
        <time>2022-08-02T05:33:17Z</time>
      </trkpt>
      <trkpt lat="44.88612" lon="3.91043">
        <ele>952.8</ele>
        <time>2022-08-02T05:33:23Z</time>
      </trkpt>
      <trkpt lat="44.88611" lon="3.91058">
        <ele>951.36</ele>
        <time>2022-08-02T05:33:33Z</time>
      </trkpt>
      <trkpt lat="44.88619" lon="3.91062">
        <ele>949.92</ele>
        <time>2022-08-02T05:33:44Z</time>
      </trkpt>
      <trkpt lat="44.88622" lon="3.91061">
        <ele>948.96</ele>
        <time>2022-08-02T05:34:03Z</time>
      </trkpt>
      <trkpt lat="44.88616" lon="3.91056">
        <ele>948.96</ele>
        <time>2022-08-02T05:34:19Z</time>
      </trkpt>
      <trkpt lat="44.88616" lon="3.91055">
        <ele>948.96</ele>
        <time>2022-08-02T05:34:20Z</time>
      </trkpt>
      <trkpt lat="44.88617" lon="3.91039">
        <ele>951.36</ele>
        <time>2022-08-02T05:34:32Z</time>
      </trkpt>
      <trkpt lat="44.88618" lon="3.91017">
        <ele>953.28</ele>
        <time>2022-08-02T05:34:48Z</time>
      </trkpt>
      <trkpt lat="44.88616" lon="3.91003">
        <ele>954.25</ele>
        <time>2022-08-02T05:34:57Z</time>
      </trkpt>
      <trkpt lat="44.88615" lon="3.90978">
        <ele>956.17</ele>
        <time>2022-08-02T05:35:14Z</time>
      </trkpt>
      <trkpt lat="44.88616" lon="3.90955">
        <ele>956.65</ele>
        <time>2022-08-02T05:35:30Z</time>
      </trkpt>
      <trkpt lat="44.88619" lon="3.90926">
        <ele>957.13</ele>
        <time>2022-08-02T05:35:48Z</time>
      </trkpt>
      <trkpt lat="44.88618" lon="3.90905">
        <ele>958.09</ele>
        <time>2022-08-02T05:36:03Z</time>
      </trkpt>
      <trkpt lat="44.88622" lon="3.90881">
        <ele>960.49</ele>
        <time>2022-08-02T05:36:19Z</time>
      </trkpt>
      <trkpt lat="44.8862" lon="3.90855">
        <ele>960.01</ele>
        <time>2022-08-02T05:36:35Z</time>
      </trkpt>
      <trkpt lat="44.88616" lon="3.90833">
        <ele>960.01</ele>
        <time>2022-08-02T05:36:49Z</time>
      </trkpt>
      <trkpt lat="44.88614" lon="3.90819">
        <ele>960.01</ele>
        <time>2022-08-02T05:36:58Z</time>
      </trkpt>
      <trkpt lat="44.88621" lon="3.90794">
        <ele>959.05</ele>
        <time>2022-08-02T05:37:15Z</time>
      </trkpt>
      <trkpt lat="44.88622" lon="3.90768">
        <ele>958.57</ele>
        <time>2022-08-02T05:37:31Z</time>
      </trkpt>
      <trkpt lat="44.88622" lon="3.9074">
        <ele>956.65</ele>
        <time>2022-08-02T05:37:47Z</time>
      </trkpt>
      <trkpt lat="44.88623" lon="3.90726">
        <ele>957.61</ele>
        <time>2022-08-02T05:37:56Z</time>
      </trkpt>
      <trkpt lat="44.88623" lon="3.90697">
        <ele>958.09</ele>
        <time>2022-08-02T05:38:14Z</time>
      </trkpt>
      <trkpt lat="44.88624" lon="3.9069">
        <ele>957.13</ele>
        <time>2022-08-02T05:38:33Z</time>
      </trkpt>
      <trkpt lat="44.8862" lon="3.90676">
        <ele>956.17</ele>
        <time>2022-08-02T05:38:47Z</time>
      </trkpt>
      <trkpt lat="44.88619" lon="3.90673">
        <ele>955.69</ele>
        <time>2022-08-02T05:38:49Z</time>
      </trkpt>
      <trkpt lat="44.88611" lon="3.90651">
        <ele>953.28</ele>
        <time>2022-08-02T05:39:04Z</time>
      </trkpt>
      <trkpt lat="44.88601" lon="3.90638">
        <ele>951.84</ele>
        <time>2022-08-02T05:39:16Z</time>
      </trkpt>
      <trkpt lat="44.88592" lon="3.90622">
        <ele>949.44</ele>
        <time>2022-08-02T05:39:30Z</time>
      </trkpt>
      <trkpt lat="44.88583" lon="3.90598">
        <ele>947.52</ele>
        <time>2022-08-02T05:39:46Z</time>
      </trkpt>
      <trkpt lat="44.88583" lon="3.90573">
        <ele>947.52</ele>
        <time>2022-08-02T05:40:01Z</time>
      </trkpt>
      <trkpt lat="44.88588" lon="3.90547">
        <ele>948.96</ele>
        <time>2022-08-02T05:40:17Z</time>
      </trkpt>
      <trkpt lat="44.8859" lon="3.90534">
        <ele>949.92</ele>
        <time>2022-08-02T05:40:26Z</time>
      </trkpt>
      <trkpt lat="44.88591" lon="3.9053">
        <ele>950.4</ele>
        <time>2022-08-02T05:40:29Z</time>
      </trkpt>
      <trkpt lat="44.88607" lon="3.90535">
        <ele>952.8</ele>
        <time>2022-08-02T05:40:44Z</time>
      </trkpt>
      <trkpt lat="44.88611" lon="3.90535">
        <ele>953.28</ele>
        <time>2022-08-02T05:40:47Z</time>
      </trkpt>
      <trkpt lat="44.88616" lon="3.90535">
        <ele>953.28</ele>
        <time>2022-08-02T05:40:51Z</time>
      </trkpt>
      <trkpt lat="44.88622" lon="3.90534">
        <ele>953.28</ele>
        <time>2022-08-02T05:40:57Z</time>
      </trkpt>
      <trkpt lat="44.88636" lon="3.90531">
        <ele>955.69</ele>
        <time>2022-08-02T05:41:11Z</time>
      </trkpt>
      <trkpt lat="44.88652" lon="3.90523">
        <ele>956.17</ele>
        <time>2022-08-02T05:41:28Z</time>
      </trkpt>
      <trkpt lat="44.88669" lon="3.90513">
        <ele>953.77</ele>
        <time>2022-08-02T05:41:44Z</time>
      </trkpt>
      <trkpt lat="44.88675" lon="3.90509">
        <ele>953.28</ele>
        <time>2022-08-02T05:41:50Z</time>
      </trkpt>
      <trkpt lat="44.88678" lon="3.90507">
        <ele>953.77</ele>
        <time>2022-08-02T05:41:54Z</time>
      </trkpt>
      <trkpt lat="44.88692" lon="3.90499">
        <ele>955.21</ele>
        <time>2022-08-02T05:42:10Z</time>
      </trkpt>
      <trkpt lat="44.88709" lon="3.90488">
        <ele>957.13</ele>
        <time>2022-08-02T05:42:27Z</time>
      </trkpt>
      <trkpt lat="44.88722" lon="3.90479">
        <ele>961.94</ele>
        <time>2022-08-02T05:42:42Z</time>
      </trkpt>
      <trkpt lat="44.88738" lon="3.90464">
        <ele>962.9</ele>
        <time>2022-08-02T05:42:59Z</time>
      </trkpt>
      <trkpt lat="44.88751" lon="3.90457">
        <ele>962.9</ele>
        <time>2022-08-02T05:43:14Z</time>
      </trkpt>
      <trkpt lat="44.88767" lon="3.90448">
        <ele>961.94</ele>
        <time>2022-08-02T05:43:31Z</time>
      </trkpt>
      <trkpt lat="44.88782" lon="3.90441">
        <ele>962.42</ele>
        <time>2022-08-02T05:43:45Z</time>
      </trkpt>
      <trkpt lat="44.88796" lon="3.90436">
        <ele>963.38</ele>
        <time>2022-08-02T05:44:00Z</time>
      </trkpt>
      <trkpt lat="44.88814" lon="3.90432">
        <ele>962.9</ele>
        <time>2022-08-02T05:44:18Z</time>
      </trkpt>
      <trkpt lat="44.88831" lon="3.90432">
        <ele>965.3</ele>
        <time>2022-08-02T05:44:34Z</time>
      </trkpt>
      <trkpt lat="44.8885" lon="3.90425">
        <ele>965.3</ele>
        <time>2022-08-02T05:44:51Z</time>
      </trkpt>
      <trkpt lat="44.88857" lon="3.90419">
        <ele>963.38</ele>
        <time>2022-08-02T05:45:08Z</time>
      </trkpt>
      <trkpt lat="44.88869" lon="3.9041">
        <ele>961.94</ele>
        <time>2022-08-02T05:45:29Z</time>
      </trkpt>
      <trkpt lat="44.88879" lon="3.90394">
        <ele>962.42</ele>
        <time>2022-08-02T05:45:43Z</time>
      </trkpt>
      <trkpt lat="44.88887" lon="3.90373">
        <ele>963.86</ele>
        <time>2022-08-02T05:46:00Z</time>
      </trkpt>
      <trkpt lat="44.88887" lon="3.90372">
        <ele>964.34</ele>
        <time>2022-08-02T05:46:01Z</time>
      </trkpt>
      <trkpt lat="44.88888" lon="3.90369">
        <ele>964.34</ele>
        <time>2022-08-02T05:46:03Z</time>
      </trkpt>
      <trkpt lat="44.88892" lon="3.90352">
        <ele>967.22</ele>
        <time>2022-08-02T05:46:18Z</time>
      </trkpt>
      <trkpt lat="44.88895" lon="3.90336">
        <ele>971.07</ele>
        <time>2022-08-02T05:46:33Z</time>
      </trkpt>
      <trkpt lat="44.88899" lon="3.90321">
        <ele>973.47</ele>
        <time>2022-08-02T05:46:48Z</time>
      </trkpt>
      <trkpt lat="44.88903" lon="3.90305">
        <ele>975.88</ele>
        <time>2022-08-02T05:47:03Z</time>
      </trkpt>
      <trkpt lat="44.88904" lon="3.90296">
        <ele>976.36</ele>
        <time>2022-08-02T05:47:10Z</time>
      </trkpt>
      <trkpt lat="44.88908" lon="3.90289">
        <ele>975.88</ele>
        <time>2022-08-02T05:47:24Z</time>
      </trkpt>
      <trkpt lat="44.8891" lon="3.90291">
        <ele>979.72</ele>
        <time>2022-08-02T05:47:56Z</time>
      </trkpt>
      <trkpt lat="44.88908" lon="3.9029">
        <ele>980.2</ele>
        <time>2022-08-02T05:48:23Z</time>
      </trkpt>
      <trkpt lat="44.88908" lon="3.9029">
        <ele>980.2</ele>
        <time>2022-08-02T05:48:24Z</time>
      </trkpt>
      <trkpt lat="44.889" lon="3.90288">
        <ele>979.24</ele>
        <time>2022-08-02T05:48:33Z</time>
      </trkpt>
      <trkpt lat="44.88896" lon="3.90279">
        <ele>978.28</ele>
        <time>2022-08-02T05:48:48Z</time>
      </trkpt>
      <trkpt lat="44.88898" lon="3.90279">
        <ele>977.32</ele>
        <time>2022-08-02T05:49:11Z</time>
      </trkpt>
      <trkpt lat="44.88897" lon="3.90278">
        <ele>977.32</ele>
        <time>2022-08-02T05:49:12Z</time>
      </trkpt>
      <trkpt lat="44.88895" lon="3.90278">
        <ele>976.84</ele>
        <time>2022-08-02T05:49:14Z</time>
      </trkpt>
      <trkpt lat="44.88891" lon="3.90275">
        <ele>975.39</ele>
        <time>2022-08-02T05:49:19Z</time>
      </trkpt>
      <trkpt lat="44.88879" lon="3.90253">
        <ele>971.55</ele>
        <time>2022-08-02T05:49:37Z</time>
      </trkpt>
      <trkpt lat="44.88869" lon="3.90231">
        <ele>969.15</ele>
        <time>2022-08-02T05:49:52Z</time>
      </trkpt>
      <trkpt lat="44.88859" lon="3.90209">
        <ele>967.22</ele>
        <time>2022-08-02T05:50:07Z</time>
      </trkpt>
      <trkpt lat="44.88851" lon="3.90182">
        <ele>966.74</ele>
        <time>2022-08-02T05:50:24Z</time>
      </trkpt>
      <trkpt lat="44.88847" lon="3.90156">
        <ele>966.26</ele>
        <time>2022-08-02T05:50:40Z</time>
      </trkpt>
      <trkpt lat="44.88847" lon="3.90133">
        <ele>966.74</ele>
        <time>2022-08-02T05:50:55Z</time>
      </trkpt>
      <trkpt lat="44.8885" lon="3.90114">
        <ele>967.22</ele>
        <time>2022-08-02T05:51:10Z</time>
      </trkpt>
      <trkpt lat="44.88852" lon="3.90112">
        <ele>969.15</ele>
        <time>2022-08-02T05:51:33Z</time>
      </trkpt>
      <trkpt lat="44.8885" lon="3.901">
        <ele>968.18</ele>
        <time>2022-08-02T05:51:48Z</time>
      </trkpt>
      <trkpt lat="44.88851" lon="3.90101">
        <ele>967.22</ele>
        <time>2022-08-02T05:52:02Z</time>
      </trkpt>
      <trkpt lat="44.88852" lon="3.90094">
        <ele>966.74</ele>
        <time>2022-08-02T05:52:36Z</time>
      </trkpt>
      <trkpt lat="44.88847" lon="3.90078">
        <ele>964.82</ele>
        <time>2022-08-02T05:52:51Z</time>
      </trkpt>
      <trkpt lat="44.88843" lon="3.90058">
        <ele>960.49</ele>
        <time>2022-08-02T05:53:06Z</time>
      </trkpt>
      <trkpt lat="44.88841" lon="3.90038">
        <ele>957.61</ele>
        <time>2022-08-02T05:53:19Z</time>
      </trkpt>
      <trkpt lat="44.88837" lon="3.90017">
        <ele>955.69</ele>
        <time>2022-08-02T05:53:31Z</time>
      </trkpt>
      <trkpt lat="44.88833" lon="3.89998">
        <ele>957.13</ele>
        <time>2022-08-02T05:53:43Z</time>
      </trkpt>
      <trkpt lat="44.88828" lon="3.89974">
        <ele>956.17</ele>
        <time>2022-08-02T05:53:58Z</time>
      </trkpt>
      <trkpt lat="44.88821" lon="3.8995">
        <ele>953.77</ele>
        <time>2022-08-02T05:54:16Z</time>
      </trkpt>
      <trkpt lat="44.88814" lon="3.89924">
        <ele>952.8</ele>
        <time>2022-08-02T05:54:30Z</time>
      </trkpt>
      <trkpt lat="44.88813" lon="3.89897">
        <ele>952.8</ele>
        <time>2022-08-02T05:54:45Z</time>
      </trkpt>
      <trkpt lat="44.88814" lon="3.89884">
        <ele>954.25</ele>
        <time>2022-08-02T05:54:53Z</time>
      </trkpt>
      <trkpt lat="44.88821" lon="3.89854">
        <ele>958.57</ele>
        <time>2022-08-02T05:55:10Z</time>
      </trkpt>
      <trkpt lat="44.88832" lon="3.89829">
        <ele>960.01</ele>
        <time>2022-08-02T05:55:27Z</time>
      </trkpt>
      <trkpt lat="44.88841" lon="3.89811">
        <ele>960.98</ele>
        <time>2022-08-02T05:55:41Z</time>
      </trkpt>
      <trkpt lat="44.88847" lon="3.89792">
        <ele>958.57</ele>
        <time>2022-08-02T05:55:54Z</time>
      </trkpt>
      <trkpt lat="44.88848" lon="3.89787">
        <ele>958.57</ele>
        <time>2022-08-02T05:55:57Z</time>
      </trkpt>
      <trkpt lat="44.88849" lon="3.89772">
        <ele>957.13</ele>
        <time>2022-08-02T05:56:12Z</time>
      </trkpt>
      <trkpt lat="44.88846" lon="3.89768">
        <ele>954.25</ele>
        <time>2022-08-02T05:56:33Z</time>
      </trkpt>
      <trkpt lat="44.88844" lon="3.89767">
        <ele>954.25</ele>
        <time>2022-08-02T05:56:55Z</time>
      </trkpt>
      <trkpt lat="44.88841" lon="3.89771">
        <ele>951.84</ele>
        <time>2022-08-02T05:57:22Z</time>
      </trkpt>
      <trkpt lat="44.88844" lon="3.89768">
        <ele>949.92</ele>
        <time>2022-08-02T05:57:26Z</time>
      </trkpt>
      <trkpt lat="44.88846" lon="3.8976">
        <ele>948.96</ele>
        <time>2022-08-02T05:57:32Z</time>
      </trkpt>
      <trkpt lat="44.8885" lon="3.89733">
        <ele>948</ele>
        <time>2022-08-02T05:57:48Z</time>
      </trkpt>
      <trkpt lat="44.88849" lon="3.89715">
        <ele>946.56</ele>
        <time>2022-08-02T05:58:00Z</time>
      </trkpt>
      <trkpt lat="44.88843" lon="3.89693">
        <ele>943.67</ele>
        <time>2022-08-02T05:58:15Z</time>
      </trkpt>
      <trkpt lat="44.88839" lon="3.89672">
        <ele>941.75</ele>
        <time>2022-08-02T05:58:30Z</time>
      </trkpt>
      <trkpt lat="44.88838" lon="3.89668">
        <ele>941.27</ele>
        <time>2022-08-02T05:58:33Z</time>
      </trkpt>
      <trkpt lat="44.88832" lon="3.89643">
        <ele>943.19</ele>
        <time>2022-08-02T05:58:49Z</time>
      </trkpt>
      <trkpt lat="44.8883" lon="3.8963">
        <ele>944.63</ele>
        <time>2022-08-02T05:58:57Z</time>
      </trkpt>
      <trkpt lat="44.88826" lon="3.8962">
        <ele>946.56</ele>
        <time>2022-08-02T05:59:04Z</time>
      </trkpt>
      <trkpt lat="44.88826" lon="3.89617">
        <ele>947.04</ele>
        <time>2022-08-02T05:59:06Z</time>
      </trkpt>
      <trkpt lat="44.8882" lon="3.89594">
        <ele>945.59</ele>
        <time>2022-08-02T05:59:22Z</time>
      </trkpt>
      <trkpt lat="44.88815" lon="3.89576">
        <ele>944.63</ele>
        <time>2022-08-02T05:59:37Z</time>
      </trkpt>
      <trkpt lat="44.88813" lon="3.89572">
        <ele>947.04</ele>
        <time>2022-08-02T06:00:00Z</time>
      </trkpt>
      <trkpt lat="44.8881" lon="3.89552">
        <ele>946.07</ele>
        <time>2022-08-02T06:00:16Z</time>
      </trkpt>
      <trkpt lat="44.88807" lon="3.89532">
        <ele>946.56</ele>
        <time>2022-08-02T06:00:28Z</time>
      </trkpt>
      <trkpt lat="44.88803" lon="3.89506">
        <ele>944.63</ele>
        <time>2022-08-02T06:00:44Z</time>
      </trkpt>
      <trkpt lat="44.88801" lon="3.89497">
        <ele>944.15</ele>
        <time>2022-08-02T06:00:50Z</time>
      </trkpt>
      <trkpt lat="44.88799" lon="3.89486">
        <ele>945.59</ele>
        <time>2022-08-02T06:01:00Z</time>
      </trkpt>
      <trkpt lat="44.88795" lon="3.89478">
        <ele>944.63</ele>
        <time>2022-08-02T06:01:06Z</time>
      </trkpt>
      <trkpt lat="44.88794" lon="3.89474">
        <ele>944.15</ele>
        <time>2022-08-02T06:01:09Z</time>
      </trkpt>
      <trkpt lat="44.8879" lon="3.89464">
        <ele>943.19</ele>
        <time>2022-08-02T06:01:16Z</time>
      </trkpt>
      <trkpt lat="44.88776" lon="3.8945">
        <ele>944.63</ele>
        <time>2022-08-02T06:01:32Z</time>
      </trkpt>
      <trkpt lat="44.88771" lon="3.89447">
        <ele>945.59</ele>
        <time>2022-08-02T06:01:38Z</time>
      </trkpt>
      <trkpt lat="44.88759" lon="3.8944">
        <ele>947.04</ele>
        <time>2022-08-02T06:01:52Z</time>
      </trkpt>
      <trkpt lat="44.88747" lon="3.89429">
        <ele>948</ele>
        <time>2022-08-02T06:02:05Z</time>
      </trkpt>
      <trkpt lat="44.8874" lon="3.89422">
        <ele>948.48</ele>
        <time>2022-08-02T06:02:11Z</time>
      </trkpt>
      <trkpt lat="44.88728" lon="3.8941">
        <ele>949.92</ele>
        <time>2022-08-02T06:02:25Z</time>
      </trkpt>
      <trkpt lat="44.88718" lon="3.89399">
        <ele>950.88</ele>
        <time>2022-08-02T06:02:37Z</time>
      </trkpt>
      <trkpt lat="44.88707" lon="3.89383">
        <ele>953.28</ele>
        <time>2022-08-02T06:02:52Z</time>
      </trkpt>
      <trkpt lat="44.88704" lon="3.89379">
        <ele>953.28</ele>
        <time>2022-08-02T06:02:55Z</time>
      </trkpt>
      <trkpt lat="44.8869" lon="3.89366">
        <ele>954.25</ele>
        <time>2022-08-02T06:03:12Z</time>
      </trkpt>
      <trkpt lat="44.88674" lon="3.89348">
        <ele>954.25</ele>
        <time>2022-08-02T06:03:28Z</time>
      </trkpt>
      <trkpt lat="44.88658" lon="3.89332">
        <ele>954.25</ele>
        <time>2022-08-02T06:03:45Z</time>
      </trkpt>
      <trkpt lat="44.88657" lon="3.89332">
        <ele>954.25</ele>
        <time>2022-08-02T06:03:47Z</time>
      </trkpt>
      <trkpt lat="44.88646" lon="3.89325">
        <ele>955.69</ele>
        <time>2022-08-02T06:04:00Z</time>
      </trkpt>
      <trkpt lat="44.88632" lon="3.89317">
        <ele>961.46</ele>
        <time>2022-08-02T06:04:15Z</time>
      </trkpt>
      <trkpt lat="44.8862" lon="3.89311">
        <ele>963.86</ele>
        <time>2022-08-02T06:04:29Z</time>
      </trkpt>
      <trkpt lat="44.88616" lon="3.89309">
        <ele>963.86</ele>
        <time>2022-08-02T06:04:32Z</time>
      </trkpt>
      <trkpt lat="44.88605" lon="3.89295">
        <ele>965.3</ele>
        <time>2022-08-02T06:04:47Z</time>
      </trkpt>
      <trkpt lat="44.88595" lon="3.8928">
        <ele>966.74</ele>
        <time>2022-08-02T06:05:00Z</time>
      </trkpt>
      <trkpt lat="44.88592" lon="3.89277">
        <ele>966.74</ele>
        <time>2022-08-02T06:05:04Z</time>
      </trkpt>
      <trkpt lat="44.88581" lon="3.89249">
        <ele>963.86</ele>
        <time>2022-08-02T06:05:22Z</time>
      </trkpt>
      <trkpt lat="44.8857" lon="3.89233">
        <ele>963.86</ele>
        <time>2022-08-02T06:05:35Z</time>
      </trkpt>
      <trkpt lat="44.88562" lon="3.89222">
        <ele>963.38</ele>
        <time>2022-08-02T06:05:45Z</time>
      </trkpt>
      <trkpt lat="44.88548" lon="3.89208">
        <ele>962.42</ele>
        <time>2022-08-02T06:05:57Z</time>
      </trkpt>
      <trkpt lat="44.88528" lon="3.89196">
        <ele>962.9</ele>
        <time>2022-08-02T06:06:14Z</time>
      </trkpt>
      <trkpt lat="44.88515" lon="3.89189">
        <ele>961.94</ele>
        <time>2022-08-02T06:06:28Z</time>
      </trkpt>
      <trkpt lat="44.88507" lon="3.89186">
        <ele>960.98</ele>
        <time>2022-08-02T06:06:41Z</time>
      </trkpt>
      <trkpt lat="44.885" lon="3.89181">
        <ele>963.38</ele>
        <time>2022-08-02T06:07:01Z</time>
      </trkpt>
      <trkpt lat="44.88496" lon="3.89179">
        <ele>963.38</ele>
        <time>2022-08-02T06:07:12Z</time>
      </trkpt>
      <trkpt lat="44.88494" lon="3.89184">
        <ele>965.78</ele>
        <time>2022-08-02T06:07:37Z</time>
      </trkpt>
      <trkpt lat="44.88491" lon="3.89178">
        <ele>965.78</ele>
        <time>2022-08-02T06:07:56Z</time>
      </trkpt>
      <trkpt lat="44.88478" lon="3.89174">
        <ele>965.3</ele>
        <time>2022-08-02T06:08:13Z</time>
      </trkpt>
      <trkpt lat="44.88462" lon="3.89169">
        <ele>964.82</ele>
        <time>2022-08-02T06:08:27Z</time>
      </trkpt>
      <trkpt lat="44.88444" lon="3.89161">
        <ele>965.78</ele>
        <time>2022-08-02T06:08:42Z</time>
      </trkpt>
      <trkpt lat="44.88426" lon="3.89155">
        <ele>965.78</ele>
        <time>2022-08-02T06:08:59Z</time>
      </trkpt>
      <trkpt lat="44.88408" lon="3.89151">
        <ele>967.7</ele>
        <time>2022-08-02T06:09:14Z</time>
      </trkpt>
      <trkpt lat="44.88394" lon="3.89146">
        <ele>967.22</ele>
        <time>2022-08-02T06:09:28Z</time>
      </trkpt>
      <trkpt lat="44.88391" lon="3.89145">
        <ele>967.22</ele>
        <time>2022-08-02T06:09:30Z</time>
      </trkpt>
      <trkpt lat="44.88374" lon="3.8914">
        <ele>966.26</ele>
        <time>2022-08-02T06:09:45Z</time>
      </trkpt>
      <trkpt lat="44.88356" lon="3.89134">
        <ele>964.34</ele>
        <time>2022-08-02T06:10:03Z</time>
      </trkpt>
      <trkpt lat="44.88346" lon="3.89132">
        <ele>963.38</ele>
        <time>2022-08-02T06:10:14Z</time>
      </trkpt>
      <trkpt lat="44.88332" lon="3.89128">
        <ele>963.38</ele>
        <time>2022-08-02T06:10:30Z</time>
      </trkpt>
      <trkpt lat="44.88319" lon="3.89116">
        <ele>968.18</ele>
        <time>2022-08-02T06:10:44Z</time>
      </trkpt>
      <trkpt lat="44.88301" lon="3.89106">
        <ele>972.51</ele>
        <time>2022-08-02T06:11:01Z</time>
      </trkpt>
      <trkpt lat="44.88288" lon="3.89092">
        <ele>973.47</ele>
        <time>2022-08-02T06:11:17Z</time>
      </trkpt>
      <trkpt lat="44.88282" lon="3.89069">
        <ele>972.51</ele>
        <time>2022-08-02T06:11:32Z</time>
      </trkpt>
      <trkpt lat="44.88281" lon="3.89055">
        <ele>970.59</ele>
        <time>2022-08-02T06:11:41Z</time>
      </trkpt>
      <trkpt lat="44.88282" lon="3.8905">
        <ele>970.11</ele>
        <time>2022-08-02T06:11:44Z</time>
      </trkpt>
      <trkpt lat="44.88283" lon="3.89024">
        <ele>968.18</ele>
        <time>2022-08-02T06:12:00Z</time>
      </trkpt>
      <trkpt lat="44.88291" lon="3.89008">
        <ele>967.22</ele>
        <time>2022-08-02T06:12:11Z</time>
      </trkpt>
      <trkpt lat="44.88304" lon="3.89003">
        <ele>968.67</ele>
        <time>2022-08-02T06:12:26Z</time>
      </trkpt>
      <trkpt lat="44.88319" lon="3.89007">
        <ele>970.11</ele>
        <time>2022-08-02T06:12:41Z</time>
      </trkpt>
      <trkpt lat="44.88332" lon="3.89008">
        <ele>970.59</ele>
        <time>2022-08-02T06:12:52Z</time>
      </trkpt>
      <trkpt lat="44.88349" lon="3.89013">
        <ele>972.99</ele>
        <time>2022-08-02T06:13:09Z</time>
      </trkpt>
      <trkpt lat="44.88353" lon="3.89007">
        <ele>972.51</ele>
        <time>2022-08-02T06:13:14Z</time>
      </trkpt>
      <trkpt lat="44.88355" lon="3.89006">
        <ele>972.99</ele>
        <time>2022-08-02T06:13:16Z</time>
      </trkpt>
      <trkpt lat="44.88373" lon="3.89008">
        <ele>973.47</ele>
        <time>2022-08-02T06:13:33Z</time>
      </trkpt>
      <trkpt lat="44.88374" lon="3.89004">
        <ele>973.95</ele>
        <time>2022-08-02T06:13:48Z</time>
      </trkpt>
      <trkpt lat="44.88383" lon="3.89006">
        <ele>974.43</ele>
        <time>2022-08-02T06:14:00Z</time>
      </trkpt>
      <trkpt lat="44.88394" lon="3.89002">
        <ele>978.28</ele>
        <time>2022-08-02T06:14:15Z</time>
      </trkpt>
      <trkpt lat="44.88383" lon="3.88991">
        <ele>980.68</ele>
        <time>2022-08-02T06:14:29Z</time>
      </trkpt>
      <trkpt lat="44.88375" lon="3.88982">
        <ele>981.64</ele>
        <time>2022-08-02T06:14:42Z</time>
      </trkpt>
      <trkpt lat="44.88366" lon="3.88971">
        <ele>983.57</ele>
        <time>2022-08-02T06:14:57Z</time>
      </trkpt>
      <trkpt lat="44.88362" lon="3.88957">
        <ele>984.53</ele>
        <time>2022-08-02T06:15:10Z</time>
      </trkpt>
      <trkpt lat="44.88362" lon="3.88937">
        <ele>986.93</ele>
        <time>2022-08-02T06:15:26Z</time>
      </trkpt>
      <trkpt lat="44.88363" lon="3.88936">
        <ele>986.93</ele>
        <time>2022-08-02T06:15:27Z</time>
      </trkpt>
      <trkpt lat="44.88372" lon="3.88935">
        <ele>989.81</ele>
        <time>2022-08-02T06:15:42Z</time>
      </trkpt>
      <trkpt lat="44.88381" lon="3.88927">
        <ele>990.78</ele>
        <time>2022-08-02T06:15:59Z</time>
      </trkpt>
      <trkpt lat="44.88384" lon="3.88922">
        <ele>991.26</ele>
        <time>2022-08-02T06:16:04Z</time>
      </trkpt>
      <trkpt lat="44.88392" lon="3.88899">
        <ele>994.14</ele>
        <time>2022-08-02T06:16:23Z</time>
      </trkpt>
      <trkpt lat="44.88395" lon="3.88878">
        <ele>997.51</ele>
        <time>2022-08-02T06:16:38Z</time>
      </trkpt>
      <trkpt lat="44.88398" lon="3.88868">
        <ele>999.43</ele>
        <time>2022-08-02T06:16:52Z</time>
      </trkpt>
      <trkpt lat="44.88399" lon="3.88856">
        <ele>1000.39</ele>
        <time>2022-08-02T06:17:02Z</time>
      </trkpt>
      <trkpt lat="44.884" lon="3.88852">
        <ele>1000.39</ele>
        <time>2022-08-02T06:17:05Z</time>
      </trkpt>
      <trkpt lat="44.88411" lon="3.88831">
        <ele>1001.83</ele>
        <time>2022-08-02T06:17:22Z</time>
      </trkpt>
      <trkpt lat="44.88423" lon="3.88812">
        <ele>1003.75</ele>
        <time>2022-08-02T06:17:39Z</time>
      </trkpt>
      <trkpt lat="44.88435" lon="3.88792">
        <ele>1005.2</ele>
        <time>2022-08-02T06:17:57Z</time>
      </trkpt>
      <trkpt lat="44.88442" lon="3.8878">
        <ele>1005.68</ele>
        <time>2022-08-02T06:18:08Z</time>
      </trkpt>
      <trkpt lat="44.88455" lon="3.88758">
        <ele>1005.2</ele>
        <time>2022-08-02T06:18:27Z</time>
      </trkpt>
      <trkpt lat="44.88465" lon="3.88737">
        <ele>1005.2</ele>
        <time>2022-08-02T06:18:43Z</time>
      </trkpt>
      <trkpt lat="44.88476" lon="3.88714">
        <ele>1006.16</ele>
        <time>2022-08-02T06:19:00Z</time>
      </trkpt>
      <trkpt lat="44.88486" lon="3.88693">
        <ele>1006.16</ele>
        <time>2022-08-02T06:19:17Z</time>
      </trkpt>
      <trkpt lat="44.88498" lon="3.88667">
        <ele>1008.08</ele>
        <time>2022-08-02T06:19:36Z</time>
      </trkpt>
      <trkpt lat="44.88506" lon="3.88642">
        <ele>1008.56</ele>
        <time>2022-08-02T06:19:53Z</time>
      </trkpt>
      <trkpt lat="44.88509" lon="3.88616">
        <ele>1009.52</ele>
        <time>2022-08-02T06:20:09Z</time>
      </trkpt>
      <trkpt lat="44.88509" lon="3.88596">
        <ele>1010</ele>
        <time>2022-08-02T06:20:23Z</time>
      </trkpt>
      <trkpt lat="44.88518" lon="3.88574">
        <ele>1010.96</ele>
        <time>2022-08-02T06:20:42Z</time>
      </trkpt>
      <trkpt lat="44.88536" lon="3.88561">
        <ele>1010.96</ele>
        <time>2022-08-02T06:21:00Z</time>
      </trkpt>
      <trkpt lat="44.88548" lon="3.88534">
        <ele>1010.48</ele>
        <time>2022-08-02T06:21:18Z</time>
      </trkpt>
      <trkpt lat="44.88553" lon="3.88505">
        <ele>1011.44</ele>
        <time>2022-08-02T06:21:35Z</time>
      </trkpt>
      <trkpt lat="44.88559" lon="3.88477">
        <ele>1011.93</ele>
        <time>2022-08-02T06:21:53Z</time>
      </trkpt>
      <trkpt lat="44.88565" lon="3.88453">
        <ele>1012.89</ele>
        <time>2022-08-02T06:22:09Z</time>
      </trkpt>
      <trkpt lat="44.88573" lon="3.88432">
        <ele>1013.85</ele>
        <time>2022-08-02T06:22:25Z</time>
      </trkpt>
      <trkpt lat="44.88573" lon="3.88407">
        <ele>1014.81</ele>
        <time>2022-08-02T06:22:40Z</time>
      </trkpt>
      <trkpt lat="44.88583" lon="3.88388">
        <ele>1015.29</ele>
        <time>2022-08-02T06:22:56Z</time>
      </trkpt>
      <trkpt lat="44.886" lon="3.88386">
        <ele>1013.85</ele>
        <time>2022-08-02T06:23:11Z</time>
      </trkpt>
      <trkpt lat="44.88617" lon="3.88382">
        <ele>1014.81</ele>
        <time>2022-08-02T06:23:26Z</time>
      </trkpt>
      <trkpt lat="44.88634" lon="3.8838">
        <ele>1015.29</ele>
        <time>2022-08-02T06:23:41Z</time>
      </trkpt>
      <trkpt lat="44.88635" lon="3.8838">
        <ele>1015.29</ele>
        <time>2022-08-02T06:23:42Z</time>
      </trkpt>
      <trkpt lat="44.88655" lon="3.88373">
        <ele>1015.29</ele>
        <time>2022-08-02T06:24:00Z</time>
      </trkpt>
      <trkpt lat="44.88673" lon="3.88358">
        <ele>1015.77</ele>
        <time>2022-08-02T06:24:18Z</time>
      </trkpt>
      <trkpt lat="44.88675" lon="3.88333">
        <ele>1016.73</ele>
        <time>2022-08-02T06:24:33Z</time>
      </trkpt>
      <trkpt lat="44.88675" lon="3.88328">
        <ele>1016.73</ele>
        <time>2022-08-02T06:24:36Z</time>
      </trkpt>
      <trkpt lat="44.88673" lon="3.88324">
        <ele>1016.25</ele>
        <time>2022-08-02T06:24:39Z</time>
      </trkpt>
      <trkpt lat="44.88673" lon="3.88296">
        <ele>1016.73</ele>
        <time>2022-08-02T06:24:54Z</time>
      </trkpt>
      <trkpt lat="44.88673" lon="3.88274">
        <ele>1017.69</ele>
        <time>2022-08-02T06:25:09Z</time>
      </trkpt>
      <trkpt lat="44.88679" lon="3.88252">
        <ele>1019.62</ele>
        <time>2022-08-02T06:25:25Z</time>
      </trkpt>
      <trkpt lat="44.88692" lon="3.88242">
        <ele>1021.06</ele>
        <time>2022-08-02T06:25:39Z</time>
      </trkpt>
      <trkpt lat="44.88708" lon="3.88242">
        <ele>1022.5</ele>
        <time>2022-08-02T06:25:53Z</time>
      </trkpt>
      <trkpt lat="44.88729" lon="3.88242">
        <ele>1024.42</ele>
        <time>2022-08-02T06:26:12Z</time>
      </trkpt>
      <trkpt lat="44.88742" lon="3.88241">
        <ele>1025.86</ele>
        <time>2022-08-02T06:26:23Z</time>
      </trkpt>
      <trkpt lat="44.88745" lon="3.88237">
        <ele>1025.86</ele>
        <time>2022-08-02T06:26:27Z</time>
      </trkpt>
      <trkpt lat="44.88749" lon="3.88219">
        <ele>1025.86</ele>
        <time>2022-08-02T06:26:40Z</time>
      </trkpt>
      <trkpt lat="44.8875" lon="3.88211">
        <ele>1025.38</ele>
        <time>2022-08-02T06:26:45Z</time>
      </trkpt>
      <trkpt lat="44.88751" lon="3.88205">
        <ele>1024.42</ele>
        <time>2022-08-02T06:26:49Z</time>
      </trkpt>
      <trkpt lat="44.88753" lon="3.88193">
        <ele>1023.94</ele>
        <time>2022-08-02T06:26:56Z</time>
      </trkpt>
      <trkpt lat="44.88757" lon="3.88169">
        <ele>1024.42</ele>
        <time>2022-08-02T06:27:11Z</time>
      </trkpt>
      <trkpt lat="44.88757" lon="3.88144">
        <ele>1025.38</ele>
        <time>2022-08-02T06:27:28Z</time>
      </trkpt>
      <trkpt lat="44.88756" lon="3.88136">
        <ele>1024.9</ele>
        <time>2022-08-02T06:27:45Z</time>
      </trkpt>
      <trkpt lat="44.88754" lon="3.88136">
        <ele>1025.86</ele>
        <time>2022-08-02T06:27:58Z</time>
      </trkpt>
      <trkpt lat="44.88752" lon="3.88138">
        <ele>1026.83</ele>
        <time>2022-08-02T06:28:22Z</time>
      </trkpt>
      <trkpt lat="44.88751" lon="3.88138">
        <ele>1027.79</ele>
        <time>2022-08-02T06:28:38Z</time>
      </trkpt>
      <trkpt lat="44.88752" lon="3.88138">
        <ele>1025.38</ele>
        <time>2022-08-02T06:29:05Z</time>
      </trkpt>
      <trkpt lat="44.88752" lon="3.88139">
        <ele>1027.31</ele>
        <time>2022-08-02T06:29:28Z</time>
      </trkpt>
      <trkpt lat="44.88754" lon="3.88132">
        <ele>1027.79</ele>
        <time>2022-08-02T06:29:50Z</time>
      </trkpt>
      <trkpt lat="44.88755" lon="3.8813">
        <ele>1027.79</ele>
        <time>2022-08-02T06:29:52Z</time>
      </trkpt>
      <trkpt lat="44.88763" lon="3.88115">
        <ele>1028.75</ele>
        <time>2022-08-02T06:30:06Z</time>
      </trkpt>
      <trkpt lat="44.88776" lon="3.88105">
        <ele>1028.27</ele>
        <time>2022-08-02T06:30:20Z</time>
      </trkpt>
      <trkpt lat="44.88791" lon="3.88092">
        <ele>1028.27</ele>
        <time>2022-08-02T06:30:35Z</time>
      </trkpt>
      <trkpt lat="44.88807" lon="3.88082">
        <ele>1030.67</ele>
        <time>2022-08-02T06:30:50Z</time>
      </trkpt>
      <trkpt lat="44.88811" lon="3.88077">
        <ele>1032.11</ele>
        <time>2022-08-02T06:30:56Z</time>
      </trkpt>
      <trkpt lat="44.88814" lon="3.88069">
        <ele>1032.11</ele>
        <time>2022-08-02T06:31:01Z</time>
      </trkpt>
      <trkpt lat="44.88817" lon="3.88067">
        <ele>1032.11</ele>
        <time>2022-08-02T06:31:03Z</time>
      </trkpt>
      <trkpt lat="44.88824" lon="3.88063">
        <ele>1032.11</ele>
        <time>2022-08-02T06:31:19Z</time>
      </trkpt>
      <trkpt lat="44.88824" lon="3.88057">
        <ele>1035.96</ele>
        <time>2022-08-02T06:31:47Z</time>
      </trkpt>
      <trkpt lat="44.88819" lon="3.8805">
        <ele>1042.21</ele>
        <time>2022-08-02T06:32:09Z</time>
      </trkpt>
      <trkpt lat="44.88822" lon="3.88056">
        <ele>1039.8</ele>
        <time>2022-08-02T06:32:32Z</time>
      </trkpt>
      <trkpt lat="44.88821" lon="3.88058">
        <ele>1040.76</ele>
        <time>2022-08-02T06:33:00Z</time>
      </trkpt>
      <trkpt lat="44.88817" lon="3.88059">
        <ele>1043.65</ele>
        <time>2022-08-02T06:33:35Z</time>
      </trkpt>
      <trkpt lat="44.88816" lon="3.88057">
        <ele>1047.01</ele>
        <time>2022-08-02T06:34:03Z</time>
      </trkpt>
      <trkpt lat="44.88821" lon="3.88057">
        <ele>1047.49</ele>
        <time>2022-08-02T06:34:37Z</time>
      </trkpt>
      <trkpt lat="44.88817" lon="3.88054">
        <ele>1047.97</ele>
        <time>2022-08-02T06:35:13Z</time>
      </trkpt>
      <trkpt lat="44.8882" lon="3.88053">
        <ele>1049.42</ele>
        <time>2022-08-02T06:35:46Z</time>
      </trkpt>
      <trkpt lat="44.88821" lon="3.88051">
        <ele>1052.78</ele>
        <time>2022-08-02T06:36:18Z</time>
      </trkpt>
      <trkpt lat="44.88814" lon="3.88046">
        <ele>1050.38</ele>
        <time>2022-08-02T06:36:45Z</time>
      </trkpt>
      <trkpt lat="44.88815" lon="3.88044">
        <ele>1048.94</ele>
        <time>2022-08-02T06:37:11Z</time>
      </trkpt>
      <trkpt lat="44.88801" lon="3.88039">
        <ele>1049.9</ele>
        <time>2022-08-02T06:37:48Z</time>
      </trkpt>
      <trkpt lat="44.88802" lon="3.8804">
        <ele>1049.9</ele>
        <time>2022-08-02T06:38:22Z</time>
      </trkpt>
      <trkpt lat="44.88811" lon="3.88054">
        <ele>1047.01</ele>
        <time>2022-08-02T06:38:51Z</time>
      </trkpt>
      <trkpt lat="44.88812" lon="3.88052">
        <ele>1047.01</ele>
        <time>2022-08-02T06:39:24Z</time>
      </trkpt>
      <trkpt lat="44.88814" lon="3.88055">
        <ele>1043.65</ele>
        <time>2022-08-02T06:39:57Z</time>
      </trkpt>
      <trkpt lat="44.8882" lon="3.88056">
        <ele>1041.25</ele>
        <time>2022-08-02T06:40:27Z</time>
      </trkpt>
      <trkpt lat="44.8882" lon="3.88057">
        <ele>1038.36</ele>
        <time>2022-08-02T06:41:01Z</time>
      </trkpt>
      <trkpt lat="44.88819" lon="3.88054">
        <ele>1043.65</ele>
        <time>2022-08-02T06:41:40Z</time>
      </trkpt>
      <trkpt lat="44.8882" lon="3.88054">
        <ele>1042.69</ele>
        <time>2022-08-02T06:42:15Z</time>
      </trkpt>
      <trkpt lat="44.88822" lon="3.88059">
        <ele>1036.44</ele>
        <time>2022-08-02T06:42:50Z</time>
      </trkpt>
      <trkpt lat="44.8882" lon="3.88048">
        <ele>1037.4</ele>
        <time>2022-08-02T06:43:26Z</time>
      </trkpt>
      <trkpt lat="44.88817" lon="3.8805">
        <ele>1036.92</ele>
        <time>2022-08-02T06:43:58Z</time>
      </trkpt>
      <trkpt lat="44.88816" lon="3.88054">
        <ele>1039.32</ele>
        <time>2022-08-02T06:44:28Z</time>
      </trkpt>
      <trkpt lat="44.88815" lon="3.88051">
        <ele>1042.21</ele>
        <time>2022-08-02T06:45:06Z</time>
      </trkpt>
      <trkpt lat="44.88813" lon="3.88051">
        <ele>1044.61</ele>
        <time>2022-08-02T06:45:43Z</time>
      </trkpt>
      <trkpt lat="44.88821" lon="3.88062">
        <ele>1040.76</ele>
        <time>2022-08-02T06:46:17Z</time>
      </trkpt>
      <trkpt lat="44.88818" lon="3.88054">
        <ele>1037.4</ele>
        <time>2022-08-02T06:46:43Z</time>
      </trkpt>
      <trkpt lat="44.88816" lon="3.88054">
        <ele>1037.88</ele>
        <time>2022-08-02T06:47:10Z</time>
      </trkpt>
      <trkpt lat="44.88816" lon="3.88053">
        <ele>1038.36</ele>
        <time>2022-08-02T06:47:33Z</time>
      </trkpt>
      <trkpt lat="44.88817" lon="3.88051">
        <ele>1041.25</ele>
        <time>2022-08-02T06:47:52Z</time>
      </trkpt>
      <trkpt lat="44.88817" lon="3.88054">
        <ele>1040.28</ele>
        <time>2022-08-02T06:48:16Z</time>
      </trkpt>
      <trkpt lat="44.88817" lon="3.88055">
        <ele>1038.84</ele>
        <time>2022-08-02T06:48:39Z</time>
      </trkpt>
      <trkpt lat="44.88819" lon="3.88057">
        <ele>1038.36</ele>
        <time>2022-08-02T06:48:57Z</time>
      </trkpt>
      <trkpt lat="44.88817" lon="3.88055">
        <ele>1038.36</ele>
        <time>2022-08-02T06:49:24Z</time>
      </trkpt>
      <trkpt lat="44.88817" lon="3.88055">
        <ele>1037.88</ele>
        <time>2022-08-02T06:49:51Z</time>
      </trkpt>
      <trkpt lat="44.88813" lon="3.88055">
        <ele>1037.4</ele>
        <time>2022-08-02T06:50:17Z</time>
      </trkpt>
      <trkpt lat="44.8881" lon="3.88055">
        <ele>1037.88</ele>
        <time>2022-08-02T06:50:43Z</time>
      </trkpt>
      <trkpt lat="44.88814" lon="3.8805">
        <ele>1044.61</ele>
        <time>2022-08-02T06:51:11Z</time>
      </trkpt>
      <trkpt lat="44.88816" lon="3.88053">
        <ele>1047.01</ele>
        <time>2022-08-02T06:51:42Z</time>
      </trkpt>
      <trkpt lat="44.88814" lon="3.8805">
        <ele>1050.86</ele>
        <time>2022-08-02T06:52:09Z</time>
      </trkpt>
      <trkpt lat="44.88815" lon="3.88052">
        <ele>1049.9</ele>
        <time>2022-08-02T06:52:41Z</time>
      </trkpt>
      <trkpt lat="44.88819" lon="3.88057">
        <ele>1046.53</ele>
        <time>2022-08-02T06:53:08Z</time>
      </trkpt>
      <trkpt lat="44.88821" lon="3.88059">
        <ele>1042.69</ele>
        <time>2022-08-02T06:53:36Z</time>
      </trkpt>
      <trkpt lat="44.88824" lon="3.88063">
        <ele>1040.76</ele>
        <time>2022-08-02T06:54:07Z</time>
      </trkpt>
      <trkpt lat="44.88824" lon="3.8806">
        <ele>1040.28</ele>
        <time>2022-08-02T06:54:26Z</time>
      </trkpt>
      <trkpt lat="44.8882" lon="3.88056">
        <ele>1040.76</ele>
        <time>2022-08-02T06:54:46Z</time>
      </trkpt>
      <trkpt lat="44.88813" lon="3.88049">
        <ele>1043.17</ele>
        <time>2022-08-02T06:55:07Z</time>
      </trkpt>
      <trkpt lat="44.88821" lon="3.88054">
        <ele>1040.76</ele>
        <time>2022-08-02T06:55:35Z</time>
      </trkpt>
      <trkpt lat="44.88821" lon="3.88052">
        <ele>1040.76</ele>
        <time>2022-08-02T06:55:56Z</time>
      </trkpt>
      <trkpt lat="44.88821" lon="3.88053">
        <ele>1036.92</ele>
        <time>2022-08-02T06:56:16Z</time>
      </trkpt>
      <trkpt lat="44.88819" lon="3.88051">
        <ele>1035.48</ele>
        <time>2022-08-02T06:56:40Z</time>
      </trkpt>
      <trkpt lat="44.88817" lon="3.88052">
        <ele>1033.55</ele>
        <time>2022-08-02T06:57:03Z</time>
      </trkpt>
      <trkpt lat="44.88819" lon="3.88054">
        <ele>1032.59</ele>
        <time>2022-08-02T06:57:31Z</time>
      </trkpt>
      <trkpt lat="44.8882" lon="3.88053">
        <ele>1033.07</ele>
        <time>2022-08-02T06:57:45Z</time>
      </trkpt>
      <trkpt lat="44.8882" lon="3.88051">
        <ele>1036.92</ele>
        <time>2022-08-02T06:58:08Z</time>
      </trkpt>
      <trkpt lat="44.88821" lon="3.88051">
        <ele>1036.44</ele>
        <time>2022-08-02T06:58:31Z</time>
      </trkpt>
      <trkpt lat="44.88821" lon="3.88053">
        <ele>1038.36</ele>
        <time>2022-08-02T06:58:49Z</time>
      </trkpt>
      <trkpt lat="44.88821" lon="3.88056">
        <ele>1039.32</ele>
        <time>2022-08-02T06:59:09Z</time>
      </trkpt>
      <trkpt lat="44.88822" lon="3.88056">
        <ele>1039.8</ele>
        <time>2022-08-02T06:59:28Z</time>
      </trkpt>
      <trkpt lat="44.88823" lon="3.88057">
        <ele>1039.32</ele>
        <time>2022-08-02T06:59:47Z</time>
      </trkpt>
      <trkpt lat="44.88823" lon="3.88058">
        <ele>1038.84</ele>
        <time>2022-08-02T07:00:13Z</time>
      </trkpt>
      <trkpt lat="44.88821" lon="3.88056">
        <ele>1035.48</ele>
        <time>2022-08-02T07:00:33Z</time>
      </trkpt>
      <trkpt lat="44.88821" lon="3.88057">
        <ele>1033.55</ele>
        <time>2022-08-02T07:00:54Z</time>
      </trkpt>
      <trkpt lat="44.8882" lon="3.88058">
        <ele>1032.59</ele>
        <time>2022-08-02T07:01:12Z</time>
      </trkpt>
      <trkpt lat="44.88818" lon="3.88057">
        <ele>1032.11</ele>
        <time>2022-08-02T07:01:34Z</time>
      </trkpt>
      <trkpt lat="44.88822" lon="3.88059">
        <ele>1032.59</ele>
        <time>2022-08-02T07:02:02Z</time>
      </trkpt>
      <trkpt lat="44.88823" lon="3.8806">
        <ele>1033.07</ele>
        <time>2022-08-02T07:02:25Z</time>
      </trkpt>
      <trkpt lat="44.88822" lon="3.8806">
        <ele>1033.07</ele>
        <time>2022-08-02T07:02:53Z</time>
      </trkpt>
      <trkpt lat="44.8882" lon="3.88054">
        <ele>1038.36</ele>
        <time>2022-08-02T07:03:20Z</time>
      </trkpt>
      <trkpt lat="44.88821" lon="3.88054">
        <ele>1040.76</ele>
        <time>2022-08-02T07:03:42Z</time>
      </trkpt>
      <trkpt lat="44.8882" lon="3.88053">
        <ele>1040.28</ele>
        <time>2022-08-02T07:04:00Z</time>
      </trkpt>
      <trkpt lat="44.88818" lon="3.88052">
        <ele>1042.69</ele>
        <time>2022-08-02T07:04:24Z</time>
      </trkpt>
      <trkpt lat="44.88818" lon="3.88052">
        <ele>1041.73</ele>
        <time>2022-08-02T07:04:47Z</time>
      </trkpt>
      <trkpt lat="44.88814" lon="3.88048">
        <ele>1043.65</ele>
        <time>2022-08-02T07:05:12Z</time>
      </trkpt>
      <trkpt lat="44.88811" lon="3.88046">
        <ele>1045.09</ele>
        <time>2022-08-02T07:05:39Z</time>
      </trkpt>
      <trkpt lat="44.8881" lon="3.88046">
        <ele>1047.49</ele>
        <time>2022-08-02T07:06:08Z</time>
      </trkpt>
      <trkpt lat="44.8881" lon="3.88044">
        <ele>1047.49</ele>
        <time>2022-08-02T07:06:32Z</time>
      </trkpt>
      <trkpt lat="44.88813" lon="3.88042">
        <ele>1050.86</ele>
        <time>2022-08-02T07:06:54Z</time>
      </trkpt>
      <trkpt lat="44.88818" lon="3.88052">
        <ele>1049.42</ele>
        <time>2022-08-02T07:07:18Z</time>
      </trkpt>
      <trkpt lat="44.88822" lon="3.88058">
        <ele>1046.05</ele>
        <time>2022-08-02T07:07:44Z</time>
      </trkpt>
      <trkpt lat="44.8882" lon="3.88058">
        <ele>1044.13</ele>
        <time>2022-08-02T07:08:10Z</time>
      </trkpt>
      <trkpt lat="44.88824" lon="3.88067">
        <ele>1040.28</ele>
        <time>2022-08-02T07:08:39Z</time>
      </trkpt>
      <trkpt lat="44.88824" lon="3.88064">
        <ele>1035.48</ele>
        <time>2022-08-02T07:09:06Z</time>
      </trkpt>
      <trkpt lat="44.88826" lon="3.88071">
        <ele>1036.44</ele>
        <time>2022-08-02T07:09:41Z</time>
      </trkpt>
      <trkpt lat="44.88819" lon="3.88058">
        <ele>1036.44</ele>
        <time>2022-08-02T07:10:07Z</time>
      </trkpt>
      <trkpt lat="44.88814" lon="3.88058">
        <ele>1040.76</ele>
        <time>2022-08-02T07:10:42Z</time>
      </trkpt>
      <trkpt lat="44.88815" lon="3.88051">
        <ele>1036.92</ele>
        <time>2022-08-02T07:11:15Z</time>
      </trkpt>
      <trkpt lat="44.88814" lon="3.88047">
        <ele>1038.36</ele>
        <time>2022-08-02T07:11:32Z</time>
      </trkpt>
      <trkpt lat="44.88813" lon="3.88043">
        <ele>1039.8</ele>
        <time>2022-08-02T07:12:02Z</time>
      </trkpt>
      <trkpt lat="44.88814" lon="3.88043">
        <ele>1039.8</ele>
        <time>2022-08-02T07:12:23Z</time>
      </trkpt>
      <trkpt lat="44.88815" lon="3.88037">
        <ele>1043.17</ele>
        <time>2022-08-02T07:12:55Z</time>
      </trkpt>
      <trkpt lat="44.88813" lon="3.8805">
        <ele>1039.32</ele>
        <time>2022-08-02T07:13:11Z</time>
      </trkpt>
      <trkpt lat="44.88816" lon="3.88058">
        <ele>1032.59</ele>
        <time>2022-08-02T07:13:42Z</time>
      </trkpt>
      <trkpt lat="44.88808" lon="3.88068">
        <ele>1029.23</ele>
        <time>2022-08-02T07:13:52Z</time>
      </trkpt>
      <trkpt lat="44.88795" lon="3.88079">
        <ele>1032.11</ele>
        <time>2022-08-02T07:14:04Z</time>
      </trkpt>
      <trkpt lat="44.88794" lon="3.8808">
        <ele>1032.59</ele>
        <time>2022-08-02T07:14:05Z</time>
      </trkpt>
      <trkpt lat="44.88793" lon="3.88083">
        <ele>1032.59</ele>
        <time>2022-08-02T07:14:07Z</time>
      </trkpt>
      <trkpt lat="44.88787" lon="3.88088">
        <ele>1033.07</ele>
        <time>2022-08-02T07:14:12Z</time>
      </trkpt>
      <trkpt lat="44.88773" lon="3.88105">
        <ele>1036.44</ele>
        <time>2022-08-02T07:14:26Z</time>
      </trkpt>
      <trkpt lat="44.88759" lon="3.88114">
        <ele>1037.4</ele>
        <time>2022-08-02T07:14:40Z</time>
      </trkpt>
      <trkpt lat="44.88748" lon="3.88106">
        <ele>1036.92</ele>
        <time>2022-08-02T07:14:53Z</time>
      </trkpt>
      <trkpt lat="44.88745" lon="3.88103">
        <ele>1036.92</ele>
        <time>2022-08-02T07:14:57Z</time>
      </trkpt>
      <trkpt lat="44.88734" lon="3.88088">
        <ele>1041.73</ele>
        <time>2022-08-02T07:15:12Z</time>
      </trkpt>
      <trkpt lat="44.8873" lon="3.88082">
        <ele>1044.13</ele>
        <time>2022-08-02T07:15:18Z</time>
      </trkpt>
      <trkpt lat="44.88713" lon="3.88065">
        <ele>1040.28</ele>
        <time>2022-08-02T07:15:35Z</time>
      </trkpt>
      <trkpt lat="44.88702" lon="3.88058">
        <ele>1041.25</ele>
        <time>2022-08-02T07:15:47Z</time>
      </trkpt>
      <trkpt lat="44.88677" lon="3.8805">
        <ele>1042.69</ele>
        <time>2022-08-02T07:16:04Z</time>
      </trkpt>
      <trkpt lat="44.88659" lon="3.88051">
        <ele>1042.69</ele>
        <time>2022-08-02T07:16:19Z</time>
      </trkpt>
      <trkpt lat="44.88642" lon="3.88047">
        <ele>1043.17</ele>
        <time>2022-08-02T07:16:33Z</time>
      </trkpt>
      <trkpt lat="44.88624" lon="3.88028">
        <ele>1041.25</ele>
        <time>2022-08-02T07:16:52Z</time>
      </trkpt>
      <trkpt lat="44.88618" lon="3.88021">
        <ele>1041.73</ele>
        <time>2022-08-02T07:17:01Z</time>
      </trkpt>
      <trkpt lat="44.88575" lon="3.88005">
        <ele>1038.36</ele>
        <time>2022-08-02T07:17:32Z</time>
      </trkpt>
      <trkpt lat="44.88578" lon="3.87976">
        <ele>1034.04</ele>
        <time>2022-08-02T07:17:48Z</time>
      </trkpt>
      <trkpt lat="44.88579" lon="3.87971">
        <ele>1033.07</ele>
        <time>2022-08-02T07:17:51Z</time>
      </trkpt>
      <trkpt lat="44.8858" lon="3.87946">
        <ele>1033.55</ele>
        <time>2022-08-02T07:18:05Z</time>
      </trkpt>
      <trkpt lat="44.88582" lon="3.87921">
        <ele>1032.59</ele>
        <time>2022-08-02T07:18:20Z</time>
      </trkpt>
      <trkpt lat="44.88581" lon="3.87897">
        <ele>1033.07</ele>
        <time>2022-08-02T07:18:36Z</time>
      </trkpt>
      <trkpt lat="44.88579" lon="3.8788">
        <ele>1033.55</ele>
        <time>2022-08-02T07:18:50Z</time>
      </trkpt>
      <trkpt lat="44.88578" lon="3.87871">
        <ele>1032.59</ele>
        <time>2022-08-02T07:18:55Z</time>
      </trkpt>
      <trkpt lat="44.88573" lon="3.87838">
        <ele>1032.59</ele>
        <time>2022-08-02T07:19:14Z</time>
      </trkpt>
      <trkpt lat="44.88571" lon="3.87815">
        <ele>1032.11</ele>
        <time>2022-08-02T07:19:28Z</time>
      </trkpt>
      <trkpt lat="44.88569" lon="3.87792">
        <ele>1030.67</ele>
        <time>2022-08-02T07:19:42Z</time>
      </trkpt>
      <trkpt lat="44.88569" lon="3.87789">
        <ele>1030.67</ele>
        <time>2022-08-02T07:19:44Z</time>
      </trkpt>
      <trkpt lat="44.88568" lon="3.87782">
        <ele>1030.67</ele>
        <time>2022-08-02T07:19:48Z</time>
      </trkpt>
      <trkpt lat="44.88565" lon="3.87754">
        <ele>1032.11</ele>
        <time>2022-08-02T07:20:06Z</time>
      </trkpt>
      <trkpt lat="44.88565" lon="3.87727">
        <ele>1032.59</ele>
        <time>2022-08-02T07:20:23Z</time>
      </trkpt>
      <trkpt lat="44.88564" lon="3.877">
        <ele>1033.55</ele>
        <time>2022-08-02T07:20:39Z</time>
      </trkpt>
      <trkpt lat="44.88565" lon="3.87694">
        <ele>1034.04</ele>
        <time>2022-08-02T07:20:43Z</time>
      </trkpt>
      <trkpt lat="44.88568" lon="3.8769">
        <ele>1034.04</ele>
        <time>2022-08-02T07:20:47Z</time>
      </trkpt>
      <trkpt lat="44.88567" lon="3.87666">
        <ele>1035.96</ele>
        <time>2022-08-02T07:21:03Z</time>
      </trkpt>
      <trkpt lat="44.88564" lon="3.87656">
        <ele>1036.44</ele>
        <time>2022-08-02T07:21:11Z</time>
      </trkpt>
      <trkpt lat="44.88569" lon="3.87643">
        <ele>1036.92</ele>
        <time>2022-08-02T07:21:27Z</time>
      </trkpt>
      <trkpt lat="44.88571" lon="3.87644">
        <ele>1037.88</ele>
        <time>2022-08-02T07:22:00Z</time>
      </trkpt>
      <trkpt lat="44.88571" lon="3.87644">
        <ele>1039.32</ele>
        <time>2022-08-02T07:22:17Z</time>
      </trkpt>
      <trkpt lat="44.88565" lon="3.87636">
        <ele>1040.76</ele>
        <time>2022-08-02T07:22:31Z</time>
      </trkpt>
      <trkpt lat="44.88563" lon="3.87636">
        <ele>1039.8</ele>
        <time>2022-08-02T07:22:48Z</time>
      </trkpt>
      <trkpt lat="44.88561" lon="3.87635">
        <ele>1039.8</ele>
        <time>2022-08-02T07:22:50Z</time>
      </trkpt>
      <trkpt lat="44.8856" lon="3.87635">
        <ele>1039.32</ele>
        <time>2022-08-02T07:22:59Z</time>
      </trkpt>
      <trkpt lat="44.88563" lon="3.87637">
        <ele>1039.32</ele>
        <time>2022-08-02T07:23:13Z</time>
      </trkpt>
      <trkpt lat="44.88562" lon="3.87635">
        <ele>1038.84</ele>
        <time>2022-08-02T07:23:26Z</time>
      </trkpt>
      <trkpt lat="44.88561" lon="3.87634">
        <ele>1037.4</ele>
        <time>2022-08-02T07:23:42Z</time>
      </trkpt>
      <trkpt lat="44.88552" lon="3.87629">
        <ele>1037.4</ele>
        <time>2022-08-02T07:23:51Z</time>
      </trkpt>
      <trkpt lat="44.88537" lon="3.87619">
        <ele>1038.84</ele>
        <time>2022-08-02T07:24:04Z</time>
      </trkpt>
      <trkpt lat="44.88525" lon="3.876">
        <ele>1039.8</ele>
        <time>2022-08-02T07:24:18Z</time>
      </trkpt>
      <trkpt lat="44.88516" lon="3.87578">
        <ele>1039.8</ele>
        <time>2022-08-02T07:24:33Z</time>
      </trkpt>
      <trkpt lat="44.88511" lon="3.8757">
        <ele>1039.32</ele>
        <time>2022-08-02T07:24:39Z</time>
      </trkpt>
      <trkpt lat="44.88492" lon="3.87572">
        <ele>1039.32</ele>
        <time>2022-08-02T07:24:56Z</time>
      </trkpt>
      <trkpt lat="44.88473" lon="3.87576">
        <ele>1039.8</ele>
        <time>2022-08-02T07:25:11Z</time>
      </trkpt>
      <trkpt lat="44.88468" lon="3.87577">
        <ele>1040.28</ele>
        <time>2022-08-02T07:25:15Z</time>
      </trkpt>
      <trkpt lat="44.88457" lon="3.87576">
        <ele>1040.76</ele>
        <time>2022-08-02T07:25:24Z</time>
      </trkpt>
      <trkpt lat="44.88448" lon="3.87558">
        <ele>1041.73</ele>
        <time>2022-08-02T07:25:38Z</time>
      </trkpt>
      <trkpt lat="44.88447" lon="3.8755">
        <ele>1041.73</ele>
        <time>2022-08-02T07:25:42Z</time>
      </trkpt>
      <trkpt lat="44.88446" lon="3.87533">
        <ele>1041.73</ele>
        <time>2022-08-02T07:25:51Z</time>
      </trkpt>
      <trkpt lat="44.88444" lon="3.87504">
        <ele>1041.73</ele>
        <time>2022-08-02T07:26:07Z</time>
      </trkpt>
      <trkpt lat="44.88441" lon="3.87476">
        <ele>1042.21</ele>
        <time>2022-08-02T07:26:23Z</time>
      </trkpt>
      <trkpt lat="44.88431" lon="3.87448">
        <ele>1042.69</ele>
        <time>2022-08-02T07:26:40Z</time>
      </trkpt>
      <trkpt lat="44.88421" lon="3.87424">
        <ele>1043.65</ele>
        <time>2022-08-02T07:26:56Z</time>
      </trkpt>
      <trkpt lat="44.88416" lon="3.87399">
        <ele>1044.61</ele>
        <time>2022-08-02T07:27:11Z</time>
      </trkpt>
      <trkpt lat="44.8842" lon="3.87371">
        <ele>1046.05</ele>
        <time>2022-08-02T07:27:27Z</time>
      </trkpt>
      <trkpt lat="44.88423" lon="3.87343">
        <ele>1046.53</ele>
        <time>2022-08-02T07:27:43Z</time>
      </trkpt>
      <trkpt lat="44.88426" lon="3.87317">
        <ele>1047.01</ele>
        <time>2022-08-02T07:27:58Z</time>
      </trkpt>
      <trkpt lat="44.8843" lon="3.87287">
        <ele>1047.01</ele>
        <time>2022-08-02T07:28:16Z</time>
      </trkpt>
      <trkpt lat="44.88432" lon="3.87258">
        <ele>1047.49</ele>
        <time>2022-08-02T07:28:32Z</time>
      </trkpt>
      <trkpt lat="44.88435" lon="3.8723">
        <ele>1049.42</ele>
        <time>2022-08-02T07:28:48Z</time>
      </trkpt>
      <trkpt lat="44.88437" lon="3.87214">
        <ele>1049.42</ele>
        <time>2022-08-02T07:28:57Z</time>
      </trkpt>
      <trkpt lat="44.88439" lon="3.87204">
        <ele>1049.42</ele>
        <time>2022-08-02T07:29:03Z</time>
      </trkpt>
      <trkpt lat="44.88446" lon="3.87175">
        <ele>1048.45</ele>
        <time>2022-08-02T07:29:20Z</time>
      </trkpt>
      <trkpt lat="44.88451" lon="3.87153">
        <ele>1047.97</ele>
        <time>2022-08-02T07:29:34Z</time>
      </trkpt>
      <trkpt lat="44.88458" lon="3.87129">
        <ele>1046.05</ele>
        <time>2022-08-02T07:29:48Z</time>
      </trkpt>
      <trkpt lat="44.88457" lon="3.87106">
        <ele>1046.53</ele>
        <time>2022-08-02T07:30:02Z</time>
      </trkpt>
      <trkpt lat="44.88455" lon="3.87076">
        <ele>1047.97</ele>
        <time>2022-08-02T07:30:19Z</time>
      </trkpt>
      <trkpt lat="44.88454" lon="3.87071">
        <ele>1048.45</ele>
        <time>2022-08-02T07:30:22Z</time>
      </trkpt>
      <trkpt lat="44.88448" lon="3.87043">
        <ele>1047.97</ele>
        <time>2022-08-02T07:30:38Z</time>
      </trkpt>
      <trkpt lat="44.88443" lon="3.87016">
        <ele>1048.94</ele>
        <time>2022-08-02T07:30:54Z</time>
      </trkpt>
      <trkpt lat="44.88439" lon="3.86987">
        <ele>1049.9</ele>
        <time>2022-08-02T07:31:11Z</time>
      </trkpt>
      <trkpt lat="44.88437" lon="3.86966">
        <ele>1049.42</ele>
        <time>2022-08-02T07:31:24Z</time>
      </trkpt>
      <trkpt lat="44.88435" lon="3.86939">
        <ele>1049.42</ele>
        <time>2022-08-02T07:31:40Z</time>
      </trkpt>
      <trkpt lat="44.88432" lon="3.86916">
        <ele>1048.94</ele>
        <time>2022-08-02T07:31:54Z</time>
      </trkpt>
      <trkpt lat="44.88431" lon="3.86893">
        <ele>1048.94</ele>
        <time>2022-08-02T07:32:07Z</time>
      </trkpt>
      <trkpt lat="44.88429" lon="3.86868">
        <ele>1049.9</ele>
        <time>2022-08-02T07:32:22Z</time>
      </trkpt>
      <trkpt lat="44.88427" lon="3.86841">
        <ele>1051.34</ele>
        <time>2022-08-02T07:32:38Z</time>
      </trkpt>
      <trkpt lat="44.88425" lon="3.86817">
        <ele>1054.22</ele>
        <time>2022-08-02T07:32:52Z</time>
      </trkpt>
      <trkpt lat="44.88421" lon="3.86795">
        <ele>1056.63</ele>
        <time>2022-08-02T07:33:04Z</time>
      </trkpt>
      <trkpt lat="44.88416" lon="3.86764">
        <ele>1056.15</ele>
        <time>2022-08-02T07:33:21Z</time>
      </trkpt>
      <trkpt lat="44.88416" lon="3.86736">
        <ele>1056.63</ele>
        <time>2022-08-02T07:33:37Z</time>
      </trkpt>
      <trkpt lat="44.88414" lon="3.8671">
        <ele>1057.59</ele>
        <time>2022-08-02T07:33:52Z</time>
      </trkpt>
      <trkpt lat="44.8841" lon="3.86685">
        <ele>1057.11</ele>
        <time>2022-08-02T07:34:07Z</time>
      </trkpt>
      <trkpt lat="44.88404" lon="3.86656">
        <ele>1056.63</ele>
        <time>2022-08-02T07:34:23Z</time>
      </trkpt>
      <trkpt lat="44.884" lon="3.86629">
        <ele>1056.15</ele>
        <time>2022-08-02T07:34:39Z</time>
      </trkpt>
      <trkpt lat="44.88396" lon="3.86602">
        <ele>1056.15</ele>
        <time>2022-08-02T07:34:54Z</time>
      </trkpt>
      <trkpt lat="44.88393" lon="3.86571">
        <ele>1056.63</ele>
        <time>2022-08-02T07:35:12Z</time>
      </trkpt>
      <trkpt lat="44.88392" lon="3.86564">
        <ele>1056.63</ele>
        <time>2022-08-02T07:35:16Z</time>
      </trkpt>
      <trkpt lat="44.88388" lon="3.86538">
        <ele>1058.07</ele>
        <time>2022-08-02T07:35:33Z</time>
      </trkpt>
      <trkpt lat="44.88392" lon="3.86532">
        <ele>1057.59</ele>
        <time>2022-08-02T07:35:45Z</time>
      </trkpt>
      <trkpt lat="44.88393" lon="3.86531">
        <ele>1057.11</ele>
        <time>2022-08-02T07:35:46Z</time>
      </trkpt>
      <trkpt lat="44.88408" lon="3.86517">
        <ele>1056.15</ele>
        <time>2022-08-02T07:36:04Z</time>
      </trkpt>
      <trkpt lat="44.88409" lon="3.86516">
        <ele>1056.15</ele>
        <time>2022-08-02T07:36:05Z</time>
      </trkpt>
      <trkpt lat="44.88411" lon="3.86512">
        <ele>1055.67</ele>
        <time>2022-08-02T07:36:08Z</time>
      </trkpt>
      <trkpt lat="44.8842" lon="3.86505">
        <ele>1055.67</ele>
        <time>2022-08-02T07:36:18Z</time>
      </trkpt>
      <trkpt lat="44.88426" lon="3.86502">
        <ele>1056.63</ele>
        <time>2022-08-02T07:36:34Z</time>
      </trkpt>
      <trkpt lat="44.88425" lon="3.86501">
        <ele>1057.11</ele>
        <time>2022-08-02T07:36:39Z</time>
      </trkpt>
      <trkpt lat="44.88416" lon="3.86505">
        <ele>1057.11</ele>
        <time>2022-08-02T07:36:48Z</time>
      </trkpt>
      <trkpt lat="44.88414" lon="3.86509">
        <ele>1057.11</ele>
        <time>2022-08-02T07:36:51Z</time>
      </trkpt>
      <trkpt lat="44.88408" lon="3.86512">
        <ele>1056.63</ele>
        <time>2022-08-02T07:36:57Z</time>
      </trkpt>
      <trkpt lat="44.88398" lon="3.86519">
        <ele>1057.11</ele>
        <time>2022-08-02T07:37:06Z</time>
      </trkpt>
      <trkpt lat="44.88388" lon="3.86533">
        <ele>1058.55</ele>
        <time>2022-08-02T07:37:20Z</time>
      </trkpt>
      <trkpt lat="44.88386" lon="3.86533">
        <ele>1059.03</ele>
        <time>2022-08-02T07:37:22Z</time>
      </trkpt>
      <trkpt lat="44.88384" lon="3.86526">
        <ele>1060.47</ele>
        <time>2022-08-02T07:37:28Z</time>
      </trkpt>
      <trkpt lat="44.88384" lon="3.86524">
        <ele>1060.95</ele>
        <time>2022-08-02T07:37:30Z</time>
      </trkpt>
      <trkpt lat="44.88382" lon="3.86492">
        <ele>1062.39</ele>
        <time>2022-08-02T07:37:49Z</time>
      </trkpt>
      <trkpt lat="44.8838" lon="3.86464">
        <ele>1064.32</ele>
        <time>2022-08-02T07:38:06Z</time>
      </trkpt>
      <trkpt lat="44.8838" lon="3.86464">
        <ele>1066.24</ele>
        <time>2022-08-02T07:38:28Z</time>
      </trkpt>
      <trkpt lat="44.88379" lon="3.86463">
        <ele>1064.32</ele>
        <time>2022-08-02T07:38:55Z</time>
      </trkpt>
      <trkpt lat="44.88379" lon="3.86459">
        <ele>1063.84</ele>
        <time>2022-08-02T07:38:57Z</time>
      </trkpt>
      <trkpt lat="44.88379" lon="3.86451">
        <ele>1063.36</ele>
        <time>2022-08-02T07:39:02Z</time>
      </trkpt>
      <trkpt lat="44.88377" lon="3.86424">
        <ele>1063.36</ele>
        <time>2022-08-02T07:39:18Z</time>
      </trkpt>
      <trkpt lat="44.8837" lon="3.86391">
        <ele>1064.32</ele>
        <time>2022-08-02T07:39:37Z</time>
      </trkpt>
      <trkpt lat="44.88364" lon="3.86364">
        <ele>1065.28</ele>
        <time>2022-08-02T07:39:53Z</time>
      </trkpt>
      <trkpt lat="44.8836" lon="3.86349">
        <ele>1065.28</ele>
        <time>2022-08-02T07:40:02Z</time>
      </trkpt>
      <trkpt lat="44.88353" lon="3.86324">
        <ele>1066.72</ele>
        <time>2022-08-02T07:40:18Z</time>
      </trkpt>
      <trkpt lat="44.88342" lon="3.86296">
        <ele>1068.16</ele>
        <time>2022-08-02T07:40:36Z</time>
      </trkpt>
      <trkpt lat="44.88337" lon="3.86285">
        <ele>1068.64</ele>
        <time>2022-08-02T07:40:43Z</time>
      </trkpt>
      <trkpt lat="44.88336" lon="3.86282">
        <ele>1069.12</ele>
        <time>2022-08-02T07:40:45Z</time>
      </trkpt>
      <trkpt lat="44.88323" lon="3.86261">
        <ele>1070.08</ele>
        <time>2022-08-02T07:41:02Z</time>
      </trkpt>
      <trkpt lat="44.88316" lon="3.86252">
        <ele>1070.08</ele>
        <time>2022-08-02T07:41:16Z</time>
      </trkpt>
      <trkpt lat="44.88315" lon="3.86252">
        <ele>1067.68</ele>
        <time>2022-08-02T07:41:47Z</time>
      </trkpt>
      <trkpt lat="44.88313" lon="3.8625">
        <ele>1068.16</ele>
        <time>2022-08-02T07:42:00Z</time>
      </trkpt>
      <trkpt lat="44.88313" lon="3.86255">
        <ele>1068.64</ele>
        <time>2022-08-02T07:42:15Z</time>
      </trkpt>
      <trkpt lat="44.88305" lon="3.86241">
        <ele>1066.72</ele>
        <time>2022-08-02T07:42:36Z</time>
      </trkpt>
      <trkpt lat="44.88293" lon="3.86221">
        <ele>1066.72</ele>
        <time>2022-08-02T07:42:52Z</time>
      </trkpt>
      <trkpt lat="44.8829" lon="3.86216">
        <ele>1067.68</ele>
        <time>2022-08-02T07:43:09Z</time>
      </trkpt>
      <trkpt lat="44.88288" lon="3.8621">
        <ele>1066.72</ele>
        <time>2022-08-02T07:43:45Z</time>
      </trkpt>
      <trkpt lat="44.88277" lon="3.86189">
        <ele>1067.2</ele>
        <time>2022-08-02T07:44:00Z</time>
      </trkpt>
      <trkpt lat="44.88265" lon="3.86164">
        <ele>1069.12</ele>
        <time>2022-08-02T07:44:18Z</time>
      </trkpt>
      <trkpt lat="44.88254" lon="3.86138">
        <ele>1069.6</ele>
        <time>2022-08-02T07:44:35Z</time>
      </trkpt>
      <trkpt lat="44.88247" lon="3.86109">
        <ele>1071.53</ele>
        <time>2022-08-02T07:44:52Z</time>
      </trkpt>
      <trkpt lat="44.88247" lon="3.86106">
        <ele>1071.53</ele>
        <time>2022-08-02T07:44:54Z</time>
      </trkpt>
      <trkpt lat="44.88245" lon="3.861">
        <ele>1072.01</ele>
        <time>2022-08-02T07:44:58Z</time>
      </trkpt>
      <trkpt lat="44.88242" lon="3.86087">
        <ele>1072.49</ele>
        <time>2022-08-02T07:45:05Z</time>
      </trkpt>
      <trkpt lat="44.88238" lon="3.86075">
        <ele>1073.45</ele>
        <time>2022-08-02T07:45:13Z</time>
      </trkpt>
      <trkpt lat="44.88228" lon="3.86051">
        <ele>1073.93</ele>
        <time>2022-08-02T07:45:29Z</time>
      </trkpt>
      <trkpt lat="44.8822" lon="3.86029">
        <ele>1074.89</ele>
        <time>2022-08-02T07:45:43Z</time>
      </trkpt>
      <trkpt lat="44.88214" lon="3.86004">
        <ele>1076.33</ele>
        <time>2022-08-02T07:45:59Z</time>
      </trkpt>
      <trkpt lat="44.88208" lon="3.85976">
        <ele>1077.78</ele>
        <time>2022-08-02T07:46:16Z</time>
      </trkpt>
      <trkpt lat="44.882" lon="3.85948">
        <ele>1078.74</ele>
        <time>2022-08-02T07:46:33Z</time>
      </trkpt>
      <trkpt lat="44.88194" lon="3.85918">
        <ele>1078.26</ele>
        <time>2022-08-02T07:46:50Z</time>
      </trkpt>
      <trkpt lat="44.8819" lon="3.85891">
        <ele>1078.74</ele>
        <time>2022-08-02T07:47:06Z</time>
      </trkpt>
      <trkpt lat="44.88185" lon="3.85863">
        <ele>1078.74</ele>
        <time>2022-08-02T07:47:22Z</time>
      </trkpt>
      <trkpt lat="44.88179" lon="3.85834">
        <ele>1078.74</ele>
        <time>2022-08-02T07:47:39Z</time>
      </trkpt>
      <trkpt lat="44.88173" lon="3.85807">
        <ele>1077.78</ele>
        <time>2022-08-02T07:47:55Z</time>
      </trkpt>
      <trkpt lat="44.8817" lon="3.8578">
        <ele>1079.7</ele>
        <time>2022-08-02T07:48:11Z</time>
      </trkpt>
      <trkpt lat="44.88167" lon="3.85754">
        <ele>1080.18</ele>
        <time>2022-08-02T07:48:26Z</time>
      </trkpt>
      <trkpt lat="44.88167" lon="3.85749">
        <ele>1080.66</ele>
        <time>2022-08-02T07:48:29Z</time>
      </trkpt>
      <trkpt lat="44.88163" lon="3.8572">
        <ele>1082.1</ele>
        <time>2022-08-02T07:48:46Z</time>
      </trkpt>
      <trkpt lat="44.88157" lon="3.85691">
        <ele>1083.54</ele>
        <time>2022-08-02T07:49:03Z</time>
      </trkpt>
      <trkpt lat="44.88155" lon="3.85683">
        <ele>1084.02</ele>
        <time>2022-08-02T07:49:09Z</time>
      </trkpt>
      <trkpt lat="44.88148" lon="3.85652">
        <ele>1085.47</ele>
        <time>2022-08-02T07:49:28Z</time>
      </trkpt>
      <trkpt lat="44.88144" lon="3.85634">
        <ele>1086.91</ele>
        <time>2022-08-02T07:49:39Z</time>
      </trkpt>
      <trkpt lat="44.88142" lon="3.85624">
        <ele>1088.35</ele>
        <time>2022-08-02T07:49:46Z</time>
      </trkpt>
      <trkpt lat="44.88135" lon="3.85598">
        <ele>1088.83</ele>
        <time>2022-08-02T07:50:02Z</time>
      </trkpt>
      <trkpt lat="44.88127" lon="3.85571">
        <ele>1091.23</ele>
        <time>2022-08-02T07:50:19Z</time>
      </trkpt>
      <trkpt lat="44.88121" lon="3.85545">
        <ele>1091.23</ele>
        <time>2022-08-02T07:50:35Z</time>
      </trkpt>
      <trkpt lat="44.88114" lon="3.85521">
        <ele>1090.27</ele>
        <time>2022-08-02T07:50:50Z</time>
      </trkpt>
      <trkpt lat="44.88105" lon="3.85495">
        <ele>1089.31</ele>
        <time>2022-08-02T07:51:05Z</time>
      </trkpt>
      <trkpt lat="44.88098" lon="3.85469">
        <ele>1087.87</ele>
        <time>2022-08-02T07:51:21Z</time>
      </trkpt>
      <trkpt lat="44.8809" lon="3.85443">
        <ele>1086.91</ele>
        <time>2022-08-02T07:51:36Z</time>
      </trkpt>
      <trkpt lat="44.88083" lon="3.85415">
        <ele>1084.99</ele>
        <time>2022-08-02T07:51:52Z</time>
      </trkpt>
      <trkpt lat="44.88081" lon="3.85389">
        <ele>1084.5</ele>
        <time>2022-08-02T07:52:06Z</time>
      </trkpt>
      <trkpt lat="44.88078" lon="3.85355">
        <ele>1084.5</ele>
        <time>2022-08-02T07:52:25Z</time>
      </trkpt>
      <trkpt lat="44.88077" lon="3.85322">
        <ele>1082.58</ele>
        <time>2022-08-02T07:52:43Z</time>
      </trkpt>
      <trkpt lat="44.88076" lon="3.85295">
        <ele>1083.06</ele>
        <time>2022-08-02T07:52:59Z</time>
      </trkpt>
      <trkpt lat="44.88075" lon="3.85265">
        <ele>1083.54</ele>
        <time>2022-08-02T07:53:15Z</time>
      </trkpt>
      <trkpt lat="44.88073" lon="3.85234">
        <ele>1083.06</ele>
        <time>2022-08-02T07:53:32Z</time>
      </trkpt>
      <trkpt lat="44.88068" lon="3.8521">
        <ele>1082.1</ele>
        <time>2022-08-02T07:53:46Z</time>
      </trkpt>
      <trkpt lat="44.88062" lon="3.85183">
        <ele>1082.58</ele>
        <time>2022-08-02T07:54:02Z</time>
      </trkpt>
      <trkpt lat="44.88058" lon="3.85158">
        <ele>1082.58</ele>
        <time>2022-08-02T07:54:17Z</time>
      </trkpt>
      <trkpt lat="44.88055" lon="3.85127">
        <ele>1084.02</ele>
        <time>2022-08-02T07:54:35Z</time>
      </trkpt>
      <trkpt lat="44.88051" lon="3.85097">
        <ele>1085.47</ele>
        <time>2022-08-02T07:54:53Z</time>
      </trkpt>
      <trkpt lat="44.88048" lon="3.85075">
        <ele>1088.35</ele>
        <time>2022-08-02T07:55:07Z</time>
      </trkpt>
      <trkpt lat="44.88048" lon="3.85063">
        <ele>1088.35</ele>
        <time>2022-08-02T07:55:14Z</time>
      </trkpt>
      <trkpt lat="44.88043" lon="3.85047">
        <ele>1089.79</ele>
        <time>2022-08-02T07:55:26Z</time>
      </trkpt>
      <trkpt lat="44.88037" lon="3.85027">
        <ele>1093.64</ele>
        <time>2022-08-02T07:55:41Z</time>
      </trkpt>
      <trkpt lat="44.88033" lon="3.85015">
        <ele>1097</ele>
        <time>2022-08-02T07:55:51Z</time>
      </trkpt>
      <trkpt lat="44.88027" lon="3.85">
        <ele>1100.85</ele>
        <time>2022-08-02T07:56:01Z</time>
      </trkpt>
      <trkpt lat="44.88014" lon="3.84983">
        <ele>1103.25</ele>
        <time>2022-08-02T07:56:16Z</time>
      </trkpt>
      <trkpt lat="44.88015" lon="3.84977">
        <ele>1103.25</ele>
        <time>2022-08-02T07:56:21Z</time>
      </trkpt>
      <trkpt lat="44.88026" lon="3.84961">
        <ele>1102.77</ele>
        <time>2022-08-02T07:56:34Z</time>
      </trkpt>
      <trkpt lat="44.88029" lon="3.84935">
        <ele>1100.37</ele>
        <time>2022-08-02T07:56:49Z</time>
      </trkpt>
      <trkpt lat="44.88029" lon="3.8491">
        <ele>1097.96</ele>
        <time>2022-08-02T07:57:02Z</time>
      </trkpt>
      <trkpt lat="44.88023" lon="3.84893">
        <ele>1095.56</ele>
        <time>2022-08-02T07:57:12Z</time>
      </trkpt>
      <trkpt lat="44.8802" lon="3.84884">
        <ele>1094.6</ele>
        <time>2022-08-02T07:57:17Z</time>
      </trkpt>
      <trkpt lat="44.88004" lon="3.84861">
        <ele>1091.71</ele>
        <time>2022-08-02T07:57:33Z</time>
      </trkpt>
      <trkpt lat="44.87998" lon="3.84853">
        <ele>1091.23</ele>
        <time>2022-08-02T07:57:39Z</time>
      </trkpt>
      <trkpt lat="44.87994" lon="3.84846">
        <ele>1091.71</ele>
        <time>2022-08-02T07:57:43Z</time>
      </trkpt>
      <trkpt lat="44.8799" lon="3.84821">
        <ele>1090.75</ele>
        <time>2022-08-02T07:57:57Z</time>
      </trkpt>
      <trkpt lat="44.87984" lon="3.84787">
        <ele>1089.79</ele>
        <time>2022-08-02T07:58:16Z</time>
      </trkpt>
      <trkpt lat="44.87984" lon="3.84785">
        <ele>1089.79</ele>
        <time>2022-08-02T07:58:17Z</time>
      </trkpt>
      <trkpt lat="44.87983" lon="3.84763">
        <ele>1089.79</ele>
        <time>2022-08-02T07:58:29Z</time>
      </trkpt>
      <trkpt lat="44.87991" lon="3.84755">
        <ele>1088.83</ele>
        <time>2022-08-02T07:58:36Z</time>
      </trkpt>
      <trkpt lat="44.88013" lon="3.84753">
        <ele>1087.39</ele>
        <time>2022-08-02T07:58:52Z</time>
      </trkpt>
      <trkpt lat="44.88033" lon="3.84745">
        <ele>1086.43</ele>
        <time>2022-08-02T07:59:08Z</time>
      </trkpt>
      <trkpt lat="44.8804" lon="3.84721">
        <ele>1085.47</ele>
        <time>2022-08-02T07:59:22Z</time>
      </trkpt>
      <trkpt lat="44.88041" lon="3.84693">
        <ele>1084.5</ele>
        <time>2022-08-02T07:59:37Z</time>
      </trkpt>
      <trkpt lat="44.88041" lon="3.84664">
        <ele>1086.43</ele>
        <time>2022-08-02T07:59:54Z</time>
      </trkpt>
      <trkpt lat="44.88043" lon="3.84638">
        <ele>1087.39</ele>
        <time>2022-08-02T08:00:09Z</time>
      </trkpt>
      <trkpt lat="44.88044" lon="3.84635">
        <ele>1087.39</ele>
        <time>2022-08-02T08:00:11Z</time>
      </trkpt>
      <trkpt lat="44.88052" lon="3.84622">
        <ele>1088.83</ele>
        <time>2022-08-02T08:00:21Z</time>
      </trkpt>
      <trkpt lat="44.88073" lon="3.84613">
        <ele>1085.95</ele>
        <time>2022-08-02T08:00:38Z</time>
      </trkpt>
      <trkpt lat="44.88087" lon="3.84616">
        <ele>1090.27</ele>
        <time>2022-08-02T08:00:52Z</time>
      </trkpt>
      <trkpt lat="44.88106" lon="3.84608">
        <ele>1093.16</ele>
        <time>2022-08-02T08:01:08Z</time>
      </trkpt>
      <trkpt lat="44.88121" lon="3.84592">
        <ele>1096.04</ele>
        <time>2022-08-02T08:01:22Z</time>
      </trkpt>
      <trkpt lat="44.8814" lon="3.84577">
        <ele>1097.96</ele>
        <time>2022-08-02T08:01:39Z</time>
      </trkpt>
      <trkpt lat="44.88154" lon="3.84558">
        <ele>1098.44</ele>
        <time>2022-08-02T08:01:54Z</time>
      </trkpt>
      <trkpt lat="44.88165" lon="3.84529">
        <ele>1098.44</ele>
        <time>2022-08-02T08:02:12Z</time>
      </trkpt>
      <trkpt lat="44.88169" lon="3.84505">
        <ele>1099.4</ele>
        <time>2022-08-02T08:02:27Z</time>
      </trkpt>
      <trkpt lat="44.88179" lon="3.84483">
        <ele>1099.4</ele>
        <time>2022-08-02T08:02:43Z</time>
      </trkpt>
      <trkpt lat="44.8819" lon="3.84459">
        <ele>1099.89</ele>
        <time>2022-08-02T08:03:00Z</time>
      </trkpt>
      <trkpt lat="44.88201" lon="3.84436">
        <ele>1100.85</ele>
        <time>2022-08-02T08:03:17Z</time>
      </trkpt>
      <trkpt lat="44.8821" lon="3.84419">
        <ele>1102.77</ele>
        <time>2022-08-02T08:03:30Z</time>
      </trkpt>
      <trkpt lat="44.88225" lon="3.84399">
        <ele>1106.61</ele>
        <time>2022-08-02T08:03:48Z</time>
      </trkpt>
      <trkpt lat="44.88239" lon="3.8438">
        <ele>1107.1</ele>
        <time>2022-08-02T08:04:05Z</time>
      </trkpt>
      <trkpt lat="44.88254" lon="3.84359">
        <ele>1107.58</ele>
        <time>2022-08-02T08:04:22Z</time>
      </trkpt>
      <trkpt lat="44.88268" lon="3.84336">
        <ele>1107.58</ele>
        <time>2022-08-02T08:04:39Z</time>
      </trkpt>
      <trkpt lat="44.88281" lon="3.84311">
        <ele>1109.5</ele>
        <time>2022-08-02T08:04:56Z</time>
      </trkpt>
      <trkpt lat="44.88292" lon="3.8429">
        <ele>1109.98</ele>
        <time>2022-08-02T08:05:11Z</time>
      </trkpt>
      <trkpt lat="44.88305" lon="3.84269">
        <ele>1109.98</ele>
        <time>2022-08-02T08:05:26Z</time>
      </trkpt>
      <trkpt lat="44.8832" lon="3.84249">
        <ele>1110.94</ele>
        <time>2022-08-02T08:05:42Z</time>
      </trkpt>
      <trkpt lat="44.88334" lon="3.84234">
        <ele>1110.94</ele>
        <time>2022-08-02T08:05:56Z</time>
      </trkpt>
      <trkpt lat="44.88351" lon="3.84218">
        <ele>1114.31</ele>
        <time>2022-08-02T08:06:12Z</time>
      </trkpt>
      <trkpt lat="44.88365" lon="3.84204">
        <ele>1117.19</ele>
        <time>2022-08-02T08:06:27Z</time>
      </trkpt>
      <trkpt lat="44.88376" lon="3.84189">
        <ele>1120.07</ele>
        <time>2022-08-02T08:06:42Z</time>
      </trkpt>
      <trkpt lat="44.88379" lon="3.84183">
        <ele>1120.07</ele>
        <time>2022-08-02T08:06:47Z</time>
      </trkpt>
      <trkpt lat="44.88388" lon="3.84166">
        <ele>1121.03</ele>
        <time>2022-08-02T08:07:02Z</time>
      </trkpt>
      <trkpt lat="44.88394" lon="3.84159">
        <ele>1121.52</ele>
        <time>2022-08-02T08:07:09Z</time>
      </trkpt>
      <trkpt lat="44.88408" lon="3.84139">
        <ele>1122.48</ele>
        <time>2022-08-02T08:07:27Z</time>
      </trkpt>
      <trkpt lat="44.8842" lon="3.84123">
        <ele>1124.88</ele>
        <time>2022-08-02T08:07:42Z</time>
      </trkpt>
      <trkpt lat="44.88432" lon="3.84105">
        <ele>1126.32</ele>
        <time>2022-08-02T08:07:57Z</time>
      </trkpt>
      <trkpt lat="44.88441" lon="3.84085">
        <ele>1127.28</ele>
        <time>2022-08-02T08:08:12Z</time>
      </trkpt>
      <trkpt lat="44.88451" lon="3.84067">
        <ele>1129.21</ele>
        <time>2022-08-02T08:08:28Z</time>
      </trkpt>
      <trkpt lat="44.8845" lon="3.84065">
        <ele>1127.28</ele>
        <time>2022-08-02T08:08:48Z</time>
      </trkpt>
      <trkpt lat="44.88454" lon="3.84049">
        <ele>1126.8</ele>
        <time>2022-08-02T08:09:03Z</time>
      </trkpt>
      <trkpt lat="44.88456" lon="3.84018">
        <ele>1127.76</ele>
        <time>2022-08-02T08:09:20Z</time>
      </trkpt>
      <trkpt lat="44.88457" lon="3.83989">
        <ele>1127.28</ele>
        <time>2022-08-02T08:09:36Z</time>
      </trkpt>
      <trkpt lat="44.88456" lon="3.83989">
        <ele>1126.32</ele>
        <time>2022-08-02T08:09:48Z</time>
      </trkpt>
      <trkpt lat="44.88458" lon="3.83989">
        <ele>1125.84</ele>
        <time>2022-08-02T08:10:04Z</time>
      </trkpt>
      <trkpt lat="44.88459" lon="3.83991">
        <ele>1126.32</ele>
        <time>2022-08-02T08:10:18Z</time>
      </trkpt>
      <trkpt lat="44.88458" lon="3.83985">
        <ele>1125.84</ele>
        <time>2022-08-02T08:10:42Z</time>
      </trkpt>
      <trkpt lat="44.88458" lon="3.83956">
        <ele>1125.36</ele>
        <time>2022-08-02T08:10:58Z</time>
      </trkpt>
      <trkpt lat="44.88463" lon="3.83928">
        <ele>1124.88</ele>
        <time>2022-08-02T08:11:14Z</time>
      </trkpt>
      <trkpt lat="44.88467" lon="3.83901">
        <ele>1122.96</ele>
        <time>2022-08-02T08:11:28Z</time>
      </trkpt>
      <trkpt lat="44.88473" lon="3.83871">
        <ele>1120.55</ele>
        <time>2022-08-02T08:11:45Z</time>
      </trkpt>
      <trkpt lat="44.88479" lon="3.8384">
        <ele>1118.15</ele>
        <time>2022-08-02T08:12:01Z</time>
      </trkpt>
      <trkpt lat="44.88485" lon="3.83808">
        <ele>1116.71</ele>
        <time>2022-08-02T08:12:19Z</time>
      </trkpt>
      <trkpt lat="44.88486" lon="3.83803">
        <ele>1116.23</ele>
        <time>2022-08-02T08:12:22Z</time>
      </trkpt>
      <trkpt lat="44.88494" lon="3.83772">
        <ele>1117.19</ele>
        <time>2022-08-02T08:12:39Z</time>
      </trkpt>
      <trkpt lat="44.88501" lon="3.8374">
        <ele>1117.67</ele>
        <time>2022-08-02T08:12:56Z</time>
      </trkpt>
      <trkpt lat="44.88507" lon="3.83712">
        <ele>1116.23</ele>
        <time>2022-08-02T08:13:11Z</time>
      </trkpt>
      <trkpt lat="44.88512" lon="3.83683">
        <ele>1116.71</ele>
        <time>2022-08-02T08:13:27Z</time>
      </trkpt>
      <trkpt lat="44.88516" lon="3.83658">
        <ele>1116.23</ele>
        <time>2022-08-02T08:13:42Z</time>
      </trkpt>
      <trkpt lat="44.8852" lon="3.83627">
        <ele>1119.11</ele>
        <time>2022-08-02T08:14:00Z</time>
      </trkpt>
      <trkpt lat="44.88522" lon="3.83615">
        <ele>1119.11</ele>
        <time>2022-08-02T08:14:06Z</time>
      </trkpt>
      <trkpt lat="44.88523" lon="3.83589">
        <ele>1120.55</ele>
        <time>2022-08-02T08:14:21Z</time>
      </trkpt>
      <trkpt lat="44.88523" lon="3.83582">
        <ele>1121.03</ele>
        <time>2022-08-02T08:14:26Z</time>
      </trkpt>
      <trkpt lat="44.88528" lon="3.83553">
        <ele>1121.03</ele>
        <time>2022-08-02T08:14:42Z</time>
      </trkpt>
      <trkpt lat="44.88535" lon="3.83522">
        <ele>1121.03</ele>
        <time>2022-08-02T08:15:00Z</time>
      </trkpt>
      <trkpt lat="44.88543" lon="3.83495">
        <ele>1121.03</ele>
        <time>2022-08-02T08:15:17Z</time>
      </trkpt>
      <trkpt lat="44.88551" lon="3.83464">
        <ele>1121.52</ele>
        <time>2022-08-02T08:15:35Z</time>
      </trkpt>
      <trkpt lat="44.88559" lon="3.83438">
        <ele>1122.48</ele>
        <time>2022-08-02T08:15:51Z</time>
      </trkpt>
      <trkpt lat="44.88568" lon="3.83412">
        <ele>1124.4</ele>
        <time>2022-08-02T08:16:07Z</time>
      </trkpt>
      <trkpt lat="44.88569" lon="3.83411">
        <ele>1124.88</ele>
        <time>2022-08-02T08:16:08Z</time>
      </trkpt>
      <trkpt lat="44.88574" lon="3.8339">
        <ele>1125.36</ele>
        <time>2022-08-02T08:16:21Z</time>
      </trkpt>
      <trkpt lat="44.88575" lon="3.83374">
        <ele>1126.32</ele>
        <time>2022-08-02T08:16:30Z</time>
      </trkpt>
      <trkpt lat="44.88573" lon="3.83345">
        <ele>1126.8</ele>
        <time>2022-08-02T08:16:47Z</time>
      </trkpt>
      <trkpt lat="44.8858" lon="3.83316">
        <ele>1128.73</ele>
        <time>2022-08-02T08:17:04Z</time>
      </trkpt>
      <trkpt lat="44.88586" lon="3.83292">
        <ele>1130.17</ele>
        <time>2022-08-02T08:17:20Z</time>
      </trkpt>
      <trkpt lat="44.88589" lon="3.83259">
        <ele>1130.65</ele>
        <time>2022-08-02T08:17:38Z</time>
      </trkpt>
      <trkpt lat="44.8859" lon="3.83234">
        <ele>1129.69</ele>
        <time>2022-08-02T08:17:52Z</time>
      </trkpt>
      <trkpt lat="44.8859" lon="3.83227">
        <ele>1130.17</ele>
        <time>2022-08-02T08:17:56Z</time>
      </trkpt>
      <trkpt lat="44.88596" lon="3.83195">
        <ele>1131.61</ele>
        <time>2022-08-02T08:18:14Z</time>
      </trkpt>
      <trkpt lat="44.88597" lon="3.83171">
        <ele>1132.57</ele>
        <time>2022-08-02T08:18:31Z</time>
      </trkpt>
      <trkpt lat="44.88597" lon="3.83151">
        <ele>1133.05</ele>
        <time>2022-08-02T08:18:46Z</time>
      </trkpt>
      <trkpt lat="44.88598" lon="3.83148">
        <ele>1133.53</ele>
        <time>2022-08-02T08:18:48Z</time>
      </trkpt>
      <trkpt lat="44.88603" lon="3.83139">
        <ele>1134.49</ele>
        <time>2022-08-02T08:18:55Z</time>
      </trkpt>
      <trkpt lat="44.88606" lon="3.83114">
        <ele>1134.49</ele>
        <time>2022-08-02T08:19:10Z</time>
      </trkpt>
      <trkpt lat="44.88607" lon="3.83087">
        <ele>1135.45</ele>
        <time>2022-08-02T08:19:26Z</time>
      </trkpt>
      <trkpt lat="44.88607" lon="3.83062">
        <ele>1134.49</ele>
        <time>2022-08-02T08:19:41Z</time>
      </trkpt>
      <trkpt lat="44.8861" lon="3.83035">
        <ele>1135.45</ele>
        <time>2022-08-02T08:19:57Z</time>
      </trkpt>
      <trkpt lat="44.88615" lon="3.83007">
        <ele>1136.42</ele>
        <time>2022-08-02T08:20:14Z</time>
      </trkpt>
      <trkpt lat="44.88617" lon="3.82977">
        <ele>1136.42</ele>
        <time>2022-08-02T08:20:31Z</time>
      </trkpt>
      <trkpt lat="44.88619" lon="3.82946">
        <ele>1137.38</ele>
        <time>2022-08-02T08:20:49Z</time>
      </trkpt>
      <trkpt lat="44.8862" lon="3.82919">
        <ele>1138.34</ele>
        <time>2022-08-02T08:21:05Z</time>
      </trkpt>
      <trkpt lat="44.88621" lon="3.82892">
        <ele>1139.3</ele>
        <time>2022-08-02T08:21:20Z</time>
      </trkpt>
      <trkpt lat="44.8862" lon="3.82867">
        <ele>1140.26</ele>
        <time>2022-08-02T08:21:35Z</time>
      </trkpt>
      <trkpt lat="44.88622" lon="3.82838">
        <ele>1141.7</ele>
        <time>2022-08-02T08:21:52Z</time>
      </trkpt>
      <trkpt lat="44.8862" lon="3.82809">
        <ele>1141.7</ele>
        <time>2022-08-02T08:22:09Z</time>
      </trkpt>
      <trkpt lat="44.88617" lon="3.82779">
        <ele>1143.14</ele>
        <time>2022-08-02T08:22:27Z</time>
      </trkpt>
      <trkpt lat="44.88611" lon="3.82753">
        <ele>1144.59</ele>
        <time>2022-08-02T08:22:43Z</time>
      </trkpt>
      <trkpt lat="44.88604" lon="3.82728">
        <ele>1145.07</ele>
        <time>2022-08-02T08:22:59Z</time>
      </trkpt>
      <trkpt lat="44.886" lon="3.827">
        <ele>1146.51</ele>
        <time>2022-08-02T08:23:16Z</time>
      </trkpt>
      <trkpt lat="44.88598" lon="3.82673">
        <ele>1147.95</ele>
        <time>2022-08-02T08:23:34Z</time>
      </trkpt>
      <trkpt lat="44.88604" lon="3.82652">
        <ele>1150.35</ele>
        <time>2022-08-02T08:23:48Z</time>
      </trkpt>
      <trkpt lat="44.8861" lon="3.82641">
        <ele>1151.32</ele>
        <time>2022-08-02T08:23:56Z</time>
      </trkpt>
      <trkpt lat="44.88613" lon="3.82626">
        <ele>1151.32</ele>
        <time>2022-08-02T08:24:06Z</time>
      </trkpt>
      <trkpt lat="44.8862" lon="3.82602">
        <ele>1152.28</ele>
        <time>2022-08-02T08:24:21Z</time>
      </trkpt>
      <trkpt lat="44.88626" lon="3.82576">
        <ele>1151.8</ele>
        <time>2022-08-02T08:24:37Z</time>
      </trkpt>
      <trkpt lat="44.88631" lon="3.82555">
        <ele>1151.8</ele>
        <time>2022-08-02T08:24:52Z</time>
      </trkpt>
      <trkpt lat="44.88641" lon="3.82541">
        <ele>1150.35</ele>
        <time>2022-08-02T08:25:04Z</time>
      </trkpt>
      <trkpt lat="44.88642" lon="3.82538">
        <ele>1150.35</ele>
        <time>2022-08-02T08:25:06Z</time>
      </trkpt>
      <trkpt lat="44.88644" lon="3.82532">
        <ele>1150.35</ele>
        <time>2022-08-02T08:25:10Z</time>
      </trkpt>
      <trkpt lat="44.88652" lon="3.82505">
        <ele>1148.91</ele>
        <time>2022-08-02T08:25:26Z</time>
      </trkpt>
      <trkpt lat="44.88658" lon="3.82474">
        <ele>1147.47</ele>
        <time>2022-08-02T08:25:44Z</time>
      </trkpt>
      <trkpt lat="44.88661" lon="3.82445">
        <ele>1146.99</ele>
        <time>2022-08-02T08:26:00Z</time>
      </trkpt>
      <trkpt lat="44.8866" lon="3.82435">
        <ele>1147.95</ele>
        <time>2022-08-02T08:26:07Z</time>
      </trkpt>
      <trkpt lat="44.88662" lon="3.82408">
        <ele>1147.47</ele>
        <time>2022-08-02T08:26:24Z</time>
      </trkpt>
      <trkpt lat="44.88666" lon="3.82385">
        <ele>1146.51</ele>
        <time>2022-08-02T08:26:37Z</time>
      </trkpt>
      <trkpt lat="44.8867" lon="3.82358">
        <ele>1147.47</ele>
        <time>2022-08-02T08:26:53Z</time>
      </trkpt>
      <trkpt lat="44.88674" lon="3.82332">
        <ele>1146.03</ele>
        <time>2022-08-02T08:27:09Z</time>
      </trkpt>
      <trkpt lat="44.88685" lon="3.82307">
        <ele>1146.03</ele>
        <time>2022-08-02T08:27:25Z</time>
      </trkpt>
      <trkpt lat="44.88699" lon="3.82288">
        <ele>1144.59</ele>
        <time>2022-08-02T08:27:40Z</time>
      </trkpt>
      <trkpt lat="44.88711" lon="3.82261">
        <ele>1143.14</ele>
        <time>2022-08-02T08:27:56Z</time>
      </trkpt>
      <trkpt lat="44.88722" lon="3.82243">
        <ele>1143.63</ele>
        <time>2022-08-02T08:28:10Z</time>
      </trkpt>
      <trkpt lat="44.88737" lon="3.82229">
        <ele>1142.66</ele>
        <time>2022-08-02T08:28:25Z</time>
      </trkpt>
      <trkpt lat="44.88752" lon="3.82216">
        <ele>1143.63</ele>
        <time>2022-08-02T08:28:39Z</time>
      </trkpt>
      <trkpt lat="44.88759" lon="3.82195">
        <ele>1144.59</ele>
        <time>2022-08-02T08:28:53Z</time>
      </trkpt>
      <trkpt lat="44.88766" lon="3.82172">
        <ele>1145.07</ele>
        <time>2022-08-02T08:29:08Z</time>
      </trkpt>
      <trkpt lat="44.88772" lon="3.82147">
        <ele>1146.03</ele>
        <time>2022-08-02T08:29:24Z</time>
      </trkpt>
      <trkpt lat="44.8878" lon="3.82122">
        <ele>1147.47</ele>
        <time>2022-08-02T08:29:40Z</time>
      </trkpt>
      <trkpt lat="44.88786" lon="3.82102">
        <ele>1148.43</ele>
        <time>2022-08-02T08:29:53Z</time>
      </trkpt>
      <trkpt lat="44.88794" lon="3.82079">
        <ele>1148.43</ele>
        <time>2022-08-02T08:30:07Z</time>
      </trkpt>
      <trkpt lat="44.88801" lon="3.82054">
        <ele>1149.39</ele>
        <time>2022-08-02T08:30:22Z</time>
      </trkpt>
      <trkpt lat="44.88807" lon="3.82033">
        <ele>1149.39</ele>
        <time>2022-08-02T08:30:35Z</time>
      </trkpt>
      <trkpt lat="44.88814" lon="3.82009">
        <ele>1150.84</ele>
        <time>2022-08-02T08:30:50Z</time>
      </trkpt>
      <trkpt lat="44.88819" lon="3.81986">
        <ele>1151.32</ele>
        <time>2022-08-02T08:31:04Z</time>
      </trkpt>
      <trkpt lat="44.88816" lon="3.8196">
        <ele>1151.8</ele>
        <time>2022-08-02T08:31:19Z</time>
      </trkpt>
      <trkpt lat="44.88814" lon="3.81956">
        <ele>1151.32</ele>
        <time>2022-08-02T08:31:22Z</time>
      </trkpt>
      <trkpt lat="44.88805" lon="3.81945">
        <ele>1152.76</ele>
        <time>2022-08-02T08:31:40Z</time>
      </trkpt>
      <trkpt lat="44.88805" lon="3.81947">
        <ele>1153.24</ele>
        <time>2022-08-02T08:32:01Z</time>
      </trkpt>
      <trkpt lat="44.88805" lon="3.81943">
        <ele>1152.28</ele>
        <time>2022-08-02T08:32:19Z</time>
      </trkpt>
      <trkpt lat="44.88803" lon="3.81941">
        <ele>1155.64</ele>
        <time>2022-08-02T08:32:57Z</time>
      </trkpt>
      <trkpt lat="44.88801" lon="3.81942">
        <ele>1164.29</ele>
        <time>2022-08-02T08:33:36Z</time>
      </trkpt>
      <trkpt lat="44.88803" lon="3.81944">
        <ele>1156.6</ele>
        <time>2022-08-02T08:34:06Z</time>
      </trkpt>
      <trkpt lat="44.88806" lon="3.81946">
        <ele>1153.72</ele>
        <time>2022-08-02T08:34:35Z</time>
      </trkpt>
      <trkpt lat="44.88803" lon="3.81942">
        <ele>1150.35</ele>
        <time>2022-08-02T08:35:09Z</time>
      </trkpt>
      <trkpt lat="44.88805" lon="3.81941">
        <ele>1151.8</ele>
        <time>2022-08-02T08:35:36Z</time>
      </trkpt>
      <trkpt lat="44.88806" lon="3.81943">
        <ele>1155.64</ele>
        <time>2022-08-02T08:36:14Z</time>
      </trkpt>
      <trkpt lat="44.88807" lon="3.81944">
        <ele>1154.2</ele>
        <time>2022-08-02T08:36:53Z</time>
      </trkpt>
      <trkpt lat="44.88807" lon="3.81943">
        <ele>1154.2</ele>
        <time>2022-08-02T08:37:29Z</time>
      </trkpt>
      <trkpt lat="44.88807" lon="3.81943">
        <ele>1156.6</ele>
        <time>2022-08-02T08:38:04Z</time>
      </trkpt>
      <trkpt lat="44.88807" lon="3.81942">
        <ele>1158.05</ele>
        <time>2022-08-02T08:38:42Z</time>
      </trkpt>
      <trkpt lat="44.88806" lon="3.81944">
        <ele>1156.12</ele>
        <time>2022-08-02T08:39:18Z</time>
      </trkpt>
      <trkpt lat="44.88806" lon="3.81944">
        <ele>1154.2</ele>
        <time>2022-08-02T08:39:58Z</time>
      </trkpt>
      <trkpt lat="44.88806" lon="3.81945">
        <ele>1155.16</ele>
        <time>2022-08-02T08:40:15Z</time>
      </trkpt>
      <trkpt lat="44.88807" lon="3.81944">
        <ele>1154.2</ele>
        <time>2022-08-02T08:40:36Z</time>
      </trkpt>
      <trkpt lat="44.88807" lon="3.81944">
        <ele>1151.8</ele>
        <time>2022-08-02T08:40:57Z</time>
      </trkpt>
      <trkpt lat="44.88809" lon="3.81941">
        <ele>1152.28</ele>
        <time>2022-08-02T08:41:16Z</time>
      </trkpt>
      <trkpt lat="44.88808" lon="3.81935">
        <ele>1152.28</ele>
        <time>2022-08-02T08:41:20Z</time>
      </trkpt>
      <trkpt lat="44.88801" lon="3.81906">
        <ele>1154.2</ele>
        <time>2022-08-02T08:41:38Z</time>
      </trkpt>
      <trkpt lat="44.888" lon="3.81895">
        <ele>1154.68</ele>
        <time>2022-08-02T08:41:44Z</time>
      </trkpt>
      <trkpt lat="44.88803" lon="3.81865">
        <ele>1155.16</ele>
        <time>2022-08-02T08:42:01Z</time>
      </trkpt>
      <trkpt lat="44.88808" lon="3.81842">
        <ele>1155.64</ele>
        <time>2022-08-02T08:42:14Z</time>
      </trkpt>
      <trkpt lat="44.88814" lon="3.81819">
        <ele>1155.64</ele>
        <time>2022-08-02T08:42:28Z</time>
      </trkpt>
      <trkpt lat="44.88823" lon="3.81797">
        <ele>1155.16</ele>
        <time>2022-08-02T08:42:41Z</time>
      </trkpt>
      <trkpt lat="44.88832" lon="3.81775">
        <ele>1155.16</ele>
        <time>2022-08-02T08:42:55Z</time>
      </trkpt>
      <trkpt lat="44.8884" lon="3.81746">
        <ele>1155.16</ele>
        <time>2022-08-02T08:43:11Z</time>
      </trkpt>
      <trkpt lat="44.88842" lon="3.8173">
        <ele>1154.68</ele>
        <time>2022-08-02T08:43:20Z</time>
      </trkpt>
      <trkpt lat="44.88842" lon="3.81704">
        <ele>1154.68</ele>
        <time>2022-08-02T08:43:34Z</time>
      </trkpt>
      <trkpt lat="44.88843" lon="3.81675">
        <ele>1152.28</ele>
        <time>2022-08-02T08:43:50Z</time>
      </trkpt>
      <trkpt lat="44.88844" lon="3.81642">
        <ele>1153.72</ele>
        <time>2022-08-02T08:44:07Z</time>
      </trkpt>
      <trkpt lat="44.88846" lon="3.81613">
        <ele>1154.2</ele>
        <time>2022-08-02T08:44:23Z</time>
      </trkpt>
      <trkpt lat="44.88848" lon="3.81584">
        <ele>1154.68</ele>
        <time>2022-08-02T08:44:38Z</time>
      </trkpt>
      <trkpt lat="44.8885" lon="3.81558">
        <ele>1154.68</ele>
        <time>2022-08-02T08:44:52Z</time>
      </trkpt>
      <trkpt lat="44.88846" lon="3.81529">
        <ele>1155.16</ele>
        <time>2022-08-02T08:45:08Z</time>
      </trkpt>
      <trkpt lat="44.88848" lon="3.81499">
        <ele>1154.68</ele>
        <time>2022-08-02T08:45:24Z</time>
      </trkpt>
      <trkpt lat="44.88849" lon="3.81481">
        <ele>1155.64</ele>
        <time>2022-08-02T08:45:35Z</time>
      </trkpt>
      <trkpt lat="44.88845" lon="3.81448">
        <ele>1156.6</ele>
        <time>2022-08-02T08:45:52Z</time>
      </trkpt>
      <trkpt lat="44.88844" lon="3.81421">
        <ele>1157.08</ele>
        <time>2022-08-02T08:46:08Z</time>
      </trkpt>
      <trkpt lat="44.88852" lon="3.81396">
        <ele>1156.6</ele>
        <time>2022-08-02T08:46:24Z</time>
      </trkpt>
      <trkpt lat="44.88865" lon="3.81372">
        <ele>1156.12</ele>
        <time>2022-08-02T08:46:40Z</time>
      </trkpt>
      <trkpt lat="44.88873" lon="3.81352">
        <ele>1156.6</ele>
        <time>2022-08-02T08:46:53Z</time>
      </trkpt>
      <trkpt lat="44.88884" lon="3.8133">
        <ele>1158.53</ele>
        <time>2022-08-02T08:47:07Z</time>
      </trkpt>
      <trkpt lat="44.88895" lon="3.81307">
        <ele>1159.49</ele>
        <time>2022-08-02T08:47:22Z</time>
      </trkpt>
      <trkpt lat="44.88907" lon="3.81286">
        <ele>1161.41</ele>
        <time>2022-08-02T08:47:37Z</time>
      </trkpt>
      <trkpt lat="44.88921" lon="3.81265">
        <ele>1164.77</ele>
        <time>2022-08-02T08:47:54Z</time>
      </trkpt>
      <trkpt lat="44.88933" lon="3.81246">
        <ele>1164.77</ele>
        <time>2022-08-02T08:48:09Z</time>
      </trkpt>
      <trkpt lat="44.88944" lon="3.81225">
        <ele>1165.74</ele>
        <time>2022-08-02T08:48:23Z</time>
      </trkpt>
      <trkpt lat="44.88946" lon="3.81196">
        <ele>1166.7</ele>
        <time>2022-08-02T08:48:40Z</time>
      </trkpt>
      <trkpt lat="44.88944" lon="3.81178">
        <ele>1168.14</ele>
        <time>2022-08-02T08:48:53Z</time>
      </trkpt>
      <trkpt lat="44.88946" lon="3.81159">
        <ele>1171.5</ele>
        <time>2022-08-02T08:49:07Z</time>
      </trkpt>
      <trkpt lat="44.88949" lon="3.81135">
        <ele>1173.43</ele>
        <time>2022-08-02T08:49:22Z</time>
      </trkpt>
      <trkpt lat="44.88951" lon="3.8111">
        <ele>1175.83</ele>
        <time>2022-08-02T08:49:39Z</time>
      </trkpt>
      <trkpt lat="44.88952" lon="3.81106">
        <ele>1175.83</ele>
        <time>2022-08-02T08:49:41Z</time>
      </trkpt>
      <trkpt lat="44.88954" lon="3.81085">
        <ele>1177.27</ele>
        <time>2022-08-02T08:49:55Z</time>
      </trkpt>
      <trkpt lat="44.88958" lon="3.81063">
        <ele>1178.71</ele>
        <time>2022-08-02T08:50:10Z</time>
      </trkpt>
      <trkpt lat="44.88961" lon="3.81038">
        <ele>1181.12</ele>
        <time>2022-08-02T08:50:27Z</time>
      </trkpt>
      <trkpt lat="44.88962" lon="3.81025">
        <ele>1182.56</ele>
        <time>2022-08-02T08:50:36Z</time>
      </trkpt>
      <trkpt lat="44.88964" lon="3.81003">
        <ele>1184.48</ele>
        <time>2022-08-02T08:50:51Z</time>
      </trkpt>
      <trkpt lat="44.88965" lon="3.81001">
        <ele>1184.96</ele>
        <time>2022-08-02T08:50:53Z</time>
      </trkpt>
      <trkpt lat="44.88967" lon="3.80998">
        <ele>1185.92</ele>
        <time>2022-08-02T08:50:56Z</time>
      </trkpt>
      <trkpt lat="44.88967" lon="3.80995">
        <ele>1186.4</ele>
        <time>2022-08-02T08:50:58Z</time>
      </trkpt>
      <trkpt lat="44.88972" lon="3.80974">
        <ele>1190.73</ele>
        <time>2022-08-02T08:51:14Z</time>
      </trkpt>
      <trkpt lat="44.88977" lon="3.80957">
        <ele>1192.65</ele>
        <time>2022-08-02T08:51:27Z</time>
      </trkpt>
      <trkpt lat="44.88979" lon="3.80939">
        <ele>1193.13</ele>
        <time>2022-08-02T08:51:42Z</time>
      </trkpt>
      <trkpt lat="44.88983" lon="3.8093">
        <ele>1193.61</ele>
        <time>2022-08-02T08:51:49Z</time>
      </trkpt>
      <trkpt lat="44.88986" lon="3.80915">
        <ele>1195.06</ele>
        <time>2022-08-02T08:51:59Z</time>
      </trkpt>
      <trkpt lat="44.88986" lon="3.80889">
        <ele>1195.06</ele>
        <time>2022-08-02T08:52:17Z</time>
      </trkpt>
      <trkpt lat="44.88983" lon="3.80866">
        <ele>1196.5</ele>
        <time>2022-08-02T08:52:32Z</time>
      </trkpt>
      <trkpt lat="44.88981" lon="3.80842">
        <ele>1197.94</ele>
        <time>2022-08-02T08:52:47Z</time>
      </trkpt>
      <trkpt lat="44.8898" lon="3.80814">
        <ele>1199.38</ele>
        <time>2022-08-02T08:53:06Z</time>
      </trkpt>
      <trkpt lat="44.88979" lon="3.80788">
        <ele>1200.82</ele>
        <time>2022-08-02T08:53:22Z</time>
      </trkpt>
      <trkpt lat="44.88981" lon="3.80769">
        <ele>1202.27</ele>
        <time>2022-08-02T08:53:35Z</time>
      </trkpt>
      <trkpt lat="44.88981" lon="3.80742">
        <ele>1204.19</ele>
        <time>2022-08-02T08:53:53Z</time>
      </trkpt>
      <trkpt lat="44.88979" lon="3.80722">
        <ele>1206.11</ele>
        <time>2022-08-02T08:54:07Z</time>
      </trkpt>
      <trkpt lat="44.88976" lon="3.80708">
        <ele>1206.11</ele>
        <time>2022-08-02T08:54:16Z</time>
      </trkpt>
      <trkpt lat="44.88963" lon="3.80683">
        <ele>1205.63</ele>
        <time>2022-08-02T08:54:34Z</time>
      </trkpt>
      <trkpt lat="44.88951" lon="3.80659">
        <ele>1205.15</ele>
        <time>2022-08-02T08:54:51Z</time>
      </trkpt>
      <trkpt lat="44.88944" lon="3.80631">
        <ele>1205.15</ele>
        <time>2022-08-02T08:55:07Z</time>
      </trkpt>
      <trkpt lat="44.8894" lon="3.80604">
        <ele>1204.19</ele>
        <time>2022-08-02T08:55:23Z</time>
      </trkpt>
      <trkpt lat="44.88937" lon="3.80578">
        <ele>1205.15</ele>
        <time>2022-08-02T08:55:38Z</time>
      </trkpt>
      <trkpt lat="44.88933" lon="3.80551">
        <ele>1204.67</ele>
        <time>2022-08-02T08:55:53Z</time>
      </trkpt>
      <trkpt lat="44.88935" lon="3.80518">
        <ele>1204.67</ele>
        <time>2022-08-02T08:56:11Z</time>
      </trkpt>
      <trkpt lat="44.88934" lon="3.8049">
        <ele>1204.67</ele>
        <time>2022-08-02T08:56:26Z</time>
      </trkpt>
      <trkpt lat="44.88928" lon="3.80465">
        <ele>1204.67</ele>
        <time>2022-08-02T08:56:42Z</time>
      </trkpt>
      <trkpt lat="44.88925" lon="3.80462">
        <ele>1204.67</ele>
        <time>2022-08-02T08:56:54Z</time>
      </trkpt>
      <trkpt lat="44.88926" lon="3.80462">
        <ele>1204.19</ele>
        <time>2022-08-02T08:56:55Z</time>
      </trkpt>
      <trkpt lat="44.88929" lon="3.80458">
        <ele>1204.19</ele>
        <time>2022-08-02T08:56:59Z</time>
      </trkpt>
      <trkpt lat="44.88939" lon="3.80434">
        <ele>1203.23</ele>
        <time>2022-08-02T08:57:15Z</time>
      </trkpt>
      <trkpt lat="44.88948" lon="3.80409">
        <ele>1203.71</ele>
        <time>2022-08-02T08:57:31Z</time>
      </trkpt>
      <trkpt lat="44.88959" lon="3.8038">
        <ele>1204.19</ele>
        <time>2022-08-02T08:57:49Z</time>
      </trkpt>
      <trkpt lat="44.88968" lon="3.80351">
        <ele>1204.67</ele>
        <time>2022-08-02T08:58:06Z</time>
      </trkpt>
      <trkpt lat="44.88976" lon="3.80325">
        <ele>1204.67</ele>
        <time>2022-08-02T08:58:21Z</time>
      </trkpt>
      <trkpt lat="44.88985" lon="3.80297">
        <ele>1204.67</ele>
        <time>2022-08-02T08:58:37Z</time>
      </trkpt>
      <trkpt lat="44.88992" lon="3.80269">
        <ele>1204.67</ele>
        <time>2022-08-02T08:58:53Z</time>
      </trkpt>
      <trkpt lat="44.88997" lon="3.80239">
        <ele>1204.67</ele>
        <time>2022-08-02T08:59:09Z</time>
      </trkpt>
      <trkpt lat="44.89" lon="3.80213">
        <ele>1203.71</ele>
        <time>2022-08-02T08:59:23Z</time>
      </trkpt>
      <trkpt lat="44.89001" lon="3.80181">
        <ele>1204.67</ele>
        <time>2022-08-02T08:59:40Z</time>
      </trkpt>
      <trkpt lat="44.88989" lon="3.80161">
        <ele>1204.67</ele>
        <time>2022-08-02T08:59:55Z</time>
      </trkpt>
      <trkpt lat="44.88971" lon="3.80149">
        <ele>1204.67</ele>
        <time>2022-08-02T09:00:10Z</time>
      </trkpt>
      <trkpt lat="44.88948" lon="3.80133">
        <ele>1205.15</ele>
        <time>2022-08-02T09:00:28Z</time>
      </trkpt>
      <trkpt lat="44.88927" lon="3.80121">
        <ele>1206.11</ele>
        <time>2022-08-02T09:00:45Z</time>
      </trkpt>
      <trkpt lat="44.88925" lon="3.80101">
        <ele>1206.59</ele>
        <time>2022-08-02T09:00:58Z</time>
      </trkpt>
      <trkpt lat="44.88927" lon="3.80095">
        <ele>1207.07</ele>
        <time>2022-08-02T09:01:01Z</time>
      </trkpt>
      <trkpt lat="44.88929" lon="3.80089">
        <ele>1207.07</ele>
        <time>2022-08-02T09:01:05Z</time>
      </trkpt>
      <trkpt lat="44.88935" lon="3.80059">
        <ele>1207.07</ele>
        <time>2022-08-02T09:01:21Z</time>
      </trkpt>
      <trkpt lat="44.8894" lon="3.8003">
        <ele>1207.07</ele>
        <time>2022-08-02T09:01:38Z</time>
      </trkpt>
      <trkpt lat="44.88945" lon="3.80001">
        <ele>1206.59</ele>
        <time>2022-08-02T09:01:55Z</time>
      </trkpt>
      <trkpt lat="44.8895" lon="3.79972">
        <ele>1206.59</ele>
        <time>2022-08-02T09:02:11Z</time>
      </trkpt>
      <trkpt lat="44.88954" lon="3.79943">
        <ele>1206.59</ele>
        <time>2022-08-02T09:02:27Z</time>
      </trkpt>
      <trkpt lat="44.88957" lon="3.79914">
        <ele>1206.59</ele>
        <time>2022-08-02T09:02:43Z</time>
      </trkpt>
      <trkpt lat="44.88961" lon="3.79884">
        <ele>1207.55</ele>
        <time>2022-08-02T09:03:00Z</time>
      </trkpt>
      <trkpt lat="44.88964" lon="3.79857">
        <ele>1208.03</ele>
        <time>2022-08-02T09:03:15Z</time>
      </trkpt>
      <trkpt lat="44.88968" lon="3.7983">
        <ele>1208.51</ele>
        <time>2022-08-02T09:03:30Z</time>
      </trkpt>
      <trkpt lat="44.88971" lon="3.79801">
        <ele>1209</ele>
        <time>2022-08-02T09:03:46Z</time>
      </trkpt>
      <trkpt lat="44.88974" lon="3.79772">
        <ele>1209</ele>
        <time>2022-08-02T09:04:02Z</time>
      </trkpt>
      <trkpt lat="44.88977" lon="3.79741">
        <ele>1209</ele>
        <time>2022-08-02T09:04:19Z</time>
      </trkpt>
      <trkpt lat="44.88981" lon="3.79713">
        <ele>1209.48</ele>
        <time>2022-08-02T09:04:34Z</time>
      </trkpt>
      <trkpt lat="44.88986" lon="3.79683">
        <ele>1209</ele>
        <time>2022-08-02T09:04:51Z</time>
      </trkpt>
      <trkpt lat="44.8899" lon="3.7965">
        <ele>1209</ele>
        <time>2022-08-02T09:05:09Z</time>
      </trkpt>
      <trkpt lat="44.88997" lon="3.79625">
        <ele>1209.48</ele>
        <time>2022-08-02T09:05:24Z</time>
      </trkpt>
      <trkpt lat="44.89011" lon="3.79606">
        <ele>1209.96</ele>
        <time>2022-08-02T09:05:39Z</time>
      </trkpt>
      <trkpt lat="44.89027" lon="3.79593">
        <ele>1209.96</ele>
        <time>2022-08-02T09:05:53Z</time>
      </trkpt>
      <trkpt lat="44.89041" lon="3.79573">
        <ele>1209.96</ele>
        <time>2022-08-02T09:06:08Z</time>
      </trkpt>
      <trkpt lat="44.89046" lon="3.79546">
        <ele>1209.48</ele>
        <time>2022-08-02T09:06:23Z</time>
      </trkpt>
      <trkpt lat="44.89046" lon="3.79527">
        <ele>1209.48</ele>
        <time>2022-08-02T09:06:33Z</time>
      </trkpt>
      <trkpt lat="44.89047" lon="3.79505">
        <ele>1210.44</ele>
        <time>2022-08-02T09:06:45Z</time>
      </trkpt>
      <trkpt lat="44.89047" lon="3.79501">
        <ele>1210.44</ele>
        <time>2022-08-02T09:06:47Z</time>
      </trkpt>
      <trkpt lat="44.8905" lon="3.79474">
        <ele>1211.4</ele>
        <time>2022-08-02T09:07:02Z</time>
      </trkpt>
      <trkpt lat="44.89051" lon="3.79447">
        <ele>1211.4</ele>
        <time>2022-08-02T09:07:16Z</time>
      </trkpt>
      <trkpt lat="44.89052" lon="3.7942">
        <ele>1211.4</ele>
        <time>2022-08-02T09:07:31Z</time>
      </trkpt>
      <trkpt lat="44.89049" lon="3.79399">
        <ele>1210.92</ele>
        <time>2022-08-02T09:07:43Z</time>
      </trkpt>
      <trkpt lat="44.89043" lon="3.79376">
        <ele>1211.4</ele>
        <time>2022-08-02T09:07:57Z</time>
      </trkpt>
      <trkpt lat="44.89039" lon="3.79354">
        <ele>1211.88</ele>
        <time>2022-08-02T09:08:09Z</time>
      </trkpt>
      <trkpt lat="44.89037" lon="3.79348">
        <ele>1212.36</ele>
        <time>2022-08-02T09:08:13Z</time>
      </trkpt>
      <trkpt lat="44.89032" lon="3.79319">
        <ele>1213.32</ele>
        <time>2022-08-02T09:08:29Z</time>
      </trkpt>
      <trkpt lat="44.89032" lon="3.79313">
        <ele>1213.32</ele>
        <time>2022-08-02T09:08:32Z</time>
      </trkpt>
      <trkpt lat="44.89026" lon="3.79289">
        <ele>1214.28</ele>
        <time>2022-08-02T09:08:46Z</time>
      </trkpt>
      <trkpt lat="44.89025" lon="3.79284">
        <ele>1214.76</ele>
        <time>2022-08-02T09:08:49Z</time>
      </trkpt>
      <trkpt lat="44.89022" lon="3.79272">
        <ele>1214.76</ele>
        <time>2022-08-02T09:08:56Z</time>
      </trkpt>
      <trkpt lat="44.89017" lon="3.7925">
        <ele>1214.76</ele>
        <time>2022-08-02T09:09:08Z</time>
      </trkpt>
      <trkpt lat="44.89013" lon="3.79231">
        <ele>1214.76</ele>
        <time>2022-08-02T09:09:19Z</time>
      </trkpt>
      <trkpt lat="44.89012" lon="3.79227">
        <ele>1214.76</ele>
        <time>2022-08-02T09:09:21Z</time>
      </trkpt>
      <trkpt lat="44.89007" lon="3.79207">
        <ele>1215.24</ele>
        <time>2022-08-02T09:09:33Z</time>
      </trkpt>
      <trkpt lat="44.89003" lon="3.79192">
        <ele>1215.72</ele>
        <time>2022-08-02T09:09:42Z</time>
      </trkpt>
      <trkpt lat="44.88998" lon="3.79166">
        <ele>1217.65</ele>
        <time>2022-08-02T09:09:57Z</time>
      </trkpt>
      <trkpt lat="44.88991" lon="3.79146">
        <ele>1218.61</ele>
        <time>2022-08-02T09:10:10Z</time>
      </trkpt>
      <trkpt lat="44.8899" lon="3.79144">
        <ele>1218.61</ele>
        <time>2022-08-02T09:10:11Z</time>
      </trkpt>
      <trkpt lat="44.88984" lon="3.7913">
        <ele>1219.09</ele>
        <time>2022-08-02T09:10:21Z</time>
      </trkpt>
      <trkpt lat="44.88983" lon="3.79127">
        <ele>1219.09</ele>
        <time>2022-08-02T09:10:23Z</time>
      </trkpt>
      <trkpt lat="44.88974" lon="3.79103">
        <ele>1219.09</ele>
        <time>2022-08-02T09:10:38Z</time>
      </trkpt>
      <trkpt lat="44.88974" lon="3.79102">
        <ele>1219.09</ele>
        <time>2022-08-02T09:10:39Z</time>
      </trkpt>
      <trkpt lat="44.88972" lon="3.79101">
        <ele>1219.57</ele>
        <time>2022-08-02T09:10:41Z</time>
      </trkpt>
      <trkpt lat="44.88969" lon="3.79096">
        <ele>1219.57</ele>
        <time>2022-08-02T09:10:45Z</time>
      </trkpt>
      <trkpt lat="44.88953" lon="3.79083">
        <ele>1214.76</ele>
        <time>2022-08-02T09:11:00Z</time>
      </trkpt>
      <trkpt lat="44.8893" lon="3.79072">
        <ele>1215.24</ele>
        <time>2022-08-02T09:11:17Z</time>
      </trkpt>
      <trkpt lat="44.8891" lon="3.79062">
        <ele>1221.01</ele>
        <time>2022-08-02T09:11:33Z</time>
      </trkpt>
      <trkpt lat="44.88902" lon="3.79061">
        <ele>1221.01</ele>
        <time>2022-08-02T09:11:47Z</time>
      </trkpt>
      <trkpt lat="44.88902" lon="3.79062">
        <ele>1220.05</ele>
        <time>2022-08-02T09:12:01Z</time>
      </trkpt>
      <trkpt lat="44.88903" lon="3.79062">
        <ele>1219.57</ele>
        <time>2022-08-02T09:12:22Z</time>
      </trkpt>
      <trkpt lat="44.88904" lon="3.79063">
        <ele>1218.61</ele>
        <time>2022-08-02T09:12:44Z</time>
      </trkpt>
      <trkpt lat="44.88903" lon="3.79063">
        <ele>1218.13</ele>
        <time>2022-08-02T09:12:57Z</time>
      </trkpt>
      <trkpt lat="44.88906" lon="3.79063">
        <ele>1219.57</ele>
        <time>2022-08-02T09:13:29Z</time>
      </trkpt>
      <trkpt lat="44.88904" lon="3.7906">
        <ele>1220.53</ele>
        <time>2022-08-02T09:14:00Z</time>
      </trkpt>
      <trkpt lat="44.88914" lon="3.7906">
        <ele>1229.18</ele>
        <time>2022-08-02T09:14:38Z</time>
      </trkpt>
      <trkpt lat="44.88917" lon="3.79057">
        <ele>1233.51</ele>
        <time>2022-08-02T09:15:12Z</time>
      </trkpt>
      <trkpt lat="44.88913" lon="3.79057">
        <ele>1233.99</ele>
        <time>2022-08-02T09:15:36Z</time>
      </trkpt>
      <trkpt lat="44.88908" lon="3.79059">
        <ele>1228.7</ele>
        <time>2022-08-02T09:15:57Z</time>
      </trkpt>
      <trkpt lat="44.88909" lon="3.79058">
        <ele>1228.22</ele>
        <time>2022-08-02T09:16:21Z</time>
      </trkpt>
      <trkpt lat="44.88906" lon="3.79062">
        <ele>1225.34</ele>
        <time>2022-08-02T09:16:48Z</time>
      </trkpt>
      <trkpt lat="44.88901" lon="3.79065">
        <ele>1224.38</ele>
        <time>2022-08-02T09:17:21Z</time>
      </trkpt>
      <trkpt lat="44.88902" lon="3.79066">
        <ele>1225.82</ele>
        <time>2022-08-02T09:17:46Z</time>
      </trkpt>
      <trkpt lat="44.88901" lon="3.79066">
        <ele>1223.42</ele>
        <time>2022-08-02T09:18:15Z</time>
      </trkpt>
      <trkpt lat="44.88899" lon="3.79069">
        <ele>1220.53</ele>
        <time>2022-08-02T09:18:54Z</time>
      </trkpt>
      <trkpt lat="44.88896" lon="3.79067">
        <ele>1215.24</ele>
        <time>2022-08-02T09:19:20Z</time>
      </trkpt>
      <trkpt lat="44.88898" lon="3.79069">
        <ele>1212.36</ele>
        <time>2022-08-02T09:19:49Z</time>
      </trkpt>
      <trkpt lat="44.88902" lon="3.79066">
        <ele>1215.24</ele>
        <time>2022-08-02T09:20:12Z</time>
      </trkpt>
      <trkpt lat="44.88911" lon="3.79061">
        <ele>1223.9</ele>
        <time>2022-08-02T09:20:49Z</time>
      </trkpt>
      <trkpt lat="44.88912" lon="3.7906">
        <ele>1226.78</ele>
        <time>2022-08-02T09:21:19Z</time>
      </trkpt>
      <trkpt lat="44.88907" lon="3.79059">
        <ele>1227.26</ele>
        <time>2022-08-02T09:21:54Z</time>
      </trkpt>
      <trkpt lat="44.88908" lon="3.79058">
        <ele>1224.86</ele>
        <time>2022-08-02T09:22:31Z</time>
      </trkpt>
      <trkpt lat="44.88909" lon="3.7906">
        <ele>1223.9</ele>
        <time>2022-08-02T09:23:11Z</time>
      </trkpt>
      <trkpt lat="44.88911" lon="3.79058">
        <ele>1221.49</ele>
        <time>2022-08-02T09:23:45Z</time>
      </trkpt>
      <trkpt lat="44.88905" lon="3.79062">
        <ele>1218.13</ele>
        <time>2022-08-02T09:24:16Z</time>
      </trkpt>
      <trkpt lat="44.88899" lon="3.79065">
        <ele>1213.8</ele>
        <time>2022-08-02T09:24:55Z</time>
      </trkpt>
      <trkpt lat="44.88901" lon="3.79065">
        <ele>1213.8</ele>
        <time>2022-08-02T09:25:25Z</time>
      </trkpt>
      <trkpt lat="44.8891" lon="3.79063">
        <ele>1215.24</ele>
        <time>2022-08-02T09:26:01Z</time>
      </trkpt>
      <trkpt lat="44.88899" lon="3.79055">
        <ele>1223.9</ele>
        <time>2022-08-02T09:26:40Z</time>
      </trkpt>
      <trkpt lat="44.88899" lon="3.79054">
        <ele>1227.74</ele>
        <time>2022-08-02T09:27:19Z</time>
      </trkpt>
      <trkpt lat="44.88906" lon="3.79056">
        <ele>1223.9</ele>
        <time>2022-08-02T09:27:49Z</time>
      </trkpt>
      <trkpt lat="44.88908" lon="3.79059">
        <ele>1222.45</ele>
        <time>2022-08-02T09:28:25Z</time>
      </trkpt>
      <trkpt lat="44.88915" lon="3.79055">
        <ele>1222.93</ele>
        <time>2022-08-02T09:29:06Z</time>
      </trkpt>
      <trkpt lat="44.88913" lon="3.79054">
        <ele>1226.3</ele>
        <time>2022-08-02T09:29:42Z</time>
      </trkpt>
      <trkpt lat="44.88909" lon="3.79056">
        <ele>1227.26</ele>
        <time>2022-08-02T09:30:22Z</time>
      </trkpt>
      <trkpt lat="44.88907" lon="3.79058">
        <ele>1225.34</ele>
        <time>2022-08-02T09:30:50Z</time>
      </trkpt>
      <trkpt lat="44.88909" lon="3.79059">
        <ele>1226.3</ele>
        <time>2022-08-02T09:31:26Z</time>
      </trkpt>
      <trkpt lat="44.88905" lon="3.79059">
        <ele>1225.82</ele>
        <time>2022-08-02T09:32:04Z</time>
      </trkpt>
      <trkpt lat="44.88908" lon="3.79064">
        <ele>1223.42</ele>
        <time>2022-08-02T09:32:40Z</time>
      </trkpt>
      <trkpt lat="44.88904" lon="3.79067">
        <ele>1216.69</ele>
        <time>2022-08-02T09:33:13Z</time>
      </trkpt>
      <trkpt lat="44.88908" lon="3.79062">
        <ele>1218.13</ele>
        <time>2022-08-02T09:33:47Z</time>
      </trkpt>
      <trkpt lat="44.88907" lon="3.79063">
        <ele>1218.13</ele>
        <time>2022-08-02T09:34:20Z</time>
      </trkpt>
      <trkpt lat="44.88909" lon="3.79063">
        <ele>1216.21</ele>
        <time>2022-08-02T09:34:54Z</time>
      </trkpt>
      <trkpt lat="44.88912" lon="3.7906">
        <ele>1218.13</ele>
        <time>2022-08-02T09:35:21Z</time>
      </trkpt>
      <trkpt lat="44.88913" lon="3.79059">
        <ele>1217.65</ele>
        <time>2022-08-02T09:35:58Z</time>
      </trkpt>
      <trkpt lat="44.88912" lon="3.79058">
        <ele>1217.17</ele>
        <time>2022-08-02T09:36:32Z</time>
      </trkpt>
      <trkpt lat="44.88908" lon="3.79058">
        <ele>1223.9</ele>
        <time>2022-08-02T09:37:02Z</time>
      </trkpt>
      <trkpt lat="44.88905" lon="3.7906">
        <ele>1229.66</ele>
        <time>2022-08-02T09:37:32Z</time>
      </trkpt>
      <trkpt lat="44.88909" lon="3.79061">
        <ele>1226.78</ele>
        <time>2022-08-02T09:37:57Z</time>
      </trkpt>
      <trkpt lat="44.88908" lon="3.79062">
        <ele>1228.22</ele>
        <time>2022-08-02T09:38:18Z</time>
      </trkpt>
      <trkpt lat="44.88907" lon="3.79062">
        <ele>1228.22</ele>
        <time>2022-08-02T09:38:34Z</time>
      </trkpt>
      <trkpt lat="44.8891" lon="3.7906">
        <ele>1226.78</ele>
        <time>2022-08-02T09:38:55Z</time>
      </trkpt>
      <trkpt lat="44.88912" lon="3.79059">
        <ele>1224.86</ele>
        <time>2022-08-02T09:39:13Z</time>
      </trkpt>
      <trkpt lat="44.88909" lon="3.79057">
        <ele>1224.86</ele>
        <time>2022-08-02T09:39:32Z</time>
      </trkpt>
      <trkpt lat="44.88908" lon="3.79057">
        <ele>1225.82</ele>
        <time>2022-08-02T09:39:53Z</time>
      </trkpt>
      <trkpt lat="44.88908" lon="3.79057">
        <ele>1228.22</ele>
        <time>2022-08-02T09:40:19Z</time>
      </trkpt>
      <trkpt lat="44.88908" lon="3.79056">
        <ele>1230.14</ele>
        <time>2022-08-02T09:40:46Z</time>
      </trkpt>
      <trkpt lat="44.88903" lon="3.79056">
        <ele>1231.11</ele>
        <time>2022-08-02T09:41:20Z</time>
      </trkpt>
      <trkpt lat="44.88903" lon="3.79055">
        <ele>1231.11</ele>
        <time>2022-08-02T09:41:56Z</time>
      </trkpt>
      <trkpt lat="44.88906" lon="3.79055">
        <ele>1231.11</ele>
        <time>2022-08-02T09:42:29Z</time>
      </trkpt>
      <trkpt lat="44.88909" lon="3.79054">
        <ele>1230.14</ele>
        <time>2022-08-02T09:43:11Z</time>
      </trkpt>
      <trkpt lat="44.8891" lon="3.79053">
        <ele>1230.62</ele>
        <time>2022-08-02T09:43:39Z</time>
      </trkpt>
      <trkpt lat="44.88909" lon="3.79054">
        <ele>1231.59</ele>
        <time>2022-08-02T09:44:07Z</time>
      </trkpt>
      <trkpt lat="44.88908" lon="3.79055">
        <ele>1231.11</ele>
        <time>2022-08-02T09:44:33Z</time>
      </trkpt>
      <trkpt lat="44.88906" lon="3.79058">
        <ele>1227.26</ele>
        <time>2022-08-02T09:45:10Z</time>
      </trkpt>
      <trkpt lat="44.88907" lon="3.79058">
        <ele>1224.86</ele>
        <time>2022-08-02T09:45:47Z</time>
      </trkpt>
      <trkpt lat="44.88912" lon="3.79055">
        <ele>1225.34</ele>
        <time>2022-08-02T09:46:28Z</time>
      </trkpt>
      <trkpt lat="44.88913" lon="3.79055">
        <ele>1225.34</ele>
        <time>2022-08-02T09:46:59Z</time>
      </trkpt>
      <trkpt lat="44.88913" lon="3.79054">
        <ele>1227.26</ele>
        <time>2022-08-02T09:47:39Z</time>
      </trkpt>
      <trkpt lat="44.88908" lon="3.79058">
        <ele>1227.26</ele>
        <time>2022-08-02T09:48:04Z</time>
      </trkpt>
      <trkpt lat="44.88902" lon="3.79062">
        <ele>1222.45</ele>
        <time>2022-08-02T09:48:40Z</time>
      </trkpt>
      <trkpt lat="44.88899" lon="3.79066">
        <ele>1218.13</ele>
        <time>2022-08-02T09:49:19Z</time>
      </trkpt>
      <trkpt lat="44.88899" lon="3.79065">
        <ele>1210.44</ele>
        <time>2022-08-02T09:49:55Z</time>
      </trkpt>
      <trkpt lat="44.889" lon="3.79066">
        <ele>1207.55</ele>
        <time>2022-08-02T09:50:32Z</time>
      </trkpt>
      <trkpt lat="44.889" lon="3.79066">
        <ele>1206.59</ele>
        <time>2022-08-02T09:51:06Z</time>
      </trkpt>
      <trkpt lat="44.88904" lon="3.79065">
        <ele>1208.03</ele>
        <time>2022-08-02T09:51:38Z</time>
      </trkpt>
      <trkpt lat="44.88901" lon="3.79065">
        <ele>1208.03</ele>
        <time>2022-08-02T09:52:04Z</time>
      </trkpt>
      <trkpt lat="44.88899" lon="3.79065">
        <ele>1209</ele>
        <time>2022-08-02T09:52:38Z</time>
      </trkpt>
      <trkpt lat="44.88901" lon="3.79061">
        <ele>1212.84</ele>
        <time>2022-08-02T09:53:12Z</time>
      </trkpt>
      <trkpt lat="44.88903" lon="3.79063">
        <ele>1217.65</ele>
        <time>2022-08-02T09:53:40Z</time>
      </trkpt>
      <trkpt lat="44.88904" lon="3.79063">
        <ele>1219.09</ele>
        <time>2022-08-02T09:53:51Z</time>
      </trkpt>
      <trkpt lat="44.88908" lon="3.79063">
        <ele>1218.13</ele>
        <time>2022-08-02T09:54:12Z</time>
      </trkpt>
      <trkpt lat="44.88913" lon="3.7906">
        <ele>1219.57</ele>
        <time>2022-08-02T09:54:39Z</time>
      </trkpt>
      <trkpt lat="44.8892" lon="3.79055">
        <ele>1221.49</ele>
        <time>2022-08-02T09:55:00Z</time>
      </trkpt>
      <trkpt lat="44.88922" lon="3.79054">
        <ele>1221.97</ele>
        <time>2022-08-02T09:55:20Z</time>
      </trkpt>
      <trkpt lat="44.88916" lon="3.79057">
        <ele>1222.45</ele>
        <time>2022-08-02T09:55:34Z</time>
      </trkpt>
      <trkpt lat="44.88911" lon="3.79063">
        <ele>1223.42</ele>
        <time>2022-08-02T09:55:49Z</time>
      </trkpt>
      <trkpt lat="44.88909" lon="3.79063">
        <ele>1224.38</ele>
        <time>2022-08-02T09:56:06Z</time>
      </trkpt>
      <trkpt lat="44.88919" lon="3.79075">
        <ele>1222.45</ele>
        <time>2022-08-02T09:56:20Z</time>
      </trkpt>
      <trkpt lat="44.88933" lon="3.79085">
        <ele>1220.53</ele>
        <time>2022-08-02T09:56:34Z</time>
      </trkpt>
      <trkpt lat="44.88952" lon="3.79092">
        <ele>1220.53</ele>
        <time>2022-08-02T09:56:51Z</time>
      </trkpt>
      <trkpt lat="44.88959" lon="3.79097">
        <ele>1221.01</ele>
        <time>2022-08-02T09:56:58Z</time>
      </trkpt>
      <trkpt lat="44.88981" lon="3.79098">
        <ele>1219.57</ele>
        <time>2022-08-02T09:57:15Z</time>
      </trkpt>
      <trkpt lat="44.88997" lon="3.79094">
        <ele>1221.01</ele>
        <time>2022-08-02T09:57:30Z</time>
      </trkpt>
      <trkpt lat="44.89015" lon="3.79095">
        <ele>1220.53</ele>
        <time>2022-08-02T09:57:45Z</time>
      </trkpt>
      <trkpt lat="44.89032" lon="3.79095">
        <ele>1221.49</ele>
        <time>2022-08-02T09:58:00Z</time>
      </trkpt>
      <trkpt lat="44.89038" lon="3.79095">
        <ele>1221.97</ele>
        <time>2022-08-02T09:58:05Z</time>
      </trkpt>
      <trkpt lat="44.89058" lon="3.79097">
        <ele>1222.93</ele>
        <time>2022-08-02T09:58:20Z</time>
      </trkpt>
      <trkpt lat="44.89075" lon="3.79098">
        <ele>1222.45</ele>
        <time>2022-08-02T09:58:34Z</time>
      </trkpt>
      <trkpt lat="44.89088" lon="3.79097">
        <ele>1221.97</ele>
        <time>2022-08-02T09:58:45Z</time>
      </trkpt>
      <trkpt lat="44.89108" lon="3.79095">
        <ele>1221.49</ele>
        <time>2022-08-02T09:59:02Z</time>
      </trkpt>
      <trkpt lat="44.89128" lon="3.79089">
        <ele>1221.49</ele>
        <time>2022-08-02T09:59:18Z</time>
      </trkpt>
      <trkpt lat="44.89149" lon="3.79082">
        <ele>1221.01</ele>
        <time>2022-08-02T09:59:36Z</time>
      </trkpt>
      <trkpt lat="44.89169" lon="3.79075">
        <ele>1221.01</ele>
        <time>2022-08-02T09:59:53Z</time>
      </trkpt>
      <trkpt lat="44.89187" lon="3.79082">
        <ele>1219.57</ele>
        <time>2022-08-02T10:00:08Z</time>
      </trkpt>
      <trkpt lat="44.89204" lon="3.79086">
        <ele>1220.05</ele>
        <time>2022-08-02T10:00:23Z</time>
      </trkpt>
      <trkpt lat="44.89226" lon="3.79093">
        <ele>1220.05</ele>
        <time>2022-08-02T10:00:41Z</time>
      </trkpt>
      <trkpt lat="44.89244" lon="3.79099">
        <ele>1221.01</ele>
        <time>2022-08-02T10:00:56Z</time>
      </trkpt>
      <trkpt lat="44.89264" lon="3.79106">
        <ele>1221.01</ele>
        <time>2022-08-02T10:01:14Z</time>
      </trkpt>
      <trkpt lat="44.89284" lon="3.79113">
        <ele>1220.53</ele>
        <time>2022-08-02T10:01:31Z</time>
      </trkpt>
      <trkpt lat="44.89301" lon="3.79119">
        <ele>1221.01</ele>
        <time>2022-08-02T10:01:46Z</time>
      </trkpt>
      <trkpt lat="44.89321" lon="3.79126">
        <ele>1221.97</ele>
        <time>2022-08-02T10:02:04Z</time>
      </trkpt>
      <trkpt lat="44.89338" lon="3.79133">
        <ele>1222.45</ele>
        <time>2022-08-02T10:02:20Z</time>
      </trkpt>
      <trkpt lat="44.89358" lon="3.79141">
        <ele>1222.93</ele>
        <time>2022-08-02T10:02:38Z</time>
      </trkpt>
      <trkpt lat="44.89377" lon="3.79149">
        <ele>1223.42</ele>
        <time>2022-08-02T10:02:55Z</time>
      </trkpt>
      <trkpt lat="44.89394" lon="3.79157">
        <ele>1224.38</ele>
        <time>2022-08-02T10:03:11Z</time>
      </trkpt>
      <trkpt lat="44.89412" lon="3.79167">
        <ele>1225.34</ele>
        <time>2022-08-02T10:03:28Z</time>
      </trkpt>
      <trkpt lat="44.89427" lon="3.79177">
        <ele>1226.3</ele>
        <time>2022-08-02T10:03:43Z</time>
      </trkpt>
      <trkpt lat="44.89445" lon="3.79191">
        <ele>1227.26</ele>
        <time>2022-08-02T10:04:01Z</time>
      </trkpt>
      <trkpt lat="44.89461" lon="3.79202">
        <ele>1227.74</ele>
        <time>2022-08-02T10:04:17Z</time>
      </trkpt>
      <trkpt lat="44.89477" lon="3.79214">
        <ele>1228.22</ele>
        <time>2022-08-02T10:04:32Z</time>
      </trkpt>
      <trkpt lat="44.89493" lon="3.79224">
        <ele>1229.18</ele>
        <time>2022-08-02T10:04:47Z</time>
      </trkpt>
      <trkpt lat="44.89495" lon="3.79225">
        <ele>1229.18</ele>
        <time>2022-08-02T10:04:49Z</time>
      </trkpt>
      <trkpt lat="44.895" lon="3.79228">
        <ele>1229.18</ele>
        <time>2022-08-02T10:04:54Z</time>
      </trkpt>
      <trkpt lat="44.8952" lon="3.79236">
        <ele>1229.66</ele>
        <time>2022-08-02T10:05:12Z</time>
      </trkpt>
      <trkpt lat="44.89537" lon="3.79245">
        <ele>1229.66</ele>
        <time>2022-08-02T10:05:27Z</time>
      </trkpt>
      <trkpt lat="44.89541" lon="3.79247">
        <ele>1229.66</ele>
        <time>2022-08-02T10:05:30Z</time>
      </trkpt>
      <trkpt lat="44.89551" lon="3.79251">
        <ele>1230.14</ele>
        <time>2022-08-02T10:05:39Z</time>
      </trkpt>
      <trkpt lat="44.89566" lon="3.79255">
        <ele>1229.66</ele>
        <time>2022-08-02T10:05:52Z</time>
      </trkpt>
      <trkpt lat="44.89583" lon="3.79262">
        <ele>1230.14</ele>
        <time>2022-08-02T10:06:07Z</time>
      </trkpt>
      <trkpt lat="44.89598" lon="3.79266">
        <ele>1231.11</ele>
        <time>2022-08-02T10:06:20Z</time>
      </trkpt>
      <trkpt lat="44.89619" lon="3.79272">
        <ele>1232.55</ele>
        <time>2022-08-02T10:06:38Z</time>
      </trkpt>
      <trkpt lat="44.89635" lon="3.79277">
        <ele>1233.03</ele>
        <time>2022-08-02T10:06:52Z</time>
      </trkpt>
      <trkpt lat="44.89655" lon="3.79283">
        <ele>1233.51</ele>
        <time>2022-08-02T10:07:08Z</time>
      </trkpt>
      <trkpt lat="44.89674" lon="3.79288">
        <ele>1234.47</ele>
        <time>2022-08-02T10:07:24Z</time>
      </trkpt>
      <trkpt lat="44.8968" lon="3.79288">
        <ele>1234.47</ele>
        <time>2022-08-02T10:07:29Z</time>
      </trkpt>
      <trkpt lat="44.89699" lon="3.79292">
        <ele>1233.99</ele>
        <time>2022-08-02T10:07:45Z</time>
      </trkpt>
      <trkpt lat="44.89715" lon="3.79292">
        <ele>1234.47</ele>
        <time>2022-08-02T10:07:58Z</time>
      </trkpt>
      <trkpt lat="44.89734" lon="3.79291">
        <ele>1234.95</ele>
        <time>2022-08-02T10:08:14Z</time>
      </trkpt>
      <trkpt lat="44.89754" lon="3.7929">
        <ele>1234.47</ele>
        <time>2022-08-02T10:08:30Z</time>
      </trkpt>
      <trkpt lat="44.89773" lon="3.79289">
        <ele>1233.99</ele>
        <time>2022-08-02T10:08:46Z</time>
      </trkpt>
      <trkpt lat="44.89791" lon="3.7929">
        <ele>1233.51</ele>
        <time>2022-08-02T10:09:01Z</time>
      </trkpt>
      <trkpt lat="44.89812" lon="3.79292">
        <ele>1234.47</ele>
        <time>2022-08-02T10:09:18Z</time>
      </trkpt>
      <trkpt lat="44.89827" lon="3.79294">
        <ele>1234.47</ele>
        <time>2022-08-02T10:09:31Z</time>
      </trkpt>
      <trkpt lat="44.89847" lon="3.79298">
        <ele>1235.43</ele>
        <time>2022-08-02T10:09:47Z</time>
      </trkpt>
      <trkpt lat="44.89865" lon="3.79303">
        <ele>1235.91</ele>
        <time>2022-08-02T10:10:02Z</time>
      </trkpt>
      <trkpt lat="44.89881" lon="3.79312">
        <ele>1237.35</ele>
        <time>2022-08-02T10:10:17Z</time>
      </trkpt>
      <trkpt lat="44.89895" lon="3.79323">
        <ele>1238.32</ele>
        <time>2022-08-02T10:10:31Z</time>
      </trkpt>
      <trkpt lat="44.89903" lon="3.79331">
        <ele>1237.83</ele>
        <time>2022-08-02T10:10:47Z</time>
      </trkpt>
      <trkpt lat="44.89908" lon="3.79335">
        <ele>1238.8</ele>
        <time>2022-08-02T10:11:07Z</time>
      </trkpt>
      <trkpt lat="44.89925" lon="3.79348">
        <ele>1237.35</ele>
        <time>2022-08-02T10:11:23Z</time>
      </trkpt>
      <trkpt lat="44.89942" lon="3.7936">
        <ele>1238.32</ele>
        <time>2022-08-02T10:11:39Z</time>
      </trkpt>
      <trkpt lat="44.89963" lon="3.79373">
        <ele>1239.76</ele>
        <time>2022-08-02T10:11:57Z</time>
      </trkpt>
      <trkpt lat="44.89982" lon="3.79381">
        <ele>1239.76</ele>
        <time>2022-08-02T10:12:13Z</time>
      </trkpt>
      <trkpt lat="44.89999" lon="3.7939">
        <ele>1239.28</ele>
        <time>2022-08-02T10:12:28Z</time>
      </trkpt>
      <trkpt lat="44.90012" lon="3.79395">
        <ele>1239.76</ele>
        <time>2022-08-02T10:12:39Z</time>
      </trkpt>
      <trkpt lat="44.90018" lon="3.79397">
        <ele>1240.24</ele>
        <time>2022-08-02T10:12:44Z</time>
      </trkpt>
      <trkpt lat="44.90034" lon="3.79401">
        <ele>1240.72</ele>
        <time>2022-08-02T10:12:57Z</time>
      </trkpt>
      <trkpt lat="44.90055" lon="3.79407">
        <ele>1242.16</ele>
        <time>2022-08-02T10:13:15Z</time>
      </trkpt>
      <trkpt lat="44.90073" lon="3.79412">
        <ele>1243.6</ele>
        <time>2022-08-02T10:13:30Z</time>
      </trkpt>
      <trkpt lat="44.90082" lon="3.79415">
        <ele>1244.56</ele>
        <time>2022-08-02T10:13:38Z</time>
      </trkpt>
      <trkpt lat="44.90096" lon="3.79421">
        <ele>1246.49</ele>
        <time>2022-08-02T10:13:50Z</time>
      </trkpt>
      <trkpt lat="44.90101" lon="3.79422">
        <ele>1246.97</ele>
        <time>2022-08-02T10:13:54Z</time>
      </trkpt>
      <trkpt lat="44.90121" lon="3.79431">
        <ele>1247.45</ele>
        <time>2022-08-02T10:14:11Z</time>
      </trkpt>
      <trkpt lat="44.90122" lon="3.79431">
        <ele>1247.45</ele>
        <time>2022-08-02T10:14:12Z</time>
      </trkpt>
      <trkpt lat="44.90129" lon="3.79434">
        <ele>1247.93</ele>
        <time>2022-08-02T10:14:18Z</time>
      </trkpt>
      <trkpt lat="44.90149" lon="3.79439">
        <ele>1247.45</ele>
        <time>2022-08-02T10:14:35Z</time>
      </trkpt>
      <trkpt lat="44.90168" lon="3.79442">
        <ele>1248.89</ele>
        <time>2022-08-02T10:14:51Z</time>
      </trkpt>
      <trkpt lat="44.90183" lon="3.79443">
        <ele>1251.29</ele>
        <time>2022-08-02T10:15:04Z</time>
      </trkpt>
      <trkpt lat="44.90202" lon="3.79443">
        <ele>1251.77</ele>
        <time>2022-08-02T10:15:20Z</time>
      </trkpt>
      <trkpt lat="44.90203" lon="3.79443">
        <ele>1251.77</ele>
        <time>2022-08-02T10:15:21Z</time>
      </trkpt>
      <trkpt lat="44.90212" lon="3.79445">
        <ele>1252.25</ele>
        <time>2022-08-02T10:15:29Z</time>
      </trkpt>
      <trkpt lat="44.90231" lon="3.79445">
        <ele>1253.7</ele>
        <time>2022-08-02T10:15:45Z</time>
      </trkpt>
      <trkpt lat="44.9025" lon="3.79444">
        <ele>1257.06</ele>
        <time>2022-08-02T10:16:02Z</time>
      </trkpt>
      <trkpt lat="44.90265" lon="3.79442">
        <ele>1259.46</ele>
        <time>2022-08-02T10:16:16Z</time>
      </trkpt>
      <trkpt lat="44.90269" lon="3.79442">
        <ele>1259.94</ele>
        <time>2022-08-02T10:16:20Z</time>
      </trkpt>
      <trkpt lat="44.90284" lon="3.79441">
        <ele>1261.87</ele>
        <time>2022-08-02T10:16:36Z</time>
      </trkpt>
      <trkpt lat="44.90296" lon="3.79439">
        <ele>1263.79</ele>
        <time>2022-08-02T10:16:51Z</time>
      </trkpt>
      <trkpt lat="44.90297" lon="3.7944">
        <ele>1263.79</ele>
        <time>2022-08-02T10:16:52Z</time>
      </trkpt>
      <trkpt lat="44.90302" lon="3.79446">
        <ele>1264.27</ele>
        <time>2022-08-02T10:16:58Z</time>
      </trkpt>
      <trkpt lat="44.90319" lon="3.7946">
        <ele>1265.23</ele>
        <time>2022-08-02T10:17:13Z</time>
      </trkpt>
      <trkpt lat="44.90331" lon="3.79458">
        <ele>1263.79</ele>
        <time>2022-08-02T10:17:22Z</time>
      </trkpt>
      <trkpt lat="44.90333" lon="3.79458">
        <ele>1263.79</ele>
        <time>2022-08-02T10:17:24Z</time>
      </trkpt>
      <trkpt lat="44.90337" lon="3.79457">
        <ele>1264.27</ele>
        <time>2022-08-02T10:17:40Z</time>
      </trkpt>
      <trkpt lat="44.90338" lon="3.79462">
        <ele>1269.08</ele>
        <time>2022-08-02T10:18:09Z</time>
      </trkpt>
      <trkpt lat="44.90345" lon="3.79464">
        <ele>1269.56</ele>
        <time>2022-08-02T10:18:23Z</time>
      </trkpt>
      <trkpt lat="44.90359" lon="3.79456">
        <ele>1265.23</ele>
        <time>2022-08-02T10:18:42Z</time>
      </trkpt>
      <trkpt lat="44.90364" lon="3.79451">
        <ele>1261.87</ele>
        <time>2022-08-02T10:18:50Z</time>
      </trkpt>
      <trkpt lat="44.90375" lon="3.79439">
        <ele>1258.98</ele>
        <time>2022-08-02T10:19:04Z</time>
      </trkpt>
      <trkpt lat="44.90387" lon="3.79441">
        <ele>1258.02</ele>
        <time>2022-08-02T10:19:16Z</time>
      </trkpt>
      <trkpt lat="44.90396" lon="3.79436">
        <ele>1259.46</ele>
        <time>2022-08-02T10:19:30Z</time>
      </trkpt>
      <trkpt lat="44.90402" lon="3.79438">
        <ele>1260.91</ele>
        <time>2022-08-02T10:19:36Z</time>
      </trkpt>
      <trkpt lat="44.90415" lon="3.79443">
        <ele>1260.91</ele>
        <time>2022-08-02T10:19:50Z</time>
      </trkpt>
      <trkpt lat="44.90427" lon="3.7944">
        <ele>1261.39</ele>
        <time>2022-08-02T10:20:05Z</time>
      </trkpt>
      <trkpt lat="44.90435" lon="3.79439">
        <ele>1261.39</ele>
        <time>2022-08-02T10:20:13Z</time>
      </trkpt>
      <trkpt lat="44.90459" lon="3.79438">
        <ele>1261.87</ele>
        <time>2022-08-02T10:20:32Z</time>
      </trkpt>
      <trkpt lat="44.90477" lon="3.79435">
        <ele>1260.43</ele>
        <time>2022-08-02T10:20:46Z</time>
      </trkpt>
      <trkpt lat="44.90486" lon="3.79436">
        <ele>1260.43</ele>
        <time>2022-08-02T10:20:53Z</time>
      </trkpt>
      <trkpt lat="44.90511" lon="3.79401">
        <ele>1246.97</ele>
        <time>2022-08-02T10:21:09Z</time>
      </trkpt>
      <trkpt lat="44.90517" lon="3.79391">
        <ele>1243.12</ele>
        <time>2022-08-02T10:21:18Z</time>
      </trkpt>
      <trkpt lat="44.90525" lon="3.79374">
        <ele>1233.99</ele>
        <time>2022-08-02T10:21:32Z</time>
      </trkpt>
      <trkpt lat="44.90532" lon="3.79357">
        <ele>1228.22</ele>
        <time>2022-08-02T10:21:47Z</time>
      </trkpt>
      <trkpt lat="44.9054" lon="3.7934">
        <ele>1221.97</ele>
        <time>2022-08-02T10:22:00Z</time>
      </trkpt>
      <trkpt lat="44.90543" lon="3.79333">
        <ele>1221.97</ele>
        <time>2022-08-02T10:22:05Z</time>
      </trkpt>
      <trkpt lat="44.90549" lon="3.79322">
        <ele>1221.01</ele>
        <time>2022-08-02T10:22:15Z</time>
      </trkpt>
      <trkpt lat="44.90551" lon="3.7931">
        <ele>1220.05</ele>
        <time>2022-08-02T10:22:30Z</time>
      </trkpt>
      <trkpt lat="44.90552" lon="3.79308">
        <ele>1220.05</ele>
        <time>2022-08-02T10:22:34Z</time>
      </trkpt>
      <trkpt lat="44.90554" lon="3.79304">
        <ele>1219.09</ele>
        <time>2022-08-02T10:22:37Z</time>
      </trkpt>
      <trkpt lat="44.90559" lon="3.79293">
        <ele>1218.61</ele>
        <time>2022-08-02T10:22:45Z</time>
      </trkpt>
      <trkpt lat="44.90565" lon="3.7927">
        <ele>1215.24</ele>
        <time>2022-08-02T10:23:01Z</time>
      </trkpt>
      <trkpt lat="44.90565" lon="3.79267">
        <ele>1214.76</ele>
        <time>2022-08-02T10:23:03Z</time>
      </trkpt>
      <trkpt lat="44.90575" lon="3.79252">
        <ele>1210.92</ele>
        <time>2022-08-02T10:23:17Z</time>
      </trkpt>
      <trkpt lat="44.90578" lon="3.7925">
        <ele>1211.4</ele>
        <time>2022-08-02T10:23:25Z</time>
      </trkpt>
      <trkpt lat="44.90584" lon="3.79246">
        <ele>1212.36</ele>
        <time>2022-08-02T10:23:32Z</time>
      </trkpt>
      <trkpt lat="44.90594" lon="3.79233">
        <ele>1210.92</ele>
        <time>2022-08-02T10:23:44Z</time>
      </trkpt>
      <trkpt lat="44.90609" lon="3.79237">
        <ele>1209.48</ele>
        <time>2022-08-02T10:23:59Z</time>
      </trkpt>
      <trkpt lat="44.90617" lon="3.79248">
        <ele>1205.63</ele>
        <time>2022-08-02T10:24:13Z</time>
      </trkpt>
      <trkpt lat="44.90619" lon="3.79248">
        <ele>1202.75</ele>
        <time>2022-08-02T10:24:33Z</time>
      </trkpt>
      <trkpt lat="44.90615" lon="3.79255">
        <ele>1205.15</ele>
        <time>2022-08-02T10:25:00Z</time>
      </trkpt>
      <trkpt lat="44.90618" lon="3.79256">
        <ele>1205.15</ele>
        <time>2022-08-02T10:25:22Z</time>
      </trkpt>
      <trkpt lat="44.90624" lon="3.79276">
        <ele>1208.03</ele>
        <time>2022-08-02T10:25:38Z</time>
      </trkpt>
      <trkpt lat="44.90627" lon="3.79288">
        <ele>1209</ele>
        <time>2022-08-02T10:25:45Z</time>
      </trkpt>
      <trkpt lat="44.90637" lon="3.793">
        <ele>1212.84</ele>
        <time>2022-08-02T10:26:01Z</time>
      </trkpt>
      <trkpt lat="44.90638" lon="3.79298">
        <ele>1212.84</ele>
        <time>2022-08-02T10:26:02Z</time>
      </trkpt>
      <trkpt lat="44.9064" lon="3.79293">
        <ele>1211.4</ele>
        <time>2022-08-02T10:26:13Z</time>
      </trkpt>
      <trkpt lat="44.90637" lon="3.79294">
        <ele>1210.92</ele>
        <time>2022-08-02T10:26:28Z</time>
      </trkpt>
      <trkpt lat="44.9064" lon="3.79296">
        <ele>1212.84</ele>
        <time>2022-08-02T10:26:56Z</time>
      </trkpt>
      <trkpt lat="44.90638" lon="3.79291">
        <ele>1211.88</ele>
        <time>2022-08-02T10:27:13Z</time>
      </trkpt>
      <trkpt lat="44.90635" lon="3.79289">
        <ele>1210.92</ele>
        <time>2022-08-02T10:27:28Z</time>
      </trkpt>
      <trkpt lat="44.90636" lon="3.79293">
        <ele>1211.4</ele>
        <time>2022-08-02T10:27:56Z</time>
      </trkpt>
      <trkpt lat="44.90633" lon="3.79298">
        <ele>1213.8</ele>
        <time>2022-08-02T10:28:18Z</time>
      </trkpt>
      <trkpt lat="44.90631" lon="3.79298">
        <ele>1215.72</ele>
        <time>2022-08-02T10:28:51Z</time>
      </trkpt>
      <trkpt lat="44.90636" lon="3.79292">
        <ele>1218.61</ele>
        <time>2022-08-02T10:29:30Z</time>
      </trkpt>
      <trkpt lat="44.90636" lon="3.79294">
        <ele>1216.69</ele>
        <time>2022-08-02T10:30:00Z</time>
      </trkpt>
      <trkpt lat="44.90637" lon="3.79292">
        <ele>1217.17</ele>
        <time>2022-08-02T10:30:33Z</time>
      </trkpt>
      <trkpt lat="44.90638" lon="3.79291">
        <ele>1210.92</ele>
        <time>2022-08-02T10:31:07Z</time>
      </trkpt>
      <trkpt lat="44.90635" lon="3.79292">
        <ele>1215.24</ele>
        <time>2022-08-02T10:31:46Z</time>
      </trkpt>
      <trkpt lat="44.90635" lon="3.79299">
        <ele>1215.24</ele>
        <time>2022-08-02T10:32:20Z</time>
      </trkpt>
      <trkpt lat="44.90636" lon="3.79295">
        <ele>1208.03</ele>
        <time>2022-08-02T10:32:57Z</time>
      </trkpt>
      <trkpt lat="44.90634" lon="3.79292">
        <ele>1213.32</ele>
        <time>2022-08-02T10:33:34Z</time>
      </trkpt>
      <trkpt lat="44.90632" lon="3.79297">
        <ele>1212.84</ele>
        <time>2022-08-02T10:34:10Z</time>
      </trkpt>
      <trkpt lat="44.90635" lon="3.79293">
        <ele>1219.57</ele>
        <time>2022-08-02T10:34:53Z</time>
      </trkpt>
      <trkpt lat="44.90639" lon="3.79299">
        <ele>1208.51</ele>
        <time>2022-08-02T10:35:28Z</time>
      </trkpt>
      <trkpt lat="44.90637" lon="3.79295">
        <ele>1211.4</ele>
        <time>2022-08-02T10:35:59Z</time>
      </trkpt>
      <trkpt lat="44.90634" lon="3.79294">
        <ele>1215.72</ele>
        <time>2022-08-02T10:36:34Z</time>
      </trkpt>
      <trkpt lat="44.90637" lon="3.7929">
        <ele>1216.69</ele>
        <time>2022-08-02T10:37:12Z</time>
      </trkpt>
      <trkpt lat="44.9064" lon="3.79296">
        <ele>1210.92</ele>
        <time>2022-08-02T10:37:49Z</time>
      </trkpt>
      <trkpt lat="44.9064" lon="3.79297">
        <ele>1213.32</ele>
        <time>2022-08-02T10:38:30Z</time>
      </trkpt>
      <trkpt lat="44.90638" lon="3.79297">
        <ele>1202.75</ele>
        <time>2022-08-02T10:39:11Z</time>
      </trkpt>
      <trkpt lat="44.90629" lon="3.79296">
        <ele>1204.67</ele>
        <time>2022-08-02T10:39:55Z</time>
      </trkpt>
      <trkpt lat="44.90632" lon="3.79301">
        <ele>1207.55</ele>
        <time>2022-08-02T10:40:31Z</time>
      </trkpt>
      <trkpt lat="44.90633" lon="3.79297">
        <ele>1207.07</ele>
        <time>2022-08-02T10:41:10Z</time>
      </trkpt>
      <trkpt lat="44.90632" lon="3.79299">
        <ele>1213.8</ele>
        <time>2022-08-02T10:41:59Z</time>
      </trkpt>
      <trkpt lat="44.9064" lon="3.79295">
        <ele>1212.84</ele>
        <time>2022-08-02T10:42:42Z</time>
      </trkpt>
      <trkpt lat="44.9064" lon="3.79299">
        <ele>1217.17</ele>
        <time>2022-08-02T10:43:13Z</time>
      </trkpt>
      <trkpt lat="44.90636" lon="3.79298">
        <ele>1213.32</ele>
        <time>2022-08-02T10:43:46Z</time>
      </trkpt>
      <trkpt lat="44.90637" lon="3.79295">
        <ele>1215.72</ele>
        <time>2022-08-02T10:44:24Z</time>
      </trkpt>
      <trkpt lat="44.90635" lon="3.79294">
        <ele>1215.72</ele>
        <time>2022-08-02T10:45:05Z</time>
      </trkpt>
      <trkpt lat="44.90633" lon="3.79297">
        <ele>1212.84</ele>
        <time>2022-08-02T10:45:41Z</time>
      </trkpt>
      <trkpt lat="44.90637" lon="3.79295">
        <ele>1215.24</ele>
        <time>2022-08-02T10:46:14Z</time>
      </trkpt>
      <trkpt lat="44.90639" lon="3.79294">
        <ele>1217.65</ele>
        <time>2022-08-02T10:46:50Z</time>
      </trkpt>
      <trkpt lat="44.90634" lon="3.79293">
        <ele>1210.92</ele>
        <time>2022-08-02T10:47:34Z</time>
      </trkpt>
      <trkpt lat="44.90636" lon="3.79291">
        <ele>1210.44</ele>
        <time>2022-08-02T10:48:13Z</time>
      </trkpt>
      <trkpt lat="44.90632" lon="3.79289">
        <ele>1209.48</ele>
        <time>2022-08-02T10:48:53Z</time>
      </trkpt>
      <trkpt lat="44.90637" lon="3.79294">
        <ele>1208.03</ele>
        <time>2022-08-02T10:49:29Z</time>
      </trkpt>
      <trkpt lat="44.90637" lon="3.79294">
        <ele>1211.4</ele>
        <time>2022-08-02T10:50:09Z</time>
      </trkpt>
      <trkpt lat="44.90635" lon="3.79297">
        <ele>1212.84</ele>
        <time>2022-08-02T10:50:42Z</time>
      </trkpt>
      <trkpt lat="44.90636" lon="3.79294">
        <ele>1214.76</ele>
        <time>2022-08-02T10:51:14Z</time>
      </trkpt>
      <trkpt lat="44.90638" lon="3.79297">
        <ele>1214.28</ele>
        <time>2022-08-02T10:51:54Z</time>
      </trkpt>
      <trkpt lat="44.90636" lon="3.79298">
        <ele>1215.72</ele>
        <time>2022-08-02T10:52:20Z</time>
      </trkpt>
      <trkpt lat="44.90639" lon="3.7929">
        <ele>1214.76</ele>
        <time>2022-08-02T10:52:54Z</time>
      </trkpt>
      <trkpt lat="44.90641" lon="3.79297">
        <ele>1208.03</ele>
        <time>2022-08-02T10:53:28Z</time>
      </trkpt>
      <trkpt lat="44.90639" lon="3.79294">
        <ele>1211.88</ele>
        <time>2022-08-02T10:54:08Z</time>
      </trkpt>
      <trkpt lat="44.90636" lon="3.79292">
        <ele>1209</ele>
        <time>2022-08-02T10:54:43Z</time>
      </trkpt>
      <trkpt lat="44.90639" lon="3.79291">
        <ele>1212.84</ele>
        <time>2022-08-02T10:55:20Z</time>
      </trkpt>
      <trkpt lat="44.90637" lon="3.79291">
        <ele>1212.36</ele>
        <time>2022-08-02T10:55:57Z</time>
      </trkpt>
      <trkpt lat="44.90629" lon="3.7929">
        <ele>1213.32</ele>
        <time>2022-08-02T10:56:34Z</time>
      </trkpt>
      <trkpt lat="44.9063" lon="3.79293">
        <ele>1216.69</ele>
        <time>2022-08-02T10:57:17Z</time>
      </trkpt>
      <trkpt lat="44.90631" lon="3.79297">
        <ele>1224.38</ele>
        <time>2022-08-02T10:57:53Z</time>
      </trkpt>
      <trkpt lat="44.90638" lon="3.79296">
        <ele>1222.93</ele>
        <time>2022-08-02T10:58:29Z</time>
      </trkpt>
      <trkpt lat="44.90635" lon="3.79298">
        <ele>1220.05</ele>
        <time>2022-08-02T10:58:59Z</time>
      </trkpt>
      <trkpt lat="44.90637" lon="3.79298">
        <ele>1221.01</ele>
        <time>2022-08-02T10:59:36Z</time>
      </trkpt>
      <trkpt lat="44.90636" lon="3.79298">
        <ele>1221.49</ele>
        <time>2022-08-02T11:00:13Z</time>
      </trkpt>
      <trkpt lat="44.90635" lon="3.79297">
        <ele>1219.09</ele>
        <time>2022-08-02T11:00:49Z</time>
      </trkpt>
      <trkpt lat="44.90635" lon="3.79298">
        <ele>1216.21</ele>
        <time>2022-08-02T11:01:17Z</time>
      </trkpt>
      <trkpt lat="44.90633" lon="3.79297">
        <ele>1214.76</ele>
        <time>2022-08-02T11:01:42Z</time>
      </trkpt>
      <trkpt lat="44.90638" lon="3.79302">
        <ele>1218.61</ele>
        <time>2022-08-02T11:02:18Z</time>
      </trkpt>
      <trkpt lat="44.90641" lon="3.79297">
        <ele>1215.72</ele>
        <time>2022-08-02T11:02:52Z</time>
      </trkpt>
      <trkpt lat="44.90638" lon="3.79293">
        <ele>1209</ele>
        <time>2022-08-02T11:03:22Z</time>
      </trkpt>
      <trkpt lat="44.90639" lon="3.7929">
        <ele>1207.55</ele>
        <time>2022-08-02T11:03:57Z</time>
      </trkpt>
      <trkpt lat="44.9064" lon="3.79292">
        <ele>1212.36</ele>
        <time>2022-08-02T11:04:31Z</time>
      </trkpt>
      <trkpt lat="44.90635" lon="3.79295">
        <ele>1209.96</ele>
        <time>2022-08-02T11:05:00Z</time>
      </trkpt>
      <trkpt lat="44.90634" lon="3.79297">
        <ele>1216.69</ele>
        <time>2022-08-02T11:05:30Z</time>
      </trkpt>
      <trkpt lat="44.90637" lon="3.79298">
        <ele>1217.65</ele>
        <time>2022-08-02T11:05:59Z</time>
      </trkpt>
      <trkpt lat="44.9064" lon="3.79296">
        <ele>1222.45</ele>
        <time>2022-08-02T11:06:22Z</time>
      </trkpt>
      <trkpt lat="44.90642" lon="3.79299">
        <ele>1222.45</ele>
        <time>2022-08-02T11:07:00Z</time>
      </trkpt>
      <trkpt lat="44.90642" lon="3.79301">
        <ele>1224.38</ele>
        <time>2022-08-02T11:07:40Z</time>
      </trkpt>
      <trkpt lat="44.90642" lon="3.79299">
        <ele>1221.01</ele>
        <time>2022-08-02T11:08:15Z</time>
      </trkpt>
      <trkpt lat="44.9064" lon="3.79296">
        <ele>1219.09</ele>
        <time>2022-08-02T11:08:52Z</time>
      </trkpt>
      <trkpt lat="44.90639" lon="3.79295">
        <ele>1220.05</ele>
        <time>2022-08-02T11:09:29Z</time>
      </trkpt>
      <trkpt lat="44.90638" lon="3.79296">
        <ele>1219.09</ele>
        <time>2022-08-02T11:10:02Z</time>
      </trkpt>
      <trkpt lat="44.90642" lon="3.79296">
        <ele>1214.28</ele>
        <time>2022-08-02T11:10:33Z</time>
      </trkpt>
      <trkpt lat="44.90638" lon="3.79294">
        <ele>1211.4</ele>
        <time>2022-08-02T11:11:07Z</time>
      </trkpt>
      <trkpt lat="44.90633" lon="3.79298">
        <ele>1203.71</ele>
        <time>2022-08-02T11:11:46Z</time>
      </trkpt>
      <trkpt lat="44.90635" lon="3.7929">
        <ele>1203.71</ele>
        <time>2022-08-02T11:12:21Z</time>
      </trkpt>
      <trkpt lat="44.90639" lon="3.79289">
        <ele>1207.55</ele>
        <time>2022-08-02T11:12:37Z</time>
      </trkpt>
      <trkpt lat="44.90638" lon="3.79289">
        <ele>1206.59</ele>
        <time>2022-08-02T11:13:06Z</time>
      </trkpt>
      <trkpt lat="44.90639" lon="3.79292">
        <ele>1206.59</ele>
        <time>2022-08-02T11:13:32Z</time>
      </trkpt>
      <trkpt lat="44.90636" lon="3.7929">
        <ele>1206.11</ele>
        <time>2022-08-02T11:13:46Z</time>
      </trkpt>
      <trkpt lat="44.90633" lon="3.79277">
        <ele>1205.15</ele>
        <time>2022-08-02T11:13:58Z</time>
      </trkpt>
      <trkpt lat="44.9063" lon="3.79268">
        <ele>1202.75</ele>
        <time>2022-08-02T11:14:04Z</time>
      </trkpt>
      <trkpt lat="44.90618" lon="3.79248">
        <ele>1198.42</ele>
        <time>2022-08-02T11:14:18Z</time>
      </trkpt>
      <trkpt lat="44.90606" lon="3.79234">
        <ele>1196.02</ele>
        <time>2022-08-02T11:14:31Z</time>
      </trkpt>
      <trkpt lat="44.90592" lon="3.79233">
        <ele>1198.9</ele>
        <time>2022-08-02T11:14:47Z</time>
      </trkpt>
      <trkpt lat="44.90583" lon="3.79242">
        <ele>1202.27</ele>
        <time>2022-08-02T11:14:59Z</time>
      </trkpt>
      <trkpt lat="44.90581" lon="3.79243">
        <ele>1202.75</ele>
        <time>2022-08-02T11:15:01Z</time>
      </trkpt>
      <trkpt lat="44.90572" lon="3.79251">
        <ele>1206.11</ele>
        <time>2022-08-02T11:15:14Z</time>
      </trkpt>
      <trkpt lat="44.90565" lon="3.7926">
        <ele>1208.03</ele>
        <time>2022-08-02T11:15:24Z</time>
      </trkpt>
      <trkpt lat="44.90557" lon="3.79273">
        <ele>1211.4</ele>
        <time>2022-08-02T11:15:38Z</time>
      </trkpt>
      <trkpt lat="44.90556" lon="3.79276">
        <ele>1211.88</ele>
        <time>2022-08-02T11:15:40Z</time>
      </trkpt>
      <trkpt lat="44.90556" lon="3.79284">
        <ele>1212.36</ele>
        <time>2022-08-02T11:15:45Z</time>
      </trkpt>
      <trkpt lat="44.90554" lon="3.79289">
        <ele>1212.36</ele>
        <time>2022-08-02T11:15:48Z</time>
      </trkpt>
      <trkpt lat="44.90551" lon="3.79295">
        <ele>1212.36</ele>
        <time>2022-08-02T11:15:53Z</time>
      </trkpt>
      <trkpt lat="44.9055" lon="3.79297">
        <ele>1212.36</ele>
        <time>2022-08-02T11:15:55Z</time>
      </trkpt>
      <trkpt lat="44.90541" lon="3.79316">
        <ele>1211.88</ele>
        <time>2022-08-02T11:16:11Z</time>
      </trkpt>
      <trkpt lat="44.90535" lon="3.79335">
        <ele>1211.4</ele>
        <time>2022-08-02T11:16:25Z</time>
      </trkpt>
      <trkpt lat="44.90535" lon="3.79344">
        <ele>1213.8</ele>
        <time>2022-08-02T11:16:39Z</time>
      </trkpt>
      <trkpt lat="44.9053" lon="3.79352">
        <ele>1221.49</ele>
        <time>2022-08-02T11:16:57Z</time>
      </trkpt>
      <trkpt lat="44.90523" lon="3.79357">
        <ele>1222.93</ele>
        <time>2022-08-02T11:17:20Z</time>
      </trkpt>
      <trkpt lat="44.90516" lon="3.79366">
        <ele>1225.82</ele>
        <time>2022-08-02T11:17:34Z</time>
      </trkpt>
      <trkpt lat="44.90508" lon="3.79376">
        <ele>1226.3</ele>
        <time>2022-08-02T11:17:47Z</time>
      </trkpt>
      <trkpt lat="44.90498" lon="3.79385">
        <ele>1231.11</ele>
        <time>2022-08-02T11:18:02Z</time>
      </trkpt>
      <trkpt lat="44.9049" lon="3.79393">
        <ele>1236.39</ele>
        <time>2022-08-02T11:18:17Z</time>
      </trkpt>
      <trkpt lat="44.90485" lon="3.79406">
        <ele>1237.83</ele>
        <time>2022-08-02T11:18:31Z</time>
      </trkpt>
      <trkpt lat="44.90476" lon="3.79407">
        <ele>1241.68</ele>
        <time>2022-08-02T11:18:46Z</time>
      </trkpt>
      <trkpt lat="44.90462" lon="3.79407">
        <ele>1245.04</ele>
        <time>2022-08-02T11:19:00Z</time>
      </trkpt>
      <trkpt lat="44.9045" lon="3.79412">
        <ele>1249.37</ele>
        <time>2022-08-02T11:19:16Z</time>
      </trkpt>
      <trkpt lat="44.90437" lon="3.79414">
        <ele>1253.7</ele>
        <time>2022-08-02T11:19:32Z</time>
      </trkpt>
      <trkpt lat="44.90426" lon="3.79419">
        <ele>1255.62</ele>
        <time>2022-08-02T11:19:46Z</time>
      </trkpt>
      <trkpt lat="44.90414" lon="3.7941">
        <ele>1263.31</ele>
        <time>2022-08-02T11:20:01Z</time>
      </trkpt>
      <trkpt lat="44.90404" lon="3.79409">
        <ele>1268.12</ele>
        <time>2022-08-02T11:20:17Z</time>
      </trkpt>
      <trkpt lat="44.90389" lon="3.79414">
        <ele>1270.04</ele>
        <time>2022-08-02T11:20:29Z</time>
      </trkpt>
      <trkpt lat="44.90385" lon="3.79418">
        <ele>1270.04</ele>
        <time>2022-08-02T11:20:35Z</time>
      </trkpt>
      <trkpt lat="44.90373" lon="3.79419">
        <ele>1271.48</ele>
        <time>2022-08-02T11:20:51Z</time>
      </trkpt>
      <trkpt lat="44.90361" lon="3.79427">
        <ele>1271</ele>
        <time>2022-08-02T11:21:03Z</time>
      </trkpt>
      <trkpt lat="44.90355" lon="3.79439">
        <ele>1271.48</ele>
        <time>2022-08-02T11:21:18Z</time>
      </trkpt>
      <trkpt lat="44.90345" lon="3.79448">
        <ele>1265.23</ele>
        <time>2022-08-02T11:21:34Z</time>
      </trkpt>
      <trkpt lat="44.90335" lon="3.79448">
        <ele>1264.75</ele>
        <time>2022-08-02T11:21:47Z</time>
      </trkpt>
      <trkpt lat="44.90332" lon="3.79448">
        <ele>1265.23</ele>
        <time>2022-08-02T11:21:50Z</time>
      </trkpt>
      <trkpt lat="44.90326" lon="3.79447">
        <ele>1265.23</ele>
        <time>2022-08-02T11:21:56Z</time>
      </trkpt>
      <trkpt lat="44.90312" lon="3.79452">
        <ele>1265.71</ele>
        <time>2022-08-02T11:22:09Z</time>
      </trkpt>
      <trkpt lat="44.90309" lon="3.79453">
        <ele>1265.23</ele>
        <time>2022-08-02T11:22:12Z</time>
      </trkpt>
      <trkpt lat="44.90304" lon="3.79453">
        <ele>1264.75</ele>
        <time>2022-08-02T11:22:17Z</time>
      </trkpt>
      <trkpt lat="44.90298" lon="3.79451">
        <ele>1264.75</ele>
        <time>2022-08-02T11:22:23Z</time>
      </trkpt>
      <trkpt lat="44.90296" lon="3.79451">
        <ele>1264.75</ele>
        <time>2022-08-02T11:22:25Z</time>
      </trkpt>
      <trkpt lat="44.90287" lon="3.79453">
        <ele>1266.19</ele>
        <time>2022-08-02T11:22:39Z</time>
      </trkpt>
      <trkpt lat="44.90284" lon="3.79455">
        <ele>1264.75</ele>
        <time>2022-08-02T11:22:58Z</time>
      </trkpt>
      <trkpt lat="44.90284" lon="3.7946">
        <ele>1264.27</ele>
        <time>2022-08-02T11:23:23Z</time>
      </trkpt>
      <trkpt lat="44.90282" lon="3.79462">
        <ele>1265.23</ele>
        <time>2022-08-02T11:23:44Z</time>
      </trkpt>
      <trkpt lat="44.90282" lon="3.79461">
        <ele>1270.04</ele>
        <time>2022-08-02T11:24:11Z</time>
      </trkpt>
      <trkpt lat="44.90286" lon="3.79465">
        <ele>1268.12</ele>
        <time>2022-08-02T11:24:29Z</time>
      </trkpt>
      <trkpt lat="44.9029" lon="3.79458">
        <ele>1269.08</ele>
        <time>2022-08-02T11:24:46Z</time>
      </trkpt>
      <trkpt lat="44.90291" lon="3.79455">
        <ele>1269.56</ele>
        <time>2022-08-02T11:24:48Z</time>
      </trkpt>
      <trkpt lat="44.90292" lon="3.79453">
        <ele>1270.04</ele>
        <time>2022-08-02T11:24:50Z</time>
      </trkpt>
      <trkpt lat="44.90287" lon="3.79439">
        <ele>1269.08</ele>
        <time>2022-08-02T11:25:04Z</time>
      </trkpt>
      <trkpt lat="44.90284" lon="3.79438">
        <ele>1271</ele>
        <time>2022-08-02T11:25:24Z</time>
      </trkpt>
      <trkpt lat="44.90273" lon="3.7944">
        <ele>1269.56</ele>
        <time>2022-08-02T11:25:37Z</time>
      </trkpt>
      <trkpt lat="44.90268" lon="3.79441">
        <ele>1269.08</ele>
        <time>2022-08-02T11:25:41Z</time>
      </trkpt>
      <trkpt lat="44.9026" lon="3.79439">
        <ele>1269.08</ele>
        <time>2022-08-02T11:25:47Z</time>
      </trkpt>
      <trkpt lat="44.9024" lon="3.79439">
        <ele>1267.16</ele>
        <time>2022-08-02T11:26:04Z</time>
      </trkpt>
      <trkpt lat="44.90238" lon="3.79439">
        <ele>1267.64</ele>
        <time>2022-08-02T11:26:06Z</time>
      </trkpt>
      <trkpt lat="44.90227" lon="3.79437">
        <ele>1266.19</ele>
        <time>2022-08-02T11:26:19Z</time>
      </trkpt>
      <trkpt lat="44.90208" lon="3.79439">
        <ele>1262.83</ele>
        <time>2022-08-02T11:26:35Z</time>
      </trkpt>
      <trkpt lat="44.90188" lon="3.79441">
        <ele>1257.54</ele>
        <time>2022-08-02T11:26:51Z</time>
      </trkpt>
      <trkpt lat="44.90166" lon="3.7944">
        <ele>1253.22</ele>
        <time>2022-08-02T11:27:09Z</time>
      </trkpt>
      <trkpt lat="44.90142" lon="3.79435">
        <ele>1250.33</ele>
        <time>2022-08-02T11:27:28Z</time>
      </trkpt>
      <trkpt lat="44.90122" lon="3.79431">
        <ele>1248.41</ele>
        <time>2022-08-02T11:27:44Z</time>
      </trkpt>
      <trkpt lat="44.90104" lon="3.79424">
        <ele>1248.41</ele>
        <time>2022-08-02T11:27:59Z</time>
      </trkpt>
      <trkpt lat="44.90091" lon="3.79419">
        <ele>1247.93</ele>
        <time>2022-08-02T11:28:11Z</time>
      </trkpt>
      <trkpt lat="44.90075" lon="3.79412">
        <ele>1247.93</ele>
        <time>2022-08-02T11:28:25Z</time>
      </trkpt>
      <trkpt lat="44.90056" lon="3.79406">
        <ele>1245.53</ele>
        <time>2022-08-02T11:28:40Z</time>
      </trkpt>
      <trkpt lat="44.90036" lon="3.794">
        <ele>1245.04</ele>
        <time>2022-08-02T11:28:56Z</time>
      </trkpt>
      <trkpt lat="44.90018" lon="3.79395">
        <ele>1244.08</ele>
        <time>2022-08-02T11:29:10Z</time>
      </trkpt>
      <trkpt lat="44.89998" lon="3.79388">
        <ele>1243.6</ele>
        <time>2022-08-02T11:29:26Z</time>
      </trkpt>
      <trkpt lat="44.8998" lon="3.79381">
        <ele>1242.64</ele>
        <time>2022-08-02T11:29:41Z</time>
      </trkpt>
      <trkpt lat="44.8996" lon="3.79371">
        <ele>1241.68</ele>
        <time>2022-08-02T11:29:57Z</time>
      </trkpt>
      <trkpt lat="44.89944" lon="3.79362">
        <ele>1241.68</ele>
        <time>2022-08-02T11:30:11Z</time>
      </trkpt>
      <trkpt lat="44.8994" lon="3.79359">
        <ele>1241.68</ele>
        <time>2022-08-02T11:30:15Z</time>
      </trkpt>
      <trkpt lat="44.89921" lon="3.79345">
        <ele>1240.72</ele>
        <time>2022-08-02T11:30:32Z</time>
      </trkpt>
      <trkpt lat="44.89901" lon="3.79329">
        <ele>1239.76</ele>
        <time>2022-08-02T11:30:50Z</time>
      </trkpt>
      <trkpt lat="44.89882" lon="3.79314">
        <ele>1238.8</ele>
        <time>2022-08-02T11:31:06Z</time>
      </trkpt>
      <trkpt lat="44.8988" lon="3.79312">
        <ele>1238.8</ele>
        <time>2022-08-02T11:31:08Z</time>
      </trkpt>
      <trkpt lat="44.89859" lon="3.79301">
        <ele>1237.83</ele>
        <time>2022-08-02T11:31:26Z</time>
      </trkpt>
      <trkpt lat="44.89835" lon="3.79294">
        <ele>1236.87</ele>
        <time>2022-08-02T11:31:44Z</time>
      </trkpt>
      <trkpt lat="44.89811" lon="3.7929">
        <ele>1236.87</ele>
        <time>2022-08-02T11:32:02Z</time>
      </trkpt>
      <trkpt lat="44.89791" lon="3.79288">
        <ele>1236.39</ele>
        <time>2022-08-02T11:32:17Z</time>
      </trkpt>
      <trkpt lat="44.89774" lon="3.79286">
        <ele>1235.43</ele>
        <time>2022-08-02T11:32:30Z</time>
      </trkpt>
      <trkpt lat="44.89755" lon="3.79288">
        <ele>1234.47</ele>
        <time>2022-08-02T11:32:45Z</time>
      </trkpt>
      <trkpt lat="44.89733" lon="3.79289">
        <ele>1234.47</ele>
        <time>2022-08-02T11:33:02Z</time>
      </trkpt>
      <trkpt lat="44.89708" lon="3.79289">
        <ele>1235.43</ele>
        <time>2022-08-02T11:33:21Z</time>
      </trkpt>
      <trkpt lat="44.89688" lon="3.79288">
        <ele>1233.99</ele>
        <time>2022-08-02T11:33:37Z</time>
      </trkpt>
      <trkpt lat="44.89669" lon="3.79285">
        <ele>1234.47</ele>
        <time>2022-08-02T11:33:52Z</time>
      </trkpt>
      <trkpt lat="44.89649" lon="3.7928">
        <ele>1233.51</ele>
        <time>2022-08-02T11:34:08Z</time>
      </trkpt>
      <trkpt lat="44.89627" lon="3.79273">
        <ele>1233.51</ele>
        <time>2022-08-02T11:34:25Z</time>
      </trkpt>
      <trkpt lat="44.89606" lon="3.79267">
        <ele>1232.55</ele>
        <time>2022-08-02T11:34:42Z</time>
      </trkpt>
      <trkpt lat="44.89586" lon="3.79263">
        <ele>1231.11</ele>
        <time>2022-08-02T11:34:57Z</time>
      </trkpt>
      <trkpt lat="44.89562" lon="3.79254">
        <ele>1231.11</ele>
        <time>2022-08-02T11:35:16Z</time>
      </trkpt>
      <trkpt lat="44.89542" lon="3.79247">
        <ele>1231.11</ele>
        <time>2022-08-02T11:35:32Z</time>
      </trkpt>
      <trkpt lat="44.89525" lon="3.79241">
        <ele>1229.66</ele>
        <time>2022-08-02T11:35:45Z</time>
      </trkpt>
      <trkpt lat="44.89506" lon="3.79231">
        <ele>1229.18</ele>
        <time>2022-08-02T11:36:01Z</time>
      </trkpt>
      <trkpt lat="44.89487" lon="3.79219">
        <ele>1229.66</ele>
        <time>2022-08-02T11:36:17Z</time>
      </trkpt>
      <trkpt lat="44.89468" lon="3.79207">
        <ele>1229.18</ele>
        <time>2022-08-02T11:36:33Z</time>
      </trkpt>
      <trkpt lat="44.89451" lon="3.79195">
        <ele>1227.26</ele>
        <time>2022-08-02T11:36:48Z</time>
      </trkpt>
      <trkpt lat="44.89431" lon="3.79181">
        <ele>1226.3</ele>
        <time>2022-08-02T11:37:05Z</time>
      </trkpt>
      <trkpt lat="44.89411" lon="3.79167">
        <ele>1224.38</ele>
        <time>2022-08-02T11:37:22Z</time>
      </trkpt>
      <trkpt lat="44.89392" lon="3.79157">
        <ele>1224.86</ele>
        <time>2022-08-02T11:37:38Z</time>
      </trkpt>
      <trkpt lat="44.89373" lon="3.79147">
        <ele>1223.42</ele>
        <time>2022-08-02T11:37:54Z</time>
      </trkpt>
      <trkpt lat="44.89355" lon="3.79139">
        <ele>1223.9</ele>
        <time>2022-08-02T11:38:08Z</time>
      </trkpt>
      <trkpt lat="44.89334" lon="3.79129">
        <ele>1223.9</ele>
        <time>2022-08-02T11:38:25Z</time>
      </trkpt>
      <trkpt lat="44.89316" lon="3.79122">
        <ele>1223.42</ele>
        <time>2022-08-02T11:38:40Z</time>
      </trkpt>
      <trkpt lat="44.89308" lon="3.79119">
        <ele>1224.38</ele>
        <time>2022-08-02T11:38:54Z</time>
      </trkpt>
      <trkpt lat="44.89308" lon="3.79118">
        <ele>1224.38</ele>
        <time>2022-08-02T11:39:24Z</time>
      </trkpt>
      <trkpt lat="44.89308" lon="3.79119">
        <ele>1225.34</ele>
        <time>2022-08-02T11:39:55Z</time>
      </trkpt>
      <trkpt lat="44.89302" lon="3.79116">
        <ele>1223.42</ele>
        <time>2022-08-02T11:40:22Z</time>
      </trkpt>
      <trkpt lat="44.89282" lon="3.79109">
        <ele>1223.9</ele>
        <time>2022-08-02T11:40:37Z</time>
      </trkpt>
      <trkpt lat="44.89261" lon="3.791">
        <ele>1223.9</ele>
        <time>2022-08-02T11:40:53Z</time>
      </trkpt>
      <trkpt lat="44.89241" lon="3.79093">
        <ele>1224.38</ele>
        <time>2022-08-02T11:41:09Z</time>
      </trkpt>
      <trkpt lat="44.89221" lon="3.79084">
        <ele>1224.86</ele>
        <time>2022-08-02T11:41:25Z</time>
      </trkpt>
      <trkpt lat="44.89202" lon="3.79079">
        <ele>1224.38</ele>
        <time>2022-08-02T11:41:39Z</time>
      </trkpt>
      <trkpt lat="44.89182" lon="3.79075">
        <ele>1222.93</ele>
        <time>2022-08-02T11:41:55Z</time>
      </trkpt>
      <trkpt lat="44.89163" lon="3.79077">
        <ele>1223.42</ele>
        <time>2022-08-02T11:42:09Z</time>
      </trkpt>
      <trkpt lat="44.89145" lon="3.79083">
        <ele>1223.42</ele>
        <time>2022-08-02T11:42:24Z</time>
      </trkpt>
      <trkpt lat="44.89124" lon="3.79089">
        <ele>1222.45</ele>
        <time>2022-08-02T11:42:40Z</time>
      </trkpt>
      <trkpt lat="44.89105" lon="3.79094">
        <ele>1221.97</ele>
        <time>2022-08-02T11:42:54Z</time>
      </trkpt>
      <trkpt lat="44.89087" lon="3.79094">
        <ele>1222.45</ele>
        <time>2022-08-02T11:43:08Z</time>
      </trkpt>
      <trkpt lat="44.89069" lon="3.79092">
        <ele>1223.9</ele>
        <time>2022-08-02T11:43:23Z</time>
      </trkpt>
      <trkpt lat="44.8905" lon="3.79088">
        <ele>1226.3</ele>
        <time>2022-08-02T11:43:38Z</time>
      </trkpt>
      <trkpt lat="44.89031" lon="3.79089">
        <ele>1225.82</ele>
        <time>2022-08-02T11:43:53Z</time>
      </trkpt>
      <trkpt lat="44.89011" lon="3.79087">
        <ele>1225.34</ele>
        <time>2022-08-02T11:44:09Z</time>
      </trkpt>
      <trkpt lat="44.88999" lon="3.7909">
        <ele>1222.93</ele>
        <time>2022-08-02T11:44:18Z</time>
      </trkpt>
      <trkpt lat="44.88991" lon="3.79089">
        <ele>1222.45</ele>
        <time>2022-08-02T11:44:24Z</time>
      </trkpt>
      <trkpt lat="44.88973" lon="3.79091">
        <ele>1220.53</ele>
        <time>2022-08-02T11:44:38Z</time>
      </trkpt>
      <trkpt lat="44.88956" lon="3.79084">
        <ele>1221.01</ele>
        <time>2022-08-02T11:44:53Z</time>
      </trkpt>
      <trkpt lat="44.88934" lon="3.79074">
        <ele>1218.61</ele>
        <time>2022-08-02T11:45:10Z</time>
      </trkpt>
      <trkpt lat="44.88916" lon="3.79064">
        <ele>1218.61</ele>
        <time>2022-08-02T11:45:25Z</time>
      </trkpt>
      <trkpt lat="44.88906" lon="3.79058">
        <ele>1217.17</ele>
        <time>2022-08-02T11:45:37Z</time>
      </trkpt>
      <trkpt lat="44.88902" lon="3.79058">
        <ele>1216.69</ele>
        <time>2022-08-02T11:45:53Z</time>
      </trkpt>
      <trkpt lat="44.88902" lon="3.79061">
        <ele>1217.65</ele>
        <time>2022-08-02T11:46:16Z</time>
      </trkpt>
      <trkpt lat="44.88901" lon="3.79062">
        <ele>1218.13</ele>
        <time>2022-08-02T11:46:40Z</time>
      </trkpt>
      <trkpt lat="44.889" lon="3.7906">
        <ele>1219.57</ele>
        <time>2022-08-02T11:46:59Z</time>
      </trkpt>
      <trkpt lat="44.88886" lon="3.79045">
        <ele>1219.57</ele>
        <time>2022-08-02T11:47:13Z</time>
      </trkpt>
      <trkpt lat="44.88878" lon="3.79042">
        <ele>1219.57</ele>
        <time>2022-08-02T11:47:23Z</time>
      </trkpt>
      <trkpt lat="44.88876" lon="3.79046">
        <ele>1217.65</ele>
        <time>2022-08-02T11:47:34Z</time>
      </trkpt>
      <trkpt lat="44.88874" lon="3.79049">
        <ele>1217.17</ele>
        <time>2022-08-02T11:48:01Z</time>
      </trkpt>
      <trkpt lat="44.88875" lon="3.7905">
        <ele>1218.13</ele>
        <time>2022-08-02T11:48:13Z</time>
      </trkpt>
      <trkpt lat="44.88877" lon="3.79047">
        <ele>1217.17</ele>
        <time>2022-08-02T11:48:15Z</time>
      </trkpt>
      <trkpt lat="44.88874" lon="3.7904">
        <ele>1217.17</ele>
        <time>2022-08-02T11:48:19Z</time>
      </trkpt>
      <trkpt lat="44.88865" lon="3.79032">
        <ele>1218.13</ele>
        <time>2022-08-02T11:48:28Z</time>
      </trkpt>
      <trkpt lat="44.88854" lon="3.79031">
        <ele>1220.05</ele>
        <time>2022-08-02T11:48:37Z</time>
      </trkpt>
      <trkpt lat="44.88833" lon="3.79022">
        <ele>1222.93</ele>
        <time>2022-08-02T11:48:54Z</time>
      </trkpt>
      <trkpt lat="44.88818" lon="3.7901">
        <ele>1226.78</ele>
        <time>2022-08-02T11:49:07Z</time>
      </trkpt>
      <trkpt lat="44.88795" lon="3.79017">
        <ele>1226.3</ele>
        <time>2022-08-02T11:49:25Z</time>
      </trkpt>
      <trkpt lat="44.88772" lon="3.79022">
        <ele>1225.82</ele>
        <time>2022-08-02T11:49:42Z</time>
      </trkpt>
      <trkpt lat="44.88752" lon="3.79027">
        <ele>1223.42</ele>
        <time>2022-08-02T11:49:57Z</time>
      </trkpt>
      <trkpt lat="44.88734" lon="3.79031">
        <ele>1223.42</ele>
        <time>2022-08-02T11:50:11Z</time>
      </trkpt>
      <trkpt lat="44.8871" lon="3.79035">
        <ele>1223.42</ele>
        <time>2022-08-02T11:50:28Z</time>
      </trkpt>
      <trkpt lat="44.88696" lon="3.79037">
        <ele>1222.93</ele>
        <time>2022-08-02T11:50:40Z</time>
      </trkpt>
      <trkpt lat="44.88674" lon="3.79041">
        <ele>1222.45</ele>
        <time>2022-08-02T11:50:57Z</time>
      </trkpt>
      <trkpt lat="44.88653" lon="3.79042">
        <ele>1223.42</ele>
        <time>2022-08-02T11:51:12Z</time>
      </trkpt>
      <trkpt lat="44.88631" lon="3.79046">
        <ele>1222.93</ele>
        <time>2022-08-02T11:51:28Z</time>
      </trkpt>
      <trkpt lat="44.88609" lon="3.79051">
        <ele>1221.49</ele>
        <time>2022-08-02T11:51:44Z</time>
      </trkpt>
      <trkpt lat="44.88588" lon="3.79054">
        <ele>1221.01</ele>
        <time>2022-08-02T11:52:00Z</time>
      </trkpt>
      <trkpt lat="44.88568" lon="3.79058">
        <ele>1220.05</ele>
        <time>2022-08-02T11:52:15Z</time>
      </trkpt>
      <trkpt lat="44.88549" lon="3.79065">
        <ele>1219.57</ele>
        <time>2022-08-02T11:52:30Z</time>
      </trkpt>
      <trkpt lat="44.88528" lon="3.79069">
        <ele>1219.57</ele>
        <time>2022-08-02T11:52:46Z</time>
      </trkpt>
      <trkpt lat="44.88507" lon="3.79074">
        <ele>1220.05</ele>
        <time>2022-08-02T11:53:02Z</time>
      </trkpt>
      <trkpt lat="44.88499" lon="3.79075">
        <ele>1220.05</ele>
        <time>2022-08-02T11:53:08Z</time>
      </trkpt>
      <trkpt lat="44.88478" lon="3.7908">
        <ele>1220.05</ele>
        <time>2022-08-02T11:53:25Z</time>
      </trkpt>
      <trkpt lat="44.88454" lon="3.79083">
        <ele>1218.13</ele>
        <time>2022-08-02T11:53:43Z</time>
      </trkpt>
      <trkpt lat="44.88437" lon="3.79087">
        <ele>1217.65</ele>
        <time>2022-08-02T11:53:56Z</time>
      </trkpt>
      <trkpt lat="44.88414" lon="3.79095">
        <ele>1215.72</ele>
        <time>2022-08-02T11:54:13Z</time>
      </trkpt>
      <trkpt lat="44.88413" lon="3.79095">
        <ele>1215.24</ele>
        <time>2022-08-02T11:54:14Z</time>
      </trkpt>
      <trkpt lat="44.88408" lon="3.79098">
        <ele>1215.24</ele>
        <time>2022-08-02T11:54:18Z</time>
      </trkpt>
      <trkpt lat="44.88388" lon="3.79107">
        <ele>1215.72</ele>
        <time>2022-08-02T11:54:34Z</time>
      </trkpt>
      <trkpt lat="44.88368" lon="3.79115">
        <ele>1214.28</ele>
        <time>2022-08-02T11:54:49Z</time>
      </trkpt>
      <trkpt lat="44.88349" lon="3.79124">
        <ele>1213.8</ele>
        <time>2022-08-02T11:55:04Z</time>
      </trkpt>
      <trkpt lat="44.88328" lon="3.79132">
        <ele>1213.32</ele>
        <time>2022-08-02T11:55:21Z</time>
      </trkpt>
      <trkpt lat="44.88305" lon="3.79139">
        <ele>1212.84</ele>
        <time>2022-08-02T11:55:39Z</time>
      </trkpt>
      <trkpt lat="44.88286" lon="3.79147">
        <ele>1211.88</ele>
        <time>2022-08-02T11:55:54Z</time>
      </trkpt>
      <trkpt lat="44.88267" lon="3.79154">
        <ele>1211.88</ele>
        <time>2022-08-02T11:56:09Z</time>
      </trkpt>
      <trkpt lat="44.88246" lon="3.79162">
        <ele>1211.4</ele>
        <time>2022-08-02T11:56:26Z</time>
      </trkpt>
      <trkpt lat="44.88224" lon="3.79168">
        <ele>1210.92</ele>
        <time>2022-08-02T11:56:43Z</time>
      </trkpt>
      <trkpt lat="44.88201" lon="3.79178">
        <ele>1210.44</ele>
        <time>2022-08-02T11:57:01Z</time>
      </trkpt>
      <trkpt lat="44.88182" lon="3.79188">
        <ele>1209.48</ele>
        <time>2022-08-02T11:57:17Z</time>
      </trkpt>
      <trkpt lat="44.8816" lon="3.79197">
        <ele>1208.51</ele>
        <time>2022-08-02T11:57:34Z</time>
      </trkpt>
      <trkpt lat="44.88135" lon="3.79211">
        <ele>1207.07</ele>
        <time>2022-08-02T11:57:54Z</time>
      </trkpt>
      <trkpt lat="44.88113" lon="3.79224">
        <ele>1208.03</ele>
        <time>2022-08-02T11:58:12Z</time>
      </trkpt>
      <trkpt lat="44.88094" lon="3.79236">
        <ele>1208.51</ele>
        <time>2022-08-02T11:58:29Z</time>
      </trkpt>
      <trkpt lat="44.88075" lon="3.79245">
        <ele>1208.03</ele>
        <time>2022-08-02T11:58:43Z</time>
      </trkpt>
      <trkpt lat="44.88052" lon="3.79254">
        <ele>1208.03</ele>
        <time>2022-08-02T11:59:00Z</time>
      </trkpt>
      <trkpt lat="44.88035" lon="3.79267">
        <ele>1205.63</ele>
        <time>2022-08-02T11:59:15Z</time>
      </trkpt>
      <trkpt lat="44.88017" lon="3.79279">
        <ele>1205.15</ele>
        <time>2022-08-02T11:59:30Z</time>
      </trkpt>
      <trkpt lat="44.87996" lon="3.79294">
        <ele>1204.67</ele>
        <time>2022-08-02T11:59:47Z</time>
      </trkpt>
      <trkpt lat="44.87975" lon="3.7931">
        <ele>1203.71</ele>
        <time>2022-08-02T12:00:05Z</time>
      </trkpt>
      <trkpt lat="44.87955" lon="3.79324">
        <ele>1203.23</ele>
        <time>2022-08-02T12:00:24Z</time>
      </trkpt>
      <trkpt lat="44.87944" lon="3.79333">
        <ele>1203.23</ele>
        <time>2022-08-02T12:00:36Z</time>
      </trkpt>
      <trkpt lat="44.87925" lon="3.79346">
        <ele>1201.79</ele>
        <time>2022-08-02T12:00:52Z</time>
      </trkpt>
      <trkpt lat="44.87903" lon="3.79361">
        <ele>1201.79</ele>
        <time>2022-08-02T12:01:10Z</time>
      </trkpt>
      <trkpt lat="44.87881" lon="3.79377">
        <ele>1200.34</ele>
        <time>2022-08-02T12:01:28Z</time>
      </trkpt>
      <trkpt lat="44.8786" lon="3.79394">
        <ele>1199.38</ele>
        <time>2022-08-02T12:01:46Z</time>
      </trkpt>
      <trkpt lat="44.87841" lon="3.79408">
        <ele>1198.42</ele>
        <time>2022-08-02T12:02:02Z</time>
      </trkpt>
      <trkpt lat="44.87824" lon="3.7943">
        <ele>1198.42</ele>
        <time>2022-08-02T12:02:20Z</time>
      </trkpt>
      <trkpt lat="44.8782" lon="3.79435">
        <ele>1198.42</ele>
        <time>2022-08-02T12:02:36Z</time>
      </trkpt>
      <trkpt lat="44.87809" lon="3.79448">
        <ele>1197.94</ele>
        <time>2022-08-02T12:02:51Z</time>
      </trkpt>
      <trkpt lat="44.87789" lon="3.79471">
        <ele>1197.94</ele>
        <time>2022-08-02T12:03:10Z</time>
      </trkpt>
      <trkpt lat="44.87771" lon="3.79488">
        <ele>1197.46</ele>
        <time>2022-08-02T12:03:27Z</time>
      </trkpt>
      <trkpt lat="44.87753" lon="3.79508">
        <ele>1197.94</ele>
        <time>2022-08-02T12:03:45Z</time>
      </trkpt>
      <trkpt lat="44.87735" lon="3.79528">
        <ele>1197.94</ele>
        <time>2022-08-02T12:04:02Z</time>
      </trkpt>
      <trkpt lat="44.87717" lon="3.79547">
        <ele>1197.94</ele>
        <time>2022-08-02T12:04:19Z</time>
      </trkpt>
      <trkpt lat="44.87698" lon="3.79567">
        <ele>1197.94</ele>
        <time>2022-08-02T12:04:37Z</time>
      </trkpt>
      <trkpt lat="44.87676" lon="3.79589">
        <ele>1199.38</ele>
        <time>2022-08-02T12:04:57Z</time>
      </trkpt>
      <trkpt lat="44.87657" lon="3.79601">
        <ele>1198.9</ele>
        <time>2022-08-02T12:05:13Z</time>
      </trkpt>
      <trkpt lat="44.87637" lon="3.79618">
        <ele>1198.9</ele>
        <time>2022-08-02T12:05:31Z</time>
      </trkpt>
      <trkpt lat="44.87618" lon="3.79636">
        <ele>1198.9</ele>
        <time>2022-08-02T12:05:49Z</time>
      </trkpt>
      <trkpt lat="44.87595" lon="3.79646">
        <ele>1197.46</ele>
        <time>2022-08-02T12:06:08Z</time>
      </trkpt>
      <trkpt lat="44.8757" lon="3.79657">
        <ele>1197.46</ele>
        <time>2022-08-02T12:06:27Z</time>
      </trkpt>
      <trkpt lat="44.87548" lon="3.79667">
        <ele>1197.46</ele>
        <time>2022-08-02T12:06:45Z</time>
      </trkpt>
      <trkpt lat="44.87527" lon="3.7968">
        <ele>1197.94</ele>
        <time>2022-08-02T12:07:02Z</time>
      </trkpt>
      <trkpt lat="44.87506" lon="3.79694">
        <ele>1197.94</ele>
        <time>2022-08-02T12:07:20Z</time>
      </trkpt>
      <trkpt lat="44.87484" lon="3.79706">
        <ele>1198.9</ele>
        <time>2022-08-02T12:07:38Z</time>
      </trkpt>
      <trkpt lat="44.87462" lon="3.7972">
        <ele>1198.9</ele>
        <time>2022-08-02T12:07:56Z</time>
      </trkpt>
      <trkpt lat="44.87439" lon="3.79733">
        <ele>1198.42</ele>
        <time>2022-08-02T12:08:15Z</time>
      </trkpt>
      <trkpt lat="44.87418" lon="3.79746">
        <ele>1198.42</ele>
        <time>2022-08-02T12:08:33Z</time>
      </trkpt>
      <trkpt lat="44.87395" lon="3.79758">
        <ele>1198.42</ele>
        <time>2022-08-02T12:08:52Z</time>
      </trkpt>
      <trkpt lat="44.87373" lon="3.7977">
        <ele>1197.46</ele>
        <time>2022-08-02T12:09:11Z</time>
      </trkpt>
      <trkpt lat="44.8735" lon="3.79782">
        <ele>1197.94</ele>
        <time>2022-08-02T12:09:29Z</time>
      </trkpt>
      <trkpt lat="44.87329" lon="3.79795">
        <ele>1196.98</ele>
        <time>2022-08-02T12:09:47Z</time>
      </trkpt>
      <trkpt lat="44.87305" lon="3.79809">
        <ele>1196.02</ele>
        <time>2022-08-02T12:10:06Z</time>
      </trkpt>
      <trkpt lat="44.87283" lon="3.79823">
        <ele>1195.06</ele>
        <time>2022-08-02T12:10:25Z</time>
      </trkpt>
      <trkpt lat="44.8726" lon="3.79837">
        <ele>1193.61</ele>
        <time>2022-08-02T12:10:44Z</time>
      </trkpt>
      <trkpt lat="44.87234" lon="3.79853">
        <ele>1191.69</ele>
        <time>2022-08-02T12:11:05Z</time>
      </trkpt>
      <trkpt lat="44.87212" lon="3.79868">
        <ele>1190.25</ele>
        <time>2022-08-02T12:11:24Z</time>
      </trkpt>
      <trkpt lat="44.87189" lon="3.79886">
        <ele>1188.81</ele>
        <time>2022-08-02T12:11:44Z</time>
      </trkpt>
      <trkpt lat="44.87167" lon="3.79903">
        <ele>1188.33</ele>
        <time>2022-08-02T12:12:03Z</time>
      </trkpt>
      <trkpt lat="44.87144" lon="3.79919">
        <ele>1187.37</ele>
        <time>2022-08-02T12:12:23Z</time>
      </trkpt>
      <trkpt lat="44.87122" lon="3.79935">
        <ele>1185.92</ele>
        <time>2022-08-02T12:12:42Z</time>
      </trkpt>
      <trkpt lat="44.87101" lon="3.7995">
        <ele>1185.44</ele>
        <time>2022-08-02T12:13:00Z</time>
      </trkpt>
      <trkpt lat="44.87082" lon="3.79966">
        <ele>1184.48</ele>
        <time>2022-08-02T12:13:19Z</time>
      </trkpt>
      <trkpt lat="44.87078" lon="3.79967">
        <ele>1184</ele>
        <time>2022-08-02T12:13:24Z</time>
      </trkpt>
      <trkpt lat="44.87077" lon="3.79968">
        <ele>1182.56</ele>
        <time>2022-08-02T12:13:37Z</time>
      </trkpt>
      <trkpt lat="44.87077" lon="3.79969">
        <ele>1183.52</ele>
        <time>2022-08-02T12:13:48Z</time>
      </trkpt>
      <trkpt lat="44.87068" lon="3.7998">
        <ele>1184.48</ele>
        <time>2022-08-02T12:14:01Z</time>
      </trkpt>
      <trkpt lat="44.87068" lon="3.79981">
        <ele>1184.96</ele>
        <time>2022-08-02T12:14:19Z</time>
      </trkpt>
      <trkpt lat="44.87068" lon="3.79981">
        <ele>1184.96</ele>
        <time>2022-08-02T12:14:30Z</time>
      </trkpt>
      <trkpt lat="44.87051" lon="3.79995">
        <ele>1184.48</ele>
        <time>2022-08-02T12:14:46Z</time>
      </trkpt>
      <trkpt lat="44.87038" lon="3.80006">
        <ele>1184</ele>
        <time>2022-08-02T12:14:58Z</time>
      </trkpt>
      <trkpt lat="44.8702" lon="3.80017">
        <ele>1182.56</ele>
        <time>2022-08-02T12:15:13Z</time>
      </trkpt>
      <trkpt lat="44.86999" lon="3.80033">
        <ele>1181.6</ele>
        <time>2022-08-02T12:15:30Z</time>
      </trkpt>
      <trkpt lat="44.86978" lon="3.80047">
        <ele>1180.16</ele>
        <time>2022-08-02T12:15:48Z</time>
      </trkpt>
      <trkpt lat="44.86957" lon="3.80062">
        <ele>1178.71</ele>
        <time>2022-08-02T12:16:06Z</time>
      </trkpt>
      <trkpt lat="44.8695" lon="3.80067">
        <ele>1177.75</ele>
        <time>2022-08-02T12:16:12Z</time>
      </trkpt>
      <trkpt lat="44.86928" lon="3.8008">
        <ele>1177.27</ele>
        <time>2022-08-02T12:16:30Z</time>
      </trkpt>
      <trkpt lat="44.8691" lon="3.80093">
        <ele>1176.79</ele>
        <time>2022-08-02T12:16:46Z</time>
      </trkpt>
      <trkpt lat="44.86888" lon="3.80109">
        <ele>1176.31</ele>
        <time>2022-08-02T12:17:04Z</time>
      </trkpt>
      <trkpt lat="44.86868" lon="3.80123">
        <ele>1175.35</ele>
        <time>2022-08-02T12:17:21Z</time>
      </trkpt>
      <trkpt lat="44.86846" lon="3.80133">
        <ele>1174.87</ele>
        <time>2022-08-02T12:17:39Z</time>
      </trkpt>
      <trkpt lat="44.86822" lon="3.80145">
        <ele>1173.91</ele>
        <time>2022-08-02T12:17:58Z</time>
      </trkpt>
      <trkpt lat="44.86801" lon="3.80156">
        <ele>1172.95</ele>
        <time>2022-08-02T12:18:15Z</time>
      </trkpt>
      <trkpt lat="44.868" lon="3.80156">
        <ele>1172.95</ele>
        <time>2022-08-02T12:18:16Z</time>
      </trkpt>
      <trkpt lat="44.86777" lon="3.80168">
        <ele>1172.47</ele>
        <time>2022-08-02T12:18:34Z</time>
      </trkpt>
      <trkpt lat="44.86757" lon="3.80178">
        <ele>1172.47</ele>
        <time>2022-08-02T12:18:50Z</time>
      </trkpt>
      <trkpt lat="44.86737" lon="3.80188">
        <ele>1171.98</ele>
        <time>2022-08-02T12:19:06Z</time>
      </trkpt>
      <trkpt lat="44.86716" lon="3.80203">
        <ele>1171.98</ele>
        <time>2022-08-02T12:19:24Z</time>
      </trkpt>
      <trkpt lat="44.86693" lon="3.8022">
        <ele>1171.02</ele>
        <time>2022-08-02T12:19:43Z</time>
      </trkpt>
      <trkpt lat="44.86672" lon="3.80237">
        <ele>1171.02</ele>
        <time>2022-08-02T12:20:01Z</time>
      </trkpt>
      <trkpt lat="44.86652" lon="3.80255">
        <ele>1171.5</ele>
        <time>2022-08-02T12:20:19Z</time>
      </trkpt>
      <trkpt lat="44.86632" lon="3.80274">
        <ele>1169.58</ele>
        <time>2022-08-02T12:20:37Z</time>
      </trkpt>
      <trkpt lat="44.86612" lon="3.8029">
        <ele>1168.62</ele>
        <time>2022-08-02T12:20:55Z</time>
      </trkpt>
      <trkpt lat="44.8659" lon="3.80307">
        <ele>1168.14</ele>
        <time>2022-08-02T12:21:14Z</time>
      </trkpt>
      <trkpt lat="44.86568" lon="3.80326">
        <ele>1168.14</ele>
        <time>2022-08-02T12:21:33Z</time>
      </trkpt>
      <trkpt lat="44.86547" lon="3.80346">
        <ele>1167.66</ele>
        <time>2022-08-02T12:21:53Z</time>
      </trkpt>
      <trkpt lat="44.86528" lon="3.80367">
        <ele>1167.18</ele>
        <time>2022-08-02T12:22:11Z</time>
      </trkpt>
      <trkpt lat="44.86505" lon="3.80381">
        <ele>1165.74</ele>
        <time>2022-08-02T12:22:30Z</time>
      </trkpt>
      <trkpt lat="44.86486" lon="3.80391">
        <ele>1165.26</ele>
        <time>2022-08-02T12:22:45Z</time>
      </trkpt>
      <trkpt lat="44.86468" lon="3.80409">
        <ele>1165.74</ele>
        <time>2022-08-02T12:23:02Z</time>
      </trkpt>
      <trkpt lat="44.86456" lon="3.80433">
        <ele>1165.26</ele>
        <time>2022-08-02T12:23:18Z</time>
      </trkpt>
      <trkpt lat="44.86447" lon="3.80463">
        <ele>1163.81</ele>
        <time>2022-08-02T12:23:34Z</time>
      </trkpt>
      <trkpt lat="44.86439" lon="3.80496">
        <ele>1162.37</ele>
        <time>2022-08-02T12:23:52Z</time>
      </trkpt>
      <trkpt lat="44.86427" lon="3.80522">
        <ele>1162.37</ele>
        <time>2022-08-02T12:24:08Z</time>
      </trkpt>
      <trkpt lat="44.86413" lon="3.80549">
        <ele>1162.37</ele>
        <time>2022-08-02T12:24:26Z</time>
      </trkpt>
      <trkpt lat="44.86399" lon="3.8058">
        <ele>1161.89</ele>
        <time>2022-08-02T12:24:45Z</time>
      </trkpt>
      <trkpt lat="44.86385" lon="3.80613">
        <ele>1161.41</ele>
        <time>2022-08-02T12:25:05Z</time>
      </trkpt>
      <trkpt lat="44.86379" lon="3.80627">
        <ele>1161.41</ele>
        <time>2022-08-02T12:25:17Z</time>
      </trkpt>
      <trkpt lat="44.8638" lon="3.80625">
        <ele>1161.41</ele>
        <time>2022-08-02T12:25:19Z</time>
      </trkpt>
      <trkpt lat="44.86383" lon="3.8062">
        <ele>1161.41</ele>
        <time>2022-08-02T12:25:24Z</time>
      </trkpt>
      <trkpt lat="44.86384" lon="3.80614">
        <ele>1161.89</ele>
        <time>2022-08-02T12:25:39Z</time>
      </trkpt>
      <trkpt lat="44.86384" lon="3.80615">
        <ele>1161.89</ele>
        <time>2022-08-02T12:25:41Z</time>
      </trkpt>
      <trkpt lat="44.86381" lon="3.8062">
        <ele>1162.37</ele>
        <time>2022-08-02T12:25:55Z</time>
      </trkpt>
      <trkpt lat="44.8638" lon="3.8062">
        <ele>1161.89</ele>
        <time>2022-08-02T12:26:15Z</time>
      </trkpt>
      <trkpt lat="44.86375" lon="3.80633">
        <ele>1161.41</ele>
        <time>2022-08-02T12:26:28Z</time>
      </trkpt>
      <trkpt lat="44.86363" lon="3.80662">
        <ele>1161.41</ele>
        <time>2022-08-02T12:26:46Z</time>
      </trkpt>
      <trkpt lat="44.86352" lon="3.80689">
        <ele>1160.45</ele>
        <time>2022-08-02T12:27:02Z</time>
      </trkpt>
      <trkpt lat="44.86339" lon="3.80715">
        <ele>1159.97</ele>
        <time>2022-08-02T12:27:20Z</time>
      </trkpt>
      <trkpt lat="44.86325" lon="3.80731">
        <ele>1159.97</ele>
        <time>2022-08-02T12:27:34Z</time>
      </trkpt>
      <trkpt lat="44.86323" lon="3.80733">
        <ele>1160.45</ele>
        <time>2022-08-02T12:27:36Z</time>
      </trkpt>
      <trkpt lat="44.86308" lon="3.80752">
        <ele>1160.45</ele>
        <time>2022-08-02T12:27:52Z</time>
      </trkpt>
      <trkpt lat="44.86293" lon="3.80772">
        <ele>1159.01</ele>
        <time>2022-08-02T12:28:08Z</time>
      </trkpt>
      <trkpt lat="44.86278" lon="3.80797">
        <ele>1158.53</ele>
        <time>2022-08-02T12:28:25Z</time>
      </trkpt>
      <trkpt lat="44.8626" lon="3.80824">
        <ele>1158.05</ele>
        <time>2022-08-02T12:28:44Z</time>
      </trkpt>
      <trkpt lat="44.8624" lon="3.8085">
        <ele>1156.6</ele>
        <time>2022-08-02T12:29:04Z</time>
      </trkpt>
      <trkpt lat="44.8622" lon="3.80876">
        <ele>1157.08</ele>
        <time>2022-08-02T12:29:25Z</time>
      </trkpt>
      <trkpt lat="44.86212" lon="3.80897">
        <ele>1156.6</ele>
        <time>2022-08-02T12:29:39Z</time>
      </trkpt>
      <trkpt lat="44.86202" lon="3.80914">
        <ele>1155.64</ele>
        <time>2022-08-02T12:29:52Z</time>
      </trkpt>
      <trkpt lat="44.86191" lon="3.80933">
        <ele>1155.16</ele>
        <time>2022-08-02T12:30:06Z</time>
      </trkpt>
      <trkpt lat="44.86171" lon="3.8095">
        <ele>1154.68</ele>
        <time>2022-08-02T12:30:24Z</time>
      </trkpt>
      <trkpt lat="44.86147" lon="3.80963">
        <ele>1155.64</ele>
        <time>2022-08-02T12:30:45Z</time>
      </trkpt>
      <trkpt lat="44.86125" lon="3.80982">
        <ele>1155.16</ele>
        <time>2022-08-02T12:31:04Z</time>
      </trkpt>
      <trkpt lat="44.86109" lon="3.81">
        <ele>1152.76</ele>
        <time>2022-08-02T12:31:21Z</time>
      </trkpt>
      <trkpt lat="44.8609" lon="3.81019">
        <ele>1151.8</ele>
        <time>2022-08-02T12:31:38Z</time>
      </trkpt>
      <trkpt lat="44.86071" lon="3.81032">
        <ele>1152.28</ele>
        <time>2022-08-02T12:31:55Z</time>
      </trkpt>
      <trkpt lat="44.86049" lon="3.8105">
        <ele>1152.28</ele>
        <time>2022-08-02T12:32:14Z</time>
      </trkpt>
      <trkpt lat="44.86031" lon="3.81071">
        <ele>1151.32</ele>
        <time>2022-08-02T12:32:33Z</time>
      </trkpt>
      <trkpt lat="44.86013" lon="3.81093">
        <ele>1149.87</ele>
        <time>2022-08-02T12:32:51Z</time>
      </trkpt>
      <trkpt lat="44.86012" lon="3.81096">
        <ele>1149.87</ele>
        <time>2022-08-02T12:32:53Z</time>
      </trkpt>
      <trkpt lat="44.86005" lon="3.81108">
        <ele>1149.87</ele>
        <time>2022-08-02T12:33:01Z</time>
      </trkpt>
      <trkpt lat="44.85992" lon="3.81131">
        <ele>1149.87</ele>
        <time>2022-08-02T12:33:17Z</time>
      </trkpt>
      <trkpt lat="44.85978" lon="3.81154">
        <ele>1149.39</ele>
        <time>2022-08-02T12:33:34Z</time>
      </trkpt>
      <trkpt lat="44.85963" lon="3.81172">
        <ele>1149.87</ele>
        <time>2022-08-02T12:33:49Z</time>
      </trkpt>
      <trkpt lat="44.85941" lon="3.81184">
        <ele>1150.35</ele>
        <time>2022-08-02T12:34:08Z</time>
      </trkpt>
      <trkpt lat="44.85918" lon="3.81192">
        <ele>1151.32</ele>
        <time>2022-08-02T12:34:26Z</time>
      </trkpt>
      <trkpt lat="44.85907" lon="3.81218">
        <ele>1149.87</ele>
        <time>2022-08-02T12:34:42Z</time>
      </trkpt>
      <trkpt lat="44.85909" lon="3.8125">
        <ele>1148.43</ele>
        <time>2022-08-02T12:34:59Z</time>
      </trkpt>
      <trkpt lat="44.85912" lon="3.81281">
        <ele>1147.47</ele>
        <time>2022-08-02T12:35:15Z</time>
      </trkpt>
      <trkpt lat="44.85919" lon="3.81311">
        <ele>1146.99</ele>
        <time>2022-08-02T12:35:32Z</time>
      </trkpt>
      <trkpt lat="44.8593" lon="3.81338">
        <ele>1147.47</ele>
        <time>2022-08-02T12:35:49Z</time>
      </trkpt>
      <trkpt lat="44.85939" lon="3.81367">
        <ele>1146.99</ele>
        <time>2022-08-02T12:36:06Z</time>
      </trkpt>
      <trkpt lat="44.85947" lon="3.81396">
        <ele>1146.99</ele>
        <time>2022-08-02T12:36:23Z</time>
      </trkpt>
      <trkpt lat="44.85959" lon="3.81425">
        <ele>1146.99</ele>
        <time>2022-08-02T12:36:41Z</time>
      </trkpt>
      <trkpt lat="44.85971" lon="3.81455">
        <ele>1146.99</ele>
        <time>2022-08-02T12:36:59Z</time>
      </trkpt>
      <trkpt lat="44.85984" lon="3.81488">
        <ele>1146.03</ele>
        <time>2022-08-02T12:37:19Z</time>
      </trkpt>
      <trkpt lat="44.85996" lon="3.81517">
        <ele>1146.03</ele>
        <time>2022-08-02T12:37:37Z</time>
      </trkpt>
      <trkpt lat="44.86008" lon="3.81546">
        <ele>1146.03</ele>
        <time>2022-08-02T12:37:55Z</time>
      </trkpt>
      <trkpt lat="44.86025" lon="3.81571">
        <ele>1145.55</ele>
        <time>2022-08-02T12:38:13Z</time>
      </trkpt>
      <trkpt lat="44.86041" lon="3.81592">
        <ele>1145.55</ele>
        <time>2022-08-02T12:38:30Z</time>
      </trkpt>
      <trkpt lat="44.86058" lon="3.8161">
        <ele>1145.55</ele>
        <time>2022-08-02T12:38:46Z</time>
      </trkpt>
      <trkpt lat="44.86075" lon="3.81625">
        <ele>1146.03</ele>
        <time>2022-08-02T12:39:01Z</time>
      </trkpt>
      <trkpt lat="44.86091" lon="3.81645">
        <ele>1146.03</ele>
        <time>2022-08-02T12:39:17Z</time>
      </trkpt>
      <trkpt lat="44.86108" lon="3.81666">
        <ele>1146.03</ele>
        <time>2022-08-02T12:39:34Z</time>
      </trkpt>
      <trkpt lat="44.86123" lon="3.81683">
        <ele>1146.51</ele>
        <time>2022-08-02T12:39:49Z</time>
      </trkpt>
      <trkpt lat="44.86137" lon="3.81706">
        <ele>1146.51</ele>
        <time>2022-08-02T12:40:05Z</time>
      </trkpt>
      <trkpt lat="44.86132" lon="3.81733">
        <ele>1146.51</ele>
        <time>2022-08-02T12:40:21Z</time>
      </trkpt>
      <trkpt lat="44.86119" lon="3.81756">
        <ele>1146.99</ele>
        <time>2022-08-02T12:40:37Z</time>
      </trkpt>
      <trkpt lat="44.86102" lon="3.81775">
        <ele>1147.95</ele>
        <time>2022-08-02T12:40:54Z</time>
      </trkpt>
      <trkpt lat="44.86084" lon="3.81796">
        <ele>1148.43</ele>
        <time>2022-08-02T12:41:12Z</time>
      </trkpt>
      <trkpt lat="44.86065" lon="3.81808">
        <ele>1149.87</ele>
        <time>2022-08-02T12:41:29Z</time>
      </trkpt>
      <trkpt lat="44.86045" lon="3.81821">
        <ele>1149.87</ele>
        <time>2022-08-02T12:41:46Z</time>
      </trkpt>
      <trkpt lat="44.86023" lon="3.81833">
        <ele>1149.87</ele>
        <time>2022-08-02T12:42:04Z</time>
      </trkpt>
      <trkpt lat="44.86005" lon="3.81843">
        <ele>1149.87</ele>
        <time>2022-08-02T12:42:19Z</time>
      </trkpt>
      <trkpt lat="44.85979" lon="3.81858">
        <ele>1149.87</ele>
        <time>2022-08-02T12:42:40Z</time>
      </trkpt>
      <trkpt lat="44.85959" lon="3.81871">
        <ele>1149.87</ele>
        <time>2022-08-02T12:42:57Z</time>
      </trkpt>
      <trkpt lat="44.85937" lon="3.81883">
        <ele>1150.84</ele>
        <time>2022-08-02T12:43:15Z</time>
      </trkpt>
      <trkpt lat="44.85919" lon="3.81896">
        <ele>1150.84</ele>
        <time>2022-08-02T12:43:30Z</time>
      </trkpt>
      <trkpt lat="44.85901" lon="3.81914">
        <ele>1149.39</ele>
        <time>2022-08-02T12:43:47Z</time>
      </trkpt>
      <trkpt lat="44.85879" lon="3.81932">
        <ele>1147.47</ele>
        <time>2022-08-02T12:44:07Z</time>
      </trkpt>
      <trkpt lat="44.85858" lon="3.81945">
        <ele>1146.99</ele>
        <time>2022-08-02T12:44:25Z</time>
      </trkpt>
      <trkpt lat="44.85833" lon="3.81963">
        <ele>1146.99</ele>
        <time>2022-08-02T12:44:47Z</time>
      </trkpt>
      <trkpt lat="44.85814" lon="3.81977">
        <ele>1146.99</ele>
        <time>2022-08-02T12:45:03Z</time>
      </trkpt>
      <trkpt lat="44.85794" lon="3.81993">
        <ele>1146.99</ele>
        <time>2022-08-02T12:45:20Z</time>
      </trkpt>
      <trkpt lat="44.85772" lon="3.82006">
        <ele>1146.99</ele>
        <time>2022-08-02T12:45:38Z</time>
      </trkpt>
      <trkpt lat="44.85751" lon="3.82021">
        <ele>1146.99</ele>
        <time>2022-08-02T12:45:56Z</time>
      </trkpt>
      <trkpt lat="44.85733" lon="3.82042">
        <ele>1146.03</ele>
        <time>2022-08-02T12:46:15Z</time>
      </trkpt>
      <trkpt lat="44.85718" lon="3.82061">
        <ele>1145.07</ele>
        <time>2022-08-02T12:46:30Z</time>
      </trkpt>
      <trkpt lat="44.85699" lon="3.82088">
        <ele>1144.59</ele>
        <time>2022-08-02T12:46:50Z</time>
      </trkpt>
      <trkpt lat="44.85685" lon="3.82106">
        <ele>1145.07</ele>
        <time>2022-08-02T12:47:05Z</time>
      </trkpt>
      <trkpt lat="44.85665" lon="3.82128">
        <ele>1144.59</ele>
        <time>2022-08-02T12:47:24Z</time>
      </trkpt>
      <trkpt lat="44.85648" lon="3.8215">
        <ele>1146.03</ele>
        <time>2022-08-02T12:47:42Z</time>
      </trkpt>
      <trkpt lat="44.85632" lon="3.82167">
        <ele>1146.03</ele>
        <time>2022-08-02T12:47:57Z</time>
      </trkpt>
      <trkpt lat="44.85616" lon="3.82189">
        <ele>1145.55</ele>
        <time>2022-08-02T12:48:14Z</time>
      </trkpt>
      <trkpt lat="44.85599" lon="3.82212">
        <ele>1146.99</ele>
        <time>2022-08-02T12:48:32Z</time>
      </trkpt>
      <trkpt lat="44.85585" lon="3.82228">
        <ele>1146.99</ele>
        <time>2022-08-02T12:48:46Z</time>
      </trkpt>
      <trkpt lat="44.85566" lon="3.82255">
        <ele>1146.51</ele>
        <time>2022-08-02T12:49:06Z</time>
      </trkpt>
      <trkpt lat="44.8555" lon="3.82282">
        <ele>1145.55</ele>
        <time>2022-08-02T12:49:24Z</time>
      </trkpt>
      <trkpt lat="44.85537" lon="3.82306">
        <ele>1144.11</ele>
        <time>2022-08-02T12:49:40Z</time>
      </trkpt>
      <trkpt lat="44.85522" lon="3.82326">
        <ele>1143.63</ele>
        <time>2022-08-02T12:49:56Z</time>
      </trkpt>
      <trkpt lat="44.85505" lon="3.82345">
        <ele>1143.14</ele>
        <time>2022-08-02T12:50:13Z</time>
      </trkpt>
      <trkpt lat="44.85486" lon="3.82365">
        <ele>1145.07</ele>
        <time>2022-08-02T12:50:31Z</time>
      </trkpt>
      <trkpt lat="44.85468" lon="3.82386">
        <ele>1144.59</ele>
        <time>2022-08-02T12:50:50Z</time>
      </trkpt>
      <trkpt lat="44.85448" lon="3.82406">
        <ele>1145.07</ele>
        <time>2022-08-02T12:51:08Z</time>
      </trkpt>
      <trkpt lat="44.85428" lon="3.82422">
        <ele>1144.59</ele>
        <time>2022-08-02T12:51:26Z</time>
      </trkpt>
      <trkpt lat="44.85407" lon="3.82437">
        <ele>1144.11</ele>
        <time>2022-08-02T12:51:44Z</time>
      </trkpt>
      <trkpt lat="44.85386" lon="3.82451">
        <ele>1144.11</ele>
        <time>2022-08-02T12:52:01Z</time>
      </trkpt>
      <trkpt lat="44.85365" lon="3.82465">
        <ele>1144.11</ele>
        <time>2022-08-02T12:52:19Z</time>
      </trkpt>
      <trkpt lat="44.85343" lon="3.82476">
        <ele>1144.59</ele>
        <time>2022-08-02T12:52:37Z</time>
      </trkpt>
      <trkpt lat="44.85321" lon="3.82486">
        <ele>1145.07</ele>
        <time>2022-08-02T12:52:54Z</time>
      </trkpt>
      <trkpt lat="44.85303" lon="3.82495">
        <ele>1145.07</ele>
        <time>2022-08-02T12:53:09Z</time>
      </trkpt>
      <trkpt lat="44.85285" lon="3.8251">
        <ele>1143.63</ele>
        <time>2022-08-02T12:53:25Z</time>
      </trkpt>
      <trkpt lat="44.85271" lon="3.82538">
        <ele>1142.18</ele>
        <time>2022-08-02T12:53:42Z</time>
      </trkpt>
      <trkpt lat="44.85257" lon="3.82564">
        <ele>1139.78</ele>
        <time>2022-08-02T12:54:01Z</time>
      </trkpt>
      <trkpt lat="44.85245" lon="3.826">
        <ele>1135.45</ele>
        <time>2022-08-02T12:54:21Z</time>
      </trkpt>
      <trkpt lat="44.85237" lon="3.8263">
        <ele>1134.01</ele>
        <time>2022-08-02T12:54:39Z</time>
      </trkpt>
      <trkpt lat="44.85229" lon="3.82643">
        <ele>1133.05</ele>
        <time>2022-08-02T12:54:50Z</time>
      </trkpt>
      <trkpt lat="44.85221" lon="3.82635">
        <ele>1134.49</ele>
        <time>2022-08-02T12:54:59Z</time>
      </trkpt>
      <trkpt lat="44.85209" lon="3.82625">
        <ele>1137.38</ele>
        <time>2022-08-02T12:55:10Z</time>
      </trkpt>
      <trkpt lat="44.85207" lon="3.82622">
        <ele>1137.86</ele>
        <time>2022-08-02T12:55:13Z</time>
      </trkpt>
      <trkpt lat="44.85212" lon="3.82616">
        <ele>1138.82</ele>
        <time>2022-08-02T12:55:26Z</time>
      </trkpt>
      <trkpt lat="44.85213" lon="3.82616">
        <ele>1139.3</ele>
        <time>2022-08-02T12:55:46Z</time>
      </trkpt>
      <trkpt lat="44.85213" lon="3.82615">
        <ele>1138.82</ele>
        <time>2022-08-02T12:56:08Z</time>
      </trkpt>
      <trkpt lat="44.85213" lon="3.82616">
        <ele>1137.38</ele>
        <time>2022-08-02T12:56:21Z</time>
      </trkpt>
      <trkpt lat="44.85211" lon="3.82616">
        <ele>1144.11</ele>
        <time>2022-08-02T12:57:49Z</time>
      </trkpt>
      <trkpt lat="44.85218" lon="3.82617">
        <ele>1142.66</ele>
        <time>2022-08-02T12:58:20Z</time>
      </trkpt>
      <trkpt lat="44.8521" lon="3.82618">
        <ele>1139.78</ele>
        <time>2022-08-02T12:58:50Z</time>
      </trkpt>
      <trkpt lat="44.8521" lon="3.82618">
        <ele>1135.45</ele>
        <time>2022-08-02T12:59:25Z</time>
      </trkpt>
      <trkpt lat="44.85211" lon="3.82618">
        <ele>1133.05</ele>
        <time>2022-08-02T13:00:06Z</time>
      </trkpt>
      <trkpt lat="44.85209" lon="3.82617">
        <ele>1131.61</ele>
        <time>2022-08-02T13:00:45Z</time>
      </trkpt>
      <trkpt lat="44.85208" lon="3.82616">
        <ele>1139.3</ele>
        <time>2022-08-02T13:01:29Z</time>
      </trkpt>
      <trkpt lat="44.85206" lon="3.82619">
        <ele>1138.82</ele>
        <time>2022-08-02T13:01:38Z</time>
      </trkpt>
      <trkpt lat="44.85203" lon="3.82617">
        <ele>1136.9</ele>
        <time>2022-08-02T13:01:42Z</time>
      </trkpt>
      <trkpt lat="44.85183" lon="3.82605">
        <ele>1133.53</ele>
        <time>2022-08-02T13:02:01Z</time>
      </trkpt>
      <trkpt lat="44.85184" lon="3.82606">
        <ele>1132.57</ele>
        <time>2022-08-02T13:02:10Z</time>
      </trkpt>
      <trkpt lat="44.85192" lon="3.82611">
        <ele>1131.13</ele>
        <time>2022-08-02T13:02:25Z</time>
      </trkpt>
      <trkpt lat="44.85194" lon="3.8261">
        <ele>1133.05</ele>
        <time>2022-08-02T13:03:02Z</time>
      </trkpt>
      <trkpt lat="44.85191" lon="3.82608">
        <ele>1131.61</ele>
        <time>2022-08-02T13:03:27Z</time>
      </trkpt>
      <trkpt lat="44.85187" lon="3.82606">
        <ele>1131.61</ele>
        <time>2022-08-02T13:03:45Z</time>
      </trkpt>
      <trkpt lat="44.85181" lon="3.82604">
        <ele>1130.65</ele>
        <time>2022-08-02T13:04:10Z</time>
      </trkpt>
      <trkpt lat="44.85158" lon="3.82602">
        <ele>1129.69</ele>
        <time>2022-08-02T13:04:28Z</time>
      </trkpt>
      <trkpt lat="44.85151" lon="3.82601">
        <ele>1130.65</ele>
        <time>2022-08-02T13:04:41Z</time>
      </trkpt>
      <trkpt lat="44.85128" lon="3.82596">
        <ele>1130.65</ele>
        <time>2022-08-02T13:04:58Z</time>
      </trkpt>
      <trkpt lat="44.85107" lon="3.82594">
        <ele>1131.61</ele>
        <time>2022-08-02T13:05:14Z</time>
      </trkpt>
      <trkpt lat="44.85084" lon="3.82598">
        <ele>1131.61</ele>
        <time>2022-08-02T13:05:31Z</time>
      </trkpt>
      <trkpt lat="44.85062" lon="3.82607">
        <ele>1130.17</ele>
        <time>2022-08-02T13:05:49Z</time>
      </trkpt>
      <trkpt lat="44.85041" lon="3.82616">
        <ele>1126.8</ele>
        <time>2022-08-02T13:06:05Z</time>
      </trkpt>
      <trkpt lat="44.85018" lon="3.8263">
        <ele>1122.96</ele>
        <time>2022-08-02T13:06:23Z</time>
      </trkpt>
      <trkpt lat="44.84999" lon="3.8265">
        <ele>1119.11</ele>
        <time>2022-08-02T13:06:41Z</time>
      </trkpt>
      <trkpt lat="44.84978" lon="3.82672">
        <ele>1114.79</ele>
        <time>2022-08-02T13:07:00Z</time>
      </trkpt>
      <trkpt lat="44.8496" lon="3.82687">
        <ele>1112.86</ele>
        <time>2022-08-02T13:07:16Z</time>
      </trkpt>
      <trkpt lat="44.84943" lon="3.82687">
        <ele>1110.94</ele>
        <time>2022-08-02T13:07:32Z</time>
      </trkpt>
      <trkpt lat="44.84926" lon="3.82679">
        <ele>1112.38</ele>
        <time>2022-08-02T13:07:48Z</time>
      </trkpt>
      <trkpt lat="44.84923" lon="3.82677">
        <ele>1112.38</ele>
        <time>2022-08-02T13:07:51Z</time>
      </trkpt>
      <trkpt lat="44.84908" lon="3.82658">
        <ele>1115.27</ele>
        <time>2022-08-02T13:08:10Z</time>
      </trkpt>
      <trkpt lat="44.84894" lon="3.8267">
        <ele>1114.31</ele>
        <time>2022-08-02T13:08:23Z</time>
      </trkpt>
      <trkpt lat="44.84895" lon="3.82675">
        <ele>1111.42</ele>
        <time>2022-08-02T13:08:38Z</time>
      </trkpt>
      <trkpt lat="44.84894" lon="3.82673">
        <ele>1110.94</ele>
        <time>2022-08-02T13:08:51Z</time>
      </trkpt>
      <trkpt lat="44.84893" lon="3.82673">
        <ele>1111.42</ele>
        <time>2022-08-02T13:08:57Z</time>
      </trkpt>
      <trkpt lat="44.84888" lon="3.82678">
        <ele>1111.9</ele>
        <time>2022-08-02T13:09:02Z</time>
      </trkpt>
      <trkpt lat="44.84866" lon="3.82692">
        <ele>1111.42</ele>
        <time>2022-08-02T13:09:21Z</time>
      </trkpt>
      <trkpt lat="44.84846" lon="3.82692">
        <ele>1110.46</ele>
        <time>2022-08-02T13:09:36Z</time>
      </trkpt>
      <trkpt lat="44.84824" lon="3.82688">
        <ele>1109.98</ele>
        <time>2022-08-02T13:09:53Z</time>
      </trkpt>
      <trkpt lat="44.84818" lon="3.82688">
        <ele>1110.46</ele>
        <time>2022-08-02T13:10:01Z</time>
      </trkpt>
      <trkpt lat="44.8482" lon="3.82686">
        <ele>1110.94</ele>
        <time>2022-08-02T13:10:13Z</time>
      </trkpt>
      <trkpt lat="44.84801" lon="3.82679">
        <ele>1112.38</ele>
        <time>2022-08-02T13:10:28Z</time>
      </trkpt>
      <trkpt lat="44.84795" lon="3.82675">
        <ele>1112.86</ele>
        <time>2022-08-02T13:10:34Z</time>
      </trkpt>
      <trkpt lat="44.8477" lon="3.82668">
        <ele>1111.9</ele>
        <time>2022-08-02T13:10:52Z</time>
      </trkpt>
      <trkpt lat="44.84746" lon="3.82662">
        <ele>1109.98</ele>
        <time>2022-08-02T13:11:09Z</time>
      </trkpt>
      <trkpt lat="44.84724" lon="3.82659">
        <ele>1109.02</ele>
        <time>2022-08-02T13:11:25Z</time>
      </trkpt>
      <trkpt lat="44.84701" lon="3.82655">
        <ele>1109.02</ele>
        <time>2022-08-02T13:11:42Z</time>
      </trkpt>
      <trkpt lat="44.8468" lon="3.82655">
        <ele>1108.06</ele>
        <time>2022-08-02T13:11:59Z</time>
      </trkpt>
      <trkpt lat="44.84666" lon="3.82671">
        <ele>1107.1</ele>
        <time>2022-08-02T13:12:13Z</time>
      </trkpt>
      <trkpt lat="44.84647" lon="3.82693">
        <ele>1108.06</ele>
        <time>2022-08-02T13:12:31Z</time>
      </trkpt>
      <trkpt lat="44.84629" lon="3.82717">
        <ele>1105.17</ele>
        <time>2022-08-02T13:12:49Z</time>
      </trkpt>
      <trkpt lat="44.84624" lon="3.82725">
        <ele>1104.69</ele>
        <time>2022-08-02T13:12:55Z</time>
      </trkpt>
      <trkpt lat="44.84611" lon="3.82753">
        <ele>1104.69</ele>
        <time>2022-08-02T13:13:13Z</time>
      </trkpt>
      <trkpt lat="44.84595" lon="3.82768">
        <ele>1106.61</ele>
        <time>2022-08-02T13:13:29Z</time>
      </trkpt>
      <trkpt lat="44.84584" lon="3.82774">
        <ele>1106.13</ele>
        <time>2022-08-02T13:13:41Z</time>
      </trkpt>
      <trkpt lat="44.84564" lon="3.82787">
        <ele>1105.17</ele>
        <time>2022-08-02T13:13:58Z</time>
      </trkpt>
      <trkpt lat="44.84547" lon="3.82803">
        <ele>1104.69</ele>
        <time>2022-08-02T13:14:13Z</time>
      </trkpt>
      <trkpt lat="44.84529" lon="3.82824">
        <ele>1103.73</ele>
        <time>2022-08-02T13:14:30Z</time>
      </trkpt>
      <trkpt lat="44.84516" lon="3.82837">
        <ele>1104.21</ele>
        <time>2022-08-02T13:14:43Z</time>
      </trkpt>
      <trkpt lat="44.84497" lon="3.82857">
        <ele>1102.77</ele>
        <time>2022-08-02T13:15:01Z</time>
      </trkpt>
      <trkpt lat="44.84481" lon="3.82871">
        <ele>1102.29</ele>
        <time>2022-08-02T13:15:16Z</time>
      </trkpt>
      <trkpt lat="44.84463" lon="3.82884">
        <ele>1101.81</ele>
        <time>2022-08-02T13:15:32Z</time>
      </trkpt>
      <trkpt lat="44.84451" lon="3.82898">
        <ele>1100.37</ele>
        <time>2022-08-02T13:15:45Z</time>
      </trkpt>
      <trkpt lat="44.84436" lon="3.82914">
        <ele>1099.4</ele>
        <time>2022-08-02T13:16:00Z</time>
      </trkpt>
      <trkpt lat="44.84435" lon="3.82927">
        <ele>1099.4</ele>
        <time>2022-08-02T13:16:14Z</time>
      </trkpt>
      <trkpt lat="44.84437" lon="3.82928">
        <ele>1098.92</ele>
        <time>2022-08-02T13:16:31Z</time>
      </trkpt>
      <trkpt lat="44.84437" lon="3.82929">
        <ele>1099.4</ele>
        <time>2022-08-02T13:16:48Z</time>
      </trkpt>
      <trkpt lat="44.84435" lon="3.82927">
        <ele>1098.92</ele>
        <time>2022-08-02T13:17:09Z</time>
      </trkpt>
      <trkpt lat="44.84434" lon="3.82924">
        <ele>1100.85</ele>
        <time>2022-08-02T13:17:51Z</time>
      </trkpt>
      <trkpt lat="44.84431" lon="3.82913">
        <ele>1103.25</ele>
        <time>2022-08-02T13:18:34Z</time>
      </trkpt>
      <trkpt lat="44.84432" lon="3.82919">
        <ele>1102.29</ele>
        <time>2022-08-02T13:19:14Z</time>
      </trkpt>
      <trkpt lat="44.84431" lon="3.82916">
        <ele>1103.73</ele>
        <time>2022-08-02T13:19:53Z</time>
      </trkpt>
      <trkpt lat="44.84431" lon="3.82912">
        <ele>1109.5</ele>
        <time>2022-08-02T13:20:30Z</time>
      </trkpt>
      <trkpt lat="44.84431" lon="3.82912">
        <ele>1108.06</ele>
        <time>2022-08-02T13:21:14Z</time>
      </trkpt>
      <trkpt lat="44.84434" lon="3.82924">
        <ele>1107.58</ele>
        <time>2022-08-02T13:21:38Z</time>
      </trkpt>
      <trkpt lat="44.84435" lon="3.82928">
        <ele>1103.73</ele>
        <time>2022-08-02T13:22:09Z</time>
      </trkpt>
      <trkpt lat="44.84435" lon="3.82926">
        <ele>1103.73</ele>
        <time>2022-08-02T13:22:35Z</time>
      </trkpt>
      <trkpt lat="44.84435" lon="3.82927">
        <ele>1101.81</ele>
        <time>2022-08-02T13:23:04Z</time>
      </trkpt>
      <trkpt lat="44.84435" lon="3.82926">
        <ele>1100.85</ele>
        <time>2022-08-02T13:23:38Z</time>
      </trkpt>
      <trkpt lat="44.84438" lon="3.8293">
        <ele>1098.44</ele>
        <time>2022-08-02T13:24:09Z</time>
      </trkpt>
      <trkpt lat="44.84438" lon="3.8293">
        <ele>1097.48</ele>
        <time>2022-08-02T13:24:47Z</time>
      </trkpt>
      <trkpt lat="44.84438" lon="3.82934">
        <ele>1098.44</ele>
        <time>2022-08-02T13:25:21Z</time>
      </trkpt>
      <trkpt lat="44.84438" lon="3.82933">
        <ele>1098.44</ele>
        <time>2022-08-02T13:25:51Z</time>
      </trkpt>
      <trkpt lat="44.84439" lon="3.82933">
        <ele>1098.92</ele>
        <time>2022-08-02T13:26:20Z</time>
      </trkpt>
      <trkpt lat="44.84436" lon="3.82933">
        <ele>1099.4</ele>
        <time>2022-08-02T13:26:32Z</time>
      </trkpt>
      <trkpt lat="44.84437" lon="3.82933">
        <ele>1097.96</ele>
        <time>2022-08-02T13:26:51Z</time>
      </trkpt>
      <trkpt lat="44.84437" lon="3.82933">
        <ele>1095.56</ele>
        <time>2022-08-02T13:27:06Z</time>
      </trkpt>
      <trkpt lat="44.84437" lon="3.82929">
        <ele>1097</ele>
        <time>2022-08-02T13:27:25Z</time>
      </trkpt>
      <trkpt lat="44.84436" lon="3.82929">
        <ele>1097.48</ele>
        <time>2022-08-02T13:27:48Z</time>
      </trkpt>
      <trkpt lat="44.84432" lon="3.82925">
        <ele>1097</ele>
        <time>2022-08-02T13:27:59Z</time>
      </trkpt>
      <trkpt lat="44.8443" lon="3.82925">
        <ele>1097</ele>
        <time>2022-08-02T13:28:01Z</time>
      </trkpt>
      <trkpt lat="44.84415" lon="3.82939">
        <ele>1097</ele>
        <time>2022-08-02T13:28:17Z</time>
      </trkpt>
      <trkpt lat="44.84405" lon="3.82948">
        <ele>1097</ele>
        <time>2022-08-02T13:28:27Z</time>
      </trkpt>
      <trkpt lat="44.84393" lon="3.82961">
        <ele>1097</ele>
        <time>2022-08-02T13:28:41Z</time>
      </trkpt>
      <trkpt lat="44.8438" lon="3.82981">
        <ele>1097</ele>
        <time>2022-08-02T13:28:57Z</time>
      </trkpt>
      <trkpt lat="44.84378" lon="3.82992">
        <ele>1097</ele>
        <time>2022-08-02T13:29:03Z</time>
      </trkpt>
      <trkpt lat="44.84378" lon="3.82996">
        <ele>1097</ele>
        <time>2022-08-02T13:29:06Z</time>
      </trkpt>
      <trkpt lat="44.84377" lon="3.82999">
        <ele>1097</ele>
        <time>2022-08-02T13:29:08Z</time>
      </trkpt>
      <trkpt lat="44.84373" lon="3.83024">
        <ele>1098.44</ele>
        <time>2022-08-02T13:29:25Z</time>
      </trkpt>
      <trkpt lat="44.84371" lon="3.83026">
        <ele>1099.4</ele>
        <time>2022-08-02T13:29:27Z</time>
      </trkpt>
      <trkpt lat="44.84369" lon="3.83027">
        <ele>1099.89</ele>
        <time>2022-08-02T13:29:30Z</time>
      </trkpt>
      <trkpt lat="44.8436" lon="3.83048">
        <ele>1103.25</ele>
        <time>2022-08-02T13:29:46Z</time>
      </trkpt>
      <trkpt lat="44.84352" lon="3.8306">
        <ele>1103.25</ele>
        <time>2022-08-02T13:29:59Z</time>
      </trkpt>
      <trkpt lat="44.84352" lon="3.83066">
        <ele>1103.25</ele>
        <time>2022-08-02T13:30:13Z</time>
      </trkpt>
      <trkpt lat="44.84346" lon="3.83046">
        <ele>1109.02</ele>
        <time>2022-08-02T13:34:26Z</time>
      </trkpt>
      <trkpt lat="44.84342" lon="3.83048">
        <ele>1106.13</ele>
        <time>2022-08-02T13:34:30Z</time>
      </trkpt>
      <trkpt lat="44.8434" lon="3.83049">
        <ele>1105.65</ele>
        <time>2022-08-02T13:34:32Z</time>
      </trkpt>
      <trkpt lat="44.84339" lon="3.83053">
        <ele>1105.17</ele>
        <time>2022-08-02T13:34:34Z</time>
      </trkpt>
      <trkpt lat="44.84333" lon="3.83059">
        <ele>1103.73</ele>
        <time>2022-08-02T13:34:41Z</time>
      </trkpt>
      <trkpt lat="44.84333" lon="3.83094">
        <ele>1106.61</ele>
        <time>2022-08-02T13:34:58Z</time>
      </trkpt>
      <trkpt lat="44.84332" lon="3.83099">
        <ele>1111.42</ele>
        <time>2022-08-02T13:35:24Z</time>
      </trkpt>
      <trkpt lat="44.84333" lon="3.83094">
        <ele>1113.34</ele>
        <time>2022-08-02T13:35:38Z</time>
      </trkpt>
      <trkpt lat="44.84329" lon="3.83102">
        <ele>1113.82</ele>
        <time>2022-08-02T13:35:59Z</time>
      </trkpt>
      <trkpt lat="44.8433" lon="3.83125">
        <ele>1112.86</ele>
        <time>2022-08-02T13:36:14Z</time>
      </trkpt>
      <trkpt lat="44.84332" lon="3.83145">
        <ele>1111.9</ele>
        <time>2022-08-02T13:36:26Z</time>
      </trkpt>
      <trkpt lat="44.84328" lon="3.83146">
        <ele>1109.02</ele>
        <time>2022-08-02T13:36:41Z</time>
      </trkpt>
      <trkpt lat="44.84334" lon="3.83138">
        <ele>1105.17</ele>
        <time>2022-08-02T13:37:01Z</time>
      </trkpt>
      <trkpt lat="44.84329" lon="3.83161">
        <ele>1103.25</ele>
        <time>2022-08-02T13:37:28Z</time>
      </trkpt>
      <trkpt lat="44.84335" lon="3.8315">
        <ele>1100.37</ele>
        <time>2022-08-02T13:37:45Z</time>
      </trkpt>
      <trkpt lat="44.84331" lon="3.83155">
        <ele>1102.77</ele>
        <time>2022-08-02T13:38:10Z</time>
      </trkpt>
      <trkpt lat="44.84333" lon="3.83152">
        <ele>1102.29</ele>
        <time>2022-08-02T13:38:12Z</time>
      </trkpt>
      <trkpt lat="44.84334" lon="3.83144">
        <ele>1102.77</ele>
        <time>2022-08-02T13:38:16Z</time>
      </trkpt>
      <trkpt lat="44.84335" lon="3.83118">
        <ele>1105.65</ele>
        <time>2022-08-02T13:38:33Z</time>
      </trkpt>
      <trkpt lat="44.84332" lon="3.83091">
        <ele>1104.21</ele>
        <time>2022-08-02T13:38:48Z</time>
      </trkpt>
      <trkpt lat="44.84331" lon="3.83087">
        <ele>1104.21</ele>
        <time>2022-08-02T13:38:51Z</time>
      </trkpt>
      <trkpt lat="44.8433" lon="3.83079">
        <ele>1102.77</ele>
        <time>2022-08-02T13:38:57Z</time>
      </trkpt>
      <trkpt lat="44.84327" lon="3.83067">
        <ele>1102.29</ele>
        <time>2022-08-02T13:39:05Z</time>
      </trkpt>
      <trkpt lat="44.84325" lon="3.83064">
        <ele>1102.77</ele>
        <time>2022-08-02T13:39:07Z</time>
      </trkpt>
      <trkpt lat="44.84322" lon="3.8305">
        <ele>1103.25</ele>
        <time>2022-08-02T13:39:21Z</time>
      </trkpt>
      <trkpt lat="44.84309" lon="3.83037">
        <ele>1102.29</ele>
        <time>2022-08-02T13:39:35Z</time>
      </trkpt>
      <trkpt lat="44.84306" lon="3.83035">
        <ele>1102.29</ele>
        <time>2022-08-02T13:39:37Z</time>
      </trkpt>
      <trkpt lat="44.84297" lon="3.83033">
        <ele>1101.81</ele>
        <time>2022-08-02T13:39:53Z</time>
      </trkpt>
      <trkpt lat="44.84296" lon="3.83037">
        <ele>1101.81</ele>
        <time>2022-08-02T13:39:56Z</time>
      </trkpt>
      <trkpt lat="44.84295" lon="3.8305">
        <ele>1100.85</ele>
        <time>2022-08-02T13:40:09Z</time>
      </trkpt>
      <trkpt lat="44.84291" lon="3.83033">
        <ele>1099.89</ele>
        <time>2022-08-02T13:40:25Z</time>
      </trkpt>
      <trkpt lat="44.84304" lon="3.83074">
        <ele>1105.17</ele>
        <time>2022-08-02T13:45:47Z</time>
      </trkpt>
      <trkpt lat="44.84304" lon="3.83069">
        <ele>1120.07</ele>
        <time>2022-08-02T13:46:11Z</time>
      </trkpt>
      <trkpt lat="44.84315" lon="3.83075">
        <ele>1137.86</ele>
        <time>2022-08-02T13:46:32Z</time>
      </trkpt>
      <trkpt lat="44.84303" lon="3.83072">
        <ele>1146.51</ele>
        <time>2022-08-02T13:46:53Z</time>
      </trkpt>
      <trkpt lat="44.84291" lon="3.83079">
        <ele>1156.6</ele>
        <time>2022-08-02T13:47:17Z</time>
      </trkpt>
      <trkpt lat="44.84299" lon="3.83046">
        <ele>1127.76</ele>
        <time>2022-08-02T13:47:40Z</time>
      </trkpt>
      <trkpt lat="44.84301" lon="3.83043">
        <ele>1113.82</ele>
        <time>2022-08-02T13:48:01Z</time>
      </trkpt>
      <trkpt lat="44.84292" lon="3.83033">
        <ele>1107.1</ele>
        <time>2022-08-02T13:48:23Z</time>
      </trkpt>
      <trkpt lat="44.84293" lon="3.83032">
        <ele>1108.54</ele>
        <time>2022-08-02T13:48:53Z</time>
      </trkpt>
      <trkpt lat="44.8429" lon="3.83047">
        <ele>1108.54</ele>
        <time>2022-08-02T13:49:17Z</time>
      </trkpt>
      <trkpt lat="44.84295" lon="3.83067">
        <ele>1109.98</ele>
        <time>2022-08-02T13:49:38Z</time>
      </trkpt>
      <trkpt lat="44.84303" lon="3.831">
        <ele>1109.98</ele>
        <time>2022-08-02T13:50:12Z</time>
      </trkpt>
      <trkpt lat="44.84301" lon="3.83115">
        <ele>1109.98</ele>
        <time>2022-08-02T13:50:37Z</time>
      </trkpt>
      <trkpt lat="44.84301" lon="3.83045">
        <ele>1106.61</ele>
        <time>2022-08-02T13:50:59Z</time>
      </trkpt>
      <trkpt lat="44.84296" lon="3.83035">
        <ele>1107.1</ele>
        <time>2022-08-02T13:51:30Z</time>
      </trkpt>
      <trkpt lat="44.84296" lon="3.83049">
        <ele>1104.21</ele>
        <time>2022-08-02T13:51:52Z</time>
      </trkpt>
      <trkpt lat="44.84297" lon="3.83046">
        <ele>1102.77</ele>
        <time>2022-08-02T13:52:02Z</time>
      </trkpt>
      <trkpt lat="44.84297" lon="3.83042">
        <ele>1100.85</ele>
        <time>2022-08-02T13:52:08Z</time>
      </trkpt>
      <trkpt lat="44.84307" lon="3.83031">
        <ele>1102.29</ele>
        <time>2022-08-02T13:52:24Z</time>
      </trkpt>
      <trkpt lat="44.84307" lon="3.8303">
        <ele>1103.25</ele>
        <time>2022-08-02T13:52:39Z</time>
      </trkpt>
      <trkpt lat="44.84301" lon="3.8303">
        <ele>1104.69</ele>
        <time>2022-08-02T13:53:04Z</time>
      </trkpt>
      <trkpt lat="44.843" lon="3.83024">
        <ele>1102.77</ele>
        <time>2022-08-02T13:53:39Z</time>
      </trkpt>
      <trkpt lat="44.84303" lon="3.8303">
        <ele>1104.69</ele>
        <time>2022-08-02T13:54:02Z</time>
      </trkpt>
      <trkpt lat="44.84302" lon="3.83027">
        <ele>1105.65</ele>
        <time>2022-08-02T13:54:28Z</time>
      </trkpt>
      <trkpt lat="44.84301" lon="3.83024">
        <ele>1104.21</ele>
        <time>2022-08-02T13:55:06Z</time>
      </trkpt>
      <trkpt lat="44.84302" lon="3.83028">
        <ele>1106.13</ele>
        <time>2022-08-02T13:55:36Z</time>
      </trkpt>
      <trkpt lat="44.843" lon="3.83026">
        <ele>1105.17</ele>
        <time>2022-08-02T13:55:45Z</time>
      </trkpt>
      <trkpt lat="44.84296" lon="3.83024">
        <ele>1104.69</ele>
        <time>2022-08-02T13:55:49Z</time>
      </trkpt>
      <trkpt lat="44.84292" lon="3.83017">
        <ele>1103.73</ele>
        <time>2022-08-02T13:55:56Z</time>
      </trkpt>
      <trkpt lat="44.84289" lon="3.83014">
        <ele>1103.73</ele>
        <time>2022-08-02T13:56:00Z</time>
      </trkpt>
      <trkpt lat="44.84282" lon="3.83005">
        <ele>1103.73</ele>
        <time>2022-08-02T13:56:08Z</time>
      </trkpt>
      <trkpt lat="44.84262" lon="3.82995">
        <ele>1098.44</ele>
        <time>2022-08-02T13:56:23Z</time>
      </trkpt>
      <trkpt lat="44.84248" lon="3.82993">
        <ele>1095.08</ele>
        <time>2022-08-02T13:56:35Z</time>
      </trkpt>
      <trkpt lat="44.84239" lon="3.82991">
        <ele>1097</ele>
        <time>2022-08-02T13:56:42Z</time>
      </trkpt>
      <trkpt lat="44.84236" lon="3.82991">
        <ele>1097.48</ele>
        <time>2022-08-02T13:56:45Z</time>
      </trkpt>
      <trkpt lat="44.84216" lon="3.82983">
        <ele>1099.89</ele>
        <time>2022-08-02T13:57:01Z</time>
      </trkpt>
      <trkpt lat="44.8421" lon="3.8298">
        <ele>1100.37</ele>
        <time>2022-08-02T13:57:06Z</time>
      </trkpt>
      <trkpt lat="44.84187" lon="3.82974">
        <ele>1100.37</ele>
        <time>2022-08-02T13:57:23Z</time>
      </trkpt>
      <trkpt lat="44.84168" lon="3.82978">
        <ele>1099.89</ele>
        <time>2022-08-02T13:57:38Z</time>
      </trkpt>
      <trkpt lat="44.84163" lon="3.82975">
        <ele>1099.4</ele>
        <time>2022-08-02T13:57:46Z</time>
      </trkpt>
      <trkpt lat="44.84158" lon="3.82979">
        <ele>1098.92</ele>
        <time>2022-08-02T13:57:50Z</time>
      </trkpt>
      <trkpt lat="44.8414" lon="3.82987">
        <ele>1099.89</ele>
        <time>2022-08-02T13:58:04Z</time>
      </trkpt>
      <trkpt lat="44.84124" lon="3.82999">
        <ele>1102.29</ele>
        <time>2022-08-02T13:58:19Z</time>
      </trkpt>
      <trkpt lat="44.84112" lon="3.83012">
        <ele>1102.77</ele>
        <time>2022-08-02T13:58:31Z</time>
      </trkpt>
      <trkpt lat="44.841" lon="3.83025">
        <ele>1102.29</ele>
        <time>2022-08-02T13:58:42Z</time>
      </trkpt>
      <trkpt lat="44.84085" lon="3.83039">
        <ele>1101.33</ele>
        <time>2022-08-02T13:58:57Z</time>
      </trkpt>
      <trkpt lat="44.84082" lon="3.83042">
        <ele>1101.33</ele>
        <time>2022-08-02T13:59:00Z</time>
      </trkpt>
      <trkpt lat="44.84071" lon="3.8306">
        <ele>1100.85</ele>
        <time>2022-08-02T13:59:13Z</time>
      </trkpt>
      <trkpt lat="44.84065" lon="3.83066">
        <ele>1100.85</ele>
        <time>2022-08-02T13:59:19Z</time>
      </trkpt>
      <trkpt lat="44.84063" lon="3.83068">
        <ele>1100.37</ele>
        <time>2022-08-02T13:59:21Z</time>
      </trkpt>
      <trkpt lat="44.84042" lon="3.83073">
        <ele>1099.89</ele>
        <time>2022-08-02T13:59:37Z</time>
      </trkpt>
      <trkpt lat="44.84031" lon="3.83087">
        <ele>1098.92</ele>
        <time>2022-08-02T13:59:49Z</time>
      </trkpt>
      <trkpt lat="44.84026" lon="3.83098">
        <ele>1098.92</ele>
        <time>2022-08-02T13:59:56Z</time>
      </trkpt>
      <trkpt lat="44.84015" lon="3.83126">
        <ele>1098.92</ele>
        <time>2022-08-02T14:00:13Z</time>
      </trkpt>
      <trkpt lat="44.84013" lon="3.8313">
        <ele>1098.92</ele>
        <time>2022-08-02T14:00:16Z</time>
      </trkpt>
      <trkpt lat="44.8401" lon="3.83138">
        <ele>1098.92</ele>
        <time>2022-08-02T14:00:21Z</time>
      </trkpt>
      <trkpt lat="44.83996" lon="3.83156">
        <ele>1096.52</ele>
        <time>2022-08-02T14:00:37Z</time>
      </trkpt>
      <trkpt lat="44.83995" lon="3.83158">
        <ele>1096.04</ele>
        <time>2022-08-02T14:00:50Z</time>
      </trkpt>
      <trkpt lat="44.83997" lon="3.83163">
        <ele>1097.96</ele>
        <time>2022-08-02T14:01:23Z</time>
      </trkpt>
      <trkpt lat="44.83996" lon="3.83162">
        <ele>1097.48</ele>
        <time>2022-08-02T14:01:50Z</time>
      </trkpt>
      <trkpt lat="44.83993" lon="3.83161">
        <ele>1098.92</ele>
        <time>2022-08-02T14:01:58Z</time>
      </trkpt>
      <trkpt lat="44.83989" lon="3.83164">
        <ele>1098.44</ele>
        <time>2022-08-02T14:02:02Z</time>
      </trkpt>
      <trkpt lat="44.83985" lon="3.83173">
        <ele>1098.92</ele>
        <time>2022-08-02T14:02:16Z</time>
      </trkpt>
      <trkpt lat="44.83984" lon="3.83173">
        <ele>1096.04</ele>
        <time>2022-08-02T14:02:37Z</time>
      </trkpt>
      <trkpt lat="44.83965" lon="3.83193">
        <ele>1095.08</ele>
        <time>2022-08-02T14:02:55Z</time>
      </trkpt>
      <trkpt lat="44.83954" lon="3.83212">
        <ele>1095.56</ele>
        <time>2022-08-02T14:03:09Z</time>
      </trkpt>
      <trkpt lat="44.83939" lon="3.83228">
        <ele>1098.44</ele>
        <time>2022-08-02T14:03:24Z</time>
      </trkpt>
      <trkpt lat="44.83931" lon="3.83237">
        <ele>1099.4</ele>
        <time>2022-08-02T14:03:32Z</time>
      </trkpt>
      <trkpt lat="44.83925" lon="3.83242">
        <ele>1100.37</ele>
        <time>2022-08-02T14:03:38Z</time>
      </trkpt>
      <trkpt lat="44.83914" lon="3.83253">
        <ele>1102.29</ele>
        <time>2022-08-02T14:03:49Z</time>
      </trkpt>
      <trkpt lat="44.83908" lon="3.83257">
        <ele>1102.29</ele>
        <time>2022-08-02T14:03:54Z</time>
      </trkpt>
      <trkpt lat="44.83892" lon="3.83264">
        <ele>1103.25</ele>
        <time>2022-08-02T14:04:08Z</time>
      </trkpt>
      <trkpt lat="44.83872" lon="3.83276">
        <ele>1103.73</ele>
        <time>2022-08-02T14:04:25Z</time>
      </trkpt>
      <trkpt lat="44.83855" lon="3.83281">
        <ele>1101.81</ele>
        <time>2022-08-02T14:04:38Z</time>
      </trkpt>
      <trkpt lat="44.83835" lon="3.8328">
        <ele>1099.89</ele>
        <time>2022-08-02T14:04:54Z</time>
      </trkpt>
      <trkpt lat="44.83818" lon="3.8328">
        <ele>1099.89</ele>
        <time>2022-08-02T14:05:07Z</time>
      </trkpt>
      <trkpt lat="44.83792" lon="3.83278">
        <ele>1101.33</ele>
        <time>2022-08-02T14:05:26Z</time>
      </trkpt>
      <trkpt lat="44.83774" lon="3.83278">
        <ele>1101.33</ele>
        <time>2022-08-02T14:05:40Z</time>
      </trkpt>
      <trkpt lat="44.83758" lon="3.83281">
        <ele>1102.29</ele>
        <time>2022-08-02T14:05:53Z</time>
      </trkpt>
      <trkpt lat="44.83739" lon="3.83285">
        <ele>1103.73</ele>
        <time>2022-08-02T14:06:08Z</time>
      </trkpt>
      <trkpt lat="44.83723" lon="3.83289">
        <ele>1103.25</ele>
        <time>2022-08-02T14:06:22Z</time>
      </trkpt>
      <trkpt lat="44.83704" lon="3.83289">
        <ele>1103.25</ele>
        <time>2022-08-02T14:06:37Z</time>
      </trkpt>
      <trkpt lat="44.83692" lon="3.83292">
        <ele>1103.73</ele>
        <time>2022-08-02T14:06:48Z</time>
      </trkpt>
      <trkpt lat="44.83673" lon="3.83294">
        <ele>1104.21</ele>
        <time>2022-08-02T14:07:03Z</time>
      </trkpt>
      <trkpt lat="44.83652" lon="3.83298">
        <ele>1105.65</ele>
        <time>2022-08-02T14:07:20Z</time>
      </trkpt>
      <trkpt lat="44.83633" lon="3.83298">
        <ele>1106.13</ele>
        <time>2022-08-02T14:07:36Z</time>
      </trkpt>
      <trkpt lat="44.83613" lon="3.83299">
        <ele>1105.65</ele>
        <time>2022-08-02T14:07:52Z</time>
      </trkpt>
      <trkpt lat="44.83593" lon="3.83301">
        <ele>1106.13</ele>
        <time>2022-08-02T14:08:09Z</time>
      </trkpt>
      <trkpt lat="44.83573" lon="3.83301">
        <ele>1106.61</ele>
        <time>2022-08-02T14:08:25Z</time>
      </trkpt>
      <trkpt lat="44.83555" lon="3.83302">
        <ele>1106.61</ele>
        <time>2022-08-02T14:08:40Z</time>
      </trkpt>
      <trkpt lat="44.83536" lon="3.83304">
        <ele>1106.61</ele>
        <time>2022-08-02T14:08:56Z</time>
      </trkpt>
      <trkpt lat="44.83517" lon="3.83308">
        <ele>1108.54</ele>
        <time>2022-08-02T14:09:11Z</time>
      </trkpt>
      <trkpt lat="44.835" lon="3.83316">
        <ele>1109.5</ele>
        <time>2022-08-02T14:09:26Z</time>
      </trkpt>
      <trkpt lat="44.83484" lon="3.83305">
        <ele>1110.94</ele>
        <time>2022-08-02T14:09:42Z</time>
      </trkpt>
      <trkpt lat="44.83472" lon="3.83288">
        <ele>1112.38</ele>
        <time>2022-08-02T14:09:56Z</time>
      </trkpt>
      <trkpt lat="44.83456" lon="3.8327">
        <ele>1111.9</ele>
        <time>2022-08-02T14:10:12Z</time>
      </trkpt>
      <trkpt lat="44.83441" lon="3.83247">
        <ele>1111.42</ele>
        <time>2022-08-02T14:10:29Z</time>
      </trkpt>
      <trkpt lat="44.83432" lon="3.83236">
        <ele>1112.38</ele>
        <time>2022-08-02T14:10:39Z</time>
      </trkpt>
      <trkpt lat="44.83424" lon="3.83232">
        <ele>1113.34</ele>
        <time>2022-08-02T14:10:46Z</time>
      </trkpt>
      <trkpt lat="44.83409" lon="3.83211">
        <ele>1114.31</ele>
        <time>2022-08-02T14:11:03Z</time>
      </trkpt>
      <trkpt lat="44.83395" lon="3.83194">
        <ele>1114.31</ele>
        <time>2022-08-02T14:11:18Z</time>
      </trkpt>
      <trkpt lat="44.83378" lon="3.83177">
        <ele>1116.23</ele>
        <time>2022-08-02T14:11:34Z</time>
      </trkpt>
      <trkpt lat="44.8336" lon="3.83161">
        <ele>1116.71</ele>
        <time>2022-08-02T14:11:51Z</time>
      </trkpt>
      <trkpt lat="44.83346" lon="3.83146">
        <ele>1118.15</ele>
        <time>2022-08-02T14:12:06Z</time>
      </trkpt>
      <trkpt lat="44.83327" lon="3.83125">
        <ele>1118.63</ele>
        <time>2022-08-02T14:12:25Z</time>
      </trkpt>
      <trkpt lat="44.83312" lon="3.83109">
        <ele>1119.59</ele>
        <time>2022-08-02T14:12:40Z</time>
      </trkpt>
      <trkpt lat="44.83296" lon="3.83093">
        <ele>1122</ele>
        <time>2022-08-02T14:12:56Z</time>
      </trkpt>
      <trkpt lat="44.83278" lon="3.83081">
        <ele>1124.88</ele>
        <time>2022-08-02T14:13:14Z</time>
      </trkpt>
      <trkpt lat="44.8326" lon="3.83066">
        <ele>1126.8</ele>
        <time>2022-08-02T14:13:31Z</time>
      </trkpt>
      <trkpt lat="44.83244" lon="3.83052">
        <ele>1127.28</ele>
        <time>2022-08-02T14:13:46Z</time>
      </trkpt>
      <trkpt lat="44.83229" lon="3.83035">
        <ele>1126.8</ele>
        <time>2022-08-02T14:14:01Z</time>
      </trkpt>
      <trkpt lat="44.83215" lon="3.83019">
        <ele>1126.32</ele>
        <time>2022-08-02T14:14:15Z</time>
      </trkpt>
      <trkpt lat="44.832" lon="3.83003">
        <ele>1124.4</ele>
        <time>2022-08-02T14:14:31Z</time>
      </trkpt>
      <trkpt lat="44.83194" lon="3.82996">
        <ele>1123.92</ele>
        <time>2022-08-02T14:14:37Z</time>
      </trkpt>
      <trkpt lat="44.83181" lon="3.82972">
        <ele>1126.32</ele>
        <time>2022-08-02T14:14:53Z</time>
      </trkpt>
      <trkpt lat="44.83167" lon="3.82955">
        <ele>1126.32</ele>
        <time>2022-08-02T14:15:08Z</time>
      </trkpt>
      <trkpt lat="44.83149" lon="3.82937">
        <ele>1126.32</ele>
        <time>2022-08-02T14:15:24Z</time>
      </trkpt>
      <trkpt lat="44.83134" lon="3.82911">
        <ele>1122.96</ele>
        <time>2022-08-02T14:15:42Z</time>
      </trkpt>
      <trkpt lat="44.83121" lon="3.82888">
        <ele>1120.55</ele>
        <time>2022-08-02T14:15:58Z</time>
      </trkpt>
      <trkpt lat="44.83111" lon="3.82868">
        <ele>1118.63</ele>
        <time>2022-08-02T14:16:12Z</time>
      </trkpt>
      <trkpt lat="44.83109" lon="3.82865">
        <ele>1118.63</ele>
        <time>2022-08-02T14:16:14Z</time>
      </trkpt>
      <trkpt lat="44.83108" lon="3.82857">
        <ele>1118.15</ele>
        <time>2022-08-02T14:16:19Z</time>
      </trkpt>
      <trkpt lat="44.83098" lon="3.82828">
        <ele>1117.19</ele>
        <time>2022-08-02T14:16:37Z</time>
      </trkpt>
      <trkpt lat="44.83088" lon="3.82804">
        <ele>1115.75</ele>
        <time>2022-08-02T14:16:52Z</time>
      </trkpt>
      <trkpt lat="44.8308" lon="3.82779">
        <ele>1114.79</ele>
        <time>2022-08-02T14:17:07Z</time>
      </trkpt>
      <trkpt lat="44.8307" lon="3.82751">
        <ele>1114.31</ele>
        <time>2022-08-02T14:17:24Z</time>
      </trkpt>
      <trkpt lat="44.83068" lon="3.82749">
        <ele>1113.82</ele>
        <time>2022-08-02T14:17:26Z</time>
      </trkpt>
      <trkpt lat="44.83053" lon="3.82756">
        <ele>1111.42</ele>
        <time>2022-08-02T14:17:38Z</time>
      </trkpt>
      <trkpt lat="44.83041" lon="3.82761">
        <ele>1109.5</ele>
        <time>2022-08-02T14:17:48Z</time>
      </trkpt>
      <trkpt lat="44.83038" lon="3.82754">
        <ele>1109.98</ele>
        <time>2022-08-02T14:17:54Z</time>
      </trkpt>
      <trkpt lat="44.83036" lon="3.82747">
        <ele>1111.42</ele>
        <time>2022-08-02T14:18:09Z</time>
      </trkpt>
      <trkpt lat="44.8304" lon="3.82743">
        <ele>1112.38</ele>
        <time>2022-08-02T14:18:13Z</time>
      </trkpt>
      <trkpt lat="44.8304" lon="3.82711">
        <ele>1114.31</ele>
        <time>2022-08-02T14:18:32Z</time>
      </trkpt>
      <trkpt lat="44.83037" lon="3.82687">
        <ele>1115.27</ele>
        <time>2022-08-02T14:18:46Z</time>
      </trkpt>
      <trkpt lat="44.83037" lon="3.8266">
        <ele>1117.67</ele>
        <time>2022-08-02T14:19:02Z</time>
      </trkpt>
      <trkpt lat="44.83034" lon="3.82637">
        <ele>1118.15</ele>
        <time>2022-08-02T14:19:15Z</time>
      </trkpt>
      <trkpt lat="44.83032" lon="3.82605">
        <ele>1120.55</ele>
        <time>2022-08-02T14:19:33Z</time>
      </trkpt>
      <trkpt lat="44.83023" lon="3.82577">
        <ele>1121.03</ele>
        <time>2022-08-02T14:19:50Z</time>
      </trkpt>
      <trkpt lat="44.83016" lon="3.82549">
        <ele>1122.48</ele>
        <time>2022-08-02T14:20:06Z</time>
      </trkpt>
      <trkpt lat="44.83009" lon="3.82522">
        <ele>1123.92</ele>
        <time>2022-08-02T14:20:23Z</time>
      </trkpt>
      <trkpt lat="44.82998" lon="3.82498">
        <ele>1125.36</ele>
        <time>2022-08-02T14:20:39Z</time>
      </trkpt>
      <trkpt lat="44.82985" lon="3.82476">
        <ele>1124.88</ele>
        <time>2022-08-02T14:20:54Z</time>
      </trkpt>
      <trkpt lat="44.82972" lon="3.82455">
        <ele>1124.88</ele>
        <time>2022-08-02T14:21:10Z</time>
      </trkpt>
      <trkpt lat="44.82959" lon="3.82434">
        <ele>1124.4</ele>
        <time>2022-08-02T14:21:25Z</time>
      </trkpt>
      <trkpt lat="44.82954" lon="3.82426">
        <ele>1124.88</ele>
        <time>2022-08-02T14:21:31Z</time>
      </trkpt>
      <trkpt lat="44.8294" lon="3.82407">
        <ele>1125.36</ele>
        <time>2022-08-02T14:21:46Z</time>
      </trkpt>
      <trkpt lat="44.82933" lon="3.82395">
        <ele>1124.88</ele>
        <time>2022-08-02T14:21:55Z</time>
      </trkpt>
      <trkpt lat="44.82917" lon="3.82375">
        <ele>1125.36</ele>
        <time>2022-08-02T14:22:11Z</time>
      </trkpt>
      <trkpt lat="44.82903" lon="3.82364">
        <ele>1124.4</ele>
        <time>2022-08-02T14:22:24Z</time>
      </trkpt>
      <trkpt lat="44.82883" lon="3.82351">
        <ele>1123.44</ele>
        <time>2022-08-02T14:22:41Z</time>
      </trkpt>
      <trkpt lat="44.82861" lon="3.82342">
        <ele>1120.07</ele>
        <time>2022-08-02T14:22:58Z</time>
      </trkpt>
      <trkpt lat="44.82839" lon="3.82335">
        <ele>1117.19</ele>
        <time>2022-08-02T14:23:14Z</time>
      </trkpt>
      <trkpt lat="44.82821" lon="3.82327">
        <ele>1115.75</ele>
        <time>2022-08-02T14:23:29Z</time>
      </trkpt>
      <trkpt lat="44.8281" lon="3.82321">
        <ele>1114.79</ele>
        <time>2022-08-02T14:23:38Z</time>
      </trkpt>
      <trkpt lat="44.828" lon="3.82316">
        <ele>1114.31</ele>
        <time>2022-08-02T14:23:54Z</time>
      </trkpt>
      <trkpt lat="44.82799" lon="3.82315">
        <ele>1113.34</ele>
        <time>2022-08-02T14:24:17Z</time>
      </trkpt>
      <trkpt lat="44.82799" lon="3.82314">
        <ele>1115.27</ele>
        <time>2022-08-02T14:24:42Z</time>
      </trkpt>
      <trkpt lat="44.82799" lon="3.82315">
        <ele>1113.82</ele>
        <time>2022-08-02T14:25:11Z</time>
      </trkpt>
      <trkpt lat="44.82795" lon="3.82313">
        <ele>1112.86</ele>
        <time>2022-08-02T14:25:31Z</time>
      </trkpt>
      <trkpt lat="44.82778" lon="3.82305">
        <ele>1113.34</ele>
        <time>2022-08-02T14:25:47Z</time>
      </trkpt>
      <trkpt lat="44.82764" lon="3.82287">
        <ele>1113.82</ele>
        <time>2022-08-02T14:26:02Z</time>
      </trkpt>
      <trkpt lat="44.82745" lon="3.82269">
        <ele>1113.34</ele>
        <time>2022-08-02T14:26:19Z</time>
      </trkpt>
      <trkpt lat="44.82726" lon="3.8225">
        <ele>1112.86</ele>
        <time>2022-08-02T14:26:36Z</time>
      </trkpt>
      <trkpt lat="44.82709" lon="3.8223">
        <ele>1111.42</ele>
        <time>2022-08-02T14:26:53Z</time>
      </trkpt>
      <trkpt lat="44.82696" lon="3.82202">
        <ele>1108.06</ele>
        <time>2022-08-02T14:27:10Z</time>
      </trkpt>
      <trkpt lat="44.82682" lon="3.82177">
        <ele>1105.17</ele>
        <time>2022-08-02T14:27:27Z</time>
      </trkpt>
      <trkpt lat="44.82666" lon="3.82154">
        <ele>1103.73</ele>
        <time>2022-08-02T14:27:44Z</time>
      </trkpt>
      <trkpt lat="44.82646" lon="3.82127">
        <ele>1100.85</ele>
        <time>2022-08-02T14:28:04Z</time>
      </trkpt>
      <trkpt lat="44.82629" lon="3.82104">
        <ele>1100.37</ele>
        <time>2022-08-02T14:28:21Z</time>
      </trkpt>
      <trkpt lat="44.82611" lon="3.82078">
        <ele>1098.44</ele>
        <time>2022-08-02T14:28:40Z</time>
      </trkpt>
      <trkpt lat="44.82592" lon="3.82047">
        <ele>1097</ele>
        <time>2022-08-02T14:29:01Z</time>
      </trkpt>
      <trkpt lat="44.82572" lon="3.8202">
        <ele>1096.04</ele>
        <time>2022-08-02T14:29:21Z</time>
      </trkpt>
      <trkpt lat="44.82553" lon="3.82002">
        <ele>1094.6</ele>
        <time>2022-08-02T14:29:38Z</time>
      </trkpt>
      <trkpt lat="44.82532" lon="3.81983">
        <ele>1093.16</ele>
        <time>2022-08-02T14:29:56Z</time>
      </trkpt>
      <trkpt lat="44.82512" lon="3.81965">
        <ele>1092.2</ele>
        <time>2022-08-02T14:30:13Z</time>
      </trkpt>
      <trkpt lat="44.82492" lon="3.8195">
        <ele>1091.23</ele>
        <time>2022-08-02T14:30:29Z</time>
      </trkpt>
      <trkpt lat="44.82471" lon="3.81936">
        <ele>1089.31</ele>
        <time>2022-08-02T14:30:46Z</time>
      </trkpt>
      <trkpt lat="44.82452" lon="3.8192">
        <ele>1088.35</ele>
        <time>2022-08-02T14:31:03Z</time>
      </trkpt>
      <trkpt lat="44.82434" lon="3.81901">
        <ele>1086.43</ele>
        <time>2022-08-02T14:31:20Z</time>
      </trkpt>
      <trkpt lat="44.82417" lon="3.81883">
        <ele>1084.99</ele>
        <time>2022-08-02T14:31:36Z</time>
      </trkpt>
      <trkpt lat="44.82397" lon="3.81864">
        <ele>1083.06</ele>
        <time>2022-08-02T14:31:53Z</time>
      </trkpt>
      <trkpt lat="44.82374" lon="3.81842">
        <ele>1081.62</ele>
        <time>2022-08-02T14:32:12Z</time>
      </trkpt>
      <trkpt lat="44.82354" lon="3.81822">
        <ele>1080.18</ele>
        <time>2022-08-02T14:32:29Z</time>
      </trkpt>
      <trkpt lat="44.82334" lon="3.81801">
        <ele>1078.74</ele>
        <time>2022-08-02T14:32:47Z</time>
      </trkpt>
      <trkpt lat="44.82317" lon="3.81776">
        <ele>1076.81</ele>
        <time>2022-08-02T14:33:04Z</time>
      </trkpt>
      <trkpt lat="44.823" lon="3.81744">
        <ele>1075.37</ele>
        <time>2022-08-02T14:33:24Z</time>
      </trkpt>
      <trkpt lat="44.82286" lon="3.81717">
        <ele>1074.41</ele>
        <time>2022-08-02T14:33:41Z</time>
      </trkpt>
      <trkpt lat="44.82271" lon="3.8169">
        <ele>1072.49</ele>
        <time>2022-08-02T14:33:58Z</time>
      </trkpt>
      <trkpt lat="44.82258" lon="3.81658">
        <ele>1070.08</ele>
        <time>2022-08-02T14:34:16Z</time>
      </trkpt>
      <trkpt lat="44.82245" lon="3.81623">
        <ele>1070.08</ele>
        <time>2022-08-02T14:34:36Z</time>
      </trkpt>
      <trkpt lat="44.82235" lon="3.81596">
        <ele>1070.57</ele>
        <time>2022-08-02T14:34:52Z</time>
      </trkpt>
      <trkpt lat="44.82234" lon="3.81593">
        <ele>1070.57</ele>
        <time>2022-08-02T14:34:54Z</time>
      </trkpt>
      <trkpt lat="44.82223" lon="3.81566">
        <ele>1069.6</ele>
        <time>2022-08-02T14:35:10Z</time>
      </trkpt>
      <trkpt lat="44.82212" lon="3.81532">
        <ele>1068.16</ele>
        <time>2022-08-02T14:35:29Z</time>
      </trkpt>
      <trkpt lat="44.82206" lon="3.81496">
        <ele>1067.2</ele>
        <time>2022-08-02T14:35:47Z</time>
      </trkpt>
      <trkpt lat="44.82199" lon="3.81464">
        <ele>1066.24</ele>
        <time>2022-08-02T14:36:04Z</time>
      </trkpt>
      <trkpt lat="44.82193" lon="3.8143">
        <ele>1064.32</ele>
        <time>2022-08-02T14:36:22Z</time>
      </trkpt>
      <trkpt lat="44.82186" lon="3.81398">
        <ele>1063.84</ele>
        <time>2022-08-02T14:36:40Z</time>
      </trkpt>
      <trkpt lat="44.82173" lon="3.81373">
        <ele>1061.91</ele>
        <time>2022-08-02T14:36:56Z</time>
      </trkpt>
      <trkpt lat="44.82163" lon="3.81355">
        <ele>1061.91</ele>
        <time>2022-08-02T14:37:08Z</time>
      </trkpt>
      <trkpt lat="44.82156" lon="3.81328">
        <ele>1059.99</ele>
        <time>2022-08-02T14:37:24Z</time>
      </trkpt>
      <trkpt lat="44.82153" lon="3.81299">
        <ele>1058.55</ele>
        <time>2022-08-02T14:37:39Z</time>
      </trkpt>
      <trkpt lat="44.82146" lon="3.81272">
        <ele>1055.67</ele>
        <time>2022-08-02T14:37:54Z</time>
      </trkpt>
      <trkpt lat="44.82137" lon="3.81247">
        <ele>1052.78</ele>
        <time>2022-08-02T14:38:09Z</time>
      </trkpt>
      <trkpt lat="44.82124" lon="3.81214">
        <ele>1049.9</ele>
        <time>2022-08-02T14:38:29Z</time>
      </trkpt>
      <trkpt lat="44.82111" lon="3.81194">
        <ele>1049.9</ele>
        <time>2022-08-02T14:38:44Z</time>
      </trkpt>
      <trkpt lat="44.82091" lon="3.81203">
        <ele>1050.86</ele>
        <time>2022-08-02T14:38:59Z</time>
      </trkpt>
      <trkpt lat="44.82073" lon="3.81207">
        <ele>1051.34</ele>
        <time>2022-08-02T14:39:14Z</time>
      </trkpt>
      <trkpt lat="44.82067" lon="3.81207">
        <ele>1050.86</ele>
        <time>2022-08-02T14:39:19Z</time>
      </trkpt>
      <trkpt lat="44.82044" lon="3.81206">
        <ele>1048.94</ele>
        <time>2022-08-02T14:39:36Z</time>
      </trkpt>
      <trkpt lat="44.82034" lon="3.81202">
        <ele>1047.49</ele>
        <time>2022-08-02T14:39:45Z</time>
      </trkpt>
      <trkpt lat="44.82014" lon="3.81185">
        <ele>1047.97</ele>
        <time>2022-08-02T14:40:04Z</time>
      </trkpt>
      <trkpt lat="44.82" lon="3.81172">
        <ele>1050.38</ele>
        <time>2022-08-02T14:40:18Z</time>
      </trkpt>
      <trkpt lat="44.81988" lon="3.81159">
        <ele>1052.78</ele>
        <time>2022-08-02T14:40:30Z</time>
      </trkpt>
      <trkpt lat="44.81978" lon="3.8115">
        <ele>1054.22</ele>
        <time>2022-08-02T14:40:39Z</time>
      </trkpt>
      <trkpt lat="44.81973" lon="3.81145">
        <ele>1054.22</ele>
        <time>2022-08-02T14:40:44Z</time>
      </trkpt>
      <trkpt lat="44.81955" lon="3.8113">
        <ele>1056.15</ele>
        <time>2022-08-02T14:40:59Z</time>
      </trkpt>
      <trkpt lat="44.81935" lon="3.81122">
        <ele>1054.7</ele>
        <time>2022-08-02T14:41:13Z</time>
      </trkpt>
      <trkpt lat="44.81932" lon="3.81124">
        <ele>1054.7</ele>
        <time>2022-08-02T14:41:15Z</time>
      </trkpt>
      <trkpt lat="44.81921" lon="3.81127">
        <ele>1054.22</ele>
        <time>2022-08-02T14:41:23Z</time>
      </trkpt>
      <trkpt lat="44.81901" lon="3.81138">
        <ele>1051.82</ele>
        <time>2022-08-02T14:41:38Z</time>
      </trkpt>
      <trkpt lat="44.81893" lon="3.81141">
        <ele>1051.34</ele>
        <time>2022-08-02T14:41:44Z</time>
      </trkpt>
      <trkpt lat="44.81885" lon="3.81145">
        <ele>1050.86</ele>
        <time>2022-08-02T14:41:50Z</time>
      </trkpt>
      <trkpt lat="44.81866" lon="3.81159">
        <ele>1051.34</ele>
        <time>2022-08-02T14:42:05Z</time>
      </trkpt>
      <trkpt lat="44.81847" lon="3.81172">
        <ele>1050.86</ele>
        <time>2022-08-02T14:42:21Z</time>
      </trkpt>
      <trkpt lat="44.81829" lon="3.81184">
        <ele>1049.42</ele>
        <time>2022-08-02T14:42:35Z</time>
      </trkpt>
      <trkpt lat="44.81824" lon="3.81186">
        <ele>1048.45</ele>
        <time>2022-08-02T14:42:39Z</time>
      </trkpt>
      <trkpt lat="44.81822" lon="3.8119">
        <ele>1048.45</ele>
        <time>2022-08-02T14:42:42Z</time>
      </trkpt>
      <trkpt lat="44.81821" lon="3.81198">
        <ele>1047.97</ele>
        <time>2022-08-02T14:42:46Z</time>
      </trkpt>
      <trkpt lat="44.81834" lon="3.81231">
        <ele>1044.61</ele>
        <time>2022-08-02T14:43:03Z</time>
      </trkpt>
      <trkpt lat="44.81847" lon="3.8125">
        <ele>1041.73</ele>
        <time>2022-08-02T14:43:18Z</time>
      </trkpt>
      <trkpt lat="44.8186" lon="3.81278">
        <ele>1038.84</ele>
        <time>2022-08-02T14:43:35Z</time>
      </trkpt>
      <trkpt lat="44.81865" lon="3.81298">
        <ele>1038.36</ele>
        <time>2022-08-02T14:43:47Z</time>
      </trkpt>
      <trkpt lat="44.81874" lon="3.81323">
        <ele>1039.8</ele>
        <time>2022-08-02T14:44:02Z</time>
      </trkpt>
      <trkpt lat="44.81883" lon="3.8135">
        <ele>1038.36</ele>
        <time>2022-08-02T14:44:18Z</time>
      </trkpt>
      <trkpt lat="44.81887" lon="3.81377">
        <ele>1035.96</ele>
        <time>2022-08-02T14:44:33Z</time>
      </trkpt>
      <trkpt lat="44.8189" lon="3.81388">
        <ele>1035</ele>
        <time>2022-08-02T14:44:40Z</time>
      </trkpt>
      <trkpt lat="44.81894" lon="3.81409">
        <ele>1033.07</ele>
        <time>2022-08-02T14:44:52Z</time>
      </trkpt>
      <trkpt lat="44.81895" lon="3.81417">
        <ele>1033.55</ele>
        <time>2022-08-02T14:44:57Z</time>
      </trkpt>
      <trkpt lat="44.81891" lon="3.81439">
        <ele>1035</ele>
        <time>2022-08-02T14:45:10Z</time>
      </trkpt>
      <trkpt lat="44.8189" lon="3.81446">
        <ele>1035</ele>
        <time>2022-08-02T14:45:16Z</time>
      </trkpt>
      <trkpt lat="44.81879" lon="3.81469">
        <ele>1032.59</ele>
        <time>2022-08-02T14:45:30Z</time>
      </trkpt>
      <trkpt lat="44.81872" lon="3.81482">
        <ele>1032.11</ele>
        <time>2022-08-02T14:45:39Z</time>
      </trkpt>
      <trkpt lat="44.81867" lon="3.81491">
        <ele>1031.63</ele>
        <time>2022-08-02T14:45:44Z</time>
      </trkpt>
      <trkpt lat="44.81855" lon="3.81514">
        <ele>1029.23</ele>
        <time>2022-08-02T14:45:59Z</time>
      </trkpt>
      <trkpt lat="44.81849" lon="3.81524">
        <ele>1028.75</ele>
        <time>2022-08-02T14:46:07Z</time>
      </trkpt>
      <trkpt lat="44.81839" lon="3.81543">
        <ele>1029.23</ele>
        <time>2022-08-02T14:46:22Z</time>
      </trkpt>
      <trkpt lat="44.81837" lon="3.81547">
        <ele>1031.63</ele>
        <time>2022-08-02T14:46:25Z</time>
      </trkpt>
      <trkpt lat="44.81825" lon="3.81565">
        <ele>1033.07</ele>
        <time>2022-08-02T14:46:38Z</time>
      </trkpt>
      <trkpt lat="44.81822" lon="3.81568">
        <ele>1032.11</ele>
        <time>2022-08-02T14:46:41Z</time>
      </trkpt>
      <trkpt lat="44.81819" lon="3.81568">
        <ele>1031.63</ele>
        <time>2022-08-02T14:46:44Z</time>
      </trkpt>
      <trkpt lat="44.81803" lon="3.8156">
        <ele>1031.15</ele>
        <time>2022-08-02T14:47:01Z</time>
      </trkpt>
      <trkpt lat="44.81791" lon="3.81552">
        <ele>1032.11</ele>
        <time>2022-08-02T14:47:15Z</time>
      </trkpt>
      <trkpt lat="44.81779" lon="3.81534">
        <ele>1036.44</ele>
        <time>2022-08-02T14:47:32Z</time>
      </trkpt>
      <trkpt lat="44.81768" lon="3.81523">
        <ele>1040.28</ele>
        <time>2022-08-02T14:47:46Z</time>
      </trkpt>
      <trkpt lat="44.81754" lon="3.81517">
        <ele>1038.36</ele>
        <time>2022-08-02T14:47:59Z</time>
      </trkpt>
      <trkpt lat="44.81742" lon="3.81507">
        <ele>1035.96</ele>
        <time>2022-08-02T14:48:12Z</time>
      </trkpt>
      <trkpt lat="44.81737" lon="3.81503">
        <ele>1035.96</ele>
        <time>2022-08-02T14:48:17Z</time>
      </trkpt>
      <trkpt lat="44.81719" lon="3.81487">
        <ele>1037.88</ele>
        <time>2022-08-02T14:48:35Z</time>
      </trkpt>
      <trkpt lat="44.81707" lon="3.81475">
        <ele>1039.8</ele>
        <time>2022-08-02T14:48:47Z</time>
      </trkpt>
      <trkpt lat="44.81702" lon="3.81469">
        <ele>1038.84</ele>
        <time>2022-08-02T14:48:53Z</time>
      </trkpt>
      <trkpt lat="44.81699" lon="3.81469">
        <ele>1038.36</ele>
        <time>2022-08-02T14:48:55Z</time>
      </trkpt>
      <trkpt lat="44.81682" lon="3.81461">
        <ele>1040.76</ele>
        <time>2022-08-02T14:49:11Z</time>
      </trkpt>
      <trkpt lat="44.81676" lon="3.81459">
        <ele>1041.25</ele>
        <time>2022-08-02T14:49:18Z</time>
      </trkpt>
      <trkpt lat="44.81661" lon="3.8144">
        <ele>1044.61</ele>
        <time>2022-08-02T14:49:35Z</time>
      </trkpt>
      <trkpt lat="44.81645" lon="3.81432">
        <ele>1047.97</ele>
        <time>2022-08-02T14:49:48Z</time>
      </trkpt>
      <trkpt lat="44.81626" lon="3.81431">
        <ele>1047.97</ele>
        <time>2022-08-02T14:50:02Z</time>
      </trkpt>
      <trkpt lat="44.81611" lon="3.81436">
        <ele>1047.97</ele>
        <time>2022-08-02T14:50:12Z</time>
      </trkpt>
      <trkpt lat="44.81586" lon="3.81441">
        <ele>1047.49</ele>
        <time>2022-08-02T14:50:30Z</time>
      </trkpt>
      <trkpt lat="44.81567" lon="3.81446">
        <ele>1046.53</ele>
        <time>2022-08-02T14:50:45Z</time>
      </trkpt>
      <trkpt lat="44.81548" lon="3.81446">
        <ele>1044.61</ele>
        <time>2022-08-02T14:51:01Z</time>
      </trkpt>
      <trkpt lat="44.81528" lon="3.81444">
        <ele>1044.13</ele>
        <time>2022-08-02T14:51:18Z</time>
      </trkpt>
      <trkpt lat="44.81509" lon="3.81445">
        <ele>1044.13</ele>
        <time>2022-08-02T14:51:32Z</time>
      </trkpt>
      <trkpt lat="44.81498" lon="3.81447">
        <ele>1045.09</ele>
        <time>2022-08-02T14:51:43Z</time>
      </trkpt>
      <trkpt lat="44.81479" lon="3.81457">
        <ele>1044.61</ele>
        <time>2022-08-02T14:51:59Z</time>
      </trkpt>
      <trkpt lat="44.81462" lon="3.81467">
        <ele>1044.61</ele>
        <time>2022-08-02T14:52:13Z</time>
      </trkpt>
      <trkpt lat="44.81445" lon="3.81474">
        <ele>1045.09</ele>
        <time>2022-08-02T14:52:28Z</time>
      </trkpt>
      <trkpt lat="44.81442" lon="3.81474">
        <ele>1045.09</ele>
        <time>2022-08-02T14:52:30Z</time>
      </trkpt>
      <trkpt lat="44.81424" lon="3.81471">
        <ele>1044.13</ele>
        <time>2022-08-02T14:52:45Z</time>
      </trkpt>
      <trkpt lat="44.81414" lon="3.81475">
        <ele>1043.65</ele>
        <time>2022-08-02T14:52:53Z</time>
      </trkpt>
      <trkpt lat="44.81413" lon="3.81478">
        <ele>1043.65</ele>
        <time>2022-08-02T14:52:55Z</time>
      </trkpt>
      <trkpt lat="44.81409" lon="3.81484">
        <ele>1043.17</ele>
        <time>2022-08-02T14:53:00Z</time>
      </trkpt>
      <trkpt lat="44.81395" lon="3.81503">
        <ele>1043.17</ele>
        <time>2022-08-02T14:53:16Z</time>
      </trkpt>
      <trkpt lat="44.81381" lon="3.81524">
        <ele>1044.13</ele>
        <time>2022-08-02T14:53:32Z</time>
      </trkpt>
      <trkpt lat="44.81367" lon="3.81543">
        <ele>1044.13</ele>
        <time>2022-08-02T14:53:47Z</time>
      </trkpt>
      <trkpt lat="44.81366" lon="3.81544">
        <ele>1044.13</ele>
        <time>2022-08-02T14:53:48Z</time>
      </trkpt>
      <trkpt lat="44.81356" lon="3.81559">
        <ele>1043.17</ele>
        <time>2022-08-02T14:54:04Z</time>
      </trkpt>
      <trkpt lat="44.81355" lon="3.8156">
        <ele>1042.21</ele>
        <time>2022-08-02T14:54:26Z</time>
      </trkpt>
      <trkpt lat="44.81352" lon="3.81566">
        <ele>1041.73</ele>
        <time>2022-08-02T14:54:37Z</time>
      </trkpt>
      <trkpt lat="44.81351" lon="3.81568">
        <ele>1041.73</ele>
        <time>2022-08-02T14:54:39Z</time>
      </trkpt>
      <trkpt lat="44.81345" lon="3.8158">
        <ele>1040.76</ele>
        <time>2022-08-02T14:54:49Z</time>
      </trkpt>
      <trkpt lat="44.81334" lon="3.81598">
        <ele>1040.76</ele>
        <time>2022-08-02T14:55:04Z</time>
      </trkpt>
      <trkpt lat="44.81323" lon="3.81615">
        <ele>1039.8</ele>
        <time>2022-08-02T14:55:18Z</time>
      </trkpt>
      <trkpt lat="44.81307" lon="3.8163">
        <ele>1039.8</ele>
        <time>2022-08-02T14:55:33Z</time>
      </trkpt>
      <trkpt lat="44.81292" lon="3.81639">
        <ele>1040.76</ele>
        <time>2022-08-02T14:55:47Z</time>
      </trkpt>
      <trkpt lat="44.81273" lon="3.81645">
        <ele>1042.21</ele>
        <time>2022-08-02T14:56:03Z</time>
      </trkpt>
      <trkpt lat="44.81255" lon="3.81653">
        <ele>1041.25</ele>
        <time>2022-08-02T14:56:19Z</time>
      </trkpt>
      <trkpt lat="44.81239" lon="3.81672">
        <ele>1041.25</ele>
        <time>2022-08-02T14:56:35Z</time>
      </trkpt>
      <trkpt lat="44.81226" lon="3.81692">
        <ele>1042.21</ele>
        <time>2022-08-02T14:56:50Z</time>
      </trkpt>
      <trkpt lat="44.81213" lon="3.81714">
        <ele>1043.17</ele>
        <time>2022-08-02T14:57:06Z</time>
      </trkpt>
      <trkpt lat="44.81202" lon="3.8173">
        <ele>1041.73</ele>
        <time>2022-08-02T14:57:22Z</time>
      </trkpt>
      <trkpt lat="44.81202" lon="3.81732">
        <ele>1042.21</ele>
        <time>2022-08-02T14:57:32Z</time>
      </trkpt>
      <trkpt lat="44.81201" lon="3.81737">
        <ele>1041.25</ele>
        <time>2022-08-02T14:57:44Z</time>
      </trkpt>
      <trkpt lat="44.81201" lon="3.81739">
        <ele>1038.84</ele>
        <time>2022-08-02T14:58:10Z</time>
      </trkpt>
      <trkpt lat="44.812" lon="3.81738">
        <ele>1037.4</ele>
        <time>2022-08-02T14:58:30Z</time>
      </trkpt>
      <trkpt lat="44.81201" lon="3.8174">
        <ele>1038.36</ele>
        <time>2022-08-02T14:58:57Z</time>
      </trkpt>
      <trkpt lat="44.81195" lon="3.81747">
        <ele>1038.84</ele>
        <time>2022-08-02T14:59:17Z</time>
      </trkpt>
      <trkpt lat="44.8118" lon="3.81756">
        <ele>1038.36</ele>
        <time>2022-08-02T14:59:32Z</time>
      </trkpt>
      <trkpt lat="44.81165" lon="3.81739">
        <ele>1036.92</ele>
        <time>2022-08-02T14:59:48Z</time>
      </trkpt>
      <trkpt lat="44.81149" lon="3.81727">
        <ele>1036.44</ele>
        <time>2022-08-02T15:00:02Z</time>
      </trkpt>
      <trkpt lat="44.81141" lon="3.81735">
        <ele>1035.96</ele>
        <time>2022-08-02T15:00:10Z</time>
      </trkpt>
      <trkpt lat="44.81129" lon="3.81757">
        <ele>1035</ele>
        <time>2022-08-02T15:00:25Z</time>
      </trkpt>
      <trkpt lat="44.81118" lon="3.81781">
        <ele>1034.52</ele>
        <time>2022-08-02T15:00:41Z</time>
      </trkpt>
      <trkpt lat="44.81106" lon="3.81807">
        <ele>1034.52</ele>
        <time>2022-08-02T15:00:58Z</time>
      </trkpt>
      <trkpt lat="44.81094" lon="3.81832">
        <ele>1034.52</ele>
        <time>2022-08-02T15:01:14Z</time>
      </trkpt>
      <trkpt lat="44.81083" lon="3.81853">
        <ele>1035.48</ele>
        <time>2022-08-02T15:01:29Z</time>
      </trkpt>
      <trkpt lat="44.8107" lon="3.81874">
        <ele>1036.44</ele>
        <time>2022-08-02T15:01:44Z</time>
      </trkpt>
      <trkpt lat="44.81059" lon="3.81899">
        <ele>1036.92</ele>
        <time>2022-08-02T15:02:00Z</time>
      </trkpt>
      <trkpt lat="44.8105" lon="3.81924">
        <ele>1036.44</ele>
        <time>2022-08-02T15:02:15Z</time>
      </trkpt>
      <trkpt lat="44.8104" lon="3.81948">
        <ele>1035.96</ele>
        <time>2022-08-02T15:02:31Z</time>
      </trkpt>
      <trkpt lat="44.81026" lon="3.81971">
        <ele>1038.84</ele>
        <time>2022-08-02T15:02:49Z</time>
      </trkpt>
      <trkpt lat="44.8101" lon="3.81995">
        <ele>1038.84</ele>
        <time>2022-08-02T15:03:07Z</time>
      </trkpt>
      <trkpt lat="44.81009" lon="3.81996">
        <ele>1037.4</ele>
        <time>2022-08-02T15:03:24Z</time>
      </trkpt>
      <trkpt lat="44.81009" lon="3.81998">
        <ele>1035.48</ele>
        <time>2022-08-02T15:03:55Z</time>
      </trkpt>
      <trkpt lat="44.81009" lon="3.81999">
        <ele>1035.48</ele>
        <time>2022-08-02T15:04:13Z</time>
      </trkpt>
      <trkpt lat="44.81006" lon="3.81996">
        <ele>1034.52</ele>
        <time>2022-08-02T15:04:30Z</time>
      </trkpt>
      <trkpt lat="44.81004" lon="3.81995">
        <ele>1034.52</ele>
        <time>2022-08-02T15:04:34Z</time>
      </trkpt>
      <trkpt lat="44.80999" lon="3.82015">
        <ele>1037.4</ele>
        <time>2022-08-02T15:04:50Z</time>
      </trkpt>
      <trkpt lat="44.81" lon="3.82014">
        <ele>1035.48</ele>
        <time>2022-08-02T15:05:11Z</time>
      </trkpt>
      <trkpt lat="44.81" lon="3.82013">
        <ele>1035.48</ele>
        <time>2022-08-02T15:05:36Z</time>
      </trkpt>
      <trkpt lat="44.81001" lon="3.82013">
        <ele>1035</ele>
        <time>2022-08-02T15:05:52Z</time>
      </trkpt>
      <trkpt lat="44.81004" lon="3.82009">
        <ele>1035</ele>
        <time>2022-08-02T15:05:57Z</time>
      </trkpt>
      <trkpt lat="44.81006" lon="3.81996">
        <ele>1035.96</ele>
        <time>2022-08-02T15:06:11Z</time>
      </trkpt>
      <trkpt lat="44.81007" lon="3.82">
        <ele>1035.96</ele>
        <time>2022-08-02T15:06:37Z</time>
      </trkpt>
      <trkpt lat="44.81005" lon="3.82">
        <ele>1035.96</ele>
        <time>2022-08-02T15:07:01Z</time>
      </trkpt>
      <trkpt lat="44.81005" lon="3.82008">
        <ele>1036.44</ele>
        <time>2022-08-02T15:07:37Z</time>
      </trkpt>
      <trkpt lat="44.81005" lon="3.82004">
        <ele>1037.88</ele>
        <time>2022-08-02T15:08:06Z</time>
      </trkpt>
      <trkpt lat="44.81004" lon="3.81999">
        <ele>1036.44</ele>
        <time>2022-08-02T15:08:37Z</time>
      </trkpt>
      <trkpt lat="44.81006" lon="3.81993">
        <ele>1036.92</ele>
        <time>2022-08-02T15:09:11Z</time>
      </trkpt>
      <trkpt lat="44.81003" lon="3.8199">
        <ele>1036.92</ele>
        <time>2022-08-02T15:09:38Z</time>
      </trkpt>
      <trkpt lat="44.81004" lon="3.81997">
        <ele>1037.88</ele>
        <time>2022-08-02T15:10:07Z</time>
      </trkpt>
      <trkpt lat="44.81006" lon="3.81996">
        <ele>1037.4</ele>
        <time>2022-08-02T15:10:23Z</time>
      </trkpt>
      <trkpt lat="44.81005" lon="3.81996">
        <ele>1038.36</ele>
        <time>2022-08-02T15:10:39Z</time>
      </trkpt>
      <trkpt lat="44.80997" lon="3.82007">
        <ele>1037.88</ele>
        <time>2022-08-02T15:10:52Z</time>
      </trkpt>
      <trkpt lat="44.80995" lon="3.82006">
        <ele>1037.88</ele>
        <time>2022-08-02T15:10:56Z</time>
      </trkpt>
      <trkpt lat="44.80992" lon="3.82007">
        <ele>1038.36</ele>
        <time>2022-08-02T15:10:59Z</time>
      </trkpt>
      <trkpt lat="44.80993" lon="3.82015">
        <ele>1036.44</ele>
        <time>2022-08-02T15:11:10Z</time>
      </trkpt>
      <trkpt lat="44.8099" lon="3.82015">
        <ele>1036.44</ele>
        <time>2022-08-02T15:11:30Z</time>
      </trkpt>
      <trkpt lat="44.80992" lon="3.82016">
        <ele>1037.4</ele>
        <time>2022-08-02T15:11:49Z</time>
      </trkpt>
      <trkpt lat="44.80985" lon="3.82023">
        <ele>1035.96</ele>
        <time>2022-08-02T15:12:03Z</time>
      </trkpt>
      <trkpt lat="44.80987" lon="3.82025">
        <ele>1035.48</ele>
        <time>2022-08-02T15:12:19Z</time>
      </trkpt>
      <trkpt lat="44.80992" lon="3.82025">
        <ele>1035</ele>
        <time>2022-08-02T15:12:35Z</time>
      </trkpt>
      <trkpt lat="44.80994" lon="3.8202">
        <ele>1035.48</ele>
        <time>2022-08-02T15:12:40Z</time>
      </trkpt>
      <trkpt lat="44.80994" lon="3.82017">
        <ele>1035.48</ele>
        <time>2022-08-02T15:12:42Z</time>
      </trkpt>
      <trkpt lat="44.80981" lon="3.82004">
        <ele>1035</ele>
        <time>2022-08-02T15:12:56Z</time>
      </trkpt>
      <trkpt lat="44.80972" lon="3.81995">
        <ele>1034.52</ele>
        <time>2022-08-02T15:13:09Z</time>
      </trkpt>
      <trkpt lat="44.80957" lon="3.81992">
        <ele>1033.07</ele>
        <time>2022-08-02T15:13:22Z</time>
      </trkpt>
      <trkpt lat="44.80947" lon="3.81995">
        <ele>1032.11</ele>
        <time>2022-08-02T15:13:32Z</time>
      </trkpt>
      <trkpt lat="44.80938" lon="3.81991">
        <ele>1031.63</ele>
        <time>2022-08-02T15:13:45Z</time>
      </trkpt>
      <trkpt lat="44.80939" lon="3.81994">
        <ele>1031.63</ele>
        <time>2022-08-02T15:14:08Z</time>
      </trkpt>
      <trkpt lat="44.80937" lon="3.81994">
        <ele>1031.63</ele>
        <time>2022-08-02T15:14:23Z</time>
      </trkpt>
      <trkpt lat="44.80938" lon="3.81995">
        <ele>1031.63</ele>
        <time>2022-08-02T15:15:00Z</time>
      </trkpt>
      <trkpt lat="44.80938" lon="3.81996">
        <ele>1030.67</ele>
        <time>2022-08-02T15:15:40Z</time>
      </trkpt>
      <trkpt lat="44.80938" lon="3.81996">
        <ele>1032.11</ele>
        <time>2022-08-02T15:16:11Z</time>
      </trkpt>
      <trkpt lat="44.80938" lon="3.81995">
        <ele>1031.63</ele>
        <time>2022-08-02T15:16:45Z</time>
      </trkpt>
      <trkpt lat="44.80937" lon="3.81996">
        <ele>1032.11</ele>
        <time>2022-08-02T15:17:29Z</time>
      </trkpt>
      <trkpt lat="44.80938" lon="3.81996">
        <ele>1032.59</ele>
        <time>2022-08-02T15:18:09Z</time>
      </trkpt>
      <trkpt lat="44.80938" lon="3.81995">
        <ele>1032.11</ele>
        <time>2022-08-02T15:18:56Z</time>
      </trkpt>
      <trkpt lat="44.80939" lon="3.81995">
        <ele>1029.23</ele>
        <time>2022-08-02T15:19:46Z</time>
      </trkpt>
      <trkpt lat="44.80939" lon="3.81995">
        <ele>1030.19</ele>
        <time>2022-08-02T15:20:23Z</time>
      </trkpt>
      <trkpt lat="44.80939" lon="3.81995">
        <ele>1031.63</ele>
        <time>2022-08-02T15:21:14Z</time>
      </trkpt>
      <trkpt lat="44.80939" lon="3.81995">
        <ele>1030.67</ele>
        <time>2022-08-02T15:21:51Z</time>
      </trkpt>
      <trkpt lat="44.80938" lon="3.81995">
        <ele>1032.59</ele>
        <time>2022-08-02T15:22:44Z</time>
      </trkpt>
      <trkpt lat="44.80939" lon="3.81994">
        <ele>1032.11</ele>
        <time>2022-08-02T15:23:41Z</time>
      </trkpt>
      <trkpt lat="44.80938" lon="3.81995">
        <ele>1032.11</ele>
        <time>2022-08-02T15:24:39Z</time>
      </trkpt>
      <trkpt lat="44.80938" lon="3.81995">
        <ele>1032.11</ele>
        <time>2022-08-02T15:24:40Z</time>
      </trkpt>
      <trkpt lat="44.80934" lon="3.81994">
        <ele>1032.11</ele>
        <time>2022-08-02T15:24:53Z</time>
      </trkpt>
      <trkpt lat="44.80934" lon="3.81993">
        <ele>1034.52</ele>
        <time>2022-08-02T15:25:42Z</time>
      </trkpt>
      <trkpt lat="44.80936" lon="3.81993">
        <ele>1033.07</ele>
        <time>2022-08-02T15:26:19Z</time>
      </trkpt>
      <trkpt lat="44.80935" lon="3.81994">
        <ele>1031.63</ele>
        <time>2022-08-02T15:27:11Z</time>
      </trkpt>
      <trkpt lat="44.80935" lon="3.81994">
        <ele>1031.63</ele>
        <time>2022-08-02T15:28:01Z</time>
      </trkpt>
      <trkpt lat="44.80934" lon="3.81992">
        <ele>1033.55</ele>
        <time>2022-08-02T15:28:35Z</time>
      </trkpt>
      <trkpt lat="44.80934" lon="3.81992">
        <ele>1030.67</ele>
        <time>2022-08-02T15:28:55Z</time>
      </trkpt>
      <trkpt lat="44.80933" lon="3.81992">
        <ele>1032.59</ele>
        <time>2022-08-02T15:29:17Z</time>
      </trkpt>
      <trkpt lat="44.80933" lon="3.81993">
        <ele>1030.67</ele>
        <time>2022-08-02T15:29:49Z</time>
      </trkpt>
      <trkpt lat="44.80934" lon="3.81992">
        <ele>1030.19</ele>
        <time>2022-08-02T15:30:24Z</time>
      </trkpt>
      <trkpt lat="44.80934" lon="3.8199">
        <ele>1032.59</ele>
        <time>2022-08-02T15:30:45Z</time>
      </trkpt>
      <trkpt lat="44.80934" lon="3.81991">
        <ele>1032.11</ele>
        <time>2022-08-02T15:31:17Z</time>
      </trkpt>
      <trkpt lat="44.80933" lon="3.81991">
        <ele>1032.59</ele>
        <time>2022-08-02T15:31:47Z</time>
      </trkpt>
      <trkpt lat="44.80932" lon="3.81991">
        <ele>1033.55</ele>
        <time>2022-08-02T15:32:08Z</time>
      </trkpt>
      <trkpt lat="44.80936" lon="3.81991">
        <ele>1032.59</ele>
        <time>2022-08-02T15:32:35Z</time>
      </trkpt>
      <trkpt lat="44.80935" lon="3.81991">
        <ele>1035.48</ele>
        <time>2022-08-02T15:33:14Z</time>
      </trkpt>
      <trkpt lat="44.80934" lon="3.81992">
        <ele>1031.63</ele>
        <time>2022-08-02T15:33:56Z</time>
      </trkpt>
      <trkpt lat="44.80977" lon="3.81988">
        <ele>1068.16</ele>
        <time>2022-08-03T06:09:48Z</time>
      </trkpt>
      <trkpt lat="44.80976" lon="3.81983">
        <ele>1045.57</ele>
        <time>2022-08-03T06:10:11Z</time>
      </trkpt>
      <trkpt lat="44.80974" lon="3.81979">
        <ele>1036.44</ele>
        <time>2022-08-03T06:10:46Z</time>
      </trkpt>
      <trkpt lat="44.80975" lon="3.81983">
        <ele>1033.07</ele>
        <time>2022-08-03T06:11:20Z</time>
      </trkpt>
      <trkpt lat="44.80977" lon="3.81976">
        <ele>1032.11</ele>
        <time>2022-08-03T06:11:56Z</time>
      </trkpt>
      <trkpt lat="44.80977" lon="3.81979">
        <ele>1033.55</ele>
        <time>2022-08-03T06:12:02Z</time>
      </trkpt>
      <trkpt lat="44.80978" lon="3.81977">
        <ele>1032.59</ele>
        <time>2022-08-03T06:12:13Z</time>
      </trkpt>
      <trkpt lat="44.80975" lon="3.81987">
        <ele>1035.96</ele>
        <time>2022-08-03T06:12:33Z</time>
      </trkpt>
      <trkpt lat="44.80974" lon="3.81987">
        <ele>1035.48</ele>
        <time>2022-08-03T06:12:55Z</time>
      </trkpt>
      <trkpt lat="44.80974" lon="3.81989">
        <ele>1034.04</ele>
        <time>2022-08-03T06:13:21Z</time>
      </trkpt>
      <trkpt lat="44.80972" lon="3.81989">
        <ele>1032.59</ele>
        <time>2022-08-03T06:13:44Z</time>
      </trkpt>
      <trkpt lat="44.80971" lon="3.81988">
        <ele>1032.11</ele>
        <time>2022-08-03T06:14:04Z</time>
      </trkpt>
      <trkpt lat="44.80973" lon="3.81987">
        <ele>1029.71</ele>
        <time>2022-08-03T06:14:22Z</time>
      </trkpt>
      <trkpt lat="44.80973" lon="3.81988">
        <ele>1028.27</ele>
        <time>2022-08-03T06:14:32Z</time>
      </trkpt>
      <trkpt lat="44.80975" lon="3.81998">
        <ele>1028.75</ele>
        <time>2022-08-03T06:14:47Z</time>
      </trkpt>
      <trkpt lat="44.8098" lon="3.82007">
        <ele>1029.23</ele>
        <time>2022-08-03T06:14:59Z</time>
      </trkpt>
      <trkpt lat="44.80988" lon="3.82008">
        <ele>1027.31</ele>
        <time>2022-08-03T06:15:11Z</time>
      </trkpt>
      <trkpt lat="44.80995" lon="3.82008">
        <ele>1025.86</ele>
        <time>2022-08-03T06:15:25Z</time>
      </trkpt>
      <trkpt lat="44.80997" lon="3.8201">
        <ele>1027.31</ele>
        <time>2022-08-03T06:15:39Z</time>
      </trkpt>
      <trkpt lat="44.81001" lon="3.81998">
        <ele>1028.75</ele>
        <time>2022-08-03T06:15:53Z</time>
      </trkpt>
      <trkpt lat="44.80999" lon="3.81996">
        <ele>1029.71</ele>
        <time>2022-08-03T06:16:04Z</time>
      </trkpt>
      <trkpt lat="44.80998" lon="3.82007">
        <ele>1030.67</ele>
        <time>2022-08-03T06:16:18Z</time>
      </trkpt>
      <trkpt lat="44.80994" lon="3.82007">
        <ele>1034.52</ele>
        <time>2022-08-03T06:16:32Z</time>
      </trkpt>
      <trkpt lat="44.80993" lon="3.82009">
        <ele>1035</ele>
        <time>2022-08-03T06:16:56Z</time>
      </trkpt>
      <trkpt lat="44.80993" lon="3.8201">
        <ele>1030.19</ele>
        <time>2022-08-03T06:17:17Z</time>
      </trkpt>
      <trkpt lat="44.80994" lon="3.82007">
        <ele>1031.63</ele>
        <time>2022-08-03T06:17:38Z</time>
      </trkpt>
      <trkpt lat="44.80994" lon="3.82014">
        <ele>1035</ele>
        <time>2022-08-03T06:18:07Z</time>
      </trkpt>
      <trkpt lat="44.80991" lon="3.82016">
        <ele>1037.88</ele>
        <time>2022-08-03T06:18:26Z</time>
      </trkpt>
      <trkpt lat="44.80997" lon="3.82019">
        <ele>1037.88</ele>
        <time>2022-08-03T06:18:38Z</time>
      </trkpt>
      <trkpt lat="44.80998" lon="3.82024">
        <ele>1037.88</ele>
        <time>2022-08-03T06:18:50Z</time>
      </trkpt>
      <trkpt lat="44.80992" lon="3.82037">
        <ele>1037.4</ele>
        <time>2022-08-03T06:19:05Z</time>
      </trkpt>
      <trkpt lat="44.80981" lon="3.82062">
        <ele>1038.36</ele>
        <time>2022-08-03T06:19:21Z</time>
      </trkpt>
      <trkpt lat="44.8097" lon="3.82085">
        <ele>1040.28</ele>
        <time>2022-08-03T06:19:37Z</time>
      </trkpt>
      <trkpt lat="44.80968" lon="3.82094">
        <ele>1037.4</ele>
        <time>2022-08-03T06:19:48Z</time>
      </trkpt>
      <trkpt lat="44.80968" lon="3.82092">
        <ele>1036.92</ele>
        <time>2022-08-03T06:20:01Z</time>
      </trkpt>
      <trkpt lat="44.80959" lon="3.82115">
        <ele>1033.55</ele>
        <time>2022-08-03T06:20:17Z</time>
      </trkpt>
      <trkpt lat="44.80952" lon="3.82135">
        <ele>1031.63</ele>
        <time>2022-08-03T06:20:30Z</time>
      </trkpt>
      <trkpt lat="44.80944" lon="3.82157">
        <ele>1031.15</ele>
        <time>2022-08-03T06:20:44Z</time>
      </trkpt>
      <trkpt lat="44.80934" lon="3.82179">
        <ele>1031.63</ele>
        <time>2022-08-03T06:20:58Z</time>
      </trkpt>
      <trkpt lat="44.80925" lon="3.82201">
        <ele>1029.23</ele>
        <time>2022-08-03T06:21:12Z</time>
      </trkpt>
      <trkpt lat="44.80915" lon="3.8222">
        <ele>1027.31</ele>
        <time>2022-08-03T06:21:25Z</time>
      </trkpt>
      <trkpt lat="44.80908" lon="3.82232">
        <ele>1025.38</ele>
        <time>2022-08-03T06:21:34Z</time>
      </trkpt>
      <trkpt lat="44.80903" lon="3.82239">
        <ele>1024.9</ele>
        <time>2022-08-03T06:21:39Z</time>
      </trkpt>
      <trkpt lat="44.80901" lon="3.82265">
        <ele>1024.42</ele>
        <time>2022-08-03T06:21:54Z</time>
      </trkpt>
      <trkpt lat="44.80903" lon="3.82292">
        <ele>1024.9</ele>
        <time>2022-08-03T06:22:09Z</time>
      </trkpt>
      <trkpt lat="44.80901" lon="3.82314">
        <ele>1025.38</ele>
        <time>2022-08-03T06:22:21Z</time>
      </trkpt>
      <trkpt lat="44.80891" lon="3.82332">
        <ele>1025.86</ele>
        <time>2022-08-03T06:22:36Z</time>
      </trkpt>
      <trkpt lat="44.80874" lon="3.82335">
        <ele>1025.38</ele>
        <time>2022-08-03T06:22:50Z</time>
      </trkpt>
      <trkpt lat="44.80849" lon="3.82339">
        <ele>1023.46</ele>
        <time>2022-08-03T06:23:09Z</time>
      </trkpt>
      <trkpt lat="44.80827" lon="3.82343">
        <ele>1021.06</ele>
        <time>2022-08-03T06:23:26Z</time>
      </trkpt>
      <trkpt lat="44.80805" lon="3.82341">
        <ele>1022.02</ele>
        <time>2022-08-03T06:23:42Z</time>
      </trkpt>
      <trkpt lat="44.80786" lon="3.8234">
        <ele>1023.46</ele>
        <time>2022-08-03T06:23:57Z</time>
      </trkpt>
      <trkpt lat="44.80766" lon="3.8234">
        <ele>1021.06</ele>
        <time>2022-08-03T06:24:15Z</time>
      </trkpt>
      <trkpt lat="44.80748" lon="3.82341">
        <ele>1019.13</ele>
        <time>2022-08-03T06:24:30Z</time>
      </trkpt>
      <trkpt lat="44.80727" lon="3.82347">
        <ele>1018.65</ele>
        <time>2022-08-03T06:24:45Z</time>
      </trkpt>
      <trkpt lat="44.80708" lon="3.82362">
        <ele>1016.25</ele>
        <time>2022-08-03T06:25:02Z</time>
      </trkpt>
      <trkpt lat="44.80695" lon="3.82371">
        <ele>1014.33</ele>
        <time>2022-08-03T06:25:14Z</time>
      </trkpt>
      <trkpt lat="44.80685" lon="3.82384">
        <ele>1013.37</ele>
        <time>2022-08-03T06:25:25Z</time>
      </trkpt>
      <trkpt lat="44.80687" lon="3.82417">
        <ele>1010</ele>
        <time>2022-08-03T06:25:43Z</time>
      </trkpt>
      <trkpt lat="44.80687" lon="3.82443">
        <ele>1006.64</ele>
        <time>2022-08-03T06:25:58Z</time>
      </trkpt>
      <trkpt lat="44.80684" lon="3.82468">
        <ele>1007.12</ele>
        <time>2022-08-03T06:26:12Z</time>
      </trkpt>
      <trkpt lat="44.80683" lon="3.82476">
        <ele>1007.6</ele>
        <time>2022-08-03T06:26:16Z</time>
      </trkpt>
      <trkpt lat="44.80679" lon="3.82499">
        <ele>1006.16</ele>
        <time>2022-08-03T06:26:30Z</time>
      </trkpt>
      <trkpt lat="44.80679" lon="3.82501">
        <ele>1006.16</ele>
        <time>2022-08-03T06:26:31Z</time>
      </trkpt>
      <trkpt lat="44.80674" lon="3.82524">
        <ele>1005.68</ele>
        <time>2022-08-03T06:26:44Z</time>
      </trkpt>
      <trkpt lat="44.80673" lon="3.8255">
        <ele>1003.27</ele>
        <time>2022-08-03T06:26:58Z</time>
      </trkpt>
      <trkpt lat="44.80674" lon="3.82578">
        <ele>999.91</ele>
        <time>2022-08-03T06:27:14Z</time>
      </trkpt>
      <trkpt lat="44.80686" lon="3.82608">
        <ele>997.02</ele>
        <time>2022-08-03T06:27:32Z</time>
      </trkpt>
      <trkpt lat="44.80704" lon="3.82629">
        <ele>993.66</ele>
        <time>2022-08-03T06:27:50Z</time>
      </trkpt>
      <trkpt lat="44.80721" lon="3.82649">
        <ele>991.26</ele>
        <time>2022-08-03T06:28:07Z</time>
      </trkpt>
      <trkpt lat="44.80736" lon="3.82671">
        <ele>989.81</ele>
        <time>2022-08-03T06:28:25Z</time>
      </trkpt>
      <trkpt lat="44.80742" lon="3.82698">
        <ele>985.97</ele>
        <time>2022-08-03T06:28:42Z</time>
      </trkpt>
      <trkpt lat="44.80747" lon="3.82729">
        <ele>983.57</ele>
        <time>2022-08-03T06:29:00Z</time>
      </trkpt>
      <trkpt lat="44.8075" lon="3.82757">
        <ele>983.57</ele>
        <time>2022-08-03T06:29:16Z</time>
      </trkpt>
      <trkpt lat="44.80741" lon="3.82779">
        <ele>981.64</ele>
        <time>2022-08-03T06:29:32Z</time>
      </trkpt>
      <trkpt lat="44.80729" lon="3.82788">
        <ele>981.16</ele>
        <time>2022-08-03T06:29:45Z</time>
      </trkpt>
      <trkpt lat="44.80712" lon="3.82782">
        <ele>982.12</ele>
        <time>2022-08-03T06:29:59Z</time>
      </trkpt>
      <trkpt lat="44.80707" lon="3.8278">
        <ele>983.09</ele>
        <time>2022-08-03T06:30:03Z</time>
      </trkpt>
      <trkpt lat="44.80696" lon="3.82776">
        <ele>985.49</ele>
        <time>2022-08-03T06:30:12Z</time>
      </trkpt>
      <trkpt lat="44.80685" lon="3.82765">
        <ele>989.81</ele>
        <time>2022-08-03T06:30:25Z</time>
      </trkpt>
      <trkpt lat="44.80665" lon="3.82745">
        <ele>993.18</ele>
        <time>2022-08-03T06:30:40Z</time>
      </trkpt>
      <trkpt lat="44.80643" lon="3.82735">
        <ele>995.58</ele>
        <time>2022-08-03T06:30:55Z</time>
      </trkpt>
      <trkpt lat="44.80621" lon="3.82729">
        <ele>999.91</ele>
        <time>2022-08-03T06:31:12Z</time>
      </trkpt>
      <trkpt lat="44.80601" lon="3.82729">
        <ele>1005.68</ele>
        <time>2022-08-03T06:31:29Z</time>
      </trkpt>
      <trkpt lat="44.80586" lon="3.82729">
        <ele>1008.08</ele>
        <time>2022-08-03T06:31:44Z</time>
      </trkpt>
      <trkpt lat="44.80573" lon="3.82736">
        <ele>1007.12</ele>
        <time>2022-08-03T06:31:55Z</time>
      </trkpt>
      <trkpt lat="44.80561" lon="3.82745">
        <ele>1007.6</ele>
        <time>2022-08-03T06:32:08Z</time>
      </trkpt>
      <trkpt lat="44.8055" lon="3.8275">
        <ele>1009.04</ele>
        <time>2022-08-03T06:32:19Z</time>
      </trkpt>
      <trkpt lat="44.80535" lon="3.82756">
        <ele>1010.48</ele>
        <time>2022-08-03T06:32:34Z</time>
      </trkpt>
      <trkpt lat="44.80521" lon="3.82757">
        <ele>1015.29</ele>
        <time>2022-08-03T06:32:50Z</time>
      </trkpt>
      <trkpt lat="44.80503" lon="3.82758">
        <ele>1022.5</ele>
        <time>2022-08-03T06:33:06Z</time>
      </trkpt>
      <trkpt lat="44.80487" lon="3.82757">
        <ele>1027.31</ele>
        <time>2022-08-03T06:33:21Z</time>
      </trkpt>
      <trkpt lat="44.8048" lon="3.82757">
        <ele>1029.71</ele>
        <time>2022-08-03T06:33:27Z</time>
      </trkpt>
      <trkpt lat="44.80462" lon="3.82762">
        <ele>1033.07</ele>
        <time>2022-08-03T06:33:43Z</time>
      </trkpt>
      <trkpt lat="44.80448" lon="3.82775">
        <ele>1031.63</ele>
        <time>2022-08-03T06:33:58Z</time>
      </trkpt>
      <trkpt lat="44.80439" lon="3.82795">
        <ele>1025.38</ele>
        <time>2022-08-03T06:34:11Z</time>
      </trkpt>
      <trkpt lat="44.80427" lon="3.82807">
        <ele>1024.42</ele>
        <time>2022-08-03T06:34:25Z</time>
      </trkpt>
      <trkpt lat="44.80426" lon="3.82808">
        <ele>1023.94</ele>
        <time>2022-08-03T06:34:26Z</time>
      </trkpt>
      <trkpt lat="44.80422" lon="3.82825">
        <ele>1020.1</ele>
        <time>2022-08-03T06:34:35Z</time>
      </trkpt>
      <trkpt lat="44.80423" lon="3.8283">
        <ele>1018.17</ele>
        <time>2022-08-03T06:34:37Z</time>
      </trkpt>
      <trkpt lat="44.80416" lon="3.82856">
        <ele>1016.25</ele>
        <time>2022-08-03T06:34:54Z</time>
      </trkpt>
      <trkpt lat="44.80404" lon="3.82873">
        <ele>1018.65</ele>
        <time>2022-08-03T06:35:10Z</time>
      </trkpt>
      <trkpt lat="44.80389" lon="3.82885">
        <ele>1020.58</ele>
        <time>2022-08-03T06:35:25Z</time>
      </trkpt>
      <trkpt lat="44.80376" lon="3.82896">
        <ele>1022.02</ele>
        <time>2022-08-03T06:35:39Z</time>
      </trkpt>
      <trkpt lat="44.80359" lon="3.82914">
        <ele>1023.94</ele>
        <time>2022-08-03T06:35:58Z</time>
      </trkpt>
      <trkpt lat="44.80348" lon="3.8293">
        <ele>1024.9</ele>
        <time>2022-08-03T06:36:13Z</time>
      </trkpt>
      <trkpt lat="44.80333" lon="3.82945">
        <ele>1026.83</ele>
        <time>2022-08-03T06:36:29Z</time>
      </trkpt>
      <trkpt lat="44.80329" lon="3.8295">
        <ele>1027.31</ele>
        <time>2022-08-03T06:36:34Z</time>
      </trkpt>
      <trkpt lat="44.80325" lon="3.82975">
        <ele>1026.83</ele>
        <time>2022-08-03T06:36:49Z</time>
      </trkpt>
      <trkpt lat="44.80325" lon="3.82977">
        <ele>1026.83</ele>
        <time>2022-08-03T06:36:50Z</time>
      </trkpt>
      <trkpt lat="44.80327" lon="3.82982">
        <ele>1026.83</ele>
        <time>2022-08-03T06:36:53Z</time>
      </trkpt>
      <trkpt lat="44.80328" lon="3.83012">
        <ele>1025.86</ele>
        <time>2022-08-03T06:37:11Z</time>
      </trkpt>
      <trkpt lat="44.80329" lon="3.83018">
        <ele>1025.38</ele>
        <time>2022-08-03T06:37:15Z</time>
      </trkpt>
      <trkpt lat="44.8033" lon="3.83021">
        <ele>1025.38</ele>
        <time>2022-08-03T06:37:17Z</time>
      </trkpt>
      <trkpt lat="44.80335" lon="3.83025">
        <ele>1025.86</ele>
        <time>2022-08-03T06:37:22Z</time>
      </trkpt>
      <trkpt lat="44.80352" lon="3.83025">
        <ele>1025.38</ele>
        <time>2022-08-03T06:37:37Z</time>
      </trkpt>
      <trkpt lat="44.80368" lon="3.83026">
        <ele>1026.34</ele>
        <time>2022-08-03T06:37:51Z</time>
      </trkpt>
      <trkpt lat="44.80382" lon="3.83026">
        <ele>1029.71</ele>
        <time>2022-08-03T06:38:04Z</time>
      </trkpt>
      <trkpt lat="44.80401" lon="3.83025">
        <ele>1033.07</ele>
        <time>2022-08-03T06:38:21Z</time>
      </trkpt>
      <trkpt lat="44.80416" lon="3.83028">
        <ele>1033.55</ele>
        <time>2022-08-03T06:38:35Z</time>
      </trkpt>
      <trkpt lat="44.80433" lon="3.83032">
        <ele>1039.8</ele>
        <time>2022-08-03T06:38:52Z</time>
      </trkpt>
      <trkpt lat="44.8045" lon="3.83036">
        <ele>1040.76</ele>
        <time>2022-08-03T06:39:06Z</time>
      </trkpt>
      <trkpt lat="44.80471" lon="3.83039">
        <ele>1042.69</ele>
        <time>2022-08-03T06:39:25Z</time>
      </trkpt>
      <trkpt lat="44.80493" lon="3.83043">
        <ele>1039.8</ele>
        <time>2022-08-03T06:39:42Z</time>
      </trkpt>
      <trkpt lat="44.80511" lon="3.83045">
        <ele>1037.88</ele>
        <time>2022-08-03T06:39:56Z</time>
      </trkpt>
      <trkpt lat="44.80516" lon="3.83047">
        <ele>1037.88</ele>
        <time>2022-08-03T06:40:01Z</time>
      </trkpt>
      <trkpt lat="44.80519" lon="3.83047">
        <ele>1037.88</ele>
        <time>2022-08-03T06:40:03Z</time>
      </trkpt>
      <trkpt lat="44.80536" lon="3.83055">
        <ele>1038.84</ele>
        <time>2022-08-03T06:40:18Z</time>
      </trkpt>
      <trkpt lat="44.8055" lon="3.83062">
        <ele>1038.84</ele>
        <time>2022-08-03T06:40:30Z</time>
      </trkpt>
      <trkpt lat="44.80569" lon="3.83068">
        <ele>1038.84</ele>
        <time>2022-08-03T06:40:47Z</time>
      </trkpt>
      <trkpt lat="44.80588" lon="3.83077">
        <ele>1038.84</ele>
        <time>2022-08-03T06:41:03Z</time>
      </trkpt>
      <trkpt lat="44.80603" lon="3.83084">
        <ele>1041.25</ele>
        <time>2022-08-03T06:41:18Z</time>
      </trkpt>
      <trkpt lat="44.80618" lon="3.83088">
        <ele>1044.13</ele>
        <time>2022-08-03T06:41:32Z</time>
      </trkpt>
      <trkpt lat="44.80638" lon="3.83091">
        <ele>1046.05</ele>
        <time>2022-08-03T06:41:48Z</time>
      </trkpt>
      <trkpt lat="44.80656" lon="3.83094">
        <ele>1046.05</ele>
        <time>2022-08-03T06:42:03Z</time>
      </trkpt>
      <trkpt lat="44.80663" lon="3.83106">
        <ele>1044.13</ele>
        <time>2022-08-03T06:42:19Z</time>
      </trkpt>
      <trkpt lat="44.8066" lon="3.83126">
        <ele>1044.13</ele>
        <time>2022-08-03T06:42:35Z</time>
      </trkpt>
      <trkpt lat="44.80654" lon="3.83146">
        <ele>1047.97</ele>
        <time>2022-08-03T06:42:50Z</time>
      </trkpt>
      <trkpt lat="44.80651" lon="3.83163">
        <ele>1052.3</ele>
        <time>2022-08-03T06:43:04Z</time>
      </trkpt>
      <trkpt lat="44.80646" lon="3.83178">
        <ele>1056.15</ele>
        <time>2022-08-03T06:43:20Z</time>
      </trkpt>
      <trkpt lat="44.80646" lon="3.83181">
        <ele>1057.11</ele>
        <time>2022-08-03T06:43:23Z</time>
      </trkpt>
      <trkpt lat="44.80645" lon="3.83197">
        <ele>1059.51</ele>
        <time>2022-08-03T06:43:37Z</time>
      </trkpt>
      <trkpt lat="44.80647" lon="3.83214">
        <ele>1057.59</ele>
        <time>2022-08-03T06:43:50Z</time>
      </trkpt>
      <trkpt lat="44.80644" lon="3.83223">
        <ele>1059.03</ele>
        <time>2022-08-03T06:44:02Z</time>
      </trkpt>
      <trkpt lat="44.80642" lon="3.83235">
        <ele>1060.95</ele>
        <time>2022-08-03T06:44:14Z</time>
      </trkpt>
      <trkpt lat="44.80638" lon="3.83248">
        <ele>1062.87</ele>
        <time>2022-08-03T06:44:28Z</time>
      </trkpt>
      <trkpt lat="44.80633" lon="3.83261">
        <ele>1064.8</ele>
        <time>2022-08-03T06:44:41Z</time>
      </trkpt>
      <trkpt lat="44.80628" lon="3.83277">
        <ele>1067.2</ele>
        <time>2022-08-03T06:44:56Z</time>
      </trkpt>
      <trkpt lat="44.80625" lon="3.83293">
        <ele>1067.68</ele>
        <time>2022-08-03T06:45:10Z</time>
      </trkpt>
      <trkpt lat="44.80621" lon="3.83311">
        <ele>1069.6</ele>
        <time>2022-08-03T06:45:26Z</time>
      </trkpt>
      <trkpt lat="44.80619" lon="3.83321">
        <ele>1071.53</ele>
        <time>2022-08-03T06:45:34Z</time>
      </trkpt>
      <trkpt lat="44.80612" lon="3.83344">
        <ele>1073.45</ele>
        <time>2022-08-03T06:45:53Z</time>
      </trkpt>
      <trkpt lat="44.80605" lon="3.83361">
        <ele>1075.85</ele>
        <time>2022-08-03T06:46:08Z</time>
      </trkpt>
      <trkpt lat="44.80596" lon="3.83377">
        <ele>1076.81</ele>
        <time>2022-08-03T06:46:23Z</time>
      </trkpt>
      <trkpt lat="44.80585" lon="3.83392">
        <ele>1079.7</ele>
        <time>2022-08-03T06:46:40Z</time>
      </trkpt>
      <trkpt lat="44.80581" lon="3.834">
        <ele>1080.18</ele>
        <time>2022-08-03T06:46:47Z</time>
      </trkpt>
      <trkpt lat="44.80569" lon="3.83415">
        <ele>1082.1</ele>
        <time>2022-08-03T06:47:03Z</time>
      </trkpt>
      <trkpt lat="44.8056" lon="3.83431">
        <ele>1082.58</ele>
        <time>2022-08-03T06:47:17Z</time>
      </trkpt>
      <trkpt lat="44.8055" lon="3.83449">
        <ele>1083.54</ele>
        <time>2022-08-03T06:47:33Z</time>
      </trkpt>
      <trkpt lat="44.80539" lon="3.83468">
        <ele>1084.02</ele>
        <time>2022-08-03T06:47:50Z</time>
      </trkpt>
      <trkpt lat="44.80528" lon="3.83486">
        <ele>1085.47</ele>
        <time>2022-08-03T06:48:06Z</time>
      </trkpt>
      <trkpt lat="44.80517" lon="3.83505">
        <ele>1086.91</ele>
        <time>2022-08-03T06:48:22Z</time>
      </trkpt>
      <trkpt lat="44.80506" lon="3.83518">
        <ele>1089.31</ele>
        <time>2022-08-03T06:48:36Z</time>
      </trkpt>
      <trkpt lat="44.80492" lon="3.83534">
        <ele>1091.71</ele>
        <time>2022-08-03T06:48:53Z</time>
      </trkpt>
      <trkpt lat="44.8048" lon="3.83547">
        <ele>1093.64</ele>
        <time>2022-08-03T06:49:07Z</time>
      </trkpt>
      <trkpt lat="44.80477" lon="3.8355">
        <ele>1094.12</ele>
        <time>2022-08-03T06:49:10Z</time>
      </trkpt>
      <trkpt lat="44.80476" lon="3.83551">
        <ele>1094.6</ele>
        <time>2022-08-03T06:49:12Z</time>
      </trkpt>
      <trkpt lat="44.80464" lon="3.83571">
        <ele>1097</ele>
        <time>2022-08-03T06:49:28Z</time>
      </trkpt>
      <trkpt lat="44.8046" lon="3.8358">
        <ele>1097.96</ele>
        <time>2022-08-03T06:49:35Z</time>
      </trkpt>
      <trkpt lat="44.8045" lon="3.83602">
        <ele>1099.4</ele>
        <time>2022-08-03T06:49:52Z</time>
      </trkpt>
      <trkpt lat="44.8044" lon="3.83622">
        <ele>1101.33</ele>
        <time>2022-08-03T06:50:08Z</time>
      </trkpt>
      <trkpt lat="44.80437" lon="3.83633">
        <ele>1101.33</ele>
        <time>2022-08-03T06:50:23Z</time>
      </trkpt>
      <trkpt lat="44.80439" lon="3.83634">
        <ele>1100.37</ele>
        <time>2022-08-03T06:50:59Z</time>
      </trkpt>
      <trkpt lat="44.80439" lon="3.83633">
        <ele>1101.81</ele>
        <time>2022-08-03T06:51:36Z</time>
      </trkpt>
      <trkpt lat="44.80436" lon="3.83636">
        <ele>1099.89</ele>
        <time>2022-08-03T06:52:04Z</time>
      </trkpt>
      <trkpt lat="44.80436" lon="3.83638">
        <ele>1098.44</ele>
        <time>2022-08-03T06:52:24Z</time>
      </trkpt>
      <trkpt lat="44.80424" lon="3.83651">
        <ele>1101.33</ele>
        <time>2022-08-03T06:52:38Z</time>
      </trkpt>
      <trkpt lat="44.80411" lon="3.83669">
        <ele>1101.81</ele>
        <time>2022-08-03T06:52:54Z</time>
      </trkpt>
      <trkpt lat="44.804" lon="3.83691">
        <ele>1102.29</ele>
        <time>2022-08-03T06:53:09Z</time>
      </trkpt>
      <trkpt lat="44.8039" lon="3.83719">
        <ele>1102.29</ele>
        <time>2022-08-03T06:53:27Z</time>
      </trkpt>
      <trkpt lat="44.8038" lon="3.83748">
        <ele>1103.73</ele>
        <time>2022-08-03T06:53:45Z</time>
      </trkpt>
      <trkpt lat="44.80375" lon="3.8377">
        <ele>1104.21</ele>
        <time>2022-08-03T06:53:59Z</time>
      </trkpt>
      <trkpt lat="44.80374" lon="3.83779">
        <ele>1105.17</ele>
        <time>2022-08-03T06:54:05Z</time>
      </trkpt>
      <trkpt lat="44.8037" lon="3.83805">
        <ele>1107.1</ele>
        <time>2022-08-03T06:54:21Z</time>
      </trkpt>
      <trkpt lat="44.80364" lon="3.83818">
        <ele>1108.06</ele>
        <time>2022-08-03T06:54:30Z</time>
      </trkpt>
      <trkpt lat="44.80352" lon="3.83835">
        <ele>1110.46</ele>
        <time>2022-08-03T06:54:47Z</time>
      </trkpt>
      <trkpt lat="44.80346" lon="3.83845">
        <ele>1112.38</ele>
        <time>2022-08-03T06:54:55Z</time>
      </trkpt>
      <trkpt lat="44.80343" lon="3.83855">
        <ele>1113.82</ele>
        <time>2022-08-03T06:55:02Z</time>
      </trkpt>
      <trkpt lat="44.80333" lon="3.83878">
        <ele>1115.27</ele>
        <time>2022-08-03T06:55:18Z</time>
      </trkpt>
      <trkpt lat="44.80325" lon="3.839">
        <ele>1116.23</ele>
        <time>2022-08-03T06:55:34Z</time>
      </trkpt>
      <trkpt lat="44.80317" lon="3.83919">
        <ele>1116.71</ele>
        <time>2022-08-03T06:55:48Z</time>
      </trkpt>
      <trkpt lat="44.80308" lon="3.83941">
        <ele>1118.15</ele>
        <time>2022-08-03T06:56:04Z</time>
      </trkpt>
      <trkpt lat="44.80298" lon="3.83961">
        <ele>1119.11</ele>
        <time>2022-08-03T06:56:19Z</time>
      </trkpt>
      <trkpt lat="44.80287" lon="3.83982">
        <ele>1121.03</ele>
        <time>2022-08-03T06:56:36Z</time>
      </trkpt>
      <trkpt lat="44.80279" lon="3.84003">
        <ele>1122.48</ele>
        <time>2022-08-03T06:56:51Z</time>
      </trkpt>
      <trkpt lat="44.80269" lon="3.84027">
        <ele>1122</ele>
        <time>2022-08-03T06:57:08Z</time>
      </trkpt>
      <trkpt lat="44.8026" lon="3.84049">
        <ele>1122.96</ele>
        <time>2022-08-03T06:57:24Z</time>
      </trkpt>
      <trkpt lat="44.80251" lon="3.84071">
        <ele>1123.92</ele>
        <time>2022-08-03T06:57:40Z</time>
      </trkpt>
      <trkpt lat="44.80242" lon="3.84094">
        <ele>1125.36</ele>
        <time>2022-08-03T06:57:56Z</time>
      </trkpt>
      <trkpt lat="44.80235" lon="3.84115">
        <ele>1125.84</ele>
        <time>2022-08-03T06:58:11Z</time>
      </trkpt>
      <trkpt lat="44.80228" lon="3.84137">
        <ele>1127.28</ele>
        <time>2022-08-03T06:58:26Z</time>
      </trkpt>
      <trkpt lat="44.8022" lon="3.84159">
        <ele>1130.17</ele>
        <time>2022-08-03T06:58:42Z</time>
      </trkpt>
      <trkpt lat="44.80216" lon="3.84173">
        <ele>1131.13</ele>
        <time>2022-08-03T06:58:52Z</time>
      </trkpt>
      <trkpt lat="44.80211" lon="3.84194">
        <ele>1133.05</ele>
        <time>2022-08-03T06:59:07Z</time>
      </trkpt>
      <trkpt lat="44.80207" lon="3.84216">
        <ele>1135.45</ele>
        <time>2022-08-03T06:59:22Z</time>
      </trkpt>
      <trkpt lat="44.80203" lon="3.84243">
        <ele>1138.34</ele>
        <time>2022-08-03T06:59:41Z</time>
      </trkpt>
      <trkpt lat="44.80201" lon="3.84262">
        <ele>1140.26</ele>
        <time>2022-08-03T06:59:55Z</time>
      </trkpt>
      <trkpt lat="44.80198" lon="3.84285">
        <ele>1142.66</ele>
        <time>2022-08-03T07:00:11Z</time>
      </trkpt>
      <trkpt lat="44.80193" lon="3.84306">
        <ele>1143.63</ele>
        <time>2022-08-03T07:00:26Z</time>
      </trkpt>
      <trkpt lat="44.80191" lon="3.84316">
        <ele>1144.11</ele>
        <time>2022-08-03T07:00:33Z</time>
      </trkpt>
      <trkpt lat="44.80182" lon="3.84336">
        <ele>1145.55</ele>
        <time>2022-08-03T07:00:49Z</time>
      </trkpt>
      <trkpt lat="44.8018" lon="3.84339">
        <ele>1146.03</ele>
        <time>2022-08-03T07:00:52Z</time>
      </trkpt>
      <trkpt lat="44.80167" lon="3.84359">
        <ele>1147.47</ele>
        <time>2022-08-03T07:01:09Z</time>
      </trkpt>
      <trkpt lat="44.80157" lon="3.84382">
        <ele>1148.91</ele>
        <time>2022-08-03T07:01:27Z</time>
      </trkpt>
      <trkpt lat="44.80148" lon="3.84402">
        <ele>1150.84</ele>
        <time>2022-08-03T07:01:41Z</time>
      </trkpt>
      <trkpt lat="44.80141" lon="3.8442">
        <ele>1151.32</ele>
        <time>2022-08-03T07:01:54Z</time>
      </trkpt>
      <trkpt lat="44.80134" lon="3.84441">
        <ele>1151.32</ele>
        <time>2022-08-03T07:02:09Z</time>
      </trkpt>
      <trkpt lat="44.80127" lon="3.84466">
        <ele>1152.28</ele>
        <time>2022-08-03T07:02:25Z</time>
      </trkpt>
      <trkpt lat="44.80121" lon="3.84494">
        <ele>1152.76</ele>
        <time>2022-08-03T07:02:43Z</time>
      </trkpt>
      <trkpt lat="44.80113" lon="3.84516">
        <ele>1152.76</ele>
        <time>2022-08-03T07:02:58Z</time>
      </trkpt>
      <trkpt lat="44.80103" lon="3.84543">
        <ele>1152.28</ele>
        <time>2022-08-03T07:03:15Z</time>
      </trkpt>
      <trkpt lat="44.80096" lon="3.8457">
        <ele>1152.28</ele>
        <time>2022-08-03T07:03:31Z</time>
      </trkpt>
      <trkpt lat="44.80093" lon="3.84601">
        <ele>1152.28</ele>
        <time>2022-08-03T07:03:48Z</time>
      </trkpt>
      <trkpt lat="44.80088" lon="3.84634">
        <ele>1151.32</ele>
        <time>2022-08-03T07:04:06Z</time>
      </trkpt>
      <trkpt lat="44.80081" lon="3.84659">
        <ele>1150.35</ele>
        <time>2022-08-03T07:04:21Z</time>
      </trkpt>
      <trkpt lat="44.80068" lon="3.84683">
        <ele>1148.91</ele>
        <time>2022-08-03T07:04:37Z</time>
      </trkpt>
      <trkpt lat="44.80065" lon="3.8471">
        <ele>1147.95</ele>
        <time>2022-08-03T07:04:52Z</time>
      </trkpt>
      <trkpt lat="44.80065" lon="3.84737">
        <ele>1147.95</ele>
        <time>2022-08-03T07:05:07Z</time>
      </trkpt>
      <trkpt lat="44.80064" lon="3.84766">
        <ele>1147.47</ele>
        <time>2022-08-03T07:05:23Z</time>
      </trkpt>
      <trkpt lat="44.80065" lon="3.84799">
        <ele>1146.51</ele>
        <time>2022-08-03T07:05:41Z</time>
      </trkpt>
      <trkpt lat="44.80067" lon="3.84825">
        <ele>1144.59</ele>
        <time>2022-08-03T07:05:55Z</time>
      </trkpt>
      <trkpt lat="44.80071" lon="3.84853">
        <ele>1143.63</ele>
        <time>2022-08-03T07:06:12Z</time>
      </trkpt>
      <trkpt lat="44.80073" lon="3.84887">
        <ele>1142.66</ele>
        <time>2022-08-03T07:06:29Z</time>
      </trkpt>
      <trkpt lat="44.80075" lon="3.84919">
        <ele>1143.14</ele>
        <time>2022-08-03T07:06:46Z</time>
      </trkpt>
      <trkpt lat="44.80077" lon="3.84951">
        <ele>1143.63</ele>
        <time>2022-08-03T07:07:04Z</time>
      </trkpt>
      <trkpt lat="44.80079" lon="3.84982">
        <ele>1142.18</ele>
        <time>2022-08-03T07:07:20Z</time>
      </trkpt>
      <trkpt lat="44.80079" lon="3.85013">
        <ele>1141.22</ele>
        <time>2022-08-03T07:07:36Z</time>
      </trkpt>
      <trkpt lat="44.80079" lon="3.85017">
        <ele>1141.7</ele>
        <time>2022-08-03T07:07:38Z</time>
      </trkpt>
      <trkpt lat="44.80072" lon="3.85047">
        <ele>1142.66</ele>
        <time>2022-08-03T07:07:55Z</time>
      </trkpt>
      <trkpt lat="44.80069" lon="3.85061">
        <ele>1143.63</ele>
        <time>2022-08-03T07:08:03Z</time>
      </trkpt>
      <trkpt lat="44.8007" lon="3.85089">
        <ele>1146.03</ele>
        <time>2022-08-03T07:08:20Z</time>
      </trkpt>
      <trkpt lat="44.8006" lon="3.8511">
        <ele>1147.95</ele>
        <time>2022-08-03T07:08:35Z</time>
      </trkpt>
      <trkpt lat="44.80047" lon="3.8513">
        <ele>1149.39</ele>
        <time>2022-08-03T07:08:51Z</time>
      </trkpt>
      <trkpt lat="44.80046" lon="3.85132">
        <ele>1149.87</ele>
        <time>2022-08-03T07:08:52Z</time>
      </trkpt>
      <trkpt lat="44.80042" lon="3.85137">
        <ele>1149.87</ele>
        <time>2022-08-03T07:08:58Z</time>
      </trkpt>
      <trkpt lat="44.80027" lon="3.85157">
        <ele>1150.35</ele>
        <time>2022-08-03T07:09:15Z</time>
      </trkpt>
      <trkpt lat="44.80011" lon="3.85167">
        <ele>1150.84</ele>
        <time>2022-08-03T07:09:30Z</time>
      </trkpt>
      <trkpt lat="44.79997" lon="3.85185">
        <ele>1151.32</ele>
        <time>2022-08-03T07:09:46Z</time>
      </trkpt>
      <trkpt lat="44.79984" lon="3.85204">
        <ele>1151.32</ele>
        <time>2022-08-03T07:10:02Z</time>
      </trkpt>
      <trkpt lat="44.79972" lon="3.85224">
        <ele>1151.32</ele>
        <time>2022-08-03T07:10:18Z</time>
      </trkpt>
      <trkpt lat="44.79959" lon="3.85244">
        <ele>1151.8</ele>
        <time>2022-08-03T07:10:34Z</time>
      </trkpt>
      <trkpt lat="44.79945" lon="3.85265">
        <ele>1154.2</ele>
        <time>2022-08-03T07:10:50Z</time>
      </trkpt>
      <trkpt lat="44.79927" lon="3.85285">
        <ele>1153.24</ele>
        <time>2022-08-03T07:11:08Z</time>
      </trkpt>
      <trkpt lat="44.79911" lon="3.85305">
        <ele>1152.76</ele>
        <time>2022-08-03T07:11:25Z</time>
      </trkpt>
      <trkpt lat="44.79907" lon="3.85309">
        <ele>1151.8</ele>
        <time>2022-08-03T07:11:29Z</time>
      </trkpt>
      <trkpt lat="44.79897" lon="3.85315">
        <ele>1150.35</ele>
        <time>2022-08-03T07:11:37Z</time>
      </trkpt>
      <trkpt lat="44.79878" lon="3.85327">
        <ele>1149.39</ele>
        <time>2022-08-03T07:11:52Z</time>
      </trkpt>
      <trkpt lat="44.79864" lon="3.85336">
        <ele>1148.43</ele>
        <time>2022-08-03T07:12:04Z</time>
      </trkpt>
      <trkpt lat="44.79857" lon="3.85342">
        <ele>1148.43</ele>
        <time>2022-08-03T07:12:10Z</time>
      </trkpt>
      <trkpt lat="44.79847" lon="3.85353">
        <ele>1149.39</ele>
        <time>2022-08-03T07:12:19Z</time>
      </trkpt>
      <trkpt lat="44.79845" lon="3.85364">
        <ele>1150.84</ele>
        <time>2022-08-03T07:12:24Z</time>
      </trkpt>
      <trkpt lat="44.79829" lon="3.85383">
        <ele>1155.16</ele>
        <time>2022-08-03T07:12:41Z</time>
      </trkpt>
      <trkpt lat="44.7981" lon="3.85397">
        <ele>1155.64</ele>
        <time>2022-08-03T07:12:57Z</time>
      </trkpt>
      <trkpt lat="44.79794" lon="3.85414">
        <ele>1156.12</ele>
        <time>2022-08-03T07:13:12Z</time>
      </trkpt>
      <trkpt lat="44.79782" lon="3.85425">
        <ele>1155.16</ele>
        <time>2022-08-03T07:13:23Z</time>
      </trkpt>
      <trkpt lat="44.79763" lon="3.85445">
        <ele>1156.12</ele>
        <time>2022-08-03T07:13:41Z</time>
      </trkpt>
      <trkpt lat="44.79749" lon="3.8546">
        <ele>1156.6</ele>
        <time>2022-08-03T07:13:55Z</time>
      </trkpt>
      <trkpt lat="44.79734" lon="3.85482">
        <ele>1158.53</ele>
        <time>2022-08-03T07:14:11Z</time>
      </trkpt>
      <trkpt lat="44.79721" lon="3.85506">
        <ele>1159.01</ele>
        <time>2022-08-03T07:14:27Z</time>
      </trkpt>
      <trkpt lat="44.79708" lon="3.85523">
        <ele>1160.45</ele>
        <time>2022-08-03T07:14:41Z</time>
      </trkpt>
      <trkpt lat="44.79689" lon="3.85536">
        <ele>1161.89</ele>
        <time>2022-08-03T07:14:58Z</time>
      </trkpt>
      <trkpt lat="44.79668" lon="3.85544">
        <ele>1160.93</ele>
        <time>2022-08-03T07:15:15Z</time>
      </trkpt>
      <trkpt lat="44.79665" lon="3.85546">
        <ele>1160.93</ele>
        <time>2022-08-03T07:15:18Z</time>
      </trkpt>
      <trkpt lat="44.79645" lon="3.85561">
        <ele>1160.45</ele>
        <time>2022-08-03T07:15:35Z</time>
      </trkpt>
      <trkpt lat="44.79627" lon="3.8558">
        <ele>1160.93</ele>
        <time>2022-08-03T07:15:51Z</time>
      </trkpt>
      <trkpt lat="44.79608" lon="3.85591">
        <ele>1160.45</ele>
        <time>2022-08-03T07:16:06Z</time>
      </trkpt>
      <trkpt lat="44.79589" lon="3.85607">
        <ele>1161.41</ele>
        <time>2022-08-03T07:16:22Z</time>
      </trkpt>
      <trkpt lat="44.79573" lon="3.85623">
        <ele>1162.37</ele>
        <time>2022-08-03T07:16:36Z</time>
      </trkpt>
      <trkpt lat="44.79554" lon="3.85633">
        <ele>1161.89</ele>
        <time>2022-08-03T07:16:52Z</time>
      </trkpt>
      <trkpt lat="44.79533" lon="3.85645">
        <ele>1161.89</ele>
        <time>2022-08-03T07:17:08Z</time>
      </trkpt>
      <trkpt lat="44.79515" lon="3.85659">
        <ele>1162.37</ele>
        <time>2022-08-03T07:17:24Z</time>
      </trkpt>
      <trkpt lat="44.79499" lon="3.8568">
        <ele>1161.89</ele>
        <time>2022-08-03T07:17:41Z</time>
      </trkpt>
      <trkpt lat="44.79483" lon="3.85705">
        <ele>1160.93</ele>
        <time>2022-08-03T07:17:59Z</time>
      </trkpt>
      <trkpt lat="44.79467" lon="3.85732">
        <ele>1160.93</ele>
        <time>2022-08-03T07:18:17Z</time>
      </trkpt>
      <trkpt lat="44.79455" lon="3.85751">
        <ele>1160.45</ele>
        <time>2022-08-03T07:18:31Z</time>
      </trkpt>
      <trkpt lat="44.79447" lon="3.85765">
        <ele>1160.93</ele>
        <time>2022-08-03T07:18:41Z</time>
      </trkpt>
      <trkpt lat="44.79433" lon="3.85789">
        <ele>1160.93</ele>
        <time>2022-08-03T07:18:57Z</time>
      </trkpt>
      <trkpt lat="44.79419" lon="3.85813">
        <ele>1159.97</ele>
        <time>2022-08-03T07:19:14Z</time>
      </trkpt>
      <trkpt lat="44.79401" lon="3.85836">
        <ele>1160.45</ele>
        <time>2022-08-03T07:19:32Z</time>
      </trkpt>
      <trkpt lat="44.79384" lon="3.85856">
        <ele>1160.45</ele>
        <time>2022-08-03T07:19:49Z</time>
      </trkpt>
      <trkpt lat="44.79366" lon="3.85871">
        <ele>1161.89</ele>
        <time>2022-08-03T07:20:06Z</time>
      </trkpt>
      <trkpt lat="44.79365" lon="3.85871">
        <ele>1161.89</ele>
        <time>2022-08-03T07:20:07Z</time>
      </trkpt>
      <trkpt lat="44.79362" lon="3.85873">
        <ele>1162.37</ele>
        <time>2022-08-03T07:20:10Z</time>
      </trkpt>
      <trkpt lat="44.79358" lon="3.85872">
        <ele>1162.37</ele>
        <time>2022-08-03T07:20:14Z</time>
      </trkpt>
      <trkpt lat="44.79338" lon="3.85873">
        <ele>1162.85</ele>
        <time>2022-08-03T07:20:30Z</time>
      </trkpt>
      <trkpt lat="44.79319" lon="3.85879">
        <ele>1165.74</ele>
        <time>2022-08-03T07:20:46Z</time>
      </trkpt>
      <trkpt lat="44.793" lon="3.85886">
        <ele>1167.18</ele>
        <time>2022-08-03T07:21:01Z</time>
      </trkpt>
      <trkpt lat="44.79279" lon="3.85891">
        <ele>1167.18</ele>
        <time>2022-08-03T07:21:17Z</time>
      </trkpt>
      <trkpt lat="44.79255" lon="3.85887">
        <ele>1165.74</ele>
        <time>2022-08-03T07:21:35Z</time>
      </trkpt>
      <trkpt lat="44.7923" lon="3.85876">
        <ele>1167.18</ele>
        <time>2022-08-03T07:21:55Z</time>
      </trkpt>
      <trkpt lat="44.79206" lon="3.85874">
        <ele>1163.81</ele>
        <time>2022-08-03T07:22:12Z</time>
      </trkpt>
      <trkpt lat="44.79188" lon="3.85875">
        <ele>1164.29</ele>
        <time>2022-08-03T07:22:25Z</time>
      </trkpt>
      <trkpt lat="44.79168" lon="3.85878">
        <ele>1164.77</ele>
        <time>2022-08-03T07:22:40Z</time>
      </trkpt>
      <trkpt lat="44.7915" lon="3.8588">
        <ele>1166.22</ele>
        <time>2022-08-03T07:22:54Z</time>
      </trkpt>
      <trkpt lat="44.79136" lon="3.85886">
        <ele>1167.18</ele>
        <time>2022-08-03T07:23:04Z</time>
      </trkpt>
      <trkpt lat="44.79131" lon="3.85891">
        <ele>1167.18</ele>
        <time>2022-08-03T07:23:08Z</time>
      </trkpt>
      <trkpt lat="44.79123" lon="3.85896">
        <ele>1167.18</ele>
        <time>2022-08-03T07:23:16Z</time>
      </trkpt>
      <trkpt lat="44.79102" lon="3.85906">
        <ele>1167.66</ele>
        <time>2022-08-03T07:23:33Z</time>
      </trkpt>
      <trkpt lat="44.79083" lon="3.8591">
        <ele>1168.14</ele>
        <time>2022-08-03T07:23:48Z</time>
      </trkpt>
      <trkpt lat="44.79081" lon="3.85911">
        <ele>1168.14</ele>
        <time>2022-08-03T07:23:50Z</time>
      </trkpt>
      <trkpt lat="44.79064" lon="3.85915">
        <ele>1168.62</ele>
        <time>2022-08-03T07:24:02Z</time>
      </trkpt>
      <trkpt lat="44.79062" lon="3.85915">
        <ele>1168.62</ele>
        <time>2022-08-03T07:24:04Z</time>
      </trkpt>
      <trkpt lat="44.79056" lon="3.85914">
        <ele>1169.58</ele>
        <time>2022-08-03T07:24:08Z</time>
      </trkpt>
      <trkpt lat="44.79048" lon="3.85915">
        <ele>1170.06</ele>
        <time>2022-08-03T07:24:13Z</time>
      </trkpt>
      <trkpt lat="44.79039" lon="3.8592">
        <ele>1170.54</ele>
        <time>2022-08-03T07:24:19Z</time>
      </trkpt>
      <trkpt lat="44.79019" lon="3.8593">
        <ele>1169.1</ele>
        <time>2022-08-03T07:24:34Z</time>
      </trkpt>
      <trkpt lat="44.79018" lon="3.85931">
        <ele>1168.62</ele>
        <time>2022-08-03T07:24:35Z</time>
      </trkpt>
      <trkpt lat="44.79007" lon="3.85939">
        <ele>1168.14</ele>
        <time>2022-08-03T07:24:45Z</time>
      </trkpt>
      <trkpt lat="44.78987" lon="3.85954">
        <ele>1167.18</ele>
        <time>2022-08-03T07:25:02Z</time>
      </trkpt>
      <trkpt lat="44.78969" lon="3.85969">
        <ele>1167.18</ele>
        <time>2022-08-03T07:25:18Z</time>
      </trkpt>
      <trkpt lat="44.78962" lon="3.85994">
        <ele>1166.7</ele>
        <time>2022-08-03T07:25:32Z</time>
      </trkpt>
      <trkpt lat="44.78963" lon="3.8603">
        <ele>1164.29</ele>
        <time>2022-08-03T07:25:49Z</time>
      </trkpt>
      <trkpt lat="44.78962" lon="3.86059">
        <ele>1165.26</ele>
        <time>2022-08-03T07:26:04Z</time>
      </trkpt>
      <trkpt lat="44.78951" lon="3.86084">
        <ele>1161.89</ele>
        <time>2022-08-03T07:26:21Z</time>
      </trkpt>
      <trkpt lat="44.78945" lon="3.86094">
        <ele>1160.93</ele>
        <time>2022-08-03T07:26:28Z</time>
      </trkpt>
      <trkpt lat="44.78929" lon="3.861">
        <ele>1159.49</ele>
        <time>2022-08-03T07:26:43Z</time>
      </trkpt>
      <trkpt lat="44.78916" lon="3.8608">
        <ele>1158.05</ele>
        <time>2022-08-03T07:27:00Z</time>
      </trkpt>
      <trkpt lat="44.78902" lon="3.86064">
        <ele>1158.53</ele>
        <time>2022-08-03T07:27:15Z</time>
      </trkpt>
      <trkpt lat="44.78886" lon="3.86047">
        <ele>1158.53</ele>
        <time>2022-08-03T07:27:31Z</time>
      </trkpt>
      <trkpt lat="44.78872" lon="3.86044">
        <ele>1158.05</ele>
        <time>2022-08-03T07:27:41Z</time>
      </trkpt>
      <trkpt lat="44.78858" lon="3.86058">
        <ele>1159.97</ele>
        <time>2022-08-03T07:27:56Z</time>
      </trkpt>
      <trkpt lat="44.78852" lon="3.86065">
        <ele>1160.45</ele>
        <time>2022-08-03T07:28:03Z</time>
      </trkpt>
      <trkpt lat="44.78845" lon="3.86072">
        <ele>1160.93</ele>
        <time>2022-08-03T07:28:12Z</time>
      </trkpt>
      <trkpt lat="44.78832" lon="3.86082">
        <ele>1162.85</ele>
        <time>2022-08-03T07:28:28Z</time>
      </trkpt>
      <trkpt lat="44.78822" lon="3.86091">
        <ele>1166.22</ele>
        <time>2022-08-03T07:28:43Z</time>
      </trkpt>
      <trkpt lat="44.78809" lon="3.86099">
        <ele>1169.58</ele>
        <time>2022-08-03T07:29:00Z</time>
      </trkpt>
      <trkpt lat="44.78795" lon="3.8611">
        <ele>1171.02</ele>
        <time>2022-08-03T07:29:16Z</time>
      </trkpt>
      <trkpt lat="44.7879" lon="3.86115">
        <ele>1171.98</ele>
        <time>2022-08-03T07:29:23Z</time>
      </trkpt>
      <trkpt lat="44.78776" lon="3.86122">
        <ele>1176.31</ele>
        <time>2022-08-03T07:29:39Z</time>
      </trkpt>
      <trkpt lat="44.78761" lon="3.86132">
        <ele>1179.67</ele>
        <time>2022-08-03T07:29:56Z</time>
      </trkpt>
      <trkpt lat="44.78746" lon="3.86143">
        <ele>1183.04</ele>
        <time>2022-08-03T07:30:12Z</time>
      </trkpt>
      <trkpt lat="44.78734" lon="3.86154">
        <ele>1184.48</ele>
        <time>2022-08-03T07:30:26Z</time>
      </trkpt>
      <trkpt lat="44.78719" lon="3.86169">
        <ele>1185.92</ele>
        <time>2022-08-03T07:30:42Z</time>
      </trkpt>
      <trkpt lat="44.78709" lon="3.86189">
        <ele>1184.48</ele>
        <time>2022-08-03T07:30:57Z</time>
      </trkpt>
      <trkpt lat="44.78698" lon="3.86207">
        <ele>1183.04</ele>
        <time>2022-08-03T07:31:11Z</time>
      </trkpt>
      <trkpt lat="44.7869" lon="3.86226">
        <ele>1183.52</ele>
        <time>2022-08-03T07:31:25Z</time>
      </trkpt>
      <trkpt lat="44.78686" lon="3.86234">
        <ele>1183.52</ele>
        <time>2022-08-03T07:31:31Z</time>
      </trkpt>
      <trkpt lat="44.78677" lon="3.86259">
        <ele>1185.44</ele>
        <time>2022-08-03T07:31:48Z</time>
      </trkpt>
      <trkpt lat="44.7867" lon="3.8628">
        <ele>1186.4</ele>
        <time>2022-08-03T07:32:02Z</time>
      </trkpt>
      <trkpt lat="44.78662" lon="3.863">
        <ele>1188.33</ele>
        <time>2022-08-03T07:32:17Z</time>
      </trkpt>
      <trkpt lat="44.78652" lon="3.86322">
        <ele>1191.21</ele>
        <time>2022-08-03T07:32:34Z</time>
      </trkpt>
      <trkpt lat="44.78645" lon="3.86342">
        <ele>1194.09</ele>
        <time>2022-08-03T07:32:49Z</time>
      </trkpt>
      <trkpt lat="44.78644" lon="3.86346">
        <ele>1194.09</ele>
        <time>2022-08-03T07:32:52Z</time>
      </trkpt>
      <trkpt lat="44.78642" lon="3.86349">
        <ele>1194.58</ele>
        <time>2022-08-03T07:32:55Z</time>
      </trkpt>
      <trkpt lat="44.78629" lon="3.86372">
        <ele>1195.54</ele>
        <time>2022-08-03T07:33:13Z</time>
      </trkpt>
      <trkpt lat="44.78621" lon="3.86395">
        <ele>1198.9</ele>
        <time>2022-08-03T07:33:30Z</time>
      </trkpt>
      <trkpt lat="44.78613" lon="3.86413">
        <ele>1200.82</ele>
        <time>2022-08-03T07:33:45Z</time>
      </trkpt>
      <trkpt lat="44.78602" lon="3.86433">
        <ele>1202.75</ele>
        <time>2022-08-03T07:34:01Z</time>
      </trkpt>
      <trkpt lat="44.78592" lon="3.86451">
        <ele>1205.15</ele>
        <time>2022-08-03T07:34:16Z</time>
      </trkpt>
      <trkpt lat="44.78581" lon="3.86471">
        <ele>1208.03</ele>
        <time>2022-08-03T07:34:33Z</time>
      </trkpt>
      <trkpt lat="44.78571" lon="3.86492">
        <ele>1210.44</ele>
        <time>2022-08-03T07:34:49Z</time>
      </trkpt>
      <trkpt lat="44.78567" lon="3.865">
        <ele>1211.4</ele>
        <time>2022-08-03T07:34:56Z</time>
      </trkpt>
      <trkpt lat="44.78555" lon="3.86518">
        <ele>1212.84</ele>
        <time>2022-08-03T07:35:13Z</time>
      </trkpt>
      <trkpt lat="44.78554" lon="3.86519">
        <ele>1213.32</ele>
        <time>2022-08-03T07:35:15Z</time>
      </trkpt>
      <trkpt lat="44.78553" lon="3.86523">
        <ele>1213.32</ele>
        <time>2022-08-03T07:35:18Z</time>
      </trkpt>
      <trkpt lat="44.78547" lon="3.86538">
        <ele>1213.8</ele>
        <time>2022-08-03T07:35:29Z</time>
      </trkpt>
      <trkpt lat="44.78547" lon="3.86544">
        <ele>1214.28</ele>
        <time>2022-08-03T07:35:33Z</time>
      </trkpt>
      <trkpt lat="44.78542" lon="3.86568">
        <ele>1214.76</ele>
        <time>2022-08-03T07:35:48Z</time>
      </trkpt>
      <trkpt lat="44.78539" lon="3.86574">
        <ele>1215.24</ele>
        <time>2022-08-03T07:36:02Z</time>
      </trkpt>
      <trkpt lat="44.78537" lon="3.86581">
        <ele>1215.24</ele>
        <time>2022-08-03T07:36:32Z</time>
      </trkpt>
      <trkpt lat="44.78536" lon="3.86581">
        <ele>1215.72</ele>
        <time>2022-08-03T07:36:45Z</time>
      </trkpt>
      <trkpt lat="44.78536" lon="3.86584">
        <ele>1216.21</ele>
        <time>2022-08-03T07:37:16Z</time>
      </trkpt>
      <trkpt lat="44.78522" lon="3.86601">
        <ele>1216.69</ele>
        <time>2022-08-03T07:37:32Z</time>
      </trkpt>
      <trkpt lat="44.78507" lon="3.86618">
        <ele>1217.17</ele>
        <time>2022-08-03T07:37:47Z</time>
      </trkpt>
      <trkpt lat="44.78492" lon="3.86637">
        <ele>1217.65</ele>
        <time>2022-08-03T07:38:03Z</time>
      </trkpt>
      <trkpt lat="44.78476" lon="3.86657">
        <ele>1217.17</ele>
        <time>2022-08-03T07:38:21Z</time>
      </trkpt>
      <trkpt lat="44.78459" lon="3.86677">
        <ele>1218.61</ele>
        <time>2022-08-03T07:38:39Z</time>
      </trkpt>
      <trkpt lat="44.78445" lon="3.86694">
        <ele>1218.61</ele>
        <time>2022-08-03T07:38:54Z</time>
      </trkpt>
      <trkpt lat="44.78432" lon="3.86714">
        <ele>1219.57</ele>
        <time>2022-08-03T07:39:10Z</time>
      </trkpt>
      <trkpt lat="44.78418" lon="3.86731">
        <ele>1220.05</ele>
        <time>2022-08-03T07:39:25Z</time>
      </trkpt>
      <trkpt lat="44.78414" lon="3.86736">
        <ele>1220.05</ele>
        <time>2022-08-03T07:39:29Z</time>
      </trkpt>
      <trkpt lat="44.78399" lon="3.86755">
        <ele>1220.53</ele>
        <time>2022-08-03T07:39:46Z</time>
      </trkpt>
      <trkpt lat="44.78387" lon="3.86777">
        <ele>1221.97</ele>
        <time>2022-08-03T07:40:02Z</time>
      </trkpt>
      <trkpt lat="44.78382" lon="3.86787">
        <ele>1221.97</ele>
        <time>2022-08-03T07:40:10Z</time>
      </trkpt>
      <trkpt lat="44.78379" lon="3.8679">
        <ele>1221.97</ele>
        <time>2022-08-03T07:40:13Z</time>
      </trkpt>
      <trkpt lat="44.78372" lon="3.868">
        <ele>1223.9</ele>
        <time>2022-08-03T07:40:21Z</time>
      </trkpt>
      <trkpt lat="44.78364" lon="3.86826">
        <ele>1225.82</ele>
        <time>2022-08-03T07:40:37Z</time>
      </trkpt>
      <trkpt lat="44.78363" lon="3.86829">
        <ele>1226.3</ele>
        <time>2022-08-03T07:40:39Z</time>
      </trkpt>
      <trkpt lat="44.7835" lon="3.86852">
        <ele>1227.26</ele>
        <time>2022-08-03T07:40:56Z</time>
      </trkpt>
      <trkpt lat="44.7834" lon="3.86875">
        <ele>1228.7</ele>
        <time>2022-08-03T07:41:12Z</time>
      </trkpt>
      <trkpt lat="44.78331" lon="3.86899">
        <ele>1229.18</ele>
        <time>2022-08-03T07:41:28Z</time>
      </trkpt>
      <trkpt lat="44.78319" lon="3.86918">
        <ele>1231.59</ele>
        <time>2022-08-03T07:41:45Z</time>
      </trkpt>
      <trkpt lat="44.78307" lon="3.8694">
        <ele>1233.03</ele>
        <time>2022-08-03T07:42:01Z</time>
      </trkpt>
      <trkpt lat="44.78297" lon="3.86957">
        <ele>1233.99</ele>
        <time>2022-08-03T07:42:14Z</time>
      </trkpt>
      <trkpt lat="44.78286" lon="3.86975">
        <ele>1234.95</ele>
        <time>2022-08-03T07:42:28Z</time>
      </trkpt>
      <trkpt lat="44.78271" lon="3.87001">
        <ele>1235.91</ele>
        <time>2022-08-03T07:42:45Z</time>
      </trkpt>
      <trkpt lat="44.78264" lon="3.87021">
        <ele>1234.95</ele>
        <time>2022-08-03T07:42:58Z</time>
      </trkpt>
      <trkpt lat="44.78254" lon="3.87044">
        <ele>1234.47</ele>
        <time>2022-08-03T07:43:13Z</time>
      </trkpt>
      <trkpt lat="44.78247" lon="3.87071">
        <ele>1234.95</ele>
        <time>2022-08-03T07:43:30Z</time>
      </trkpt>
      <trkpt lat="44.7824" lon="3.87098">
        <ele>1233.03</ele>
        <time>2022-08-03T07:43:45Z</time>
      </trkpt>
      <trkpt lat="44.78245" lon="3.87128">
        <ele>1231.11</ele>
        <time>2022-08-03T07:44:01Z</time>
      </trkpt>
      <trkpt lat="44.78253" lon="3.87152">
        <ele>1229.66</ele>
        <time>2022-08-03T07:44:16Z</time>
      </trkpt>
      <trkpt lat="44.78266" lon="3.87179">
        <ele>1228.7</ele>
        <time>2022-08-03T07:44:34Z</time>
      </trkpt>
      <trkpt lat="44.78277" lon="3.87204">
        <ele>1228.22</ele>
        <time>2022-08-03T07:44:50Z</time>
      </trkpt>
      <trkpt lat="44.78286" lon="3.87224">
        <ele>1228.22</ele>
        <time>2022-08-03T07:45:04Z</time>
      </trkpt>
      <trkpt lat="44.78298" lon="3.87242">
        <ele>1226.3</ele>
        <time>2022-08-03T07:45:19Z</time>
      </trkpt>
      <trkpt lat="44.78305" lon="3.87258">
        <ele>1225.82</ele>
        <time>2022-08-03T07:45:29Z</time>
      </trkpt>
      <trkpt lat="44.78308" lon="3.87265">
        <ele>1226.3</ele>
        <time>2022-08-03T07:45:33Z</time>
      </trkpt>
      <trkpt lat="44.78309" lon="3.87268">
        <ele>1226.3</ele>
        <time>2022-08-03T07:45:35Z</time>
      </trkpt>
      <trkpt lat="44.78312" lon="3.87277">
        <ele>1227.74</ele>
        <time>2022-08-03T07:45:41Z</time>
      </trkpt>
      <trkpt lat="44.78314" lon="3.87283">
        <ele>1227.74</ele>
        <time>2022-08-03T07:45:45Z</time>
      </trkpt>
      <trkpt lat="44.78323" lon="3.87307">
        <ele>1230.14</ele>
        <time>2022-08-03T07:46:01Z</time>
      </trkpt>
      <trkpt lat="44.78333" lon="3.8733">
        <ele>1230.14</ele>
        <time>2022-08-03T07:46:17Z</time>
      </trkpt>
      <trkpt lat="44.78342" lon="3.87355">
        <ele>1229.66</ele>
        <time>2022-08-03T07:46:34Z</time>
      </trkpt>
      <trkpt lat="44.78343" lon="3.87361">
        <ele>1230.62</ele>
        <time>2022-08-03T07:46:38Z</time>
      </trkpt>
      <trkpt lat="44.78351" lon="3.87381">
        <ele>1233.99</ele>
        <time>2022-08-03T07:46:53Z</time>
      </trkpt>
      <trkpt lat="44.78358" lon="3.8739">
        <ele>1234.47</ele>
        <time>2022-08-03T07:47:02Z</time>
      </trkpt>
      <trkpt lat="44.78372" lon="3.87401">
        <ele>1234.47</ele>
        <time>2022-08-03T07:47:16Z</time>
      </trkpt>
      <trkpt lat="44.7839" lon="3.87417">
        <ele>1236.39</ele>
        <time>2022-08-03T07:47:32Z</time>
      </trkpt>
      <trkpt lat="44.78404" lon="3.87435">
        <ele>1240.72</ele>
        <time>2022-08-03T07:47:47Z</time>
      </trkpt>
      <trkpt lat="44.78418" lon="3.87457">
        <ele>1242.64</ele>
        <time>2022-08-03T07:48:04Z</time>
      </trkpt>
      <trkpt lat="44.78434" lon="3.87474">
        <ele>1242.64</ele>
        <time>2022-08-03T07:48:20Z</time>
      </trkpt>
      <trkpt lat="44.78449" lon="3.87488">
        <ele>1244.08</ele>
        <time>2022-08-03T07:48:35Z</time>
      </trkpt>
      <trkpt lat="44.78466" lon="3.87502">
        <ele>1242.64</ele>
        <time>2022-08-03T07:48:51Z</time>
      </trkpt>
      <trkpt lat="44.78469" lon="3.87505">
        <ele>1242.16</ele>
        <time>2022-08-03T07:48:54Z</time>
      </trkpt>
      <trkpt lat="44.78484" lon="3.8751">
        <ele>1240.24</ele>
        <time>2022-08-03T07:49:06Z</time>
      </trkpt>
      <trkpt lat="44.78486" lon="3.87514">
        <ele>1239.76</ele>
        <time>2022-08-03T07:49:11Z</time>
      </trkpt>
      <trkpt lat="44.78474" lon="3.87527">
        <ele>1238.32</ele>
        <time>2022-08-03T07:49:24Z</time>
      </trkpt>
      <trkpt lat="44.78451" lon="3.87529">
        <ele>1237.83</ele>
        <time>2022-08-03T07:49:41Z</time>
      </trkpt>
      <trkpt lat="44.78428" lon="3.87529">
        <ele>1237.35</ele>
        <time>2022-08-03T07:49:59Z</time>
      </trkpt>
      <trkpt lat="44.78424" lon="3.8753">
        <ele>1237.35</ele>
        <time>2022-08-03T07:50:02Z</time>
      </trkpt>
      <trkpt lat="44.78418" lon="3.87533">
        <ele>1236.87</ele>
        <time>2022-08-03T07:50:07Z</time>
      </trkpt>
      <trkpt lat="44.78395" lon="3.87539">
        <ele>1237.35</ele>
        <time>2022-08-03T07:50:25Z</time>
      </trkpt>
      <trkpt lat="44.78374" lon="3.87547">
        <ele>1238.32</ele>
        <time>2022-08-03T07:50:42Z</time>
      </trkpt>
      <trkpt lat="44.78354" lon="3.87559">
        <ele>1236.39</ele>
        <time>2022-08-03T07:50:58Z</time>
      </trkpt>
      <trkpt lat="44.78338" lon="3.87569">
        <ele>1234.95</ele>
        <time>2022-08-03T07:51:11Z</time>
      </trkpt>
      <trkpt lat="44.78321" lon="3.87584">
        <ele>1235.91</ele>
        <time>2022-08-03T07:51:27Z</time>
      </trkpt>
      <trkpt lat="44.78304" lon="3.87606">
        <ele>1232.55</ele>
        <time>2022-08-03T07:51:43Z</time>
      </trkpt>
      <trkpt lat="44.78288" lon="3.87622">
        <ele>1231.11</ele>
        <time>2022-08-03T07:51:58Z</time>
      </trkpt>
      <trkpt lat="44.78267" lon="3.87637">
        <ele>1230.62</ele>
        <time>2022-08-03T07:52:16Z</time>
      </trkpt>
      <trkpt lat="44.78248" lon="3.87647">
        <ele>1231.11</ele>
        <time>2022-08-03T07:52:32Z</time>
      </trkpt>
      <trkpt lat="44.78234" lon="3.87653">
        <ele>1232.07</ele>
        <time>2022-08-03T07:52:43Z</time>
      </trkpt>
      <trkpt lat="44.7821" lon="3.87659">
        <ele>1232.55</ele>
        <time>2022-08-03T07:53:02Z</time>
      </trkpt>
      <trkpt lat="44.78189" lon="3.87668">
        <ele>1229.66</ele>
        <time>2022-08-03T07:53:18Z</time>
      </trkpt>
      <trkpt lat="44.78169" lon="3.87675">
        <ele>1228.22</ele>
        <time>2022-08-03T07:53:34Z</time>
      </trkpt>
      <trkpt lat="44.78148" lon="3.87683">
        <ele>1227.74</ele>
        <time>2022-08-03T07:53:50Z</time>
      </trkpt>
      <trkpt lat="44.78129" lon="3.87686">
        <ele>1225.34</ele>
        <time>2022-08-03T07:54:05Z</time>
      </trkpt>
      <trkpt lat="44.78109" lon="3.87687">
        <ele>1222.93</ele>
        <time>2022-08-03T07:54:21Z</time>
      </trkpt>
      <trkpt lat="44.78088" lon="3.87702">
        <ele>1216.21</ele>
        <time>2022-08-03T07:54:39Z</time>
      </trkpt>
      <trkpt lat="44.78068" lon="3.87726">
        <ele>1211.88</ele>
        <time>2022-08-03T07:54:57Z</time>
      </trkpt>
      <trkpt lat="44.78047" lon="3.87755">
        <ele>1208.03</ele>
        <time>2022-08-03T07:55:18Z</time>
      </trkpt>
      <trkpt lat="44.78028" lon="3.87772">
        <ele>1204.19</ele>
        <time>2022-08-03T07:55:35Z</time>
      </trkpt>
      <trkpt lat="44.78012" lon="3.87791">
        <ele>1202.27</ele>
        <time>2022-08-03T07:55:50Z</time>
      </trkpt>
      <trkpt lat="44.77996" lon="3.87819">
        <ele>1200.82</ele>
        <time>2022-08-03T07:56:09Z</time>
      </trkpt>
      <trkpt lat="44.7799" lon="3.87834">
        <ele>1199.86</ele>
        <time>2022-08-03T07:56:18Z</time>
      </trkpt>
      <trkpt lat="44.77987" lon="3.87836">
        <ele>1199.86</ele>
        <time>2022-08-03T07:56:20Z</time>
      </trkpt>
      <trkpt lat="44.77969" lon="3.87846">
        <ele>1200.34</ele>
        <time>2022-08-03T07:56:35Z</time>
      </trkpt>
      <trkpt lat="44.77951" lon="3.87853">
        <ele>1202.75</ele>
        <time>2022-08-03T07:56:48Z</time>
      </trkpt>
      <trkpt lat="44.77932" lon="3.87851">
        <ele>1201.3</ele>
        <time>2022-08-03T07:57:05Z</time>
      </trkpt>
      <trkpt lat="44.77923" lon="3.87851">
        <ele>1197.94</ele>
        <time>2022-08-03T07:57:20Z</time>
      </trkpt>
      <trkpt lat="44.77904" lon="3.87865">
        <ele>1195.54</ele>
        <time>2022-08-03T07:57:36Z</time>
      </trkpt>
      <trkpt lat="44.7789" lon="3.87893">
        <ele>1191.21</ele>
        <time>2022-08-03T07:57:52Z</time>
      </trkpt>
      <trkpt lat="44.77878" lon="3.87917">
        <ele>1186.88</ele>
        <time>2022-08-03T07:58:07Z</time>
      </trkpt>
      <trkpt lat="44.77863" lon="3.87942">
        <ele>1183.52</ele>
        <time>2022-08-03T07:58:24Z</time>
      </trkpt>
      <trkpt lat="44.77848" lon="3.8797">
        <ele>1180.64</ele>
        <time>2022-08-03T07:58:43Z</time>
      </trkpt>
      <trkpt lat="44.77833" lon="3.87997">
        <ele>1177.75</ele>
        <time>2022-08-03T07:59:02Z</time>
      </trkpt>
      <trkpt lat="44.77821" lon="3.88017">
        <ele>1175.83</ele>
        <time>2022-08-03T07:59:17Z</time>
      </trkpt>
      <trkpt lat="44.77817" lon="3.88023">
        <ele>1175.35</ele>
        <time>2022-08-03T07:59:21Z</time>
      </trkpt>
      <trkpt lat="44.77801" lon="3.88048">
        <ele>1171.5</ele>
        <time>2022-08-03T07:59:40Z</time>
      </trkpt>
      <trkpt lat="44.77786" lon="3.88071">
        <ele>1167.66</ele>
        <time>2022-08-03T07:59:58Z</time>
      </trkpt>
      <trkpt lat="44.77768" lon="3.88092">
        <ele>1165.74</ele>
        <time>2022-08-03T08:00:15Z</time>
      </trkpt>
      <trkpt lat="44.77753" lon="3.88111">
        <ele>1162.37</ele>
        <time>2022-08-03T08:00:31Z</time>
      </trkpt>
      <trkpt lat="44.77736" lon="3.88129">
        <ele>1158.05</ele>
        <time>2022-08-03T08:00:48Z</time>
      </trkpt>
      <trkpt lat="44.77723" lon="3.88148">
        <ele>1154.68</ele>
        <time>2022-08-03T08:01:02Z</time>
      </trkpt>
      <trkpt lat="44.77719" lon="3.88158">
        <ele>1152.28</ele>
        <time>2022-08-03T08:01:09Z</time>
      </trkpt>
      <trkpt lat="44.77708" lon="3.88185">
        <ele>1149.39</ele>
        <time>2022-08-03T08:01:26Z</time>
      </trkpt>
      <trkpt lat="44.77697" lon="3.88213">
        <ele>1149.39</ele>
        <time>2022-08-03T08:01:43Z</time>
      </trkpt>
      <trkpt lat="44.77689" lon="3.88234">
        <ele>1147.95</ele>
        <time>2022-08-03T08:01:56Z</time>
      </trkpt>
      <trkpt lat="44.77672" lon="3.8826">
        <ele>1147.47</ele>
        <time>2022-08-03T08:02:13Z</time>
      </trkpt>
      <trkpt lat="44.77667" lon="3.88272">
        <ele>1146.99</ele>
        <time>2022-08-03T08:02:21Z</time>
      </trkpt>
      <trkpt lat="44.77663" lon="3.88283">
        <ele>1146.99</ele>
        <time>2022-08-03T08:02:28Z</time>
      </trkpt>
      <trkpt lat="44.77656" lon="3.88298">
        <ele>1145.07</ele>
        <time>2022-08-03T08:02:37Z</time>
      </trkpt>
      <trkpt lat="44.77648" lon="3.88306">
        <ele>1144.59</ele>
        <time>2022-08-03T08:02:47Z</time>
      </trkpt>
      <trkpt lat="44.77628" lon="3.883">
        <ele>1146.99</ele>
        <time>2022-08-03T08:03:04Z</time>
      </trkpt>
      <trkpt lat="44.77611" lon="3.88287">
        <ele>1147.95</ele>
        <time>2022-08-03T08:03:20Z</time>
      </trkpt>
      <trkpt lat="44.776" lon="3.88264">
        <ele>1146.51</ele>
        <time>2022-08-03T08:03:35Z</time>
      </trkpt>
      <trkpt lat="44.77588" lon="3.88239">
        <ele>1146.03</ele>
        <time>2022-08-03T08:03:51Z</time>
      </trkpt>
      <trkpt lat="44.7757" lon="3.88215">
        <ele>1144.59</ele>
        <time>2022-08-03T08:04:09Z</time>
      </trkpt>
      <trkpt lat="44.77544" lon="3.88195">
        <ele>1145.07</ele>
        <time>2022-08-03T08:04:30Z</time>
      </trkpt>
      <trkpt lat="44.77526" lon="3.88181">
        <ele>1146.03</ele>
        <time>2022-08-03T08:04:46Z</time>
      </trkpt>
      <trkpt lat="44.77506" lon="3.88168">
        <ele>1145.07</ele>
        <time>2022-08-03T08:05:05Z</time>
      </trkpt>
      <trkpt lat="44.77508" lon="3.88169">
        <ele>1146.03</ele>
        <time>2022-08-03T08:05:18Z</time>
      </trkpt>
      <trkpt lat="44.77506" lon="3.88168">
        <ele>1144.59</ele>
        <time>2022-08-03T08:05:35Z</time>
      </trkpt>
      <trkpt lat="44.77502" lon="3.88174">
        <ele>1144.59</ele>
        <time>2022-08-03T08:05:47Z</time>
      </trkpt>
      <trkpt lat="44.77484" lon="3.88191">
        <ele>1145.55</ele>
        <time>2022-08-03T08:06:07Z</time>
      </trkpt>
      <trkpt lat="44.77474" lon="3.882">
        <ele>1146.99</ele>
        <time>2022-08-03T08:06:16Z</time>
      </trkpt>
      <trkpt lat="44.7745" lon="3.88222">
        <ele>1150.84</ele>
        <time>2022-08-03T08:06:38Z</time>
      </trkpt>
      <trkpt lat="44.77428" lon="3.88247">
        <ele>1153.72</ele>
        <time>2022-08-03T08:07:01Z</time>
      </trkpt>
      <trkpt lat="44.77408" lon="3.88268">
        <ele>1156.6</ele>
        <time>2022-08-03T08:07:22Z</time>
      </trkpt>
      <trkpt lat="44.77383" lon="3.88283">
        <ele>1159.97</ele>
        <time>2022-08-03T08:07:44Z</time>
      </trkpt>
      <trkpt lat="44.77358" lon="3.88288">
        <ele>1160.45</ele>
        <time>2022-08-03T08:08:05Z</time>
      </trkpt>
      <trkpt lat="44.77325" lon="3.88285">
        <ele>1159.01</ele>
        <time>2022-08-03T08:08:29Z</time>
      </trkpt>
      <trkpt lat="44.77299" lon="3.88289">
        <ele>1159.49</ele>
        <time>2022-08-03T08:08:50Z</time>
      </trkpt>
      <trkpt lat="44.77281" lon="3.88307">
        <ele>1162.85</ele>
        <time>2022-08-03T08:09:09Z</time>
      </trkpt>
      <trkpt lat="44.77259" lon="3.88323">
        <ele>1163.81</ele>
        <time>2022-08-03T08:09:29Z</time>
      </trkpt>
      <trkpt lat="44.77241" lon="3.88329">
        <ele>1163.81</ele>
        <time>2022-08-03T08:09:46Z</time>
      </trkpt>
      <trkpt lat="44.77213" lon="3.88344">
        <ele>1164.77</ele>
        <time>2022-08-03T08:10:08Z</time>
      </trkpt>
      <trkpt lat="44.77191" lon="3.88353">
        <ele>1166.7</ele>
        <time>2022-08-03T08:10:25Z</time>
      </trkpt>
      <trkpt lat="44.77167" lon="3.88359">
        <ele>1168.62</ele>
        <time>2022-08-03T08:10:44Z</time>
      </trkpt>
      <trkpt lat="44.77158" lon="3.88356">
        <ele>1165.74</ele>
        <time>2022-08-03T08:10:57Z</time>
      </trkpt>
      <trkpt lat="44.77166" lon="3.88366">
        <ele>1165.74</ele>
        <time>2022-08-03T08:11:08Z</time>
      </trkpt>
      <trkpt lat="44.77164" lon="3.8838">
        <ele>1165.74</ele>
        <time>2022-08-03T08:11:18Z</time>
      </trkpt>
      <trkpt lat="44.77158" lon="3.8839">
        <ele>1165.26</ele>
        <time>2022-08-03T08:11:33Z</time>
      </trkpt>
      <trkpt lat="44.77157" lon="3.88386">
        <ele>1165.26</ele>
        <time>2022-08-03T08:11:59Z</time>
      </trkpt>
      <trkpt lat="44.77142" lon="3.88379">
        <ele>1163.81</ele>
        <time>2022-08-03T08:12:13Z</time>
      </trkpt>
      <trkpt lat="44.77114" lon="3.88363">
        <ele>1160.93</ele>
        <time>2022-08-03T08:12:35Z</time>
      </trkpt>
      <trkpt lat="44.77089" lon="3.8835">
        <ele>1159.49</ele>
        <time>2022-08-03T08:12:56Z</time>
      </trkpt>
      <trkpt lat="44.77062" lon="3.88331">
        <ele>1159.01</ele>
        <time>2022-08-03T08:13:18Z</time>
      </trkpt>
      <trkpt lat="44.77039" lon="3.88317">
        <ele>1159.01</ele>
        <time>2022-08-03T08:13:38Z</time>
      </trkpt>
      <trkpt lat="44.77022" lon="3.88308">
        <ele>1166.7</ele>
        <time>2022-08-03T08:13:49Z</time>
      </trkpt>
      <trkpt lat="44.77017" lon="3.8831">
        <ele>1164.77</ele>
        <time>2022-08-03T08:13:53Z</time>
      </trkpt>
      <trkpt lat="44.76998" lon="3.8832">
        <ele>1160.93</ele>
        <time>2022-08-03T08:14:09Z</time>
      </trkpt>
      <trkpt lat="44.76995" lon="3.88327">
        <ele>1159.49</ele>
        <time>2022-08-03T08:14:17Z</time>
      </trkpt>
      <trkpt lat="44.7699" lon="3.88324">
        <ele>1159.01</ele>
        <time>2022-08-03T08:14:22Z</time>
      </trkpt>
      <trkpt lat="44.7697" lon="3.88333">
        <ele>1159.49</ele>
        <time>2022-08-03T08:14:38Z</time>
      </trkpt>
      <trkpt lat="44.76963" lon="3.88333">
        <ele>1161.89</ele>
        <time>2022-08-03T08:14:52Z</time>
      </trkpt>
      <trkpt lat="44.76963" lon="3.88333">
        <ele>1160.93</ele>
        <time>2022-08-03T08:15:14Z</time>
      </trkpt>
      <trkpt lat="44.76962" lon="3.88337">
        <ele>1157.56</ele>
        <time>2022-08-03T08:15:29Z</time>
      </trkpt>
      <trkpt lat="44.76961" lon="3.88336">
        <ele>1155.64</ele>
        <time>2022-08-03T08:15:53Z</time>
      </trkpt>
      <trkpt lat="44.76959" lon="3.88336">
        <ele>1154.2</ele>
        <time>2022-08-03T08:16:25Z</time>
      </trkpt>
      <trkpt lat="44.7696" lon="3.88337">
        <ele>1152.76</ele>
        <time>2022-08-03T08:16:51Z</time>
      </trkpt>
      <trkpt lat="44.7696" lon="3.88335">
        <ele>1152.28</ele>
        <time>2022-08-03T08:17:15Z</time>
      </trkpt>
      <trkpt lat="44.7696" lon="3.88332">
        <ele>1153.72</ele>
        <time>2022-08-03T08:17:38Z</time>
      </trkpt>
      <trkpt lat="44.76959" lon="3.88329">
        <ele>1155.64</ele>
        <time>2022-08-03T08:18:10Z</time>
      </trkpt>
      <trkpt lat="44.76959" lon="3.88329">
        <ele>1156.12</ele>
        <time>2022-08-03T08:18:39Z</time>
      </trkpt>
      <trkpt lat="44.7696" lon="3.88334">
        <ele>1158.53</ele>
        <time>2022-08-03T08:19:16Z</time>
      </trkpt>
      <trkpt lat="44.76963" lon="3.88334">
        <ele>1156.12</ele>
        <time>2022-08-03T08:19:46Z</time>
      </trkpt>
      <trkpt lat="44.76962" lon="3.88332">
        <ele>1157.08</ele>
        <time>2022-08-03T08:20:27Z</time>
      </trkpt>
      <trkpt lat="44.76962" lon="3.88331">
        <ele>1156.6</ele>
        <time>2022-08-03T08:21:00Z</time>
      </trkpt>
      <trkpt lat="44.76961" lon="3.88331">
        <ele>1156.12</ele>
        <time>2022-08-03T08:21:27Z</time>
      </trkpt>
      <trkpt lat="44.76962" lon="3.88335">
        <ele>1156.12</ele>
        <time>2022-08-03T08:22:04Z</time>
      </trkpt>
      <trkpt lat="44.76962" lon="3.88335">
        <ele>1158.05</ele>
        <time>2022-08-03T08:22:42Z</time>
      </trkpt>
      <trkpt lat="44.76959" lon="3.88332">
        <ele>1158.53</ele>
        <time>2022-08-03T08:23:17Z</time>
      </trkpt>
      <trkpt lat="44.7696" lon="3.88328">
        <ele>1161.41</ele>
        <time>2022-08-03T08:23:51Z</time>
      </trkpt>
      <trkpt lat="44.7696" lon="3.88328">
        <ele>1160.45</ele>
        <time>2022-08-03T08:24:26Z</time>
      </trkpt>
      <trkpt lat="44.7696" lon="3.88334">
        <ele>1159.01</ele>
        <time>2022-08-03T08:25:03Z</time>
      </trkpt>
      <trkpt lat="44.76962" lon="3.88331">
        <ele>1161.41</ele>
        <time>2022-08-03T08:25:50Z</time>
      </trkpt>
      <trkpt lat="44.76962" lon="3.8833">
        <ele>1162.85</ele>
        <time>2022-08-03T08:26:25Z</time>
      </trkpt>
      <trkpt lat="44.76961" lon="3.88335">
        <ele>1165.26</ele>
        <time>2022-08-03T08:27:09Z</time>
      </trkpt>
      <trkpt lat="44.76961" lon="3.88333">
        <ele>1165.74</ele>
        <time>2022-08-03T08:27:46Z</time>
      </trkpt>
      <trkpt lat="44.76963" lon="3.88334">
        <ele>1164.29</ele>
        <time>2022-08-03T08:28:31Z</time>
      </trkpt>
      <trkpt lat="44.76962" lon="3.88333">
        <ele>1167.18</ele>
        <time>2022-08-03T08:29:09Z</time>
      </trkpt>
      <trkpt lat="44.7696" lon="3.88334">
        <ele>1163.81</ele>
        <time>2022-08-03T08:29:48Z</time>
      </trkpt>
      <trkpt lat="44.76961" lon="3.88331">
        <ele>1164.29</ele>
        <time>2022-08-03T08:30:33Z</time>
      </trkpt>
      <trkpt lat="44.76962" lon="3.88332">
        <ele>1162.37</ele>
        <time>2022-08-03T08:31:15Z</time>
      </trkpt>
      <trkpt lat="44.76961" lon="3.88334">
        <ele>1167.66</ele>
        <time>2022-08-03T08:32:00Z</time>
      </trkpt>
      <trkpt lat="44.76961" lon="3.88334">
        <ele>1167.18</ele>
        <time>2022-08-03T08:32:37Z</time>
      </trkpt>
      <trkpt lat="44.76957" lon="3.88328">
        <ele>1168.14</ele>
        <time>2022-08-03T08:33:11Z</time>
      </trkpt>
      <trkpt lat="44.76958" lon="3.88332">
        <ele>1169.58</ele>
        <time>2022-08-03T08:33:40Z</time>
      </trkpt>
      <trkpt lat="44.76957" lon="3.88328">
        <ele>1169.58</ele>
        <time>2022-08-03T08:34:18Z</time>
      </trkpt>
      <trkpt lat="44.76957" lon="3.88325">
        <ele>1171.02</ele>
        <time>2022-08-03T08:34:58Z</time>
      </trkpt>
      <trkpt lat="44.76959" lon="3.88332">
        <ele>1168.14</ele>
        <time>2022-08-03T08:35:26Z</time>
      </trkpt>
      <trkpt lat="44.76961" lon="3.8833">
        <ele>1164.77</ele>
        <time>2022-08-03T08:36:01Z</time>
      </trkpt>
      <trkpt lat="44.76962" lon="3.88333">
        <ele>1165.26</ele>
        <time>2022-08-03T08:36:47Z</time>
      </trkpt>
      <trkpt lat="44.76963" lon="3.88332">
        <ele>1165.74</ele>
        <time>2022-08-03T08:37:30Z</time>
      </trkpt>
      <trkpt lat="44.76961" lon="3.88333">
        <ele>1168.62</ele>
        <time>2022-08-03T08:38:05Z</time>
      </trkpt>
      <trkpt lat="44.76961" lon="3.88334">
        <ele>1166.7</ele>
        <time>2022-08-03T08:38:48Z</time>
      </trkpt>
      <trkpt lat="44.76961" lon="3.88332">
        <ele>1161.41</ele>
        <time>2022-08-03T08:39:30Z</time>
      </trkpt>
      <trkpt lat="44.76962" lon="3.88331">
        <ele>1160.45</ele>
        <time>2022-08-03T08:40:05Z</time>
      </trkpt>
      <trkpt lat="44.76962" lon="3.88339">
        <ele>1161.41</ele>
        <time>2022-08-03T08:40:40Z</time>
      </trkpt>
      <trkpt lat="44.76962" lon="3.8834">
        <ele>1167.18</ele>
        <time>2022-08-03T08:41:19Z</time>
      </trkpt>
      <trkpt lat="44.76964" lon="3.88338">
        <ele>1168.62</ele>
        <time>2022-08-03T08:41:59Z</time>
      </trkpt>
      <trkpt lat="44.76963" lon="3.88341">
        <ele>1171.02</ele>
        <time>2022-08-03T08:42:27Z</time>
      </trkpt>
      <trkpt lat="44.7696" lon="3.88338">
        <ele>1171.98</ele>
        <time>2022-08-03T08:43:02Z</time>
      </trkpt>
      <trkpt lat="44.7696" lon="3.88338">
        <ele>1171.02</ele>
        <time>2022-08-03T08:43:33Z</time>
      </trkpt>
      <trkpt lat="44.7696" lon="3.88339">
        <ele>1168.14</ele>
        <time>2022-08-03T08:44:10Z</time>
      </trkpt>
      <trkpt lat="44.76962" lon="3.88338">
        <ele>1168.62</ele>
        <time>2022-08-03T08:44:41Z</time>
      </trkpt>
      <trkpt lat="44.76961" lon="3.88333">
        <ele>1167.66</ele>
        <time>2022-08-03T08:45:16Z</time>
      </trkpt>
      <trkpt lat="44.7696" lon="3.88343">
        <ele>1164.29</ele>
        <time>2022-08-03T08:45:54Z</time>
      </trkpt>
      <trkpt lat="44.76962" lon="3.88342">
        <ele>1160.93</ele>
        <time>2022-08-03T08:46:25Z</time>
      </trkpt>
      <trkpt lat="44.76963" lon="3.88338">
        <ele>1160.93</ele>
        <time>2022-08-03T08:46:42Z</time>
      </trkpt>
      <trkpt lat="44.76963" lon="3.88336">
        <ele>1161.41</ele>
        <time>2022-08-03T08:47:05Z</time>
      </trkpt>
      <trkpt lat="44.76963" lon="3.88336">
        <ele>1160.45</ele>
        <time>2022-08-03T08:47:27Z</time>
      </trkpt>
      <trkpt lat="44.76967" lon="3.88334">
        <ele>1158.53</ele>
        <time>2022-08-03T08:47:52Z</time>
      </trkpt>
      <trkpt lat="44.76968" lon="3.8833">
        <ele>1158.05</ele>
        <time>2022-08-03T08:47:58Z</time>
      </trkpt>
      <trkpt lat="44.7697" lon="3.88322">
        <ele>1157.08</ele>
        <time>2022-08-03T08:48:04Z</time>
      </trkpt>
      <trkpt lat="44.76968" lon="3.88302">
        <ele>1155.64</ele>
        <time>2022-08-03T08:48:21Z</time>
      </trkpt>
      <trkpt lat="44.7696" lon="3.88295">
        <ele>1154.68</ele>
        <time>2022-08-03T08:48:31Z</time>
      </trkpt>
      <trkpt lat="44.76936" lon="3.88281">
        <ele>1151.32</ele>
        <time>2022-08-03T08:48:50Z</time>
      </trkpt>
      <trkpt lat="44.7693" lon="3.88281">
        <ele>1151.8</ele>
        <time>2022-08-03T08:48:57Z</time>
      </trkpt>
      <trkpt lat="44.76918" lon="3.88286">
        <ele>1155.64</ele>
        <time>2022-08-03T08:49:09Z</time>
      </trkpt>
      <trkpt lat="44.76908" lon="3.8828">
        <ele>1158.53</ele>
        <time>2022-08-03T08:49:25Z</time>
      </trkpt>
      <trkpt lat="44.769" lon="3.88276">
        <ele>1159.01</ele>
        <time>2022-08-03T08:49:33Z</time>
      </trkpt>
      <trkpt lat="44.76901" lon="3.88266">
        <ele>1162.37</ele>
        <time>2022-08-03T08:49:48Z</time>
      </trkpt>
      <trkpt lat="44.76895" lon="3.88274">
        <ele>1164.29</ele>
        <time>2022-08-03T08:49:57Z</time>
      </trkpt>
      <trkpt lat="44.76875" lon="3.88249">
        <ele>1163.81</ele>
        <time>2022-08-03T08:50:14Z</time>
      </trkpt>
      <trkpt lat="44.7686" lon="3.88245">
        <ele>1159.97</ele>
        <time>2022-08-03T08:50:31Z</time>
      </trkpt>
      <trkpt lat="44.76851" lon="3.88245">
        <ele>1158.53</ele>
        <time>2022-08-03T08:50:53Z</time>
      </trkpt>
      <trkpt lat="44.76829" lon="3.88255">
        <ele>1153.72</ele>
        <time>2022-08-03T08:51:12Z</time>
      </trkpt>
      <trkpt lat="44.7682" lon="3.88258">
        <ele>1146.99</ele>
        <time>2022-08-03T08:51:28Z</time>
      </trkpt>
      <trkpt lat="44.76823" lon="3.88259">
        <ele>1144.11</ele>
        <time>2022-08-03T08:51:42Z</time>
      </trkpt>
      <trkpt lat="44.76822" lon="3.88256">
        <ele>1143.14</ele>
        <time>2022-08-03T08:51:56Z</time>
      </trkpt>
      <trkpt lat="44.7681" lon="3.88261">
        <ele>1144.11</ele>
        <time>2022-08-03T08:52:06Z</time>
      </trkpt>
      <trkpt lat="44.76794" lon="3.88274">
        <ele>1140.74</ele>
        <time>2022-08-03T08:52:23Z</time>
      </trkpt>
      <trkpt lat="44.76782" lon="3.88289">
        <ele>1143.14</ele>
        <time>2022-08-03T08:52:37Z</time>
      </trkpt>
      <trkpt lat="44.7676" lon="3.883">
        <ele>1139.3</ele>
        <time>2022-08-03T08:52:54Z</time>
      </trkpt>
      <trkpt lat="44.76745" lon="3.88307">
        <ele>1136.42</ele>
        <time>2022-08-03T08:53:05Z</time>
      </trkpt>
      <trkpt lat="44.76719" lon="3.8832">
        <ele>1134.97</ele>
        <time>2022-08-03T08:53:27Z</time>
      </trkpt>
      <trkpt lat="44.76711" lon="3.88323">
        <ele>1131.13</ele>
        <time>2022-08-03T08:53:34Z</time>
      </trkpt>
      <trkpt lat="44.76698" lon="3.88322">
        <ele>1127.76</ele>
        <time>2022-08-03T08:53:47Z</time>
      </trkpt>
      <trkpt lat="44.76684" lon="3.88319">
        <ele>1122.48</ele>
        <time>2022-08-03T08:53:59Z</time>
      </trkpt>
      <trkpt lat="44.76676" lon="3.88313">
        <ele>1122.48</ele>
        <time>2022-08-03T08:54:05Z</time>
      </trkpt>
      <trkpt lat="44.76669" lon="3.88307">
        <ele>1123.44</ele>
        <time>2022-08-03T08:54:13Z</time>
      </trkpt>
      <trkpt lat="44.76666" lon="3.88305">
        <ele>1123.44</ele>
        <time>2022-08-03T08:54:16Z</time>
      </trkpt>
      <trkpt lat="44.76661" lon="3.88302">
        <ele>1123.92</ele>
        <time>2022-08-03T08:54:22Z</time>
      </trkpt>
      <trkpt lat="44.76652" lon="3.88303">
        <ele>1124.4</ele>
        <time>2022-08-03T08:54:30Z</time>
      </trkpt>
      <trkpt lat="44.76644" lon="3.88305">
        <ele>1125.36</ele>
        <time>2022-08-03T08:54:37Z</time>
      </trkpt>
      <trkpt lat="44.76627" lon="3.88298">
        <ele>1125.84</ele>
        <time>2022-08-03T08:54:51Z</time>
      </trkpt>
      <trkpt lat="44.76612" lon="3.8829">
        <ele>1126.32</ele>
        <time>2022-08-03T08:55:04Z</time>
      </trkpt>
      <trkpt lat="44.76597" lon="3.88281">
        <ele>1125.84</ele>
        <time>2022-08-03T08:55:17Z</time>
      </trkpt>
      <trkpt lat="44.76595" lon="3.8828">
        <ele>1124.4</ele>
        <time>2022-08-03T08:55:30Z</time>
      </trkpt>
      <trkpt lat="44.76595" lon="3.88281">
        <ele>1122.48</ele>
        <time>2022-08-03T08:55:49Z</time>
      </trkpt>
      <trkpt lat="44.76594" lon="3.88281">
        <ele>1122.96</ele>
        <time>2022-08-03T08:56:11Z</time>
      </trkpt>
      <trkpt lat="44.76594" lon="3.88283">
        <ele>1123.92</ele>
        <time>2022-08-03T08:56:27Z</time>
      </trkpt>
      <trkpt lat="44.76594" lon="3.8828">
        <ele>1122.96</ele>
        <time>2022-08-03T08:56:43Z</time>
      </trkpt>
      <trkpt lat="44.76594" lon="3.8828">
        <ele>1122.96</ele>
        <time>2022-08-03T08:56:44Z</time>
      </trkpt>
      <trkpt lat="44.7659" lon="3.88277">
        <ele>1122</ele>
        <time>2022-08-03T08:56:48Z</time>
      </trkpt>
      <trkpt lat="44.76572" lon="3.88266">
        <ele>1122.48</ele>
        <time>2022-08-03T08:57:04Z</time>
      </trkpt>
      <trkpt lat="44.7657" lon="3.88264">
        <ele>1123.44</ele>
        <time>2022-08-03T08:57:18Z</time>
      </trkpt>
      <trkpt lat="44.76563" lon="3.8826">
        <ele>1123.44</ele>
        <time>2022-08-03T08:57:40Z</time>
      </trkpt>
      <trkpt lat="44.76542" lon="3.88246">
        <ele>1122.96</ele>
        <time>2022-08-03T08:57:58Z</time>
      </trkpt>
      <trkpt lat="44.76522" lon="3.88234">
        <ele>1121.52</ele>
        <time>2022-08-03T08:58:15Z</time>
      </trkpt>
      <trkpt lat="44.76504" lon="3.88224">
        <ele>1119.11</ele>
        <time>2022-08-03T08:58:30Z</time>
      </trkpt>
      <trkpt lat="44.76482" lon="3.88211">
        <ele>1114.31</ele>
        <time>2022-08-03T08:58:48Z</time>
      </trkpt>
      <trkpt lat="44.76459" lon="3.88198">
        <ele>1111.42</ele>
        <time>2022-08-03T08:59:07Z</time>
      </trkpt>
      <trkpt lat="44.76446" lon="3.88197">
        <ele>1111.42</ele>
        <time>2022-08-03T08:59:17Z</time>
      </trkpt>
      <trkpt lat="44.76428" lon="3.88189">
        <ele>1111.42</ele>
        <time>2022-08-03T08:59:32Z</time>
      </trkpt>
      <trkpt lat="44.76406" lon="3.88183">
        <ele>1107.1</ele>
        <time>2022-08-03T08:59:49Z</time>
      </trkpt>
      <trkpt lat="44.76387" lon="3.88174">
        <ele>1105.17</ele>
        <time>2022-08-03T09:00:04Z</time>
      </trkpt>
      <trkpt lat="44.76372" lon="3.88168">
        <ele>1104.69</ele>
        <time>2022-08-03T09:00:18Z</time>
      </trkpt>
      <trkpt lat="44.76364" lon="3.88163">
        <ele>1103.73</ele>
        <time>2022-08-03T09:00:24Z</time>
      </trkpt>
      <trkpt lat="44.76342" lon="3.88151">
        <ele>1103.25</ele>
        <time>2022-08-03T09:00:42Z</time>
      </trkpt>
      <trkpt lat="44.76327" lon="3.8814">
        <ele>1103.25</ele>
        <time>2022-08-03T09:00:56Z</time>
      </trkpt>
      <trkpt lat="44.76311" lon="3.88125">
        <ele>1101.81</ele>
        <time>2022-08-03T09:01:13Z</time>
      </trkpt>
      <trkpt lat="44.76295" lon="3.8811">
        <ele>1100.37</ele>
        <time>2022-08-03T09:01:29Z</time>
      </trkpt>
      <trkpt lat="44.7628" lon="3.88095">
        <ele>1098.92</ele>
        <time>2022-08-03T09:01:44Z</time>
      </trkpt>
      <trkpt lat="44.76267" lon="3.88084">
        <ele>1097</ele>
        <time>2022-08-03T09:01:55Z</time>
      </trkpt>
      <trkpt lat="44.76246" lon="3.88071">
        <ele>1096.04</ele>
        <time>2022-08-03T09:02:11Z</time>
      </trkpt>
      <trkpt lat="44.76228" lon="3.88055">
        <ele>1093.64</ele>
        <time>2022-08-03T09:02:27Z</time>
      </trkpt>
      <trkpt lat="44.76212" lon="3.8804">
        <ele>1091.71</ele>
        <time>2022-08-03T09:02:42Z</time>
      </trkpt>
      <trkpt lat="44.762" lon="3.88027">
        <ele>1090.75</ele>
        <time>2022-08-03T09:02:54Z</time>
      </trkpt>
      <trkpt lat="44.76196" lon="3.88023">
        <ele>1090.27</ele>
        <time>2022-08-03T09:02:58Z</time>
      </trkpt>
      <trkpt lat="44.76192" lon="3.88019">
        <ele>1089.79</ele>
        <time>2022-08-03T09:03:02Z</time>
      </trkpt>
      <trkpt lat="44.76189" lon="3.88016">
        <ele>1089.31</ele>
        <time>2022-08-03T09:03:05Z</time>
      </trkpt>
      <trkpt lat="44.76185" lon="3.88011">
        <ele>1088.35</ele>
        <time>2022-08-03T09:03:09Z</time>
      </trkpt>
      <trkpt lat="44.7617" lon="3.87987">
        <ele>1086.43</ele>
        <time>2022-08-03T09:03:26Z</time>
      </trkpt>
      <trkpt lat="44.76162" lon="3.87959">
        <ele>1083.54</ele>
        <time>2022-08-03T09:03:42Z</time>
      </trkpt>
      <trkpt lat="44.76158" lon="3.87947">
        <ele>1081.62</ele>
        <time>2022-08-03T09:03:50Z</time>
      </trkpt>
      <trkpt lat="44.7615" lon="3.87923">
        <ele>1077.78</ele>
        <time>2022-08-03T09:04:04Z</time>
      </trkpt>
      <trkpt lat="44.76134" lon="3.87895">
        <ele>1075.85</ele>
        <time>2022-08-03T09:04:23Z</time>
      </trkpt>
      <trkpt lat="44.76124" lon="3.8786">
        <ele>1073.45</ele>
        <time>2022-08-03T09:04:43Z</time>
      </trkpt>
      <trkpt lat="44.76115" lon="3.8783">
        <ele>1069.6</ele>
        <time>2022-08-03T09:05:02Z</time>
      </trkpt>
      <trkpt lat="44.76106" lon="3.878">
        <ele>1067.2</ele>
        <time>2022-08-03T09:05:20Z</time>
      </trkpt>
      <trkpt lat="44.76095" lon="3.87774">
        <ele>1068.16</ele>
        <time>2022-08-03T09:05:36Z</time>
      </trkpt>
      <trkpt lat="44.76077" lon="3.87745">
        <ele>1068.16</ele>
        <time>2022-08-03T09:05:55Z</time>
      </trkpt>
      <trkpt lat="44.76063" lon="3.87717">
        <ele>1065.28</ele>
        <time>2022-08-03T09:06:13Z</time>
      </trkpt>
      <trkpt lat="44.76048" lon="3.87695">
        <ele>1063.36</ele>
        <time>2022-08-03T09:06:29Z</time>
      </trkpt>
      <trkpt lat="44.76031" lon="3.87669">
        <ele>1061.91</ele>
        <time>2022-08-03T09:06:47Z</time>
      </trkpt>
      <trkpt lat="44.76022" lon="3.87642">
        <ele>1060.95</ele>
        <time>2022-08-03T09:07:03Z</time>
      </trkpt>
      <trkpt lat="44.76013" lon="3.87612">
        <ele>1058.55</ele>
        <time>2022-08-03T09:07:20Z</time>
      </trkpt>
      <trkpt lat="44.76006" lon="3.87583">
        <ele>1057.11</ele>
        <time>2022-08-03T09:07:36Z</time>
      </trkpt>
      <trkpt lat="44.75996" lon="3.87551">
        <ele>1055.18</ele>
        <time>2022-08-03T09:07:54Z</time>
      </trkpt>
      <trkpt lat="44.75992" lon="3.87525">
        <ele>1054.7</ele>
        <time>2022-08-03T09:08:09Z</time>
      </trkpt>
      <trkpt lat="44.75985" lon="3.87495">
        <ele>1052.3</ele>
        <time>2022-08-03T09:08:25Z</time>
      </trkpt>
      <trkpt lat="44.7597" lon="3.87472">
        <ele>1049.9</ele>
        <time>2022-08-03T09:08:44Z</time>
      </trkpt>
      <trkpt lat="44.75968" lon="3.87474">
        <ele>1050.86</ele>
        <time>2022-08-03T09:08:59Z</time>
      </trkpt>
      <trkpt lat="44.75968" lon="3.87474">
        <ele>1050.86</ele>
        <time>2022-08-03T09:09:06Z</time>
      </trkpt>
      <trkpt lat="44.75954" lon="3.87457">
        <ele>1047.97</ele>
        <time>2022-08-03T09:09:20Z</time>
      </trkpt>
      <trkpt lat="44.75934" lon="3.87442">
        <ele>1043.65</ele>
        <time>2022-08-03T09:09:37Z</time>
      </trkpt>
      <trkpt lat="44.75914" lon="3.87428">
        <ele>1041.73</ele>
        <time>2022-08-03T09:09:53Z</time>
      </trkpt>
      <trkpt lat="44.75895" lon="3.87411">
        <ele>1038.36</ele>
        <time>2022-08-03T09:10:10Z</time>
      </trkpt>
      <trkpt lat="44.75877" lon="3.87395">
        <ele>1037.4</ele>
        <time>2022-08-03T09:10:26Z</time>
      </trkpt>
      <trkpt lat="44.75855" lon="3.87375">
        <ele>1035</ele>
        <time>2022-08-03T09:10:45Z</time>
      </trkpt>
      <trkpt lat="44.75831" lon="3.87357">
        <ele>1033.07</ele>
        <time>2022-08-03T09:11:04Z</time>
      </trkpt>
      <trkpt lat="44.75808" lon="3.87339">
        <ele>1031.63</ele>
        <time>2022-08-03T09:11:22Z</time>
      </trkpt>
      <trkpt lat="44.75785" lon="3.87323">
        <ele>1030.67</ele>
        <time>2022-08-03T09:11:41Z</time>
      </trkpt>
      <trkpt lat="44.75764" lon="3.87309">
        <ele>1030.67</ele>
        <time>2022-08-03T09:11:58Z</time>
      </trkpt>
      <trkpt lat="44.75745" lon="3.87294">
        <ele>1030.67</ele>
        <time>2022-08-03T09:12:14Z</time>
      </trkpt>
      <trkpt lat="44.75726" lon="3.87277">
        <ele>1029.23</ele>
        <time>2022-08-03T09:12:30Z</time>
      </trkpt>
      <trkpt lat="44.75702" lon="3.8726">
        <ele>1028.27</ele>
        <time>2022-08-03T09:12:49Z</time>
      </trkpt>
      <trkpt lat="44.75678" lon="3.87242">
        <ele>1025.86</ele>
        <time>2022-08-03T09:13:08Z</time>
      </trkpt>
      <trkpt lat="44.75659" lon="3.87223">
        <ele>1024.9</ele>
        <time>2022-08-03T09:13:25Z</time>
      </trkpt>
      <trkpt lat="44.75639" lon="3.87204">
        <ele>1024.42</ele>
        <time>2022-08-03T09:13:42Z</time>
      </trkpt>
      <trkpt lat="44.75618" lon="3.87175">
        <ele>1022.98</ele>
        <time>2022-08-03T09:14:04Z</time>
      </trkpt>
      <trkpt lat="44.75596" lon="3.87143">
        <ele>1021.54</ele>
        <time>2022-08-03T09:14:26Z</time>
      </trkpt>
      <trkpt lat="44.75575" lon="3.87114">
        <ele>1019.62</ele>
        <time>2022-08-03T09:14:47Z</time>
      </trkpt>
      <trkpt lat="44.75553" lon="3.87085">
        <ele>1019.13</ele>
        <time>2022-08-03T09:15:08Z</time>
      </trkpt>
      <trkpt lat="44.75536" lon="3.87063">
        <ele>1018.17</ele>
        <time>2022-08-03T09:15:24Z</time>
      </trkpt>
      <trkpt lat="44.75519" lon="3.87036">
        <ele>1016.25</ele>
        <time>2022-08-03T09:15:43Z</time>
      </trkpt>
      <trkpt lat="44.75508" lon="3.87001">
        <ele>1014.81</ele>
        <time>2022-08-03T09:16:03Z</time>
      </trkpt>
      <trkpt lat="44.75501" lon="3.86968">
        <ele>1014.33</ele>
        <time>2022-08-03T09:16:20Z</time>
      </trkpt>
      <trkpt lat="44.75486" lon="3.86937">
        <ele>1014.81</ele>
        <time>2022-08-03T09:16:38Z</time>
      </trkpt>
      <trkpt lat="44.75467" lon="3.86903">
        <ele>1012.41</ele>
        <time>2022-08-03T09:17:00Z</time>
      </trkpt>
      <trkpt lat="44.75451" lon="3.86874">
        <ele>1011.93</ele>
        <time>2022-08-03T09:17:19Z</time>
      </trkpt>
      <trkpt lat="44.75429" lon="3.86844">
        <ele>1010.96</ele>
        <time>2022-08-03T09:17:41Z</time>
      </trkpt>
      <trkpt lat="44.75411" lon="3.86818">
        <ele>1010.96</ele>
        <time>2022-08-03T09:18:00Z</time>
      </trkpt>
      <trkpt lat="44.75391" lon="3.86794">
        <ele>1009.52</ele>
        <time>2022-08-03T09:18:18Z</time>
      </trkpt>
      <trkpt lat="44.75369" lon="3.86773">
        <ele>1009.52</ele>
        <time>2022-08-03T09:18:37Z</time>
      </trkpt>
      <trkpt lat="44.75354" lon="3.8676">
        <ele>1010.48</ele>
        <time>2022-08-03T09:18:50Z</time>
      </trkpt>
      <trkpt lat="44.75334" lon="3.86744">
        <ele>1010</ele>
        <time>2022-08-03T09:19:05Z</time>
      </trkpt>
      <trkpt lat="44.75312" lon="3.86725">
        <ele>1009.52</ele>
        <time>2022-08-03T09:19:23Z</time>
      </trkpt>
      <trkpt lat="44.75294" lon="3.86701">
        <ele>1009.52</ele>
        <time>2022-08-03T09:19:41Z</time>
      </trkpt>
      <trkpt lat="44.75275" lon="3.86674">
        <ele>1009.04</ele>
        <time>2022-08-03T09:19:59Z</time>
      </trkpt>
      <trkpt lat="44.75262" lon="3.86652">
        <ele>1009.52</ele>
        <time>2022-08-03T09:20:14Z</time>
      </trkpt>
      <trkpt lat="44.75242" lon="3.86625">
        <ele>1010</ele>
        <time>2022-08-03T09:20:33Z</time>
      </trkpt>
      <trkpt lat="44.75224" lon="3.86599">
        <ele>1010.48</ele>
        <time>2022-08-03T09:20:52Z</time>
      </trkpt>
      <trkpt lat="44.75208" lon="3.86569">
        <ele>1010.96</ele>
        <time>2022-08-03T09:21:11Z</time>
      </trkpt>
      <trkpt lat="44.75193" lon="3.86541">
        <ele>1011.93</ele>
        <time>2022-08-03T09:21:29Z</time>
      </trkpt>
      <trkpt lat="44.75179" lon="3.86516">
        <ele>1012.41</ele>
        <time>2022-08-03T09:21:45Z</time>
      </trkpt>
      <trkpt lat="44.75165" lon="3.8649">
        <ele>1012.41</ele>
        <time>2022-08-03T09:22:02Z</time>
      </trkpt>
      <trkpt lat="44.75153" lon="3.86472">
        <ele>1013.85</ele>
        <time>2022-08-03T09:22:17Z</time>
      </trkpt>
      <trkpt lat="44.75146" lon="3.86454">
        <ele>1016.25</ele>
        <time>2022-08-03T09:22:29Z</time>
      </trkpt>
      <trkpt lat="44.75132" lon="3.86423">
        <ele>1016.73</ele>
        <time>2022-08-03T09:22:47Z</time>
      </trkpt>
      <trkpt lat="44.75121" lon="3.86393">
        <ele>1016.73</ele>
        <time>2022-08-03T09:23:04Z</time>
      </trkpt>
      <trkpt lat="44.75105" lon="3.86364">
        <ele>1014.33</ele>
        <time>2022-08-03T09:23:22Z</time>
      </trkpt>
      <trkpt lat="44.75085" lon="3.86342">
        <ele>1013.85</ele>
        <time>2022-08-03T09:23:40Z</time>
      </trkpt>
      <trkpt lat="44.75068" lon="3.86317">
        <ele>1013.85</ele>
        <time>2022-08-03T09:23:59Z</time>
      </trkpt>
      <trkpt lat="44.75053" lon="3.86298">
        <ele>1015.29</ele>
        <time>2022-08-03T09:24:13Z</time>
      </trkpt>
      <trkpt lat="44.75039" lon="3.86279">
        <ele>1016.25</ele>
        <time>2022-08-03T09:24:28Z</time>
      </trkpt>
      <trkpt lat="44.75018" lon="3.86258">
        <ele>1020.58</ele>
        <time>2022-08-03T09:24:45Z</time>
      </trkpt>
      <trkpt lat="44.74996" lon="3.86234">
        <ele>1019.62</ele>
        <time>2022-08-03T09:25:03Z</time>
      </trkpt>
      <trkpt lat="44.74973" lon="3.8621">
        <ele>1016.73</ele>
        <time>2022-08-03T09:25:22Z</time>
      </trkpt>
      <trkpt lat="44.74947" lon="3.86195">
        <ele>1012.41</ele>
        <time>2022-08-03T09:25:40Z</time>
      </trkpt>
      <trkpt lat="44.74923" lon="3.86185">
        <ele>1011.44</ele>
        <time>2022-08-03T09:25:58Z</time>
      </trkpt>
      <trkpt lat="44.74898" lon="3.86174">
        <ele>1009.52</ele>
        <time>2022-08-03T09:26:17Z</time>
      </trkpt>
      <trkpt lat="44.74874" lon="3.86168">
        <ele>1008.56</ele>
        <time>2022-08-03T09:26:33Z</time>
      </trkpt>
      <trkpt lat="44.74854" lon="3.86161">
        <ele>1007.12</ele>
        <time>2022-08-03T09:26:47Z</time>
      </trkpt>
      <trkpt lat="44.74831" lon="3.86151">
        <ele>1004.23</ele>
        <time>2022-08-03T09:27:05Z</time>
      </trkpt>
      <trkpt lat="44.74809" lon="3.86139">
        <ele>1003.27</ele>
        <time>2022-08-03T09:27:22Z</time>
      </trkpt>
      <trkpt lat="44.74788" lon="3.86125">
        <ele>999.91</ele>
        <time>2022-08-03T09:27:38Z</time>
      </trkpt>
      <trkpt lat="44.74774" lon="3.86114">
        <ele>996.54</ele>
        <time>2022-08-03T09:27:51Z</time>
      </trkpt>
      <trkpt lat="44.74751" lon="3.86095">
        <ele>993.18</ele>
        <time>2022-08-03T09:28:08Z</time>
      </trkpt>
      <trkpt lat="44.74731" lon="3.86073">
        <ele>989.33</ele>
        <time>2022-08-03T09:28:26Z</time>
      </trkpt>
      <trkpt lat="44.74714" lon="3.86053">
        <ele>985.49</ele>
        <time>2022-08-03T09:28:42Z</time>
      </trkpt>
      <trkpt lat="44.74696" lon="3.86039">
        <ele>984.05</ele>
        <time>2022-08-03T09:28:57Z</time>
      </trkpt>
      <trkpt lat="44.74679" lon="3.86023">
        <ele>985.01</ele>
        <time>2022-08-03T09:29:11Z</time>
      </trkpt>
      <trkpt lat="44.74658" lon="3.86006">
        <ele>983.57</ele>
        <time>2022-08-03T09:29:26Z</time>
      </trkpt>
      <trkpt lat="44.74645" lon="3.85993">
        <ele>979.72</ele>
        <time>2022-08-03T09:29:39Z</time>
      </trkpt>
      <trkpt lat="44.7463" lon="3.85978">
        <ele>975.88</ele>
        <time>2022-08-03T09:29:54Z</time>
      </trkpt>
      <trkpt lat="44.74608" lon="3.85958">
        <ele>973.47</ele>
        <time>2022-08-03T09:30:12Z</time>
      </trkpt>
      <trkpt lat="44.74591" lon="3.85945">
        <ele>973.47</ele>
        <time>2022-08-03T09:30:25Z</time>
      </trkpt>
      <trkpt lat="44.74588" lon="3.85944">
        <ele>974.43</ele>
        <time>2022-08-03T09:30:27Z</time>
      </trkpt>
      <trkpt lat="44.74563" lon="3.85935">
        <ele>975.39</ele>
        <time>2022-08-03T09:30:42Z</time>
      </trkpt>
      <trkpt lat="44.74537" lon="3.85942">
        <ele>974.43</ele>
        <time>2022-08-03T09:30:58Z</time>
      </trkpt>
      <trkpt lat="44.74516" lon="3.85956">
        <ele>974.43</ele>
        <time>2022-08-03T09:31:13Z</time>
      </trkpt>
      <trkpt lat="44.74495" lon="3.85977">
        <ele>973.95</ele>
        <time>2022-08-03T09:31:30Z</time>
      </trkpt>
      <trkpt lat="44.74473" lon="3.85997">
        <ele>974.43</ele>
        <time>2022-08-03T09:31:48Z</time>
      </trkpt>
      <trkpt lat="44.74445" lon="3.86011">
        <ele>974.43</ele>
        <time>2022-08-03T09:32:09Z</time>
      </trkpt>
      <trkpt lat="44.7442" lon="3.86012">
        <ele>974.43</ele>
        <time>2022-08-03T09:32:27Z</time>
      </trkpt>
      <trkpt lat="44.74398" lon="3.86007">
        <ele>973.95</ele>
        <time>2022-08-03T09:32:43Z</time>
      </trkpt>
      <trkpt lat="44.74376" lon="3.86001">
        <ele>973.95</ele>
        <time>2022-08-03T09:32:59Z</time>
      </trkpt>
      <trkpt lat="44.74353" lon="3.85995">
        <ele>973.47</ele>
        <time>2022-08-03T09:33:16Z</time>
      </trkpt>
      <trkpt lat="44.74333" lon="3.85988">
        <ele>972.99</ele>
        <time>2022-08-03T09:33:31Z</time>
      </trkpt>
      <trkpt lat="44.7431" lon="3.85978">
        <ele>972.51</ele>
        <time>2022-08-03T09:33:48Z</time>
      </trkpt>
      <trkpt lat="44.74294" lon="3.85971">
        <ele>970.11</ele>
        <time>2022-08-03T09:34:01Z</time>
      </trkpt>
      <trkpt lat="44.74275" lon="3.85968">
        <ele>968.18</ele>
        <time>2022-08-03T09:34:15Z</time>
      </trkpt>
      <trkpt lat="44.74271" lon="3.85965">
        <ele>967.7</ele>
        <time>2022-08-03T09:34:18Z</time>
      </trkpt>
      <trkpt lat="44.74262" lon="3.8596">
        <ele>965.78</ele>
        <time>2022-08-03T09:34:25Z</time>
      </trkpt>
      <trkpt lat="44.74242" lon="3.8595">
        <ele>964.34</ele>
        <time>2022-08-03T09:34:41Z</time>
      </trkpt>
      <trkpt lat="44.74229" lon="3.85941">
        <ele>962.9</ele>
        <time>2022-08-03T09:34:52Z</time>
      </trkpt>
      <trkpt lat="44.74212" lon="3.85919">
        <ele>962.9</ele>
        <time>2022-08-03T09:35:09Z</time>
      </trkpt>
      <trkpt lat="44.742" lon="3.85891">
        <ele>960.98</ele>
        <time>2022-08-03T09:35:27Z</time>
      </trkpt>
      <trkpt lat="44.74197" lon="3.85881">
        <ele>961.94</ele>
        <time>2022-08-03T09:35:33Z</time>
      </trkpt>
      <trkpt lat="44.74194" lon="3.8587">
        <ele>962.42</ele>
        <time>2022-08-03T09:35:39Z</time>
      </trkpt>
      <trkpt lat="44.74186" lon="3.8584">
        <ele>962.42</ele>
        <time>2022-08-03T09:35:56Z</time>
      </trkpt>
      <trkpt lat="44.74184" lon="3.85812">
        <ele>960.01</ele>
        <time>2022-08-03T09:36:12Z</time>
      </trkpt>
      <trkpt lat="44.74182" lon="3.85784">
        <ele>957.13</ele>
        <time>2022-08-03T09:36:27Z</time>
      </trkpt>
      <trkpt lat="44.74173" lon="3.85761">
        <ele>955.69</ele>
        <time>2022-08-03T09:36:41Z</time>
      </trkpt>
      <trkpt lat="44.74158" lon="3.85735">
        <ele>954.25</ele>
        <time>2022-08-03T09:36:59Z</time>
      </trkpt>
      <trkpt lat="44.7414" lon="3.85721">
        <ele>955.69</ele>
        <time>2022-08-03T09:37:13Z</time>
      </trkpt>
      <trkpt lat="44.74116" lon="3.85714">
        <ele>953.77</ele>
        <time>2022-08-03T09:37:28Z</time>
      </trkpt>
      <trkpt lat="44.74095" lon="3.85704">
        <ele>949.92</ele>
        <time>2022-08-03T09:37:45Z</time>
      </trkpt>
      <trkpt lat="44.74074" lon="3.85691">
        <ele>947.04</ele>
        <time>2022-08-03T09:38:02Z</time>
      </trkpt>
      <trkpt lat="44.74058" lon="3.85676">
        <ele>945.59</ele>
        <time>2022-08-03T09:38:17Z</time>
      </trkpt>
      <trkpt lat="44.74037" lon="3.85659">
        <ele>942.23</ele>
        <time>2022-08-03T09:38:35Z</time>
      </trkpt>
      <trkpt lat="44.74015" lon="3.85657">
        <ele>939.83</ele>
        <time>2022-08-03T09:38:51Z</time>
      </trkpt>
      <trkpt lat="44.73991" lon="3.85667">
        <ele>939.83</ele>
        <time>2022-08-03T09:39:08Z</time>
      </trkpt>
      <trkpt lat="44.7397" lon="3.85679">
        <ele>937.9</ele>
        <time>2022-08-03T09:39:25Z</time>
      </trkpt>
      <trkpt lat="44.73949" lon="3.85695">
        <ele>935.5</ele>
        <time>2022-08-03T09:39:44Z</time>
      </trkpt>
      <trkpt lat="44.7393" lon="3.85714">
        <ele>932.62</ele>
        <time>2022-08-03T09:40:02Z</time>
      </trkpt>
      <trkpt lat="44.73914" lon="3.85733">
        <ele>930.69</ele>
        <time>2022-08-03T09:40:18Z</time>
      </trkpt>
      <trkpt lat="44.73893" lon="3.85744">
        <ele>928.29</ele>
        <time>2022-08-03T09:40:34Z</time>
      </trkpt>
      <trkpt lat="44.73873" lon="3.85743">
        <ele>924.45</ele>
        <time>2022-08-03T09:40:51Z</time>
      </trkpt>
      <trkpt lat="44.7385" lon="3.85736">
        <ele>919.64</ele>
        <time>2022-08-03T09:41:09Z</time>
      </trkpt>
      <trkpt lat="44.73825" lon="3.85729">
        <ele>914.83</ele>
        <time>2022-08-03T09:41:28Z</time>
      </trkpt>
      <trkpt lat="44.73802" lon="3.85723">
        <ele>912.43</ele>
        <time>2022-08-03T09:41:45Z</time>
      </trkpt>
      <trkpt lat="44.73781" lon="3.85717">
        <ele>909.54</ele>
        <time>2022-08-03T09:42:01Z</time>
      </trkpt>
      <trkpt lat="44.7376" lon="3.85709">
        <ele>908.58</ele>
        <time>2022-08-03T09:42:17Z</time>
      </trkpt>
      <trkpt lat="44.7374" lon="3.85703">
        <ele>907.14</ele>
        <time>2022-08-03T09:42:33Z</time>
      </trkpt>
      <trkpt lat="44.73722" lon="3.85697">
        <ele>907.14</ele>
        <time>2022-08-03T09:42:49Z</time>
      </trkpt>
      <trkpt lat="44.73707" lon="3.85693">
        <ele>909.06</ele>
        <time>2022-08-03T09:43:04Z</time>
      </trkpt>
      <trkpt lat="44.73704" lon="3.85698">
        <ele>910.51</ele>
        <time>2022-08-03T09:43:10Z</time>
      </trkpt>
      <trkpt lat="44.73697" lon="3.85724">
        <ele>912.43</ele>
        <time>2022-08-03T09:43:24Z</time>
      </trkpt>
      <trkpt lat="44.73685" lon="3.85736">
        <ele>911.95</ele>
        <time>2022-08-03T09:43:35Z</time>
      </trkpt>
      <trkpt lat="44.7368" lon="3.85738">
        <ele>912.43</ele>
        <time>2022-08-03T09:43:42Z</time>
      </trkpt>
      <trkpt lat="44.73666" lon="3.8574">
        <ele>913.87</ele>
        <time>2022-08-03T09:43:53Z</time>
      </trkpt>
      <trkpt lat="44.73658" lon="3.85746">
        <ele>913.87</ele>
        <time>2022-08-03T09:43:59Z</time>
      </trkpt>
      <trkpt lat="44.73643" lon="3.85742">
        <ele>913.87</ele>
        <time>2022-08-03T09:44:12Z</time>
      </trkpt>
      <trkpt lat="44.73625" lon="3.85747">
        <ele>913.39</ele>
        <time>2022-08-03T09:44:24Z</time>
      </trkpt>
      <trkpt lat="44.73622" lon="3.85748">
        <ele>914.83</ele>
        <time>2022-08-03T09:44:41Z</time>
      </trkpt>
      <trkpt lat="44.73623" lon="3.85749">
        <ele>912.43</ele>
        <time>2022-08-03T09:45:01Z</time>
      </trkpt>
      <trkpt lat="44.73619" lon="3.85749">
        <ele>912.91</ele>
        <time>2022-08-03T09:45:30Z</time>
      </trkpt>
      <trkpt lat="44.73622" lon="3.85752">
        <ele>910.51</ele>
        <time>2022-08-03T09:45:50Z</time>
      </trkpt>
      <trkpt lat="44.73624" lon="3.85752">
        <ele>910.51</ele>
        <time>2022-08-03T09:46:05Z</time>
      </trkpt>
      <trkpt lat="44.73623" lon="3.85751">
        <ele>912.43</ele>
        <time>2022-08-03T09:46:33Z</time>
      </trkpt>
      <trkpt lat="44.73624" lon="3.85753">
        <ele>912.91</ele>
        <time>2022-08-03T09:46:58Z</time>
      </trkpt>
      <trkpt lat="44.73623" lon="3.85755">
        <ele>912.91</ele>
        <time>2022-08-03T09:47:01Z</time>
      </trkpt>
      <trkpt lat="44.73622" lon="3.85758">
        <ele>912.43</ele>
        <time>2022-08-03T09:47:03Z</time>
      </trkpt>
      <trkpt lat="44.73608" lon="3.8577">
        <ele>909.54</ele>
        <time>2022-08-03T09:47:17Z</time>
      </trkpt>
      <trkpt lat="44.73594" lon="3.85788">
        <ele>907.62</ele>
        <time>2022-08-03T09:47:31Z</time>
      </trkpt>
      <trkpt lat="44.73592" lon="3.85792">
        <ele>907.14</ele>
        <time>2022-08-03T09:47:34Z</time>
      </trkpt>
      <trkpt lat="44.73588" lon="3.85795">
        <ele>906.66</ele>
        <time>2022-08-03T09:47:38Z</time>
      </trkpt>
      <trkpt lat="44.73582" lon="3.85796">
        <ele>906.18</ele>
        <time>2022-08-03T09:47:43Z</time>
      </trkpt>
      <trkpt lat="44.73576" lon="3.85801">
        <ele>906.66</ele>
        <time>2022-08-03T09:47:57Z</time>
      </trkpt>
      <trkpt lat="44.73575" lon="3.85803">
        <ele>908.58</ele>
        <time>2022-08-03T09:48:16Z</time>
      </trkpt>
      <trkpt lat="44.73575" lon="3.85804">
        <ele>909.06</ele>
        <time>2022-08-03T09:48:17Z</time>
      </trkpt>
      <trkpt lat="44.73573" lon="3.85806">
        <ele>909.06</ele>
        <time>2022-08-03T09:48:19Z</time>
      </trkpt>
      <trkpt lat="44.73555" lon="3.85817">
        <ele>913.39</ele>
        <time>2022-08-03T09:48:36Z</time>
      </trkpt>
      <trkpt lat="44.73553" lon="3.85819">
        <ele>913.87</ele>
        <time>2022-08-03T09:48:38Z</time>
      </trkpt>
      <trkpt lat="44.73551" lon="3.85818">
        <ele>914.35</ele>
        <time>2022-08-03T09:48:40Z</time>
      </trkpt>
      <trkpt lat="44.73525" lon="3.85826">
        <ele>916.27</ele>
        <time>2022-08-03T09:48:58Z</time>
      </trkpt>
      <trkpt lat="44.73522" lon="3.85828">
        <ele>915.79</ele>
        <time>2022-08-03T09:49:01Z</time>
      </trkpt>
      <trkpt lat="44.73511" lon="3.85817">
        <ele>914.35</ele>
        <time>2022-08-03T09:49:13Z</time>
      </trkpt>
      <trkpt lat="44.735" lon="3.8579">
        <ele>911.95</ele>
        <time>2022-08-03T09:49:31Z</time>
      </trkpt>
      <trkpt lat="44.73487" lon="3.85764">
        <ele>910.99</ele>
        <time>2022-08-03T09:49:48Z</time>
      </trkpt>
      <trkpt lat="44.7348" lon="3.85747">
        <ele>910.03</ele>
        <time>2022-08-03T09:49:59Z</time>
      </trkpt>
      <trkpt lat="44.73468" lon="3.85726">
        <ele>909.54</ele>
        <time>2022-08-03T09:50:13Z</time>
      </trkpt>
      <trkpt lat="44.73454" lon="3.85709">
        <ele>910.03</ele>
        <time>2022-08-03T09:50:28Z</time>
      </trkpt>
      <trkpt lat="44.73454" lon="3.85708">
        <ele>910.03</ele>
        <time>2022-08-03T09:50:29Z</time>
      </trkpt>
      <trkpt lat="44.73436" lon="3.85699">
        <ele>910.51</ele>
        <time>2022-08-03T09:50:43Z</time>
      </trkpt>
      <trkpt lat="44.73431" lon="3.85698">
        <ele>910.03</ele>
        <time>2022-08-03T09:50:48Z</time>
      </trkpt>
      <trkpt lat="44.7341" lon="3.857">
        <ele>909.06</ele>
        <time>2022-08-03T09:51:03Z</time>
      </trkpt>
      <trkpt lat="44.73389" lon="3.85708">
        <ele>910.99</ele>
        <time>2022-08-03T09:51:18Z</time>
      </trkpt>
      <trkpt lat="44.73388" lon="3.85709">
        <ele>910.99</ele>
        <time>2022-08-03T09:51:19Z</time>
      </trkpt>
      <trkpt lat="44.73384" lon="3.85712">
        <ele>910.99</ele>
        <time>2022-08-03T09:51:22Z</time>
      </trkpt>
      <trkpt lat="44.73364" lon="3.85722">
        <ele>910.03</ele>
        <time>2022-08-03T09:51:37Z</time>
      </trkpt>
      <trkpt lat="44.73362" lon="3.85733">
        <ele>910.03</ele>
        <time>2022-08-03T09:51:51Z</time>
      </trkpt>
      <trkpt lat="44.73363" lon="3.85738">
        <ele>909.54</ele>
        <time>2022-08-03T09:51:55Z</time>
      </trkpt>
      <trkpt lat="44.73385" lon="3.85747">
        <ele>909.54</ele>
        <time>2022-08-03T09:52:12Z</time>
      </trkpt>
      <trkpt lat="44.73388" lon="3.85749">
        <ele>909.54</ele>
        <time>2022-08-03T09:52:15Z</time>
      </trkpt>
      <trkpt lat="44.73391" lon="3.85751">
        <ele>910.51</ele>
        <time>2022-08-03T09:52:28Z</time>
      </trkpt>
      <trkpt lat="44.7339" lon="3.85746">
        <ele>912.43</ele>
        <time>2022-08-03T09:52:52Z</time>
      </trkpt>
      <trkpt lat="44.73392" lon="3.85747">
        <ele>917.72</ele>
        <time>2022-08-03T09:53:16Z</time>
      </trkpt>
      <trkpt lat="44.73399" lon="3.85751">
        <ele>919.64</ele>
        <time>2022-08-03T09:53:44Z</time>
      </trkpt>
      <trkpt lat="44.73397" lon="3.85746">
        <ele>919.16</ele>
        <time>2022-08-03T09:54:11Z</time>
      </trkpt>
      <trkpt lat="44.73394" lon="3.85754">
        <ele>913.87</ele>
        <time>2022-08-03T09:54:34Z</time>
      </trkpt>
      <trkpt lat="44.73396" lon="3.85754">
        <ele>921.08</ele>
        <time>2022-08-03T09:54:59Z</time>
      </trkpt>
      <trkpt lat="44.73403" lon="3.85763">
        <ele>926.85</ele>
        <time>2022-08-03T09:55:32Z</time>
      </trkpt>
      <trkpt lat="44.73398" lon="3.8576">
        <ele>930.69</ele>
        <time>2022-08-03T09:55:56Z</time>
      </trkpt>
      <trkpt lat="44.73408" lon="3.85763">
        <ele>931.65</ele>
        <time>2022-08-03T09:56:22Z</time>
      </trkpt>
      <trkpt lat="44.73405" lon="3.85761">
        <ele>931.65</ele>
        <time>2022-08-03T09:56:44Z</time>
      </trkpt>
      <trkpt lat="44.73404" lon="3.85782">
        <ele>929.25</ele>
        <time>2022-08-03T09:57:10Z</time>
      </trkpt>
      <trkpt lat="44.73427" lon="3.85792">
        <ele>927.81</ele>
        <time>2022-08-03T09:57:32Z</time>
      </trkpt>
      <trkpt lat="44.73431" lon="3.8579">
        <ele>928.29</ele>
        <time>2022-08-03T09:57:36Z</time>
      </trkpt>
      <trkpt lat="44.73429" lon="3.85765">
        <ele>926.85</ele>
        <time>2022-08-03T09:58:17Z</time>
      </trkpt>
      <trkpt lat="44.73418" lon="3.85754">
        <ele>926.37</ele>
        <time>2022-08-03T09:58:38Z</time>
      </trkpt>
      <trkpt lat="44.73395" lon="3.85735">
        <ele>916.75</ele>
        <time>2022-08-03T09:59:04Z</time>
      </trkpt>
      <trkpt lat="44.73409" lon="3.85752">
        <ele>907.62</ele>
        <time>2022-08-03T09:59:28Z</time>
      </trkpt>
      <trkpt lat="44.73401" lon="3.85733">
        <ele>906.18</ele>
        <time>2022-08-03T09:59:52Z</time>
      </trkpt>
      <trkpt lat="44.73396" lon="3.85734">
        <ele>903.3</ele>
        <time>2022-08-03T10:00:16Z</time>
      </trkpt>
      <trkpt lat="44.73396" lon="3.85751">
        <ele>899.93</ele>
        <time>2022-08-03T10:00:40Z</time>
      </trkpt>
      <trkpt lat="44.73391" lon="3.85733">
        <ele>896.57</ele>
        <time>2022-08-03T10:01:08Z</time>
      </trkpt>
      <trkpt lat="44.73384" lon="3.85725">
        <ele>900.41</ele>
        <time>2022-08-03T10:01:32Z</time>
      </trkpt>
      <trkpt lat="44.73388" lon="3.85727">
        <ele>902.82</ele>
        <time>2022-08-03T10:01:48Z</time>
      </trkpt>
      <trkpt lat="44.73382" lon="3.85725">
        <ele>907.14</ele>
        <time>2022-08-03T10:02:09Z</time>
      </trkpt>
      <trkpt lat="44.73374" lon="3.85719">
        <ele>914.83</ele>
        <time>2022-08-03T10:02:32Z</time>
      </trkpt>
      <trkpt lat="44.7337" lon="3.85718">
        <ele>923</ele>
        <time>2022-08-03T10:02:55Z</time>
      </trkpt>
      <trkpt lat="44.73375" lon="3.85724">
        <ele>921.56</ele>
        <time>2022-08-03T10:03:22Z</time>
      </trkpt>
      <trkpt lat="44.7338" lon="3.85724">
        <ele>921.56</ele>
        <time>2022-08-03T10:03:52Z</time>
      </trkpt>
      <trkpt lat="44.73381" lon="3.85726">
        <ele>924.45</ele>
        <time>2022-08-03T10:04:24Z</time>
      </trkpt>
      <trkpt lat="44.73378" lon="3.85721">
        <ele>928.29</ele>
        <time>2022-08-03T10:04:53Z</time>
      </trkpt>
      <trkpt lat="44.73376" lon="3.85719">
        <ele>931.17</ele>
        <time>2022-08-03T10:05:26Z</time>
      </trkpt>
      <trkpt lat="44.73374" lon="3.85721">
        <ele>931.65</ele>
        <time>2022-08-03T10:05:58Z</time>
      </trkpt>
      <trkpt lat="44.73382" lon="3.85728">
        <ele>928.77</ele>
        <time>2022-08-03T10:06:32Z</time>
      </trkpt>
      <trkpt lat="44.73389" lon="3.85729">
        <ele>929.73</ele>
        <time>2022-08-03T10:07:01Z</time>
      </trkpt>
      <trkpt lat="44.73388" lon="3.85727">
        <ele>935.5</ele>
        <time>2022-08-03T10:07:20Z</time>
      </trkpt>
      <trkpt lat="44.73395" lon="3.8572">
        <ele>940.79</ele>
        <time>2022-08-03T10:07:44Z</time>
      </trkpt>
      <trkpt lat="44.73391" lon="3.85724">
        <ele>939.35</ele>
        <time>2022-08-03T10:07:46Z</time>
      </trkpt>
      <trkpt lat="44.73372" lon="3.85738">
        <ele>931.65</ele>
        <time>2022-08-03T10:07:54Z</time>
      </trkpt>
      <trkpt lat="44.73369" lon="3.85754">
        <ele>928.29</ele>
        <time>2022-08-03T10:08:03Z</time>
      </trkpt>
      <trkpt lat="44.73368" lon="3.85759">
        <ele>927.81</ele>
        <time>2022-08-03T10:08:06Z</time>
      </trkpt>
      <trkpt lat="44.73382" lon="3.85794">
        <ele>923.48</ele>
        <time>2022-08-03T10:08:20Z</time>
      </trkpt>
      <trkpt lat="44.73382" lon="3.85794">
        <ele>922.04</ele>
        <time>2022-08-03T10:08:24Z</time>
      </trkpt>
      <trkpt lat="44.73375" lon="3.85778">
        <ele>920.12</ele>
        <time>2022-08-03T10:08:38Z</time>
      </trkpt>
      <trkpt lat="44.73371" lon="3.85774">
        <ele>920.6</ele>
        <time>2022-08-03T10:08:43Z</time>
      </trkpt>
      <trkpt lat="44.73367" lon="3.85774">
        <ele>921.08</ele>
        <time>2022-08-03T10:08:49Z</time>
      </trkpt>
      <trkpt lat="44.73359" lon="3.85782">
        <ele>919.64</ele>
        <time>2022-08-03T10:08:54Z</time>
      </trkpt>
      <trkpt lat="44.73354" lon="3.8579">
        <ele>918.68</ele>
        <time>2022-08-03T10:08:58Z</time>
      </trkpt>
      <trkpt lat="44.73347" lon="3.858">
        <ele>916.27</ele>
        <time>2022-08-03T10:09:05Z</time>
      </trkpt>
      <trkpt lat="44.73341" lon="3.85817">
        <ele>914.35</ele>
        <time>2022-08-03T10:09:18Z</time>
      </trkpt>
      <trkpt lat="44.73332" lon="3.85823">
        <ele>914.83</ele>
        <time>2022-08-03T10:09:25Z</time>
      </trkpt>
      <trkpt lat="44.73317" lon="3.85843">
        <ele>914.35</ele>
        <time>2022-08-03T10:09:41Z</time>
      </trkpt>
      <trkpt lat="44.73306" lon="3.85862">
        <ele>915.31</ele>
        <time>2022-08-03T10:09:56Z</time>
      </trkpt>
      <trkpt lat="44.73302" lon="3.85873">
        <ele>917.72</ele>
        <time>2022-08-03T10:10:08Z</time>
      </trkpt>
      <trkpt lat="44.73298" lon="3.85876">
        <ele>918.2</ele>
        <time>2022-08-03T10:10:12Z</time>
      </trkpt>
      <trkpt lat="44.73277" lon="3.85883">
        <ele>917.72</ele>
        <time>2022-08-03T10:10:28Z</time>
      </trkpt>
      <trkpt lat="44.73276" lon="3.85884">
        <ele>917.72</ele>
        <time>2022-08-03T10:10:29Z</time>
      </trkpt>
      <trkpt lat="44.73266" lon="3.85887">
        <ele>916.27</ele>
        <time>2022-08-03T10:10:38Z</time>
      </trkpt>
      <trkpt lat="44.73256" lon="3.85889">
        <ele>914.83</ele>
        <time>2022-08-03T10:10:46Z</time>
      </trkpt>
      <trkpt lat="44.73233" lon="3.85895">
        <ele>913.39</ele>
        <time>2022-08-03T10:11:02Z</time>
      </trkpt>
      <trkpt lat="44.73222" lon="3.85898">
        <ele>913.87</ele>
        <time>2022-08-03T10:11:11Z</time>
      </trkpt>
      <trkpt lat="44.73214" lon="3.85905">
        <ele>914.35</ele>
        <time>2022-08-03T10:11:18Z</time>
      </trkpt>
      <trkpt lat="44.732" lon="3.85921">
        <ele>912.91</ele>
        <time>2022-08-03T10:11:32Z</time>
      </trkpt>
      <trkpt lat="44.7318" lon="3.85922">
        <ele>912.43</ele>
        <time>2022-08-03T10:11:48Z</time>
      </trkpt>
      <trkpt lat="44.73178" lon="3.85921">
        <ele>912.43</ele>
        <time>2022-08-03T10:11:49Z</time>
      </trkpt>
      <trkpt lat="44.73165" lon="3.85914">
        <ele>913.87</ele>
        <time>2022-08-03T10:12:04Z</time>
      </trkpt>
      <trkpt lat="44.73156" lon="3.85906">
        <ele>916.27</ele>
        <time>2022-08-03T10:12:20Z</time>
      </trkpt>
      <trkpt lat="44.73154" lon="3.85904">
        <ele>916.75</ele>
        <time>2022-08-03T10:12:22Z</time>
      </trkpt>
      <trkpt lat="44.73151" lon="3.85901">
        <ele>918.2</ele>
        <time>2022-08-03T10:12:25Z</time>
      </trkpt>
      <trkpt lat="44.73144" lon="3.85894">
        <ele>919.16</ele>
        <time>2022-08-03T10:12:31Z</time>
      </trkpt>
      <trkpt lat="44.73133" lon="3.85872">
        <ele>919.64</ele>
        <time>2022-08-03T10:12:47Z</time>
      </trkpt>
      <trkpt lat="44.73132" lon="3.85867">
        <ele>921.08</ele>
        <time>2022-08-03T10:12:51Z</time>
      </trkpt>
      <trkpt lat="44.73131" lon="3.85864">
        <ele>922.04</ele>
        <time>2022-08-03T10:12:53Z</time>
      </trkpt>
      <trkpt lat="44.73129" lon="3.85861">
        <ele>923.48</ele>
        <time>2022-08-03T10:12:56Z</time>
      </trkpt>
      <trkpt lat="44.73122" lon="3.85852">
        <ele>926.85</ele>
        <time>2022-08-03T10:13:10Z</time>
      </trkpt>
      <trkpt lat="44.73121" lon="3.85851">
        <ele>926.85</ele>
        <time>2022-08-03T10:13:11Z</time>
      </trkpt>
      <trkpt lat="44.73108" lon="3.85838">
        <ele>924.93</ele>
        <time>2022-08-03T10:13:24Z</time>
      </trkpt>
      <trkpt lat="44.73094" lon="3.85824">
        <ele>923.96</ele>
        <time>2022-08-03T10:13:36Z</time>
      </trkpt>
      <trkpt lat="44.73091" lon="3.85822">
        <ele>923.96</ele>
        <time>2022-08-03T10:13:39Z</time>
      </trkpt>
      <trkpt lat="44.73088" lon="3.85821">
        <ele>923.96</ele>
        <time>2022-08-03T10:13:41Z</time>
      </trkpt>
      <trkpt lat="44.73074" lon="3.85802">
        <ele>923.96</ele>
        <time>2022-08-03T10:13:57Z</time>
      </trkpt>
      <trkpt lat="44.73059" lon="3.85783">
        <ele>923.96</ele>
        <time>2022-08-03T10:14:12Z</time>
      </trkpt>
      <trkpt lat="44.73048" lon="3.85762">
        <ele>920.12</ele>
        <time>2022-08-03T10:14:26Z</time>
      </trkpt>
      <trkpt lat="44.73035" lon="3.85743">
        <ele>917.72</ele>
        <time>2022-08-03T10:14:40Z</time>
      </trkpt>
      <trkpt lat="44.73024" lon="3.85727">
        <ele>916.27</ele>
        <time>2022-08-03T10:14:53Z</time>
      </trkpt>
      <trkpt lat="44.73012" lon="3.85711">
        <ele>916.27</ele>
        <time>2022-08-03T10:15:06Z</time>
      </trkpt>
      <trkpt lat="44.72997" lon="3.85701">
        <ele>916.27</ele>
        <time>2022-08-03T10:15:19Z</time>
      </trkpt>
      <trkpt lat="44.72994" lon="3.85697">
        <ele>916.75</ele>
        <time>2022-08-03T10:15:23Z</time>
      </trkpt>
      <trkpt lat="44.72992" lon="3.85694">
        <ele>916.27</ele>
        <time>2022-08-03T10:15:26Z</time>
      </trkpt>
      <trkpt lat="44.72976" lon="3.85674">
        <ele>918.68</ele>
        <time>2022-08-03T10:15:43Z</time>
      </trkpt>
      <trkpt lat="44.72971" lon="3.85667">
        <ele>916.75</ele>
        <time>2022-08-03T10:15:49Z</time>
      </trkpt>
      <trkpt lat="44.72963" lon="3.85663">
        <ele>913.39</ele>
        <time>2022-08-03T10:15:54Z</time>
      </trkpt>
      <trkpt lat="44.72949" lon="3.85656">
        <ele>911.95</ele>
        <time>2022-08-03T10:16:07Z</time>
      </trkpt>
      <trkpt lat="44.72948" lon="3.85655">
        <ele>911.95</ele>
        <time>2022-08-03T10:16:08Z</time>
      </trkpt>
      <trkpt lat="44.72935" lon="3.85642">
        <ele>915.79</ele>
        <time>2022-08-03T10:16:22Z</time>
      </trkpt>
      <trkpt lat="44.72922" lon="3.85633">
        <ele>921.08</ele>
        <time>2022-08-03T10:16:37Z</time>
      </trkpt>
      <trkpt lat="44.72913" lon="3.85624">
        <ele>924.45</ele>
        <time>2022-08-03T10:16:46Z</time>
      </trkpt>
      <trkpt lat="44.72896" lon="3.85611">
        <ele>923.96</ele>
        <time>2022-08-03T10:17:01Z</time>
      </trkpt>
      <trkpt lat="44.72889" lon="3.85604">
        <ele>923.48</ele>
        <time>2022-08-03T10:17:11Z</time>
      </trkpt>
      <trkpt lat="44.72884" lon="3.85597">
        <ele>923</ele>
        <time>2022-08-03T10:17:17Z</time>
      </trkpt>
      <trkpt lat="44.72876" lon="3.85587">
        <ele>926.37</ele>
        <time>2022-08-03T10:17:28Z</time>
      </trkpt>
      <trkpt lat="44.72867" lon="3.85585">
        <ele>927.33</ele>
        <time>2022-08-03T10:17:35Z</time>
      </trkpt>
      <trkpt lat="44.72849" lon="3.85581">
        <ele>926.85</ele>
        <time>2022-08-03T10:17:47Z</time>
      </trkpt>
      <trkpt lat="44.72833" lon="3.85578">
        <ele>925.89</ele>
        <time>2022-08-03T10:18:00Z</time>
      </trkpt>
      <trkpt lat="44.72818" lon="3.85572">
        <ele>924.93</ele>
        <time>2022-08-03T10:18:12Z</time>
      </trkpt>
      <trkpt lat="44.728" lon="3.85566">
        <ele>926.37</ele>
        <time>2022-08-03T10:18:27Z</time>
      </trkpt>
      <trkpt lat="44.72784" lon="3.85559">
        <ele>927.81</ele>
        <time>2022-08-03T10:18:40Z</time>
      </trkpt>
      <trkpt lat="44.72766" lon="3.85556">
        <ele>930.21</ele>
        <time>2022-08-03T10:18:55Z</time>
      </trkpt>
      <trkpt lat="44.72753" lon="3.85553">
        <ele>934.06</ele>
        <time>2022-08-03T10:19:09Z</time>
      </trkpt>
      <trkpt lat="44.72736" lon="3.85547">
        <ele>929.25</ele>
        <time>2022-08-03T10:19:22Z</time>
      </trkpt>
      <trkpt lat="44.72729" lon="3.85548">
        <ele>927.33</ele>
        <time>2022-08-03T10:19:31Z</time>
      </trkpt>
      <trkpt lat="44.72727" lon="3.8555">
        <ele>926.37</ele>
        <time>2022-08-03T10:19:32Z</time>
      </trkpt>
      <trkpt lat="44.72711" lon="3.85564">
        <ele>923.96</ele>
        <time>2022-08-03T10:19:44Z</time>
      </trkpt>
      <trkpt lat="44.72711" lon="3.85565">
        <ele>923.96</ele>
        <time>2022-08-03T10:19:45Z</time>
      </trkpt>
      <trkpt lat="44.7271" lon="3.85566">
        <ele>923.96</ele>
        <time>2022-08-03T10:19:46Z</time>
      </trkpt>
      <trkpt lat="44.72708" lon="3.85567">
        <ele>923.96</ele>
        <time>2022-08-03T10:19:47Z</time>
      </trkpt>
      <trkpt lat="44.72707" lon="3.85568">
        <ele>923.96</ele>
        <time>2022-08-03T10:19:48Z</time>
      </trkpt>
      <trkpt lat="44.72706" lon="3.8557">
        <ele>923.96</ele>
        <time>2022-08-03T10:19:49Z</time>
      </trkpt>
      <trkpt lat="44.72705" lon="3.8557">
        <ele>923.48</ele>
        <time>2022-08-03T10:19:50Z</time>
      </trkpt>
      <trkpt lat="44.72699" lon="3.85578">
        <ele>923.48</ele>
        <time>2022-08-03T10:19:56Z</time>
      </trkpt>
      <trkpt lat="44.72698" lon="3.85579">
        <ele>923</ele>
        <time>2022-08-03T10:19:57Z</time>
      </trkpt>
      <trkpt lat="44.72697" lon="3.8558">
        <ele>923</ele>
        <time>2022-08-03T10:19:58Z</time>
      </trkpt>
      <trkpt lat="44.72696" lon="3.85581">
        <ele>923</ele>
        <time>2022-08-03T10:19:59Z</time>
      </trkpt>
      <trkpt lat="44.72696" lon="3.85582">
        <ele>922.52</ele>
        <time>2022-08-03T10:20:00Z</time>
      </trkpt>
      <trkpt lat="44.72696" lon="3.85584">
        <ele>922.52</ele>
        <time>2022-08-03T10:20:01Z</time>
      </trkpt>
      <trkpt lat="44.72696" lon="3.85585">
        <ele>922.52</ele>
        <time>2022-08-03T10:20:02Z</time>
      </trkpt>
      <trkpt lat="44.72694" lon="3.85586">
        <ele>923</ele>
        <time>2022-08-03T10:20:03Z</time>
      </trkpt>
      <trkpt lat="44.72693" lon="3.85594">
        <ele>925.41</ele>
        <time>2022-08-03T10:20:13Z</time>
      </trkpt>
      <trkpt lat="44.72695" lon="3.85596">
        <ele>925.41</ele>
        <time>2022-08-03T10:20:15Z</time>
      </trkpt>
      <trkpt lat="44.72695" lon="3.85597">
        <ele>925.41</ele>
        <time>2022-08-03T10:20:16Z</time>
      </trkpt>
      <trkpt lat="44.72695" lon="3.85598">
        <ele>925.41</ele>
        <time>2022-08-03T10:20:17Z</time>
      </trkpt>
      <trkpt lat="44.7269" lon="3.85603">
        <ele>926.37</ele>
        <time>2022-08-03T10:20:25Z</time>
      </trkpt>
      <trkpt lat="44.72682" lon="3.85602">
        <ele>926.37</ele>
        <time>2022-08-03T10:20:35Z</time>
      </trkpt>
      <trkpt lat="44.72668" lon="3.85597">
        <ele>926.85</ele>
        <time>2022-08-03T10:20:47Z</time>
      </trkpt>
      <trkpt lat="44.72658" lon="3.85594">
        <ele>928.77</ele>
        <time>2022-08-03T10:20:58Z</time>
      </trkpt>
      <trkpt lat="44.72651" lon="3.85589">
        <ele>932.62</ele>
        <time>2022-08-03T10:21:07Z</time>
      </trkpt>
      <trkpt lat="44.72648" lon="3.85586">
        <ele>934.54</ele>
        <time>2022-08-03T10:21:11Z</time>
      </trkpt>
      <trkpt lat="44.72647" lon="3.85585">
        <ele>935.02</ele>
        <time>2022-08-03T10:21:12Z</time>
      </trkpt>
      <trkpt lat="44.72642" lon="3.8558">
        <ele>938.38</ele>
        <time>2022-08-03T10:21:17Z</time>
      </trkpt>
      <trkpt lat="44.7264" lon="3.85578">
        <ele>939.83</ele>
        <time>2022-08-03T10:21:20Z</time>
      </trkpt>
      <trkpt lat="44.72638" lon="3.85571">
        <ele>944.15</ele>
        <time>2022-08-03T10:21:32Z</time>
      </trkpt>
      <trkpt lat="44.72636" lon="3.85555">
        <ele>944.63</ele>
        <time>2022-08-03T10:21:42Z</time>
      </trkpt>
      <trkpt lat="44.72644" lon="3.85517">
        <ele>943.19</ele>
        <time>2022-08-03T10:21:55Z</time>
      </trkpt>
      <trkpt lat="44.72646" lon="3.85511">
        <ele>943.19</ele>
        <time>2022-08-03T10:22:00Z</time>
      </trkpt>
      <trkpt lat="44.7266" lon="3.85506">
        <ele>942.71</ele>
        <time>2022-08-03T10:22:12Z</time>
      </trkpt>
      <trkpt lat="44.72671" lon="3.85506">
        <ele>941.27</ele>
        <time>2022-08-03T10:22:22Z</time>
      </trkpt>
      <trkpt lat="44.72674" lon="3.85508">
        <ele>940.79</ele>
        <time>2022-08-03T10:22:25Z</time>
      </trkpt>
      <trkpt lat="44.72684" lon="3.85507">
        <ele>939.83</ele>
        <time>2022-08-03T10:22:33Z</time>
      </trkpt>
      <trkpt lat="44.72685" lon="3.85509">
        <ele>939.35</ele>
        <time>2022-08-03T10:22:35Z</time>
      </trkpt>
      <trkpt lat="44.72688" lon="3.85512">
        <ele>938.86</ele>
        <time>2022-08-03T10:22:38Z</time>
      </trkpt>
      <trkpt lat="44.72691" lon="3.85514">
        <ele>938.38</ele>
        <time>2022-08-03T10:22:41Z</time>
      </trkpt>
      <trkpt lat="44.72697" lon="3.85516">
        <ele>937.9</ele>
        <time>2022-08-03T10:22:54Z</time>
      </trkpt>
      <trkpt lat="44.7269" lon="3.85464">
        <ele>937.42</ele>
        <time>2022-08-03T10:23:42Z</time>
      </trkpt>
      <trkpt lat="44.72693" lon="3.85447">
        <ele>937.9</ele>
        <time>2022-08-03T10:24:03Z</time>
      </trkpt>
      <trkpt lat="44.72704" lon="3.85509">
        <ele>940.79</ele>
        <time>2022-08-03T10:25:15Z</time>
      </trkpt>
      <trkpt lat="44.72718" lon="3.85525">
        <ele>939.35</ele>
        <time>2022-08-03T10:25:25Z</time>
      </trkpt>
      <trkpt lat="44.72715" lon="3.85533">
        <ele>936.46</ele>
        <time>2022-08-03T10:25:29Z</time>
      </trkpt>
      <trkpt lat="44.72718" lon="3.85534">
        <ele>936.46</ele>
        <time>2022-08-03T10:25:34Z</time>
      </trkpt>
      <trkpt lat="44.7273" lon="3.85529">
        <ele>935.02</ele>
        <time>2022-08-03T10:25:48Z</time>
      </trkpt>
      <trkpt lat="44.72736" lon="3.85522">
        <ele>931.65</ele>
        <time>2022-08-03T10:25:55Z</time>
      </trkpt>
      <trkpt lat="44.72739" lon="3.85502">
        <ele>928.77</ele>
        <time>2022-08-03T10:26:09Z</time>
      </trkpt>
      <trkpt lat="44.72735" lon="3.85498">
        <ele>928.29</ele>
        <time>2022-08-03T10:26:20Z</time>
      </trkpt>
      <trkpt lat="44.72731" lon="3.85495">
        <ele>928.77</ele>
        <time>2022-08-03T10:26:25Z</time>
      </trkpt>
      <trkpt lat="44.72723" lon="3.8549">
        <ele>929.25</ele>
        <time>2022-08-03T10:26:32Z</time>
      </trkpt>
      <trkpt lat="44.72717" lon="3.85482">
        <ele>930.69</ele>
        <time>2022-08-03T10:26:39Z</time>
      </trkpt>
      <trkpt lat="44.72703" lon="3.85467">
        <ele>930.69</ele>
        <time>2022-08-03T10:26:54Z</time>
      </trkpt>
      <trkpt lat="44.72698" lon="3.85462">
        <ele>930.69</ele>
        <time>2022-08-03T10:26:59Z</time>
      </trkpt>
      <trkpt lat="44.72686" lon="3.8546">
        <ele>930.21</ele>
        <time>2022-08-03T10:27:10Z</time>
      </trkpt>
      <trkpt lat="44.72672" lon="3.85461">
        <ele>929.25</ele>
        <time>2022-08-03T10:27:21Z</time>
      </trkpt>
      <trkpt lat="44.72654" lon="3.85464">
        <ele>930.21</ele>
        <time>2022-08-03T10:27:33Z</time>
      </trkpt>
      <trkpt lat="44.72641" lon="3.85468">
        <ele>928.77</ele>
        <time>2022-08-03T10:27:45Z</time>
      </trkpt>
      <trkpt lat="44.72628" lon="3.85472">
        <ele>925.89</ele>
        <time>2022-08-03T10:28:00Z</time>
      </trkpt>
      <trkpt lat="44.72622" lon="3.85478">
        <ele>923.48</ele>
        <time>2022-08-03T10:28:15Z</time>
      </trkpt>
      <trkpt lat="44.72611" lon="3.85489">
        <ele>922.04</ele>
        <time>2022-08-03T10:28:31Z</time>
      </trkpt>
      <trkpt lat="44.72608" lon="3.85489">
        <ele>922.04</ele>
        <time>2022-08-03T10:28:33Z</time>
      </trkpt>
      <trkpt lat="44.72607" lon="3.85501">
        <ele>921.56</ele>
        <time>2022-08-03T10:28:39Z</time>
      </trkpt>
      <trkpt lat="44.72605" lon="3.85515">
        <ele>921.08</ele>
        <time>2022-08-03T10:28:48Z</time>
      </trkpt>
      <trkpt lat="44.72612" lon="3.85528">
        <ele>921.08</ele>
        <time>2022-08-03T10:29:01Z</time>
      </trkpt>
      <trkpt lat="44.72613" lon="3.85531">
        <ele>921.08</ele>
        <time>2022-08-03T10:29:03Z</time>
      </trkpt>
      <trkpt lat="44.72618" lon="3.85544">
        <ele>920.6</ele>
        <time>2022-08-03T10:29:12Z</time>
      </trkpt>
      <trkpt lat="44.72619" lon="3.85561">
        <ele>920.12</ele>
        <time>2022-08-03T10:29:25Z</time>
      </trkpt>
      <trkpt lat="44.72619" lon="3.85565">
        <ele>919.64</ele>
        <time>2022-08-03T10:29:28Z</time>
      </trkpt>
      <trkpt lat="44.72616" lon="3.85569">
        <ele>919.64</ele>
        <time>2022-08-03T10:29:30Z</time>
      </trkpt>
      <trkpt lat="44.7259" lon="3.85586">
        <ele>917.72</ele>
        <time>2022-08-03T10:29:47Z</time>
      </trkpt>
      <trkpt lat="44.72586" lon="3.85593">
        <ele>917.72</ele>
        <time>2022-08-03T10:29:51Z</time>
      </trkpt>
      <trkpt lat="44.7257" lon="3.85612">
        <ele>915.79</ele>
        <time>2022-08-03T10:30:07Z</time>
      </trkpt>
      <trkpt lat="44.72565" lon="3.8563">
        <ele>915.31</ele>
        <time>2022-08-03T10:30:18Z</time>
      </trkpt>
      <trkpt lat="44.72551" lon="3.85637">
        <ele>917.24</ele>
        <time>2022-08-03T10:30:33Z</time>
      </trkpt>
      <trkpt lat="44.72537" lon="3.85645">
        <ele>916.27</ele>
        <time>2022-08-03T10:30:46Z</time>
      </trkpt>
      <trkpt lat="44.72535" lon="3.85645">
        <ele>916.27</ele>
        <time>2022-08-03T10:30:49Z</time>
      </trkpt>
      <trkpt lat="44.72529" lon="3.85643">
        <ele>916.27</ele>
        <time>2022-08-03T10:30:55Z</time>
      </trkpt>
      <trkpt lat="44.72522" lon="3.85636">
        <ele>916.27</ele>
        <time>2022-08-03T10:31:04Z</time>
      </trkpt>
      <trkpt lat="44.72507" lon="3.8564">
        <ele>917.24</ele>
        <time>2022-08-03T10:31:17Z</time>
      </trkpt>
      <trkpt lat="44.72505" lon="3.85641">
        <ele>917.72</ele>
        <time>2022-08-03T10:31:19Z</time>
      </trkpt>
      <trkpt lat="44.72491" lon="3.85644">
        <ele>921.08</ele>
        <time>2022-08-03T10:31:33Z</time>
      </trkpt>
      <trkpt lat="44.72487" lon="3.85641">
        <ele>923</ele>
        <time>2022-08-03T10:31:45Z</time>
      </trkpt>
      <trkpt lat="44.72484" lon="3.85635">
        <ele>925.41</ele>
        <time>2022-08-03T10:31:52Z</time>
      </trkpt>
      <trkpt lat="44.72476" lon="3.85628">
        <ele>928.77</ele>
        <time>2022-08-03T10:32:02Z</time>
      </trkpt>
      <trkpt lat="44.72463" lon="3.85621">
        <ele>928.77</ele>
        <time>2022-08-03T10:32:13Z</time>
      </trkpt>
      <trkpt lat="44.72449" lon="3.85609">
        <ele>927.81</ele>
        <time>2022-08-03T10:32:27Z</time>
      </trkpt>
      <trkpt lat="44.72445" lon="3.85609">
        <ele>928.29</ele>
        <time>2022-08-03T10:32:38Z</time>
      </trkpt>
      <trkpt lat="44.72436" lon="3.85614">
        <ele>926.85</ele>
        <time>2022-08-03T10:33:05Z</time>
      </trkpt>
      <trkpt lat="44.72434" lon="3.85608">
        <ele>924.45</ele>
        <time>2022-08-03T10:33:33Z</time>
      </trkpt>
      <trkpt lat="44.72436" lon="3.85603">
        <ele>923</ele>
        <time>2022-08-03T10:33:47Z</time>
      </trkpt>
      <trkpt lat="44.72424" lon="3.856">
        <ele>923</ele>
        <time>2022-08-03T10:33:58Z</time>
      </trkpt>
      <trkpt lat="44.72421" lon="3.85601">
        <ele>923</ele>
        <time>2022-08-03T10:34:01Z</time>
      </trkpt>
      <trkpt lat="44.72418" lon="3.85602">
        <ele>923.48</ele>
        <time>2022-08-03T10:34:04Z</time>
      </trkpt>
      <trkpt lat="44.72402" lon="3.85607">
        <ele>923.96</ele>
        <time>2022-08-03T10:34:19Z</time>
      </trkpt>
      <trkpt lat="44.72384" lon="3.85611">
        <ele>923.96</ele>
        <time>2022-08-03T10:34:34Z</time>
      </trkpt>
      <trkpt lat="44.72368" lon="3.85613">
        <ele>925.41</ele>
        <time>2022-08-03T10:34:48Z</time>
      </trkpt>
      <trkpt lat="44.72349" lon="3.85618">
        <ele>926.85</ele>
        <time>2022-08-03T10:35:04Z</time>
      </trkpt>
      <trkpt lat="44.72334" lon="3.85621">
        <ele>927.33</ele>
        <time>2022-08-03T10:35:17Z</time>
      </trkpt>
      <trkpt lat="44.72331" lon="3.85623">
        <ele>927.33</ele>
        <time>2022-08-03T10:35:19Z</time>
      </trkpt>
      <trkpt lat="44.72326" lon="3.85624">
        <ele>928.29</ele>
        <time>2022-08-03T10:35:24Z</time>
      </trkpt>
      <trkpt lat="44.72315" lon="3.85616">
        <ele>930.21</ele>
        <time>2022-08-03T10:35:35Z</time>
      </trkpt>
      <trkpt lat="44.72304" lon="3.85613">
        <ele>933.1</ele>
        <time>2022-08-03T10:35:48Z</time>
      </trkpt>
      <trkpt lat="44.72297" lon="3.8561">
        <ele>935.5</ele>
        <time>2022-08-03T10:35:55Z</time>
      </trkpt>
      <trkpt lat="44.72285" lon="3.85604">
        <ele>934.06</ele>
        <time>2022-08-03T10:36:04Z</time>
      </trkpt>
      <trkpt lat="44.72279" lon="3.85597">
        <ele>933.1</ele>
        <time>2022-08-03T10:36:10Z</time>
      </trkpt>
      <trkpt lat="44.72266" lon="3.85581">
        <ele>933.58</ele>
        <time>2022-08-03T10:36:25Z</time>
      </trkpt>
      <trkpt lat="44.72255" lon="3.8557">
        <ele>933.1</ele>
        <time>2022-08-03T10:36:38Z</time>
      </trkpt>
      <trkpt lat="44.72249" lon="3.85565">
        <ele>932.62</ele>
        <time>2022-08-03T10:36:44Z</time>
      </trkpt>
      <trkpt lat="44.72244" lon="3.85559">
        <ele>932.62</ele>
        <time>2022-08-03T10:36:50Z</time>
      </trkpt>
      <trkpt lat="44.72227" lon="3.85547">
        <ele>934.06</ele>
        <time>2022-08-03T10:37:07Z</time>
      </trkpt>
      <trkpt lat="44.72212" lon="3.85542">
        <ele>935.98</ele>
        <time>2022-08-03T10:37:22Z</time>
      </trkpt>
      <trkpt lat="44.72198" lon="3.85543">
        <ele>940.31</ele>
        <time>2022-08-03T10:37:37Z</time>
      </trkpt>
      <trkpt lat="44.7218" lon="3.85547">
        <ele>939.83</ele>
        <time>2022-08-03T10:37:53Z</time>
      </trkpt>
      <trkpt lat="44.72165" lon="3.8555">
        <ele>943.19</ele>
        <time>2022-08-03T10:38:09Z</time>
      </trkpt>
      <trkpt lat="44.7215" lon="3.85553">
        <ele>946.07</ele>
        <time>2022-08-03T10:38:24Z</time>
      </trkpt>
      <trkpt lat="44.72133" lon="3.85558">
        <ele>946.56</ele>
        <time>2022-08-03T10:38:39Z</time>
      </trkpt>
      <trkpt lat="44.72118" lon="3.85566">
        <ele>947.04</ele>
        <time>2022-08-03T10:38:55Z</time>
      </trkpt>
      <trkpt lat="44.72106" lon="3.85572">
        <ele>950.4</ele>
        <time>2022-08-03T10:39:11Z</time>
      </trkpt>
      <trkpt lat="44.72098" lon="3.85574">
        <ele>952.8</ele>
        <time>2022-08-03T10:39:21Z</time>
      </trkpt>
      <trkpt lat="44.72083" lon="3.85575">
        <ele>954.25</ele>
        <time>2022-08-03T10:39:32Z</time>
      </trkpt>
      <trkpt lat="44.72074" lon="3.85574">
        <ele>954.73</ele>
        <time>2022-08-03T10:39:39Z</time>
      </trkpt>
      <trkpt lat="44.72064" lon="3.85577">
        <ele>952.8</ele>
        <time>2022-08-03T10:39:47Z</time>
      </trkpt>
      <trkpt lat="44.72056" lon="3.85577">
        <ele>951.36</ele>
        <time>2022-08-03T10:39:54Z</time>
      </trkpt>
      <trkpt lat="44.72039" lon="3.85579">
        <ele>949.92</ele>
        <time>2022-08-03T10:40:09Z</time>
      </trkpt>
      <trkpt lat="44.72026" lon="3.85577">
        <ele>949.44</ele>
        <time>2022-08-03T10:40:22Z</time>
      </trkpt>
      <trkpt lat="44.72009" lon="3.85573">
        <ele>949.92</ele>
        <time>2022-08-03T10:40:37Z</time>
      </trkpt>
      <trkpt lat="44.7199" lon="3.85574">
        <ele>952.32</ele>
        <time>2022-08-03T10:40:53Z</time>
      </trkpt>
      <trkpt lat="44.71969" lon="3.85579">
        <ele>953.28</ele>
        <time>2022-08-03T10:41:10Z</time>
      </trkpt>
      <trkpt lat="44.71954" lon="3.85587">
        <ele>954.25</ele>
        <time>2022-08-03T10:41:24Z</time>
      </trkpt>
      <trkpt lat="44.71934" lon="3.85592">
        <ele>952.32</ele>
        <time>2022-08-03T10:41:41Z</time>
      </trkpt>
      <trkpt lat="44.71915" lon="3.85596">
        <ele>952.8</ele>
        <time>2022-08-03T10:41:57Z</time>
      </trkpt>
      <trkpt lat="44.71896" lon="3.85602">
        <ele>953.28</ele>
        <time>2022-08-03T10:42:13Z</time>
      </trkpt>
      <trkpt lat="44.71878" lon="3.85606">
        <ele>952.8</ele>
        <time>2022-08-03T10:42:30Z</time>
      </trkpt>
      <trkpt lat="44.71861" lon="3.85606">
        <ele>954.25</ele>
        <time>2022-08-03T10:42:45Z</time>
      </trkpt>
      <trkpt lat="44.71843" lon="3.85605">
        <ele>955.69</ele>
        <time>2022-08-03T10:43:01Z</time>
      </trkpt>
      <trkpt lat="44.71825" lon="3.85602">
        <ele>957.13</ele>
        <time>2022-08-03T10:43:17Z</time>
      </trkpt>
      <trkpt lat="44.71809" lon="3.856">
        <ele>958.09</ele>
        <time>2022-08-03T10:43:31Z</time>
      </trkpt>
      <trkpt lat="44.71795" lon="3.856">
        <ele>961.94</ele>
        <time>2022-08-03T10:43:45Z</time>
      </trkpt>
      <trkpt lat="44.71777" lon="3.85599">
        <ele>963.38</ele>
        <time>2022-08-03T10:44:02Z</time>
      </trkpt>
      <trkpt lat="44.71761" lon="3.85597">
        <ele>964.34</ele>
        <time>2022-08-03T10:44:17Z</time>
      </trkpt>
      <trkpt lat="44.71748" lon="3.85596">
        <ele>965.3</ele>
        <time>2022-08-03T10:44:30Z</time>
      </trkpt>
      <trkpt lat="44.71733" lon="3.85595">
        <ele>966.74</ele>
        <time>2022-08-03T10:44:43Z</time>
      </trkpt>
      <trkpt lat="44.71711" lon="3.85595">
        <ele>964.34</ele>
        <time>2022-08-03T10:45:00Z</time>
      </trkpt>
      <trkpt lat="44.71693" lon="3.85596">
        <ele>964.34</ele>
        <time>2022-08-03T10:45:16Z</time>
      </trkpt>
      <trkpt lat="44.71674" lon="3.85597">
        <ele>964.82</ele>
        <time>2022-08-03T10:45:33Z</time>
      </trkpt>
      <trkpt lat="44.71659" lon="3.85601">
        <ele>968.18</ele>
        <time>2022-08-03T10:45:46Z</time>
      </trkpt>
      <trkpt lat="44.71639" lon="3.85604">
        <ele>967.7</ele>
        <time>2022-08-03T10:46:03Z</time>
      </trkpt>
      <trkpt lat="44.7163" lon="3.85608">
        <ele>966.26</ele>
        <time>2022-08-03T10:46:10Z</time>
      </trkpt>
      <trkpt lat="44.7161" lon="3.85611">
        <ele>966.26</ele>
        <time>2022-08-03T10:46:28Z</time>
      </trkpt>
      <trkpt lat="44.71593" lon="3.85616">
        <ele>967.22</ele>
        <time>2022-08-03T10:46:44Z</time>
      </trkpt>
      <trkpt lat="44.71579" lon="3.85623">
        <ele>967.22</ele>
        <time>2022-08-03T10:46:58Z</time>
      </trkpt>
      <trkpt lat="44.71564" lon="3.85626">
        <ele>968.67</ele>
        <time>2022-08-03T10:47:12Z</time>
      </trkpt>
      <trkpt lat="44.71544" lon="3.8563">
        <ele>969.15</ele>
        <time>2022-08-03T10:47:29Z</time>
      </trkpt>
      <trkpt lat="44.71523" lon="3.85634">
        <ele>968.67</ele>
        <time>2022-08-03T10:47:47Z</time>
      </trkpt>
      <trkpt lat="44.71505" lon="3.85637">
        <ele>968.67</ele>
        <time>2022-08-03T10:48:03Z</time>
      </trkpt>
      <trkpt lat="44.71489" lon="3.8564">
        <ele>968.67</ele>
        <time>2022-08-03T10:48:17Z</time>
      </trkpt>
      <trkpt lat="44.71471" lon="3.85641">
        <ele>968.18</ele>
        <time>2022-08-03T10:48:32Z</time>
      </trkpt>
      <trkpt lat="44.71452" lon="3.85644">
        <ele>967.7</ele>
        <time>2022-08-03T10:48:47Z</time>
      </trkpt>
      <trkpt lat="44.71435" lon="3.85648">
        <ele>967.22</ele>
        <time>2022-08-03T10:49:02Z</time>
      </trkpt>
      <trkpt lat="44.71417" lon="3.85655">
        <ele>967.22</ele>
        <time>2022-08-03T10:49:17Z</time>
      </trkpt>
      <trkpt lat="44.714" lon="3.85659">
        <ele>967.22</ele>
        <time>2022-08-03T10:49:32Z</time>
      </trkpt>
      <trkpt lat="44.71381" lon="3.8566">
        <ele>966.74</ele>
        <time>2022-08-03T10:49:48Z</time>
      </trkpt>
      <trkpt lat="44.71372" lon="3.85663">
        <ele>966.74</ele>
        <time>2022-08-03T10:50:00Z</time>
      </trkpt>
      <trkpt lat="44.71371" lon="3.85664">
        <ele>967.22</ele>
        <time>2022-08-03T10:50:15Z</time>
      </trkpt>
      <trkpt lat="44.71371" lon="3.85666">
        <ele>967.7</ele>
        <time>2022-08-03T10:50:31Z</time>
      </trkpt>
      <trkpt lat="44.71375" lon="3.85664">
        <ele>967.7</ele>
        <time>2022-08-03T10:50:46Z</time>
      </trkpt>
      <trkpt lat="44.71375" lon="3.85663">
        <ele>967.7</ele>
        <time>2022-08-03T10:51:12Z</time>
      </trkpt>
      <trkpt lat="44.71375" lon="3.85662">
        <ele>966.74</ele>
        <time>2022-08-03T10:51:52Z</time>
      </trkpt>
      <trkpt lat="44.71376" lon="3.85663">
        <ele>970.59</ele>
        <time>2022-08-03T10:52:32Z</time>
      </trkpt>
      <trkpt lat="44.71373" lon="3.85663">
        <ele>970.59</ele>
        <time>2022-08-03T10:53:03Z</time>
      </trkpt>
      <trkpt lat="44.71374" lon="3.85663">
        <ele>971.55</ele>
        <time>2022-08-03T10:53:41Z</time>
      </trkpt>
      <trkpt lat="44.71376" lon="3.85663">
        <ele>970.59</ele>
        <time>2022-08-03T10:54:10Z</time>
      </trkpt>
      <trkpt lat="44.71376" lon="3.85663">
        <ele>967.22</ele>
        <time>2022-08-03T10:54:50Z</time>
      </trkpt>
      <trkpt lat="44.71375" lon="3.85664">
        <ele>967.22</ele>
        <time>2022-08-03T10:55:26Z</time>
      </trkpt>
      <trkpt lat="44.71373" lon="3.85662">
        <ele>967.22</ele>
        <time>2022-08-03T10:56:10Z</time>
      </trkpt>
      <trkpt lat="44.71373" lon="3.85663">
        <ele>966.74</ele>
        <time>2022-08-03T10:56:47Z</time>
      </trkpt>
      <trkpt lat="44.71374" lon="3.85662">
        <ele>967.7</ele>
        <time>2022-08-03T10:57:24Z</time>
      </trkpt>
      <trkpt lat="44.71374" lon="3.85663">
        <ele>967.22</ele>
        <time>2022-08-03T10:57:58Z</time>
      </trkpt>
      <trkpt lat="44.71375" lon="3.85664">
        <ele>965.3</ele>
        <time>2022-08-03T10:58:35Z</time>
      </trkpt>
      <trkpt lat="44.71374" lon="3.85664">
        <ele>964.82</ele>
        <time>2022-08-03T10:59:16Z</time>
      </trkpt>
      <trkpt lat="44.71373" lon="3.85662">
        <ele>966.74</ele>
        <time>2022-08-03T10:59:52Z</time>
      </trkpt>
      <trkpt lat="44.71373" lon="3.85664">
        <ele>966.74</ele>
        <time>2022-08-03T11:00:31Z</time>
      </trkpt>
      <trkpt lat="44.71372" lon="3.85661">
        <ele>962.42</ele>
        <time>2022-08-03T11:01:08Z</time>
      </trkpt>
      <trkpt lat="44.71373" lon="3.85662">
        <ele>963.86</ele>
        <time>2022-08-03T11:01:51Z</time>
      </trkpt>
      <trkpt lat="44.71374" lon="3.85663">
        <ele>965.3</ele>
        <time>2022-08-03T11:02:33Z</time>
      </trkpt>
      <trkpt lat="44.71375" lon="3.85663">
        <ele>966.74</ele>
        <time>2022-08-03T11:03:14Z</time>
      </trkpt>
      <trkpt lat="44.71376" lon="3.85663">
        <ele>967.7</ele>
        <time>2022-08-03T11:03:53Z</time>
      </trkpt>
      <trkpt lat="44.71374" lon="3.85662">
        <ele>966.26</ele>
        <time>2022-08-03T11:04:29Z</time>
      </trkpt>
      <trkpt lat="44.71373" lon="3.85661">
        <ele>966.26</ele>
        <time>2022-08-03T11:05:07Z</time>
      </trkpt>
      <trkpt lat="44.71374" lon="3.85661">
        <ele>965.78</ele>
        <time>2022-08-03T11:05:46Z</time>
      </trkpt>
      <trkpt lat="44.71375" lon="3.85663">
        <ele>967.22</ele>
        <time>2022-08-03T11:06:31Z</time>
      </trkpt>
      <trkpt lat="44.71373" lon="3.85663">
        <ele>967.22</ele>
        <time>2022-08-03T11:07:07Z</time>
      </trkpt>
      <trkpt lat="44.71375" lon="3.85664">
        <ele>965.78</ele>
        <time>2022-08-03T11:07:49Z</time>
      </trkpt>
      <trkpt lat="44.71375" lon="3.85662">
        <ele>964.82</ele>
        <time>2022-08-03T11:08:35Z</time>
      </trkpt>
      <trkpt lat="44.71374" lon="3.85662">
        <ele>964.34</ele>
        <time>2022-08-03T11:09:24Z</time>
      </trkpt>
      <trkpt lat="44.71375" lon="3.85663">
        <ele>965.78</ele>
        <time>2022-08-03T11:10:07Z</time>
      </trkpt>
      <trkpt lat="44.71377" lon="3.85664">
        <ele>965.78</ele>
        <time>2022-08-03T11:10:52Z</time>
      </trkpt>
      <trkpt lat="44.71375" lon="3.85663">
        <ele>965.3</ele>
        <time>2022-08-03T11:11:29Z</time>
      </trkpt>
      <trkpt lat="44.71374" lon="3.85663">
        <ele>966.26</ele>
        <time>2022-08-03T11:12:12Z</time>
      </trkpt>
      <trkpt lat="44.71374" lon="3.85663">
        <ele>966.74</ele>
        <time>2022-08-03T11:12:47Z</time>
      </trkpt>
      <trkpt lat="44.71376" lon="3.85663">
        <ele>966.26</ele>
        <time>2022-08-03T11:13:22Z</time>
      </trkpt>
      <trkpt lat="44.71376" lon="3.85662">
        <ele>966.74</ele>
        <time>2022-08-03T11:13:56Z</time>
      </trkpt>
      <trkpt lat="44.71374" lon="3.85663">
        <ele>963.86</ele>
        <time>2022-08-03T11:14:31Z</time>
      </trkpt>
      <trkpt lat="44.71376" lon="3.85665">
        <ele>963.86</ele>
        <time>2022-08-03T11:14:58Z</time>
      </trkpt>
      <trkpt lat="44.71376" lon="3.85664">
        <ele>964.34</ele>
        <time>2022-08-03T11:15:30Z</time>
      </trkpt>
      <trkpt lat="44.71376" lon="3.85665">
        <ele>965.3</ele>
        <time>2022-08-03T11:16:08Z</time>
      </trkpt>
      <trkpt lat="44.71377" lon="3.85664">
        <ele>962.42</ele>
        <time>2022-08-03T11:16:41Z</time>
      </trkpt>
      <trkpt lat="44.71376" lon="3.85664">
        <ele>964.34</ele>
        <time>2022-08-03T11:17:20Z</time>
      </trkpt>
      <trkpt lat="44.71376" lon="3.85663">
        <ele>965.78</ele>
        <time>2022-08-03T11:17:56Z</time>
      </trkpt>
      <trkpt lat="44.71377" lon="3.85664">
        <ele>964.34</ele>
        <time>2022-08-03T11:18:35Z</time>
      </trkpt>
      <trkpt lat="44.71376" lon="3.85664">
        <ele>964.34</ele>
        <time>2022-08-03T11:19:15Z</time>
      </trkpt>
      <trkpt lat="44.71376" lon="3.85665">
        <ele>961.94</ele>
        <time>2022-08-03T11:19:53Z</time>
      </trkpt>
      <trkpt lat="44.71374" lon="3.85666">
        <ele>961.46</ele>
        <time>2022-08-03T11:20:31Z</time>
      </trkpt>
      <trkpt lat="44.71373" lon="3.85663">
        <ele>962.9</ele>
        <time>2022-08-03T11:21:11Z</time>
      </trkpt>
      <trkpt lat="44.71374" lon="3.85664">
        <ele>961.46</ele>
        <time>2022-08-03T11:21:53Z</time>
      </trkpt>
      <trkpt lat="44.71376" lon="3.85663">
        <ele>961.46</ele>
        <time>2022-08-03T11:22:38Z</time>
      </trkpt>
      <trkpt lat="44.71375" lon="3.85663">
        <ele>963.38</ele>
        <time>2022-08-03T11:23:16Z</time>
      </trkpt>
      <trkpt lat="44.71376" lon="3.85662">
        <ele>963.38</ele>
        <time>2022-08-03T11:24:02Z</time>
      </trkpt>
      <trkpt lat="44.71378" lon="3.85664">
        <ele>964.34</ele>
        <time>2022-08-03T11:24:34Z</time>
      </trkpt>
      <trkpt lat="44.71377" lon="3.85665">
        <ele>965.3</ele>
        <time>2022-08-03T11:25:18Z</time>
      </trkpt>
      <trkpt lat="44.71376" lon="3.85663">
        <ele>963.86</ele>
        <time>2022-08-03T11:26:02Z</time>
      </trkpt>
      <trkpt lat="44.71377" lon="3.85665">
        <ele>964.82</ele>
        <time>2022-08-03T11:26:43Z</time>
      </trkpt>
      <trkpt lat="44.71377" lon="3.85664">
        <ele>963.38</ele>
        <time>2022-08-03T11:27:20Z</time>
      </trkpt>
      <trkpt lat="44.71377" lon="3.85665">
        <ele>965.78</ele>
        <time>2022-08-03T11:27:59Z</time>
      </trkpt>
      <trkpt lat="44.71375" lon="3.85665">
        <ele>966.26</ele>
        <time>2022-08-03T11:28:30Z</time>
      </trkpt>
      <trkpt lat="44.71376" lon="3.85663">
        <ele>967.22</ele>
        <time>2022-08-03T11:29:08Z</time>
      </trkpt>
      <trkpt lat="44.71376" lon="3.85663">
        <ele>967.22</ele>
        <time>2022-08-03T11:29:41Z</time>
      </trkpt>
      <trkpt lat="44.71376" lon="3.85664">
        <ele>966.26</ele>
        <time>2022-08-03T11:30:16Z</time>
      </trkpt>
      <trkpt lat="44.71377" lon="3.85665">
        <ele>966.74</ele>
        <time>2022-08-03T11:30:48Z</time>
      </trkpt>
      <trkpt lat="44.71376" lon="3.85663">
        <ele>963.38</ele>
        <time>2022-08-03T11:31:23Z</time>
      </trkpt>
      <trkpt lat="44.71375" lon="3.85663">
        <ele>963.38</ele>
        <time>2022-08-03T11:31:52Z</time>
      </trkpt>
      <trkpt lat="44.71376" lon="3.85663">
        <ele>964.82</ele>
        <time>2022-08-03T11:32:21Z</time>
      </trkpt>
      <trkpt lat="44.71374" lon="3.85664">
        <ele>962.42</ele>
        <time>2022-08-03T11:32:52Z</time>
      </trkpt>
      <trkpt lat="44.71373" lon="3.85665">
        <ele>960.98</ele>
        <time>2022-08-03T11:33:27Z</time>
      </trkpt>
      <trkpt lat="44.71374" lon="3.85666">
        <ele>961.46</ele>
        <time>2022-08-03T11:34:00Z</time>
      </trkpt>
      <trkpt lat="44.71374" lon="3.85665">
        <ele>961.46</ele>
        <time>2022-08-03T11:34:36Z</time>
      </trkpt>
      <trkpt lat="44.71376" lon="3.85667">
        <ele>960.49</ele>
        <time>2022-08-03T11:35:19Z</time>
      </trkpt>
      <trkpt lat="44.71376" lon="3.85665">
        <ele>961.94</ele>
        <time>2022-08-03T11:35:55Z</time>
      </trkpt>
      <trkpt lat="44.71376" lon="3.85667">
        <ele>963.38</ele>
        <time>2022-08-03T11:36:34Z</time>
      </trkpt>
      <trkpt lat="44.71376" lon="3.85665">
        <ele>964.82</ele>
        <time>2022-08-03T11:37:10Z</time>
      </trkpt>
      <trkpt lat="44.71375" lon="3.85664">
        <ele>965.3</ele>
        <time>2022-08-03T11:37:45Z</time>
      </trkpt>
      <trkpt lat="44.71375" lon="3.85664">
        <ele>966.74</ele>
        <time>2022-08-03T11:38:20Z</time>
      </trkpt>
      <trkpt lat="44.71376" lon="3.85662">
        <ele>968.67</ele>
        <time>2022-08-03T11:38:53Z</time>
      </trkpt>
      <trkpt lat="44.71376" lon="3.85664">
        <ele>966.74</ele>
        <time>2022-08-03T11:39:31Z</time>
      </trkpt>
      <trkpt lat="44.71376" lon="3.85664">
        <ele>965.78</ele>
        <time>2022-08-03T11:40:06Z</time>
      </trkpt>
      <trkpt lat="44.71375" lon="3.85664">
        <ele>964.82</ele>
        <time>2022-08-03T11:40:43Z</time>
      </trkpt>
      <trkpt lat="44.71376" lon="3.85662">
        <ele>965.78</ele>
        <time>2022-08-03T11:41:18Z</time>
      </trkpt>
      <trkpt lat="44.71374" lon="3.85663">
        <ele>966.26</ele>
        <time>2022-08-03T11:41:50Z</time>
      </trkpt>
      <trkpt lat="44.71375" lon="3.85664">
        <ele>968.18</ele>
        <time>2022-08-03T11:42:19Z</time>
      </trkpt>
      <trkpt lat="44.71374" lon="3.85665">
        <ele>967.22</ele>
        <time>2022-08-03T11:42:57Z</time>
      </trkpt>
      <trkpt lat="44.71376" lon="3.85663">
        <ele>966.26</ele>
        <time>2022-08-03T11:43:31Z</time>
      </trkpt>
      <trkpt lat="44.71377" lon="3.85665">
        <ele>969.15</ele>
        <time>2022-08-03T11:44:08Z</time>
      </trkpt>
      <trkpt lat="44.71379" lon="3.85667">
        <ele>965.78</ele>
        <time>2022-08-03T11:44:46Z</time>
      </trkpt>
      <trkpt lat="44.71379" lon="3.85666">
        <ele>962.9</ele>
        <time>2022-08-03T11:45:17Z</time>
      </trkpt>
      <trkpt lat="44.71378" lon="3.85666">
        <ele>961.94</ele>
        <time>2022-08-03T11:45:55Z</time>
      </trkpt>
      <trkpt lat="44.71377" lon="3.85665">
        <ele>962.9</ele>
        <time>2022-08-03T11:46:26Z</time>
      </trkpt>
      <trkpt lat="44.71378" lon="3.85665">
        <ele>962.42</ele>
        <time>2022-08-03T11:47:02Z</time>
      </trkpt>
      <trkpt lat="44.71377" lon="3.85663">
        <ele>964.34</ele>
        <time>2022-08-03T11:47:38Z</time>
      </trkpt>
      <trkpt lat="44.71376" lon="3.85662">
        <ele>965.3</ele>
        <time>2022-08-03T11:48:16Z</time>
      </trkpt>
      <trkpt lat="44.71378" lon="3.85664">
        <ele>963.86</ele>
        <time>2022-08-03T11:48:41Z</time>
      </trkpt>
      <trkpt lat="44.71377" lon="3.85664">
        <ele>962.9</ele>
        <time>2022-08-03T11:49:18Z</time>
      </trkpt>
      <trkpt lat="44.71377" lon="3.85664">
        <ele>963.38</ele>
        <time>2022-08-03T11:49:46Z</time>
      </trkpt>
      <trkpt lat="44.71377" lon="3.85663">
        <ele>962.9</ele>
        <time>2022-08-03T11:50:19Z</time>
      </trkpt>
      <trkpt lat="44.71376" lon="3.85661">
        <ele>963.86</ele>
        <time>2022-08-03T11:50:46Z</time>
      </trkpt>
      <trkpt lat="44.71375" lon="3.85663">
        <ele>963.38</ele>
        <time>2022-08-03T11:51:23Z</time>
      </trkpt>
      <trkpt lat="44.71374" lon="3.85662">
        <ele>965.78</ele>
        <time>2022-08-03T11:51:53Z</time>
      </trkpt>
      <trkpt lat="44.71375" lon="3.85662">
        <ele>965.3</ele>
        <time>2022-08-03T11:52:26Z</time>
      </trkpt>
      <trkpt lat="44.71378" lon="3.85663">
        <ele>962.9</ele>
        <time>2022-08-03T11:53:05Z</time>
      </trkpt>
      <trkpt lat="44.71376" lon="3.85663">
        <ele>963.38</ele>
        <time>2022-08-03T11:53:47Z</time>
      </trkpt>
      <trkpt lat="44.71376" lon="3.85662">
        <ele>964.34</ele>
        <time>2022-08-03T11:54:20Z</time>
      </trkpt>
      <trkpt lat="44.71376" lon="3.85661">
        <ele>966.26</ele>
        <time>2022-08-03T11:54:50Z</time>
      </trkpt>
      <trkpt lat="44.71377" lon="3.85662">
        <ele>965.3</ele>
        <time>2022-08-03T11:55:26Z</time>
      </trkpt>
      <trkpt lat="44.71377" lon="3.85662">
        <ele>963.86</ele>
        <time>2022-08-03T11:56:02Z</time>
      </trkpt>
      <trkpt lat="44.71376" lon="3.85662">
        <ele>966.26</ele>
        <time>2022-08-03T11:56:36Z</time>
      </trkpt>
      <trkpt lat="44.71375" lon="3.85662">
        <ele>964.82</ele>
        <time>2022-08-03T11:57:11Z</time>
      </trkpt>
      <trkpt lat="44.71375" lon="3.85661">
        <ele>967.22</ele>
        <time>2022-08-03T11:57:46Z</time>
      </trkpt>
      <trkpt lat="44.71375" lon="3.85662">
        <ele>964.34</ele>
        <time>2022-08-03T11:58:21Z</time>
      </trkpt>
      <trkpt lat="44.71374" lon="3.85666">
        <ele>962.42</ele>
        <time>2022-08-03T11:59:02Z</time>
      </trkpt>
      <trkpt lat="44.71375" lon="3.85665">
        <ele>962.42</ele>
        <time>2022-08-03T11:59:34Z</time>
      </trkpt>
      <trkpt lat="44.71376" lon="3.85665">
        <ele>963.86</ele>
        <time>2022-08-03T12:00:05Z</time>
      </trkpt>
      <trkpt lat="44.71378" lon="3.85664">
        <ele>966.26</ele>
        <time>2022-08-03T12:00:36Z</time>
      </trkpt>
      <trkpt lat="44.71379" lon="3.85663">
        <ele>965.78</ele>
        <time>2022-08-03T12:01:13Z</time>
      </trkpt>
      <trkpt lat="44.71375" lon="3.85667">
        <ele>963.38</ele>
        <time>2022-08-03T12:01:49Z</time>
      </trkpt>
      <trkpt lat="44.71375" lon="3.85664">
        <ele>963.38</ele>
        <time>2022-08-03T12:02:32Z</time>
      </trkpt>
      <trkpt lat="44.71375" lon="3.85663">
        <ele>964.82</ele>
        <time>2022-08-03T12:03:11Z</time>
      </trkpt>
      <trkpt lat="44.71374" lon="3.85664">
        <ele>963.38</ele>
        <time>2022-08-03T12:03:54Z</time>
      </trkpt>
      <trkpt lat="44.71374" lon="3.85663">
        <ele>964.34</ele>
        <time>2022-08-03T12:04:33Z</time>
      </trkpt>
      <trkpt lat="44.71376" lon="3.85667">
        <ele>964.82</ele>
        <time>2022-08-03T12:04:48Z</time>
      </trkpt>
      <trkpt lat="44.71377" lon="3.85665">
        <ele>965.3</ele>
        <time>2022-08-03T12:05:05Z</time>
      </trkpt>
      <trkpt lat="44.71378" lon="3.85664">
        <ele>965.3</ele>
        <time>2022-08-03T12:05:26Z</time>
      </trkpt>
      <trkpt lat="44.7138" lon="3.85662">
        <ele>966.74</ele>
        <time>2022-08-03T12:05:55Z</time>
      </trkpt>
      <trkpt lat="44.71377" lon="3.85662">
        <ele>966.26</ele>
        <time>2022-08-03T12:06:08Z</time>
      </trkpt>
      <trkpt lat="44.71374" lon="3.85662">
        <ele>964.82</ele>
        <time>2022-08-03T12:06:31Z</time>
      </trkpt>
      <trkpt lat="44.71373" lon="3.85663">
        <ele>962.9</ele>
        <time>2022-08-03T12:06:57Z</time>
      </trkpt>
      <trkpt lat="44.7137" lon="3.85661">
        <ele>963.38</ele>
        <time>2022-08-03T12:07:12Z</time>
      </trkpt>
      <trkpt lat="44.71355" lon="3.85661">
        <ele>963.86</ele>
        <time>2022-08-03T12:07:25Z</time>
      </trkpt>
      <trkpt lat="44.7135" lon="3.85661">
        <ele>963.86</ele>
        <time>2022-08-03T12:07:29Z</time>
      </trkpt>
      <trkpt lat="44.7133" lon="3.85663">
        <ele>964.34</ele>
        <time>2022-08-03T12:07:47Z</time>
      </trkpt>
      <trkpt lat="44.71311" lon="3.85664">
        <ele>965.3</ele>
        <time>2022-08-03T12:08:03Z</time>
      </trkpt>
      <trkpt lat="44.71292" lon="3.85664">
        <ele>967.7</ele>
        <time>2022-08-03T12:08:20Z</time>
      </trkpt>
      <trkpt lat="44.7127" lon="3.85665">
        <ele>969.63</ele>
        <time>2022-08-03T12:08:38Z</time>
      </trkpt>
      <trkpt lat="44.7125" lon="3.85666">
        <ele>971.07</ele>
        <time>2022-08-03T12:08:55Z</time>
      </trkpt>
      <trkpt lat="44.71229" lon="3.85667">
        <ele>972.99</ele>
        <time>2022-08-03T12:09:13Z</time>
      </trkpt>
      <trkpt lat="44.71208" lon="3.85667">
        <ele>974.43</ele>
        <time>2022-08-03T12:09:31Z</time>
      </trkpt>
      <trkpt lat="44.71193" lon="3.85664">
        <ele>974.43</ele>
        <time>2022-08-03T12:09:44Z</time>
      </trkpt>
      <trkpt lat="44.71174" lon="3.85658">
        <ele>974.43</ele>
        <time>2022-08-03T12:09:59Z</time>
      </trkpt>
      <trkpt lat="44.71165" lon="3.85655">
        <ele>974.43</ele>
        <time>2022-08-03T12:10:07Z</time>
      </trkpt>
      <trkpt lat="44.71145" lon="3.85652">
        <ele>974.43</ele>
        <time>2022-08-03T12:10:24Z</time>
      </trkpt>
      <trkpt lat="44.71121" lon="3.8565">
        <ele>974.43</ele>
        <time>2022-08-03T12:10:43Z</time>
      </trkpt>
      <trkpt lat="44.71099" lon="3.85647">
        <ele>974.43</ele>
        <time>2022-08-03T12:11:01Z</time>
      </trkpt>
      <trkpt lat="44.71078" lon="3.85645">
        <ele>973.95</ele>
        <time>2022-08-03T12:11:18Z</time>
      </trkpt>
      <trkpt lat="44.71057" lon="3.85642">
        <ele>973.95</ele>
        <time>2022-08-03T12:11:35Z</time>
      </trkpt>
      <trkpt lat="44.71035" lon="3.85641">
        <ele>973.47</ele>
        <time>2022-08-03T12:11:53Z</time>
      </trkpt>
      <trkpt lat="44.71016" lon="3.85642">
        <ele>972.99</ele>
        <time>2022-08-03T12:12:08Z</time>
      </trkpt>
      <trkpt lat="44.70996" lon="3.85645">
        <ele>972.51</ele>
        <time>2022-08-03T12:12:25Z</time>
      </trkpt>
      <trkpt lat="44.70974" lon="3.85647">
        <ele>972.51</ele>
        <time>2022-08-03T12:12:42Z</time>
      </trkpt>
      <trkpt lat="44.70955" lon="3.85652">
        <ele>972.51</ele>
        <time>2022-08-03T12:12:58Z</time>
      </trkpt>
      <trkpt lat="44.70933" lon="3.85654">
        <ele>972.51</ele>
        <time>2022-08-03T12:13:15Z</time>
      </trkpt>
      <trkpt lat="44.70913" lon="3.85659">
        <ele>974.91</ele>
        <time>2022-08-03T12:13:31Z</time>
      </trkpt>
      <trkpt lat="44.70893" lon="3.85663">
        <ele>975.39</ele>
        <time>2022-08-03T12:13:47Z</time>
      </trkpt>
      <trkpt lat="44.70889" lon="3.85664">
        <ele>975.39</ele>
        <time>2022-08-03T12:13:50Z</time>
      </trkpt>
      <trkpt lat="44.70883" lon="3.85666">
        <ele>974.91</ele>
        <time>2022-08-03T12:13:55Z</time>
      </trkpt>
      <trkpt lat="44.70862" lon="3.85671">
        <ele>977.32</ele>
        <time>2022-08-03T12:14:13Z</time>
      </trkpt>
      <trkpt lat="44.70845" lon="3.85674">
        <ele>978.28</ele>
        <time>2022-08-03T12:14:27Z</time>
      </trkpt>
      <trkpt lat="44.70837" lon="3.85677">
        <ele>979.24</ele>
        <time>2022-08-03T12:14:34Z</time>
      </trkpt>
      <trkpt lat="44.70816" lon="3.85682">
        <ele>979.24</ele>
        <time>2022-08-03T12:14:51Z</time>
      </trkpt>
      <trkpt lat="44.70796" lon="3.85686">
        <ele>979.24</ele>
        <time>2022-08-03T12:15:08Z</time>
      </trkpt>
      <trkpt lat="44.70777" lon="3.85689">
        <ele>979.24</ele>
        <time>2022-08-03T12:15:23Z</time>
      </trkpt>
      <trkpt lat="44.7076" lon="3.85694">
        <ele>978.28</ele>
        <time>2022-08-03T12:15:37Z</time>
      </trkpt>
      <trkpt lat="44.70743" lon="3.85696">
        <ele>977.8</ele>
        <time>2022-08-03T12:15:52Z</time>
      </trkpt>
      <trkpt lat="44.70723" lon="3.85696">
        <ele>977.32</ele>
        <time>2022-08-03T12:16:08Z</time>
      </trkpt>
      <trkpt lat="44.70704" lon="3.85694">
        <ele>977.32</ele>
        <time>2022-08-03T12:16:23Z</time>
      </trkpt>
      <trkpt lat="44.70685" lon="3.85688">
        <ele>975.88</ele>
        <time>2022-08-03T12:16:38Z</time>
      </trkpt>
      <trkpt lat="44.70668" lon="3.85682">
        <ele>974.91</ele>
        <time>2022-08-03T12:16:52Z</time>
      </trkpt>
      <trkpt lat="44.70646" lon="3.8567">
        <ele>975.39</ele>
        <time>2022-08-03T12:17:10Z</time>
      </trkpt>
      <trkpt lat="44.70624" lon="3.85654">
        <ele>974.43</ele>
        <time>2022-08-03T12:17:29Z</time>
      </trkpt>
      <trkpt lat="44.70603" lon="3.85643">
        <ele>972.99</ele>
        <time>2022-08-03T12:17:46Z</time>
      </trkpt>
      <trkpt lat="44.7058" lon="3.85645">
        <ele>973.95</ele>
        <time>2022-08-03T12:18:04Z</time>
      </trkpt>
      <trkpt lat="44.70564" lon="3.85649">
        <ele>974.43</ele>
        <time>2022-08-03T12:18:18Z</time>
      </trkpt>
      <trkpt lat="44.70541" lon="3.85656">
        <ele>974.91</ele>
        <time>2022-08-03T12:18:36Z</time>
      </trkpt>
      <trkpt lat="44.70521" lon="3.85662">
        <ele>974.91</ele>
        <time>2022-08-03T12:18:52Z</time>
      </trkpt>
      <trkpt lat="44.70501" lon="3.85668">
        <ele>974.91</ele>
        <time>2022-08-03T12:19:09Z</time>
      </trkpt>
      <trkpt lat="44.70478" lon="3.85671">
        <ele>976.36</ele>
        <time>2022-08-03T12:19:28Z</time>
      </trkpt>
      <trkpt lat="44.70465" lon="3.85672">
        <ele>976.84</ele>
        <time>2022-08-03T12:19:38Z</time>
      </trkpt>
      <trkpt lat="44.70455" lon="3.85674">
        <ele>976.84</ele>
        <time>2022-08-03T12:19:46Z</time>
      </trkpt>
      <trkpt lat="44.70434" lon="3.85672">
        <ele>978.76</ele>
        <time>2022-08-03T12:20:04Z</time>
      </trkpt>
      <trkpt lat="44.70429" lon="3.85673">
        <ele>979.24</ele>
        <time>2022-08-03T12:20:09Z</time>
      </trkpt>
      <trkpt lat="44.70407" lon="3.85673">
        <ele>981.64</ele>
        <time>2022-08-03T12:20:28Z</time>
      </trkpt>
      <trkpt lat="44.70403" lon="3.85673">
        <ele>981.64</ele>
        <time>2022-08-03T12:20:32Z</time>
      </trkpt>
      <trkpt lat="44.70381" lon="3.85676">
        <ele>982.6</ele>
        <time>2022-08-03T12:20:51Z</time>
      </trkpt>
      <trkpt lat="44.70361" lon="3.85676">
        <ele>985.49</ele>
        <time>2022-08-03T12:21:09Z</time>
      </trkpt>
      <trkpt lat="44.7034" lon="3.8568">
        <ele>988.85</ele>
        <time>2022-08-03T12:21:27Z</time>
      </trkpt>
      <trkpt lat="44.70321" lon="3.85685">
        <ele>990.3</ele>
        <time>2022-08-03T12:21:42Z</time>
      </trkpt>
      <trkpt lat="44.70303" lon="3.85692">
        <ele>992.22</ele>
        <time>2022-08-03T12:21:57Z</time>
      </trkpt>
      <trkpt lat="44.70284" lon="3.857">
        <ele>992.22</ele>
        <time>2022-08-03T12:22:13Z</time>
      </trkpt>
      <trkpt lat="44.70262" lon="3.8571">
        <ele>992.7</ele>
        <time>2022-08-03T12:22:32Z</time>
      </trkpt>
      <trkpt lat="44.70246" lon="3.85713">
        <ele>994.62</ele>
        <time>2022-08-03T12:22:47Z</time>
      </trkpt>
      <trkpt lat="44.70231" lon="3.85722">
        <ele>997.02</ele>
        <time>2022-08-03T12:23:02Z</time>
      </trkpt>
      <trkpt lat="44.70224" lon="3.85724">
        <ele>997.99</ele>
        <time>2022-08-03T12:23:09Z</time>
      </trkpt>
      <trkpt lat="44.70215" lon="3.85726">
        <ele>997.51</ele>
        <time>2022-08-03T12:23:17Z</time>
      </trkpt>
      <trkpt lat="44.702" lon="3.85732">
        <ele>998.47</ele>
        <time>2022-08-03T12:23:31Z</time>
      </trkpt>
      <trkpt lat="44.70195" lon="3.85733">
        <ele>998.95</ele>
        <time>2022-08-03T12:23:36Z</time>
      </trkpt>
      <trkpt lat="44.70178" lon="3.8574">
        <ele>1000.39</ele>
        <time>2022-08-03T12:23:52Z</time>
      </trkpt>
      <trkpt lat="44.70176" lon="3.85743">
        <ele>1000.87</ele>
        <time>2022-08-03T12:23:55Z</time>
      </trkpt>
      <trkpt lat="44.70157" lon="3.85751">
        <ele>1001.35</ele>
        <time>2022-08-03T12:24:12Z</time>
      </trkpt>
      <trkpt lat="44.7014" lon="3.85758">
        <ele>1002.31</ele>
        <time>2022-08-03T12:24:28Z</time>
      </trkpt>
      <trkpt lat="44.70119" lon="3.85765">
        <ele>1002.79</ele>
        <time>2022-08-03T12:24:48Z</time>
      </trkpt>
      <trkpt lat="44.70102" lon="3.85771">
        <ele>1004.23</ele>
        <time>2022-08-03T12:25:04Z</time>
      </trkpt>
      <trkpt lat="44.70085" lon="3.85775">
        <ele>1005.2</ele>
        <time>2022-08-03T12:25:19Z</time>
      </trkpt>
      <trkpt lat="44.70064" lon="3.8578">
        <ele>1004.72</ele>
        <time>2022-08-03T12:25:38Z</time>
      </trkpt>
      <trkpt lat="44.70044" lon="3.85784">
        <ele>1005.68</ele>
        <time>2022-08-03T12:25:55Z</time>
      </trkpt>
      <trkpt lat="44.70026" lon="3.85787">
        <ele>1006.64</ele>
        <time>2022-08-03T12:26:11Z</time>
      </trkpt>
      <trkpt lat="44.70017" lon="3.8579">
        <ele>1006.64</ele>
        <time>2022-08-03T12:26:19Z</time>
      </trkpt>
      <trkpt lat="44.69996" lon="3.85794">
        <ele>1007.6</ele>
        <time>2022-08-03T12:26:37Z</time>
      </trkpt>
      <trkpt lat="44.69976" lon="3.858">
        <ele>1007.12</ele>
        <time>2022-08-03T12:26:55Z</time>
      </trkpt>
      <trkpt lat="44.69959" lon="3.85803">
        <ele>1007.12</ele>
        <time>2022-08-03T12:27:09Z</time>
      </trkpt>
      <trkpt lat="44.69938" lon="3.85809">
        <ele>1008.08</ele>
        <time>2022-08-03T12:27:27Z</time>
      </trkpt>
      <trkpt lat="44.69921" lon="3.85809">
        <ele>1008.56</ele>
        <time>2022-08-03T12:27:41Z</time>
      </trkpt>
      <trkpt lat="44.69907" lon="3.85796">
        <ele>1008.56</ele>
        <time>2022-08-03T12:27:56Z</time>
      </trkpt>
      <trkpt lat="44.69893" lon="3.85779">
        <ele>1011.44</ele>
        <time>2022-08-03T12:28:12Z</time>
      </trkpt>
      <trkpt lat="44.69885" lon="3.85774">
        <ele>1011.93</ele>
        <time>2022-08-03T12:28:20Z</time>
      </trkpt>
      <trkpt lat="44.69882" lon="3.85771">
        <ele>1011.44</ele>
        <time>2022-08-03T12:28:24Z</time>
      </trkpt>
      <trkpt lat="44.69869" lon="3.85748">
        <ele>1013.85</ele>
        <time>2022-08-03T12:28:42Z</time>
      </trkpt>
      <trkpt lat="44.69865" lon="3.85738">
        <ele>1015.29</ele>
        <time>2022-08-03T12:28:49Z</time>
      </trkpt>
      <trkpt lat="44.69864" lon="3.85736">
        <ele>1015.29</ele>
        <time>2022-08-03T12:28:51Z</time>
      </trkpt>
      <trkpt lat="44.69863" lon="3.85733">
        <ele>1015.29</ele>
        <time>2022-08-03T12:28:53Z</time>
      </trkpt>
      <trkpt lat="44.6985" lon="3.85712">
        <ele>1015.29</ele>
        <time>2022-08-03T12:29:12Z</time>
      </trkpt>
      <trkpt lat="44.69837" lon="3.85693">
        <ele>1016.25</ele>
        <time>2022-08-03T12:29:26Z</time>
      </trkpt>
      <trkpt lat="44.69824" lon="3.85678">
        <ele>1015.29</ele>
        <time>2022-08-03T12:29:42Z</time>
      </trkpt>
      <trkpt lat="44.69818" lon="3.85666">
        <ele>1016.73</ele>
        <time>2022-08-03T12:29:51Z</time>
      </trkpt>
      <trkpt lat="44.69804" lon="3.85646">
        <ele>1018.17</ele>
        <time>2022-08-03T12:30:08Z</time>
      </trkpt>
      <trkpt lat="44.69786" lon="3.85625">
        <ele>1019.62</ele>
        <time>2022-08-03T12:30:29Z</time>
      </trkpt>
      <trkpt lat="44.69771" lon="3.85606">
        <ele>1021.06</ele>
        <time>2022-08-03T12:30:47Z</time>
      </trkpt>
      <trkpt lat="44.69761" lon="3.85589">
        <ele>1025.86</ele>
        <time>2022-08-03T12:31:02Z</time>
      </trkpt>
      <trkpt lat="44.69759" lon="3.85585">
        <ele>1026.83</ele>
        <time>2022-08-03T12:31:05Z</time>
      </trkpt>
      <trkpt lat="44.69748" lon="3.85561">
        <ele>1026.83</ele>
        <time>2022-08-03T12:31:23Z</time>
      </trkpt>
      <trkpt lat="44.69746" lon="3.85542">
        <ele>1030.19</ele>
        <time>2022-08-03T12:31:38Z</time>
      </trkpt>
      <trkpt lat="44.69735" lon="3.85515">
        <ele>1031.63</ele>
        <time>2022-08-03T12:31:56Z</time>
      </trkpt>
      <trkpt lat="44.69725" lon="3.85492">
        <ele>1033.07</ele>
        <time>2022-08-03T12:32:12Z</time>
      </trkpt>
      <trkpt lat="44.69718" lon="3.8547">
        <ele>1035.48</ele>
        <time>2022-08-03T12:32:27Z</time>
      </trkpt>
      <trkpt lat="44.69706" lon="3.85447">
        <ele>1034.04</ele>
        <time>2022-08-03T12:32:43Z</time>
      </trkpt>
      <trkpt lat="44.69696" lon="3.8543">
        <ele>1036.44</ele>
        <time>2022-08-03T12:32:58Z</time>
      </trkpt>
      <trkpt lat="44.6969" lon="3.85412">
        <ele>1038.36</ele>
        <time>2022-08-03T12:33:11Z</time>
      </trkpt>
      <trkpt lat="44.69689" lon="3.8541">
        <ele>1038.84</ele>
        <time>2022-08-03T12:33:12Z</time>
      </trkpt>
      <trkpt lat="44.69678" lon="3.85393">
        <ele>1039.32</ele>
        <time>2022-08-03T12:33:25Z</time>
      </trkpt>
      <trkpt lat="44.69662" lon="3.85374">
        <ele>1037.88</ele>
        <time>2022-08-03T12:33:41Z</time>
      </trkpt>
      <trkpt lat="44.69647" lon="3.85353">
        <ele>1038.84</ele>
        <time>2022-08-03T12:34:00Z</time>
      </trkpt>
      <trkpt lat="44.69639" lon="3.85332">
        <ele>1041.25</ele>
        <time>2022-08-03T12:34:16Z</time>
      </trkpt>
      <trkpt lat="44.6964" lon="3.85326">
        <ele>1041.25</ele>
        <time>2022-08-03T12:34:20Z</time>
      </trkpt>
      <trkpt lat="44.69652" lon="3.85307">
        <ele>1041.73</ele>
        <time>2022-08-03T12:34:36Z</time>
      </trkpt>
      <trkpt lat="44.69657" lon="3.85297">
        <ele>1040.28</ele>
        <time>2022-08-03T12:34:48Z</time>
      </trkpt>
      <trkpt lat="44.69663" lon="3.85283">
        <ele>1038.36</ele>
        <time>2022-08-03T12:35:02Z</time>
      </trkpt>
      <trkpt lat="44.69663" lon="3.85283">
        <ele>1039.8</ele>
        <time>2022-08-03T12:35:23Z</time>
      </trkpt>
      <trkpt lat="44.69668" lon="3.85267">
        <ele>1039.32</ele>
        <time>2022-08-03T12:35:38Z</time>
      </trkpt>
      <trkpt lat="44.69675" lon="3.85248">
        <ele>1037.4</ele>
        <time>2022-08-03T12:35:55Z</time>
      </trkpt>
      <trkpt lat="44.69676" lon="3.85242">
        <ele>1034.04</ele>
        <time>2022-08-03T12:36:11Z</time>
      </trkpt>
      <trkpt lat="44.69679" lon="3.85234">
        <ele>1031.63</ele>
        <time>2022-08-03T12:36:33Z</time>
      </trkpt>
      <trkpt lat="44.69693" lon="3.85214">
        <ele>1030.19</ele>
        <time>2022-08-03T12:36:49Z</time>
      </trkpt>
      <trkpt lat="44.69694" lon="3.85213">
        <ele>1030.19</ele>
        <time>2022-08-03T12:36:50Z</time>
      </trkpt>
      <trkpt lat="44.6971" lon="3.85195">
        <ele>1029.23</ele>
        <time>2022-08-03T12:37:06Z</time>
      </trkpt>
      <trkpt lat="44.69727" lon="3.85178">
        <ele>1027.31</ele>
        <time>2022-08-03T12:37:21Z</time>
      </trkpt>
      <trkpt lat="44.69737" lon="3.85167">
        <ele>1026.83</ele>
        <time>2022-08-03T12:37:31Z</time>
      </trkpt>
      <trkpt lat="44.69755" lon="3.85155">
        <ele>1026.34</ele>
        <time>2022-08-03T12:37:47Z</time>
      </trkpt>
      <trkpt lat="44.69771" lon="3.85151">
        <ele>1028.75</ele>
        <time>2022-08-03T12:38:02Z</time>
      </trkpt>
      <trkpt lat="44.69777" lon="3.85151">
        <ele>1029.23</ele>
        <time>2022-08-03T12:38:06Z</time>
      </trkpt>
      <trkpt lat="44.69794" lon="3.85139">
        <ele>1031.63</ele>
        <time>2022-08-03T12:38:20Z</time>
      </trkpt>
      <trkpt lat="44.69799" lon="3.85132">
        <ele>1032.59</ele>
        <time>2022-08-03T12:38:25Z</time>
      </trkpt>
      <trkpt lat="44.69804" lon="3.85116">
        <ele>1033.07</ele>
        <time>2022-08-03T12:38:33Z</time>
      </trkpt>
      <trkpt lat="44.69806" lon="3.8511">
        <ele>1033.07</ele>
        <time>2022-08-03T12:38:36Z</time>
      </trkpt>
      <trkpt lat="44.69812" lon="3.85083">
        <ele>1032.11</ele>
        <time>2022-08-03T12:38:51Z</time>
      </trkpt>
      <trkpt lat="44.69818" lon="3.8506">
        <ele>1032.11</ele>
        <time>2022-08-03T12:39:04Z</time>
      </trkpt>
      <trkpt lat="44.69821" lon="3.85033">
        <ele>1034.04</ele>
        <time>2022-08-03T12:39:20Z</time>
      </trkpt>
      <trkpt lat="44.69829" lon="3.85006">
        <ele>1032.11</ele>
        <time>2022-08-03T12:39:34Z</time>
      </trkpt>
      <trkpt lat="44.69839" lon="3.84991">
        <ele>1033.07</ele>
        <time>2022-08-03T12:39:45Z</time>
      </trkpt>
      <trkpt lat="44.69848" lon="3.84959">
        <ele>1032.59</ele>
        <time>2022-08-03T12:40:04Z</time>
      </trkpt>
      <trkpt lat="44.69856" lon="3.8493">
        <ele>1033.07</ele>
        <time>2022-08-03T12:40:21Z</time>
      </trkpt>
      <trkpt lat="44.69862" lon="3.84902">
        <ele>1033.07</ele>
        <time>2022-08-03T12:40:37Z</time>
      </trkpt>
      <trkpt lat="44.69864" lon="3.84872">
        <ele>1031.15</ele>
        <time>2022-08-03T12:40:54Z</time>
      </trkpt>
      <trkpt lat="44.69868" lon="3.84844">
        <ele>1029.71</ele>
        <time>2022-08-03T12:41:10Z</time>
      </trkpt>
      <trkpt lat="44.69871" lon="3.84814">
        <ele>1024.9</ele>
        <time>2022-08-03T12:41:27Z</time>
      </trkpt>
      <trkpt lat="44.69876" lon="3.84782">
        <ele>1022.5</ele>
        <time>2022-08-03T12:41:45Z</time>
      </trkpt>
      <trkpt lat="44.69876" lon="3.84772">
        <ele>1021.54</ele>
        <time>2022-08-03T12:41:51Z</time>
      </trkpt>
      <trkpt lat="44.69879" lon="3.84768">
        <ele>1021.54</ele>
        <time>2022-08-03T12:41:54Z</time>
      </trkpt>
      <trkpt lat="44.69881" lon="3.8476">
        <ele>1021.54</ele>
        <time>2022-08-03T12:41:59Z</time>
      </trkpt>
      <trkpt lat="44.69879" lon="3.84745">
        <ele>1020.58</ele>
        <time>2022-08-03T12:42:08Z</time>
      </trkpt>
      <trkpt lat="44.6988" lon="3.84715">
        <ele>1019.62</ele>
        <time>2022-08-03T12:42:24Z</time>
      </trkpt>
      <trkpt lat="44.69879" lon="3.84687">
        <ele>1018.17</ele>
        <time>2022-08-03T12:42:40Z</time>
      </trkpt>
      <trkpt lat="44.69877" lon="3.84657">
        <ele>1016.25</ele>
        <time>2022-08-03T12:42:57Z</time>
      </trkpt>
      <trkpt lat="44.69873" lon="3.84635">
        <ele>1016.25</ele>
        <time>2022-08-03T12:43:10Z</time>
      </trkpt>
      <trkpt lat="44.69865" lon="3.84605">
        <ele>1015.77</ele>
        <time>2022-08-03T12:43:27Z</time>
      </trkpt>
      <trkpt lat="44.69864" lon="3.84579">
        <ele>1016.25</ele>
        <time>2022-08-03T12:43:42Z</time>
      </trkpt>
      <trkpt lat="44.69869" lon="3.84565">
        <ele>1016.25</ele>
        <time>2022-08-03T12:43:51Z</time>
      </trkpt>
      <trkpt lat="44.69876" lon="3.84554">
        <ele>1015.77</ele>
        <time>2022-08-03T12:44:00Z</time>
      </trkpt>
      <trkpt lat="44.69883" lon="3.84534">
        <ele>1014.81</ele>
        <time>2022-08-03T12:44:12Z</time>
      </trkpt>
      <trkpt lat="44.69894" lon="3.84509">
        <ele>1014.33</ele>
        <time>2022-08-03T12:44:28Z</time>
      </trkpt>
      <trkpt lat="44.699" lon="3.84484">
        <ele>1013.85</ele>
        <time>2022-08-03T12:44:43Z</time>
      </trkpt>
      <trkpt lat="44.69903" lon="3.84456">
        <ele>1013.37</ele>
        <time>2022-08-03T12:44:59Z</time>
      </trkpt>
      <trkpt lat="44.6991" lon="3.8443">
        <ele>1013.37</ele>
        <time>2022-08-03T12:45:15Z</time>
      </trkpt>
      <trkpt lat="44.6992" lon="3.84408">
        <ele>1013.85</ele>
        <time>2022-08-03T12:45:30Z</time>
      </trkpt>
      <trkpt lat="44.69927" lon="3.84391">
        <ele>1014.33</ele>
        <time>2022-08-03T12:45:41Z</time>
      </trkpt>
      <trkpt lat="44.69928" lon="3.84378">
        <ele>1014.33</ele>
        <time>2022-08-03T12:45:49Z</time>
      </trkpt>
      <trkpt lat="44.69936" lon="3.84353">
        <ele>1013.85</ele>
        <time>2022-08-03T12:46:05Z</time>
      </trkpt>
      <trkpt lat="44.69941" lon="3.84331">
        <ele>1014.81</ele>
        <time>2022-08-03T12:46:18Z</time>
      </trkpt>
      <trkpt lat="44.69946" lon="3.84308">
        <ele>1016.73</ele>
        <time>2022-08-03T12:46:33Z</time>
      </trkpt>
      <trkpt lat="44.69946" lon="3.84299">
        <ele>1017.69</ele>
        <time>2022-08-03T12:46:38Z</time>
      </trkpt>
      <trkpt lat="44.69948" lon="3.84288">
        <ele>1018.65</ele>
        <time>2022-08-03T12:46:44Z</time>
      </trkpt>
      <trkpt lat="44.69943" lon="3.84258">
        <ele>1018.65</ele>
        <time>2022-08-03T12:47:01Z</time>
      </trkpt>
      <trkpt lat="44.69941" lon="3.84237">
        <ele>1020.1</ele>
        <time>2022-08-03T12:47:13Z</time>
      </trkpt>
      <trkpt lat="44.69941" lon="3.84213">
        <ele>1020.58</ele>
        <time>2022-08-03T12:47:27Z</time>
      </trkpt>
      <trkpt lat="44.6995" lon="3.84187">
        <ele>1021.54</ele>
        <time>2022-08-03T12:47:43Z</time>
      </trkpt>
      <trkpt lat="44.69959" lon="3.84168">
        <ele>1020.1</ele>
        <time>2022-08-03T12:47:57Z</time>
      </trkpt>
      <trkpt lat="44.69966" lon="3.8415">
        <ele>1019.62</ele>
        <time>2022-08-03T12:48:11Z</time>
      </trkpt>
      <trkpt lat="44.69962" lon="3.84129">
        <ele>1021.06</ele>
        <time>2022-08-03T12:48:26Z</time>
      </trkpt>
      <trkpt lat="44.69961" lon="3.84128">
        <ele>1021.06</ele>
        <time>2022-08-03T12:48:27Z</time>
      </trkpt>
      <trkpt lat="44.6995" lon="3.84106">
        <ele>1020.1</ele>
        <time>2022-08-03T12:48:44Z</time>
      </trkpt>
      <trkpt lat="44.69945" lon="3.84091">
        <ele>1021.06</ele>
        <time>2022-08-03T12:48:58Z</time>
      </trkpt>
      <trkpt lat="44.69935" lon="3.84077">
        <ele>1020.1</ele>
        <time>2022-08-03T12:49:13Z</time>
      </trkpt>
      <trkpt lat="44.6992" lon="3.84066">
        <ele>1018.17</ele>
        <time>2022-08-03T12:49:25Z</time>
      </trkpt>
      <trkpt lat="44.69898" lon="3.84059">
        <ele>1013.85</ele>
        <time>2022-08-03T12:49:43Z</time>
      </trkpt>
      <trkpt lat="44.69892" lon="3.84061">
        <ele>1012.41</ele>
        <time>2022-08-03T12:49:48Z</time>
      </trkpt>
      <trkpt lat="44.69875" lon="3.84062">
        <ele>1007.12</ele>
        <time>2022-08-03T12:50:03Z</time>
      </trkpt>
      <trkpt lat="44.69861" lon="3.84054">
        <ele>1002.31</ele>
        <time>2022-08-03T12:50:18Z</time>
      </trkpt>
      <trkpt lat="44.69845" lon="3.84042">
        <ele>1001.35</ele>
        <time>2022-08-03T12:50:33Z</time>
      </trkpt>
      <trkpt lat="44.69836" lon="3.84026">
        <ele>1003.27</ele>
        <time>2022-08-03T12:50:47Z</time>
      </trkpt>
      <trkpt lat="44.69826" lon="3.84014">
        <ele>1001.83</ele>
        <time>2022-08-03T12:51:02Z</time>
      </trkpt>
      <trkpt lat="44.69824" lon="3.84013">
        <ele>1000.87</ele>
        <time>2022-08-03T12:51:13Z</time>
      </trkpt>
      <trkpt lat="44.69822" lon="3.8401">
        <ele>1000.87</ele>
        <time>2022-08-03T12:51:16Z</time>
      </trkpt>
      <trkpt lat="44.69818" lon="3.83993">
        <ele>998.95</ele>
        <time>2022-08-03T12:51:30Z</time>
      </trkpt>
      <trkpt lat="44.69808" lon="3.83977">
        <ele>997.02</ele>
        <time>2022-08-03T12:51:46Z</time>
      </trkpt>
      <trkpt lat="44.69799" lon="3.83961">
        <ele>997.51</ele>
        <time>2022-08-03T12:51:59Z</time>
      </trkpt>
      <trkpt lat="44.69789" lon="3.83951">
        <ele>998.47</ele>
        <time>2022-08-03T12:52:13Z</time>
      </trkpt>
      <trkpt lat="44.69777" lon="3.83935">
        <ele>997.51</ele>
        <time>2022-08-03T12:52:26Z</time>
      </trkpt>
      <trkpt lat="44.69768" lon="3.83917">
        <ele>998.95</ele>
        <time>2022-08-03T12:52:41Z</time>
      </trkpt>
      <trkpt lat="44.69762" lon="3.83901">
        <ele>998.47</ele>
        <time>2022-08-03T12:52:55Z</time>
      </trkpt>
      <trkpt lat="44.69751" lon="3.83884">
        <ele>997.99</ele>
        <time>2022-08-03T12:53:11Z</time>
      </trkpt>
      <trkpt lat="44.69738" lon="3.83869">
        <ele>996.06</ele>
        <time>2022-08-03T12:53:27Z</time>
      </trkpt>
      <trkpt lat="44.69731" lon="3.83861">
        <ele>992.22</ele>
        <time>2022-08-03T12:53:42Z</time>
      </trkpt>
      <trkpt lat="44.69725" lon="3.83851">
        <ele>992.22</ele>
        <time>2022-08-03T12:53:57Z</time>
      </trkpt>
      <trkpt lat="44.69722" lon="3.83838">
        <ele>992.7</ele>
        <time>2022-08-03T12:54:08Z</time>
      </trkpt>
      <trkpt lat="44.69714" lon="3.83825">
        <ele>989.33</ele>
        <time>2022-08-03T12:54:22Z</time>
      </trkpt>
      <trkpt lat="44.69717" lon="3.83809">
        <ele>985.49</ele>
        <time>2022-08-03T12:54:37Z</time>
      </trkpt>
      <trkpt lat="44.6972" lon="3.83792">
        <ele>981.64</ele>
        <time>2022-08-03T12:54:50Z</time>
      </trkpt>
      <trkpt lat="44.69705" lon="3.83778">
        <ele>976.84</ele>
        <time>2022-08-03T12:55:07Z</time>
      </trkpt>
      <trkpt lat="44.69687" lon="3.83771">
        <ele>972.99</ele>
        <time>2022-08-03T12:55:22Z</time>
      </trkpt>
      <trkpt lat="44.69671" lon="3.83769">
        <ele>969.15</ele>
        <time>2022-08-03T12:55:37Z</time>
      </trkpt>
      <trkpt lat="44.69667" lon="3.83758">
        <ele>968.18</ele>
        <time>2022-08-03T12:55:47Z</time>
      </trkpt>
      <trkpt lat="44.69663" lon="3.83742">
        <ele>968.18</ele>
        <time>2022-08-03T12:55:57Z</time>
      </trkpt>
      <trkpt lat="44.6966" lon="3.83723">
        <ele>969.63</ele>
        <time>2022-08-03T12:56:09Z</time>
      </trkpt>
      <trkpt lat="44.69656" lon="3.83715">
        <ele>968.67</ele>
        <time>2022-08-03T12:56:24Z</time>
      </trkpt>
      <trkpt lat="44.69659" lon="3.83709">
        <ele>969.63</ele>
        <time>2022-08-03T12:56:34Z</time>
      </trkpt>
      <trkpt lat="44.69669" lon="3.83701">
        <ele>973.47</ele>
        <time>2022-08-03T12:56:49Z</time>
      </trkpt>
      <trkpt lat="44.69681" lon="3.8369">
        <ele>977.8</ele>
        <time>2022-08-03T12:57:06Z</time>
      </trkpt>
      <trkpt lat="44.6969" lon="3.8367">
        <ele>979.24</ele>
        <time>2022-08-03T12:57:20Z</time>
      </trkpt>
      <trkpt lat="44.69691" lon="3.83663">
        <ele>978.76</ele>
        <time>2022-08-03T12:57:24Z</time>
      </trkpt>
      <trkpt lat="44.69687" lon="3.83649">
        <ele>973.95</ele>
        <time>2022-08-03T12:57:32Z</time>
      </trkpt>
      <trkpt lat="44.69678" lon="3.83644">
        <ele>969.15</ele>
        <time>2022-08-03T12:57:38Z</time>
      </trkpt>
      <trkpt lat="44.69666" lon="3.83635">
        <ele>966.26</ele>
        <time>2022-08-03T12:57:53Z</time>
      </trkpt>
      <trkpt lat="44.69663" lon="3.83633">
        <ele>965.78</ele>
        <time>2022-08-03T12:57:56Z</time>
      </trkpt>
      <trkpt lat="44.69651" lon="3.83625">
        <ele>962.9</ele>
        <time>2022-08-03T12:58:10Z</time>
      </trkpt>
      <trkpt lat="44.69644" lon="3.83614">
        <ele>963.38</ele>
        <time>2022-08-03T12:58:22Z</time>
      </trkpt>
      <trkpt lat="44.69637" lon="3.83591">
        <ele>967.22</ele>
        <time>2022-08-03T12:58:35Z</time>
      </trkpt>
      <trkpt lat="44.69633" lon="3.8357">
        <ele>971.07</ele>
        <time>2022-08-03T12:58:49Z</time>
      </trkpt>
      <trkpt lat="44.69631" lon="3.83566">
        <ele>971.55</ele>
        <time>2022-08-03T12:58:51Z</time>
      </trkpt>
      <trkpt lat="44.69624" lon="3.83547">
        <ele>972.51</ele>
        <time>2022-08-03T12:59:05Z</time>
      </trkpt>
      <trkpt lat="44.69621" lon="3.83534">
        <ele>972.51</ele>
        <time>2022-08-03T12:59:19Z</time>
      </trkpt>
      <trkpt lat="44.69617" lon="3.83515">
        <ele>974.43</ele>
        <time>2022-08-03T12:59:31Z</time>
      </trkpt>
      <trkpt lat="44.69611" lon="3.83496">
        <ele>975.39</ele>
        <time>2022-08-03T12:59:44Z</time>
      </trkpt>
      <trkpt lat="44.69608" lon="3.83477">
        <ele>974.91</ele>
        <time>2022-08-03T12:59:55Z</time>
      </trkpt>
      <trkpt lat="44.69605" lon="3.83466">
        <ele>973.95</ele>
        <time>2022-08-03T13:00:01Z</time>
      </trkpt>
      <trkpt lat="44.69609" lon="3.83453">
        <ele>972.51</ele>
        <time>2022-08-03T13:00:14Z</time>
      </trkpt>
      <trkpt lat="44.69619" lon="3.83446">
        <ele>965.78</ele>
        <time>2022-08-03T13:00:29Z</time>
      </trkpt>
      <trkpt lat="44.6962" lon="3.83446">
        <ele>965.78</ele>
        <time>2022-08-03T13:00:30Z</time>
      </trkpt>
      <trkpt lat="44.69624" lon="3.83441">
        <ele>963.38</ele>
        <time>2022-08-03T13:00:34Z</time>
      </trkpt>
      <trkpt lat="44.69643" lon="3.83436">
        <ele>959.53</ele>
        <time>2022-08-03T13:00:50Z</time>
      </trkpt>
      <trkpt lat="44.69659" lon="3.83434">
        <ele>960.98</ele>
        <time>2022-08-03T13:01:06Z</time>
      </trkpt>
      <trkpt lat="44.69671" lon="3.83434">
        <ele>962.42</ele>
        <time>2022-08-03T13:01:20Z</time>
      </trkpt>
      <trkpt lat="44.69683" lon="3.83438">
        <ele>966.74</ele>
        <time>2022-08-03T13:01:34Z</time>
      </trkpt>
      <trkpt lat="44.69693" lon="3.83442">
        <ele>970.59</ele>
        <time>2022-08-03T13:01:48Z</time>
      </trkpt>
      <trkpt lat="44.69707" lon="3.83447">
        <ele>972.51</ele>
        <time>2022-08-03T13:02:03Z</time>
      </trkpt>
      <trkpt lat="44.69722" lon="3.83448">
        <ele>974.43</ele>
        <time>2022-08-03T13:02:20Z</time>
      </trkpt>
      <trkpt lat="44.69729" lon="3.83451">
        <ele>975.88</ele>
        <time>2022-08-03T13:02:36Z</time>
      </trkpt>
      <trkpt lat="44.69732" lon="3.83453">
        <ele>973.95</ele>
        <time>2022-08-03T13:02:56Z</time>
      </trkpt>
      <trkpt lat="44.69739" lon="3.83455">
        <ele>972.99</ele>
        <time>2022-08-03T13:03:13Z</time>
      </trkpt>
      <trkpt lat="44.69747" lon="3.8346">
        <ele>973.95</ele>
        <time>2022-08-03T13:03:31Z</time>
      </trkpt>
      <trkpt lat="44.69748" lon="3.83461">
        <ele>975.88</ele>
        <time>2022-08-03T13:03:47Z</time>
      </trkpt>
      <trkpt lat="44.69748" lon="3.8346">
        <ele>975.88</ele>
        <time>2022-08-03T13:04:18Z</time>
      </trkpt>
      <trkpt lat="44.6976" lon="3.83466">
        <ele>979.72</ele>
        <time>2022-08-03T13:04:32Z</time>
      </trkpt>
      <trkpt lat="44.69773" lon="3.83471">
        <ele>979.72</ele>
        <time>2022-08-03T13:04:44Z</time>
      </trkpt>
      <trkpt lat="44.6978" lon="3.83465">
        <ele>984.05</ele>
        <time>2022-08-03T13:04:57Z</time>
      </trkpt>
      <trkpt lat="44.6978" lon="3.83462">
        <ele>985.01</ele>
        <time>2022-08-03T13:05:16Z</time>
      </trkpt>
      <trkpt lat="44.69781" lon="3.83452">
        <ele>985.49</ele>
        <time>2022-08-03T13:05:33Z</time>
      </trkpt>
      <trkpt lat="44.6978" lon="3.8344">
        <ele>985.49</ele>
        <time>2022-08-03T13:05:43Z</time>
      </trkpt>
      <trkpt lat="44.69779" lon="3.83436">
        <ele>985.49</ele>
        <time>2022-08-03T13:05:46Z</time>
      </trkpt>
      <trkpt lat="44.69776" lon="3.83417">
        <ele>985.49</ele>
        <time>2022-08-03T13:06:01Z</time>
      </trkpt>
      <trkpt lat="44.69772" lon="3.83395">
        <ele>986.93</ele>
        <time>2022-08-03T13:06:18Z</time>
      </trkpt>
      <trkpt lat="44.69768" lon="3.83374">
        <ele>988.85</ele>
        <time>2022-08-03T13:06:35Z</time>
      </trkpt>
      <trkpt lat="44.69764" lon="3.83357">
        <ele>996.06</ele>
        <time>2022-08-03T13:06:52Z</time>
      </trkpt>
      <trkpt lat="44.69758" lon="3.83341">
        <ele>998.95</ele>
        <time>2022-08-03T13:07:09Z</time>
      </trkpt>
      <trkpt lat="44.69753" lon="3.8332">
        <ele>1004.72</ele>
        <time>2022-08-03T13:07:28Z</time>
      </trkpt>
      <trkpt lat="44.69744" lon="3.83299">
        <ele>1009.04</ele>
        <time>2022-08-03T13:07:47Z</time>
      </trkpt>
      <trkpt lat="44.69737" lon="3.83276">
        <ele>1011.44</ele>
        <time>2022-08-03T13:08:06Z</time>
      </trkpt>
      <trkpt lat="44.69728" lon="3.83252">
        <ele>1010</ele>
        <time>2022-08-03T13:08:25Z</time>
      </trkpt>
      <trkpt lat="44.6972" lon="3.83231">
        <ele>1007.12</ele>
        <time>2022-08-03T13:08:41Z</time>
      </trkpt>
      <trkpt lat="44.69713" lon="3.83215">
        <ele>1006.64</ele>
        <time>2022-08-03T13:08:56Z</time>
      </trkpt>
      <trkpt lat="44.69703" lon="3.83198">
        <ele>1008.08</ele>
        <time>2022-08-03T13:09:11Z</time>
      </trkpt>
      <trkpt lat="44.69693" lon="3.83181">
        <ele>1008.56</ele>
        <time>2022-08-03T13:09:28Z</time>
      </trkpt>
      <trkpt lat="44.69681" lon="3.83162">
        <ele>1010</ele>
        <time>2022-08-03T13:09:47Z</time>
      </trkpt>
      <trkpt lat="44.69672" lon="3.83148">
        <ele>1013.37</ele>
        <time>2022-08-03T13:10:03Z</time>
      </trkpt>
      <trkpt lat="44.69663" lon="3.83131">
        <ele>1016.25</ele>
        <time>2022-08-03T13:10:21Z</time>
      </trkpt>
      <trkpt lat="44.69656" lon="3.83118">
        <ele>1017.69</ele>
        <time>2022-08-03T13:10:36Z</time>
      </trkpt>
      <trkpt lat="44.69645" lon="3.83097">
        <ele>1020.1</ele>
        <time>2022-08-03T13:10:54Z</time>
      </trkpt>
      <trkpt lat="44.69637" lon="3.83078">
        <ele>1023.46</ele>
        <time>2022-08-03T13:11:10Z</time>
      </trkpt>
      <trkpt lat="44.69631" lon="3.83065">
        <ele>1024.42</ele>
        <time>2022-08-03T13:11:21Z</time>
      </trkpt>
      <trkpt lat="44.69624" lon="3.83044">
        <ele>1024.42</ele>
        <time>2022-08-03T13:11:38Z</time>
      </trkpt>
      <trkpt lat="44.69618" lon="3.83036">
        <ele>1027.31</ele>
        <time>2022-08-03T13:11:53Z</time>
      </trkpt>
      <trkpt lat="44.69619" lon="3.83037">
        <ele>1030.19</ele>
        <time>2022-08-03T13:12:15Z</time>
      </trkpt>
      <trkpt lat="44.69618" lon="3.83036">
        <ele>1030.19</ele>
        <time>2022-08-03T13:12:36Z</time>
      </trkpt>
      <trkpt lat="44.69617" lon="3.83036">
        <ele>1030.67</ele>
        <time>2022-08-03T13:12:56Z</time>
      </trkpt>
      <trkpt lat="44.69615" lon="3.83034">
        <ele>1031.15</ele>
        <time>2022-08-03T13:13:16Z</time>
      </trkpt>
      <trkpt lat="44.69614" lon="3.83032">
        <ele>1031.63</ele>
        <time>2022-08-03T13:13:40Z</time>
      </trkpt>
      <trkpt lat="44.69614" lon="3.83032">
        <ele>1032.59</ele>
        <time>2022-08-03T13:14:11Z</time>
      </trkpt>
      <trkpt lat="44.69617" lon="3.83032">
        <ele>1030.19</ele>
        <time>2022-08-03T13:14:39Z</time>
      </trkpt>
      <trkpt lat="44.69616" lon="3.83027">
        <ele>1030.67</ele>
        <time>2022-08-03T13:14:52Z</time>
      </trkpt>
      <trkpt lat="44.69614" lon="3.83026">
        <ele>1030.67</ele>
        <time>2022-08-03T13:15:12Z</time>
      </trkpt>
      <trkpt lat="44.69613" lon="3.83024">
        <ele>1032.59</ele>
        <time>2022-08-03T13:15:30Z</time>
      </trkpt>
      <trkpt lat="44.6961" lon="3.83021">
        <ele>1031.15</ele>
        <time>2022-08-03T13:15:45Z</time>
      </trkpt>
      <trkpt lat="44.6961" lon="3.83015">
        <ele>1031.15</ele>
        <time>2022-08-03T13:16:00Z</time>
      </trkpt>
      <trkpt lat="44.69611" lon="3.82999">
        <ele>1031.15</ele>
        <time>2022-08-03T13:16:12Z</time>
      </trkpt>
      <trkpt lat="44.69617" lon="3.82983">
        <ele>1033.55</ele>
        <time>2022-08-03T13:16:27Z</time>
      </trkpt>
      <trkpt lat="44.69621" lon="3.82966">
        <ele>1035.96</ele>
        <time>2022-08-03T13:16:39Z</time>
      </trkpt>
      <trkpt lat="44.69618" lon="3.82939">
        <ele>1037.4</ele>
        <time>2022-08-03T13:16:54Z</time>
      </trkpt>
      <trkpt lat="44.69612" lon="3.82917">
        <ele>1038.36</ele>
        <time>2022-08-03T13:17:09Z</time>
      </trkpt>
      <trkpt lat="44.69607" lon="3.82897">
        <ele>1037.88</ele>
        <time>2022-08-03T13:17:24Z</time>
      </trkpt>
      <trkpt lat="44.69602" lon="3.82881">
        <ele>1037.88</ele>
        <time>2022-08-03T13:17:38Z</time>
      </trkpt>
      <trkpt lat="44.69597" lon="3.82863">
        <ele>1038.36</ele>
        <time>2022-08-03T13:17:51Z</time>
      </trkpt>
      <trkpt lat="44.69597" lon="3.82853">
        <ele>1039.8</ele>
        <time>2022-08-03T13:17:59Z</time>
      </trkpt>
      <trkpt lat="44.69597" lon="3.82848">
        <ele>1040.28</ele>
        <time>2022-08-03T13:18:03Z</time>
      </trkpt>
      <trkpt lat="44.69597" lon="3.82825">
        <ele>1042.21</ele>
        <time>2022-08-03T13:18:19Z</time>
      </trkpt>
      <trkpt lat="44.69597" lon="3.82823">
        <ele>1042.21</ele>
        <time>2022-08-03T13:18:21Z</time>
      </trkpt>
      <trkpt lat="44.69597" lon="3.8282">
        <ele>1042.69</ele>
        <time>2022-08-03T13:18:23Z</time>
      </trkpt>
      <trkpt lat="44.69594" lon="3.82806">
        <ele>1042.69</ele>
        <time>2022-08-03T13:18:33Z</time>
      </trkpt>
      <trkpt lat="44.69595" lon="3.82804">
        <ele>1043.17</ele>
        <time>2022-08-03T13:18:35Z</time>
      </trkpt>
      <trkpt lat="44.69594" lon="3.82779">
        <ele>1045.57</ele>
        <time>2022-08-03T13:18:52Z</time>
      </trkpt>
      <trkpt lat="44.69594" lon="3.82777">
        <ele>1045.57</ele>
        <time>2022-08-03T13:18:53Z</time>
      </trkpt>
      <trkpt lat="44.69591" lon="3.82765">
        <ele>1046.05</ele>
        <time>2022-08-03T13:19:02Z</time>
      </trkpt>
      <trkpt lat="44.6959" lon="3.82746">
        <ele>1047.49</ele>
        <time>2022-08-03T13:19:15Z</time>
      </trkpt>
      <trkpt lat="44.69591" lon="3.8273">
        <ele>1049.9</ele>
        <time>2022-08-03T13:19:26Z</time>
      </trkpt>
      <trkpt lat="44.69593" lon="3.82706">
        <ele>1051.82</ele>
        <time>2022-08-03T13:19:42Z</time>
      </trkpt>
      <trkpt lat="44.69594" lon="3.82684">
        <ele>1051.82</ele>
        <time>2022-08-03T13:19:56Z</time>
      </trkpt>
      <trkpt lat="44.69594" lon="3.82662">
        <ele>1053.26</ele>
        <time>2022-08-03T13:20:11Z</time>
      </trkpt>
      <trkpt lat="44.69596" lon="3.82638">
        <ele>1053.26</ele>
        <time>2022-08-03T13:20:28Z</time>
      </trkpt>
      <trkpt lat="44.69596" lon="3.82618">
        <ele>1055.18</ele>
        <time>2022-08-03T13:20:42Z</time>
      </trkpt>
      <trkpt lat="44.69594" lon="3.82599">
        <ele>1056.15</ele>
        <time>2022-08-03T13:20:55Z</time>
      </trkpt>
      <trkpt lat="44.6959" lon="3.82581">
        <ele>1059.51</ele>
        <time>2022-08-03T13:21:09Z</time>
      </trkpt>
      <trkpt lat="44.69586" lon="3.82568">
        <ele>1060.47</ele>
        <time>2022-08-03T13:21:24Z</time>
      </trkpt>
      <trkpt lat="44.6958" lon="3.82566">
        <ele>1059.99</ele>
        <time>2022-08-03T13:21:48Z</time>
      </trkpt>
      <trkpt lat="44.69581" lon="3.82568">
        <ele>1061.91</ele>
        <time>2022-08-03T13:22:26Z</time>
      </trkpt>
      <trkpt lat="44.69582" lon="3.82568">
        <ele>1064.8</ele>
        <time>2022-08-03T13:23:03Z</time>
      </trkpt>
      <trkpt lat="44.69583" lon="3.82569">
        <ele>1066.24</ele>
        <time>2022-08-03T13:23:47Z</time>
      </trkpt>
      <trkpt lat="44.69582" lon="3.8257">
        <ele>1063.84</ele>
        <time>2022-08-03T13:24:32Z</time>
      </trkpt>
      <trkpt lat="44.69583" lon="3.82569">
        <ele>1060.95</ele>
        <time>2022-08-03T13:25:10Z</time>
      </trkpt>
      <trkpt lat="44.69579" lon="3.82565">
        <ele>1066.72</ele>
        <time>2022-08-03T13:25:54Z</time>
      </trkpt>
      <trkpt lat="44.69581" lon="3.82566">
        <ele>1065.76</ele>
        <time>2022-08-03T13:26:39Z</time>
      </trkpt>
      <trkpt lat="44.69581" lon="3.82565">
        <ele>1062.39</ele>
        <time>2022-08-03T13:27:30Z</time>
      </trkpt>
      <trkpt lat="44.6958" lon="3.82567">
        <ele>1065.28</ele>
        <time>2022-08-03T13:28:19Z</time>
      </trkpt>
      <trkpt lat="44.6958" lon="3.82568">
        <ele>1067.2</ele>
        <time>2022-08-03T13:29:03Z</time>
      </trkpt>
      <trkpt lat="44.69578" lon="3.82567">
        <ele>1062.39</ele>
        <time>2022-08-03T13:29:36Z</time>
      </trkpt>
      <trkpt lat="44.69578" lon="3.82566">
        <ele>1062.39</ele>
        <time>2022-08-03T13:30:07Z</time>
      </trkpt>
      <trkpt lat="44.6958" lon="3.82567">
        <ele>1061.91</ele>
        <time>2022-08-03T13:30:45Z</time>
      </trkpt>
      <trkpt lat="44.69582" lon="3.8257">
        <ele>1061.43</ele>
        <time>2022-08-03T13:31:25Z</time>
      </trkpt>
      <trkpt lat="44.69581" lon="3.82567">
        <ele>1058.55</ele>
        <time>2022-08-03T13:32:11Z</time>
      </trkpt>
      <trkpt lat="44.6958" lon="3.82567">
        <ele>1056.15</ele>
        <time>2022-08-03T13:32:58Z</time>
      </trkpt>
      <trkpt lat="44.69578" lon="3.82564">
        <ele>1052.3</ele>
        <time>2022-08-03T13:33:39Z</time>
      </trkpt>
      <trkpt lat="44.69579" lon="3.82566">
        <ele>1054.7</ele>
        <time>2022-08-03T13:34:12Z</time>
      </trkpt>
      <trkpt lat="44.69579" lon="3.82566">
        <ele>1058.07</ele>
        <time>2022-08-03T13:34:34Z</time>
      </trkpt>
      <trkpt lat="44.6958" lon="3.82567">
        <ele>1058.55</ele>
        <time>2022-08-03T13:34:54Z</time>
      </trkpt>
      <trkpt lat="44.69579" lon="3.82565">
        <ele>1059.03</ele>
        <time>2022-08-03T13:35:33Z</time>
      </trkpt>
      <trkpt lat="44.69579" lon="3.82565">
        <ele>1057.59</ele>
        <time>2022-08-03T13:36:05Z</time>
      </trkpt>
      <trkpt lat="44.6958" lon="3.82567">
        <ele>1057.11</ele>
        <time>2022-08-03T13:36:39Z</time>
      </trkpt>
      <trkpt lat="44.69581" lon="3.82568">
        <ele>1057.59</ele>
        <time>2022-08-03T13:37:08Z</time>
      </trkpt>
      <trkpt lat="44.6958" lon="3.82567">
        <ele>1057.11</ele>
        <time>2022-08-03T13:37:41Z</time>
      </trkpt>
      <trkpt lat="44.6958" lon="3.82567">
        <ele>1056.63</ele>
        <time>2022-08-03T13:38:14Z</time>
      </trkpt>
      <trkpt lat="44.6958" lon="3.82566">
        <ele>1055.67</ele>
        <time>2022-08-03T13:38:57Z</time>
      </trkpt>
      <trkpt lat="44.6958" lon="3.82566">
        <ele>1056.15</ele>
        <time>2022-08-03T13:39:33Z</time>
      </trkpt>
      <trkpt lat="44.6958" lon="3.82564">
        <ele>1058.07</ele>
        <time>2022-08-03T13:40:10Z</time>
      </trkpt>
      <trkpt lat="44.6958" lon="3.82564">
        <ele>1057.11</ele>
        <time>2022-08-03T13:40:43Z</time>
      </trkpt>
      <trkpt lat="44.69579" lon="3.82564">
        <ele>1056.63</ele>
        <time>2022-08-03T13:41:23Z</time>
      </trkpt>
      <trkpt lat="44.69579" lon="3.82564">
        <ele>1054.7</ele>
        <time>2022-08-03T13:41:56Z</time>
      </trkpt>
      <trkpt lat="44.6958" lon="3.82565">
        <ele>1055.18</ele>
        <time>2022-08-03T13:42:27Z</time>
      </trkpt>
      <trkpt lat="44.69579" lon="3.82566">
        <ele>1057.11</ele>
        <time>2022-08-03T13:42:58Z</time>
      </trkpt>
      <trkpt lat="44.69581" lon="3.82566">
        <ele>1057.59</ele>
        <time>2022-08-03T13:43:36Z</time>
      </trkpt>
      <trkpt lat="44.6958" lon="3.82565">
        <ele>1056.15</ele>
        <time>2022-08-03T13:44:09Z</time>
      </trkpt>
      <trkpt lat="44.69582" lon="3.82564">
        <ele>1054.22</ele>
        <time>2022-08-03T13:44:43Z</time>
      </trkpt>
      <trkpt lat="44.69582" lon="3.82563">
        <ele>1053.74</ele>
        <time>2022-08-03T13:45:14Z</time>
      </trkpt>
      <trkpt lat="44.69582" lon="3.82563">
        <ele>1055.67</ele>
        <time>2022-08-03T13:45:45Z</time>
      </trkpt>
      <trkpt lat="44.69581" lon="3.82564">
        <ele>1056.15</ele>
        <time>2022-08-03T13:46:22Z</time>
      </trkpt>
      <trkpt lat="44.6958" lon="3.82565">
        <ele>1056.15</ele>
        <time>2022-08-03T13:46:52Z</time>
      </trkpt>
      <trkpt lat="44.6958" lon="3.82566">
        <ele>1056.63</ele>
        <time>2022-08-03T13:47:26Z</time>
      </trkpt>
      <trkpt lat="44.69578" lon="3.82566">
        <ele>1055.18</ele>
        <time>2022-08-03T13:47:58Z</time>
      </trkpt>
      <trkpt lat="44.69576" lon="3.82565">
        <ele>1054.7</ele>
        <time>2022-08-03T13:48:26Z</time>
      </trkpt>
      <trkpt lat="44.69575" lon="3.82563">
        <ele>1054.22</ele>
        <time>2022-08-03T13:49:04Z</time>
      </trkpt>
      <trkpt lat="44.69576" lon="3.82564">
        <ele>1055.18</ele>
        <time>2022-08-03T13:49:42Z</time>
      </trkpt>
      <trkpt lat="44.69577" lon="3.82566">
        <ele>1056.15</ele>
        <time>2022-08-03T13:50:19Z</time>
      </trkpt>
      <trkpt lat="44.6958" lon="3.82568">
        <ele>1054.22</ele>
        <time>2022-08-03T13:50:40Z</time>
      </trkpt>
      <trkpt lat="44.6958" lon="3.82567">
        <ele>1052.78</ele>
        <time>2022-08-03T13:51:03Z</time>
      </trkpt>
      <trkpt lat="44.69577" lon="3.82564">
        <ele>1054.7</ele>
        <time>2022-08-03T13:51:23Z</time>
      </trkpt>
      <trkpt lat="44.69579" lon="3.82569">
        <ele>1056.63</ele>
        <time>2022-08-03T13:51:49Z</time>
      </trkpt>
      <trkpt lat="44.6958" lon="3.82568">
        <ele>1054.22</ele>
        <time>2022-08-03T13:52:04Z</time>
      </trkpt>
      <trkpt lat="44.69579" lon="3.82569">
        <ele>1053.74</ele>
        <time>2022-08-03T13:52:10Z</time>
      </trkpt>
      <trkpt lat="44.69563" lon="3.82559">
        <ele>1051.34</ele>
        <time>2022-08-03T13:52:25Z</time>
      </trkpt>
      <trkpt lat="44.6955" lon="3.82546">
        <ele>1050.38</ele>
        <time>2022-08-03T13:52:40Z</time>
      </trkpt>
      <trkpt lat="44.69532" lon="3.8254">
        <ele>1047.97</ele>
        <time>2022-08-03T13:52:56Z</time>
      </trkpt>
      <trkpt lat="44.6952" lon="3.82538">
        <ele>1048.94</ele>
        <time>2022-08-03T13:53:07Z</time>
      </trkpt>
      <trkpt lat="44.69502" lon="3.82529">
        <ele>1047.97</ele>
        <time>2022-08-03T13:53:22Z</time>
      </trkpt>
      <trkpt lat="44.69484" lon="3.82518">
        <ele>1048.94</ele>
        <time>2022-08-03T13:53:38Z</time>
      </trkpt>
      <trkpt lat="44.69467" lon="3.82509">
        <ele>1048.45</ele>
        <time>2022-08-03T13:53:53Z</time>
      </trkpt>
      <trkpt lat="44.69448" lon="3.82495">
        <ele>1048.94</ele>
        <time>2022-08-03T13:54:11Z</time>
      </trkpt>
      <trkpt lat="44.69428" lon="3.82479">
        <ele>1049.42</ele>
        <time>2022-08-03T13:54:30Z</time>
      </trkpt>
      <trkpt lat="44.6941" lon="3.82468">
        <ele>1048.94</ele>
        <time>2022-08-03T13:54:45Z</time>
      </trkpt>
      <trkpt lat="44.69392" lon="3.82459">
        <ele>1049.42</ele>
        <time>2022-08-03T13:55:00Z</time>
      </trkpt>
      <trkpt lat="44.69382" lon="3.82453">
        <ele>1049.42</ele>
        <time>2022-08-03T13:55:11Z</time>
      </trkpt>
      <trkpt lat="44.69369" lon="3.82432">
        <ele>1049.9</ele>
        <time>2022-08-03T13:55:28Z</time>
      </trkpt>
      <trkpt lat="44.69356" lon="3.82411">
        <ele>1048.45</ele>
        <time>2022-08-03T13:55:45Z</time>
      </trkpt>
      <trkpt lat="44.69342" lon="3.8239">
        <ele>1047.49</ele>
        <time>2022-08-03T13:56:02Z</time>
      </trkpt>
      <trkpt lat="44.69326" lon="3.82365">
        <ele>1047.01</ele>
        <time>2022-08-03T13:56:21Z</time>
      </trkpt>
      <trkpt lat="44.69311" lon="3.82338">
        <ele>1047.49</ele>
        <time>2022-08-03T13:56:41Z</time>
      </trkpt>
      <trkpt lat="44.69304" lon="3.82321">
        <ele>1047.97</ele>
        <time>2022-08-03T13:56:53Z</time>
      </trkpt>
      <trkpt lat="44.69301" lon="3.82301">
        <ele>1049.9</ele>
        <time>2022-08-03T13:57:07Z</time>
      </trkpt>
      <trkpt lat="44.69298" lon="3.823">
        <ele>1049.9</ele>
        <time>2022-08-03T13:57:20Z</time>
      </trkpt>
      <trkpt lat="44.69297" lon="3.82304">
        <ele>1047.97</ele>
        <time>2022-08-03T13:58:04Z</time>
      </trkpt>
      <trkpt lat="44.69296" lon="3.82305">
        <ele>1048.45</ele>
        <time>2022-08-03T13:58:37Z</time>
      </trkpt>
      <trkpt lat="44.69296" lon="3.82298">
        <ele>1048.94</ele>
        <time>2022-08-03T13:59:05Z</time>
      </trkpt>
      <trkpt lat="44.69296" lon="3.82297">
        <ele>1048.94</ele>
        <time>2022-08-03T13:59:06Z</time>
      </trkpt>
      <trkpt lat="44.69286" lon="3.82273">
        <ele>1046.05</ele>
        <time>2022-08-03T13:59:23Z</time>
      </trkpt>
      <trkpt lat="44.69269" lon="3.82256">
        <ele>1049.42</ele>
        <time>2022-08-03T13:59:38Z</time>
      </trkpt>
      <trkpt lat="44.69246" lon="3.82249">
        <ele>1048.45</ele>
        <time>2022-08-03T13:59:55Z</time>
      </trkpt>
      <trkpt lat="44.69229" lon="3.8225">
        <ele>1048.94</ele>
        <time>2022-08-03T14:00:10Z</time>
      </trkpt>
      <trkpt lat="44.6921" lon="3.82247">
        <ele>1051.34</ele>
        <time>2022-08-03T14:00:25Z</time>
      </trkpt>
      <trkpt lat="44.69193" lon="3.82253">
        <ele>1052.78</ele>
        <time>2022-08-03T14:00:39Z</time>
      </trkpt>
      <trkpt lat="44.69174" lon="3.82249">
        <ele>1052.78</ele>
        <time>2022-08-03T14:00:55Z</time>
      </trkpt>
      <trkpt lat="44.6916" lon="3.82247">
        <ele>1053.26</ele>
        <time>2022-08-03T14:01:07Z</time>
      </trkpt>
      <trkpt lat="44.69148" lon="3.82246">
        <ele>1053.26</ele>
        <time>2022-08-03T14:01:17Z</time>
      </trkpt>
      <trkpt lat="44.69144" lon="3.82245">
        <ele>1053.26</ele>
        <time>2022-08-03T14:01:21Z</time>
      </trkpt>
      <trkpt lat="44.69129" lon="3.82243">
        <ele>1051.82</ele>
        <time>2022-08-03T14:01:34Z</time>
      </trkpt>
      <trkpt lat="44.69123" lon="3.82243">
        <ele>1051.82</ele>
        <time>2022-08-03T14:01:39Z</time>
      </trkpt>
      <trkpt lat="44.69114" lon="3.8224">
        <ele>1051.34</ele>
        <time>2022-08-03T14:01:47Z</time>
      </trkpt>
      <trkpt lat="44.69095" lon="3.82238">
        <ele>1050.38</ele>
        <time>2022-08-03T14:02:04Z</time>
      </trkpt>
      <trkpt lat="44.69076" lon="3.82244">
        <ele>1049.9</ele>
        <time>2022-08-03T14:02:20Z</time>
      </trkpt>
      <trkpt lat="44.69074" lon="3.82246">
        <ele>1049.9</ele>
        <time>2022-08-03T14:02:22Z</time>
      </trkpt>
      <trkpt lat="44.69068" lon="3.82253">
        <ele>1049.42</ele>
        <time>2022-08-03T14:02:28Z</time>
      </trkpt>
      <trkpt lat="44.69051" lon="3.82272">
        <ele>1048.94</ele>
        <time>2022-08-03T14:02:45Z</time>
      </trkpt>
      <trkpt lat="44.69036" lon="3.82293">
        <ele>1050.38</ele>
        <time>2022-08-03T14:03:02Z</time>
      </trkpt>
      <trkpt lat="44.69023" lon="3.82314">
        <ele>1051.82</ele>
        <time>2022-08-03T14:03:19Z</time>
      </trkpt>
      <trkpt lat="44.69012" lon="3.82335">
        <ele>1053.74</ele>
        <time>2022-08-03T14:03:35Z</time>
      </trkpt>
      <trkpt lat="44.69" lon="3.82354">
        <ele>1056.63</ele>
        <time>2022-08-03T14:03:51Z</time>
      </trkpt>
      <trkpt lat="44.68987" lon="3.82373">
        <ele>1058.07</ele>
        <time>2022-08-03T14:04:07Z</time>
      </trkpt>
      <trkpt lat="44.68981" lon="3.82383">
        <ele>1058.07</ele>
        <time>2022-08-03T14:04:14Z</time>
      </trkpt>
      <trkpt lat="44.68967" lon="3.82403">
        <ele>1060.47</ele>
        <time>2022-08-03T14:04:31Z</time>
      </trkpt>
      <trkpt lat="44.68957" lon="3.82418">
        <ele>1060.47</ele>
        <time>2022-08-03T14:04:46Z</time>
      </trkpt>
      <trkpt lat="44.68947" lon="3.82438">
        <ele>1060.95</ele>
        <time>2022-08-03T14:05:02Z</time>
      </trkpt>
      <trkpt lat="44.68936" lon="3.82456">
        <ele>1062.39</ele>
        <time>2022-08-03T14:05:19Z</time>
      </trkpt>
      <trkpt lat="44.68925" lon="3.82471">
        <ele>1064.32</ele>
        <time>2022-08-03T14:05:37Z</time>
      </trkpt>
      <trkpt lat="44.68917" lon="3.82485">
        <ele>1067.2</ele>
        <time>2022-08-03T14:05:51Z</time>
      </trkpt>
      <trkpt lat="44.68906" lon="3.82497">
        <ele>1069.12</ele>
        <time>2022-08-03T14:06:06Z</time>
      </trkpt>
      <trkpt lat="44.68894" lon="3.82508">
        <ele>1072.49</ele>
        <time>2022-08-03T14:06:21Z</time>
      </trkpt>
      <trkpt lat="44.68889" lon="3.82512">
        <ele>1073.45</ele>
        <time>2022-08-03T14:06:27Z</time>
      </trkpt>
      <trkpt lat="44.68872" lon="3.82526">
        <ele>1075.37</ele>
        <time>2022-08-03T14:06:44Z</time>
      </trkpt>
      <trkpt lat="44.68859" lon="3.8254">
        <ele>1073.93</ele>
        <time>2022-08-03T14:06:59Z</time>
      </trkpt>
      <trkpt lat="44.68858" lon="3.82541">
        <ele>1073.93</ele>
        <time>2022-08-03T14:07:00Z</time>
      </trkpt>
      <trkpt lat="44.6885" lon="3.82546">
        <ele>1072.97</ele>
        <time>2022-08-03T14:07:07Z</time>
      </trkpt>
      <trkpt lat="44.68833" lon="3.82559">
        <ele>1070.08</ele>
        <time>2022-08-03T14:07:23Z</time>
      </trkpt>
      <trkpt lat="44.68829" lon="3.82562">
        <ele>1069.6</ele>
        <time>2022-08-03T14:07:27Z</time>
      </trkpt>
      <trkpt lat="44.68809" lon="3.82574">
        <ele>1066.72</ele>
        <time>2022-08-03T14:07:44Z</time>
      </trkpt>
      <trkpt lat="44.68792" lon="3.82582">
        <ele>1066.24</ele>
        <time>2022-08-03T14:07:59Z</time>
      </trkpt>
      <trkpt lat="44.68771" lon="3.82593">
        <ele>1066.24</ele>
        <time>2022-08-03T14:08:17Z</time>
      </trkpt>
      <trkpt lat="44.68754" lon="3.82601">
        <ele>1065.28</ele>
        <time>2022-08-03T14:08:32Z</time>
      </trkpt>
      <trkpt lat="44.68737" lon="3.82609">
        <ele>1063.84</ele>
        <time>2022-08-03T14:08:46Z</time>
      </trkpt>
      <trkpt lat="44.68717" lon="3.82616">
        <ele>1062.87</ele>
        <time>2022-08-03T14:09:03Z</time>
      </trkpt>
      <trkpt lat="44.68701" lon="3.82625">
        <ele>1061.91</ele>
        <time>2022-08-03T14:09:18Z</time>
      </trkpt>
      <trkpt lat="44.68684" lon="3.82631">
        <ele>1059.99</ele>
        <time>2022-08-03T14:09:33Z</time>
      </trkpt>
      <trkpt lat="44.68674" lon="3.82634">
        <ele>1059.03</ele>
        <time>2022-08-03T14:09:41Z</time>
      </trkpt>
      <trkpt lat="44.68672" lon="3.82636">
        <ele>1058.55</ele>
        <time>2022-08-03T14:09:43Z</time>
      </trkpt>
      <trkpt lat="44.68669" lon="3.82636">
        <ele>1058.55</ele>
        <time>2022-08-03T14:09:45Z</time>
      </trkpt>
      <trkpt lat="44.68649" lon="3.82635">
        <ele>1059.03</ele>
        <time>2022-08-03T14:10:02Z</time>
      </trkpt>
      <trkpt lat="44.68632" lon="3.82634">
        <ele>1059.51</ele>
        <time>2022-08-03T14:10:16Z</time>
      </trkpt>
      <trkpt lat="44.68615" lon="3.82633">
        <ele>1059.51</ele>
        <time>2022-08-03T14:10:30Z</time>
      </trkpt>
      <trkpt lat="44.68595" lon="3.82628">
        <ele>1059.51</ele>
        <time>2022-08-03T14:10:46Z</time>
      </trkpt>
      <trkpt lat="44.68575" lon="3.82626">
        <ele>1058.55</ele>
        <time>2022-08-03T14:11:03Z</time>
      </trkpt>
      <trkpt lat="44.68557" lon="3.82623">
        <ele>1058.55</ele>
        <time>2022-08-03T14:11:17Z</time>
      </trkpt>
      <trkpt lat="44.68542" lon="3.82616">
        <ele>1060.47</ele>
        <time>2022-08-03T14:11:31Z</time>
      </trkpt>
      <trkpt lat="44.68533" lon="3.82596">
        <ele>1061.91</ele>
        <time>2022-08-03T14:11:46Z</time>
      </trkpt>
      <trkpt lat="44.68527" lon="3.82574">
        <ele>1064.32</ele>
        <time>2022-08-03T14:12:01Z</time>
      </trkpt>
      <trkpt lat="44.68529" lon="3.82555">
        <ele>1069.6</ele>
        <time>2022-08-03T14:12:16Z</time>
      </trkpt>
      <trkpt lat="44.68522" lon="3.82533">
        <ele>1072.01</ele>
        <time>2022-08-03T14:12:31Z</time>
      </trkpt>
      <trkpt lat="44.68507" lon="3.82515">
        <ele>1074.41</ele>
        <time>2022-08-03T14:12:48Z</time>
      </trkpt>
      <trkpt lat="44.6849" lon="3.82504">
        <ele>1074.89</ele>
        <time>2022-08-03T14:13:04Z</time>
      </trkpt>
      <trkpt lat="44.68471" lon="3.82496">
        <ele>1074.89</ele>
        <time>2022-08-03T14:13:20Z</time>
      </trkpt>
      <trkpt lat="44.6846" lon="3.82492">
        <ele>1074.89</ele>
        <time>2022-08-03T14:13:29Z</time>
      </trkpt>
      <trkpt lat="44.68451" lon="3.82479">
        <ele>1076.33</ele>
        <time>2022-08-03T14:13:40Z</time>
      </trkpt>
      <trkpt lat="44.68448" lon="3.82478">
        <ele>1076.33</ele>
        <time>2022-08-03T14:13:42Z</time>
      </trkpt>
      <trkpt lat="44.68445" lon="3.82469">
        <ele>1076.33</ele>
        <time>2022-08-03T14:13:49Z</time>
      </trkpt>
      <trkpt lat="44.68435" lon="3.82454">
        <ele>1080.18</ele>
        <time>2022-08-03T14:14:07Z</time>
      </trkpt>
      <trkpt lat="44.68424" lon="3.82435">
        <ele>1084.02</ele>
        <time>2022-08-03T14:14:24Z</time>
      </trkpt>
      <trkpt lat="44.68414" lon="3.82418">
        <ele>1086.43</ele>
        <time>2022-08-03T14:14:42Z</time>
      </trkpt>
      <trkpt lat="44.68404" lon="3.82404">
        <ele>1090.75</ele>
        <time>2022-08-03T14:14:59Z</time>
      </trkpt>
      <trkpt lat="44.68389" lon="3.82383">
        <ele>1093.16</ele>
        <time>2022-08-03T14:15:19Z</time>
      </trkpt>
      <trkpt lat="44.68381" lon="3.82363">
        <ele>1096.52</ele>
        <time>2022-08-03T14:15:37Z</time>
      </trkpt>
      <trkpt lat="44.68374" lon="3.82348">
        <ele>1098.92</ele>
        <time>2022-08-03T14:15:56Z</time>
      </trkpt>
      <trkpt lat="44.68367" lon="3.82327">
        <ele>1097.48</ele>
        <time>2022-08-03T14:16:12Z</time>
      </trkpt>
      <trkpt lat="44.68367" lon="3.82309">
        <ele>1099.4</ele>
        <time>2022-08-03T14:16:30Z</time>
      </trkpt>
      <trkpt lat="44.68367" lon="3.82302">
        <ele>1098.92</ele>
        <time>2022-08-03T14:16:34Z</time>
      </trkpt>
      <trkpt lat="44.68367" lon="3.82281">
        <ele>1101.33</ele>
        <time>2022-08-03T14:16:48Z</time>
      </trkpt>
      <trkpt lat="44.68369" lon="3.82266">
        <ele>1100.85</ele>
        <time>2022-08-03T14:17:05Z</time>
      </trkpt>
      <trkpt lat="44.68363" lon="3.82244">
        <ele>1101.81</ele>
        <time>2022-08-03T14:17:21Z</time>
      </trkpt>
      <trkpt lat="44.68352" lon="3.82228">
        <ele>1105.17</ele>
        <time>2022-08-03T14:17:36Z</time>
      </trkpt>
      <trkpt lat="44.68331" lon="3.82217">
        <ele>1105.65</ele>
        <time>2022-08-03T14:17:52Z</time>
      </trkpt>
      <trkpt lat="44.68319" lon="3.82212">
        <ele>1111.42</ele>
        <time>2022-08-03T14:18:07Z</time>
      </trkpt>
      <trkpt lat="44.6831" lon="3.82205">
        <ele>1115.27</ele>
        <time>2022-08-03T14:18:21Z</time>
      </trkpt>
      <trkpt lat="44.68299" lon="3.82199">
        <ele>1119.11</ele>
        <time>2022-08-03T14:18:36Z</time>
      </trkpt>
      <trkpt lat="44.68281" lon="3.82189">
        <ele>1122</ele>
        <time>2022-08-03T14:18:52Z</time>
      </trkpt>
      <trkpt lat="44.68266" lon="3.82181">
        <ele>1122</ele>
        <time>2022-08-03T14:19:06Z</time>
      </trkpt>
      <trkpt lat="44.68253" lon="3.82174">
        <ele>1125.84</ele>
        <time>2022-08-03T14:19:21Z</time>
      </trkpt>
      <trkpt lat="44.68245" lon="3.82171">
        <ele>1126.32</ele>
        <time>2022-08-03T14:19:27Z</time>
      </trkpt>
      <trkpt lat="44.68228" lon="3.8216">
        <ele>1125.84</ele>
        <time>2022-08-03T14:19:42Z</time>
      </trkpt>
      <trkpt lat="44.6822" lon="3.82151">
        <ele>1124.4</ele>
        <time>2022-08-03T14:19:58Z</time>
      </trkpt>
      <trkpt lat="44.68218" lon="3.82149">
        <ele>1124.88</ele>
        <time>2022-08-03T14:20:02Z</time>
      </trkpt>
      <trkpt lat="44.68212" lon="3.82134">
        <ele>1126.32</ele>
        <time>2022-08-03T14:20:19Z</time>
      </trkpt>
      <trkpt lat="44.68213" lon="3.82121">
        <ele>1129.69</ele>
        <time>2022-08-03T14:20:34Z</time>
      </trkpt>
      <trkpt lat="44.68213" lon="3.82115">
        <ele>1130.65</ele>
        <time>2022-08-03T14:20:39Z</time>
      </trkpt>
      <trkpt lat="44.6821" lon="3.82093">
        <ele>1132.57</ele>
        <time>2022-08-03T14:20:54Z</time>
      </trkpt>
      <trkpt lat="44.68206" lon="3.82071">
        <ele>1133.53</ele>
        <time>2022-08-03T14:21:11Z</time>
      </trkpt>
      <trkpt lat="44.68205" lon="3.82049">
        <ele>1134.49</ele>
        <time>2022-08-03T14:21:25Z</time>
      </trkpt>
      <trkpt lat="44.68205" lon="3.82024">
        <ele>1137.38</ele>
        <time>2022-08-03T14:21:42Z</time>
      </trkpt>
      <trkpt lat="44.68203" lon="3.82">
        <ele>1138.34</ele>
        <time>2022-08-03T14:21:57Z</time>
      </trkpt>
      <trkpt lat="44.68206" lon="3.81976">
        <ele>1138.82</ele>
        <time>2022-08-03T14:22:13Z</time>
      </trkpt>
      <trkpt lat="44.68205" lon="3.81949">
        <ele>1138.82</ele>
        <time>2022-08-03T14:22:29Z</time>
      </trkpt>
      <trkpt lat="44.68203" lon="3.81926">
        <ele>1139.3</ele>
        <time>2022-08-03T14:22:44Z</time>
      </trkpt>
      <trkpt lat="44.68208" lon="3.81904">
        <ele>1138.82</ele>
        <time>2022-08-03T14:23:01Z</time>
      </trkpt>
      <trkpt lat="44.68215" lon="3.8188">
        <ele>1139.78</ele>
        <time>2022-08-03T14:23:17Z</time>
      </trkpt>
      <trkpt lat="44.68211" lon="3.81864">
        <ele>1138.34</ele>
        <time>2022-08-03T14:23:31Z</time>
      </trkpt>
      <trkpt lat="44.68207" lon="3.81865">
        <ele>1137.86</ele>
        <time>2022-08-03T14:23:34Z</time>
      </trkpt>
      <trkpt lat="44.68185" lon="3.81862">
        <ele>1137.86</ele>
        <time>2022-08-03T14:23:50Z</time>
      </trkpt>
      <trkpt lat="44.6817" lon="3.81861">
        <ele>1137.86</ele>
        <time>2022-08-03T14:24:03Z</time>
      </trkpt>
      <trkpt lat="44.68162" lon="3.81864">
        <ele>1139.3</ele>
        <time>2022-08-03T14:24:16Z</time>
      </trkpt>
      <trkpt lat="44.68164" lon="3.81864">
        <ele>1138.34</ele>
        <time>2022-08-03T14:24:33Z</time>
      </trkpt>
      <trkpt lat="44.68166" lon="3.81849">
        <ele>1138.34</ele>
        <time>2022-08-03T14:24:48Z</time>
      </trkpt>
      <trkpt lat="44.68164" lon="3.81824">
        <ele>1143.63</ele>
        <time>2022-08-03T14:25:06Z</time>
      </trkpt>
      <trkpt lat="44.68158" lon="3.81817">
        <ele>1146.51</ele>
        <time>2022-08-03T14:25:26Z</time>
      </trkpt>
      <trkpt lat="44.6815" lon="3.81832">
        <ele>1146.51</ele>
        <time>2022-08-03T14:25:46Z</time>
      </trkpt>
      <trkpt lat="44.68149" lon="3.81826">
        <ele>1146.51</ele>
        <time>2022-08-03T14:26:07Z</time>
      </trkpt>
      <trkpt lat="44.68153" lon="3.81815">
        <ele>1150.84</ele>
        <time>2022-08-03T14:26:43Z</time>
      </trkpt>
      <trkpt lat="44.6816" lon="3.81819">
        <ele>1147.95</ele>
        <time>2022-08-03T14:27:03Z</time>
      </trkpt>
      <trkpt lat="44.68157" lon="3.81821">
        <ele>1147.47</ele>
        <time>2022-08-03T14:27:35Z</time>
      </trkpt>
      <trkpt lat="44.68164" lon="3.81823">
        <ele>1152.28</ele>
        <time>2022-08-03T14:28:04Z</time>
      </trkpt>
      <trkpt lat="44.68157" lon="3.8182">
        <ele>1153.72</ele>
        <time>2022-08-03T14:28:30Z</time>
      </trkpt>
      <trkpt lat="44.6814" lon="3.8181">
        <ele>1154.2</ele>
        <time>2022-08-03T14:28:42Z</time>
      </trkpt>
      <trkpt lat="44.68129" lon="3.81803">
        <ele>1154.2</ele>
        <time>2022-08-03T14:28:56Z</time>
      </trkpt>
      <trkpt lat="44.68123" lon="3.81793">
        <ele>1155.64</ele>
        <time>2022-08-03T14:29:09Z</time>
      </trkpt>
      <trkpt lat="44.68113" lon="3.81778">
        <ele>1159.01</ele>
        <time>2022-08-03T14:29:27Z</time>
      </trkpt>
      <trkpt lat="44.68099" lon="3.81765">
        <ele>1161.41</ele>
        <time>2022-08-03T14:29:43Z</time>
      </trkpt>
      <trkpt lat="44.68096" lon="3.81759">
        <ele>1161.89</ele>
        <time>2022-08-03T14:29:48Z</time>
      </trkpt>
      <trkpt lat="44.68088" lon="3.81749">
        <ele>1159.01</ele>
        <time>2022-08-03T14:29:58Z</time>
      </trkpt>
      <trkpt lat="44.68083" lon="3.81734">
        <ele>1156.12</ele>
        <time>2022-08-03T14:30:12Z</time>
      </trkpt>
      <trkpt lat="44.6808" lon="3.81711">
        <ele>1154.68</ele>
        <time>2022-08-03T14:30:27Z</time>
      </trkpt>
      <trkpt lat="44.68076" lon="3.81687">
        <ele>1154.68</ele>
        <time>2022-08-03T14:30:41Z</time>
      </trkpt>
      <trkpt lat="44.68072" lon="3.81667">
        <ele>1155.64</ele>
        <time>2022-08-03T14:30:58Z</time>
      </trkpt>
      <trkpt lat="44.68066" lon="3.81647">
        <ele>1157.08</ele>
        <time>2022-08-03T14:31:11Z</time>
      </trkpt>
      <trkpt lat="44.68058" lon="3.81637">
        <ele>1157.56</ele>
        <time>2022-08-03T14:31:14Z</time>
      </trkpt>
      <trkpt lat="44.68051" lon="3.81617">
        <ele>1155.16</ele>
        <time>2022-08-03T14:31:27Z</time>
      </trkpt>
      <trkpt lat="44.6805" lon="3.81613">
        <ele>1154.68</ele>
        <time>2022-08-03T14:31:30Z</time>
      </trkpt>
      <trkpt lat="44.68046" lon="3.81592">
        <ele>1153.72</ele>
        <time>2022-08-03T14:31:42Z</time>
      </trkpt>
      <trkpt lat="44.68035" lon="3.81567">
        <ele>1148.91</ele>
        <time>2022-08-03T14:31:58Z</time>
      </trkpt>
      <trkpt lat="44.68028" lon="3.81548">
        <ele>1148.43</ele>
        <time>2022-08-03T14:32:12Z</time>
      </trkpt>
      <trkpt lat="44.68024" lon="3.81526">
        <ele>1148.43</ele>
        <time>2022-08-03T14:32:25Z</time>
      </trkpt>
      <trkpt lat="44.68024" lon="3.81522">
        <ele>1148.43</ele>
        <time>2022-08-03T14:32:27Z</time>
      </trkpt>
      <trkpt lat="44.68025" lon="3.81514">
        <ele>1149.39</ele>
        <time>2022-08-03T14:32:31Z</time>
      </trkpt>
      <trkpt lat="44.68024" lon="3.81485">
        <ele>1152.76</ele>
        <time>2022-08-03T14:32:47Z</time>
      </trkpt>
      <trkpt lat="44.68021" lon="3.81458">
        <ele>1150.84</ele>
        <time>2022-08-03T14:33:03Z</time>
      </trkpt>
      <trkpt lat="44.68021" lon="3.81433">
        <ele>1141.7</ele>
        <time>2022-08-03T14:33:20Z</time>
      </trkpt>
      <trkpt lat="44.68021" lon="3.81431">
        <ele>1141.7</ele>
        <time>2022-08-03T14:33:21Z</time>
      </trkpt>
      <trkpt lat="44.68021" lon="3.81398">
        <ele>1139.78</ele>
        <time>2022-08-03T14:33:42Z</time>
      </trkpt>
      <trkpt lat="44.68023" lon="3.81371">
        <ele>1140.26</ele>
        <time>2022-08-03T14:33:58Z</time>
      </trkpt>
      <trkpt lat="44.68017" lon="3.81343">
        <ele>1140.26</ele>
        <time>2022-08-03T14:34:15Z</time>
      </trkpt>
      <trkpt lat="44.68016" lon="3.8134">
        <ele>1140.26</ele>
        <time>2022-08-03T14:34:17Z</time>
      </trkpt>
      <trkpt lat="44.68012" lon="3.81322">
        <ele>1140.26</ele>
        <time>2022-08-03T14:34:32Z</time>
      </trkpt>
      <trkpt lat="44.68009" lon="3.81306">
        <ele>1142.66</ele>
        <time>2022-08-03T14:34:43Z</time>
      </trkpt>
      <trkpt lat="44.68008" lon="3.81303">
        <ele>1142.66</ele>
        <time>2022-08-03T14:34:45Z</time>
      </trkpt>
      <trkpt lat="44.68007" lon="3.81301">
        <ele>1143.14</ele>
        <time>2022-08-03T14:34:47Z</time>
      </trkpt>
      <trkpt lat="44.68004" lon="3.81294">
        <ele>1144.11</ele>
        <time>2022-08-03T14:34:51Z</time>
      </trkpt>
      <trkpt lat="44.68004" lon="3.8129">
        <ele>1144.11</ele>
        <time>2022-08-03T14:34:53Z</time>
      </trkpt>
      <trkpt lat="44.67997" lon="3.81274">
        <ele>1142.66</ele>
        <time>2022-08-03T14:35:08Z</time>
      </trkpt>
      <trkpt lat="44.67995" lon="3.81261">
        <ele>1141.7</ele>
        <time>2022-08-03T14:35:17Z</time>
      </trkpt>
      <trkpt lat="44.67995" lon="3.81248">
        <ele>1141.7</ele>
        <time>2022-08-03T14:35:25Z</time>
      </trkpt>
      <trkpt lat="44.67994" lon="3.81241">
        <ele>1142.18</ele>
        <time>2022-08-03T14:35:28Z</time>
      </trkpt>
      <trkpt lat="44.67993" lon="3.81222">
        <ele>1144.59</ele>
        <time>2022-08-03T14:35:39Z</time>
      </trkpt>
      <trkpt lat="44.67993" lon="3.81219">
        <ele>1144.11</ele>
        <time>2022-08-03T14:35:41Z</time>
      </trkpt>
      <trkpt lat="44.6799" lon="3.812">
        <ele>1142.18</ele>
        <time>2022-08-03T14:35:55Z</time>
      </trkpt>
      <trkpt lat="44.67981" lon="3.81174">
        <ele>1141.7</ele>
        <time>2022-08-03T14:36:10Z</time>
      </trkpt>
      <trkpt lat="44.67974" lon="3.81145">
        <ele>1143.63</ele>
        <time>2022-08-03T14:36:24Z</time>
      </trkpt>
      <trkpt lat="44.67966" lon="3.81127">
        <ele>1141.22</ele>
        <time>2022-08-03T14:36:37Z</time>
      </trkpt>
      <trkpt lat="44.67951" lon="3.81105">
        <ele>1135.45</ele>
        <time>2022-08-03T14:36:52Z</time>
      </trkpt>
      <trkpt lat="44.67944" lon="3.81093">
        <ele>1132.09</ele>
        <time>2022-08-03T14:37:02Z</time>
      </trkpt>
      <trkpt lat="44.67941" lon="3.81071">
        <ele>1131.61</ele>
        <time>2022-08-03T14:37:17Z</time>
      </trkpt>
      <trkpt lat="44.67942" lon="3.81065">
        <ele>1135.94</ele>
        <time>2022-08-03T14:37:31Z</time>
      </trkpt>
      <trkpt lat="44.67941" lon="3.81064">
        <ele>1136.9</ele>
        <time>2022-08-03T14:37:47Z</time>
      </trkpt>
      <trkpt lat="44.67934" lon="3.81056">
        <ele>1134.97</ele>
        <time>2022-08-03T14:38:06Z</time>
      </trkpt>
      <trkpt lat="44.67933" lon="3.8105">
        <ele>1133.05</ele>
        <time>2022-08-03T14:38:12Z</time>
      </trkpt>
      <trkpt lat="44.67931" lon="3.81043">
        <ele>1132.57</ele>
        <time>2022-08-03T14:38:17Z</time>
      </trkpt>
      <trkpt lat="44.67928" lon="3.81031">
        <ele>1133.05</ele>
        <time>2022-08-03T14:38:24Z</time>
      </trkpt>
      <trkpt lat="44.67929" lon="3.81009">
        <ele>1140.74</ele>
        <time>2022-08-03T14:38:37Z</time>
      </trkpt>
      <trkpt lat="44.67943" lon="3.80993">
        <ele>1138.34</ele>
        <time>2022-08-03T14:38:54Z</time>
      </trkpt>
      <trkpt lat="44.67957" lon="3.80986">
        <ele>1142.66</ele>
        <time>2022-08-03T14:39:08Z</time>
      </trkpt>
      <trkpt lat="44.67966" lon="3.80967">
        <ele>1144.59</ele>
        <time>2022-08-03T14:39:23Z</time>
      </trkpt>
      <trkpt lat="44.6798" lon="3.80941">
        <ele>1147.95</ele>
        <time>2022-08-03T14:39:37Z</time>
      </trkpt>
      <trkpt lat="44.67978" lon="3.80932">
        <ele>1148.43</ele>
        <time>2022-08-03T14:39:43Z</time>
      </trkpt>
      <trkpt lat="44.67975" lon="3.80929">
        <ele>1148.43</ele>
        <time>2022-08-03T14:39:45Z</time>
      </trkpt>
      <trkpt lat="44.67957" lon="3.80907">
        <ele>1146.51</ele>
        <time>2022-08-03T14:40:02Z</time>
      </trkpt>
      <trkpt lat="44.6794" lon="3.80887">
        <ele>1143.14</ele>
        <time>2022-08-03T14:40:19Z</time>
      </trkpt>
      <trkpt lat="44.67926" lon="3.80872">
        <ele>1139.78</ele>
        <time>2022-08-03T14:40:33Z</time>
      </trkpt>
      <trkpt lat="44.6791" lon="3.80854">
        <ele>1139.78</ele>
        <time>2022-08-03T14:40:50Z</time>
      </trkpt>
      <trkpt lat="44.67895" lon="3.80841">
        <ele>1141.7</ele>
        <time>2022-08-03T14:41:05Z</time>
      </trkpt>
      <trkpt lat="44.67892" lon="3.80838">
        <ele>1142.18</ele>
        <time>2022-08-03T14:41:09Z</time>
      </trkpt>
      <trkpt lat="44.67887" lon="3.8083">
        <ele>1142.66</ele>
        <time>2022-08-03T14:41:16Z</time>
      </trkpt>
      <trkpt lat="44.6787" lon="3.80817">
        <ele>1143.14</ele>
        <time>2022-08-03T14:41:32Z</time>
      </trkpt>
      <trkpt lat="44.67854" lon="3.80796">
        <ele>1143.14</ele>
        <time>2022-08-03T14:41:52Z</time>
      </trkpt>
      <trkpt lat="44.67845" lon="3.80776">
        <ele>1143.14</ele>
        <time>2022-08-03T14:42:07Z</time>
      </trkpt>
      <trkpt lat="44.67837" lon="3.80754">
        <ele>1144.11</ele>
        <time>2022-08-03T14:42:23Z</time>
      </trkpt>
      <trkpt lat="44.6783" lon="3.80735">
        <ele>1145.07</ele>
        <time>2022-08-03T14:42:38Z</time>
      </trkpt>
      <trkpt lat="44.67822" lon="3.80712">
        <ele>1149.87</ele>
        <time>2022-08-03T14:42:55Z</time>
      </trkpt>
      <trkpt lat="44.6782" lon="3.80693">
        <ele>1152.28</ele>
        <time>2022-08-03T14:43:08Z</time>
      </trkpt>
      <trkpt lat="44.67817" lon="3.8067">
        <ele>1155.16</ele>
        <time>2022-08-03T14:43:24Z</time>
      </trkpt>
      <trkpt lat="44.67818" lon="3.80646">
        <ele>1158.05</ele>
        <time>2022-08-03T14:43:39Z</time>
      </trkpt>
      <trkpt lat="44.67815" lon="3.80618">
        <ele>1161.41</ele>
        <time>2022-08-03T14:43:56Z</time>
      </trkpt>
      <trkpt lat="44.67809" lon="3.80596">
        <ele>1162.37</ele>
        <time>2022-08-03T14:44:10Z</time>
      </trkpt>
      <trkpt lat="44.678" lon="3.80573">
        <ele>1160.93</ele>
        <time>2022-08-03T14:44:25Z</time>
      </trkpt>
      <trkpt lat="44.67791" lon="3.8055">
        <ele>1160.45</ele>
        <time>2022-08-03T14:44:40Z</time>
      </trkpt>
      <trkpt lat="44.67787" lon="3.8054">
        <ele>1159.97</ele>
        <time>2022-08-03T14:44:47Z</time>
      </trkpt>
      <trkpt lat="44.67779" lon="3.80518">
        <ele>1157.56</ele>
        <time>2022-08-03T14:45:03Z</time>
      </trkpt>
      <trkpt lat="44.67766" lon="3.80497">
        <ele>1156.12</ele>
        <time>2022-08-03T14:45:19Z</time>
      </trkpt>
      <trkpt lat="44.67752" lon="3.8048">
        <ele>1154.2</ele>
        <time>2022-08-03T14:45:35Z</time>
      </trkpt>
      <trkpt lat="44.67742" lon="3.80465">
        <ele>1155.16</ele>
        <time>2022-08-03T14:45:49Z</time>
      </trkpt>
      <trkpt lat="44.67727" lon="3.8045">
        <ele>1156.12</ele>
        <time>2022-08-03T14:46:04Z</time>
      </trkpt>
      <trkpt lat="44.6771" lon="3.80441">
        <ele>1156.12</ele>
        <time>2022-08-03T14:46:18Z</time>
      </trkpt>
      <trkpt lat="44.67694" lon="3.80433">
        <ele>1156.6</ele>
        <time>2022-08-03T14:46:32Z</time>
      </trkpt>
      <trkpt lat="44.67676" lon="3.80423">
        <ele>1157.08</ele>
        <time>2022-08-03T14:46:48Z</time>
      </trkpt>
      <trkpt lat="44.67673" lon="3.80414">
        <ele>1157.56</ele>
        <time>2022-08-03T14:47:00Z</time>
      </trkpt>
      <trkpt lat="44.67673" lon="3.80398">
        <ele>1161.41</ele>
        <time>2022-08-03T14:47:13Z</time>
      </trkpt>
      <trkpt lat="44.67657" lon="3.8038">
        <ele>1163.81</ele>
        <time>2022-08-03T14:47:30Z</time>
      </trkpt>
      <trkpt lat="44.67644" lon="3.80366">
        <ele>1163.81</ele>
        <time>2022-08-03T14:47:44Z</time>
      </trkpt>
      <trkpt lat="44.67632" lon="3.8035">
        <ele>1163.81</ele>
        <time>2022-08-03T14:47:58Z</time>
      </trkpt>
      <trkpt lat="44.67621" lon="3.8033">
        <ele>1164.29</ele>
        <time>2022-08-03T14:48:15Z</time>
      </trkpt>
      <trkpt lat="44.67609" lon="3.80306">
        <ele>1165.74</ele>
        <time>2022-08-03T14:48:33Z</time>
      </trkpt>
      <trkpt lat="44.67599" lon="3.80288">
        <ele>1166.22</ele>
        <time>2022-08-03T14:48:47Z</time>
      </trkpt>
      <trkpt lat="44.67595" lon="3.8028">
        <ele>1166.22</ele>
        <time>2022-08-03T14:48:53Z</time>
      </trkpt>
      <trkpt lat="44.67586" lon="3.80255">
        <ele>1165.26</ele>
        <time>2022-08-03T14:49:09Z</time>
      </trkpt>
      <trkpt lat="44.67584" lon="3.80251">
        <ele>1165.26</ele>
        <time>2022-08-03T14:49:12Z</time>
      </trkpt>
      <trkpt lat="44.67577" lon="3.80228">
        <ele>1166.22</ele>
        <time>2022-08-03T14:49:27Z</time>
      </trkpt>
      <trkpt lat="44.67571" lon="3.80206">
        <ele>1167.66</ele>
        <time>2022-08-03T14:49:43Z</time>
      </trkpt>
      <trkpt lat="44.67572" lon="3.80203">
        <ele>1171.5</ele>
        <time>2022-08-03T14:50:00Z</time>
      </trkpt>
      <trkpt lat="44.67572" lon="3.80202">
        <ele>1173.43</ele>
        <time>2022-08-03T14:50:28Z</time>
      </trkpt>
      <trkpt lat="44.67571" lon="3.80199">
        <ele>1173.43</ele>
        <time>2022-08-03T14:50:44Z</time>
      </trkpt>
      <trkpt lat="44.67565" lon="3.80196">
        <ele>1173.91</ele>
        <time>2022-08-03T14:51:13Z</time>
      </trkpt>
      <trkpt lat="44.67563" lon="3.80194">
        <ele>1172.47</ele>
        <time>2022-08-03T14:51:34Z</time>
      </trkpt>
      <trkpt lat="44.67553" lon="3.80182">
        <ele>1170.54</ele>
        <time>2022-08-03T14:51:49Z</time>
      </trkpt>
      <trkpt lat="44.67537" lon="3.80156">
        <ele>1170.06</ele>
        <time>2022-08-03T14:52:07Z</time>
      </trkpt>
      <trkpt lat="44.67521" lon="3.80139">
        <ele>1171.98</ele>
        <time>2022-08-03T14:52:23Z</time>
      </trkpt>
      <trkpt lat="44.67515" lon="3.80132">
        <ele>1173.43</ele>
        <time>2022-08-03T14:52:29Z</time>
      </trkpt>
      <trkpt lat="44.675" lon="3.80118">
        <ele>1174.39</ele>
        <time>2022-08-03T14:52:45Z</time>
      </trkpt>
      <trkpt lat="44.67486" lon="3.80098">
        <ele>1175.83</ele>
        <time>2022-08-03T14:53:03Z</time>
      </trkpt>
      <trkpt lat="44.67482" lon="3.80086">
        <ele>1178.23</ele>
        <time>2022-08-03T14:53:12Z</time>
      </trkpt>
      <trkpt lat="44.67479" lon="3.80073">
        <ele>1179.67</ele>
        <time>2022-08-03T14:53:21Z</time>
      </trkpt>
      <trkpt lat="44.67474" lon="3.80049">
        <ele>1180.16</ele>
        <time>2022-08-03T14:53:36Z</time>
      </trkpt>
      <trkpt lat="44.67471" lon="3.80042">
        <ele>1179.67</ele>
        <time>2022-08-03T14:53:40Z</time>
      </trkpt>
      <trkpt lat="44.67464" lon="3.80022">
        <ele>1178.71</ele>
        <time>2022-08-03T14:53:54Z</time>
      </trkpt>
      <trkpt lat="44.6746" lon="3.80017">
        <ele>1178.23</ele>
        <time>2022-08-03T14:53:58Z</time>
      </trkpt>
      <trkpt lat="44.67443" lon="3.79994">
        <ele>1176.31</ele>
        <time>2022-08-03T14:54:15Z</time>
      </trkpt>
      <trkpt lat="44.67443" lon="3.79997">
        <ele>1178.71</ele>
        <time>2022-08-03T14:54:25Z</time>
      </trkpt>
      <trkpt lat="44.67444" lon="3.80001">
        <ele>1179.67</ele>
        <time>2022-08-03T14:54:41Z</time>
      </trkpt>
      <trkpt lat="44.67447" lon="3.80001">
        <ele>1179.67</ele>
        <time>2022-08-03T14:55:07Z</time>
      </trkpt>
      <trkpt lat="44.67447" lon="3.79999">
        <ele>1179.67</ele>
        <time>2022-08-03T14:55:37Z</time>
      </trkpt>
      <trkpt lat="44.6744" lon="3.7999">
        <ele>1178.23</ele>
        <time>2022-08-03T14:55:47Z</time>
      </trkpt>
      <trkpt lat="44.67438" lon="3.79987">
        <ele>1176.79</ele>
        <time>2022-08-03T14:55:59Z</time>
      </trkpt>
      <trkpt lat="44.67438" lon="3.79988">
        <ele>1179.19</ele>
        <time>2022-08-03T14:56:34Z</time>
      </trkpt>
      <trkpt lat="44.67429" lon="3.79972">
        <ele>1177.27</ele>
        <time>2022-08-03T14:56:48Z</time>
      </trkpt>
      <trkpt lat="44.67413" lon="3.7995">
        <ele>1175.35</ele>
        <time>2022-08-03T14:57:04Z</time>
      </trkpt>
      <trkpt lat="44.67407" lon="3.79946">
        <ele>1175.83</ele>
        <time>2022-08-03T14:57:09Z</time>
      </trkpt>
      <trkpt lat="44.67391" lon="3.79937">
        <ele>1177.75</ele>
        <time>2022-08-03T14:57:23Z</time>
      </trkpt>
      <trkpt lat="44.67383" lon="3.79934">
        <ele>1178.23</ele>
        <time>2022-08-03T14:57:32Z</time>
      </trkpt>
      <trkpt lat="44.67368" lon="3.79923">
        <ele>1178.23</ele>
        <time>2022-08-03T14:57:45Z</time>
      </trkpt>
      <trkpt lat="44.67361" lon="3.79921">
        <ele>1178.23</ele>
        <time>2022-08-03T14:57:52Z</time>
      </trkpt>
      <trkpt lat="44.67352" lon="3.79925">
        <ele>1175.35</ele>
        <time>2022-08-03T14:58:07Z</time>
      </trkpt>
      <trkpt lat="44.6735" lon="3.79925">
        <ele>1174.87</ele>
        <time>2022-08-03T14:58:14Z</time>
      </trkpt>
      <trkpt lat="44.67342" lon="3.79918">
        <ele>1173.91</ele>
        <time>2022-08-03T14:58:22Z</time>
      </trkpt>
      <trkpt lat="44.67337" lon="3.79916">
        <ele>1173.43</ele>
        <time>2022-08-03T14:58:26Z</time>
      </trkpt>
      <trkpt lat="44.67321" lon="3.79905">
        <ele>1172.95</ele>
        <time>2022-08-03T14:58:40Z</time>
      </trkpt>
      <trkpt lat="44.67311" lon="3.79902">
        <ele>1171.5</ele>
        <time>2022-08-03T14:58:50Z</time>
      </trkpt>
      <trkpt lat="44.67305" lon="3.79899">
        <ele>1171.5</ele>
        <time>2022-08-03T14:58:55Z</time>
      </trkpt>
      <trkpt lat="44.67303" lon="3.79898">
        <ele>1171.5</ele>
        <time>2022-08-03T14:58:57Z</time>
      </trkpt>
      <trkpt lat="44.67292" lon="3.79893">
        <ele>1171.5</ele>
        <time>2022-08-03T14:59:06Z</time>
      </trkpt>
      <trkpt lat="44.67275" lon="3.79885">
        <ele>1171.98</ele>
        <time>2022-08-03T14:59:21Z</time>
      </trkpt>
      <trkpt lat="44.67272" lon="3.79884">
        <ele>1172.47</ele>
        <time>2022-08-03T14:59:24Z</time>
      </trkpt>
      <trkpt lat="44.67255" lon="3.79873">
        <ele>1171.02</ele>
        <time>2022-08-03T14:59:40Z</time>
      </trkpt>
      <trkpt lat="44.67248" lon="3.79869">
        <ele>1171.02</ele>
        <time>2022-08-03T14:59:46Z</time>
      </trkpt>
      <trkpt lat="44.67241" lon="3.79866">
        <ele>1171.5</ele>
        <time>2022-08-03T14:59:52Z</time>
      </trkpt>
      <trkpt lat="44.67237" lon="3.79865">
        <ele>1172.47</ele>
        <time>2022-08-03T14:59:56Z</time>
      </trkpt>
      <trkpt lat="44.67217" lon="3.79852">
        <ele>1179.67</ele>
        <time>2022-08-03T15:00:11Z</time>
      </trkpt>
      <trkpt lat="44.67215" lon="3.7985">
        <ele>1180.64</ele>
        <time>2022-08-03T15:00:13Z</time>
      </trkpt>
      <trkpt lat="44.67209" lon="3.79847">
        <ele>1183.04</ele>
        <time>2022-08-03T15:00:18Z</time>
      </trkpt>
      <trkpt lat="44.67205" lon="3.79847">
        <ele>1183.52</ele>
        <time>2022-08-03T15:00:22Z</time>
      </trkpt>
      <trkpt lat="44.67189" lon="3.79834">
        <ele>1184.48</ele>
        <time>2022-08-03T15:00:36Z</time>
      </trkpt>
      <trkpt lat="44.67187" lon="3.79831">
        <ele>1184.48</ele>
        <time>2022-08-03T15:00:38Z</time>
      </trkpt>
      <trkpt lat="44.67183" lon="3.79828">
        <ele>1184.96</ele>
        <time>2022-08-03T15:00:41Z</time>
      </trkpt>
      <trkpt lat="44.67169" lon="3.79823">
        <ele>1185.92</ele>
        <time>2022-08-03T15:00:53Z</time>
      </trkpt>
      <trkpt lat="44.67165" lon="3.79819">
        <ele>1186.88</ele>
        <time>2022-08-03T15:00:57Z</time>
      </trkpt>
      <trkpt lat="44.67163" lon="3.79817">
        <ele>1187.37</ele>
        <time>2022-08-03T15:00:59Z</time>
      </trkpt>
      <trkpt lat="44.67158" lon="3.79812">
        <ele>1188.81</ele>
        <time>2022-08-03T15:01:04Z</time>
      </trkpt>
      <trkpt lat="44.67144" lon="3.79799">
        <ele>1190.25</ele>
        <time>2022-08-03T15:01:17Z</time>
      </trkpt>
      <trkpt lat="44.6713" lon="3.79791">
        <ele>1188.33</ele>
        <time>2022-08-03T15:01:29Z</time>
      </trkpt>
      <trkpt lat="44.67119" lon="3.79781">
        <ele>1188.81</ele>
        <time>2022-08-03T15:01:41Z</time>
      </trkpt>
      <trkpt lat="44.67105" lon="3.79772">
        <ele>1193.13</ele>
        <time>2022-08-03T15:01:56Z</time>
      </trkpt>
      <trkpt lat="44.67089" lon="3.7976">
        <ele>1195.06</ele>
        <time>2022-08-03T15:02:11Z</time>
      </trkpt>
      <trkpt lat="44.67075" lon="3.79747">
        <ele>1195.54</ele>
        <time>2022-08-03T15:02:24Z</time>
      </trkpt>
      <trkpt lat="44.67061" lon="3.79731">
        <ele>1194.09</ele>
        <time>2022-08-03T15:02:39Z</time>
      </trkpt>
      <trkpt lat="44.67045" lon="3.79719">
        <ele>1193.61</ele>
        <time>2022-08-03T15:02:52Z</time>
      </trkpt>
      <trkpt lat="44.6703" lon="3.79706">
        <ele>1190.73</ele>
        <time>2022-08-03T15:03:06Z</time>
      </trkpt>
      <trkpt lat="44.67017" lon="3.79693">
        <ele>1187.37</ele>
        <time>2022-08-03T15:03:20Z</time>
      </trkpt>
      <trkpt lat="44.67001" lon="3.79675">
        <ele>1181.12</ele>
        <time>2022-08-03T15:03:35Z</time>
      </trkpt>
      <trkpt lat="44.66985" lon="3.79658">
        <ele>1177.75</ele>
        <time>2022-08-03T15:03:50Z</time>
      </trkpt>
      <trkpt lat="44.66967" lon="3.79636">
        <ele>1174.39</ele>
        <time>2022-08-03T15:04:09Z</time>
      </trkpt>
      <trkpt lat="44.66953" lon="3.79621">
        <ele>1172.47</ele>
        <time>2022-08-03T15:04:24Z</time>
      </trkpt>
      <trkpt lat="44.6694" lon="3.79604">
        <ele>1172.95</ele>
        <time>2022-08-03T15:04:40Z</time>
      </trkpt>
      <trkpt lat="44.66927" lon="3.79586">
        <ele>1172.47</ele>
        <time>2022-08-03T15:04:56Z</time>
      </trkpt>
      <trkpt lat="44.66916" lon="3.79568">
        <ele>1172.47</ele>
        <time>2022-08-03T15:05:11Z</time>
      </trkpt>
      <trkpt lat="44.66903" lon="3.79547">
        <ele>1173.43</ele>
        <time>2022-08-03T15:05:29Z</time>
      </trkpt>
      <trkpt lat="44.66889" lon="3.79524">
        <ele>1174.87</ele>
        <time>2022-08-03T15:05:47Z</time>
      </trkpt>
      <trkpt lat="44.66877" lon="3.79505">
        <ele>1174.87</ele>
        <time>2022-08-03T15:06:04Z</time>
      </trkpt>
      <trkpt lat="44.66875" lon="3.795">
        <ele>1175.35</ele>
        <time>2022-08-03T15:06:08Z</time>
      </trkpt>
      <trkpt lat="44.66863" lon="3.79482">
        <ele>1175.83</ele>
        <time>2022-08-03T15:06:24Z</time>
      </trkpt>
      <trkpt lat="44.66862" lon="3.79481">
        <ele>1175.35</ele>
        <time>2022-08-03T15:06:25Z</time>
      </trkpt>
      <trkpt lat="44.6686" lon="3.79478">
        <ele>1175.35</ele>
        <time>2022-08-03T15:06:27Z</time>
      </trkpt>
      <trkpt lat="44.66846" lon="3.79454">
        <ele>1177.27</ele>
        <time>2022-08-03T15:06:46Z</time>
      </trkpt>
      <trkpt lat="44.66835" lon="3.7944">
        <ele>1179.19</ele>
        <time>2022-08-03T15:07:04Z</time>
      </trkpt>
      <trkpt lat="44.66834" lon="3.7944">
        <ele>1178.23</ele>
        <time>2022-08-03T15:07:24Z</time>
      </trkpt>
      <trkpt lat="44.66834" lon="3.79439">
        <ele>1178.23</ele>
        <time>2022-08-03T15:07:25Z</time>
      </trkpt>
      <trkpt lat="44.66821" lon="3.79417">
        <ele>1179.19</ele>
        <time>2022-08-03T15:07:43Z</time>
      </trkpt>
      <trkpt lat="44.66814" lon="3.79402">
        <ele>1180.64</ele>
        <time>2022-08-03T15:07:56Z</time>
      </trkpt>
      <trkpt lat="44.66798" lon="3.79388">
        <ele>1183.04</ele>
        <time>2022-08-03T15:08:13Z</time>
      </trkpt>
      <trkpt lat="44.66795" lon="3.79386">
        <ele>1183.52</ele>
        <time>2022-08-03T15:08:16Z</time>
      </trkpt>
      <trkpt lat="44.66781" lon="3.79375">
        <ele>1186.4</ele>
        <time>2022-08-03T15:08:33Z</time>
      </trkpt>
      <trkpt lat="44.66768" lon="3.79364">
        <ele>1187.85</ele>
        <time>2022-08-03T15:08:49Z</time>
      </trkpt>
      <trkpt lat="44.66759" lon="3.79353">
        <ele>1190.73</ele>
        <time>2022-08-03T15:09:03Z</time>
      </trkpt>
      <trkpt lat="44.66747" lon="3.79341">
        <ele>1194.09</ele>
        <time>2022-08-03T15:09:21Z</time>
      </trkpt>
      <trkpt lat="44.66735" lon="3.79332">
        <ele>1197.46</ele>
        <time>2022-08-03T15:09:36Z</time>
      </trkpt>
      <trkpt lat="44.66719" lon="3.79322">
        <ele>1199.38</ele>
        <time>2022-08-03T15:09:52Z</time>
      </trkpt>
      <trkpt lat="44.66704" lon="3.79308">
        <ele>1200.82</ele>
        <time>2022-08-03T15:10:10Z</time>
      </trkpt>
      <trkpt lat="44.66689" lon="3.79292">
        <ele>1203.71</ele>
        <time>2022-08-03T15:10:30Z</time>
      </trkpt>
      <trkpt lat="44.66678" lon="3.79278">
        <ele>1206.59</ele>
        <time>2022-08-03T15:10:47Z</time>
      </trkpt>
      <trkpt lat="44.66669" lon="3.79265">
        <ele>1208.03</ele>
        <time>2022-08-03T15:11:01Z</time>
      </trkpt>
      <trkpt lat="44.6666" lon="3.79249">
        <ele>1208.51</ele>
        <time>2022-08-03T15:11:16Z</time>
      </trkpt>
      <trkpt lat="44.66659" lon="3.79247">
        <ele>1209</ele>
        <time>2022-08-03T15:11:18Z</time>
      </trkpt>
      <trkpt lat="44.6665" lon="3.79234">
        <ele>1211.4</ele>
        <time>2022-08-03T15:11:33Z</time>
      </trkpt>
      <trkpt lat="44.66638" lon="3.79218">
        <ele>1213.32</ele>
        <time>2022-08-03T15:11:49Z</time>
      </trkpt>
      <trkpt lat="44.66638" lon="3.79217">
        <ele>1213.8</ele>
        <time>2022-08-03T15:11:50Z</time>
      </trkpt>
      <trkpt lat="44.66633" lon="3.7921">
        <ele>1214.76</ele>
        <time>2022-08-03T15:11:56Z</time>
      </trkpt>
      <trkpt lat="44.6662" lon="3.79198">
        <ele>1216.21</ele>
        <time>2022-08-03T15:12:09Z</time>
      </trkpt>
      <trkpt lat="44.66619" lon="3.79195">
        <ele>1216.21</ele>
        <time>2022-08-03T15:12:11Z</time>
      </trkpt>
      <trkpt lat="44.66614" lon="3.7918">
        <ele>1216.69</ele>
        <time>2022-08-03T15:12:26Z</time>
      </trkpt>
      <trkpt lat="44.66607" lon="3.79168">
        <ele>1217.17</ele>
        <time>2022-08-03T15:12:37Z</time>
      </trkpt>
      <trkpt lat="44.66597" lon="3.79148">
        <ele>1216.69</ele>
        <time>2022-08-03T15:12:51Z</time>
      </trkpt>
      <trkpt lat="44.6659" lon="3.79125">
        <ele>1216.21</ele>
        <time>2022-08-03T15:13:05Z</time>
      </trkpt>
      <trkpt lat="44.6658" lon="3.791">
        <ele>1217.65</ele>
        <time>2022-08-03T15:13:22Z</time>
      </trkpt>
      <trkpt lat="44.66568" lon="3.7908">
        <ele>1218.61</ele>
        <time>2022-08-03T15:13:36Z</time>
      </trkpt>
      <trkpt lat="44.66553" lon="3.79063">
        <ele>1217.65</ele>
        <time>2022-08-03T15:13:53Z</time>
      </trkpt>
      <trkpt lat="44.66552" lon="3.79066">
        <ele>1217.17</ele>
        <time>2022-08-03T15:14:05Z</time>
      </trkpt>
      <trkpt lat="44.66551" lon="3.79065">
        <ele>1217.65</ele>
        <time>2022-08-03T15:14:27Z</time>
      </trkpt>
      <trkpt lat="44.66551" lon="3.79065">
        <ele>1218.61</ele>
        <time>2022-08-03T15:14:43Z</time>
      </trkpt>
      <trkpt lat="44.66538" lon="3.79047">
        <ele>1217.17</ele>
        <time>2022-08-03T15:14:59Z</time>
      </trkpt>
      <trkpt lat="44.66531" lon="3.7904">
        <ele>1217.17</ele>
        <time>2022-08-03T15:15:13Z</time>
      </trkpt>
      <trkpt lat="44.66531" lon="3.79039">
        <ele>1216.69</ele>
        <time>2022-08-03T15:15:23Z</time>
      </trkpt>
      <trkpt lat="44.66522" lon="3.7902">
        <ele>1216.21</ele>
        <time>2022-08-03T15:15:37Z</time>
      </trkpt>
      <trkpt lat="44.66518" lon="3.79018">
        <ele>1215.72</ele>
        <time>2022-08-03T15:15:54Z</time>
      </trkpt>
      <trkpt lat="44.66513" lon="3.79006">
        <ele>1215.72</ele>
        <time>2022-08-03T15:16:11Z</time>
      </trkpt>
      <trkpt lat="44.66503" lon="3.78981">
        <ele>1217.17</ele>
        <time>2022-08-03T15:16:27Z</time>
      </trkpt>
      <trkpt lat="44.66489" lon="3.78957">
        <ele>1218.13</ele>
        <time>2022-08-03T15:16:44Z</time>
      </trkpt>
      <trkpt lat="44.66474" lon="3.78935">
        <ele>1219.09</ele>
        <time>2022-08-03T15:17:02Z</time>
      </trkpt>
      <trkpt lat="44.66459" lon="3.78915">
        <ele>1220.05</ele>
        <time>2022-08-03T15:17:20Z</time>
      </trkpt>
      <trkpt lat="44.66445" lon="3.78901">
        <ele>1224.38</ele>
        <time>2022-08-03T15:17:36Z</time>
      </trkpt>
      <trkpt lat="44.66433" lon="3.78885">
        <ele>1230.14</ele>
        <time>2022-08-03T15:17:54Z</time>
      </trkpt>
      <trkpt lat="44.66412" lon="3.78863">
        <ele>1227.74</ele>
        <time>2022-08-03T15:18:09Z</time>
      </trkpt>
      <trkpt lat="44.66396" lon="3.78847">
        <ele>1225.82</ele>
        <time>2022-08-03T15:18:25Z</time>
      </trkpt>
      <trkpt lat="44.66379" lon="3.78836">
        <ele>1223.9</ele>
        <time>2022-08-03T15:18:39Z</time>
      </trkpt>
      <trkpt lat="44.66374" lon="3.78833">
        <ele>1222.93</ele>
        <time>2022-08-03T15:18:44Z</time>
      </trkpt>
      <trkpt lat="44.66359" lon="3.78817">
        <ele>1224.38</ele>
        <time>2022-08-03T15:18:58Z</time>
      </trkpt>
      <trkpt lat="44.66358" lon="3.78816">
        <ele>1224.38</ele>
        <time>2022-08-03T15:18:59Z</time>
      </trkpt>
      <trkpt lat="44.66348" lon="3.78805">
        <ele>1226.3</ele>
        <time>2022-08-03T15:19:09Z</time>
      </trkpt>
      <trkpt lat="44.66344" lon="3.78797">
        <ele>1227.74</ele>
        <time>2022-08-03T15:19:15Z</time>
      </trkpt>
      <trkpt lat="44.66335" lon="3.78777">
        <ele>1227.26</ele>
        <time>2022-08-03T15:19:31Z</time>
      </trkpt>
      <trkpt lat="44.6633" lon="3.78768">
        <ele>1227.74</ele>
        <time>2022-08-03T15:19:38Z</time>
      </trkpt>
      <trkpt lat="44.66319" lon="3.78748">
        <ele>1227.74</ele>
        <time>2022-08-03T15:19:53Z</time>
      </trkpt>
      <trkpt lat="44.66313" lon="3.78733">
        <ele>1227.26</ele>
        <time>2022-08-03T15:20:04Z</time>
      </trkpt>
      <trkpt lat="44.66305" lon="3.78708">
        <ele>1225.82</ele>
        <time>2022-08-03T15:20:20Z</time>
      </trkpt>
      <trkpt lat="44.66294" lon="3.78682">
        <ele>1222.93</ele>
        <time>2022-08-03T15:20:38Z</time>
      </trkpt>
      <trkpt lat="44.66287" lon="3.78663">
        <ele>1220.05</ele>
        <time>2022-08-03T15:20:51Z</time>
      </trkpt>
      <trkpt lat="44.66284" lon="3.78658">
        <ele>1220.05</ele>
        <time>2022-08-03T15:20:55Z</time>
      </trkpt>
      <trkpt lat="44.66279" lon="3.78651">
        <ele>1219.57</ele>
        <time>2022-08-03T15:21:01Z</time>
      </trkpt>
      <trkpt lat="44.66266" lon="3.78628">
        <ele>1218.61</ele>
        <time>2022-08-03T15:21:18Z</time>
      </trkpt>
      <trkpt lat="44.66254" lon="3.78605">
        <ele>1219.57</ele>
        <time>2022-08-03T15:21:34Z</time>
      </trkpt>
      <trkpt lat="44.66243" lon="3.78583">
        <ele>1219.09</ele>
        <time>2022-08-03T15:21:50Z</time>
      </trkpt>
      <trkpt lat="44.66231" lon="3.78559">
        <ele>1219.57</ele>
        <time>2022-08-03T15:22:07Z</time>
      </trkpt>
      <trkpt lat="44.66218" lon="3.78532">
        <ele>1219.57</ele>
        <time>2022-08-03T15:22:25Z</time>
      </trkpt>
      <trkpt lat="44.66206" lon="3.78507">
        <ele>1220.53</ele>
        <time>2022-08-03T15:22:42Z</time>
      </trkpt>
      <trkpt lat="44.66194" lon="3.78489">
        <ele>1220.05</ele>
        <time>2022-08-03T15:22:58Z</time>
      </trkpt>
      <trkpt lat="44.66184" lon="3.78476">
        <ele>1220.53</ele>
        <time>2022-08-03T15:23:09Z</time>
      </trkpt>
      <trkpt lat="44.66172" lon="3.78458">
        <ele>1221.49</ele>
        <time>2022-08-03T15:23:25Z</time>
      </trkpt>
      <trkpt lat="44.66158" lon="3.7844">
        <ele>1221.49</ele>
        <time>2022-08-03T15:23:41Z</time>
      </trkpt>
      <trkpt lat="44.66143" lon="3.78426">
        <ele>1221.01</ele>
        <time>2022-08-03T15:23:56Z</time>
      </trkpt>
      <trkpt lat="44.66126" lon="3.78412">
        <ele>1221.49</ele>
        <time>2022-08-03T15:24:12Z</time>
      </trkpt>
      <trkpt lat="44.66108" lon="3.78399">
        <ele>1222.93</ele>
        <time>2022-08-03T15:24:28Z</time>
      </trkpt>
      <trkpt lat="44.66094" lon="3.7838">
        <ele>1223.42</ele>
        <time>2022-08-03T15:24:44Z</time>
      </trkpt>
      <trkpt lat="44.6609" lon="3.78371">
        <ele>1223.42</ele>
        <time>2022-08-03T15:24:51Z</time>
      </trkpt>
      <trkpt lat="44.6608" lon="3.7835">
        <ele>1220.05</ele>
        <time>2022-08-03T15:25:07Z</time>
      </trkpt>
      <trkpt lat="44.66077" lon="3.78343">
        <ele>1219.57</ele>
        <time>2022-08-03T15:25:20Z</time>
      </trkpt>
      <trkpt lat="44.66077" lon="3.78323">
        <ele>1221.97</ele>
        <time>2022-08-03T15:25:33Z</time>
      </trkpt>
      <trkpt lat="44.66074" lon="3.78316">
        <ele>1227.26</ele>
        <time>2022-08-03T15:25:49Z</time>
      </trkpt>
      <trkpt lat="44.66073" lon="3.78317">
        <ele>1229.18</ele>
        <time>2022-08-03T15:26:12Z</time>
      </trkpt>
      <trkpt lat="44.6607" lon="3.78317">
        <ele>1228.7</ele>
        <time>2022-08-03T15:26:27Z</time>
      </trkpt>
      <trkpt lat="44.66065" lon="3.7832">
        <ele>1226.78</ele>
        <time>2022-08-03T15:27:11Z</time>
      </trkpt>
      <trkpt lat="44.66064" lon="3.78321">
        <ele>1226.3</ele>
        <time>2022-08-03T15:27:45Z</time>
      </trkpt>
      <trkpt lat="44.66063" lon="3.78321">
        <ele>1225.34</ele>
        <time>2022-08-03T15:28:11Z</time>
      </trkpt>
      <trkpt lat="44.66066" lon="3.7832">
        <ele>1224.38</ele>
        <time>2022-08-03T15:28:35Z</time>
      </trkpt>
      <trkpt lat="44.66065" lon="3.78321">
        <ele>1223.42</ele>
        <time>2022-08-03T15:29:06Z</time>
      </trkpt>
      <trkpt lat="44.66063" lon="3.78321">
        <ele>1223.42</ele>
        <time>2022-08-03T15:29:41Z</time>
      </trkpt>
      <trkpt lat="44.66067" lon="3.78322">
        <ele>1221.97</ele>
        <time>2022-08-03T15:30:21Z</time>
      </trkpt>
      <trkpt lat="44.66073" lon="3.78323">
        <ele>1219.57</ele>
        <time>2022-08-03T15:30:54Z</time>
      </trkpt>
      <trkpt lat="44.66079" lon="3.78323">
        <ele>1214.76</ele>
        <time>2022-08-03T15:31:28Z</time>
      </trkpt>
      <trkpt lat="44.66078" lon="3.78322">
        <ele>1213.8</ele>
        <time>2022-08-03T15:32:02Z</time>
      </trkpt>
      <trkpt lat="44.6608" lon="3.7832">
        <ele>1211.4</ele>
        <time>2022-08-03T15:32:32Z</time>
      </trkpt>
      <trkpt lat="44.6608" lon="3.78321">
        <ele>1215.24</ele>
        <time>2022-08-03T15:33:08Z</time>
      </trkpt>
      <trkpt lat="44.66078" lon="3.78322">
        <ele>1219.09</ele>
        <time>2022-08-03T15:33:41Z</time>
      </trkpt>
      <trkpt lat="44.66074" lon="3.7832">
        <ele>1221.97</ele>
        <time>2022-08-03T15:34:17Z</time>
      </trkpt>
      <trkpt lat="44.66066" lon="3.78321">
        <ele>1228.22</ele>
        <time>2022-08-03T15:34:46Z</time>
      </trkpt>
      <trkpt lat="44.66066" lon="3.78321">
        <ele>1229.18</ele>
        <time>2022-08-03T15:35:10Z</time>
      </trkpt>
      <trkpt lat="44.6607" lon="3.78321">
        <ele>1229.66</ele>
        <time>2022-08-03T15:35:43Z</time>
      </trkpt>
      <trkpt lat="44.66075" lon="3.7832">
        <ele>1229.18</ele>
        <time>2022-08-03T15:36:15Z</time>
      </trkpt>
      <trkpt lat="44.66073" lon="3.78319">
        <ele>1228.7</ele>
        <time>2022-08-03T15:36:43Z</time>
      </trkpt>
      <trkpt lat="44.66068" lon="3.78319">
        <ele>1228.22</ele>
        <time>2022-08-03T15:37:09Z</time>
      </trkpt>
      <trkpt lat="44.66066" lon="3.78319">
        <ele>1226.78</ele>
        <time>2022-08-03T15:37:30Z</time>
      </trkpt>
      <trkpt lat="44.66067" lon="3.78319">
        <ele>1225.82</ele>
        <time>2022-08-03T15:37:49Z</time>
      </trkpt>
      <trkpt lat="44.66067" lon="3.78315">
        <ele>1225.34</ele>
        <time>2022-08-03T15:38:02Z</time>
      </trkpt>
      <trkpt lat="44.66073" lon="3.78294">
        <ele>1224.86</ele>
        <time>2022-08-03T15:38:16Z</time>
      </trkpt>
      <trkpt lat="44.66076" lon="3.78275">
        <ele>1224.86</ele>
        <time>2022-08-03T15:38:28Z</time>
      </trkpt>
      <trkpt lat="44.66072" lon="3.7825">
        <ele>1225.34</ele>
        <time>2022-08-03T15:38:44Z</time>
      </trkpt>
      <trkpt lat="44.66071" lon="3.78248">
        <ele>1225.34</ele>
        <time>2022-08-03T15:38:45Z</time>
      </trkpt>
      <trkpt lat="44.66058" lon="3.78221">
        <ele>1223.9</ele>
        <time>2022-08-03T15:39:03Z</time>
      </trkpt>
      <trkpt lat="44.66049" lon="3.78196">
        <ele>1223.42</ele>
        <time>2022-08-03T15:39:19Z</time>
      </trkpt>
      <trkpt lat="44.66042" lon="3.78175">
        <ele>1223.42</ele>
        <time>2022-08-03T15:39:32Z</time>
      </trkpt>
      <trkpt lat="44.66034" lon="3.7815">
        <ele>1223.9</ele>
        <time>2022-08-03T15:39:48Z</time>
      </trkpt>
      <trkpt lat="44.66019" lon="3.78121">
        <ele>1222.93</ele>
        <time>2022-08-03T15:40:08Z</time>
      </trkpt>
      <trkpt lat="44.66009" lon="3.78097">
        <ele>1222.93</ele>
        <time>2022-08-03T15:40:25Z</time>
      </trkpt>
      <trkpt lat="44.65995" lon="3.7807">
        <ele>1223.9</ele>
        <time>2022-08-03T15:40:44Z</time>
      </trkpt>
      <trkpt lat="44.65981" lon="3.78046">
        <ele>1224.86</ele>
        <time>2022-08-03T15:41:03Z</time>
      </trkpt>
      <trkpt lat="44.65974" lon="3.78022">
        <ele>1225.34</ele>
        <time>2022-08-03T15:41:19Z</time>
      </trkpt>
      <trkpt lat="44.65969" lon="3.78">
        <ele>1226.3</ele>
        <time>2022-08-03T15:41:33Z</time>
      </trkpt>
      <trkpt lat="44.65965" lon="3.77971">
        <ele>1226.3</ele>
        <time>2022-08-03T15:41:50Z</time>
      </trkpt>
      <trkpt lat="44.65957" lon="3.77944">
        <ele>1225.82</ele>
        <time>2022-08-03T15:42:06Z</time>
      </trkpt>
      <trkpt lat="44.65945" lon="3.77925">
        <ele>1223.9</ele>
        <time>2022-08-03T15:42:21Z</time>
      </trkpt>
      <trkpt lat="44.65926" lon="3.77934">
        <ele>1223.42</ele>
        <time>2022-08-03T15:42:38Z</time>
      </trkpt>
      <trkpt lat="44.65908" lon="3.77945">
        <ele>1223.9</ele>
        <time>2022-08-03T15:42:56Z</time>
      </trkpt>
      <trkpt lat="44.65889" lon="3.77953">
        <ele>1225.34</ele>
        <time>2022-08-03T15:43:14Z</time>
      </trkpt>
      <trkpt lat="44.65887" lon="3.77953">
        <ele>1225.82</ele>
        <time>2022-08-03T15:43:15Z</time>
      </trkpt>
      <trkpt lat="44.6588" lon="3.77959">
        <ele>1225.82</ele>
        <time>2022-08-03T15:43:22Z</time>
      </trkpt>
      <trkpt lat="44.65861" lon="3.77971">
        <ele>1227.74</ele>
        <time>2022-08-03T15:43:41Z</time>
      </trkpt>
      <trkpt lat="44.6585" lon="3.77981">
        <ele>1228.7</ele>
        <time>2022-08-03T15:43:53Z</time>
      </trkpt>
      <trkpt lat="44.65833" lon="3.78">
        <ele>1229.18</ele>
        <time>2022-08-03T15:44:11Z</time>
      </trkpt>
      <trkpt lat="44.65824" lon="3.78015">
        <ele>1229.18</ele>
        <time>2022-08-03T15:44:23Z</time>
      </trkpt>
      <trkpt lat="44.65816" lon="3.78026">
        <ele>1227.74</ele>
        <time>2022-08-03T15:44:33Z</time>
      </trkpt>
      <trkpt lat="44.65801" lon="3.78043">
        <ele>1227.74</ele>
        <time>2022-08-03T15:44:49Z</time>
      </trkpt>
      <trkpt lat="44.65787" lon="3.78061">
        <ele>1227.26</ele>
        <time>2022-08-03T15:45:05Z</time>
      </trkpt>
      <trkpt lat="44.65771" lon="3.78078">
        <ele>1227.26</ele>
        <time>2022-08-03T15:45:23Z</time>
      </trkpt>
      <trkpt lat="44.6576" lon="3.78089">
        <ele>1225.82</ele>
        <time>2022-08-03T15:45:33Z</time>
      </trkpt>
      <trkpt lat="44.65747" lon="3.78103">
        <ele>1226.78</ele>
        <time>2022-08-03T15:45:48Z</time>
      </trkpt>
      <trkpt lat="44.65733" lon="3.78119">
        <ele>1229.66</ele>
        <time>2022-08-03T15:46:04Z</time>
      </trkpt>
      <trkpt lat="44.65727" lon="3.78124">
        <ele>1230.14</ele>
        <time>2022-08-03T15:46:10Z</time>
      </trkpt>
      <trkpt lat="44.65711" lon="3.78151">
        <ele>1229.66</ele>
        <time>2022-08-03T15:46:28Z</time>
      </trkpt>
      <trkpt lat="44.657" lon="3.78174">
        <ele>1230.14</ele>
        <time>2022-08-03T15:46:44Z</time>
      </trkpt>
      <trkpt lat="44.65694" lon="3.78185">
        <ele>1231.11</ele>
        <time>2022-08-03T15:46:54Z</time>
      </trkpt>
      <trkpt lat="44.65684" lon="3.78203">
        <ele>1233.03</ele>
        <time>2022-08-03T15:47:09Z</time>
      </trkpt>
      <trkpt lat="44.65669" lon="3.78229">
        <ele>1234.47</ele>
        <time>2022-08-03T15:47:29Z</time>
      </trkpt>
      <trkpt lat="44.65657" lon="3.78251">
        <ele>1231.59</ele>
        <time>2022-08-03T15:47:45Z</time>
      </trkpt>
      <trkpt lat="44.65648" lon="3.7827">
        <ele>1230.62</ele>
        <time>2022-08-03T15:48:00Z</time>
      </trkpt>
      <trkpt lat="44.65645" lon="3.78278">
        <ele>1230.62</ele>
        <time>2022-08-03T15:48:06Z</time>
      </trkpt>
      <trkpt lat="44.65634" lon="3.783">
        <ele>1229.66</ele>
        <time>2022-08-03T15:48:24Z</time>
      </trkpt>
      <trkpt lat="44.6562" lon="3.78329">
        <ele>1232.55</ele>
        <time>2022-08-03T15:48:42Z</time>
      </trkpt>
      <trkpt lat="44.65613" lon="3.78353">
        <ele>1235.91</ele>
        <time>2022-08-03T15:48:57Z</time>
      </trkpt>
      <trkpt lat="44.65611" lon="3.78359">
        <ele>1236.87</ele>
        <time>2022-08-03T15:49:02Z</time>
      </trkpt>
      <trkpt lat="44.65602" lon="3.7838">
        <ele>1240.24</ele>
        <time>2022-08-03T15:49:17Z</time>
      </trkpt>
      <trkpt lat="44.65601" lon="3.7839">
        <ele>1240.24</ele>
        <time>2022-08-03T15:49:24Z</time>
      </trkpt>
      <trkpt lat="44.65599" lon="3.78415">
        <ele>1236.87</ele>
        <time>2022-08-03T15:49:40Z</time>
      </trkpt>
      <trkpt lat="44.65598" lon="3.78444">
        <ele>1236.87</ele>
        <time>2022-08-03T15:49:56Z</time>
      </trkpt>
      <trkpt lat="44.65595" lon="3.78479">
        <ele>1240.24</ele>
        <time>2022-08-03T15:50:14Z</time>
      </trkpt>
      <trkpt lat="44.65591" lon="3.78501">
        <ele>1240.24</ele>
        <time>2022-08-03T15:50:31Z</time>
      </trkpt>
      <trkpt lat="44.65597" lon="3.78504">
        <ele>1238.8</ele>
        <time>2022-08-03T15:50:44Z</time>
      </trkpt>
      <trkpt lat="44.65595" lon="3.78524">
        <ele>1238.8</ele>
        <time>2022-08-03T15:51:11Z</time>
      </trkpt>
      <trkpt lat="44.65592" lon="3.78561">
        <ele>1239.28</ele>
        <time>2022-08-03T15:51:27Z</time>
      </trkpt>
      <trkpt lat="44.65593" lon="3.78592">
        <ele>1239.76</ele>
        <time>2022-08-03T15:51:43Z</time>
      </trkpt>
      <trkpt lat="44.65591" lon="3.78612">
        <ele>1236.87</ele>
        <time>2022-08-03T15:51:56Z</time>
      </trkpt>
      <trkpt lat="44.65591" lon="3.78633">
        <ele>1235.43</ele>
        <time>2022-08-03T15:52:10Z</time>
      </trkpt>
      <trkpt lat="44.65588" lon="3.78667">
        <ele>1235.91</ele>
        <time>2022-08-03T15:52:28Z</time>
      </trkpt>
      <trkpt lat="44.6559" lon="3.78693">
        <ele>1231.59</ele>
        <time>2022-08-03T15:52:43Z</time>
      </trkpt>
      <trkpt lat="44.65585" lon="3.78717">
        <ele>1232.55</ele>
        <time>2022-08-03T15:52:59Z</time>
      </trkpt>
      <trkpt lat="44.6558" lon="3.78734">
        <ele>1233.03</ele>
        <time>2022-08-03T15:53:11Z</time>
      </trkpt>
      <trkpt lat="44.6557" lon="3.78761">
        <ele>1233.51</ele>
        <time>2022-08-03T15:53:27Z</time>
      </trkpt>
      <trkpt lat="44.65562" lon="3.78784">
        <ele>1232.07</ele>
        <time>2022-08-03T15:53:43Z</time>
      </trkpt>
      <trkpt lat="44.65556" lon="3.7881">
        <ele>1228.22</ele>
        <time>2022-08-03T15:53:57Z</time>
      </trkpt>
      <trkpt lat="44.65551" lon="3.78822">
        <ele>1228.7</ele>
        <time>2022-08-03T15:54:04Z</time>
      </trkpt>
      <trkpt lat="44.65547" lon="3.78849">
        <ele>1227.74</ele>
        <time>2022-08-03T15:54:17Z</time>
      </trkpt>
      <trkpt lat="44.65541" lon="3.78875">
        <ele>1226.78</ele>
        <time>2022-08-03T15:54:34Z</time>
      </trkpt>
      <trkpt lat="44.6554" lon="3.78896">
        <ele>1227.26</ele>
        <time>2022-08-03T15:54:48Z</time>
      </trkpt>
      <trkpt lat="44.65537" lon="3.78919">
        <ele>1224.86</ele>
        <time>2022-08-03T15:55:03Z</time>
      </trkpt>
      <trkpt lat="44.65533" lon="3.78949">
        <ele>1223.42</ele>
        <time>2022-08-03T15:55:20Z</time>
      </trkpt>
      <trkpt lat="44.6553" lon="3.78971">
        <ele>1224.38</ele>
        <time>2022-08-03T15:55:35Z</time>
      </trkpt>
      <trkpt lat="44.65528" lon="3.78996">
        <ele>1229.66</ele>
        <time>2022-08-03T15:55:49Z</time>
      </trkpt>
      <trkpt lat="44.65526" lon="3.79019">
        <ele>1231.11</ele>
        <time>2022-08-03T15:56:03Z</time>
      </trkpt>
      <trkpt lat="44.65519" lon="3.7906">
        <ele>1228.22</ele>
        <time>2022-08-03T15:56:22Z</time>
      </trkpt>
      <trkpt lat="44.65518" lon="3.79084">
        <ele>1225.82</ele>
        <time>2022-08-03T15:56:39Z</time>
      </trkpt>
      <trkpt lat="44.65514" lon="3.79111">
        <ele>1226.78</ele>
        <time>2022-08-03T15:56:56Z</time>
      </trkpt>
      <trkpt lat="44.65513" lon="3.79136">
        <ele>1230.62</ele>
        <time>2022-08-03T15:57:11Z</time>
      </trkpt>
      <trkpt lat="44.65512" lon="3.79156">
        <ele>1231.11</ele>
        <time>2022-08-03T15:57:28Z</time>
      </trkpt>
      <trkpt lat="44.65518" lon="3.79163">
        <ele>1230.62</ele>
        <time>2022-08-03T15:58:01Z</time>
      </trkpt>
      <trkpt lat="44.65525" lon="3.79151">
        <ele>1230.62</ele>
        <time>2022-08-03T15:58:29Z</time>
      </trkpt>
      <trkpt lat="44.65522" lon="3.79153">
        <ele>1229.18</ele>
        <time>2022-08-03T15:58:56Z</time>
      </trkpt>
      <trkpt lat="44.65516" lon="3.79176">
        <ele>1226.78</ele>
        <time>2022-08-03T15:59:14Z</time>
      </trkpt>
      <trkpt lat="44.65513" lon="3.792">
        <ele>1225.34</ele>
        <time>2022-08-03T15:59:31Z</time>
      </trkpt>
      <trkpt lat="44.65512" lon="3.7924">
        <ele>1221.01</ele>
        <time>2022-08-03T15:59:45Z</time>
      </trkpt>
      <trkpt lat="44.65515" lon="3.79264">
        <ele>1220.05</ele>
        <time>2022-08-03T15:59:59Z</time>
      </trkpt>
      <trkpt lat="44.65514" lon="3.7929">
        <ele>1218.13</ele>
        <time>2022-08-03T16:00:15Z</time>
      </trkpt>
      <trkpt lat="44.65513" lon="3.79311">
        <ele>1217.65</ele>
        <time>2022-08-03T16:00:28Z</time>
      </trkpt>
      <trkpt lat="44.65511" lon="3.79337">
        <ele>1214.28</ele>
        <time>2022-08-03T16:00:43Z</time>
      </trkpt>
      <trkpt lat="44.6551" lon="3.7934">
        <ele>1214.28</ele>
        <time>2022-08-03T16:00:45Z</time>
      </trkpt>
      <trkpt lat="44.65508" lon="3.79361">
        <ele>1211.88</ele>
        <time>2022-08-03T16:01:01Z</time>
      </trkpt>
      <trkpt lat="44.65502" lon="3.79391">
        <ele>1207.55</ele>
        <time>2022-08-03T16:01:18Z</time>
      </trkpt>
      <trkpt lat="44.655" lon="3.7941">
        <ele>1205.15</ele>
        <time>2022-08-03T16:01:31Z</time>
      </trkpt>
      <trkpt lat="44.65497" lon="3.7943">
        <ele>1199.38</ele>
        <time>2022-08-03T16:01:46Z</time>
      </trkpt>
      <trkpt lat="44.65497" lon="3.79453">
        <ele>1194.09</ele>
        <time>2022-08-03T16:02:00Z</time>
      </trkpt>
      <trkpt lat="44.65495" lon="3.79477">
        <ele>1194.09</ele>
        <time>2022-08-03T16:02:13Z</time>
      </trkpt>
      <trkpt lat="44.65489" lon="3.79505">
        <ele>1198.42</ele>
        <time>2022-08-03T16:02:28Z</time>
      </trkpt>
      <trkpt lat="44.6549" lon="3.79537">
        <ele>1200.82</ele>
        <time>2022-08-03T16:02:46Z</time>
      </trkpt>
      <trkpt lat="44.6549" lon="3.79556">
        <ele>1199.86</ele>
        <time>2022-08-03T16:03:00Z</time>
      </trkpt>
      <trkpt lat="44.65502" lon="3.79584">
        <ele>1200.34</ele>
        <time>2022-08-03T16:03:17Z</time>
      </trkpt>
      <trkpt lat="44.6551" lon="3.79601">
        <ele>1199.86</ele>
        <time>2022-08-03T16:03:29Z</time>
      </trkpt>
      <trkpt lat="44.65521" lon="3.79619">
        <ele>1198.9</ele>
        <time>2022-08-03T16:03:45Z</time>
      </trkpt>
      <trkpt lat="44.65535" lon="3.79641">
        <ele>1197.46</ele>
        <time>2022-08-03T16:04:02Z</time>
      </trkpt>
      <trkpt lat="44.65547" lon="3.79665">
        <ele>1198.42</ele>
        <time>2022-08-03T16:04:19Z</time>
      </trkpt>
      <trkpt lat="44.65558" lon="3.79685">
        <ele>1199.86</ele>
        <time>2022-08-03T16:04:34Z</time>
      </trkpt>
      <trkpt lat="44.65566" lon="3.79699">
        <ele>1199.86</ele>
        <time>2022-08-03T16:04:50Z</time>
      </trkpt>
      <trkpt lat="44.65575" lon="3.79714">
        <ele>1200.34</ele>
        <time>2022-08-03T16:05:04Z</time>
      </trkpt>
      <trkpt lat="44.65581" lon="3.79741">
        <ele>1198.9</ele>
        <time>2022-08-03T16:05:18Z</time>
      </trkpt>
      <trkpt lat="44.65591" lon="3.79765">
        <ele>1198.9</ele>
        <time>2022-08-03T16:05:34Z</time>
      </trkpt>
      <trkpt lat="44.65602" lon="3.79788">
        <ele>1197.46</ele>
        <time>2022-08-03T16:05:50Z</time>
      </trkpt>
      <trkpt lat="44.65613" lon="3.7981">
        <ele>1196.5</ele>
        <time>2022-08-03T16:06:05Z</time>
      </trkpt>
      <trkpt lat="44.65618" lon="3.79821">
        <ele>1196.5</ele>
        <time>2022-08-03T16:06:14Z</time>
      </trkpt>
      <trkpt lat="44.65616" lon="3.79825">
        <ele>1194.09</ele>
        <time>2022-08-03T16:06:20Z</time>
      </trkpt>
      <trkpt lat="44.65613" lon="3.79828">
        <ele>1193.61</ele>
        <time>2022-08-03T16:06:24Z</time>
      </trkpt>
      <trkpt lat="44.65607" lon="3.79831">
        <ele>1193.13</ele>
        <time>2022-08-03T16:06:30Z</time>
      </trkpt>
      <trkpt lat="44.65592" lon="3.79827">
        <ele>1192.65</ele>
        <time>2022-08-03T16:06:46Z</time>
      </trkpt>
      <trkpt lat="44.65576" lon="3.79824">
        <ele>1191.21</ele>
        <time>2022-08-03T16:07:00Z</time>
      </trkpt>
      <trkpt lat="44.6556" lon="3.79821">
        <ele>1188.81</ele>
        <time>2022-08-03T16:07:14Z</time>
      </trkpt>
      <trkpt lat="44.65553" lon="3.79821">
        <ele>1188.33</ele>
        <time>2022-08-03T16:07:20Z</time>
      </trkpt>
      <trkpt lat="44.65533" lon="3.79815">
        <ele>1188.81</ele>
        <time>2022-08-03T16:07:36Z</time>
      </trkpt>
      <trkpt lat="44.65518" lon="3.79813">
        <ele>1189.29</ele>
        <time>2022-08-03T16:07:49Z</time>
      </trkpt>
      <trkpt lat="44.65498" lon="3.79809">
        <ele>1189.77</ele>
        <time>2022-08-03T16:08:06Z</time>
      </trkpt>
      <trkpt lat="44.65483" lon="3.79816">
        <ele>1187.85</ele>
        <time>2022-08-03T16:08:22Z</time>
      </trkpt>
      <trkpt lat="44.65483" lon="3.7982">
        <ele>1185.44</ele>
        <time>2022-08-03T16:08:52Z</time>
      </trkpt>
      <trkpt lat="44.65474" lon="3.79819">
        <ele>1184.48</ele>
        <time>2022-08-03T16:09:09Z</time>
      </trkpt>
      <trkpt lat="44.65454" lon="3.79821">
        <ele>1183.52</ele>
        <time>2022-08-03T16:09:24Z</time>
      </trkpt>
      <trkpt lat="44.65433" lon="3.79828">
        <ele>1182.08</ele>
        <time>2022-08-03T16:09:41Z</time>
      </trkpt>
      <trkpt lat="44.65415" lon="3.79839">
        <ele>1178.23</ele>
        <time>2022-08-03T16:09:56Z</time>
      </trkpt>
      <trkpt lat="44.65404" lon="3.79853">
        <ele>1177.27</ele>
        <time>2022-08-03T16:10:10Z</time>
      </trkpt>
      <trkpt lat="44.654" lon="3.79856">
        <ele>1176.79</ele>
        <time>2022-08-03T16:10:13Z</time>
      </trkpt>
      <trkpt lat="44.65398" lon="3.7986">
        <ele>1176.31</ele>
        <time>2022-08-03T16:10:16Z</time>
      </trkpt>
      <trkpt lat="44.65384" lon="3.79875">
        <ele>1175.83</ele>
        <time>2022-08-03T16:10:31Z</time>
      </trkpt>
      <trkpt lat="44.65373" lon="3.79883">
        <ele>1174.39</ele>
        <time>2022-08-03T16:10:41Z</time>
      </trkpt>
      <trkpt lat="44.6537" lon="3.79884">
        <ele>1174.39</ele>
        <time>2022-08-03T16:10:43Z</time>
      </trkpt>
      <trkpt lat="44.65353" lon="3.79895">
        <ele>1171.98</ele>
        <time>2022-08-03T16:10:58Z</time>
      </trkpt>
      <trkpt lat="44.65343" lon="3.79902">
        <ele>1172.95</ele>
        <time>2022-08-03T16:11:07Z</time>
      </trkpt>
      <trkpt lat="44.65328" lon="3.79913">
        <ele>1172.95</ele>
        <time>2022-08-03T16:11:21Z</time>
      </trkpt>
      <trkpt lat="44.65312" lon="3.79924">
        <ele>1172.47</ele>
        <time>2022-08-03T16:11:36Z</time>
      </trkpt>
      <trkpt lat="44.65311" lon="3.79926">
        <ele>1172.95</ele>
        <time>2022-08-03T16:11:38Z</time>
      </trkpt>
      <trkpt lat="44.65307" lon="3.79937">
        <ele>1172.95</ele>
        <time>2022-08-03T16:11:45Z</time>
      </trkpt>
      <trkpt lat="44.65306" lon="3.79948">
        <ele>1172.95</ele>
        <time>2022-08-03T16:11:50Z</time>
      </trkpt>
      <trkpt lat="44.65301" lon="3.7997">
        <ele>1171.02</ele>
        <time>2022-08-03T16:12:03Z</time>
      </trkpt>
      <trkpt lat="44.65292" lon="3.79995">
        <ele>1167.66</ele>
        <time>2022-08-03T16:12:20Z</time>
      </trkpt>
      <trkpt lat="44.65285" lon="3.8">
        <ele>1166.22</ele>
        <time>2022-08-03T16:12:27Z</time>
      </trkpt>
      <trkpt lat="44.65269" lon="3.80016">
        <ele>1165.74</ele>
        <time>2022-08-03T16:12:45Z</time>
      </trkpt>
      <trkpt lat="44.65264" lon="3.80023">
        <ele>1166.22</ele>
        <time>2022-08-03T16:12:51Z</time>
      </trkpt>
      <trkpt lat="44.65263" lon="3.80029">
        <ele>1166.7</ele>
        <time>2022-08-03T16:12:54Z</time>
      </trkpt>
      <trkpt lat="44.65259" lon="3.8004">
        <ele>1165.74</ele>
        <time>2022-08-03T16:13:00Z</time>
      </trkpt>
      <trkpt lat="44.65245" lon="3.80054">
        <ele>1161.89</ele>
        <time>2022-08-03T16:13:12Z</time>
      </trkpt>
      <trkpt lat="44.65237" lon="3.80072">
        <ele>1159.49</ele>
        <time>2022-08-03T16:13:24Z</time>
      </trkpt>
      <trkpt lat="44.65233" lon="3.80101">
        <ele>1157.56</ele>
        <time>2022-08-03T16:13:41Z</time>
      </trkpt>
      <trkpt lat="44.65233" lon="3.80127">
        <ele>1155.16</ele>
        <time>2022-08-03T16:13:56Z</time>
      </trkpt>
      <trkpt lat="44.65234" lon="3.80154">
        <ele>1153.24</ele>
        <time>2022-08-03T16:14:11Z</time>
      </trkpt>
      <trkpt lat="44.65231" lon="3.80179">
        <ele>1149.87</ele>
        <time>2022-08-03T16:14:27Z</time>
      </trkpt>
      <trkpt lat="44.65225" lon="3.80199">
        <ele>1147.47</ele>
        <time>2022-08-03T16:14:41Z</time>
      </trkpt>
      <trkpt lat="44.65224" lon="3.80202">
        <ele>1147.47</ele>
        <time>2022-08-03T16:14:43Z</time>
      </trkpt>
      <trkpt lat="44.65217" lon="3.8021">
        <ele>1147.95</ele>
        <time>2022-08-03T16:14:50Z</time>
      </trkpt>
      <trkpt lat="44.65199" lon="3.80227">
        <ele>1147.95</ele>
        <time>2022-08-03T16:15:08Z</time>
      </trkpt>
      <trkpt lat="44.65196" lon="3.80233">
        <ele>1147.95</ele>
        <time>2022-08-03T16:15:12Z</time>
      </trkpt>
      <trkpt lat="44.65175" lon="3.80245">
        <ele>1146.03</ele>
        <time>2022-08-03T16:15:31Z</time>
      </trkpt>
      <trkpt lat="44.65171" lon="3.80246">
        <ele>1145.55</ele>
        <time>2022-08-03T16:15:35Z</time>
      </trkpt>
      <trkpt lat="44.65165" lon="3.80248">
        <ele>1145.07</ele>
        <time>2022-08-03T16:15:40Z</time>
      </trkpt>
      <trkpt lat="44.65146" lon="3.80254">
        <ele>1143.63</ele>
        <time>2022-08-03T16:15:55Z</time>
      </trkpt>
      <trkpt lat="44.65131" lon="3.80265">
        <ele>1141.7</ele>
        <time>2022-08-03T16:16:09Z</time>
      </trkpt>
      <trkpt lat="44.65115" lon="3.80276">
        <ele>1140.26</ele>
        <time>2022-08-03T16:16:23Z</time>
      </trkpt>
      <trkpt lat="44.6511" lon="3.80278">
        <ele>1140.26</ele>
        <time>2022-08-03T16:16:27Z</time>
      </trkpt>
      <trkpt lat="44.65091" lon="3.80284">
        <ele>1139.3</ele>
        <time>2022-08-03T16:16:43Z</time>
      </trkpt>
      <trkpt lat="44.65089" lon="3.80285">
        <ele>1139.3</ele>
        <time>2022-08-03T16:16:45Z</time>
      </trkpt>
      <trkpt lat="44.65076" lon="3.80293">
        <ele>1138.34</ele>
        <time>2022-08-03T16:16:56Z</time>
      </trkpt>
      <trkpt lat="44.6507" lon="3.80295">
        <ele>1137.86</ele>
        <time>2022-08-03T16:17:01Z</time>
      </trkpt>
      <trkpt lat="44.65049" lon="3.80303">
        <ele>1136.42</ele>
        <time>2022-08-03T16:17:19Z</time>
      </trkpt>
      <trkpt lat="44.65032" lon="3.80307">
        <ele>1135.45</ele>
        <time>2022-08-03T16:17:33Z</time>
      </trkpt>
      <trkpt lat="44.65029" lon="3.80308">
        <ele>1134.97</ele>
        <time>2022-08-03T16:17:36Z</time>
      </trkpt>
      <trkpt lat="44.65015" lon="3.80312">
        <ele>1134.01</ele>
        <time>2022-08-03T16:17:48Z</time>
      </trkpt>
      <trkpt lat="44.64998" lon="3.8031">
        <ele>1132.57</ele>
        <time>2022-08-03T16:18:03Z</time>
      </trkpt>
      <trkpt lat="44.64996" lon="3.8031">
        <ele>1132.09</ele>
        <time>2022-08-03T16:18:05Z</time>
      </trkpt>
      <trkpt lat="44.64992" lon="3.80312">
        <ele>1129.21</ele>
        <time>2022-08-03T16:18:19Z</time>
      </trkpt>
      <trkpt lat="44.64994" lon="3.80316">
        <ele>1127.76</ele>
        <time>2022-08-03T16:18:41Z</time>
      </trkpt>
      <trkpt lat="44.64981" lon="3.80318">
        <ele>1127.76</ele>
        <time>2022-08-03T16:18:59Z</time>
      </trkpt>
      <trkpt lat="44.64967" lon="3.80316">
        <ele>1129.69</ele>
        <time>2022-08-03T16:19:11Z</time>
      </trkpt>
      <trkpt lat="44.64949" lon="3.80317">
        <ele>1129.69</ele>
        <time>2022-08-03T16:19:28Z</time>
      </trkpt>
      <trkpt lat="44.64932" lon="3.80319">
        <ele>1128.73</ele>
        <time>2022-08-03T16:19:41Z</time>
      </trkpt>
      <trkpt lat="44.64916" lon="3.80323">
        <ele>1127.76</ele>
        <time>2022-08-03T16:19:55Z</time>
      </trkpt>
      <trkpt lat="44.64911" lon="3.80323">
        <ele>1127.28</ele>
        <time>2022-08-03T16:19:59Z</time>
      </trkpt>
      <trkpt lat="44.64893" lon="3.80324">
        <ele>1127.28</ele>
        <time>2022-08-03T16:20:14Z</time>
      </trkpt>
      <trkpt lat="44.64887" lon="3.80324">
        <ele>1126.8</ele>
        <time>2022-08-03T16:20:19Z</time>
      </trkpt>
      <trkpt lat="44.6488" lon="3.80323">
        <ele>1125.36</ele>
        <time>2022-08-03T16:20:32Z</time>
      </trkpt>
      <trkpt lat="44.64882" lon="3.80325">
        <ele>1124.88</ele>
        <time>2022-08-03T16:20:53Z</time>
      </trkpt>
      <trkpt lat="44.64888" lon="3.80325">
        <ele>1127.28</ele>
        <time>2022-08-03T16:21:28Z</time>
      </trkpt>
      <trkpt lat="44.64875" lon="3.80325">
        <ele>1122.96</ele>
        <time>2022-08-03T16:21:51Z</time>
      </trkpt>
      <trkpt lat="44.64856" lon="3.80326">
        <ele>1123.92</ele>
        <time>2022-08-03T16:22:06Z</time>
      </trkpt>
      <trkpt lat="44.64838" lon="3.80331">
        <ele>1124.88</ele>
        <time>2022-08-03T16:22:21Z</time>
      </trkpt>
      <trkpt lat="44.6482" lon="3.80333">
        <ele>1124.88</ele>
        <time>2022-08-03T16:22:35Z</time>
      </trkpt>
      <trkpt lat="44.64811" lon="3.80335">
        <ele>1122.96</ele>
        <time>2022-08-03T16:22:43Z</time>
      </trkpt>
      <trkpt lat="44.64799" lon="3.80329">
        <ele>1122.96</ele>
        <time>2022-08-03T16:22:55Z</time>
      </trkpt>
      <trkpt lat="44.64776" lon="3.80318">
        <ele>1124.4</ele>
        <time>2022-08-03T16:23:15Z</time>
      </trkpt>
      <trkpt lat="44.64763" lon="3.80317">
        <ele>1124.88</ele>
        <time>2022-08-03T16:23:30Z</time>
      </trkpt>
      <trkpt lat="44.64759" lon="3.80309">
        <ele>1125.36</ele>
        <time>2022-08-03T16:23:43Z</time>
      </trkpt>
      <trkpt lat="44.64759" lon="3.80311">
        <ele>1128.24</ele>
        <time>2022-08-03T16:23:57Z</time>
      </trkpt>
      <trkpt lat="44.64758" lon="3.80316">
        <ele>1127.76</ele>
        <time>2022-08-03T16:24:17Z</time>
      </trkpt>
      <trkpt lat="44.64757" lon="3.80318">
        <ele>1128.24</ele>
        <time>2022-08-03T16:24:36Z</time>
      </trkpt>
      <trkpt lat="44.6476" lon="3.80316">
        <ele>1127.76</ele>
        <time>2022-08-03T16:24:52Z</time>
      </trkpt>
      <trkpt lat="44.64765" lon="3.80311">
        <ele>1122.48</ele>
        <time>2022-08-03T16:25:24Z</time>
      </trkpt>
      <trkpt lat="44.64766" lon="3.80308">
        <ele>1116.71</ele>
        <time>2022-08-03T16:25:57Z</time>
      </trkpt>
      <trkpt lat="44.64767" lon="3.80305">
        <ele>1116.71</ele>
        <time>2022-08-03T16:26:38Z</time>
      </trkpt>
      <trkpt lat="44.64769" lon="3.80304">
        <ele>1114.79</ele>
        <time>2022-08-03T16:27:19Z</time>
      </trkpt>
      <trkpt lat="44.64768" lon="3.80306">
        <ele>1117.67</ele>
        <time>2022-08-03T16:27:55Z</time>
      </trkpt>
      <trkpt lat="44.64768" lon="3.80306">
        <ele>1115.27</ele>
        <time>2022-08-03T16:28:31Z</time>
      </trkpt>
      <trkpt lat="44.64768" lon="3.80304">
        <ele>1113.34</ele>
        <time>2022-08-03T16:29:09Z</time>
      </trkpt>
      <trkpt lat="44.64768" lon="3.80302">
        <ele>1112.38</ele>
        <time>2022-08-03T16:29:47Z</time>
      </trkpt>
      <trkpt lat="44.6477" lon="3.80302">
        <ele>1114.79</ele>
        <time>2022-08-03T16:30:29Z</time>
      </trkpt>
      <trkpt lat="44.6477" lon="3.80306">
        <ele>1115.27</ele>
        <time>2022-08-03T16:31:08Z</time>
      </trkpt>
      <trkpt lat="44.6477" lon="3.80303">
        <ele>1116.71</ele>
        <time>2022-08-03T16:31:50Z</time>
      </trkpt>
      <trkpt lat="44.64771" lon="3.80301">
        <ele>1117.19</ele>
        <time>2022-08-03T16:32:20Z</time>
      </trkpt>
      <trkpt lat="44.64772" lon="3.80303">
        <ele>1116.71</ele>
        <time>2022-08-03T16:32:49Z</time>
      </trkpt>
      <trkpt lat="44.64768" lon="3.80304">
        <ele>1116.71</ele>
        <time>2022-08-03T16:33:13Z</time>
      </trkpt>
      <trkpt lat="44.64766" lon="3.80307">
        <ele>1120.07</ele>
        <time>2022-08-03T16:33:39Z</time>
      </trkpt>
      <trkpt lat="44.6476" lon="3.80313">
        <ele>1123.44</ele>
        <time>2022-08-03T16:34:02Z</time>
      </trkpt>
      <trkpt lat="44.6476" lon="3.80309">
        <ele>1125.84</ele>
        <time>2022-08-03T16:34:32Z</time>
      </trkpt>
      <trkpt lat="44.64761" lon="3.80304">
        <ele>1129.21</ele>
        <time>2022-08-03T16:34:44Z</time>
      </trkpt>
      <trkpt lat="44.6476" lon="3.80303">
        <ele>1127.76</ele>
        <time>2022-08-03T16:35:07Z</time>
      </trkpt>
      <trkpt lat="44.6476" lon="3.80307">
        <ele>1125.36</ele>
        <time>2022-08-03T16:35:30Z</time>
      </trkpt>
      <trkpt lat="44.64759" lon="3.80307">
        <ele>1128.24</ele>
        <time>2022-08-03T16:36:02Z</time>
      </trkpt>
      <trkpt lat="44.64759" lon="3.80308">
        <ele>1130.17</ele>
        <time>2022-08-03T16:36:27Z</time>
      </trkpt>
      <trkpt lat="44.64759" lon="3.80307">
        <ele>1130.65</ele>
        <time>2022-08-03T16:37:15Z</time>
      </trkpt>
      <trkpt lat="44.64759" lon="3.80307">
        <ele>1129.69</ele>
        <time>2022-08-03T16:37:37Z</time>
      </trkpt>
      <trkpt lat="44.64759" lon="3.8031">
        <ele>1127.76</ele>
        <time>2022-08-03T16:38:04Z</time>
      </trkpt>
      <trkpt lat="44.64759" lon="3.80308">
        <ele>1128.24</ele>
        <time>2022-08-03T16:38:38Z</time>
      </trkpt>
      <trkpt lat="44.64759" lon="3.80309">
        <ele>1131.61</ele>
        <time>2022-08-03T16:39:02Z</time>
      </trkpt>
      <trkpt lat="44.64758" lon="3.80311">
        <ele>1134.49</ele>
        <time>2022-08-03T16:39:37Z</time>
      </trkpt>
      <trkpt lat="44.64756" lon="3.80309">
        <ele>1135.94</ele>
        <time>2022-08-03T16:40:04Z</time>
      </trkpt>
      <trkpt lat="44.64757" lon="3.80308">
        <ele>1137.86</ele>
        <time>2022-08-03T16:40:25Z</time>
      </trkpt>
      <trkpt lat="44.64756" lon="3.80309">
        <ele>1138.82</ele>
        <time>2022-08-03T16:40:54Z</time>
      </trkpt>
      <trkpt lat="44.64755" lon="3.80309">
        <ele>1137.38</ele>
        <time>2022-08-03T16:41:21Z</time>
      </trkpt>
      <trkpt lat="44.64755" lon="3.80312">
        <ele>1136.42</ele>
        <time>2022-08-03T16:41:46Z</time>
      </trkpt>
      <trkpt lat="44.64755" lon="3.80317">
        <ele>1136.9</ele>
        <time>2022-08-03T16:42:10Z</time>
      </trkpt>
      <trkpt lat="44.64756" lon="3.80313">
        <ele>1135.94</ele>
        <time>2022-08-03T16:42:30Z</time>
      </trkpt>
      <trkpt lat="44.64579" lon="3.80303">
        <ele>1125.36</ele>
        <time>2022-08-04T04:59:13Z</time>
      </trkpt>
      <trkpt lat="44.64588" lon="3.80305">
        <ele>1128.73</ele>
        <time>2022-08-04T04:59:25Z</time>
      </trkpt>
      <trkpt lat="44.64601" lon="3.80313">
        <ele>1146.99</ele>
        <time>2022-08-04T04:59:39Z</time>
      </trkpt>
      <trkpt lat="44.64602" lon="3.80313">
        <ele>1146.99</ele>
        <time>2022-08-04T04:59:40Z</time>
      </trkpt>
      <trkpt lat="44.64607" lon="3.80318">
        <ele>1147.95</ele>
        <time>2022-08-04T04:59:44Z</time>
      </trkpt>
      <trkpt lat="44.64622" lon="3.80333">
        <ele>1150.35</ele>
        <time>2022-08-04T05:00:02Z</time>
      </trkpt>
      <trkpt lat="44.64629" lon="3.80341">
        <ele>1150.35</ele>
        <time>2022-08-04T05:00:09Z</time>
      </trkpt>
      <trkpt lat="44.64634" lon="3.80343">
        <ele>1150.35</ele>
        <time>2022-08-04T05:00:14Z</time>
      </trkpt>
      <trkpt lat="44.64649" lon="3.80349">
        <ele>1147.47</ele>
        <time>2022-08-04T05:00:30Z</time>
      </trkpt>
      <trkpt lat="44.64662" lon="3.80355">
        <ele>1148.91</ele>
        <time>2022-08-04T05:00:44Z</time>
      </trkpt>
      <trkpt lat="44.64665" lon="3.80355">
        <ele>1147.95</ele>
        <time>2022-08-04T05:00:46Z</time>
      </trkpt>
      <trkpt lat="44.64684" lon="3.80352">
        <ele>1144.11</ele>
        <time>2022-08-04T05:01:02Z</time>
      </trkpt>
      <trkpt lat="44.64696" lon="3.80346">
        <ele>1142.18</ele>
        <time>2022-08-04T05:01:14Z</time>
      </trkpt>
      <trkpt lat="44.64699" lon="3.80344">
        <ele>1141.22</ele>
        <time>2022-08-04T05:01:30Z</time>
      </trkpt>
      <trkpt lat="44.647" lon="3.80344">
        <ele>1141.22</ele>
        <time>2022-08-04T05:01:54Z</time>
      </trkpt>
      <trkpt lat="44.64697" lon="3.80342">
        <ele>1140.74</ele>
        <time>2022-08-04T05:02:04Z</time>
      </trkpt>
      <trkpt lat="44.64675" lon="3.80344">
        <ele>1135.94</ele>
        <time>2022-08-04T05:02:23Z</time>
      </trkpt>
      <trkpt lat="44.64655" lon="3.80335">
        <ele>1131.13</ele>
        <time>2022-08-04T05:02:39Z</time>
      </trkpt>
      <trkpt lat="44.6464" lon="3.80326">
        <ele>1128.73</ele>
        <time>2022-08-04T05:02:54Z</time>
      </trkpt>
      <trkpt lat="44.6462" lon="3.80323">
        <ele>1128.73</ele>
        <time>2022-08-04T05:03:10Z</time>
      </trkpt>
      <trkpt lat="44.64618" lon="3.80321">
        <ele>1128.24</ele>
        <time>2022-08-04T05:03:18Z</time>
      </trkpt>
      <trkpt lat="44.64604" lon="3.80334">
        <ele>1125.84</ele>
        <time>2022-08-04T05:03:28Z</time>
      </trkpt>
      <trkpt lat="44.64588" lon="3.80354">
        <ele>1123.92</ele>
        <time>2022-08-04T05:03:45Z</time>
      </trkpt>
      <trkpt lat="44.64575" lon="3.80365">
        <ele>1121.52</ele>
        <time>2022-08-04T05:03:57Z</time>
      </trkpt>
      <trkpt lat="44.64566" lon="3.80387">
        <ele>1120.55</ele>
        <time>2022-08-04T05:04:13Z</time>
      </trkpt>
      <trkpt lat="44.64568" lon="3.80411">
        <ele>1120.55</ele>
        <time>2022-08-04T05:04:29Z</time>
      </trkpt>
      <trkpt lat="44.64564" lon="3.80433">
        <ele>1122.96</ele>
        <time>2022-08-04T05:04:44Z</time>
      </trkpt>
      <trkpt lat="44.64562" lon="3.80438">
        <ele>1123.92</ele>
        <time>2022-08-04T05:04:47Z</time>
      </trkpt>
      <trkpt lat="44.6456" lon="3.80442">
        <ele>1124.88</ele>
        <time>2022-08-04T05:04:51Z</time>
      </trkpt>
      <trkpt lat="44.64553" lon="3.80453">
        <ele>1126.8</ele>
        <time>2022-08-04T05:05:02Z</time>
      </trkpt>
      <trkpt lat="44.64542" lon="3.80467">
        <ele>1127.28</ele>
        <time>2022-08-04T05:05:16Z</time>
      </trkpt>
      <trkpt lat="44.64539" lon="3.80472">
        <ele>1127.76</ele>
        <time>2022-08-04T05:05:21Z</time>
      </trkpt>
      <trkpt lat="44.64533" lon="3.80478">
        <ele>1127.76</ele>
        <time>2022-08-04T05:05:28Z</time>
      </trkpt>
      <trkpt lat="44.64532" lon="3.80484">
        <ele>1127.28</ele>
        <time>2022-08-04T05:05:32Z</time>
      </trkpt>
      <trkpt lat="44.64522" lon="3.80494">
        <ele>1127.28</ele>
        <time>2022-08-04T05:05:48Z</time>
      </trkpt>
      <trkpt lat="44.64515" lon="3.80503">
        <ele>1126.32</ele>
        <time>2022-08-04T05:05:57Z</time>
      </trkpt>
      <trkpt lat="44.64514" lon="3.80506">
        <ele>1126.8</ele>
        <time>2022-08-04T05:05:59Z</time>
      </trkpt>
      <trkpt lat="44.64507" lon="3.80514">
        <ele>1125.84</ele>
        <time>2022-08-04T05:06:08Z</time>
      </trkpt>
      <trkpt lat="44.64496" lon="3.80534">
        <ele>1125.36</ele>
        <time>2022-08-04T05:06:24Z</time>
      </trkpt>
      <trkpt lat="44.64489" lon="3.80553">
        <ele>1125.84</ele>
        <time>2022-08-04T05:06:39Z</time>
      </trkpt>
      <trkpt lat="44.64488" lon="3.80579">
        <ele>1124.88</ele>
        <time>2022-08-04T05:06:55Z</time>
      </trkpt>
      <trkpt lat="44.64484" lon="3.80601">
        <ele>1124.88</ele>
        <time>2022-08-04T05:07:11Z</time>
      </trkpt>
      <trkpt lat="44.64478" lon="3.80622">
        <ele>1125.84</ele>
        <time>2022-08-04T05:07:27Z</time>
      </trkpt>
      <trkpt lat="44.64476" lon="3.80639">
        <ele>1127.76</ele>
        <time>2022-08-04T05:07:40Z</time>
      </trkpt>
      <trkpt lat="44.64474" lon="3.80646">
        <ele>1127.76</ele>
        <time>2022-08-04T05:07:46Z</time>
      </trkpt>
      <trkpt lat="44.64473" lon="3.80653">
        <ele>1128.24</ele>
        <time>2022-08-04T05:07:52Z</time>
      </trkpt>
      <trkpt lat="44.64472" lon="3.80674">
        <ele>1130.17</ele>
        <time>2022-08-04T05:08:06Z</time>
      </trkpt>
      <trkpt lat="44.64472" lon="3.80692">
        <ele>1132.09</ele>
        <time>2022-08-04T05:08:20Z</time>
      </trkpt>
      <trkpt lat="44.64472" lon="3.80715">
        <ele>1134.49</ele>
        <time>2022-08-04T05:08:38Z</time>
      </trkpt>
      <trkpt lat="44.64465" lon="3.80735">
        <ele>1138.82</ele>
        <time>2022-08-04T05:08:55Z</time>
      </trkpt>
      <trkpt lat="44.64453" lon="3.80749">
        <ele>1141.7</ele>
        <time>2022-08-04T05:09:11Z</time>
      </trkpt>
      <trkpt lat="44.64449" lon="3.80758">
        <ele>1144.11</ele>
        <time>2022-08-04T05:09:25Z</time>
      </trkpt>
      <trkpt lat="44.64452" lon="3.8076">
        <ele>1146.03</ele>
        <time>2022-08-04T05:09:29Z</time>
      </trkpt>
      <trkpt lat="44.64447" lon="3.80774">
        <ele>1145.55</ele>
        <time>2022-08-04T05:09:46Z</time>
      </trkpt>
      <trkpt lat="44.64445" lon="3.8078">
        <ele>1146.51</ele>
        <time>2022-08-04T05:09:51Z</time>
      </trkpt>
      <trkpt lat="44.64438" lon="3.80804">
        <ele>1145.07</ele>
        <time>2022-08-04T05:10:07Z</time>
      </trkpt>
      <trkpt lat="44.64434" lon="3.80824">
        <ele>1144.59</ele>
        <time>2022-08-04T05:10:20Z</time>
      </trkpt>
      <trkpt lat="44.64433" lon="3.80828">
        <ele>1144.11</ele>
        <time>2022-08-04T05:10:23Z</time>
      </trkpt>
      <trkpt lat="44.64429" lon="3.80847">
        <ele>1146.99</ele>
        <time>2022-08-04T05:10:37Z</time>
      </trkpt>
      <trkpt lat="44.64426" lon="3.80865">
        <ele>1148.91</ele>
        <time>2022-08-04T05:10:50Z</time>
      </trkpt>
      <trkpt lat="44.64419" lon="3.80881">
        <ele>1151.8</ele>
        <time>2022-08-04T05:11:04Z</time>
      </trkpt>
      <trkpt lat="44.64411" lon="3.8089">
        <ele>1154.2</ele>
        <time>2022-08-04T05:11:16Z</time>
      </trkpt>
      <trkpt lat="44.644" lon="3.80902">
        <ele>1155.16</ele>
        <time>2022-08-04T05:11:30Z</time>
      </trkpt>
      <trkpt lat="44.64387" lon="3.80914">
        <ele>1156.12</ele>
        <time>2022-08-04T05:11:47Z</time>
      </trkpt>
      <trkpt lat="44.64371" lon="3.80926">
        <ele>1158.05</ele>
        <time>2022-08-04T05:12:05Z</time>
      </trkpt>
      <trkpt lat="44.64357" lon="3.80938">
        <ele>1159.01</ele>
        <time>2022-08-04T05:12:21Z</time>
      </trkpt>
      <trkpt lat="44.64355" lon="3.8094">
        <ele>1159.01</ele>
        <time>2022-08-04T05:12:23Z</time>
      </trkpt>
      <trkpt lat="44.64346" lon="3.80951">
        <ele>1159.01</ele>
        <time>2022-08-04T05:12:36Z</time>
      </trkpt>
      <trkpt lat="44.64335" lon="3.80958">
        <ele>1159.49</ele>
        <time>2022-08-04T05:12:49Z</time>
      </trkpt>
      <trkpt lat="44.64318" lon="3.8096">
        <ele>1160.93</ele>
        <time>2022-08-04T05:13:04Z</time>
      </trkpt>
      <trkpt lat="44.64313" lon="3.8096">
        <ele>1160.93</ele>
        <time>2022-08-04T05:13:08Z</time>
      </trkpt>
      <trkpt lat="44.643" lon="3.80963">
        <ele>1161.41</ele>
        <time>2022-08-04T05:13:21Z</time>
      </trkpt>
      <trkpt lat="44.64285" lon="3.80963">
        <ele>1162.37</ele>
        <time>2022-08-04T05:13:35Z</time>
      </trkpt>
      <trkpt lat="44.64272" lon="3.80966">
        <ele>1162.85</ele>
        <time>2022-08-04T05:13:49Z</time>
      </trkpt>
      <trkpt lat="44.64258" lon="3.80971">
        <ele>1162.85</ele>
        <time>2022-08-04T05:14:05Z</time>
      </trkpt>
      <trkpt lat="44.64244" lon="3.80977">
        <ele>1163.33</ele>
        <time>2022-08-04T05:14:20Z</time>
      </trkpt>
      <trkpt lat="44.64228" lon="3.8098">
        <ele>1163.33</ele>
        <time>2022-08-04T05:14:36Z</time>
      </trkpt>
      <trkpt lat="44.64214" lon="3.80984">
        <ele>1164.29</ele>
        <time>2022-08-04T05:14:52Z</time>
      </trkpt>
      <trkpt lat="44.64203" lon="3.80994">
        <ele>1164.29</ele>
        <time>2022-08-04T05:15:07Z</time>
      </trkpt>
      <trkpt lat="44.64191" lon="3.81001">
        <ele>1164.77</ele>
        <time>2022-08-04T05:15:21Z</time>
      </trkpt>
      <trkpt lat="44.64177" lon="3.81003">
        <ele>1165.26</ele>
        <time>2022-08-04T05:15:36Z</time>
      </trkpt>
      <trkpt lat="44.64171" lon="3.81009">
        <ele>1165.74</ele>
        <time>2022-08-04T05:15:44Z</time>
      </trkpt>
      <trkpt lat="44.64159" lon="3.81015">
        <ele>1166.7</ele>
        <time>2022-08-04T05:15:59Z</time>
      </trkpt>
      <trkpt lat="44.6415" lon="3.81019">
        <ele>1166.7</ele>
        <time>2022-08-04T05:16:09Z</time>
      </trkpt>
      <trkpt lat="44.64134" lon="3.81025">
        <ele>1167.18</ele>
        <time>2022-08-04T05:16:26Z</time>
      </trkpt>
      <trkpt lat="44.64123" lon="3.81028">
        <ele>1167.18</ele>
        <time>2022-08-04T05:16:38Z</time>
      </trkpt>
      <trkpt lat="44.64108" lon="3.81023">
        <ele>1167.66</ele>
        <time>2022-08-04T05:16:49Z</time>
      </trkpt>
      <trkpt lat="44.64092" lon="3.81029">
        <ele>1168.14</ele>
        <time>2022-08-04T05:17:07Z</time>
      </trkpt>
      <trkpt lat="44.64081" lon="3.81035">
        <ele>1173.91</ele>
        <time>2022-08-04T05:17:21Z</time>
      </trkpt>
      <trkpt lat="44.64071" lon="3.81042">
        <ele>1175.83</ele>
        <time>2022-08-04T05:17:34Z</time>
      </trkpt>
      <trkpt lat="44.6406" lon="3.81047">
        <ele>1177.27</ele>
        <time>2022-08-04T05:17:48Z</time>
      </trkpt>
      <trkpt lat="44.6405" lon="3.81053">
        <ele>1177.75</ele>
        <time>2022-08-04T05:18:01Z</time>
      </trkpt>
      <trkpt lat="44.64039" lon="3.81058">
        <ele>1178.23</ele>
        <time>2022-08-04T05:18:15Z</time>
      </trkpt>
      <trkpt lat="44.64024" lon="3.81067">
        <ele>1178.23</ele>
        <time>2022-08-04T05:18:33Z</time>
      </trkpt>
      <trkpt lat="44.6401" lon="3.81069">
        <ele>1178.23</ele>
        <time>2022-08-04T05:18:47Z</time>
      </trkpt>
      <trkpt lat="44.63996" lon="3.81069">
        <ele>1178.71</ele>
        <time>2022-08-04T05:19:02Z</time>
      </trkpt>
      <trkpt lat="44.63984" lon="3.81075">
        <ele>1179.19</ele>
        <time>2022-08-04T05:19:18Z</time>
      </trkpt>
      <trkpt lat="44.63972" lon="3.81075">
        <ele>1180.64</ele>
        <time>2022-08-04T05:19:34Z</time>
      </trkpt>
      <trkpt lat="44.63963" lon="3.81073">
        <ele>1180.64</ele>
        <time>2022-08-04T05:19:40Z</time>
      </trkpt>
      <trkpt lat="44.63948" lon="3.81072">
        <ele>1181.6</ele>
        <time>2022-08-04T05:19:55Z</time>
      </trkpt>
      <trkpt lat="44.63931" lon="3.81066">
        <ele>1183.04</ele>
        <time>2022-08-04T05:20:11Z</time>
      </trkpt>
      <trkpt lat="44.63923" lon="3.8107">
        <ele>1184</ele>
        <time>2022-08-04T05:20:26Z</time>
      </trkpt>
      <trkpt lat="44.6391" lon="3.81072">
        <ele>1184.48</ele>
        <time>2022-08-04T05:20:39Z</time>
      </trkpt>
      <trkpt lat="44.63898" lon="3.81069">
        <ele>1185.44</ele>
        <time>2022-08-04T05:20:53Z</time>
      </trkpt>
      <trkpt lat="44.63885" lon="3.81074">
        <ele>1186.88</ele>
        <time>2022-08-04T05:21:07Z</time>
      </trkpt>
      <trkpt lat="44.63867" lon="3.81072">
        <ele>1201.3</ele>
        <time>2022-08-04T05:21:23Z</time>
      </trkpt>
      <trkpt lat="44.63852" lon="3.81072">
        <ele>1209.96</ele>
        <time>2022-08-04T05:21:38Z</time>
      </trkpt>
      <trkpt lat="44.63841" lon="3.81082">
        <ele>1210.92</ele>
        <time>2022-08-04T05:21:51Z</time>
      </trkpt>
      <trkpt lat="44.63839" lon="3.81084">
        <ele>1210.92</ele>
        <time>2022-08-04T05:21:54Z</time>
      </trkpt>
      <trkpt lat="44.63832" lon="3.8109">
        <ele>1211.4</ele>
        <time>2022-08-04T05:22:01Z</time>
      </trkpt>
      <trkpt lat="44.63829" lon="3.81099">
        <ele>1211.4</ele>
        <time>2022-08-04T05:22:07Z</time>
      </trkpt>
      <trkpt lat="44.63816" lon="3.81114">
        <ele>1212.84</ele>
        <time>2022-08-04T05:22:23Z</time>
      </trkpt>
      <trkpt lat="44.63806" lon="3.81133">
        <ele>1212.36</ele>
        <time>2022-08-04T05:22:40Z</time>
      </trkpt>
      <trkpt lat="44.63799" lon="3.81149">
        <ele>1211.88</ele>
        <time>2022-08-04T05:22:54Z</time>
      </trkpt>
      <trkpt lat="44.6379" lon="3.81165">
        <ele>1211.4</ele>
        <time>2022-08-04T05:23:08Z</time>
      </trkpt>
      <trkpt lat="44.63782" lon="3.81173">
        <ele>1213.32</ele>
        <time>2022-08-04T05:23:22Z</time>
      </trkpt>
      <trkpt lat="44.63778" lon="3.81186">
        <ele>1215.72</ele>
        <time>2022-08-04T05:23:35Z</time>
      </trkpt>
      <trkpt lat="44.63774" lon="3.81205">
        <ele>1216.69</ele>
        <time>2022-08-04T05:23:51Z</time>
      </trkpt>
      <trkpt lat="44.63769" lon="3.81226">
        <ele>1217.17</ele>
        <time>2022-08-04T05:24:06Z</time>
      </trkpt>
      <trkpt lat="44.63764" lon="3.81246">
        <ele>1214.28</ele>
        <time>2022-08-04T05:24:21Z</time>
      </trkpt>
      <trkpt lat="44.63757" lon="3.81261">
        <ele>1218.13</ele>
        <time>2022-08-04T05:24:35Z</time>
      </trkpt>
      <trkpt lat="44.6375" lon="3.81274">
        <ele>1219.09</ele>
        <time>2022-08-04T05:24:50Z</time>
      </trkpt>
      <trkpt lat="44.63744" lon="3.81289">
        <ele>1219.57</ele>
        <time>2022-08-04T05:25:04Z</time>
      </trkpt>
      <trkpt lat="44.63736" lon="3.81298">
        <ele>1221.01</ele>
        <time>2022-08-04T05:25:17Z</time>
      </trkpt>
      <trkpt lat="44.63728" lon="3.81307">
        <ele>1224.86</ele>
        <time>2022-08-04T05:25:32Z</time>
      </trkpt>
      <trkpt lat="44.63726" lon="3.8131">
        <ele>1225.34</ele>
        <time>2022-08-04T05:25:35Z</time>
      </trkpt>
      <trkpt lat="44.63716" lon="3.8132">
        <ele>1227.26</ele>
        <time>2022-08-04T05:25:50Z</time>
      </trkpt>
      <trkpt lat="44.63707" lon="3.81334">
        <ele>1229.66</ele>
        <time>2022-08-04T05:26:05Z</time>
      </trkpt>
      <trkpt lat="44.63698" lon="3.81347">
        <ele>1231.59</ele>
        <time>2022-08-04T05:26:21Z</time>
      </trkpt>
      <trkpt lat="44.63693" lon="3.81365">
        <ele>1233.99</ele>
        <time>2022-08-04T05:26:36Z</time>
      </trkpt>
      <trkpt lat="44.63691" lon="3.8137">
        <ele>1235.43</ele>
        <time>2022-08-04T05:26:42Z</time>
      </trkpt>
      <trkpt lat="44.63682" lon="3.81387">
        <ele>1240.72</ele>
        <time>2022-08-04T05:26:58Z</time>
      </trkpt>
      <trkpt lat="44.63676" lon="3.81398">
        <ele>1244.56</ele>
        <time>2022-08-04T05:27:11Z</time>
      </trkpt>
      <trkpt lat="44.6367" lon="3.81413">
        <ele>1249.37</ele>
        <time>2022-08-04T05:27:25Z</time>
      </trkpt>
      <trkpt lat="44.63664" lon="3.81427">
        <ele>1251.77</ele>
        <time>2022-08-04T05:27:40Z</time>
      </trkpt>
      <trkpt lat="44.63658" lon="3.81446">
        <ele>1256.58</ele>
        <time>2022-08-04T05:27:55Z</time>
      </trkpt>
      <trkpt lat="44.63654" lon="3.81462">
        <ele>1258.02</ele>
        <time>2022-08-04T05:28:08Z</time>
      </trkpt>
      <trkpt lat="44.63648" lon="3.8148">
        <ele>1260.43</ele>
        <time>2022-08-04T05:28:22Z</time>
      </trkpt>
      <trkpt lat="44.63647" lon="3.815">
        <ele>1261.87</ele>
        <time>2022-08-04T05:28:36Z</time>
      </trkpt>
      <trkpt lat="44.6365" lon="3.81524">
        <ele>1258.02</ele>
        <time>2022-08-04T05:28:49Z</time>
      </trkpt>
      <trkpt lat="44.63654" lon="3.81546">
        <ele>1259.94</ele>
        <time>2022-08-04T05:29:06Z</time>
      </trkpt>
      <trkpt lat="44.63663" lon="3.81562">
        <ele>1259.94</ele>
        <time>2022-08-04T05:29:19Z</time>
      </trkpt>
      <trkpt lat="44.63672" lon="3.81573">
        <ele>1259.94</ele>
        <time>2022-08-04T05:29:36Z</time>
      </trkpt>
      <trkpt lat="44.63676" lon="3.81567">
        <ele>1260.43</ele>
        <time>2022-08-04T05:29:56Z</time>
      </trkpt>
      <trkpt lat="44.63678" lon="3.81567">
        <ele>1258.5</ele>
        <time>2022-08-04T05:30:12Z</time>
      </trkpt>
      <trkpt lat="44.63676" lon="3.81569">
        <ele>1256.58</ele>
        <time>2022-08-04T05:30:53Z</time>
      </trkpt>
      <trkpt lat="44.63673" lon="3.81556">
        <ele>1248.89</ele>
        <time>2022-08-04T05:31:35Z</time>
      </trkpt>
      <trkpt lat="44.63675" lon="3.8156">
        <ele>1256.1</ele>
        <time>2022-08-04T05:32:10Z</time>
      </trkpt>
      <trkpt lat="44.63678" lon="3.81563">
        <ele>1252.74</ele>
        <time>2022-08-04T05:32:43Z</time>
      </trkpt>
      <trkpt lat="44.63673" lon="3.81564">
        <ele>1246.01</ele>
        <time>2022-08-04T05:33:14Z</time>
      </trkpt>
      <trkpt lat="44.63677" lon="3.81566">
        <ele>1243.12</ele>
        <time>2022-08-04T05:33:51Z</time>
      </trkpt>
      <trkpt lat="44.63678" lon="3.81561">
        <ele>1246.97</ele>
        <time>2022-08-04T05:34:22Z</time>
      </trkpt>
      <trkpt lat="44.63677" lon="3.81558">
        <ele>1246.97</ele>
        <time>2022-08-04T05:34:49Z</time>
      </trkpt>
      <trkpt lat="44.63677" lon="3.81565">
        <ele>1248.41</ele>
        <time>2022-08-04T05:35:20Z</time>
      </trkpt>
      <trkpt lat="44.6368" lon="3.81565">
        <ele>1246.97</ele>
        <time>2022-08-04T05:36:03Z</time>
      </trkpt>
      <trkpt lat="44.63677" lon="3.81558">
        <ele>1248.89</ele>
        <time>2022-08-04T05:36:38Z</time>
      </trkpt>
      <trkpt lat="44.63675" lon="3.8156">
        <ele>1244.08</ele>
        <time>2022-08-04T05:37:18Z</time>
      </trkpt>
      <trkpt lat="44.63682" lon="3.81567">
        <ele>1242.64</ele>
        <time>2022-08-04T05:37:52Z</time>
      </trkpt>
      <trkpt lat="44.63675" lon="3.81569">
        <ele>1243.6</ele>
        <time>2022-08-04T05:38:26Z</time>
      </trkpt>
      <trkpt lat="44.63677" lon="3.81563">
        <ele>1246.97</ele>
        <time>2022-08-04T05:38:53Z</time>
      </trkpt>
      <trkpt lat="44.63682" lon="3.81564">
        <ele>1252.25</ele>
        <time>2022-08-04T05:39:11Z</time>
      </trkpt>
      <trkpt lat="44.63679" lon="3.8156">
        <ele>1255.14</ele>
        <time>2022-08-04T05:39:30Z</time>
      </trkpt>
      <trkpt lat="44.63677" lon="3.81561">
        <ele>1253.7</ele>
        <time>2022-08-04T05:39:51Z</time>
      </trkpt>
      <trkpt lat="44.63679" lon="3.81563">
        <ele>1250.81</ele>
        <time>2022-08-04T05:40:12Z</time>
      </trkpt>
      <trkpt lat="44.63685" lon="3.81566">
        <ele>1250.33</ele>
        <time>2022-08-04T05:40:18Z</time>
      </trkpt>
      <trkpt lat="44.63701" lon="3.81566">
        <ele>1249.85</ele>
        <time>2022-08-04T05:40:34Z</time>
      </trkpt>
      <trkpt lat="44.63717" lon="3.81561">
        <ele>1251.29</ele>
        <time>2022-08-04T05:40:48Z</time>
      </trkpt>
      <trkpt lat="44.63734" lon="3.81558">
        <ele>1252.25</ele>
        <time>2022-08-04T05:41:03Z</time>
      </trkpt>
      <trkpt lat="44.6375" lon="3.81555">
        <ele>1254.18</ele>
        <time>2022-08-04T05:41:15Z</time>
      </trkpt>
      <trkpt lat="44.63767" lon="3.81555">
        <ele>1256.58</ele>
        <time>2022-08-04T05:41:28Z</time>
      </trkpt>
      <trkpt lat="44.63787" lon="3.81553">
        <ele>1256.1</ele>
        <time>2022-08-04T05:41:45Z</time>
      </trkpt>
      <trkpt lat="44.63801" lon="3.8156">
        <ele>1254.66</ele>
        <time>2022-08-04T05:41:59Z</time>
      </trkpt>
      <trkpt lat="44.63807" lon="3.81562">
        <ele>1251.77</ele>
        <time>2022-08-04T05:42:06Z</time>
      </trkpt>
      <trkpt lat="44.6382" lon="3.81577">
        <ele>1245.04</ele>
        <time>2022-08-04T05:42:23Z</time>
      </trkpt>
      <trkpt lat="44.6383" lon="3.81592">
        <ele>1238.8</ele>
        <time>2022-08-04T05:42:34Z</time>
      </trkpt>
      <trkpt lat="44.63833" lon="3.81599">
        <ele>1237.35</ele>
        <time>2022-08-04T05:42:39Z</time>
      </trkpt>
      <trkpt lat="44.63836" lon="3.81603">
        <ele>1235.91</ele>
        <time>2022-08-04T05:42:43Z</time>
      </trkpt>
      <trkpt lat="44.63838" lon="3.81608">
        <ele>1235.43</ele>
        <time>2022-08-04T05:42:46Z</time>
      </trkpt>
      <trkpt lat="44.63839" lon="3.81618">
        <ele>1233.51</ele>
        <time>2022-08-04T05:42:51Z</time>
      </trkpt>
      <trkpt lat="44.63846" lon="3.81633">
        <ele>1230.14</ele>
        <time>2022-08-04T05:43:03Z</time>
      </trkpt>
      <trkpt lat="44.63847" lon="3.81634">
        <ele>1230.14</ele>
        <time>2022-08-04T05:43:04Z</time>
      </trkpt>
      <trkpt lat="44.63857" lon="3.8165">
        <ele>1228.22</ele>
        <time>2022-08-04T05:43:18Z</time>
      </trkpt>
      <trkpt lat="44.63873" lon="3.81658">
        <ele>1228.22</ele>
        <time>2022-08-04T05:43:32Z</time>
      </trkpt>
      <trkpt lat="44.63892" lon="3.81667">
        <ele>1229.18</ele>
        <time>2022-08-04T05:43:48Z</time>
      </trkpt>
      <trkpt lat="44.63909" lon="3.81679">
        <ele>1229.66</ele>
        <time>2022-08-04T05:44:04Z</time>
      </trkpt>
      <trkpt lat="44.63923" lon="3.81694">
        <ele>1229.18</ele>
        <time>2022-08-04T05:44:19Z</time>
      </trkpt>
      <trkpt lat="44.63939" lon="3.8171">
        <ele>1228.7</ele>
        <time>2022-08-04T05:44:35Z</time>
      </trkpt>
      <trkpt lat="44.63954" lon="3.81723">
        <ele>1227.74</ele>
        <time>2022-08-04T05:44:50Z</time>
      </trkpt>
      <trkpt lat="44.63967" lon="3.81742">
        <ele>1227.26</ele>
        <time>2022-08-04T05:45:05Z</time>
      </trkpt>
      <trkpt lat="44.63975" lon="3.81755">
        <ele>1226.78</ele>
        <time>2022-08-04T05:45:17Z</time>
      </trkpt>
      <trkpt lat="44.63986" lon="3.8177">
        <ele>1227.74</ele>
        <time>2022-08-04T05:45:31Z</time>
      </trkpt>
      <trkpt lat="44.6399" lon="3.81772">
        <ele>1227.74</ele>
        <time>2022-08-04T05:45:35Z</time>
      </trkpt>
      <trkpt lat="44.64007" lon="3.8179">
        <ele>1224.86</ele>
        <time>2022-08-04T05:45:52Z</time>
      </trkpt>
      <trkpt lat="44.64013" lon="3.81797">
        <ele>1222.93</ele>
        <time>2022-08-04T05:45:59Z</time>
      </trkpt>
      <trkpt lat="44.64019" lon="3.81803">
        <ele>1221.97</ele>
        <time>2022-08-04T05:46:05Z</time>
      </trkpt>
      <trkpt lat="44.64034" lon="3.81821">
        <ele>1221.01</ele>
        <time>2022-08-04T05:46:23Z</time>
      </trkpt>
      <trkpt lat="44.64039" lon="3.81827">
        <ele>1220.05</ele>
        <time>2022-08-04T05:46:29Z</time>
      </trkpt>
      <trkpt lat="44.64045" lon="3.81856">
        <ele>1216.21</ele>
        <time>2022-08-04T05:46:47Z</time>
      </trkpt>
      <trkpt lat="44.64053" lon="3.81875">
        <ele>1215.72</ele>
        <time>2022-08-04T05:47:02Z</time>
      </trkpt>
      <trkpt lat="44.64054" lon="3.81878">
        <ele>1215.72</ele>
        <time>2022-08-04T05:47:04Z</time>
      </trkpt>
      <trkpt lat="44.64052" lon="3.81884">
        <ele>1215.72</ele>
        <time>2022-08-04T05:47:09Z</time>
      </trkpt>
      <trkpt lat="44.64037" lon="3.81889">
        <ele>1214.76</ele>
        <time>2022-08-04T05:47:24Z</time>
      </trkpt>
      <trkpt lat="44.64022" lon="3.81882">
        <ele>1215.24</ele>
        <time>2022-08-04T05:47:40Z</time>
      </trkpt>
      <trkpt lat="44.64004" lon="3.81872">
        <ele>1216.69</ele>
        <time>2022-08-04T05:47:57Z</time>
      </trkpt>
      <trkpt lat="44.63987" lon="3.81869">
        <ele>1217.17</ele>
        <time>2022-08-04T05:48:13Z</time>
      </trkpt>
      <trkpt lat="44.63973" lon="3.8187">
        <ele>1216.69</ele>
        <time>2022-08-04T05:48:26Z</time>
      </trkpt>
      <trkpt lat="44.63958" lon="3.81873">
        <ele>1218.13</ele>
        <time>2022-08-04T05:48:38Z</time>
      </trkpt>
      <trkpt lat="44.63936" lon="3.81866">
        <ele>1218.13</ele>
        <time>2022-08-04T05:48:55Z</time>
      </trkpt>
      <trkpt lat="44.6393" lon="3.81861">
        <ele>1216.21</ele>
        <time>2022-08-04T05:49:04Z</time>
      </trkpt>
      <trkpt lat="44.63924" lon="3.8185">
        <ele>1214.28</ele>
        <time>2022-08-04T05:49:18Z</time>
      </trkpt>
      <trkpt lat="44.63922" lon="3.81846">
        <ele>1213.32</ele>
        <time>2022-08-04T05:49:22Z</time>
      </trkpt>
      <trkpt lat="44.63908" lon="3.81854">
        <ele>1207.07</ele>
        <time>2022-08-04T05:49:39Z</time>
      </trkpt>
      <trkpt lat="44.63899" lon="3.81868">
        <ele>1202.27</ele>
        <time>2022-08-04T05:49:50Z</time>
      </trkpt>
      <trkpt lat="44.63886" lon="3.81887">
        <ele>1199.86</ele>
        <time>2022-08-04T05:50:05Z</time>
      </trkpt>
      <trkpt lat="44.63874" lon="3.81903">
        <ele>1196.98</ele>
        <time>2022-08-04T05:50:20Z</time>
      </trkpt>
      <trkpt lat="44.63871" lon="3.81909">
        <ele>1196.02</ele>
        <time>2022-08-04T05:50:25Z</time>
      </trkpt>
      <trkpt lat="44.63867" lon="3.81915">
        <ele>1195.06</ele>
        <time>2022-08-04T05:50:30Z</time>
      </trkpt>
      <trkpt lat="44.63853" lon="3.81928">
        <ele>1194.09</ele>
        <time>2022-08-04T05:50:45Z</time>
      </trkpt>
      <trkpt lat="44.63843" lon="3.81939">
        <ele>1192.65</ele>
        <time>2022-08-04T05:50:57Z</time>
      </trkpt>
      <trkpt lat="44.63835" lon="3.81946">
        <ele>1191.21</ele>
        <time>2022-08-04T05:51:05Z</time>
      </trkpt>
      <trkpt lat="44.63829" lon="3.81966">
        <ele>1191.21</ele>
        <time>2022-08-04T05:51:22Z</time>
      </trkpt>
      <trkpt lat="44.6382" lon="3.81987">
        <ele>1193.61</ele>
        <time>2022-08-04T05:51:36Z</time>
      </trkpt>
      <trkpt lat="44.63809" lon="3.8201">
        <ele>1192.17</ele>
        <time>2022-08-04T05:51:52Z</time>
      </trkpt>
      <trkpt lat="44.63799" lon="3.82032">
        <ele>1190.25</ele>
        <time>2022-08-04T05:52:08Z</time>
      </trkpt>
      <trkpt lat="44.63799" lon="3.82034">
        <ele>1190.25</ele>
        <time>2022-08-04T05:52:09Z</time>
      </trkpt>
      <trkpt lat="44.6379" lon="3.82046">
        <ele>1189.77</ele>
        <time>2022-08-04T05:52:21Z</time>
      </trkpt>
      <trkpt lat="44.63784" lon="3.82063">
        <ele>1188.81</ele>
        <time>2022-08-04T05:52:34Z</time>
      </trkpt>
      <trkpt lat="44.63782" lon="3.82075">
        <ele>1189.29</ele>
        <time>2022-08-04T05:52:42Z</time>
      </trkpt>
      <trkpt lat="44.63774" lon="3.82092">
        <ele>1189.77</ele>
        <time>2022-08-04T05:52:56Z</time>
      </trkpt>
      <trkpt lat="44.63766" lon="3.82115">
        <ele>1190.73</ele>
        <time>2022-08-04T05:53:12Z</time>
      </trkpt>
      <trkpt lat="44.63764" lon="3.82119">
        <ele>1191.21</ele>
        <time>2022-08-04T05:53:15Z</time>
      </trkpt>
      <trkpt lat="44.63755" lon="3.82141">
        <ele>1189.29</ele>
        <time>2022-08-04T05:53:31Z</time>
      </trkpt>
      <trkpt lat="44.63749" lon="3.82152">
        <ele>1189.77</ele>
        <time>2022-08-04T05:53:39Z</time>
      </trkpt>
      <trkpt lat="44.63741" lon="3.82169">
        <ele>1190.73</ele>
        <time>2022-08-04T05:53:56Z</time>
      </trkpt>
      <trkpt lat="44.63729" lon="3.82186">
        <ele>1189.77</ele>
        <time>2022-08-04T05:54:12Z</time>
      </trkpt>
      <trkpt lat="44.63724" lon="3.82217">
        <ele>1185.44</ele>
        <time>2022-08-04T05:54:28Z</time>
      </trkpt>
      <trkpt lat="44.63723" lon="3.8223">
        <ele>1181.12</ele>
        <time>2022-08-04T05:54:44Z</time>
      </trkpt>
      <trkpt lat="44.63721" lon="3.82229">
        <ele>1179.67</ele>
        <time>2022-08-04T05:55:04Z</time>
      </trkpt>
      <trkpt lat="44.63721" lon="3.82227">
        <ele>1179.19</ele>
        <time>2022-08-04T05:55:06Z</time>
      </trkpt>
      <trkpt lat="44.63718" lon="3.8223">
        <ele>1177.75</ele>
        <time>2022-08-04T05:55:23Z</time>
      </trkpt>
      <trkpt lat="44.63733" lon="3.82234">
        <ele>1174.39</ele>
        <time>2022-08-04T05:55:40Z</time>
      </trkpt>
      <trkpt lat="44.63742" lon="3.82241">
        <ele>1174.39</ele>
        <time>2022-08-04T05:55:53Z</time>
      </trkpt>
      <trkpt lat="44.63746" lon="3.82242">
        <ele>1173.91</ele>
        <time>2022-08-04T05:55:56Z</time>
      </trkpt>
      <trkpt lat="44.63762" lon="3.82248">
        <ele>1174.39</ele>
        <time>2022-08-04T05:56:11Z</time>
      </trkpt>
      <trkpt lat="44.63781" lon="3.82252">
        <ele>1171.02</ele>
        <time>2022-08-04T05:56:25Z</time>
      </trkpt>
      <trkpt lat="44.63799" lon="3.82246">
        <ele>1167.66</ele>
        <time>2022-08-04T05:56:40Z</time>
      </trkpt>
      <trkpt lat="44.63801" lon="3.82243">
        <ele>1166.7</ele>
        <time>2022-08-04T05:56:43Z</time>
      </trkpt>
      <trkpt lat="44.63806" lon="3.8224">
        <ele>1165.26</ele>
        <time>2022-08-04T05:56:46Z</time>
      </trkpt>
      <trkpt lat="44.63814" lon="3.82222">
        <ele>1163.81</ele>
        <time>2022-08-04T05:56:57Z</time>
      </trkpt>
      <trkpt lat="44.63819" lon="3.82201">
        <ele>1161.89</ele>
        <time>2022-08-04T05:57:12Z</time>
      </trkpt>
      <trkpt lat="44.63826" lon="3.8218">
        <ele>1161.89</ele>
        <time>2022-08-04T05:57:28Z</time>
      </trkpt>
      <trkpt lat="44.63833" lon="3.82156">
        <ele>1161.89</ele>
        <time>2022-08-04T05:57:43Z</time>
      </trkpt>
      <trkpt lat="44.63844" lon="3.82138">
        <ele>1161.89</ele>
        <time>2022-08-04T05:57:56Z</time>
      </trkpt>
      <trkpt lat="44.63855" lon="3.82131">
        <ele>1164.77</ele>
        <time>2022-08-04T05:58:08Z</time>
      </trkpt>
      <trkpt lat="44.63867" lon="3.82136">
        <ele>1164.77</ele>
        <time>2022-08-04T05:58:26Z</time>
      </trkpt>
      <trkpt lat="44.63867" lon="3.82137">
        <ele>1165.26</ele>
        <time>2022-08-04T05:58:27Z</time>
      </trkpt>
      <trkpt lat="44.63878" lon="3.82152">
        <ele>1170.06</ele>
        <time>2022-08-04T05:58:43Z</time>
      </trkpt>
      <trkpt lat="44.63887" lon="3.8217">
        <ele>1168.62</ele>
        <time>2022-08-04T05:58:58Z</time>
      </trkpt>
      <trkpt lat="44.63896" lon="3.82191">
        <ele>1166.7</ele>
        <time>2022-08-04T05:59:12Z</time>
      </trkpt>
      <trkpt lat="44.63911" lon="3.82208">
        <ele>1164.29</ele>
        <time>2022-08-04T05:59:27Z</time>
      </trkpt>
      <trkpt lat="44.63927" lon="3.82224">
        <ele>1160.45</ele>
        <time>2022-08-04T05:59:44Z</time>
      </trkpt>
      <trkpt lat="44.63938" lon="3.82239">
        <ele>1159.49</ele>
        <time>2022-08-04T05:59:59Z</time>
      </trkpt>
      <trkpt lat="44.63946" lon="3.82257">
        <ele>1163.33</ele>
        <time>2022-08-04T06:00:15Z</time>
      </trkpt>
      <trkpt lat="44.6395" lon="3.82267">
        <ele>1166.22</ele>
        <time>2022-08-04T06:00:21Z</time>
      </trkpt>
      <trkpt lat="44.63963" lon="3.82289">
        <ele>1166.7</ele>
        <time>2022-08-04T06:00:35Z</time>
      </trkpt>
      <trkpt lat="44.63969" lon="3.82303">
        <ele>1166.7</ele>
        <time>2022-08-04T06:00:49Z</time>
      </trkpt>
      <trkpt lat="44.6397" lon="3.82325">
        <ele>1167.66</ele>
        <time>2022-08-04T06:01:04Z</time>
      </trkpt>
      <trkpt lat="44.6397" lon="3.82329">
        <ele>1167.18</ele>
        <time>2022-08-04T06:01:07Z</time>
      </trkpt>
      <trkpt lat="44.63973" lon="3.82355">
        <ele>1162.37</ele>
        <time>2022-08-04T06:01:23Z</time>
      </trkpt>
      <trkpt lat="44.63974" lon="3.82366">
        <ele>1160.93</ele>
        <time>2022-08-04T06:01:30Z</time>
      </trkpt>
      <trkpt lat="44.63973" lon="3.8238">
        <ele>1160.45</ele>
        <time>2022-08-04T06:01:40Z</time>
      </trkpt>
      <trkpt lat="44.63979" lon="3.82393">
        <ele>1158.05</ele>
        <time>2022-08-04T06:01:49Z</time>
      </trkpt>
      <trkpt lat="44.63985" lon="3.82418">
        <ele>1152.76</ele>
        <time>2022-08-04T06:02:05Z</time>
      </trkpt>
      <trkpt lat="44.6399" lon="3.82434">
        <ele>1147.95</ele>
        <time>2022-08-04T06:02:17Z</time>
      </trkpt>
      <trkpt lat="44.63993" lon="3.82452">
        <ele>1144.11</ele>
        <time>2022-08-04T06:02:29Z</time>
      </trkpt>
      <trkpt lat="44.63998" lon="3.8247">
        <ele>1142.66</ele>
        <time>2022-08-04T06:02:40Z</time>
      </trkpt>
      <trkpt lat="44.64002" lon="3.8249">
        <ele>1140.74</ele>
        <time>2022-08-04T06:02:53Z</time>
      </trkpt>
      <trkpt lat="44.64004" lon="3.82493">
        <ele>1139.78</ele>
        <time>2022-08-04T06:02:56Z</time>
      </trkpt>
      <trkpt lat="44.64012" lon="3.82516">
        <ele>1134.97</ele>
        <time>2022-08-04T06:03:12Z</time>
      </trkpt>
      <trkpt lat="44.64017" lon="3.82531">
        <ele>1133.53</ele>
        <time>2022-08-04T06:03:23Z</time>
      </trkpt>
      <trkpt lat="44.6402" lon="3.82536">
        <ele>1132.57</ele>
        <time>2022-08-04T06:03:27Z</time>
      </trkpt>
      <trkpt lat="44.64022" lon="3.82537">
        <ele>1131.61</ele>
        <time>2022-08-04T06:03:29Z</time>
      </trkpt>
      <trkpt lat="44.64033" lon="3.82556">
        <ele>1127.28</ele>
        <time>2022-08-04T06:03:46Z</time>
      </trkpt>
      <trkpt lat="44.64033" lon="3.82575">
        <ele>1127.28</ele>
        <time>2022-08-04T06:03:57Z</time>
      </trkpt>
      <trkpt lat="44.64024" lon="3.82605">
        <ele>1136.42</ele>
        <time>2022-08-04T06:04:13Z</time>
      </trkpt>
      <trkpt lat="44.6402" lon="3.82618">
        <ele>1141.7</ele>
        <time>2022-08-04T06:04:21Z</time>
      </trkpt>
      <trkpt lat="44.64015" lon="3.82642">
        <ele>1146.03</ele>
        <time>2022-08-04T06:04:36Z</time>
      </trkpt>
      <trkpt lat="44.64013" lon="3.82664">
        <ele>1149.87</ele>
        <time>2022-08-04T06:04:50Z</time>
      </trkpt>
      <trkpt lat="44.64011" lon="3.82684">
        <ele>1153.72</ele>
        <time>2022-08-04T06:05:04Z</time>
      </trkpt>
      <trkpt lat="44.64013" lon="3.82703">
        <ele>1155.16</ele>
        <time>2022-08-04T06:05:16Z</time>
      </trkpt>
      <trkpt lat="44.64014" lon="3.82708">
        <ele>1155.64</ele>
        <time>2022-08-04T06:05:20Z</time>
      </trkpt>
      <trkpt lat="44.64019" lon="3.82731">
        <ele>1152.76</ele>
        <time>2022-08-04T06:05:33Z</time>
      </trkpt>
      <trkpt lat="44.64028" lon="3.82761">
        <ele>1145.07</ele>
        <time>2022-08-04T06:05:48Z</time>
      </trkpt>
      <trkpt lat="44.64034" lon="3.82783">
        <ele>1141.22</ele>
        <time>2022-08-04T06:06:04Z</time>
      </trkpt>
      <trkpt lat="44.64034" lon="3.82797">
        <ele>1141.7</ele>
        <time>2022-08-04T06:06:12Z</time>
      </trkpt>
      <trkpt lat="44.64037" lon="3.82819">
        <ele>1141.7</ele>
        <time>2022-08-04T06:06:27Z</time>
      </trkpt>
      <trkpt lat="44.64037" lon="3.8282">
        <ele>1142.18</ele>
        <time>2022-08-04T06:06:28Z</time>
      </trkpt>
      <trkpt lat="44.64046" lon="3.82844">
        <ele>1137.86</ele>
        <time>2022-08-04T06:06:45Z</time>
      </trkpt>
      <trkpt lat="44.64046" lon="3.82845">
        <ele>1136.9</ele>
        <time>2022-08-04T06:06:46Z</time>
      </trkpt>
      <trkpt lat="44.64059" lon="3.82861">
        <ele>1132.09</ele>
        <time>2022-08-04T06:07:00Z</time>
      </trkpt>
      <trkpt lat="44.64074" lon="3.82875">
        <ele>1129.69</ele>
        <time>2022-08-04T06:07:16Z</time>
      </trkpt>
      <trkpt lat="44.64088" lon="3.82885">
        <ele>1130.17</ele>
        <time>2022-08-04T06:07:31Z</time>
      </trkpt>
      <trkpt lat="44.64105" lon="3.82891">
        <ele>1131.61</ele>
        <time>2022-08-04T06:07:46Z</time>
      </trkpt>
      <trkpt lat="44.64112" lon="3.82893">
        <ele>1133.53</ele>
        <time>2022-08-04T06:07:54Z</time>
      </trkpt>
      <trkpt lat="44.64124" lon="3.82901">
        <ele>1135.94</ele>
        <time>2022-08-04T06:08:09Z</time>
      </trkpt>
      <trkpt lat="44.64138" lon="3.82911">
        <ele>1136.42</ele>
        <time>2022-08-04T06:08:23Z</time>
      </trkpt>
      <trkpt lat="44.64153" lon="3.82916">
        <ele>1137.86</ele>
        <time>2022-08-04T06:08:37Z</time>
      </trkpt>
      <trkpt lat="44.64166" lon="3.82922">
        <ele>1142.18</ele>
        <time>2022-08-04T06:08:49Z</time>
      </trkpt>
      <trkpt lat="44.64181" lon="3.82926">
        <ele>1145.55</ele>
        <time>2022-08-04T06:09:04Z</time>
      </trkpt>
      <trkpt lat="44.64194" lon="3.82929">
        <ele>1145.07</ele>
        <time>2022-08-04T06:09:16Z</time>
      </trkpt>
      <trkpt lat="44.64211" lon="3.82932">
        <ele>1141.22</ele>
        <time>2022-08-04T06:09:27Z</time>
      </trkpt>
      <trkpt lat="44.64225" lon="3.82932">
        <ele>1140.74</ele>
        <time>2022-08-04T06:09:41Z</time>
      </trkpt>
      <trkpt lat="44.64234" lon="3.82934">
        <ele>1143.63</ele>
        <time>2022-08-04T06:09:54Z</time>
      </trkpt>
      <trkpt lat="44.64249" lon="3.82937">
        <ele>1143.14</ele>
        <time>2022-08-04T06:10:09Z</time>
      </trkpt>
      <trkpt lat="44.64269" lon="3.82939">
        <ele>1139.3</ele>
        <time>2022-08-04T06:10:24Z</time>
      </trkpt>
      <trkpt lat="44.64297" lon="3.82928">
        <ele>1130.17</ele>
        <time>2022-08-04T06:10:39Z</time>
      </trkpt>
      <trkpt lat="44.64308" lon="3.82922">
        <ele>1126.32</ele>
        <time>2022-08-04T06:10:47Z</time>
      </trkpt>
      <trkpt lat="44.64321" lon="3.829">
        <ele>1119.59</ele>
        <time>2022-08-04T06:11:03Z</time>
      </trkpt>
      <trkpt lat="44.64332" lon="3.82882">
        <ele>1116.23</ele>
        <time>2022-08-04T06:11:17Z</time>
      </trkpt>
      <trkpt lat="44.64336" lon="3.82874">
        <ele>1113.34</ele>
        <time>2022-08-04T06:11:22Z</time>
      </trkpt>
      <trkpt lat="44.64345" lon="3.82861">
        <ele>1111.9</ele>
        <time>2022-08-04T06:11:35Z</time>
      </trkpt>
      <trkpt lat="44.64351" lon="3.82859">
        <ele>1111.42</ele>
        <time>2022-08-04T06:11:40Z</time>
      </trkpt>
      <trkpt lat="44.64348" lon="3.82875">
        <ele>1109.98</ele>
        <time>2022-08-04T06:11:54Z</time>
      </trkpt>
      <trkpt lat="44.64343" lon="3.82897">
        <ele>1105.65</ele>
        <time>2022-08-04T06:12:09Z</time>
      </trkpt>
      <trkpt lat="44.6434" lon="3.82918">
        <ele>1102.77</ele>
        <time>2022-08-04T06:12:24Z</time>
      </trkpt>
      <trkpt lat="44.64332" lon="3.82942">
        <ele>1100.37</ele>
        <time>2022-08-04T06:12:40Z</time>
      </trkpt>
      <trkpt lat="44.64324" lon="3.82965">
        <ele>1100.37</ele>
        <time>2022-08-04T06:12:56Z</time>
      </trkpt>
      <trkpt lat="44.64316" lon="3.82982">
        <ele>1099.89</ele>
        <time>2022-08-04T06:13:09Z</time>
      </trkpt>
      <trkpt lat="44.64296" lon="3.83">
        <ele>1098.92</ele>
        <time>2022-08-04T06:13:26Z</time>
      </trkpt>
      <trkpt lat="44.64281" lon="3.83014">
        <ele>1095.08</ele>
        <time>2022-08-04T06:13:46Z</time>
      </trkpt>
      <trkpt lat="44.64264" lon="3.8303">
        <ele>1089.79</ele>
        <time>2022-08-04T06:14:05Z</time>
      </trkpt>
      <trkpt lat="44.64253" lon="3.83052">
        <ele>1090.75</ele>
        <time>2022-08-04T06:14:20Z</time>
      </trkpt>
      <trkpt lat="44.6425" lon="3.83077">
        <ele>1089.79</ele>
        <time>2022-08-04T06:14:35Z</time>
      </trkpt>
      <trkpt lat="44.64254" lon="3.83102">
        <ele>1088.83</ele>
        <time>2022-08-04T06:14:51Z</time>
      </trkpt>
      <trkpt lat="44.64259" lon="3.83133">
        <ele>1087.39</ele>
        <time>2022-08-04T06:15:09Z</time>
      </trkpt>
      <trkpt lat="44.64264" lon="3.83155">
        <ele>1086.91</ele>
        <time>2022-08-04T06:15:23Z</time>
      </trkpt>
      <trkpt lat="44.64261" lon="3.83184">
        <ele>1084.99</ele>
        <time>2022-08-04T06:15:43Z</time>
      </trkpt>
      <trkpt lat="44.64259" lon="3.83189">
        <ele>1084.99</ele>
        <time>2022-08-04T06:15:46Z</time>
      </trkpt>
      <trkpt lat="44.64253" lon="3.83201">
        <ele>1083.06</ele>
        <time>2022-08-04T06:15:56Z</time>
      </trkpt>
      <trkpt lat="44.64242" lon="3.83226">
        <ele>1086.43</ele>
        <time>2022-08-04T06:16:15Z</time>
      </trkpt>
      <trkpt lat="44.64246" lon="3.83248">
        <ele>1088.35</ele>
        <time>2022-08-04T06:16:32Z</time>
      </trkpt>
      <trkpt lat="44.64259" lon="3.83272">
        <ele>1094.12</ele>
        <time>2022-08-04T06:16:52Z</time>
      </trkpt>
      <trkpt lat="44.64272" lon="3.83283">
        <ele>1097</ele>
        <time>2022-08-04T06:17:12Z</time>
      </trkpt>
      <trkpt lat="44.64291" lon="3.83301">
        <ele>1098.92</ele>
        <time>2022-08-04T06:17:32Z</time>
      </trkpt>
      <trkpt lat="44.64294" lon="3.83318">
        <ele>1101.81</ele>
        <time>2022-08-04T06:17:52Z</time>
      </trkpt>
      <trkpt lat="44.64301" lon="3.83324">
        <ele>1103.25</ele>
        <time>2022-08-04T06:18:08Z</time>
      </trkpt>
      <trkpt lat="44.64312" lon="3.83328">
        <ele>1104.21</ele>
        <time>2022-08-04T06:18:23Z</time>
      </trkpt>
      <trkpt lat="44.6432" lon="3.83336">
        <ele>1107.1</ele>
        <time>2022-08-04T06:18:38Z</time>
      </trkpt>
      <trkpt lat="44.64325" lon="3.83344">
        <ele>1109.98</ele>
        <time>2022-08-04T06:18:54Z</time>
      </trkpt>
      <trkpt lat="44.64334" lon="3.83356">
        <ele>1113.34</ele>
        <time>2022-08-04T06:19:15Z</time>
      </trkpt>
      <trkpt lat="44.64341" lon="3.83362">
        <ele>1116.23</ele>
        <time>2022-08-04T06:19:32Z</time>
      </trkpt>
      <trkpt lat="44.64352" lon="3.83365">
        <ele>1117.67</ele>
        <time>2022-08-04T06:19:47Z</time>
      </trkpt>
      <trkpt lat="44.6436" lon="3.8337">
        <ele>1119.59</ele>
        <time>2022-08-04T06:20:01Z</time>
      </trkpt>
      <trkpt lat="44.64371" lon="3.83374">
        <ele>1122.48</ele>
        <time>2022-08-04T06:20:19Z</time>
      </trkpt>
      <trkpt lat="44.64383" lon="3.8338">
        <ele>1123.44</ele>
        <time>2022-08-04T06:20:36Z</time>
      </trkpt>
      <trkpt lat="44.64396" lon="3.8339">
        <ele>1124.88</ele>
        <time>2022-08-04T06:20:55Z</time>
      </trkpt>
      <trkpt lat="44.64409" lon="3.83397">
        <ele>1125.36</ele>
        <time>2022-08-04T06:21:13Z</time>
      </trkpt>
      <trkpt lat="44.64423" lon="3.83405">
        <ele>1127.76</ele>
        <time>2022-08-04T06:21:32Z</time>
      </trkpt>
      <trkpt lat="44.64436" lon="3.83411">
        <ele>1130.65</ele>
        <time>2022-08-04T06:21:49Z</time>
      </trkpt>
      <trkpt lat="44.64448" lon="3.83418">
        <ele>1134.49</ele>
        <time>2022-08-04T06:22:08Z</time>
      </trkpt>
      <trkpt lat="44.64462" lon="3.83422">
        <ele>1136.9</ele>
        <time>2022-08-04T06:22:26Z</time>
      </trkpt>
      <trkpt lat="44.64479" lon="3.83422">
        <ele>1138.82</ele>
        <time>2022-08-04T06:22:44Z</time>
      </trkpt>
      <trkpt lat="44.64494" lon="3.83413">
        <ele>1139.3</ele>
        <time>2022-08-04T06:22:59Z</time>
      </trkpt>
      <trkpt lat="44.64501" lon="3.83412">
        <ele>1139.78</ele>
        <time>2022-08-04T06:23:08Z</time>
      </trkpt>
      <trkpt lat="44.64513" lon="3.8341">
        <ele>1140.74</ele>
        <time>2022-08-04T06:23:21Z</time>
      </trkpt>
      <trkpt lat="44.64517" lon="3.83408">
        <ele>1143.63</ele>
        <time>2022-08-04T06:23:39Z</time>
      </trkpt>
      <trkpt lat="44.64515" lon="3.83407">
        <ele>1143.63</ele>
        <time>2022-08-04T06:24:05Z</time>
      </trkpt>
      <trkpt lat="44.64514" lon="3.83405">
        <ele>1144.59</ele>
        <time>2022-08-04T06:24:30Z</time>
      </trkpt>
      <trkpt lat="44.64512" lon="3.83402">
        <ele>1147.47</ele>
        <time>2022-08-04T06:24:52Z</time>
      </trkpt>
      <trkpt lat="44.64514" lon="3.83401">
        <ele>1147.47</ele>
        <time>2022-08-04T06:25:11Z</time>
      </trkpt>
      <trkpt lat="44.64531" lon="3.83411">
        <ele>1144.59</ele>
        <time>2022-08-04T06:25:28Z</time>
      </trkpt>
      <trkpt lat="44.64544" lon="3.83415">
        <ele>1146.51</ele>
        <time>2022-08-04T06:25:42Z</time>
      </trkpt>
      <trkpt lat="44.64559" lon="3.83412">
        <ele>1148.43</ele>
        <time>2022-08-04T06:25:58Z</time>
      </trkpt>
      <trkpt lat="44.64567" lon="3.83405">
        <ele>1147.95</ele>
        <time>2022-08-04T06:26:06Z</time>
      </trkpt>
      <trkpt lat="44.64564" lon="3.83393">
        <ele>1144.11</ele>
        <time>2022-08-04T06:26:22Z</time>
      </trkpt>
      <trkpt lat="44.64578" lon="3.83404">
        <ele>1144.59</ele>
        <time>2022-08-04T06:26:42Z</time>
      </trkpt>
      <trkpt lat="44.64596" lon="3.83401">
        <ele>1146.99</ele>
        <time>2022-08-04T06:26:58Z</time>
      </trkpt>
      <trkpt lat="44.64597" lon="3.834">
        <ele>1146.99</ele>
        <time>2022-08-04T06:26:59Z</time>
      </trkpt>
      <trkpt lat="44.6461" lon="3.83389">
        <ele>1147.47</ele>
        <time>2022-08-04T06:27:13Z</time>
      </trkpt>
      <trkpt lat="44.64628" lon="3.83383">
        <ele>1149.87</ele>
        <time>2022-08-04T06:27:31Z</time>
      </trkpt>
      <trkpt lat="44.64644" lon="3.8338">
        <ele>1150.84</ele>
        <time>2022-08-04T06:27:48Z</time>
      </trkpt>
      <trkpt lat="44.64661" lon="3.8337">
        <ele>1149.87</ele>
        <time>2022-08-04T06:28:05Z</time>
      </trkpt>
      <trkpt lat="44.64678" lon="3.83361">
        <ele>1149.39</ele>
        <time>2022-08-04T06:28:22Z</time>
      </trkpt>
      <trkpt lat="44.64694" lon="3.83351">
        <ele>1148.91</ele>
        <time>2022-08-04T06:28:39Z</time>
      </trkpt>
      <trkpt lat="44.64707" lon="3.8335">
        <ele>1149.39</ele>
        <time>2022-08-04T06:28:53Z</time>
      </trkpt>
      <trkpt lat="44.64725" lon="3.83344">
        <ele>1154.68</ele>
        <time>2022-08-04T06:29:13Z</time>
      </trkpt>
      <trkpt lat="44.64742" lon="3.83341">
        <ele>1158.05</ele>
        <time>2022-08-04T06:29:31Z</time>
      </trkpt>
      <trkpt lat="44.6476" lon="3.83336">
        <ele>1158.05</ele>
        <time>2022-08-04T06:29:48Z</time>
      </trkpt>
      <trkpt lat="44.64774" lon="3.83329">
        <ele>1158.05</ele>
        <time>2022-08-04T06:30:03Z</time>
      </trkpt>
      <trkpt lat="44.6479" lon="3.8332">
        <ele>1159.97</ele>
        <time>2022-08-04T06:30:18Z</time>
      </trkpt>
      <trkpt lat="44.648" lon="3.83315">
        <ele>1159.97</ele>
        <time>2022-08-04T06:30:28Z</time>
      </trkpt>
      <trkpt lat="44.64804" lon="3.8331">
        <ele>1160.45</ele>
        <time>2022-08-04T06:30:33Z</time>
      </trkpt>
      <trkpt lat="44.64819" lon="3.83299">
        <ele>1161.41</ele>
        <time>2022-08-04T06:30:49Z</time>
      </trkpt>
      <trkpt lat="44.64835" lon="3.83291">
        <ele>1164.29</ele>
        <time>2022-08-04T06:31:06Z</time>
      </trkpt>
      <trkpt lat="44.64854" lon="3.83287">
        <ele>1166.7</ele>
        <time>2022-08-04T06:31:24Z</time>
      </trkpt>
      <trkpt lat="44.64871" lon="3.83287">
        <ele>1168.14</ele>
        <time>2022-08-04T06:31:40Z</time>
      </trkpt>
      <trkpt lat="44.64889" lon="3.83296">
        <ele>1169.58</ele>
        <time>2022-08-04T06:31:57Z</time>
      </trkpt>
      <trkpt lat="44.64904" lon="3.83312">
        <ele>1169.58</ele>
        <time>2022-08-04T06:32:14Z</time>
      </trkpt>
      <trkpt lat="44.64917" lon="3.8333">
        <ele>1169.58</ele>
        <time>2022-08-04T06:32:31Z</time>
      </trkpt>
      <trkpt lat="44.64932" lon="3.83348">
        <ele>1167.66</ele>
        <time>2022-08-04T06:32:49Z</time>
      </trkpt>
      <trkpt lat="44.64948" lon="3.83377">
        <ele>1166.7</ele>
        <time>2022-08-04T06:33:11Z</time>
      </trkpt>
      <trkpt lat="44.64959" lon="3.83405">
        <ele>1166.7</ele>
        <time>2022-08-04T06:33:30Z</time>
      </trkpt>
      <trkpt lat="44.64971" lon="3.83433">
        <ele>1166.7</ele>
        <time>2022-08-04T06:33:51Z</time>
      </trkpt>
      <trkpt lat="44.64981" lon="3.83459">
        <ele>1165.74</ele>
        <time>2022-08-04T06:34:10Z</time>
      </trkpt>
      <trkpt lat="44.64994" lon="3.83487">
        <ele>1164.77</ele>
        <time>2022-08-04T06:34:30Z</time>
      </trkpt>
      <trkpt lat="44.65006" lon="3.83511">
        <ele>1164.29</ele>
        <time>2022-08-04T06:34:49Z</time>
      </trkpt>
      <trkpt lat="44.65025" lon="3.83534">
        <ele>1164.29</ele>
        <time>2022-08-04T06:35:12Z</time>
      </trkpt>
      <trkpt lat="44.65032" lon="3.83539">
        <ele>1165.26</ele>
        <time>2022-08-04T06:35:19Z</time>
      </trkpt>
      <trkpt lat="44.65052" lon="3.83552">
        <ele>1167.18</ele>
        <time>2022-08-04T06:35:41Z</time>
      </trkpt>
      <trkpt lat="44.65067" lon="3.83563">
        <ele>1169.1</ele>
        <time>2022-08-04T06:35:57Z</time>
      </trkpt>
      <trkpt lat="44.65085" lon="3.83576">
        <ele>1173.43</ele>
        <time>2022-08-04T06:36:17Z</time>
      </trkpt>
      <trkpt lat="44.65101" lon="3.83592">
        <ele>1176.31</ele>
        <time>2022-08-04T06:36:37Z</time>
      </trkpt>
      <trkpt lat="44.65112" lon="3.83604">
        <ele>1176.31</ele>
        <time>2022-08-04T06:36:50Z</time>
      </trkpt>
      <trkpt lat="44.65129" lon="3.83627">
        <ele>1177.75</ele>
        <time>2022-08-04T06:37:11Z</time>
      </trkpt>
      <trkpt lat="44.65136" lon="3.83642">
        <ele>1177.75</ele>
        <time>2022-08-04T06:37:27Z</time>
      </trkpt>
      <trkpt lat="44.65138" lon="3.83642">
        <ele>1177.75</ele>
        <time>2022-08-04T06:37:52Z</time>
      </trkpt>
      <trkpt lat="44.6514" lon="3.83643">
        <ele>1174.87</ele>
        <time>2022-08-04T06:38:11Z</time>
      </trkpt>
      <trkpt lat="44.65143" lon="3.83638">
        <ele>1172.47</ele>
        <time>2022-08-04T06:38:47Z</time>
      </trkpt>
      <trkpt lat="44.65146" lon="3.83637">
        <ele>1175.83</ele>
        <time>2022-08-04T06:39:21Z</time>
      </trkpt>
      <trkpt lat="44.65142" lon="3.8364">
        <ele>1174.39</ele>
        <time>2022-08-04T06:39:54Z</time>
      </trkpt>
      <trkpt lat="44.65143" lon="3.83636">
        <ele>1175.35</ele>
        <time>2022-08-04T06:40:35Z</time>
      </trkpt>
      <trkpt lat="44.65141" lon="3.83632">
        <ele>1170.06</ele>
        <time>2022-08-04T06:41:17Z</time>
      </trkpt>
      <trkpt lat="44.65139" lon="3.83645">
        <ele>1167.18</ele>
        <time>2022-08-04T06:41:53Z</time>
      </trkpt>
      <trkpt lat="44.6514" lon="3.83642">
        <ele>1174.39</ele>
        <time>2022-08-04T06:42:33Z</time>
      </trkpt>
      <trkpt lat="44.65143" lon="3.83638">
        <ele>1174.87</ele>
        <time>2022-08-04T06:43:13Z</time>
      </trkpt>
      <trkpt lat="44.65141" lon="3.83642">
        <ele>1171.98</ele>
        <time>2022-08-04T06:43:48Z</time>
      </trkpt>
      <trkpt lat="44.65142" lon="3.83639">
        <ele>1174.87</ele>
        <time>2022-08-04T06:44:29Z</time>
      </trkpt>
      <trkpt lat="44.65142" lon="3.83637">
        <ele>1176.31</ele>
        <time>2022-08-04T06:45:01Z</time>
      </trkpt>
      <trkpt lat="44.65141" lon="3.83635">
        <ele>1173.43</ele>
        <time>2022-08-04T06:45:29Z</time>
      </trkpt>
      <trkpt lat="44.65139" lon="3.83635">
        <ele>1171.98</ele>
        <time>2022-08-04T06:45:45Z</time>
      </trkpt>
      <trkpt lat="44.65137" lon="3.83637">
        <ele>1172.47</ele>
        <time>2022-08-04T06:46:07Z</time>
      </trkpt>
      <trkpt lat="44.65137" lon="3.83638">
        <ele>1172.95</ele>
        <time>2022-08-04T06:46:28Z</time>
      </trkpt>
      <trkpt lat="44.65135" lon="3.83637">
        <ele>1175.35</ele>
        <time>2022-08-04T06:46:53Z</time>
      </trkpt>
      <trkpt lat="44.65127" lon="3.83635">
        <ele>1174.87</ele>
        <time>2022-08-04T06:47:11Z</time>
      </trkpt>
      <trkpt lat="44.65112" lon="3.8364">
        <ele>1176.31</ele>
        <time>2022-08-04T06:47:30Z</time>
      </trkpt>
      <trkpt lat="44.65095" lon="3.83646">
        <ele>1178.23</ele>
        <time>2022-08-04T06:47:51Z</time>
      </trkpt>
      <trkpt lat="44.65076" lon="3.83652">
        <ele>1180.16</ele>
        <time>2022-08-04T06:48:13Z</time>
      </trkpt>
      <trkpt lat="44.65061" lon="3.83659">
        <ele>1183.52</ele>
        <time>2022-08-04T06:48:31Z</time>
      </trkpt>
      <trkpt lat="44.65044" lon="3.83665">
        <ele>1187.37</ele>
        <time>2022-08-04T06:48:49Z</time>
      </trkpt>
      <trkpt lat="44.65027" lon="3.83675">
        <ele>1188.81</ele>
        <time>2022-08-04T06:49:09Z</time>
      </trkpt>
      <trkpt lat="44.65012" lon="3.83688">
        <ele>1189.29</ele>
        <time>2022-08-04T06:49:28Z</time>
      </trkpt>
      <trkpt lat="44.65" lon="3.83698">
        <ele>1189.77</ele>
        <time>2022-08-04T06:49:42Z</time>
      </trkpt>
      <trkpt lat="44.64984" lon="3.83707">
        <ele>1189.77</ele>
        <time>2022-08-04T06:50:00Z</time>
      </trkpt>
      <trkpt lat="44.6497" lon="3.83717">
        <ele>1190.25</ele>
        <time>2022-08-04T06:50:16Z</time>
      </trkpt>
      <trkpt lat="44.64955" lon="3.83723">
        <ele>1192.65</ele>
        <time>2022-08-04T06:50:33Z</time>
      </trkpt>
      <trkpt lat="44.64941" lon="3.83731">
        <ele>1194.09</ele>
        <time>2022-08-04T06:50:49Z</time>
      </trkpt>
      <trkpt lat="44.64927" lon="3.83739">
        <ele>1195.54</ele>
        <time>2022-08-04T06:51:06Z</time>
      </trkpt>
      <trkpt lat="44.64914" lon="3.83748">
        <ele>1196.02</ele>
        <time>2022-08-04T06:51:23Z</time>
      </trkpt>
      <trkpt lat="44.64904" lon="3.83753">
        <ele>1197.46</ele>
        <time>2022-08-04T06:51:41Z</time>
      </trkpt>
      <trkpt lat="44.64904" lon="3.83752">
        <ele>1196.5</ele>
        <time>2022-08-04T06:52:17Z</time>
      </trkpt>
      <trkpt lat="44.64905" lon="3.83753">
        <ele>1195.06</ele>
        <time>2022-08-04T06:52:38Z</time>
      </trkpt>
      <trkpt lat="44.64899" lon="3.83757">
        <ele>1194.58</ele>
        <time>2022-08-04T06:53:01Z</time>
      </trkpt>
      <trkpt lat="44.64884" lon="3.83768">
        <ele>1196.5</ele>
        <time>2022-08-04T06:53:17Z</time>
      </trkpt>
      <trkpt lat="44.64868" lon="3.83783">
        <ele>1198.42</ele>
        <time>2022-08-04T06:53:35Z</time>
      </trkpt>
      <trkpt lat="44.64858" lon="3.83801">
        <ele>1200.82</ele>
        <time>2022-08-04T06:53:50Z</time>
      </trkpt>
      <trkpt lat="44.64857" lon="3.83808">
        <ele>1201.3</ele>
        <time>2022-08-04T06:53:55Z</time>
      </trkpt>
      <trkpt lat="44.64848" lon="3.83831">
        <ele>1202.75</ele>
        <time>2022-08-04T06:54:13Z</time>
      </trkpt>
      <trkpt lat="44.64838" lon="3.83856">
        <ele>1203.23</ele>
        <time>2022-08-04T06:54:32Z</time>
      </trkpt>
      <trkpt lat="44.64832" lon="3.83881">
        <ele>1203.71</ele>
        <time>2022-08-04T06:54:50Z</time>
      </trkpt>
      <trkpt lat="44.64824" lon="3.83911">
        <ele>1203.23</ele>
        <time>2022-08-04T06:55:11Z</time>
      </trkpt>
      <trkpt lat="44.64821" lon="3.8394">
        <ele>1202.75</ele>
        <time>2022-08-04T06:55:30Z</time>
      </trkpt>
      <trkpt lat="44.64818" lon="3.83967">
        <ele>1201.79</ele>
        <time>2022-08-04T06:55:48Z</time>
      </trkpt>
      <trkpt lat="44.64814" lon="3.83994">
        <ele>1201.79</ele>
        <time>2022-08-04T06:56:06Z</time>
      </trkpt>
      <trkpt lat="44.6481" lon="3.8402">
        <ele>1200.82</ele>
        <time>2022-08-04T06:56:24Z</time>
      </trkpt>
      <trkpt lat="44.64809" lon="3.84023">
        <ele>1200.34</ele>
        <time>2022-08-04T06:56:26Z</time>
      </trkpt>
      <trkpt lat="44.64808" lon="3.84053">
        <ele>1199.86</ele>
        <time>2022-08-04T06:56:44Z</time>
      </trkpt>
      <trkpt lat="44.64806" lon="3.84071">
        <ele>1199.86</ele>
        <time>2022-08-04T06:56:56Z</time>
      </trkpt>
      <trkpt lat="44.64805" lon="3.84077">
        <ele>1199.38</ele>
        <time>2022-08-04T06:57:00Z</time>
      </trkpt>
      <trkpt lat="44.64805" lon="3.84101">
        <ele>1198.9</ele>
        <time>2022-08-04T06:57:16Z</time>
      </trkpt>
      <trkpt lat="44.64801" lon="3.84123">
        <ele>1198.42</ele>
        <time>2022-08-04T06:57:31Z</time>
      </trkpt>
      <trkpt lat="44.64797" lon="3.84142">
        <ele>1198.42</ele>
        <time>2022-08-04T06:57:45Z</time>
      </trkpt>
      <trkpt lat="44.64793" lon="3.84165">
        <ele>1196.98</ele>
        <time>2022-08-04T06:58:01Z</time>
      </trkpt>
      <trkpt lat="44.64792" lon="3.84187">
        <ele>1195.54</ele>
        <time>2022-08-04T06:58:16Z</time>
      </trkpt>
      <trkpt lat="44.64791" lon="3.84203">
        <ele>1194.09</ele>
        <time>2022-08-04T06:58:28Z</time>
      </trkpt>
      <trkpt lat="44.64793" lon="3.84226">
        <ele>1193.13</ele>
        <time>2022-08-04T06:58:44Z</time>
      </trkpt>
      <trkpt lat="44.64789" lon="3.84247">
        <ele>1191.21</ele>
        <time>2022-08-04T06:58:58Z</time>
      </trkpt>
      <trkpt lat="44.64784" lon="3.84273">
        <ele>1190.73</ele>
        <time>2022-08-04T06:59:17Z</time>
      </trkpt>
      <trkpt lat="44.64783" lon="3.84297">
        <ele>1190.25</ele>
        <time>2022-08-04T06:59:33Z</time>
      </trkpt>
      <trkpt lat="44.64781" lon="3.84317">
        <ele>1187.85</ele>
        <time>2022-08-04T06:59:47Z</time>
      </trkpt>
      <trkpt lat="44.64777" lon="3.8434">
        <ele>1186.88</ele>
        <time>2022-08-04T07:00:02Z</time>
      </trkpt>
      <trkpt lat="44.64779" lon="3.84359">
        <ele>1184.96</ele>
        <time>2022-08-04T07:00:16Z</time>
      </trkpt>
      <trkpt lat="44.64774" lon="3.84388">
        <ele>1183.52</ele>
        <time>2022-08-04T07:00:34Z</time>
      </trkpt>
      <trkpt lat="44.64766" lon="3.84411">
        <ele>1184.48</ele>
        <time>2022-08-04T07:00:50Z</time>
      </trkpt>
      <trkpt lat="44.64758" lon="3.84436">
        <ele>1185.44</ele>
        <time>2022-08-04T07:01:07Z</time>
      </trkpt>
      <trkpt lat="44.64746" lon="3.84459">
        <ele>1187.37</ele>
        <time>2022-08-04T07:01:25Z</time>
      </trkpt>
      <trkpt lat="44.64735" lon="3.84486">
        <ele>1188.33</ele>
        <time>2022-08-04T07:01:44Z</time>
      </trkpt>
      <trkpt lat="44.64725" lon="3.84508">
        <ele>1187.37</ele>
        <time>2022-08-04T07:02:04Z</time>
      </trkpt>
      <trkpt lat="44.64718" lon="3.84529">
        <ele>1186.88</ele>
        <time>2022-08-04T07:02:18Z</time>
      </trkpt>
      <trkpt lat="44.6471" lon="3.84546">
        <ele>1186.88</ele>
        <time>2022-08-04T07:02:32Z</time>
      </trkpt>
      <trkpt lat="44.64705" lon="3.8457">
        <ele>1186.88</ele>
        <time>2022-08-04T07:02:48Z</time>
      </trkpt>
      <trkpt lat="44.64697" lon="3.84585">
        <ele>1188.33</ele>
        <time>2022-08-04T07:03:00Z</time>
      </trkpt>
      <trkpt lat="44.64691" lon="3.8461">
        <ele>1190.25</ele>
        <time>2022-08-04T07:03:16Z</time>
      </trkpt>
      <trkpt lat="44.64688" lon="3.84637">
        <ele>1192.17</ele>
        <time>2022-08-04T07:03:32Z</time>
      </trkpt>
      <trkpt lat="44.64686" lon="3.84664">
        <ele>1193.61</ele>
        <time>2022-08-04T07:03:50Z</time>
      </trkpt>
      <trkpt lat="44.64682" lon="3.84687">
        <ele>1194.58</ele>
        <time>2022-08-04T07:04:05Z</time>
      </trkpt>
      <trkpt lat="44.64679" lon="3.84704">
        <ele>1193.13</ele>
        <time>2022-08-04T07:04:23Z</time>
      </trkpt>
      <trkpt lat="44.64672" lon="3.84729">
        <ele>1190.73</ele>
        <time>2022-08-04T07:04:42Z</time>
      </trkpt>
      <trkpt lat="44.64668" lon="3.84758">
        <ele>1191.69</ele>
        <time>2022-08-04T07:05:01Z</time>
      </trkpt>
      <trkpt lat="44.64667" lon="3.84783">
        <ele>1191.21</ele>
        <time>2022-08-04T07:05:17Z</time>
      </trkpt>
      <trkpt lat="44.64664" lon="3.84811">
        <ele>1191.21</ele>
        <time>2022-08-04T07:05:35Z</time>
      </trkpt>
      <trkpt lat="44.6466" lon="3.84839">
        <ele>1190.25</ele>
        <time>2022-08-04T07:05:53Z</time>
      </trkpt>
      <trkpt lat="44.64662" lon="3.84871">
        <ele>1185.44</ele>
        <time>2022-08-04T07:06:10Z</time>
      </trkpt>
      <trkpt lat="44.6466" lon="3.84892">
        <ele>1182.56</ele>
        <time>2022-08-04T07:06:24Z</time>
      </trkpt>
      <trkpt lat="44.64656" lon="3.84915">
        <ele>1183.52</ele>
        <time>2022-08-04T07:06:39Z</time>
      </trkpt>
      <trkpt lat="44.64651" lon="3.84934">
        <ele>1181.6</ele>
        <time>2022-08-04T07:06:53Z</time>
      </trkpt>
      <trkpt lat="44.64646" lon="3.84957">
        <ele>1180.64</ele>
        <time>2022-08-04T07:07:09Z</time>
      </trkpt>
      <trkpt lat="44.64639" lon="3.84979">
        <ele>1178.71</ele>
        <time>2022-08-04T07:07:25Z</time>
      </trkpt>
      <trkpt lat="44.64637" lon="3.85002">
        <ele>1177.27</ele>
        <time>2022-08-04T07:07:41Z</time>
      </trkpt>
      <trkpt lat="44.64635" lon="3.85028">
        <ele>1178.23</ele>
        <time>2022-08-04T07:07:57Z</time>
      </trkpt>
      <trkpt lat="44.64632" lon="3.85057">
        <ele>1183.04</ele>
        <time>2022-08-04T07:08:15Z</time>
      </trkpt>
      <trkpt lat="44.6463" lon="3.85079">
        <ele>1185.44</ele>
        <time>2022-08-04T07:08:29Z</time>
      </trkpt>
      <trkpt lat="44.64628" lon="3.85108">
        <ele>1186.88</ele>
        <time>2022-08-04T07:08:49Z</time>
      </trkpt>
      <trkpt lat="44.64625" lon="3.85135">
        <ele>1189.29</ele>
        <time>2022-08-04T07:09:08Z</time>
      </trkpt>
      <trkpt lat="44.64623" lon="3.85166">
        <ele>1189.77</ele>
        <time>2022-08-04T07:09:28Z</time>
      </trkpt>
      <trkpt lat="44.64621" lon="3.85192">
        <ele>1190.73</ele>
        <time>2022-08-04T07:09:46Z</time>
      </trkpt>
      <trkpt lat="44.64618" lon="3.85219">
        <ele>1192.17</ele>
        <time>2022-08-04T07:10:03Z</time>
      </trkpt>
      <trkpt lat="44.64617" lon="3.8525">
        <ele>1192.17</ele>
        <time>2022-08-04T07:10:24Z</time>
      </trkpt>
      <trkpt lat="44.64617" lon="3.85286">
        <ele>1186.88</ele>
        <time>2022-08-04T07:10:45Z</time>
      </trkpt>
      <trkpt lat="44.64614" lon="3.85316">
        <ele>1186.88</ele>
        <time>2022-08-04T07:11:05Z</time>
      </trkpt>
      <trkpt lat="44.64612" lon="3.8535">
        <ele>1190.25</ele>
        <time>2022-08-04T07:11:28Z</time>
      </trkpt>
      <trkpt lat="44.64605" lon="3.85376">
        <ele>1194.09</ele>
        <time>2022-08-04T07:11:45Z</time>
      </trkpt>
      <trkpt lat="44.646" lon="3.85397">
        <ele>1196.02</ele>
        <time>2022-08-04T07:12:00Z</time>
      </trkpt>
      <trkpt lat="44.6459" lon="3.85421">
        <ele>1197.94</ele>
        <time>2022-08-04T07:12:18Z</time>
      </trkpt>
      <trkpt lat="44.64579" lon="3.85447">
        <ele>1200.34</ele>
        <time>2022-08-04T07:12:37Z</time>
      </trkpt>
      <trkpt lat="44.64566" lon="3.85475">
        <ele>1202.27</ele>
        <time>2022-08-04T07:12:59Z</time>
      </trkpt>
      <trkpt lat="44.64555" lon="3.85493">
        <ele>1203.71</ele>
        <time>2022-08-04T07:13:15Z</time>
      </trkpt>
      <trkpt lat="44.64539" lon="3.8551">
        <ele>1203.71</ele>
        <time>2022-08-04T07:13:34Z</time>
      </trkpt>
      <trkpt lat="44.64524" lon="3.85523">
        <ele>1205.15</ele>
        <time>2022-08-04T07:13:51Z</time>
      </trkpt>
      <trkpt lat="44.64504" lon="3.85537">
        <ele>1205.63</ele>
        <time>2022-08-04T07:14:10Z</time>
      </trkpt>
      <trkpt lat="44.64488" lon="3.8555">
        <ele>1208.51</ele>
        <time>2022-08-04T07:14:27Z</time>
      </trkpt>
      <trkpt lat="44.64471" lon="3.85558">
        <ele>1211.4</ele>
        <time>2022-08-04T07:14:44Z</time>
      </trkpt>
      <trkpt lat="44.64469" lon="3.85557">
        <ele>1212.36</ele>
        <time>2022-08-04T07:14:46Z</time>
      </trkpt>
      <trkpt lat="44.64452" lon="3.85563">
        <ele>1215.72</ele>
        <time>2022-08-04T07:15:04Z</time>
      </trkpt>
      <trkpt lat="44.64445" lon="3.85561">
        <ele>1215.24</ele>
        <time>2022-08-04T07:15:29Z</time>
      </trkpt>
      <trkpt lat="44.6443" lon="3.85579">
        <ele>1213.8</ele>
        <time>2022-08-04T07:15:47Z</time>
      </trkpt>
      <trkpt lat="44.64416" lon="3.85593">
        <ele>1210.92</ele>
        <time>2022-08-04T07:16:03Z</time>
      </trkpt>
      <trkpt lat="44.64402" lon="3.85603">
        <ele>1211.4</ele>
        <time>2022-08-04T07:16:18Z</time>
      </trkpt>
      <trkpt lat="44.64379" lon="3.85614">
        <ele>1209</ele>
        <time>2022-08-04T07:16:39Z</time>
      </trkpt>
      <trkpt lat="44.64368" lon="3.85635">
        <ele>1204.67</ele>
        <time>2022-08-04T07:16:57Z</time>
      </trkpt>
      <trkpt lat="44.64358" lon="3.8564">
        <ele>1204.67</ele>
        <time>2022-08-04T07:17:08Z</time>
      </trkpt>
      <trkpt lat="44.64357" lon="3.85644">
        <ele>1204.67</ele>
        <time>2022-08-04T07:17:25Z</time>
      </trkpt>
      <trkpt lat="44.6435" lon="3.85649">
        <ele>1203.23</ele>
        <time>2022-08-04T07:17:41Z</time>
      </trkpt>
      <trkpt lat="44.64346" lon="3.85657">
        <ele>1203.23</ele>
        <time>2022-08-04T07:17:55Z</time>
      </trkpt>
      <trkpt lat="44.6434" lon="3.85656">
        <ele>1204.19</ele>
        <time>2022-08-04T07:18:07Z</time>
      </trkpt>
      <trkpt lat="44.64334" lon="3.85658">
        <ele>1204.19</ele>
        <time>2022-08-04T07:18:12Z</time>
      </trkpt>
      <trkpt lat="44.64314" lon="3.8566">
        <ele>1206.59</ele>
        <time>2022-08-04T07:18:28Z</time>
      </trkpt>
      <trkpt lat="44.64295" lon="3.85661">
        <ele>1210.44</ele>
        <time>2022-08-04T07:18:44Z</time>
      </trkpt>
      <trkpt lat="44.64285" lon="3.85664">
        <ele>1213.32</ele>
        <time>2022-08-04T07:18:53Z</time>
      </trkpt>
      <trkpt lat="44.6427" lon="3.85667">
        <ele>1216.21</ele>
        <time>2022-08-04T07:19:08Z</time>
      </trkpt>
      <trkpt lat="44.6426" lon="3.85671">
        <ele>1219.09</ele>
        <time>2022-08-04T07:19:23Z</time>
      </trkpt>
      <trkpt lat="44.64239" lon="3.85671">
        <ele>1219.57</ele>
        <time>2022-08-04T07:19:39Z</time>
      </trkpt>
      <trkpt lat="44.64229" lon="3.85674">
        <ele>1219.09</ele>
        <time>2022-08-04T07:19:46Z</time>
      </trkpt>
      <trkpt lat="44.64226" lon="3.85698">
        <ele>1217.65</ele>
        <time>2022-08-04T07:20:00Z</time>
      </trkpt>
      <trkpt lat="44.64225" lon="3.85706">
        <ele>1221.01</ele>
        <time>2022-08-04T07:20:15Z</time>
      </trkpt>
      <trkpt lat="44.64224" lon="3.85705">
        <ele>1221.01</ele>
        <time>2022-08-04T07:20:35Z</time>
      </trkpt>
      <trkpt lat="44.64217" lon="3.85705">
        <ele>1217.17</ele>
        <time>2022-08-04T07:20:47Z</time>
      </trkpt>
      <trkpt lat="44.64218" lon="3.85702">
        <ele>1217.17</ele>
        <time>2022-08-04T07:21:05Z</time>
      </trkpt>
      <trkpt lat="44.64215" lon="3.85701">
        <ele>1216.69</ele>
        <time>2022-08-04T07:21:25Z</time>
      </trkpt>
      <trkpt lat="44.64217" lon="3.85707">
        <ele>1218.13</ele>
        <time>2022-08-04T07:21:32Z</time>
      </trkpt>
      <trkpt lat="44.64224" lon="3.85708">
        <ele>1217.65</ele>
        <time>2022-08-04T07:21:36Z</time>
      </trkpt>
      <trkpt lat="44.64232" lon="3.85727">
        <ele>1218.61</ele>
        <time>2022-08-04T07:21:51Z</time>
      </trkpt>
      <trkpt lat="44.64237" lon="3.85746">
        <ele>1219.09</ele>
        <time>2022-08-04T07:22:04Z</time>
      </trkpt>
      <trkpt lat="44.64237" lon="3.85757">
        <ele>1219.57</ele>
        <time>2022-08-04T07:22:16Z</time>
      </trkpt>
      <trkpt lat="44.64234" lon="3.85759">
        <ele>1218.61</ele>
        <time>2022-08-04T07:22:29Z</time>
      </trkpt>
      <trkpt lat="44.64238" lon="3.85761">
        <ele>1216.69</ele>
        <time>2022-08-04T07:22:45Z</time>
      </trkpt>
      <trkpt lat="44.64253" lon="3.8576">
        <ele>1218.61</ele>
        <time>2022-08-04T07:23:10Z</time>
      </trkpt>
      <trkpt lat="44.64254" lon="3.8576">
        <ele>1218.13</ele>
        <time>2022-08-04T07:23:33Z</time>
      </trkpt>
      <trkpt lat="44.64249" lon="3.8576">
        <ele>1219.57</ele>
        <time>2022-08-04T07:23:56Z</time>
      </trkpt>
      <trkpt lat="44.64246" lon="3.85758">
        <ele>1219.09</ele>
        <time>2022-08-04T07:24:14Z</time>
      </trkpt>
      <trkpt lat="44.64238" lon="3.85758">
        <ele>1217.65</ele>
        <time>2022-08-04T07:24:30Z</time>
      </trkpt>
      <trkpt lat="44.64241" lon="3.85767">
        <ele>1216.21</ele>
        <time>2022-08-04T07:24:46Z</time>
      </trkpt>
      <trkpt lat="44.64244" lon="3.85777">
        <ele>1214.28</ele>
        <time>2022-08-04T07:25:08Z</time>
      </trkpt>
      <trkpt lat="44.64248" lon="3.85789">
        <ele>1214.28</ele>
        <time>2022-08-04T07:25:18Z</time>
      </trkpt>
      <trkpt lat="44.64251" lon="3.85799">
        <ele>1214.76</ele>
        <time>2022-08-04T07:25:26Z</time>
      </trkpt>
      <trkpt lat="44.64257" lon="3.85818">
        <ele>1219.09</ele>
        <time>2022-08-04T07:25:39Z</time>
      </trkpt>
      <trkpt lat="44.64256" lon="3.85828">
        <ele>1222.45</ele>
        <time>2022-08-04T07:25:46Z</time>
      </trkpt>
      <trkpt lat="44.64263" lon="3.85849">
        <ele>1225.34</ele>
        <time>2022-08-04T07:26:00Z</time>
      </trkpt>
      <trkpt lat="44.64266" lon="3.85857">
        <ele>1226.78</ele>
        <time>2022-08-04T07:26:06Z</time>
      </trkpt>
      <trkpt lat="44.64275" lon="3.85863">
        <ele>1227.74</ele>
        <time>2022-08-04T07:26:21Z</time>
      </trkpt>
      <trkpt lat="44.64293" lon="3.85866">
        <ele>1231.59</ele>
        <time>2022-08-04T07:26:34Z</time>
      </trkpt>
      <trkpt lat="44.64306" lon="3.8587">
        <ele>1233.99</ele>
        <time>2022-08-04T07:26:45Z</time>
      </trkpt>
      <trkpt lat="44.64316" lon="3.85873">
        <ele>1236.39</ele>
        <time>2022-08-04T07:26:59Z</time>
      </trkpt>
      <trkpt lat="44.64327" lon="3.85885">
        <ele>1240.72</ele>
        <time>2022-08-04T07:27:13Z</time>
      </trkpt>
      <trkpt lat="44.64337" lon="3.85899">
        <ele>1239.76</ele>
        <time>2022-08-04T07:27:28Z</time>
      </trkpt>
      <trkpt lat="44.6435" lon="3.8591">
        <ele>1240.24</ele>
        <time>2022-08-04T07:27:42Z</time>
      </trkpt>
      <trkpt lat="44.64361" lon="3.85919">
        <ele>1242.16</ele>
        <time>2022-08-04T07:27:59Z</time>
      </trkpt>
      <trkpt lat="44.64374" lon="3.85934">
        <ele>1244.56</ele>
        <time>2022-08-04T07:28:18Z</time>
      </trkpt>
      <trkpt lat="44.64392" lon="3.85953">
        <ele>1244.56</ele>
        <time>2022-08-04T07:28:32Z</time>
      </trkpt>
      <trkpt lat="44.64405" lon="3.85967">
        <ele>1243.12</ele>
        <time>2022-08-04T07:28:43Z</time>
      </trkpt>
      <trkpt lat="44.64423" lon="3.85974">
        <ele>1243.6</ele>
        <time>2022-08-04T07:29:01Z</time>
      </trkpt>
      <trkpt lat="44.64434" lon="3.85979">
        <ele>1245.53</ele>
        <time>2022-08-04T07:29:15Z</time>
      </trkpt>
      <trkpt lat="44.64445" lon="3.85981">
        <ele>1248.89</ele>
        <time>2022-08-04T07:29:27Z</time>
      </trkpt>
      <trkpt lat="44.64456" lon="3.85985">
        <ele>1253.22</ele>
        <time>2022-08-04T07:29:42Z</time>
      </trkpt>
      <trkpt lat="44.64472" lon="3.85992">
        <ele>1256.58</ele>
        <time>2022-08-04T07:29:57Z</time>
      </trkpt>
      <trkpt lat="44.64489" lon="3.86004">
        <ele>1258.5</ele>
        <time>2022-08-04T07:30:12Z</time>
      </trkpt>
      <trkpt lat="44.64501" lon="3.86014">
        <ele>1258.5</ele>
        <time>2022-08-04T07:30:24Z</time>
      </trkpt>
      <trkpt lat="44.64515" lon="3.86025">
        <ele>1255.62</ele>
        <time>2022-08-04T07:30:39Z</time>
      </trkpt>
      <trkpt lat="44.64526" lon="3.86039">
        <ele>1255.14</ele>
        <time>2022-08-04T07:30:53Z</time>
      </trkpt>
      <trkpt lat="44.64539" lon="3.86052">
        <ele>1254.18</ele>
        <time>2022-08-04T07:31:08Z</time>
      </trkpt>
      <trkpt lat="44.64548" lon="3.86065">
        <ele>1253.22</ele>
        <time>2022-08-04T07:31:22Z</time>
      </trkpt>
      <trkpt lat="44.6456" lon="3.86084">
        <ele>1252.74</ele>
        <time>2022-08-04T07:31:39Z</time>
      </trkpt>
      <trkpt lat="44.64573" lon="3.86092">
        <ele>1255.14</ele>
        <time>2022-08-04T07:31:54Z</time>
      </trkpt>
      <trkpt lat="44.64585" lon="3.86099">
        <ele>1258.02</ele>
        <time>2022-08-04T07:32:08Z</time>
      </trkpt>
      <trkpt lat="44.64598" lon="3.86105">
        <ele>1261.39</ele>
        <time>2022-08-04T07:32:20Z</time>
      </trkpt>
      <trkpt lat="44.64609" lon="3.86111">
        <ele>1266.19</ele>
        <time>2022-08-04T07:32:34Z</time>
      </trkpt>
      <trkpt lat="44.64623" lon="3.86116">
        <ele>1268.6</ele>
        <time>2022-08-04T07:32:46Z</time>
      </trkpt>
      <trkpt lat="44.6464" lon="3.86124">
        <ele>1269.56</ele>
        <time>2022-08-04T07:33:01Z</time>
      </trkpt>
      <trkpt lat="44.64644" lon="3.86125">
        <ele>1269.08</ele>
        <time>2022-08-04T07:33:03Z</time>
      </trkpt>
      <trkpt lat="44.6465" lon="3.86128">
        <ele>1268.12</ele>
        <time>2022-08-04T07:33:07Z</time>
      </trkpt>
      <trkpt lat="44.64663" lon="3.86133">
        <ele>1271.96</ele>
        <time>2022-08-04T07:33:20Z</time>
      </trkpt>
      <trkpt lat="44.64669" lon="3.86135">
        <ele>1273.4</ele>
        <time>2022-08-04T07:33:27Z</time>
      </trkpt>
      <trkpt lat="44.64687" lon="3.86143">
        <ele>1273.4</ele>
        <time>2022-08-04T07:33:42Z</time>
      </trkpt>
      <trkpt lat="44.64708" lon="3.8615">
        <ele>1267.16</ele>
        <time>2022-08-04T07:33:57Z</time>
      </trkpt>
      <trkpt lat="44.64712" lon="3.86151">
        <ele>1265.23</ele>
        <time>2022-08-04T07:34:02Z</time>
      </trkpt>
      <trkpt lat="44.6472" lon="3.86153">
        <ele>1261.87</ele>
        <time>2022-08-04T07:34:10Z</time>
      </trkpt>
      <trkpt lat="44.6473" lon="3.86157">
        <ele>1258.5</ele>
        <time>2022-08-04T07:34:24Z</time>
      </trkpt>
      <trkpt lat="44.64743" lon="3.86162">
        <ele>1257.06</ele>
        <time>2022-08-04T07:34:36Z</time>
      </trkpt>
      <trkpt lat="44.64749" lon="3.86164">
        <ele>1256.1</ele>
        <time>2022-08-04T07:34:40Z</time>
      </trkpt>
      <trkpt lat="44.64753" lon="3.86165">
        <ele>1255.62</ele>
        <time>2022-08-04T07:34:43Z</time>
      </trkpt>
      <trkpt lat="44.64769" lon="3.86171">
        <ele>1251.77</ele>
        <time>2022-08-04T07:34:57Z</time>
      </trkpt>
      <trkpt lat="44.64783" lon="3.86173">
        <ele>1246.49</ele>
        <time>2022-08-04T07:35:10Z</time>
      </trkpt>
      <trkpt lat="44.64784" lon="3.86175">
        <ele>1246.49</ele>
        <time>2022-08-04T07:35:12Z</time>
      </trkpt>
      <trkpt lat="44.64789" lon="3.86176">
        <ele>1245.53</ele>
        <time>2022-08-04T07:35:17Z</time>
      </trkpt>
      <trkpt lat="44.64803" lon="3.86182">
        <ele>1243.6</ele>
        <time>2022-08-04T07:35:31Z</time>
      </trkpt>
      <trkpt lat="44.64805" lon="3.86184">
        <ele>1243.6</ele>
        <time>2022-08-04T07:35:33Z</time>
      </trkpt>
      <trkpt lat="44.6481" lon="3.86188">
        <ele>1243.6</ele>
        <time>2022-08-04T07:35:40Z</time>
      </trkpt>
      <trkpt lat="44.64822" lon="3.86199">
        <ele>1244.56</ele>
        <time>2022-08-04T07:35:57Z</time>
      </trkpt>
      <trkpt lat="44.6483" lon="3.86208">
        <ele>1245.53</ele>
        <time>2022-08-04T07:36:08Z</time>
      </trkpt>
      <trkpt lat="44.64854" lon="3.86225">
        <ele>1241.2</ele>
        <time>2022-08-04T07:36:25Z</time>
      </trkpt>
      <trkpt lat="44.64866" lon="3.86243">
        <ele>1240.24</ele>
        <time>2022-08-04T07:36:40Z</time>
      </trkpt>
      <trkpt lat="44.64878" lon="3.86253">
        <ele>1234.47</ele>
        <time>2022-08-04T07:36:54Z</time>
      </trkpt>
      <trkpt lat="44.64883" lon="3.86257">
        <ele>1231.11</ele>
        <time>2022-08-04T07:36:59Z</time>
      </trkpt>
      <trkpt lat="44.64888" lon="3.86263">
        <ele>1229.18</ele>
        <time>2022-08-04T07:37:05Z</time>
      </trkpt>
      <trkpt lat="44.64889" lon="3.86268">
        <ele>1229.66</ele>
        <time>2022-08-04T07:37:08Z</time>
      </trkpt>
      <trkpt lat="44.64894" lon="3.86278">
        <ele>1229.66</ele>
        <time>2022-08-04T07:37:16Z</time>
      </trkpt>
      <trkpt lat="44.64897" lon="3.86284">
        <ele>1229.66</ele>
        <time>2022-08-04T07:37:21Z</time>
      </trkpt>
      <trkpt lat="44.64899" lon="3.86286">
        <ele>1230.14</ele>
        <time>2022-08-04T07:37:23Z</time>
      </trkpt>
      <trkpt lat="44.64902" lon="3.86291">
        <ele>1230.62</ele>
        <time>2022-08-04T07:37:28Z</time>
      </trkpt>
      <trkpt lat="44.64912" lon="3.86307">
        <ele>1233.03</ele>
        <time>2022-08-04T07:37:41Z</time>
      </trkpt>
      <trkpt lat="44.64915" lon="3.86312">
        <ele>1233.03</ele>
        <time>2022-08-04T07:37:45Z</time>
      </trkpt>
      <trkpt lat="44.64923" lon="3.86331">
        <ele>1231.11</ele>
        <time>2022-08-04T07:37:59Z</time>
      </trkpt>
      <trkpt lat="44.64929" lon="3.86348">
        <ele>1231.11</ele>
        <time>2022-08-04T07:38:13Z</time>
      </trkpt>
      <trkpt lat="44.64936" lon="3.86366">
        <ele>1232.07</ele>
        <time>2022-08-04T07:38:29Z</time>
      </trkpt>
      <trkpt lat="44.64941" lon="3.86388">
        <ele>1237.35</ele>
        <time>2022-08-04T07:38:43Z</time>
      </trkpt>
      <trkpt lat="44.64946" lon="3.86409">
        <ele>1241.2</ele>
        <time>2022-08-04T07:38:56Z</time>
      </trkpt>
      <trkpt lat="44.6495" lon="3.8643">
        <ele>1244.56</ele>
        <time>2022-08-04T07:39:09Z</time>
      </trkpt>
      <trkpt lat="44.6495" lon="3.86444">
        <ele>1245.04</ele>
        <time>2022-08-04T07:39:18Z</time>
      </trkpt>
      <trkpt lat="44.64951" lon="3.8645">
        <ele>1245.04</ele>
        <time>2022-08-04T07:39:22Z</time>
      </trkpt>
      <trkpt lat="44.64952" lon="3.86469">
        <ele>1244.08</ele>
        <time>2022-08-04T07:39:35Z</time>
      </trkpt>
      <trkpt lat="44.64953" lon="3.86486">
        <ele>1240.72</ele>
        <time>2022-08-04T07:39:48Z</time>
      </trkpt>
      <trkpt lat="44.64956" lon="3.86512">
        <ele>1237.35</ele>
        <time>2022-08-04T07:40:02Z</time>
      </trkpt>
      <trkpt lat="44.64959" lon="3.86534">
        <ele>1234.95</ele>
        <time>2022-08-04T07:40:15Z</time>
      </trkpt>
      <trkpt lat="44.6496" lon="3.86545">
        <ele>1236.39</ele>
        <time>2022-08-04T07:40:22Z</time>
      </trkpt>
      <trkpt lat="44.6496" lon="3.86549">
        <ele>1236.87</ele>
        <time>2022-08-04T07:40:24Z</time>
      </trkpt>
      <trkpt lat="44.64961" lon="3.86572">
        <ele>1234.47</ele>
        <time>2022-08-04T07:40:40Z</time>
      </trkpt>
      <trkpt lat="44.64961" lon="3.86595">
        <ele>1233.51</ele>
        <time>2022-08-04T07:40:55Z</time>
      </trkpt>
      <trkpt lat="44.64961" lon="3.86601">
        <ele>1233.51</ele>
        <time>2022-08-04T07:40:59Z</time>
      </trkpt>
      <trkpt lat="44.64965" lon="3.86627">
        <ele>1234.95</ele>
        <time>2022-08-04T07:41:14Z</time>
      </trkpt>
      <trkpt lat="44.64964" lon="3.86636">
        <ele>1234.47</ele>
        <time>2022-08-04T07:41:21Z</time>
      </trkpt>
      <trkpt lat="44.64964" lon="3.86655">
        <ele>1233.51</ele>
        <time>2022-08-04T07:41:34Z</time>
      </trkpt>
      <trkpt lat="44.64962" lon="3.86675">
        <ele>1233.03</ele>
        <time>2022-08-04T07:41:48Z</time>
      </trkpt>
      <trkpt lat="44.64963" lon="3.86695">
        <ele>1233.03</ele>
        <time>2022-08-04T07:42:00Z</time>
      </trkpt>
      <trkpt lat="44.64963" lon="3.86697">
        <ele>1233.03</ele>
        <time>2022-08-04T07:42:01Z</time>
      </trkpt>
      <trkpt lat="44.6496" lon="3.86717">
        <ele>1233.03</ele>
        <time>2022-08-04T07:42:15Z</time>
      </trkpt>
      <trkpt lat="44.64959" lon="3.8672">
        <ele>1233.03</ele>
        <time>2022-08-04T07:42:17Z</time>
      </trkpt>
      <trkpt lat="44.64955" lon="3.86737">
        <ele>1233.03</ele>
        <time>2022-08-04T07:42:30Z</time>
      </trkpt>
      <trkpt lat="44.64949" lon="3.86758">
        <ele>1232.55</ele>
        <time>2022-08-04T07:42:43Z</time>
      </trkpt>
      <trkpt lat="44.64942" lon="3.86776">
        <ele>1231.59</ele>
        <time>2022-08-04T07:42:56Z</time>
      </trkpt>
      <trkpt lat="44.64941" lon="3.86782">
        <ele>1231.59</ele>
        <time>2022-08-04T07:43:01Z</time>
      </trkpt>
      <trkpt lat="44.6494" lon="3.86784">
        <ele>1232.07</ele>
        <time>2022-08-04T07:43:03Z</time>
      </trkpt>
      <trkpt lat="44.64936" lon="3.86806">
        <ele>1233.51</ele>
        <time>2022-08-04T07:43:17Z</time>
      </trkpt>
      <trkpt lat="44.64932" lon="3.8683">
        <ele>1234.95</ele>
        <time>2022-08-04T07:43:32Z</time>
      </trkpt>
      <trkpt lat="44.6493" lon="3.86851">
        <ele>1237.35</ele>
        <time>2022-08-04T07:43:46Z</time>
      </trkpt>
      <trkpt lat="44.64929" lon="3.86854">
        <ele>1237.83</ele>
        <time>2022-08-04T07:43:48Z</time>
      </trkpt>
      <trkpt lat="44.64928" lon="3.86865">
        <ele>1238.32</ele>
        <time>2022-08-04T07:43:55Z</time>
      </trkpt>
      <trkpt lat="44.64927" lon="3.86881">
        <ele>1237.35</ele>
        <time>2022-08-04T07:44:04Z</time>
      </trkpt>
      <trkpt lat="44.64926" lon="3.86908">
        <ele>1237.35</ele>
        <time>2022-08-04T07:44:20Z</time>
      </trkpt>
      <trkpt lat="44.64923" lon="3.86933">
        <ele>1240.24</ele>
        <time>2022-08-04T07:44:36Z</time>
      </trkpt>
      <trkpt lat="44.64922" lon="3.86939">
        <ele>1240.72</ele>
        <time>2022-08-04T07:44:40Z</time>
      </trkpt>
      <trkpt lat="44.6492" lon="3.86945">
        <ele>1240.72</ele>
        <time>2022-08-04T07:44:43Z</time>
      </trkpt>
      <trkpt lat="44.6492" lon="3.86954">
        <ele>1241.2</ele>
        <time>2022-08-04T07:44:49Z</time>
      </trkpt>
      <trkpt lat="44.64923" lon="3.86963">
        <ele>1241.68</ele>
        <time>2022-08-04T07:44:55Z</time>
      </trkpt>
      <trkpt lat="44.64919" lon="3.86987">
        <ele>1240.24</ele>
        <time>2022-08-04T07:45:11Z</time>
      </trkpt>
      <trkpt lat="44.64918" lon="3.87005">
        <ele>1238.8</ele>
        <time>2022-08-04T07:45:23Z</time>
      </trkpt>
      <trkpt lat="44.64918" lon="3.87019">
        <ele>1238.8</ele>
        <time>2022-08-04T07:45:32Z</time>
      </trkpt>
      <trkpt lat="44.64919" lon="3.87022">
        <ele>1238.8</ele>
        <time>2022-08-04T07:45:34Z</time>
      </trkpt>
      <trkpt lat="44.6492" lon="3.87044">
        <ele>1238.8</ele>
        <time>2022-08-04T07:45:47Z</time>
      </trkpt>
      <trkpt lat="44.64921" lon="3.87069">
        <ele>1240.72</ele>
        <time>2022-08-04T07:46:02Z</time>
      </trkpt>
      <trkpt lat="44.64921" lon="3.87073">
        <ele>1240.72</ele>
        <time>2022-08-04T07:46:05Z</time>
      </trkpt>
      <trkpt lat="44.6492" lon="3.8708">
        <ele>1241.2</ele>
        <time>2022-08-04T07:46:09Z</time>
      </trkpt>
      <trkpt lat="44.64918" lon="3.87103">
        <ele>1241.68</ele>
        <time>2022-08-04T07:46:25Z</time>
      </trkpt>
      <trkpt lat="44.64918" lon="3.87126">
        <ele>1241.2</ele>
        <time>2022-08-04T07:46:39Z</time>
      </trkpt>
      <trkpt lat="44.64919" lon="3.87149">
        <ele>1241.2</ele>
        <time>2022-08-04T07:46:54Z</time>
      </trkpt>
      <trkpt lat="44.64921" lon="3.87169">
        <ele>1240.72</ele>
        <time>2022-08-04T07:47:07Z</time>
      </trkpt>
      <trkpt lat="44.64917" lon="3.87188">
        <ele>1241.2</ele>
        <time>2022-08-04T07:47:21Z</time>
      </trkpt>
      <trkpt lat="44.64915" lon="3.87217">
        <ele>1242.64</ele>
        <time>2022-08-04T07:47:37Z</time>
      </trkpt>
      <trkpt lat="44.64915" lon="3.87223">
        <ele>1242.16</ele>
        <time>2022-08-04T07:47:41Z</time>
      </trkpt>
      <trkpt lat="44.6491" lon="3.87243">
        <ele>1239.76</ele>
        <time>2022-08-04T07:47:56Z</time>
      </trkpt>
      <trkpt lat="44.64905" lon="3.87263">
        <ele>1237.83</ele>
        <time>2022-08-04T07:48:11Z</time>
      </trkpt>
      <trkpt lat="44.64902" lon="3.87272">
        <ele>1236.39</ele>
        <time>2022-08-04T07:48:19Z</time>
      </trkpt>
      <trkpt lat="44.64899" lon="3.87279">
        <ele>1235.91</ele>
        <time>2022-08-04T07:48:24Z</time>
      </trkpt>
      <trkpt lat="44.64895" lon="3.87288">
        <ele>1233.51</ele>
        <time>2022-08-04T07:48:30Z</time>
      </trkpt>
      <trkpt lat="44.64892" lon="3.87311">
        <ele>1232.07</ele>
        <time>2022-08-04T07:48:46Z</time>
      </trkpt>
      <trkpt lat="44.64898" lon="3.87337">
        <ele>1233.03</ele>
        <time>2022-08-04T07:49:00Z</time>
      </trkpt>
      <trkpt lat="44.64898" lon="3.87339">
        <ele>1233.51</ele>
        <time>2022-08-04T07:49:01Z</time>
      </trkpt>
      <trkpt lat="44.649" lon="3.87342">
        <ele>1233.51</ele>
        <time>2022-08-04T07:49:03Z</time>
      </trkpt>
      <trkpt lat="44.64901" lon="3.87347">
        <ele>1233.51</ele>
        <time>2022-08-04T07:49:06Z</time>
      </trkpt>
      <trkpt lat="44.64903" lon="3.87355">
        <ele>1233.99</ele>
        <time>2022-08-04T07:49:11Z</time>
      </trkpt>
      <trkpt lat="44.64902" lon="3.87361">
        <ele>1234.95</ele>
        <time>2022-08-04T07:49:14Z</time>
      </trkpt>
      <trkpt lat="44.64902" lon="3.87365">
        <ele>1235.91</ele>
        <time>2022-08-04T07:49:16Z</time>
      </trkpt>
      <trkpt lat="44.64904" lon="3.8737">
        <ele>1235.43</ele>
        <time>2022-08-04T07:49:20Z</time>
      </trkpt>
      <trkpt lat="44.64904" lon="3.87379">
        <ele>1235.91</ele>
        <time>2022-08-04T07:49:25Z</time>
      </trkpt>
      <trkpt lat="44.64905" lon="3.87387">
        <ele>1236.87</ele>
        <time>2022-08-04T07:49:30Z</time>
      </trkpt>
      <trkpt lat="44.64906" lon="3.87391">
        <ele>1237.35</ele>
        <time>2022-08-04T07:49:33Z</time>
      </trkpt>
      <trkpt lat="44.64908" lon="3.8742">
        <ele>1237.35</ele>
        <time>2022-08-04T07:49:50Z</time>
      </trkpt>
      <trkpt lat="44.64909" lon="3.87437">
        <ele>1237.83</ele>
        <time>2022-08-04T07:50:00Z</time>
      </trkpt>
      <trkpt lat="44.64915" lon="3.87463">
        <ele>1234.95</ele>
        <time>2022-08-04T07:50:15Z</time>
      </trkpt>
      <trkpt lat="44.64917" lon="3.87488">
        <ele>1233.51</ele>
        <time>2022-08-04T07:50:31Z</time>
      </trkpt>
      <trkpt lat="44.64919" lon="3.87509">
        <ele>1233.03</ele>
        <time>2022-08-04T07:50:45Z</time>
      </trkpt>
      <trkpt lat="44.64921" lon="3.87532">
        <ele>1232.07</ele>
        <time>2022-08-04T07:50:58Z</time>
      </trkpt>
      <trkpt lat="44.64921" lon="3.87539">
        <ele>1232.07</ele>
        <time>2022-08-04T07:51:02Z</time>
      </trkpt>
      <trkpt lat="44.64925" lon="3.87563">
        <ele>1231.59</ele>
        <time>2022-08-04T07:51:18Z</time>
      </trkpt>
      <trkpt lat="44.64927" lon="3.87568">
        <ele>1231.59</ele>
        <time>2022-08-04T07:51:21Z</time>
      </trkpt>
      <trkpt lat="44.64944" lon="3.87583">
        <ele>1228.7</ele>
        <time>2022-08-04T07:51:34Z</time>
      </trkpt>
      <trkpt lat="44.6496" lon="3.87587">
        <ele>1224.86</ele>
        <time>2022-08-04T07:51:47Z</time>
      </trkpt>
      <trkpt lat="44.64971" lon="3.87583">
        <ele>1222.93</ele>
        <time>2022-08-04T07:51:57Z</time>
      </trkpt>
      <trkpt lat="44.64986" lon="3.87588">
        <ele>1225.82</ele>
        <time>2022-08-04T07:52:10Z</time>
      </trkpt>
      <trkpt lat="44.64993" lon="3.87586">
        <ele>1226.78</ele>
        <time>2022-08-04T07:52:16Z</time>
      </trkpt>
      <trkpt lat="44.64999" lon="3.87587">
        <ele>1227.74</ele>
        <time>2022-08-04T07:52:23Z</time>
      </trkpt>
      <trkpt lat="44.65" lon="3.87592">
        <ele>1227.26</ele>
        <time>2022-08-04T07:52:31Z</time>
      </trkpt>
      <trkpt lat="44.65005" lon="3.87602">
        <ele>1225.34</ele>
        <time>2022-08-04T07:52:39Z</time>
      </trkpt>
      <trkpt lat="44.65007" lon="3.87609">
        <ele>1223.9</ele>
        <time>2022-08-04T07:52:44Z</time>
      </trkpt>
      <trkpt lat="44.65007" lon="3.87616">
        <ele>1223.42</ele>
        <time>2022-08-04T07:52:49Z</time>
      </trkpt>
      <trkpt lat="44.65012" lon="3.87624">
        <ele>1222.93</ele>
        <time>2022-08-04T07:52:56Z</time>
      </trkpt>
      <trkpt lat="44.65017" lon="3.87631">
        <ele>1221.97</ele>
        <time>2022-08-04T07:53:02Z</time>
      </trkpt>
      <trkpt lat="44.65024" lon="3.87636">
        <ele>1219.57</ele>
        <time>2022-08-04T07:53:15Z</time>
      </trkpt>
      <trkpt lat="44.65027" lon="3.87632">
        <ele>1218.13</ele>
        <time>2022-08-04T07:53:34Z</time>
      </trkpt>
      <trkpt lat="44.65025" lon="3.87635">
        <ele>1214.76</ele>
        <time>2022-08-04T07:53:55Z</time>
      </trkpt>
      <trkpt lat="44.65023" lon="3.87632">
        <ele>1211.88</ele>
        <time>2022-08-04T07:54:13Z</time>
      </trkpt>
      <trkpt lat="44.65023" lon="3.87633">
        <ele>1209.48</ele>
        <time>2022-08-04T07:54:40Z</time>
      </trkpt>
      <trkpt lat="44.65022" lon="3.87634">
        <ele>1207.55</ele>
        <time>2022-08-04T07:55:03Z</time>
      </trkpt>
      <trkpt lat="44.65022" lon="3.87633">
        <ele>1207.55</ele>
        <time>2022-08-04T07:55:28Z</time>
      </trkpt>
      <trkpt lat="44.65024" lon="3.87632">
        <ele>1208.03</ele>
        <time>2022-08-04T07:55:50Z</time>
      </trkpt>
      <trkpt lat="44.65026" lon="3.87636">
        <ele>1206.11</ele>
        <time>2022-08-04T07:56:15Z</time>
      </trkpt>
      <trkpt lat="44.65035" lon="3.87648">
        <ele>1203.23</ele>
        <time>2022-08-04T07:56:30Z</time>
      </trkpt>
      <trkpt lat="44.65046" lon="3.87658">
        <ele>1201.79</ele>
        <time>2022-08-04T07:56:43Z</time>
      </trkpt>
      <trkpt lat="44.65049" lon="3.8766">
        <ele>1201.79</ele>
        <time>2022-08-04T07:56:45Z</time>
      </trkpt>
      <trkpt lat="44.65055" lon="3.87667">
        <ele>1201.3</ele>
        <time>2022-08-04T07:56:53Z</time>
      </trkpt>
      <trkpt lat="44.65067" lon="3.87682">
        <ele>1199.38</ele>
        <time>2022-08-04T07:57:08Z</time>
      </trkpt>
      <trkpt lat="44.65069" lon="3.87684">
        <ele>1199.38</ele>
        <time>2022-08-04T07:57:11Z</time>
      </trkpt>
      <trkpt lat="44.65073" lon="3.87687">
        <ele>1198.9</ele>
        <time>2022-08-04T07:57:15Z</time>
      </trkpt>
      <trkpt lat="44.65076" lon="3.87692">
        <ele>1197.94</ele>
        <time>2022-08-04T07:57:20Z</time>
      </trkpt>
      <trkpt lat="44.65086" lon="3.87708">
        <ele>1197.46</ele>
        <time>2022-08-04T07:57:35Z</time>
      </trkpt>
      <trkpt lat="44.65089" lon="3.87714">
        <ele>1197.46</ele>
        <time>2022-08-04T07:57:40Z</time>
      </trkpt>
      <trkpt lat="44.65101" lon="3.87734">
        <ele>1195.54</ele>
        <time>2022-08-04T07:57:58Z</time>
      </trkpt>
      <trkpt lat="44.65104" lon="3.87744">
        <ele>1196.02</ele>
        <time>2022-08-04T07:58:07Z</time>
      </trkpt>
      <trkpt lat="44.65111" lon="3.87762">
        <ele>1195.54</ele>
        <time>2022-08-04T07:58:21Z</time>
      </trkpt>
      <trkpt lat="44.65117" lon="3.87769">
        <ele>1195.06</ele>
        <time>2022-08-04T07:58:29Z</time>
      </trkpt>
      <trkpt lat="44.65129" lon="3.87773">
        <ele>1193.61</ele>
        <time>2022-08-04T07:58:42Z</time>
      </trkpt>
      <trkpt lat="44.65137" lon="3.87775">
        <ele>1194.09</ele>
        <time>2022-08-04T07:58:54Z</time>
      </trkpt>
      <trkpt lat="44.65157" lon="3.87776">
        <ele>1192.65</ele>
        <time>2022-08-04T07:59:09Z</time>
      </trkpt>
      <trkpt lat="44.65172" lon="3.87768">
        <ele>1187.85</ele>
        <time>2022-08-04T07:59:23Z</time>
      </trkpt>
      <trkpt lat="44.65185" lon="3.87755">
        <ele>1184.48</ele>
        <time>2022-08-04T07:59:37Z</time>
      </trkpt>
      <trkpt lat="44.65197" lon="3.87746">
        <ele>1181.6</ele>
        <time>2022-08-04T07:59:50Z</time>
      </trkpt>
      <trkpt lat="44.65211" lon="3.8773">
        <ele>1181.6</ele>
        <time>2022-08-04T08:00:06Z</time>
      </trkpt>
      <trkpt lat="44.65212" lon="3.87727">
        <ele>1181.6</ele>
        <time>2022-08-04T08:00:09Z</time>
      </trkpt>
      <trkpt lat="44.6522" lon="3.87724">
        <ele>1179.19</ele>
        <time>2022-08-04T08:00:23Z</time>
      </trkpt>
      <trkpt lat="44.65216" lon="3.87737">
        <ele>1178.23</ele>
        <time>2022-08-04T08:00:37Z</time>
      </trkpt>
      <trkpt lat="44.65214" lon="3.87753">
        <ele>1178.71</ele>
        <time>2022-08-04T08:00:50Z</time>
      </trkpt>
      <trkpt lat="44.65209" lon="3.87768">
        <ele>1177.27</ele>
        <time>2022-08-04T08:01:03Z</time>
      </trkpt>
      <trkpt lat="44.65205" lon="3.8778">
        <ele>1176.79</ele>
        <time>2022-08-04T08:01:14Z</time>
      </trkpt>
      <trkpt lat="44.65203" lon="3.87801">
        <ele>1174.87</ele>
        <time>2022-08-04T08:01:29Z</time>
      </trkpt>
      <trkpt lat="44.652" lon="3.87819">
        <ele>1174.39</ele>
        <time>2022-08-04T08:01:42Z</time>
      </trkpt>
      <trkpt lat="44.65195" lon="3.87834">
        <ele>1174.39</ele>
        <time>2022-08-04T08:01:55Z</time>
      </trkpt>
      <trkpt lat="44.65192" lon="3.87847">
        <ele>1171.98</ele>
        <time>2022-08-04T08:02:07Z</time>
      </trkpt>
      <trkpt lat="44.65189" lon="3.87867">
        <ele>1170.54</ele>
        <time>2022-08-04T08:02:21Z</time>
      </trkpt>
      <trkpt lat="44.6518" lon="3.87875">
        <ele>1170.06</ele>
        <time>2022-08-04T08:02:35Z</time>
      </trkpt>
      <trkpt lat="44.65174" lon="3.87893">
        <ele>1169.1</ele>
        <time>2022-08-04T08:02:50Z</time>
      </trkpt>
      <trkpt lat="44.65166" lon="3.87907">
        <ele>1166.22</ele>
        <time>2022-08-04T08:03:04Z</time>
      </trkpt>
      <trkpt lat="44.6516" lon="3.87909">
        <ele>1163.33</ele>
        <time>2022-08-04T08:03:11Z</time>
      </trkpt>
      <trkpt lat="44.65148" lon="3.87921">
        <ele>1159.01</ele>
        <time>2022-08-04T08:03:26Z</time>
      </trkpt>
      <trkpt lat="44.6514" lon="3.87933">
        <ele>1158.53</ele>
        <time>2022-08-04T08:03:39Z</time>
      </trkpt>
      <trkpt lat="44.65134" lon="3.87948">
        <ele>1156.6</ele>
        <time>2022-08-04T08:03:54Z</time>
      </trkpt>
      <trkpt lat="44.65126" lon="3.87965">
        <ele>1155.64</ele>
        <time>2022-08-04T08:04:08Z</time>
      </trkpt>
      <trkpt lat="44.65119" lon="3.87982">
        <ele>1154.2</ele>
        <time>2022-08-04T08:04:21Z</time>
      </trkpt>
      <trkpt lat="44.6511" lon="3.87998">
        <ele>1152.76</ele>
        <time>2022-08-04T08:04:35Z</time>
      </trkpt>
      <trkpt lat="44.65104" lon="3.88018">
        <ele>1153.72</ele>
        <time>2022-08-04T08:04:51Z</time>
      </trkpt>
      <trkpt lat="44.651" lon="3.88035">
        <ele>1149.39</ele>
        <time>2022-08-04T08:05:04Z</time>
      </trkpt>
      <trkpt lat="44.65097" lon="3.88049">
        <ele>1146.51</ele>
        <time>2022-08-04T08:05:16Z</time>
      </trkpt>
      <trkpt lat="44.65095" lon="3.88071">
        <ele>1143.14</ele>
        <time>2022-08-04T08:05:31Z</time>
      </trkpt>
      <trkpt lat="44.65092" lon="3.8809">
        <ele>1143.63</ele>
        <time>2022-08-04T08:05:47Z</time>
      </trkpt>
      <trkpt lat="44.65095" lon="3.88104">
        <ele>1141.22</ele>
        <time>2022-08-04T08:05:59Z</time>
      </trkpt>
      <trkpt lat="44.65097" lon="3.88119">
        <ele>1137.38</ele>
        <time>2022-08-04T08:06:12Z</time>
      </trkpt>
      <trkpt lat="44.65095" lon="3.88133">
        <ele>1136.9</ele>
        <time>2022-08-04T08:06:27Z</time>
      </trkpt>
      <trkpt lat="44.65097" lon="3.88154">
        <ele>1132.09</ele>
        <time>2022-08-04T08:06:43Z</time>
      </trkpt>
      <trkpt lat="44.65101" lon="3.88173">
        <ele>1130.17</ele>
        <time>2022-08-04T08:06:57Z</time>
      </trkpt>
      <trkpt lat="44.65102" lon="3.88195">
        <ele>1128.24</ele>
        <time>2022-08-04T08:07:13Z</time>
      </trkpt>
      <trkpt lat="44.65104" lon="3.88201">
        <ele>1127.76</ele>
        <time>2022-08-04T08:07:18Z</time>
      </trkpt>
      <trkpt lat="44.65108" lon="3.88213">
        <ele>1126.8</ele>
        <time>2022-08-04T08:07:26Z</time>
      </trkpt>
      <trkpt lat="44.65111" lon="3.88234">
        <ele>1126.32</ele>
        <time>2022-08-04T08:07:43Z</time>
      </trkpt>
      <trkpt lat="44.65114" lon="3.88255">
        <ele>1125.84</ele>
        <time>2022-08-04T08:07:57Z</time>
      </trkpt>
      <trkpt lat="44.65117" lon="3.88273">
        <ele>1125.36</ele>
        <time>2022-08-04T08:08:11Z</time>
      </trkpt>
      <trkpt lat="44.65116" lon="3.88295">
        <ele>1122.96</ele>
        <time>2022-08-04T08:08:27Z</time>
      </trkpt>
      <trkpt lat="44.65117" lon="3.88314">
        <ele>1120.07</ele>
        <time>2022-08-04T08:08:41Z</time>
      </trkpt>
      <trkpt lat="44.65117" lon="3.88329">
        <ele>1117.67</ele>
        <time>2022-08-04T08:08:54Z</time>
      </trkpt>
      <trkpt lat="44.65117" lon="3.8835">
        <ele>1113.34</ele>
        <time>2022-08-04T08:09:08Z</time>
      </trkpt>
      <trkpt lat="44.65113" lon="3.88369">
        <ele>1111.42</ele>
        <time>2022-08-04T08:09:23Z</time>
      </trkpt>
      <trkpt lat="44.6511" lon="3.88387">
        <ele>1110.94</ele>
        <time>2022-08-04T08:09:35Z</time>
      </trkpt>
      <trkpt lat="44.65106" lon="3.88407">
        <ele>1108.54</ele>
        <time>2022-08-04T08:09:50Z</time>
      </trkpt>
      <trkpt lat="44.65107" lon="3.88422">
        <ele>1105.65</ele>
        <time>2022-08-04T08:10:02Z</time>
      </trkpt>
      <trkpt lat="44.65104" lon="3.88443">
        <ele>1104.21</ele>
        <time>2022-08-04T08:10:16Z</time>
      </trkpt>
      <trkpt lat="44.65103" lon="3.88458">
        <ele>1102.77</ele>
        <time>2022-08-04T08:10:29Z</time>
      </trkpt>
      <trkpt lat="44.65097" lon="3.88477">
        <ele>1100.37</ele>
        <time>2022-08-04T08:10:43Z</time>
      </trkpt>
      <trkpt lat="44.65094" lon="3.88498">
        <ele>1098.44</ele>
        <time>2022-08-04T08:10:58Z</time>
      </trkpt>
      <trkpt lat="44.65093" lon="3.88515">
        <ele>1096.52</ele>
        <time>2022-08-04T08:11:11Z</time>
      </trkpt>
      <trkpt lat="44.6509" lon="3.88526">
        <ele>1095.56</ele>
        <time>2022-08-04T08:11:24Z</time>
      </trkpt>
      <trkpt lat="44.65086" lon="3.88543">
        <ele>1096.52</ele>
        <time>2022-08-04T08:11:37Z</time>
      </trkpt>
      <trkpt lat="44.65083" lon="3.88565">
        <ele>1095.08</ele>
        <time>2022-08-04T08:11:52Z</time>
      </trkpt>
      <trkpt lat="44.65078" lon="3.88586">
        <ele>1095.56</ele>
        <time>2022-08-04T08:12:07Z</time>
      </trkpt>
      <trkpt lat="44.65077" lon="3.88587">
        <ele>1096.04</ele>
        <time>2022-08-04T08:12:08Z</time>
      </trkpt>
      <trkpt lat="44.6507" lon="3.88605">
        <ele>1095.56</ele>
        <time>2022-08-04T08:12:23Z</time>
      </trkpt>
      <trkpt lat="44.65064" lon="3.88624">
        <ele>1093.64</ele>
        <time>2022-08-04T08:12:38Z</time>
      </trkpt>
      <trkpt lat="44.65057" lon="3.88639">
        <ele>1095.08</ele>
        <time>2022-08-04T08:12:51Z</time>
      </trkpt>
      <trkpt lat="44.65051" lon="3.88652">
        <ele>1094.12</ele>
        <time>2022-08-04T08:13:00Z</time>
      </trkpt>
      <trkpt lat="44.65048" lon="3.88653">
        <ele>1093.16</ele>
        <time>2022-08-04T08:13:02Z</time>
      </trkpt>
      <trkpt lat="44.65036" lon="3.88666">
        <ele>1092.2</ele>
        <time>2022-08-04T08:13:19Z</time>
      </trkpt>
      <trkpt lat="44.65032" lon="3.88668">
        <ele>1092.68</ele>
        <time>2022-08-04T08:13:25Z</time>
      </trkpt>
      <trkpt lat="44.65022" lon="3.88685">
        <ele>1092.2</ele>
        <time>2022-08-04T08:13:40Z</time>
      </trkpt>
      <trkpt lat="44.65019" lon="3.88696">
        <ele>1091.23</ele>
        <time>2022-08-04T08:13:46Z</time>
      </trkpt>
      <trkpt lat="44.65027" lon="3.88713">
        <ele>1089.31</ele>
        <time>2022-08-04T08:14:00Z</time>
      </trkpt>
      <trkpt lat="44.6504" lon="3.88735">
        <ele>1084.5</ele>
        <time>2022-08-04T08:14:16Z</time>
      </trkpt>
      <trkpt lat="44.65051" lon="3.88745">
        <ele>1084.02</ele>
        <time>2022-08-04T08:14:26Z</time>
      </trkpt>
      <trkpt lat="44.65062" lon="3.88754">
        <ele>1083.06</ele>
        <time>2022-08-04T08:14:42Z</time>
      </trkpt>
      <trkpt lat="44.65072" lon="3.88763">
        <ele>1082.58</ele>
        <time>2022-08-04T08:14:56Z</time>
      </trkpt>
      <trkpt lat="44.65075" lon="3.88765">
        <ele>1082.58</ele>
        <time>2022-08-04T08:14:59Z</time>
      </trkpt>
      <trkpt lat="44.6509" lon="3.88777">
        <ele>1077.78</ele>
        <time>2022-08-04T08:15:13Z</time>
      </trkpt>
      <trkpt lat="44.65107" lon="3.88786">
        <ele>1073.45</ele>
        <time>2022-08-04T08:15:29Z</time>
      </trkpt>
      <trkpt lat="44.65123" lon="3.8879">
        <ele>1067.2</ele>
        <time>2022-08-04T08:15:43Z</time>
      </trkpt>
      <trkpt lat="44.65125" lon="3.88794">
        <ele>1065.76</ele>
        <time>2022-08-04T08:15:46Z</time>
      </trkpt>
      <trkpt lat="44.65136" lon="3.88808">
        <ele>1060.95</ele>
        <time>2022-08-04T08:16:01Z</time>
      </trkpt>
      <trkpt lat="44.65136" lon="3.88812">
        <ele>1057.59</ele>
        <time>2022-08-04T08:16:18Z</time>
      </trkpt>
      <trkpt lat="44.6514" lon="3.88803">
        <ele>1055.18</ele>
        <time>2022-08-04T08:16:40Z</time>
      </trkpt>
      <trkpt lat="44.65145" lon="3.888">
        <ele>1054.22</ele>
        <time>2022-08-04T08:16:46Z</time>
      </trkpt>
      <trkpt lat="44.65158" lon="3.88807">
        <ele>1052.78</ele>
        <time>2022-08-04T08:16:59Z</time>
      </trkpt>
      <trkpt lat="44.65168" lon="3.88822">
        <ele>1051.34</ele>
        <time>2022-08-04T08:17:13Z</time>
      </trkpt>
      <trkpt lat="44.65173" lon="3.88829">
        <ele>1048.94</ele>
        <time>2022-08-04T08:17:26Z</time>
      </trkpt>
      <trkpt lat="44.65168" lon="3.88829">
        <ele>1047.97</ele>
        <time>2022-08-04T08:17:41Z</time>
      </trkpt>
      <trkpt lat="44.65167" lon="3.88829">
        <ele>1048.94</ele>
        <time>2022-08-04T08:17:59Z</time>
      </trkpt>
      <trkpt lat="44.65167" lon="3.88828">
        <ele>1048.94</ele>
        <time>2022-08-04T08:18:16Z</time>
      </trkpt>
      <trkpt lat="44.65169" lon="3.88825">
        <ele>1052.3</ele>
        <time>2022-08-04T08:19:00Z</time>
      </trkpt>
      <trkpt lat="44.65169" lon="3.88828">
        <ele>1052.3</ele>
        <time>2022-08-04T08:19:42Z</time>
      </trkpt>
      <trkpt lat="44.65171" lon="3.88829">
        <ele>1050.86</ele>
        <time>2022-08-04T08:20:02Z</time>
      </trkpt>
      <trkpt lat="44.6517" lon="3.88829">
        <ele>1050.38</ele>
        <time>2022-08-04T08:20:23Z</time>
      </trkpt>
      <trkpt lat="44.65171" lon="3.88828">
        <ele>1051.34</ele>
        <time>2022-08-04T08:20:40Z</time>
      </trkpt>
      <trkpt lat="44.65167" lon="3.88831">
        <ele>1049.9</ele>
        <time>2022-08-04T08:21:02Z</time>
      </trkpt>
      <trkpt lat="44.65168" lon="3.88824">
        <ele>1048.94</ele>
        <time>2022-08-04T08:21:36Z</time>
      </trkpt>
      <trkpt lat="44.65167" lon="3.88828">
        <ele>1049.42</ele>
        <time>2022-08-04T08:22:18Z</time>
      </trkpt>
      <trkpt lat="44.65166" lon="3.88827">
        <ele>1046.53</ele>
        <time>2022-08-04T08:22:59Z</time>
      </trkpt>
      <trkpt lat="44.65168" lon="3.88825">
        <ele>1056.63</ele>
        <time>2022-08-04T08:23:45Z</time>
      </trkpt>
      <trkpt lat="44.65165" lon="3.88823">
        <ele>1062.39</ele>
        <time>2022-08-04T08:24:33Z</time>
      </trkpt>
      <trkpt lat="44.65169" lon="3.88821">
        <ele>1057.59</ele>
        <time>2022-08-04T08:25:10Z</time>
      </trkpt>
      <trkpt lat="44.65173" lon="3.88824">
        <ele>1055.18</ele>
        <time>2022-08-04T08:25:55Z</time>
      </trkpt>
      <trkpt lat="44.65172" lon="3.88828">
        <ele>1054.22</ele>
        <time>2022-08-04T08:26:33Z</time>
      </trkpt>
      <trkpt lat="44.65171" lon="3.88821">
        <ele>1056.63</ele>
        <time>2022-08-04T08:27:02Z</time>
      </trkpt>
      <trkpt lat="44.65171" lon="3.88825">
        <ele>1055.18</ele>
        <time>2022-08-04T08:27:43Z</time>
      </trkpt>
      <trkpt lat="44.65173" lon="3.88826">
        <ele>1053.74</ele>
        <time>2022-08-04T08:28:18Z</time>
      </trkpt>
      <trkpt lat="44.65178" lon="3.88826">
        <ele>1052.78</ele>
        <time>2022-08-04T08:28:49Z</time>
      </trkpt>
      <trkpt lat="44.65173" lon="3.88824">
        <ele>1048.45</ele>
        <time>2022-08-04T08:29:29Z</time>
      </trkpt>
      <trkpt lat="44.6517" lon="3.88827">
        <ele>1048.45</ele>
        <time>2022-08-04T08:30:09Z</time>
      </trkpt>
      <trkpt lat="44.65173" lon="3.88825">
        <ele>1048.94</ele>
        <time>2022-08-04T08:30:51Z</time>
      </trkpt>
      <trkpt lat="44.6517" lon="3.88827">
        <ele>1049.42</ele>
        <time>2022-08-04T08:31:18Z</time>
      </trkpt>
      <trkpt lat="44.65169" lon="3.88826">
        <ele>1050.38</ele>
        <time>2022-08-04T08:31:34Z</time>
      </trkpt>
      <trkpt lat="44.65167" lon="3.88828">
        <ele>1049.42</ele>
        <time>2022-08-04T08:32:00Z</time>
      </trkpt>
      <trkpt lat="44.65168" lon="3.88831">
        <ele>1049.9</ele>
        <time>2022-08-04T08:32:25Z</time>
      </trkpt>
      <trkpt lat="44.6517" lon="3.88838">
        <ele>1050.38</ele>
        <time>2022-08-04T08:32:54Z</time>
      </trkpt>
      <trkpt lat="44.65173" lon="3.88843">
        <ele>1049.42</ele>
        <time>2022-08-04T08:32:58Z</time>
      </trkpt>
      <trkpt lat="44.65173" lon="3.88854">
        <ele>1048.94</ele>
        <time>2022-08-04T08:33:06Z</time>
      </trkpt>
      <trkpt lat="44.65178" lon="3.88873">
        <ele>1047.49</ele>
        <time>2022-08-04T08:33:22Z</time>
      </trkpt>
      <trkpt lat="44.6518" lon="3.8889">
        <ele>1046.05</ele>
        <time>2022-08-04T08:33:36Z</time>
      </trkpt>
      <trkpt lat="44.65176" lon="3.88907">
        <ele>1045.09</ele>
        <time>2022-08-04T08:33:51Z</time>
      </trkpt>
      <trkpt lat="44.65169" lon="3.88923">
        <ele>1043.65</ele>
        <time>2022-08-04T08:34:07Z</time>
      </trkpt>
      <trkpt lat="44.65163" lon="3.88939">
        <ele>1041.73</ele>
        <time>2022-08-04T08:34:23Z</time>
      </trkpt>
      <trkpt lat="44.65163" lon="3.88942">
        <ele>1041.25</ele>
        <time>2022-08-04T08:34:25Z</time>
      </trkpt>
      <trkpt lat="44.65165" lon="3.88961">
        <ele>1037.4</ele>
        <time>2022-08-04T08:34:40Z</time>
      </trkpt>
      <trkpt lat="44.65156" lon="3.88965">
        <ele>1037.88</ele>
        <time>2022-08-04T08:34:53Z</time>
      </trkpt>
      <trkpt lat="44.65145" lon="3.88967">
        <ele>1034.04</ele>
        <time>2022-08-04T08:35:08Z</time>
      </trkpt>
      <trkpt lat="44.65133" lon="3.8897">
        <ele>1032.11</ele>
        <time>2022-08-04T08:35:22Z</time>
      </trkpt>
      <trkpt lat="44.65121" lon="3.8897">
        <ele>1031.63</ele>
        <time>2022-08-04T08:35:37Z</time>
      </trkpt>
      <trkpt lat="44.65107" lon="3.8897">
        <ele>1031.15</ele>
        <time>2022-08-04T08:35:51Z</time>
      </trkpt>
      <trkpt lat="44.65101" lon="3.88973">
        <ele>1031.15</ele>
        <time>2022-08-04T08:35:57Z</time>
      </trkpt>
      <trkpt lat="44.65099" lon="3.88973">
        <ele>1031.15</ele>
        <time>2022-08-04T08:35:59Z</time>
      </trkpt>
      <trkpt lat="44.65083" lon="3.8897">
        <ele>1030.19</ele>
        <time>2022-08-04T08:36:16Z</time>
      </trkpt>
      <trkpt lat="44.65066" lon="3.88965">
        <ele>1025.86</ele>
        <time>2022-08-04T08:36:34Z</time>
      </trkpt>
      <trkpt lat="44.65056" lon="3.88967">
        <ele>1022.02</ele>
        <time>2022-08-04T08:36:45Z</time>
      </trkpt>
      <trkpt lat="44.65042" lon="3.8898">
        <ele>1018.17</ele>
        <time>2022-08-04T08:37:02Z</time>
      </trkpt>
      <trkpt lat="44.6503" lon="3.88992">
        <ele>1015.29</ele>
        <time>2022-08-04T08:37:16Z</time>
      </trkpt>
      <trkpt lat="44.65013" lon="3.89">
        <ele>1012.41</ele>
        <time>2022-08-04T08:37:31Z</time>
      </trkpt>
      <trkpt lat="44.65009" lon="3.89012">
        <ele>1011.44</ele>
        <time>2022-08-04T08:37:46Z</time>
      </trkpt>
      <trkpt lat="44.65004" lon="3.89008">
        <ele>1011.44</ele>
        <time>2022-08-04T08:37:52Z</time>
      </trkpt>
      <trkpt lat="44.64988" lon="3.89006">
        <ele>1012.89</ele>
        <time>2022-08-04T08:38:07Z</time>
      </trkpt>
      <trkpt lat="44.64975" lon="3.89007">
        <ele>1011.93</ele>
        <time>2022-08-04T08:38:18Z</time>
      </trkpt>
      <trkpt lat="44.64953" lon="3.89016">
        <ele>1010</ele>
        <time>2022-08-04T08:38:37Z</time>
      </trkpt>
      <trkpt lat="44.64948" lon="3.89018">
        <ele>1009.52</ele>
        <time>2022-08-04T08:38:42Z</time>
      </trkpt>
      <trkpt lat="44.64928" lon="3.89022">
        <ele>1009.52</ele>
        <time>2022-08-04T08:38:59Z</time>
      </trkpt>
      <trkpt lat="44.64912" lon="3.8903">
        <ele>1009.52</ele>
        <time>2022-08-04T08:39:13Z</time>
      </trkpt>
      <trkpt lat="44.64895" lon="3.89029">
        <ele>1009.04</ele>
        <time>2022-08-04T08:39:27Z</time>
      </trkpt>
      <trkpt lat="44.64878" lon="3.89029">
        <ele>1007.6</ele>
        <time>2022-08-04T08:39:40Z</time>
      </trkpt>
      <trkpt lat="44.64869" lon="3.8904">
        <ele>1005.2</ele>
        <time>2022-08-04T08:39:53Z</time>
      </trkpt>
      <trkpt lat="44.6486" lon="3.89046">
        <ele>1004.72</ele>
        <time>2022-08-04T08:40:08Z</time>
      </trkpt>
      <trkpt lat="44.64866" lon="3.89049">
        <ele>1004.72</ele>
        <time>2022-08-04T08:40:26Z</time>
      </trkpt>
      <trkpt lat="44.64863" lon="3.89049">
        <ele>1001.83</ele>
        <time>2022-08-04T08:40:49Z</time>
      </trkpt>
      <trkpt lat="44.64866" lon="3.89048">
        <ele>1001.35</ele>
        <time>2022-08-04T08:41:10Z</time>
      </trkpt>
      <trkpt lat="44.64867" lon="3.89048">
        <ele>1001.83</ele>
        <time>2022-08-04T08:41:34Z</time>
      </trkpt>
      <trkpt lat="44.6486" lon="3.89055">
        <ele>1000.39</ele>
        <time>2022-08-04T08:41:52Z</time>
      </trkpt>
      <trkpt lat="44.64852" lon="3.89061">
        <ele>1001.83</ele>
        <time>2022-08-04T08:42:03Z</time>
      </trkpt>
      <trkpt lat="44.64837" lon="3.89068">
        <ele>1003.75</ele>
        <time>2022-08-04T08:42:19Z</time>
      </trkpt>
      <trkpt lat="44.64835" lon="3.8907">
        <ele>1004.23</ele>
        <time>2022-08-04T08:42:21Z</time>
      </trkpt>
      <trkpt lat="44.64819" lon="3.89081">
        <ele>1008.08</ele>
        <time>2022-08-04T08:42:38Z</time>
      </trkpt>
      <trkpt lat="44.64805" lon="3.89093">
        <ele>1010.48</ele>
        <time>2022-08-04T08:42:53Z</time>
      </trkpt>
      <trkpt lat="44.64793" lon="3.89105">
        <ele>1010.48</ele>
        <time>2022-08-04T08:43:08Z</time>
      </trkpt>
      <trkpt lat="44.64779" lon="3.89113">
        <ele>1011.44</ele>
        <time>2022-08-04T08:43:22Z</time>
      </trkpt>
      <trkpt lat="44.6476" lon="3.89118">
        <ele>1011.93</ele>
        <time>2022-08-04T08:43:40Z</time>
      </trkpt>
      <trkpt lat="44.64743" lon="3.8913">
        <ele>1011.44</ele>
        <time>2022-08-04T08:43:58Z</time>
      </trkpt>
      <trkpt lat="44.64729" lon="3.89131">
        <ele>1009.52</ele>
        <time>2022-08-04T08:44:12Z</time>
      </trkpt>
      <trkpt lat="44.64715" lon="3.89136">
        <ele>1007.12</ele>
        <time>2022-08-04T08:44:26Z</time>
      </trkpt>
      <trkpt lat="44.6471" lon="3.89142">
        <ele>1007.12</ele>
        <time>2022-08-04T08:44:30Z</time>
      </trkpt>
      <trkpt lat="44.64706" lon="3.89142">
        <ele>1009.52</ele>
        <time>2022-08-04T08:44:35Z</time>
      </trkpt>
      <trkpt lat="44.64689" lon="3.89148">
        <ele>1010.96</ele>
        <time>2022-08-04T08:44:51Z</time>
      </trkpt>
      <trkpt lat="44.64671" lon="3.89155">
        <ele>1009.52</ele>
        <time>2022-08-04T08:45:06Z</time>
      </trkpt>
      <trkpt lat="44.64667" lon="3.89157">
        <ele>1009.04</ele>
        <time>2022-08-04T08:45:09Z</time>
      </trkpt>
      <trkpt lat="44.64652" lon="3.89167">
        <ele>1009.52</ele>
        <time>2022-08-04T08:45:24Z</time>
      </trkpt>
      <trkpt lat="44.64649" lon="3.89168">
        <ele>1009.52</ele>
        <time>2022-08-04T08:45:26Z</time>
      </trkpt>
      <trkpt lat="44.64633" lon="3.89178">
        <ele>1014.81</ele>
        <time>2022-08-04T08:45:41Z</time>
      </trkpt>
      <trkpt lat="44.64621" lon="3.89192">
        <ele>1018.17</ele>
        <time>2022-08-04T08:45:55Z</time>
      </trkpt>
      <trkpt lat="44.64612" lon="3.89209">
        <ele>1015.29</ele>
        <time>2022-08-04T08:46:08Z</time>
      </trkpt>
      <trkpt lat="44.64601" lon="3.89231">
        <ele>1012.89</ele>
        <time>2022-08-04T08:46:24Z</time>
      </trkpt>
      <trkpt lat="44.64598" lon="3.89244">
        <ele>1010</ele>
        <time>2022-08-04T08:46:32Z</time>
      </trkpt>
      <trkpt lat="44.64586" lon="3.89263">
        <ele>1009.04</ele>
        <time>2022-08-04T08:46:49Z</time>
      </trkpt>
      <trkpt lat="44.64573" lon="3.89278">
        <ele>1009.52</ele>
        <time>2022-08-04T08:47:04Z</time>
      </trkpt>
      <trkpt lat="44.64558" lon="3.89297">
        <ele>1008.56</ele>
        <time>2022-08-04T08:47:22Z</time>
      </trkpt>
      <trkpt lat="44.64543" lon="3.89316">
        <ele>1007.12</ele>
        <time>2022-08-04T08:47:40Z</time>
      </trkpt>
      <trkpt lat="44.6453" lon="3.89328">
        <ele>1006.16</ele>
        <time>2022-08-04T08:47:55Z</time>
      </trkpt>
      <trkpt lat="44.64515" lon="3.89341">
        <ele>1005.2</ele>
        <time>2022-08-04T08:48:11Z</time>
      </trkpt>
      <trkpt lat="44.6451" lon="3.89344">
        <ele>1005.2</ele>
        <time>2022-08-04T08:48:16Z</time>
      </trkpt>
      <trkpt lat="44.64506" lon="3.89347">
        <ele>1004.72</ele>
        <time>2022-08-04T08:48:20Z</time>
      </trkpt>
      <trkpt lat="44.64493" lon="3.89356">
        <ele>1004.23</ele>
        <time>2022-08-04T08:48:33Z</time>
      </trkpt>
      <trkpt lat="44.6448" lon="3.89366">
        <ele>1003.75</ele>
        <time>2022-08-04T08:48:47Z</time>
      </trkpt>
      <trkpt lat="44.64464" lon="3.89377">
        <ele>1004.23</ele>
        <time>2022-08-04T08:49:03Z</time>
      </trkpt>
      <trkpt lat="44.64455" lon="3.89387">
        <ele>1002.31</ele>
        <time>2022-08-04T08:49:17Z</time>
      </trkpt>
      <trkpt lat="44.64456" lon="3.89391">
        <ele>999.43</ele>
        <time>2022-08-04T08:49:32Z</time>
      </trkpt>
      <trkpt lat="44.64454" lon="3.89394">
        <ele>995.58</ele>
        <time>2022-08-04T08:50:04Z</time>
      </trkpt>
      <trkpt lat="44.64456" lon="3.89391">
        <ele>995.1</ele>
        <time>2022-08-04T08:50:21Z</time>
      </trkpt>
      <trkpt lat="44.64455" lon="3.8939">
        <ele>995.1</ele>
        <time>2022-08-04T08:50:22Z</time>
      </trkpt>
      <trkpt lat="44.6444" lon="3.89392">
        <ele>994.62</ele>
        <time>2022-08-04T08:50:36Z</time>
      </trkpt>
      <trkpt lat="44.64423" lon="3.894">
        <ele>994.62</ele>
        <time>2022-08-04T08:50:51Z</time>
      </trkpt>
      <trkpt lat="44.64406" lon="3.89406">
        <ele>992.7</ele>
        <time>2022-08-04T08:51:06Z</time>
      </trkpt>
      <trkpt lat="44.64391" lon="3.8941">
        <ele>992.7</ele>
        <time>2022-08-04T08:51:20Z</time>
      </trkpt>
      <trkpt lat="44.64378" lon="3.89414">
        <ele>989.33</ele>
        <time>2022-08-04T08:51:33Z</time>
      </trkpt>
      <trkpt lat="44.64362" lon="3.89416">
        <ele>986.45</ele>
        <time>2022-08-04T08:51:47Z</time>
      </trkpt>
      <trkpt lat="44.64355" lon="3.89415">
        <ele>986.45</ele>
        <time>2022-08-04T08:51:53Z</time>
      </trkpt>
      <trkpt lat="44.64347" lon="3.89416">
        <ele>985.01</ele>
        <time>2022-08-04T08:52:01Z</time>
      </trkpt>
      <trkpt lat="44.64331" lon="3.89414">
        <ele>985.01</ele>
        <time>2022-08-04T08:52:15Z</time>
      </trkpt>
      <trkpt lat="44.64317" lon="3.89409">
        <ele>984.05</ele>
        <time>2022-08-04T08:52:28Z</time>
      </trkpt>
      <trkpt lat="44.64302" lon="3.89401">
        <ele>984.05</ele>
        <time>2022-08-04T08:52:42Z</time>
      </trkpt>
      <trkpt lat="44.64286" lon="3.89391">
        <ele>984.05</ele>
        <time>2022-08-04T08:52:57Z</time>
      </trkpt>
      <trkpt lat="44.64272" lon="3.89383">
        <ele>983.09</ele>
        <time>2022-08-04T08:53:11Z</time>
      </trkpt>
      <trkpt lat="44.64258" lon="3.89372">
        <ele>983.57</ele>
        <time>2022-08-04T08:53:25Z</time>
      </trkpt>
      <trkpt lat="44.64244" lon="3.89366">
        <ele>982.12</ele>
        <time>2022-08-04T08:53:38Z</time>
      </trkpt>
      <trkpt lat="44.64228" lon="3.89359">
        <ele>981.64</ele>
        <time>2022-08-04T08:53:52Z</time>
      </trkpt>
      <trkpt lat="44.64223" lon="3.89356">
        <ele>981.16</ele>
        <time>2022-08-04T08:53:57Z</time>
      </trkpt>
      <trkpt lat="44.64208" lon="3.89341">
        <ele>980.68</ele>
        <time>2022-08-04T08:54:14Z</time>
      </trkpt>
      <trkpt lat="44.64195" lon="3.89328">
        <ele>980.2</ele>
        <time>2022-08-04T08:54:29Z</time>
      </trkpt>
      <trkpt lat="44.64181" lon="3.89315">
        <ele>978.28</ele>
        <time>2022-08-04T08:54:44Z</time>
      </trkpt>
      <trkpt lat="44.64166" lon="3.893">
        <ele>978.28</ele>
        <time>2022-08-04T08:55:00Z</time>
      </trkpt>
      <trkpt lat="44.6415" lon="3.89286">
        <ele>977.32</ele>
        <time>2022-08-04T08:55:17Z</time>
      </trkpt>
      <trkpt lat="44.64136" lon="3.89273">
        <ele>976.36</ele>
        <time>2022-08-04T08:55:33Z</time>
      </trkpt>
      <trkpt lat="44.64122" lon="3.89261">
        <ele>976.36</ele>
        <time>2022-08-04T08:55:47Z</time>
      </trkpt>
      <trkpt lat="44.64107" lon="3.8925">
        <ele>975.88</ele>
        <time>2022-08-04T08:56:02Z</time>
      </trkpt>
      <trkpt lat="44.64089" lon="3.8924">
        <ele>974.91</ele>
        <time>2022-08-04T08:56:19Z</time>
      </trkpt>
      <trkpt lat="44.64073" lon="3.89234">
        <ele>975.39</ele>
        <time>2022-08-04T08:56:33Z</time>
      </trkpt>
      <trkpt lat="44.64056" lon="3.89231">
        <ele>973.95</ele>
        <time>2022-08-04T08:56:49Z</time>
      </trkpt>
      <trkpt lat="44.64037" lon="3.89228">
        <ele>974.43</ele>
        <time>2022-08-04T08:57:04Z</time>
      </trkpt>
      <trkpt lat="44.64032" lon="3.89227">
        <ele>974.43</ele>
        <time>2022-08-04T08:57:08Z</time>
      </trkpt>
      <trkpt lat="44.64015" lon="3.89226">
        <ele>975.88</ele>
        <time>2022-08-04T08:57:23Z</time>
      </trkpt>
      <trkpt lat="44.64" lon="3.89226">
        <ele>975.88</ele>
        <time>2022-08-04T08:57:36Z</time>
      </trkpt>
      <trkpt lat="44.63981" lon="3.89226">
        <ele>977.8</ele>
        <time>2022-08-04T08:57:52Z</time>
      </trkpt>
      <trkpt lat="44.63966" lon="3.89225">
        <ele>977.8</ele>
        <time>2022-08-04T08:58:05Z</time>
      </trkpt>
      <trkpt lat="44.6395" lon="3.89226">
        <ele>977.8</ele>
        <time>2022-08-04T08:58:19Z</time>
      </trkpt>
      <trkpt lat="44.63934" lon="3.89226">
        <ele>979.24</ele>
        <time>2022-08-04T08:58:34Z</time>
      </trkpt>
      <trkpt lat="44.63916" lon="3.89226">
        <ele>982.12</ele>
        <time>2022-08-04T08:58:50Z</time>
      </trkpt>
      <trkpt lat="44.63897" lon="3.89227">
        <ele>983.09</ele>
        <time>2022-08-04T08:59:07Z</time>
      </trkpt>
      <trkpt lat="44.63881" lon="3.89226">
        <ele>982.6</ele>
        <time>2022-08-04T08:59:22Z</time>
      </trkpt>
      <trkpt lat="44.63864" lon="3.89228">
        <ele>981.64</ele>
        <time>2022-08-04T08:59:37Z</time>
      </trkpt>
      <trkpt lat="44.63847" lon="3.8923">
        <ele>983.57</ele>
        <time>2022-08-04T08:59:51Z</time>
      </trkpt>
      <trkpt lat="44.63836" lon="3.89249">
        <ele>982.6</ele>
        <time>2022-08-04T09:00:07Z</time>
      </trkpt>
      <trkpt lat="44.63824" lon="3.89253">
        <ele>985.01</ele>
        <time>2022-08-04T09:00:17Z</time>
      </trkpt>
      <trkpt lat="44.63807" lon="3.8926">
        <ele>985.97</ele>
        <time>2022-08-04T09:00:32Z</time>
      </trkpt>
      <trkpt lat="44.63804" lon="3.89261">
        <ele>985.97</ele>
        <time>2022-08-04T09:00:34Z</time>
      </trkpt>
      <trkpt lat="44.63787" lon="3.89271">
        <ele>987.89</ele>
        <time>2022-08-04T09:00:49Z</time>
      </trkpt>
      <trkpt lat="44.63769" lon="3.89284">
        <ele>985.01</ele>
        <time>2022-08-04T09:01:07Z</time>
      </trkpt>
      <trkpt lat="44.63752" lon="3.89302">
        <ele>984.05</ele>
        <time>2022-08-04T09:01:25Z</time>
      </trkpt>
      <trkpt lat="44.63742" lon="3.89329">
        <ele>985.01</ele>
        <time>2022-08-04T09:01:42Z</time>
      </trkpt>
      <trkpt lat="44.63735" lon="3.89351">
        <ele>982.12</ele>
        <time>2022-08-04T09:01:58Z</time>
      </trkpt>
      <trkpt lat="44.63728" lon="3.89358">
        <ele>982.12</ele>
        <time>2022-08-04T09:02:06Z</time>
      </trkpt>
      <trkpt lat="44.63722" lon="3.89359">
        <ele>982.6</ele>
        <time>2022-08-04T09:02:11Z</time>
      </trkpt>
      <trkpt lat="44.63704" lon="3.89359">
        <ele>984.05</ele>
        <time>2022-08-04T09:02:27Z</time>
      </trkpt>
      <trkpt lat="44.63691" lon="3.89358">
        <ele>982.12</ele>
        <time>2022-08-04T09:02:40Z</time>
      </trkpt>
      <trkpt lat="44.63673" lon="3.89364">
        <ele>979.24</ele>
        <time>2022-08-04T09:02:56Z</time>
      </trkpt>
      <trkpt lat="44.63658" lon="3.89369">
        <ele>977.8</ele>
        <time>2022-08-04T09:03:10Z</time>
      </trkpt>
      <trkpt lat="44.63639" lon="3.89376">
        <ele>978.76</ele>
        <time>2022-08-04T09:03:27Z</time>
      </trkpt>
      <trkpt lat="44.63628" lon="3.89378">
        <ele>979.72</ele>
        <time>2022-08-04T09:03:36Z</time>
      </trkpt>
      <trkpt lat="44.6361" lon="3.89386">
        <ele>980.2</ele>
        <time>2022-08-04T09:03:53Z</time>
      </trkpt>
      <trkpt lat="44.63593" lon="3.8939">
        <ele>980.68</ele>
        <time>2022-08-04T09:04:07Z</time>
      </trkpt>
      <trkpt lat="44.63575" lon="3.89394">
        <ele>983.57</ele>
        <time>2022-08-04T09:04:23Z</time>
      </trkpt>
      <trkpt lat="44.63557" lon="3.894">
        <ele>984.53</ele>
        <time>2022-08-04T09:04:39Z</time>
      </trkpt>
      <trkpt lat="44.63539" lon="3.89404">
        <ele>983.57</ele>
        <time>2022-08-04T09:04:55Z</time>
      </trkpt>
      <trkpt lat="44.63523" lon="3.8941">
        <ele>985.01</ele>
        <time>2022-08-04T09:05:10Z</time>
      </trkpt>
      <trkpt lat="44.63509" lon="3.89413">
        <ele>983.57</ele>
        <time>2022-08-04T09:05:25Z</time>
      </trkpt>
      <trkpt lat="44.63492" lon="3.89418">
        <ele>983.57</ele>
        <time>2022-08-04T09:05:39Z</time>
      </trkpt>
      <trkpt lat="44.6349" lon="3.89419">
        <ele>982.12</ele>
        <time>2022-08-04T09:05:49Z</time>
      </trkpt>
      <trkpt lat="44.63486" lon="3.89423">
        <ele>980.2</ele>
        <time>2022-08-04T09:06:01Z</time>
      </trkpt>
      <trkpt lat="44.63486" lon="3.89421">
        <ele>981.16</ele>
        <time>2022-08-04T09:06:13Z</time>
      </trkpt>
      <trkpt lat="44.63484" lon="3.89421">
        <ele>981.16</ele>
        <time>2022-08-04T09:06:15Z</time>
      </trkpt>
      <trkpt lat="44.63479" lon="3.89425">
        <ele>981.16</ele>
        <time>2022-08-04T09:06:20Z</time>
      </trkpt>
      <trkpt lat="44.6347" lon="3.89445">
        <ele>980.68</ele>
        <time>2022-08-04T09:06:36Z</time>
      </trkpt>
      <trkpt lat="44.63473" lon="3.89471">
        <ele>976.84</ele>
        <time>2022-08-04T09:06:51Z</time>
      </trkpt>
      <trkpt lat="44.63472" lon="3.89473">
        <ele>976.84</ele>
        <time>2022-08-04T09:06:52Z</time>
      </trkpt>
      <trkpt lat="44.6347" lon="3.89491">
        <ele>975.39</ele>
        <time>2022-08-04T09:07:06Z</time>
      </trkpt>
      <trkpt lat="44.63463" lon="3.89492">
        <ele>975.39</ele>
        <time>2022-08-04T09:07:15Z</time>
      </trkpt>
      <trkpt lat="44.63451" lon="3.89484">
        <ele>972.99</ele>
        <time>2022-08-04T09:07:30Z</time>
      </trkpt>
      <trkpt lat="44.63436" lon="3.89478">
        <ele>970.59</ele>
        <time>2022-08-04T09:07:47Z</time>
      </trkpt>
      <trkpt lat="44.63423" lon="3.89469">
        <ele>968.18</ele>
        <time>2022-08-04T09:08:01Z</time>
      </trkpt>
      <trkpt lat="44.63418" lon="3.89472">
        <ele>967.7</ele>
        <time>2022-08-04T09:08:06Z</time>
      </trkpt>
      <trkpt lat="44.63416" lon="3.89474">
        <ele>969.15</ele>
        <time>2022-08-04T09:08:25Z</time>
      </trkpt>
      <trkpt lat="44.63413" lon="3.89473">
        <ele>968.18</ele>
        <time>2022-08-04T09:08:45Z</time>
      </trkpt>
      <trkpt lat="44.63417" lon="3.89474">
        <ele>972.51</ele>
        <time>2022-08-04T09:09:16Z</time>
      </trkpt>
      <trkpt lat="44.63418" lon="3.89471">
        <ele>973.47</ele>
        <time>2022-08-04T09:09:51Z</time>
      </trkpt>
      <trkpt lat="44.63417" lon="3.89475">
        <ele>974.43</ele>
        <time>2022-08-04T09:10:29Z</time>
      </trkpt>
      <trkpt lat="44.63417" lon="3.89474">
        <ele>975.88</ele>
        <time>2022-08-04T09:11:02Z</time>
      </trkpt>
      <trkpt lat="44.63416" lon="3.89472">
        <ele>973.47</ele>
        <time>2022-08-04T09:11:30Z</time>
      </trkpt>
      <trkpt lat="44.63412" lon="3.89471">
        <ele>972.99</ele>
        <time>2022-08-04T09:11:58Z</time>
      </trkpt>
      <trkpt lat="44.63411" lon="3.8947">
        <ele>975.88</ele>
        <time>2022-08-04T09:12:30Z</time>
      </trkpt>
      <trkpt lat="44.63413" lon="3.89474">
        <ele>970.59</ele>
        <time>2022-08-04T09:12:54Z</time>
      </trkpt>
      <trkpt lat="44.63414" lon="3.89474">
        <ele>971.07</ele>
        <time>2022-08-04T09:13:18Z</time>
      </trkpt>
      <trkpt lat="44.63415" lon="3.89474">
        <ele>977.32</ele>
        <time>2022-08-04T09:13:42Z</time>
      </trkpt>
      <trkpt lat="44.63415" lon="3.89474">
        <ele>975.88</ele>
        <time>2022-08-04T09:14:14Z</time>
      </trkpt>
      <trkpt lat="44.63416" lon="3.89474">
        <ele>975.88</ele>
        <time>2022-08-04T09:14:33Z</time>
      </trkpt>
      <trkpt lat="44.63416" lon="3.89473">
        <ele>974.43</ele>
        <time>2022-08-04T09:15:03Z</time>
      </trkpt>
      <trkpt lat="44.63416" lon="3.89475">
        <ele>973.47</ele>
        <time>2022-08-04T09:15:34Z</time>
      </trkpt>
      <trkpt lat="44.63416" lon="3.89474">
        <ele>973.47</ele>
        <time>2022-08-04T09:15:52Z</time>
      </trkpt>
      <trkpt lat="44.63415" lon="3.89474">
        <ele>972.51</ele>
        <time>2022-08-04T09:16:17Z</time>
      </trkpt>
      <trkpt lat="44.63414" lon="3.89475">
        <ele>972.99</ele>
        <time>2022-08-04T09:16:34Z</time>
      </trkpt>
      <trkpt lat="44.63415" lon="3.89473">
        <ele>972.51</ele>
        <time>2022-08-04T09:16:59Z</time>
      </trkpt>
      <trkpt lat="44.6341" lon="3.89471">
        <ele>972.99</ele>
        <time>2022-08-04T09:17:10Z</time>
      </trkpt>
      <trkpt lat="44.63395" lon="3.89464">
        <ele>972.99</ele>
        <time>2022-08-04T09:17:25Z</time>
      </trkpt>
      <trkpt lat="44.63378" lon="3.89459">
        <ele>973.95</ele>
        <time>2022-08-04T09:17:40Z</time>
      </trkpt>
      <trkpt lat="44.6336" lon="3.89455">
        <ele>972.99</ele>
        <time>2022-08-04T09:17:56Z</time>
      </trkpt>
      <trkpt lat="44.63342" lon="3.89451">
        <ele>971.07</ele>
        <time>2022-08-04T09:18:14Z</time>
      </trkpt>
      <trkpt lat="44.63337" lon="3.89452">
        <ele>969.63</ele>
        <time>2022-08-04T09:18:20Z</time>
      </trkpt>
      <trkpt lat="44.6333" lon="3.89453">
        <ele>968.18</ele>
        <time>2022-08-04T09:18:27Z</time>
      </trkpt>
      <trkpt lat="44.6331" lon="3.89446">
        <ele>971.07</ele>
        <time>2022-08-04T09:18:43Z</time>
      </trkpt>
      <trkpt lat="44.63291" lon="3.89447">
        <ele>973.47</ele>
        <time>2022-08-04T09:18:58Z</time>
      </trkpt>
      <trkpt lat="44.63273" lon="3.8945">
        <ele>973.95</ele>
        <time>2022-08-04T09:19:13Z</time>
      </trkpt>
      <trkpt lat="44.63255" lon="3.89457">
        <ele>974.91</ele>
        <time>2022-08-04T09:19:28Z</time>
      </trkpt>
      <trkpt lat="44.63237" lon="3.89462">
        <ele>974.43</ele>
        <time>2022-08-04T09:19:44Z</time>
      </trkpt>
      <trkpt lat="44.63219" lon="3.89465">
        <ele>974.91</ele>
        <time>2022-08-04T09:20:00Z</time>
      </trkpt>
      <trkpt lat="44.63201" lon="3.8947">
        <ele>973.47</ele>
        <time>2022-08-04T09:20:16Z</time>
      </trkpt>
      <trkpt lat="44.63181" lon="3.89478">
        <ele>974.43</ele>
        <time>2022-08-04T09:20:33Z</time>
      </trkpt>
      <trkpt lat="44.63179" lon="3.89473">
        <ele>974.43</ele>
        <time>2022-08-04T09:20:44Z</time>
      </trkpt>
      <trkpt lat="44.63163" lon="3.89479">
        <ele>974.43</ele>
        <time>2022-08-04T09:20:59Z</time>
      </trkpt>
      <trkpt lat="44.63148" lon="3.89485">
        <ele>973.95</ele>
        <time>2022-08-04T09:21:12Z</time>
      </trkpt>
      <trkpt lat="44.63128" lon="3.89487">
        <ele>976.36</ele>
        <time>2022-08-04T09:21:28Z</time>
      </trkpt>
      <trkpt lat="44.6311" lon="3.89488">
        <ele>975.88</ele>
        <time>2022-08-04T09:21:43Z</time>
      </trkpt>
      <trkpt lat="44.63091" lon="3.89486">
        <ele>974.43</ele>
        <time>2022-08-04T09:21:59Z</time>
      </trkpt>
      <trkpt lat="44.63075" lon="3.89484">
        <ele>974.43</ele>
        <time>2022-08-04T09:22:14Z</time>
      </trkpt>
      <trkpt lat="44.63059" lon="3.89485">
        <ele>976.36</ele>
        <time>2022-08-04T09:22:27Z</time>
      </trkpt>
      <trkpt lat="44.63037" lon="3.8949">
        <ele>976.84</ele>
        <time>2022-08-04T09:22:45Z</time>
      </trkpt>
      <trkpt lat="44.63036" lon="3.89494">
        <ele>976.84</ele>
        <time>2022-08-04T09:22:59Z</time>
      </trkpt>
      <trkpt lat="44.63035" lon="3.89494">
        <ele>977.32</ele>
        <time>2022-08-04T09:23:04Z</time>
      </trkpt>
      <trkpt lat="44.63034" lon="3.89497">
        <ele>977.32</ele>
        <time>2022-08-04T09:23:07Z</time>
      </trkpt>
      <trkpt lat="44.63028" lon="3.89516">
        <ele>975.39</ele>
        <time>2022-08-04T09:23:19Z</time>
      </trkpt>
      <trkpt lat="44.63023" lon="3.89523">
        <ele>975.88</ele>
        <time>2022-08-04T09:23:24Z</time>
      </trkpt>
      <trkpt lat="44.63018" lon="3.89528">
        <ele>975.88</ele>
        <time>2022-08-04T09:23:30Z</time>
      </trkpt>
      <trkpt lat="44.63001" lon="3.8954">
        <ele>984.05</ele>
        <time>2022-08-04T09:23:46Z</time>
      </trkpt>
      <trkpt lat="44.62991" lon="3.89557">
        <ele>983.09</ele>
        <time>2022-08-04T09:23:59Z</time>
      </trkpt>
      <trkpt lat="44.62988" lon="3.89581">
        <ele>979.24</ele>
        <time>2022-08-04T09:24:13Z</time>
      </trkpt>
      <trkpt lat="44.62983" lon="3.89608">
        <ele>979.72</ele>
        <time>2022-08-04T09:24:31Z</time>
      </trkpt>
      <trkpt lat="44.62978" lon="3.89625">
        <ele>981.16</ele>
        <time>2022-08-04T09:24:45Z</time>
      </trkpt>
      <trkpt lat="44.62969" lon="3.89642">
        <ele>982.6</ele>
        <time>2022-08-04T09:25:00Z</time>
      </trkpt>
      <trkpt lat="44.62966" lon="3.89645">
        <ele>982.6</ele>
        <time>2022-08-04T09:25:03Z</time>
      </trkpt>
      <trkpt lat="44.62958" lon="3.89664">
        <ele>985.49</ele>
        <time>2022-08-04T09:25:19Z</time>
      </trkpt>
      <trkpt lat="44.62952" lon="3.89683">
        <ele>986.45</ele>
        <time>2022-08-04T09:25:32Z</time>
      </trkpt>
      <trkpt lat="44.62943" lon="3.89699">
        <ele>988.37</ele>
        <time>2022-08-04T09:25:47Z</time>
      </trkpt>
      <trkpt lat="44.62931" lon="3.89716">
        <ele>992.7</ele>
        <time>2022-08-04T09:26:04Z</time>
      </trkpt>
      <trkpt lat="44.62923" lon="3.89722">
        <ele>994.62</ele>
        <time>2022-08-04T09:26:14Z</time>
      </trkpt>
      <trkpt lat="44.6291" lon="3.89732">
        <ele>997.02</ele>
        <time>2022-08-04T09:26:28Z</time>
      </trkpt>
      <trkpt lat="44.62902" lon="3.89745">
        <ele>998.95</ele>
        <time>2022-08-04T09:26:41Z</time>
      </trkpt>
      <trkpt lat="44.62895" lon="3.89762">
        <ele>998.95</ele>
        <time>2022-08-04T09:26:57Z</time>
      </trkpt>
      <trkpt lat="44.62886" lon="3.89781">
        <ele>1000.87</ele>
        <time>2022-08-04T09:27:13Z</time>
      </trkpt>
      <trkpt lat="44.62876" lon="3.89801">
        <ele>1002.31</ele>
        <time>2022-08-04T09:27:31Z</time>
      </trkpt>
      <trkpt lat="44.62876" lon="3.89802">
        <ele>1002.31</ele>
        <time>2022-08-04T09:27:32Z</time>
      </trkpt>
      <trkpt lat="44.62868" lon="3.89811">
        <ele>1005.2</ele>
        <time>2022-08-04T09:27:43Z</time>
      </trkpt>
      <trkpt lat="44.62856" lon="3.89833">
        <ele>1005.2</ele>
        <time>2022-08-04T09:28:02Z</time>
      </trkpt>
      <trkpt lat="44.62854" lon="3.89838">
        <ele>1004.72</ele>
        <time>2022-08-04T09:28:06Z</time>
      </trkpt>
      <trkpt lat="44.62839" lon="3.89857">
        <ele>1005.2</ele>
        <time>2022-08-04T09:28:26Z</time>
      </trkpt>
      <trkpt lat="44.62825" lon="3.89873">
        <ele>1005.68</ele>
        <time>2022-08-04T09:28:43Z</time>
      </trkpt>
      <trkpt lat="44.62819" lon="3.8988">
        <ele>1005.2</ele>
        <time>2022-08-04T09:28:51Z</time>
      </trkpt>
      <trkpt lat="44.62801" lon="3.89891">
        <ele>1009.04</ele>
        <time>2022-08-04T09:29:07Z</time>
      </trkpt>
      <trkpt lat="44.62793" lon="3.89905">
        <ele>1010</ele>
        <time>2022-08-04T09:29:18Z</time>
      </trkpt>
      <trkpt lat="44.62782" lon="3.89898">
        <ele>1010</ele>
        <time>2022-08-04T09:29:31Z</time>
      </trkpt>
      <trkpt lat="44.62774" lon="3.89897">
        <ele>1008.56</ele>
        <time>2022-08-04T09:29:38Z</time>
      </trkpt>
      <trkpt lat="44.62771" lon="3.89896">
        <ele>1008.56</ele>
        <time>2022-08-04T09:29:40Z</time>
      </trkpt>
      <trkpt lat="44.62755" lon="3.89904">
        <ele>1008.56</ele>
        <time>2022-08-04T09:29:55Z</time>
      </trkpt>
      <trkpt lat="44.62753" lon="3.89905">
        <ele>1008.56</ele>
        <time>2022-08-04T09:29:57Z</time>
      </trkpt>
      <trkpt lat="44.62736" lon="3.89919">
        <ele>1007.6</ele>
        <time>2022-08-04T09:30:14Z</time>
      </trkpt>
      <trkpt lat="44.62721" lon="3.89933">
        <ele>1007.12</ele>
        <time>2022-08-04T09:30:29Z</time>
      </trkpt>
      <trkpt lat="44.62709" lon="3.89949">
        <ele>1005.68</ele>
        <time>2022-08-04T09:30:43Z</time>
      </trkpt>
      <trkpt lat="44.62695" lon="3.89964">
        <ele>1003.75</ele>
        <time>2022-08-04T09:30:58Z</time>
      </trkpt>
      <trkpt lat="44.62681" lon="3.89981">
        <ele>1002.79</ele>
        <time>2022-08-04T09:31:13Z</time>
      </trkpt>
      <trkpt lat="44.62681" lon="3.89982">
        <ele>1002.79</ele>
        <time>2022-08-04T09:31:14Z</time>
      </trkpt>
      <trkpt lat="44.62676" lon="3.89988">
        <ele>1003.75</ele>
        <time>2022-08-04T09:31:19Z</time>
      </trkpt>
      <trkpt lat="44.62666" lon="3.90008">
        <ele>1002.31</ele>
        <time>2022-08-04T09:31:34Z</time>
      </trkpt>
      <trkpt lat="44.62664" lon="3.90015">
        <ele>1002.31</ele>
        <time>2022-08-04T09:31:38Z</time>
      </trkpt>
      <trkpt lat="44.62659" lon="3.90023">
        <ele>1001.83</ele>
        <time>2022-08-04T09:31:44Z</time>
      </trkpt>
      <trkpt lat="44.62643" lon="3.90042">
        <ele>999.91</ele>
        <time>2022-08-04T09:32:01Z</time>
      </trkpt>
      <trkpt lat="44.62628" lon="3.9006">
        <ele>998.95</ele>
        <time>2022-08-04T09:32:16Z</time>
      </trkpt>
      <trkpt lat="44.62612" lon="3.90078">
        <ele>998.47</ele>
        <time>2022-08-04T09:32:32Z</time>
      </trkpt>
      <trkpt lat="44.62599" lon="3.90098">
        <ele>996.54</ele>
        <time>2022-08-04T09:32:47Z</time>
      </trkpt>
      <trkpt lat="44.62596" lon="3.90123">
        <ele>995.58</ele>
        <time>2022-08-04T09:33:02Z</time>
      </trkpt>
      <trkpt lat="44.62594" lon="3.90148">
        <ele>993.18</ele>
        <time>2022-08-04T09:33:16Z</time>
      </trkpt>
      <trkpt lat="44.62586" lon="3.90179">
        <ele>990.78</ele>
        <time>2022-08-04T09:33:35Z</time>
      </trkpt>
      <trkpt lat="44.62579" lon="3.90207">
        <ele>989.81</ele>
        <time>2022-08-04T09:33:52Z</time>
      </trkpt>
      <trkpt lat="44.62575" lon="3.9024">
        <ele>988.85</ele>
        <time>2022-08-04T09:34:10Z</time>
      </trkpt>
      <trkpt lat="44.62573" lon="3.90271">
        <ele>988.85</ele>
        <time>2022-08-04T09:34:28Z</time>
      </trkpt>
      <trkpt lat="44.6257" lon="3.90303">
        <ele>989.81</ele>
        <time>2022-08-04T09:34:46Z</time>
      </trkpt>
      <trkpt lat="44.62567" lon="3.90337">
        <ele>992.22</ele>
        <time>2022-08-04T09:35:06Z</time>
      </trkpt>
      <trkpt lat="44.62564" lon="3.90367">
        <ele>992.7</ele>
        <time>2022-08-04T09:35:24Z</time>
      </trkpt>
      <trkpt lat="44.62562" lon="3.90399">
        <ele>994.14</ele>
        <time>2022-08-04T09:35:43Z</time>
      </trkpt>
      <trkpt lat="44.62558" lon="3.90428">
        <ele>995.1</ele>
        <time>2022-08-04T09:36:01Z</time>
      </trkpt>
      <trkpt lat="44.62559" lon="3.90457">
        <ele>993.66</ele>
        <time>2022-08-04T09:36:17Z</time>
      </trkpt>
      <trkpt lat="44.62558" lon="3.90486">
        <ele>995.1</ele>
        <time>2022-08-04T09:36:34Z</time>
      </trkpt>
      <trkpt lat="44.62554" lon="3.9051">
        <ele>992.7</ele>
        <time>2022-08-04T09:36:50Z</time>
      </trkpt>
      <trkpt lat="44.62551" lon="3.90512">
        <ele>992.7</ele>
        <time>2022-08-04T09:36:53Z</time>
      </trkpt>
      <trkpt lat="44.62545" lon="3.90513">
        <ele>992.7</ele>
        <time>2022-08-04T09:36:58Z</time>
      </trkpt>
      <trkpt lat="44.62522" lon="3.90517">
        <ele>992.7</ele>
        <time>2022-08-04T09:37:16Z</time>
      </trkpt>
      <trkpt lat="44.62506" lon="3.90527">
        <ele>992.22</ele>
        <time>2022-08-04T09:37:30Z</time>
      </trkpt>
      <trkpt lat="44.62491" lon="3.90543">
        <ele>994.62</ele>
        <time>2022-08-04T09:37:47Z</time>
      </trkpt>
      <trkpt lat="44.62473" lon="3.90559">
        <ele>998.95</ele>
        <time>2022-08-04T09:38:06Z</time>
      </trkpt>
      <trkpt lat="44.62465" lon="3.9057">
        <ele>998.95</ele>
        <time>2022-08-04T09:38:23Z</time>
      </trkpt>
      <trkpt lat="44.62455" lon="3.90578">
        <ele>999.91</ele>
        <time>2022-08-04T09:38:38Z</time>
      </trkpt>
      <trkpt lat="44.62443" lon="3.90588">
        <ele>998.47</ele>
        <time>2022-08-04T09:38:56Z</time>
      </trkpt>
      <trkpt lat="44.62432" lon="3.90593">
        <ele>1001.83</ele>
        <time>2022-08-04T09:39:12Z</time>
      </trkpt>
      <trkpt lat="44.62419" lon="3.90601">
        <ele>1003.27</ele>
        <time>2022-08-04T09:39:27Z</time>
      </trkpt>
      <trkpt lat="44.62404" lon="3.9061">
        <ele>1004.23</ele>
        <time>2022-08-04T09:39:44Z</time>
      </trkpt>
      <trkpt lat="44.62388" lon="3.9062">
        <ele>1006.64</ele>
        <time>2022-08-04T09:40:02Z</time>
      </trkpt>
      <trkpt lat="44.62374" lon="3.9063">
        <ele>1009.52</ele>
        <time>2022-08-04T09:40:20Z</time>
      </trkpt>
      <trkpt lat="44.6236" lon="3.90638">
        <ele>1011.44</ele>
        <time>2022-08-04T09:40:37Z</time>
      </trkpt>
      <trkpt lat="44.62346" lon="3.90645">
        <ele>1013.85</ele>
        <time>2022-08-04T09:40:54Z</time>
      </trkpt>
      <trkpt lat="44.62333" lon="3.9065">
        <ele>1015.29</ele>
        <time>2022-08-04T09:41:10Z</time>
      </trkpt>
      <trkpt lat="44.62323" lon="3.90659">
        <ele>1017.69</ele>
        <time>2022-08-04T09:41:27Z</time>
      </trkpt>
      <trkpt lat="44.62311" lon="3.90669">
        <ele>1020.1</ele>
        <time>2022-08-04T09:41:43Z</time>
      </trkpt>
      <trkpt lat="44.62299" lon="3.9068">
        <ele>1023.46</ele>
        <time>2022-08-04T09:42:00Z</time>
      </trkpt>
      <trkpt lat="44.62288" lon="3.9069">
        <ele>1024.9</ele>
        <time>2022-08-04T09:42:15Z</time>
      </trkpt>
      <trkpt lat="44.62279" lon="3.90704">
        <ele>1026.34</ele>
        <time>2022-08-04T09:42:31Z</time>
      </trkpt>
      <trkpt lat="44.62268" lon="3.90719">
        <ele>1028.75</ele>
        <time>2022-08-04T09:42:46Z</time>
      </trkpt>
      <trkpt lat="44.62257" lon="3.90737">
        <ele>1032.11</ele>
        <time>2022-08-04T09:43:03Z</time>
      </trkpt>
      <trkpt lat="44.62252" lon="3.90742">
        <ele>1032.11</ele>
        <time>2022-08-04T09:43:09Z</time>
      </trkpt>
      <trkpt lat="44.6224" lon="3.90756">
        <ele>1033.55</ele>
        <time>2022-08-04T09:43:26Z</time>
      </trkpt>
      <trkpt lat="44.6223" lon="3.90769">
        <ele>1035</ele>
        <time>2022-08-04T09:43:41Z</time>
      </trkpt>
      <trkpt lat="44.62224" lon="3.90774">
        <ele>1035.96</ele>
        <time>2022-08-04T09:43:48Z</time>
      </trkpt>
      <trkpt lat="44.62211" lon="3.90788">
        <ele>1038.36</ele>
        <time>2022-08-04T09:44:05Z</time>
      </trkpt>
      <trkpt lat="44.62198" lon="3.90802">
        <ele>1041.25</ele>
        <time>2022-08-04T09:44:21Z</time>
      </trkpt>
      <trkpt lat="44.62185" lon="3.90815">
        <ele>1041.25</ele>
        <time>2022-08-04T09:44:38Z</time>
      </trkpt>
      <trkpt lat="44.62173" lon="3.90827">
        <ele>1043.17</ele>
        <time>2022-08-04T09:44:53Z</time>
      </trkpt>
      <trkpt lat="44.6216" lon="3.90841">
        <ele>1044.61</ele>
        <time>2022-08-04T09:45:09Z</time>
      </trkpt>
      <trkpt lat="44.62148" lon="3.9086">
        <ele>1046.05</ele>
        <time>2022-08-04T09:45:26Z</time>
      </trkpt>
      <trkpt lat="44.62138" lon="3.90878">
        <ele>1048.94</ele>
        <time>2022-08-04T09:45:42Z</time>
      </trkpt>
      <trkpt lat="44.62134" lon="3.90898">
        <ele>1050.38</ele>
        <time>2022-08-04T09:45:56Z</time>
      </trkpt>
      <trkpt lat="44.62124" lon="3.90919">
        <ele>1051.34</ele>
        <time>2022-08-04T09:46:12Z</time>
      </trkpt>
      <trkpt lat="44.62117" lon="3.90926">
        <ele>1053.26</ele>
        <time>2022-08-04T09:46:19Z</time>
      </trkpt>
      <trkpt lat="44.62109" lon="3.90947">
        <ele>1058.07</ele>
        <time>2022-08-04T09:46:35Z</time>
      </trkpt>
      <trkpt lat="44.62103" lon="3.90958">
        <ele>1062.39</ele>
        <time>2022-08-04T09:46:46Z</time>
      </trkpt>
      <trkpt lat="44.62092" lon="3.90977">
        <ele>1065.28</ele>
        <time>2022-08-04T09:47:02Z</time>
      </trkpt>
      <trkpt lat="44.62089" lon="3.90995">
        <ele>1065.28</ele>
        <time>2022-08-04T09:47:17Z</time>
      </trkpt>
      <trkpt lat="44.62084" lon="3.91014">
        <ele>1064.8</ele>
        <time>2022-08-04T09:47:33Z</time>
      </trkpt>
      <trkpt lat="44.62079" lon="3.91033">
        <ele>1062.87</ele>
        <time>2022-08-04T09:47:47Z</time>
      </trkpt>
      <trkpt lat="44.62079" lon="3.91047">
        <ele>1065.28</ele>
        <time>2022-08-04T09:47:56Z</time>
      </trkpt>
      <trkpt lat="44.62076" lon="3.91071">
        <ele>1067.68</ele>
        <time>2022-08-04T09:48:11Z</time>
      </trkpt>
      <trkpt lat="44.62076" lon="3.91074">
        <ele>1067.2</ele>
        <time>2022-08-04T09:48:13Z</time>
      </trkpt>
      <trkpt lat="44.62076" lon="3.91079">
        <ele>1066.72</ele>
        <time>2022-08-04T09:48:16Z</time>
      </trkpt>
      <trkpt lat="44.62074" lon="3.91083">
        <ele>1064.8</ele>
        <time>2022-08-04T09:48:20Z</time>
      </trkpt>
      <trkpt lat="44.62073" lon="3.91089">
        <ele>1064.32</ele>
        <time>2022-08-04T09:48:24Z</time>
      </trkpt>
      <trkpt lat="44.62064" lon="3.91108">
        <ele>1065.28</ele>
        <time>2022-08-04T09:48:39Z</time>
      </trkpt>
      <trkpt lat="44.62059" lon="3.91125">
        <ele>1067.2</ele>
        <time>2022-08-04T09:48:52Z</time>
      </trkpt>
      <trkpt lat="44.62054" lon="3.91132">
        <ele>1068.16</ele>
        <time>2022-08-04T09:48:59Z</time>
      </trkpt>
      <trkpt lat="44.62043" lon="3.91148">
        <ele>1069.6</ele>
        <time>2022-08-04T09:49:14Z</time>
      </trkpt>
      <trkpt lat="44.62039" lon="3.91154">
        <ele>1071.53</ele>
        <time>2022-08-04T09:49:20Z</time>
      </trkpt>
      <trkpt lat="44.62045" lon="3.91162">
        <ele>1072.49</ele>
        <time>2022-08-04T09:49:36Z</time>
      </trkpt>
      <trkpt lat="44.62045" lon="3.91166">
        <ele>1073.93</ele>
        <time>2022-08-04T09:49:52Z</time>
      </trkpt>
      <trkpt lat="44.62045" lon="3.91174">
        <ele>1073.93</ele>
        <time>2022-08-04T09:50:06Z</time>
      </trkpt>
      <trkpt lat="44.62045" lon="3.91176">
        <ele>1074.89</ele>
        <time>2022-08-04T09:50:18Z</time>
      </trkpt>
      <trkpt lat="44.62047" lon="3.91184">
        <ele>1075.37</ele>
        <time>2022-08-04T09:50:35Z</time>
      </trkpt>
      <trkpt lat="44.62046" lon="3.91198">
        <ele>1074.41</ele>
        <time>2022-08-04T09:50:46Z</time>
      </trkpt>
      <trkpt lat="44.62047" lon="3.91205">
        <ele>1074.89</ele>
        <time>2022-08-04T09:51:00Z</time>
      </trkpt>
      <trkpt lat="44.62048" lon="3.91207">
        <ele>1076.33</ele>
        <time>2022-08-04T09:51:17Z</time>
      </trkpt>
      <trkpt lat="44.62048" lon="3.91209">
        <ele>1076.33</ele>
        <time>2022-08-04T09:51:45Z</time>
      </trkpt>
      <trkpt lat="44.6205" lon="3.91211">
        <ele>1076.81</ele>
        <time>2022-08-04T09:51:58Z</time>
      </trkpt>
      <trkpt lat="44.62049" lon="3.9121">
        <ele>1077.78</ele>
        <time>2022-08-04T09:52:18Z</time>
      </trkpt>
      <trkpt lat="44.6205" lon="3.91213">
        <ele>1078.74</ele>
        <time>2022-08-04T09:52:33Z</time>
      </trkpt>
      <trkpt lat="44.6205" lon="3.91214">
        <ele>1077.29</ele>
        <time>2022-08-04T09:52:59Z</time>
      </trkpt>
      <trkpt lat="44.62049" lon="3.9122">
        <ele>1078.26</ele>
        <time>2022-08-04T09:53:10Z</time>
      </trkpt>
      <trkpt lat="44.62054" lon="3.91234">
        <ele>1080.18</ele>
        <time>2022-08-04T09:53:24Z</time>
      </trkpt>
      <trkpt lat="44.62052" lon="3.91252">
        <ele>1079.7</ele>
        <time>2022-08-04T09:53:41Z</time>
      </trkpt>
      <trkpt lat="44.62056" lon="3.91272">
        <ele>1081.62</ele>
        <time>2022-08-04T09:53:57Z</time>
      </trkpt>
      <trkpt lat="44.62058" lon="3.91292">
        <ele>1084.02</ele>
        <time>2022-08-04T09:54:14Z</time>
      </trkpt>
      <trkpt lat="44.62058" lon="3.91309">
        <ele>1084.99</ele>
        <time>2022-08-04T09:54:29Z</time>
      </trkpt>
      <trkpt lat="44.62058" lon="3.91319">
        <ele>1086.91</ele>
        <time>2022-08-04T09:54:36Z</time>
      </trkpt>
      <trkpt lat="44.62053" lon="3.91341">
        <ele>1089.31</ele>
        <time>2022-08-04T09:54:53Z</time>
      </trkpt>
      <trkpt lat="44.62049" lon="3.91366">
        <ele>1089.79</ele>
        <time>2022-08-04T09:55:11Z</time>
      </trkpt>
      <trkpt lat="44.6205" lon="3.91388">
        <ele>1089.79</ele>
        <time>2022-08-04T09:55:25Z</time>
      </trkpt>
      <trkpt lat="44.62051" lon="3.91392">
        <ele>1089.79</ele>
        <time>2022-08-04T09:55:28Z</time>
      </trkpt>
      <trkpt lat="44.62053" lon="3.91418">
        <ele>1089.31</ele>
        <time>2022-08-04T09:55:45Z</time>
      </trkpt>
      <trkpt lat="44.62054" lon="3.91423">
        <ele>1089.31</ele>
        <time>2022-08-04T09:55:48Z</time>
      </trkpt>
      <trkpt lat="44.62047" lon="3.91441">
        <ele>1087.39</ele>
        <time>2022-08-04T09:56:04Z</time>
      </trkpt>
      <trkpt lat="44.62036" lon="3.91452">
        <ele>1082.1</ele>
        <time>2022-08-04T09:56:19Z</time>
      </trkpt>
      <trkpt lat="44.6203" lon="3.91469">
        <ele>1081.62</ele>
        <time>2022-08-04T09:56:34Z</time>
      </trkpt>
      <trkpt lat="44.62031" lon="3.91478">
        <ele>1079.22</ele>
        <time>2022-08-04T09:56:47Z</time>
      </trkpt>
      <trkpt lat="44.62033" lon="3.91476">
        <ele>1080.18</ele>
        <time>2022-08-04T09:57:09Z</time>
      </trkpt>
      <trkpt lat="44.62029" lon="3.91477">
        <ele>1078.26</ele>
        <time>2022-08-04T09:57:26Z</time>
      </trkpt>
      <trkpt lat="44.62029" lon="3.91477">
        <ele>1079.7</ele>
        <time>2022-08-04T09:58:13Z</time>
      </trkpt>
      <trkpt lat="44.62029" lon="3.91474">
        <ele>1079.22</ele>
        <time>2022-08-04T09:58:53Z</time>
      </trkpt>
      <trkpt lat="44.6203" lon="3.91479">
        <ele>1081.62</ele>
        <time>2022-08-04T09:59:37Z</time>
      </trkpt>
      <trkpt lat="44.62026" lon="3.91479">
        <ele>1082.58</ele>
        <time>2022-08-04T10:00:18Z</time>
      </trkpt>
      <trkpt lat="44.62024" lon="3.91475">
        <ele>1078.74</ele>
        <time>2022-08-04T10:01:05Z</time>
      </trkpt>
      <trkpt lat="44.62026" lon="3.9148">
        <ele>1077.78</ele>
        <time>2022-08-04T10:01:46Z</time>
      </trkpt>
      <trkpt lat="44.62022" lon="3.91476">
        <ele>1076.33</ele>
        <time>2022-08-04T10:02:28Z</time>
      </trkpt>
      <trkpt lat="44.62029" lon="3.91475">
        <ele>1080.18</ele>
        <time>2022-08-04T10:03:03Z</time>
      </trkpt>
      <trkpt lat="44.62024" lon="3.91477">
        <ele>1084.5</ele>
        <time>2022-08-04T10:03:41Z</time>
      </trkpt>
      <trkpt lat="44.62033" lon="3.9147">
        <ele>1084.5</ele>
        <time>2022-08-04T10:04:12Z</time>
      </trkpt>
      <trkpt lat="44.62026" lon="3.91471">
        <ele>1079.7</ele>
        <time>2022-08-04T10:04:44Z</time>
      </trkpt>
      <trkpt lat="44.62026" lon="3.91474">
        <ele>1083.06</ele>
        <time>2022-08-04T10:05:17Z</time>
      </trkpt>
      <trkpt lat="44.62022" lon="3.91471">
        <ele>1084.5</ele>
        <time>2022-08-04T10:05:43Z</time>
      </trkpt>
      <trkpt lat="44.62035" lon="3.91471">
        <ele>1088.83</ele>
        <time>2022-08-04T10:06:18Z</time>
      </trkpt>
      <trkpt lat="44.62028" lon="3.91473">
        <ele>1087.87</ele>
        <time>2022-08-04T10:06:53Z</time>
      </trkpt>
      <trkpt lat="44.6203" lon="3.91477">
        <ele>1084.02</ele>
        <time>2022-08-04T10:07:34Z</time>
      </trkpt>
      <trkpt lat="44.62013" lon="3.91473">
        <ele>1085.47</ele>
        <time>2022-08-04T10:08:10Z</time>
      </trkpt>
      <trkpt lat="44.62025" lon="3.9147">
        <ele>1086.43</ele>
        <time>2022-08-04T10:08:42Z</time>
      </trkpt>
      <trkpt lat="44.62031" lon="3.91477">
        <ele>1085.95</ele>
        <time>2022-08-04T10:09:14Z</time>
      </trkpt>
      <trkpt lat="44.6203" lon="3.91476">
        <ele>1087.39</ele>
        <time>2022-08-04T10:09:52Z</time>
      </trkpt>
      <trkpt lat="44.62033" lon="3.91473">
        <ele>1084.02</ele>
        <time>2022-08-04T10:10:27Z</time>
      </trkpt>
      <trkpt lat="44.62037" lon="3.91475">
        <ele>1088.83</ele>
        <time>2022-08-04T10:11:05Z</time>
      </trkpt>
      <trkpt lat="44.62043" lon="3.91467">
        <ele>1095.08</ele>
        <time>2022-08-04T10:11:42Z</time>
      </trkpt>
      <trkpt lat="44.6203" lon="3.9147">
        <ele>1091.23</ele>
        <time>2022-08-04T10:12:18Z</time>
      </trkpt>
      <trkpt lat="44.62029" lon="3.9147">
        <ele>1086.43</ele>
        <time>2022-08-04T10:12:49Z</time>
      </trkpt>
      <trkpt lat="44.6203" lon="3.91472">
        <ele>1088.83</ele>
        <time>2022-08-04T10:13:38Z</time>
      </trkpt>
      <trkpt lat="44.62028" lon="3.91471">
        <ele>1083.06</ele>
        <time>2022-08-04T10:14:14Z</time>
      </trkpt>
      <trkpt lat="44.62031" lon="3.91475">
        <ele>1083.54</ele>
        <time>2022-08-04T10:14:56Z</time>
      </trkpt>
      <trkpt lat="44.62033" lon="3.91479">
        <ele>1088.83</ele>
        <time>2022-08-04T10:15:40Z</time>
      </trkpt>
      <trkpt lat="44.62035" lon="3.91472">
        <ele>1085.95</ele>
        <time>2022-08-04T10:16:19Z</time>
      </trkpt>
      <trkpt lat="44.62037" lon="3.91478">
        <ele>1091.23</ele>
        <time>2022-08-04T10:16:57Z</time>
      </trkpt>
      <trkpt lat="44.62037" lon="3.91476">
        <ele>1096.04</ele>
        <time>2022-08-04T10:17:39Z</time>
      </trkpt>
      <trkpt lat="44.62038" lon="3.91475">
        <ele>1094.6</ele>
        <time>2022-08-04T10:18:14Z</time>
      </trkpt>
      <trkpt lat="44.62036" lon="3.91478">
        <ele>1087.39</ele>
        <time>2022-08-04T10:18:52Z</time>
      </trkpt>
      <trkpt lat="44.62033" lon="3.91475">
        <ele>1087.39</ele>
        <time>2022-08-04T10:19:26Z</time>
      </trkpt>
      <trkpt lat="44.62037" lon="3.91476">
        <ele>1087.39</ele>
        <time>2022-08-04T10:20:01Z</time>
      </trkpt>
      <trkpt lat="44.62034" lon="3.91475">
        <ele>1090.75</ele>
        <time>2022-08-04T10:20:35Z</time>
      </trkpt>
      <trkpt lat="44.62034" lon="3.91475">
        <ele>1090.27</ele>
        <time>2022-08-04T10:21:12Z</time>
      </trkpt>
      <trkpt lat="44.62034" lon="3.91478">
        <ele>1086.91</ele>
        <time>2022-08-04T10:21:45Z</time>
      </trkpt>
      <trkpt lat="44.62033" lon="3.91474">
        <ele>1083.06</ele>
        <time>2022-08-04T10:21:58Z</time>
      </trkpt>
      <trkpt lat="44.62034" lon="3.91475">
        <ele>1080.66</ele>
        <time>2022-08-04T10:22:20Z</time>
      </trkpt>
      <trkpt lat="44.62033" lon="3.91474">
        <ele>1079.22</ele>
        <time>2022-08-04T10:22:41Z</time>
      </trkpt>
      <trkpt lat="44.6203" lon="3.91475">
        <ele>1080.18</ele>
        <time>2022-08-04T10:23:07Z</time>
      </trkpt>
      <trkpt lat="44.62034" lon="3.91477">
        <ele>1080.66</ele>
        <time>2022-08-04T10:23:26Z</time>
      </trkpt>
      <trkpt lat="44.62035" lon="3.91484">
        <ele>1079.7</ele>
        <time>2022-08-04T10:23:43Z</time>
      </trkpt>
      <trkpt lat="44.62034" lon="3.9149">
        <ele>1079.22</ele>
        <time>2022-08-04T10:23:47Z</time>
      </trkpt>
      <trkpt lat="44.62032" lon="3.91513">
        <ele>1076.33</ele>
        <time>2022-08-04T10:24:03Z</time>
      </trkpt>
      <trkpt lat="44.62031" lon="3.9152">
        <ele>1075.37</ele>
        <time>2022-08-04T10:24:08Z</time>
      </trkpt>
      <trkpt lat="44.62028" lon="3.91539">
        <ele>1074.41</ele>
        <time>2022-08-04T10:24:22Z</time>
      </trkpt>
      <trkpt lat="44.62028" lon="3.91561">
        <ele>1072.49</ele>
        <time>2022-08-04T10:24:35Z</time>
      </trkpt>
      <trkpt lat="44.62024" lon="3.91582">
        <ele>1070.08</ele>
        <time>2022-08-04T10:24:50Z</time>
      </trkpt>
      <trkpt lat="44.62025" lon="3.91585">
        <ele>1070.08</ele>
        <time>2022-08-04T10:25:04Z</time>
      </trkpt>
      <trkpt lat="44.62021" lon="3.91588">
        <ele>1070.57</ele>
        <time>2022-08-04T10:25:29Z</time>
      </trkpt>
      <trkpt lat="44.62007" lon="3.91612">
        <ele>1068.16</ele>
        <time>2022-08-04T10:25:47Z</time>
      </trkpt>
      <trkpt lat="44.61993" lon="3.91628">
        <ele>1065.28</ele>
        <time>2022-08-04T10:26:03Z</time>
      </trkpt>
      <trkpt lat="44.61984" lon="3.91649">
        <ele>1062.87</ele>
        <time>2022-08-04T10:26:18Z</time>
      </trkpt>
      <trkpt lat="44.61982" lon="3.91678">
        <ele>1058.55</ele>
        <time>2022-08-04T10:26:36Z</time>
      </trkpt>
      <trkpt lat="44.61979" lon="3.91699">
        <ele>1056.15</ele>
        <time>2022-08-04T10:26:50Z</time>
      </trkpt>
      <trkpt lat="44.61978" lon="3.91706">
        <ele>1056.15</ele>
        <time>2022-08-04T10:26:54Z</time>
      </trkpt>
      <trkpt lat="44.61977" lon="3.91712">
        <ele>1055.67</ele>
        <time>2022-08-04T10:26:58Z</time>
      </trkpt>
      <trkpt lat="44.61976" lon="3.91724">
        <ele>1053.26</ele>
        <time>2022-08-04T10:27:05Z</time>
      </trkpt>
      <trkpt lat="44.61976" lon="3.91728">
        <ele>1052.3</ele>
        <time>2022-08-04T10:27:08Z</time>
      </trkpt>
      <trkpt lat="44.61972" lon="3.91735">
        <ele>1051.34</ele>
        <time>2022-08-04T10:27:15Z</time>
      </trkpt>
      <trkpt lat="44.61969" lon="3.91736">
        <ele>1050.86</ele>
        <time>2022-08-04T10:27:17Z</time>
      </trkpt>
      <trkpt lat="44.6195" lon="3.9173">
        <ele>1052.78</ele>
        <time>2022-08-04T10:27:33Z</time>
      </trkpt>
      <trkpt lat="44.61935" lon="3.91721">
        <ele>1053.74</ele>
        <time>2022-08-04T10:27:48Z</time>
      </trkpt>
      <trkpt lat="44.61925" lon="3.91701">
        <ele>1052.78</ele>
        <time>2022-08-04T10:28:05Z</time>
      </trkpt>
      <trkpt lat="44.61917" lon="3.9168">
        <ele>1051.82</ele>
        <time>2022-08-04T10:28:22Z</time>
      </trkpt>
      <trkpt lat="44.61916" lon="3.91676">
        <ele>1051.82</ele>
        <time>2022-08-04T10:28:25Z</time>
      </trkpt>
      <trkpt lat="44.61912" lon="3.91654">
        <ele>1049.9</ele>
        <time>2022-08-04T10:28:41Z</time>
      </trkpt>
      <trkpt lat="44.61908" lon="3.91648">
        <ele>1049.42</ele>
        <time>2022-08-04T10:28:45Z</time>
      </trkpt>
      <trkpt lat="44.61897" lon="3.91628">
        <ele>1046.53</ele>
        <time>2022-08-04T10:29:02Z</time>
      </trkpt>
      <trkpt lat="44.61895" lon="3.91622">
        <ele>1044.13</ele>
        <time>2022-08-04T10:29:14Z</time>
      </trkpt>
      <trkpt lat="44.61885" lon="3.91594">
        <ele>1042.69</ele>
        <time>2022-08-04T10:29:32Z</time>
      </trkpt>
      <trkpt lat="44.61876" lon="3.91573">
        <ele>1040.28</ele>
        <time>2022-08-04T10:29:47Z</time>
      </trkpt>
      <trkpt lat="44.61864" lon="3.91552">
        <ele>1039.32</ele>
        <time>2022-08-04T10:30:03Z</time>
      </trkpt>
      <trkpt lat="44.6185" lon="3.91534">
        <ele>1038.36</ele>
        <time>2022-08-04T10:30:18Z</time>
      </trkpt>
      <trkpt lat="44.61832" lon="3.91518">
        <ele>1040.28</ele>
        <time>2022-08-04T10:30:36Z</time>
      </trkpt>
      <trkpt lat="44.61816" lon="3.91506">
        <ele>1039.8</ele>
        <time>2022-08-04T10:30:51Z</time>
      </trkpt>
      <trkpt lat="44.61799" lon="3.91492">
        <ele>1036.92</ele>
        <time>2022-08-04T10:31:08Z</time>
      </trkpt>
      <trkpt lat="44.61798" lon="3.91492">
        <ele>1036.92</ele>
        <time>2022-08-04T10:31:09Z</time>
      </trkpt>
      <trkpt lat="44.61787" lon="3.9148">
        <ele>1037.4</ele>
        <time>2022-08-04T10:31:21Z</time>
      </trkpt>
      <trkpt lat="44.61776" lon="3.91464">
        <ele>1035.96</ele>
        <time>2022-08-04T10:31:36Z</time>
      </trkpt>
      <trkpt lat="44.61768" lon="3.91444">
        <ele>1035.48</ele>
        <time>2022-08-04T10:31:53Z</time>
      </trkpt>
      <trkpt lat="44.61761" lon="3.91426">
        <ele>1033.07</ele>
        <time>2022-08-04T10:32:06Z</time>
      </trkpt>
      <trkpt lat="44.61753" lon="3.91406">
        <ele>1032.11</ele>
        <time>2022-08-04T10:32:22Z</time>
      </trkpt>
      <trkpt lat="44.61735" lon="3.91384">
        <ele>1029.71</ele>
        <time>2022-08-04T10:32:38Z</time>
      </trkpt>
      <trkpt lat="44.61731" lon="3.91381">
        <ele>1029.71</ele>
        <time>2022-08-04T10:32:41Z</time>
      </trkpt>
      <trkpt lat="44.61716" lon="3.91373">
        <ele>1029.23</ele>
        <time>2022-08-04T10:32:53Z</time>
      </trkpt>
      <trkpt lat="44.61711" lon="3.91365">
        <ele>1028.75</ele>
        <time>2022-08-04T10:33:00Z</time>
      </trkpt>
      <trkpt lat="44.6171" lon="3.91359">
        <ele>1026.83</ele>
        <time>2022-08-04T10:33:05Z</time>
      </trkpt>
      <trkpt lat="44.61711" lon="3.91351">
        <ele>1026.34</ele>
        <time>2022-08-04T10:33:11Z</time>
      </trkpt>
      <trkpt lat="44.6171" lon="3.91345">
        <ele>1025.38</ele>
        <time>2022-08-04T10:33:16Z</time>
      </trkpt>
      <trkpt lat="44.6171" lon="3.91341">
        <ele>1025.86</ele>
        <time>2022-08-04T10:33:19Z</time>
      </trkpt>
      <trkpt lat="44.61705" lon="3.9132">
        <ele>1023.46</ele>
        <time>2022-08-04T10:33:33Z</time>
      </trkpt>
      <trkpt lat="44.617" lon="3.91319">
        <ele>1022.98</ele>
        <time>2022-08-04T10:33:37Z</time>
      </trkpt>
      <trkpt lat="44.61698" lon="3.91323">
        <ele>1022.02</ele>
        <time>2022-08-04T10:33:40Z</time>
      </trkpt>
      <trkpt lat="44.61695" lon="3.91348">
        <ele>1021.06</ele>
        <time>2022-08-04T10:33:56Z</time>
      </trkpt>
      <trkpt lat="44.61695" lon="3.91353">
        <ele>1021.06</ele>
        <time>2022-08-04T10:33:59Z</time>
      </trkpt>
      <trkpt lat="44.61691" lon="3.91364">
        <ele>1021.54</ele>
        <time>2022-08-04T10:34:07Z</time>
      </trkpt>
      <trkpt lat="44.61686" lon="3.9137">
        <ele>1020.58</ele>
        <time>2022-08-04T10:34:19Z</time>
      </trkpt>
      <trkpt lat="44.61687" lon="3.91367">
        <ele>1020.1</ele>
        <time>2022-08-04T10:34:38Z</time>
      </trkpt>
      <trkpt lat="44.61689" lon="3.91371">
        <ele>1019.62</ele>
        <time>2022-08-04T10:34:57Z</time>
      </trkpt>
      <trkpt lat="44.61689" lon="3.91371">
        <ele>1019.13</ele>
        <time>2022-08-04T10:35:30Z</time>
      </trkpt>
      <trkpt lat="44.61688" lon="3.91375">
        <ele>1018.65</ele>
        <time>2022-08-04T10:36:13Z</time>
      </trkpt>
      <trkpt lat="44.61688" lon="3.91373">
        <ele>1020.58</ele>
        <time>2022-08-04T10:36:58Z</time>
      </trkpt>
      <trkpt lat="44.61688" lon="3.91373">
        <ele>1019.62</ele>
        <time>2022-08-04T10:37:38Z</time>
      </trkpt>
      <trkpt lat="44.61693" lon="3.91374">
        <ele>1019.13</ele>
        <time>2022-08-04T10:38:17Z</time>
      </trkpt>
      <trkpt lat="44.61689" lon="3.91372">
        <ele>1020.1</ele>
        <time>2022-08-04T10:38:50Z</time>
      </trkpt>
      <trkpt lat="44.61689" lon="3.9137">
        <ele>1022.5</ele>
        <time>2022-08-04T10:39:30Z</time>
      </trkpt>
      <trkpt lat="44.61689" lon="3.91372">
        <ele>1020.58</ele>
        <time>2022-08-04T10:40:08Z</time>
      </trkpt>
      <trkpt lat="44.61685" lon="3.91372">
        <ele>1019.13</ele>
        <time>2022-08-04T10:40:40Z</time>
      </trkpt>
      <trkpt lat="44.61684" lon="3.91374">
        <ele>1026.34</ele>
        <time>2022-08-04T10:41:26Z</time>
      </trkpt>
      <trkpt lat="44.61687" lon="3.91375">
        <ele>1023.46</ele>
        <time>2022-08-04T10:42:06Z</time>
      </trkpt>
      <trkpt lat="44.61686" lon="3.91374">
        <ele>1019.62</ele>
        <time>2022-08-04T10:42:46Z</time>
      </trkpt>
      <trkpt lat="44.61687" lon="3.91375">
        <ele>1020.58</ele>
        <time>2022-08-04T10:43:20Z</time>
      </trkpt>
      <trkpt lat="44.61685" lon="3.91375">
        <ele>1020.1</ele>
        <time>2022-08-04T10:44:01Z</time>
      </trkpt>
      <trkpt lat="44.61688" lon="3.91374">
        <ele>1021.06</ele>
        <time>2022-08-04T10:44:45Z</time>
      </trkpt>
      <trkpt lat="44.6169" lon="3.91375">
        <ele>1022.02</ele>
        <time>2022-08-04T10:45:28Z</time>
      </trkpt>
      <trkpt lat="44.61694" lon="3.91376">
        <ele>1022.02</ele>
        <time>2022-08-04T10:46:10Z</time>
      </trkpt>
      <trkpt lat="44.61691" lon="3.91377">
        <ele>1020.1</ele>
        <time>2022-08-04T10:46:42Z</time>
      </trkpt>
      <trkpt lat="44.6169" lon="3.91376">
        <ele>1022.02</ele>
        <time>2022-08-04T10:47:25Z</time>
      </trkpt>
      <trkpt lat="44.61692" lon="3.91377">
        <ele>1025.86</ele>
        <time>2022-08-04T10:47:59Z</time>
      </trkpt>
      <trkpt lat="44.61695" lon="3.91376">
        <ele>1026.34</ele>
        <time>2022-08-04T10:48:43Z</time>
      </trkpt>
      <trkpt lat="44.61692" lon="3.91375">
        <ele>1028.75</ele>
        <time>2022-08-04T10:49:18Z</time>
      </trkpt>
      <trkpt lat="44.61689" lon="3.91372">
        <ele>1026.34</ele>
        <time>2022-08-04T10:49:53Z</time>
      </trkpt>
      <trkpt lat="44.61692" lon="3.91374">
        <ele>1023.94</ele>
        <time>2022-08-04T10:50:25Z</time>
      </trkpt>
      <trkpt lat="44.61689" lon="3.91376">
        <ele>1023.46</ele>
        <time>2022-08-04T10:51:01Z</time>
      </trkpt>
      <trkpt lat="44.61689" lon="3.91375">
        <ele>1023.46</ele>
        <time>2022-08-04T10:51:42Z</time>
      </trkpt>
      <trkpt lat="44.61689" lon="3.91374">
        <ele>1024.42</ele>
        <time>2022-08-04T10:52:25Z</time>
      </trkpt>
      <trkpt lat="44.6169" lon="3.91374">
        <ele>1023.46</ele>
        <time>2022-08-04T10:53:03Z</time>
      </trkpt>
      <trkpt lat="44.61692" lon="3.91376">
        <ele>1026.83</ele>
        <time>2022-08-04T10:53:36Z</time>
      </trkpt>
      <trkpt lat="44.61689" lon="3.91369">
        <ele>1026.83</ele>
        <time>2022-08-04T10:54:25Z</time>
      </trkpt>
      <trkpt lat="44.61686" lon="3.91369">
        <ele>1023.46</ele>
        <time>2022-08-04T10:55:09Z</time>
      </trkpt>
      <trkpt lat="44.61685" lon="3.91366">
        <ele>1022.98</ele>
        <time>2022-08-04T10:55:47Z</time>
      </trkpt>
      <trkpt lat="44.61678" lon="3.91361">
        <ele>1025.38</ele>
        <time>2022-08-04T10:56:22Z</time>
      </trkpt>
      <trkpt lat="44.61683" lon="3.91366">
        <ele>1026.34</ele>
        <time>2022-08-04T10:57:01Z</time>
      </trkpt>
      <trkpt lat="44.6168" lon="3.91365">
        <ele>1025.86</ele>
        <time>2022-08-04T10:57:44Z</time>
      </trkpt>
      <trkpt lat="44.61685" lon="3.91369">
        <ele>1027.79</ele>
        <time>2022-08-04T10:58:18Z</time>
      </trkpt>
      <trkpt lat="44.61688" lon="3.91368">
        <ele>1029.71</ele>
        <time>2022-08-04T10:58:50Z</time>
      </trkpt>
      <trkpt lat="44.6169" lon="3.91369">
        <ele>1029.23</ele>
        <time>2022-08-04T10:59:17Z</time>
      </trkpt>
      <trkpt lat="44.61693" lon="3.91371">
        <ele>1022.5</ele>
        <time>2022-08-04T10:59:33Z</time>
      </trkpt>
      <trkpt lat="44.61691" lon="3.91368">
        <ele>1022.02</ele>
        <time>2022-08-04T11:00:01Z</time>
      </trkpt>
      <trkpt lat="44.6169" lon="3.91367">
        <ele>1022.98</ele>
        <time>2022-08-04T11:00:26Z</time>
      </trkpt>
      <trkpt lat="44.61681" lon="3.91361">
        <ele>1019.62</ele>
        <time>2022-08-04T11:00:40Z</time>
      </trkpt>
      <trkpt lat="44.61679" lon="3.9136">
        <ele>1018.17</ele>
        <time>2022-08-04T11:00:48Z</time>
      </trkpt>
      <trkpt lat="44.6167" lon="3.91345">
        <ele>1018.65</ele>
        <time>2022-08-04T11:01:04Z</time>
      </trkpt>
      <trkpt lat="44.61671" lon="3.91329">
        <ele>1019.13</ele>
        <time>2022-08-04T11:01:20Z</time>
      </trkpt>
      <trkpt lat="44.61661" lon="3.91309">
        <ele>1018.65</ele>
        <time>2022-08-04T11:01:37Z</time>
      </trkpt>
      <trkpt lat="44.61651" lon="3.91293">
        <ele>1018.65</ele>
        <time>2022-08-04T11:01:50Z</time>
      </trkpt>
      <trkpt lat="44.61647" lon="3.9127">
        <ele>1018.17</ele>
        <time>2022-08-04T11:02:07Z</time>
      </trkpt>
      <trkpt lat="44.61637" lon="3.91252">
        <ele>1017.21</ele>
        <time>2022-08-04T11:02:22Z</time>
      </trkpt>
      <trkpt lat="44.61626" lon="3.91236">
        <ele>1014.81</ele>
        <time>2022-08-04T11:02:38Z</time>
      </trkpt>
      <trkpt lat="44.61621" lon="3.91223">
        <ele>1013.37</ele>
        <time>2022-08-04T11:02:52Z</time>
      </trkpt>
      <trkpt lat="44.61619" lon="3.91208">
        <ele>1011.93</ele>
        <time>2022-08-04T11:03:06Z</time>
      </trkpt>
      <trkpt lat="44.61616" lon="3.9119">
        <ele>1017.69</ele>
        <time>2022-08-04T11:03:21Z</time>
      </trkpt>
      <trkpt lat="44.61616" lon="3.91167">
        <ele>1026.34</ele>
        <time>2022-08-04T11:03:38Z</time>
      </trkpt>
      <trkpt lat="44.61612" lon="3.91152">
        <ele>1030.19</ele>
        <time>2022-08-04T11:03:51Z</time>
      </trkpt>
      <trkpt lat="44.61607" lon="3.9114">
        <ele>1033.07</ele>
        <time>2022-08-04T11:04:05Z</time>
      </trkpt>
      <trkpt lat="44.616" lon="3.91117">
        <ele>1033.07</ele>
        <time>2022-08-04T11:04:19Z</time>
      </trkpt>
      <trkpt lat="44.61586" lon="3.91093">
        <ele>1034.52</ele>
        <time>2022-08-04T11:04:32Z</time>
      </trkpt>
      <trkpt lat="44.61561" lon="3.91072">
        <ele>1033.55</ele>
        <time>2022-08-04T11:04:48Z</time>
      </trkpt>
      <trkpt lat="44.61557" lon="3.91059">
        <ele>1033.55</ele>
        <time>2022-08-04T11:05:04Z</time>
      </trkpt>
      <trkpt lat="44.61565" lon="3.91039">
        <ele>1036.92</ele>
        <time>2022-08-04T11:05:19Z</time>
      </trkpt>
      <trkpt lat="44.61559" lon="3.91035">
        <ele>1036.92</ele>
        <time>2022-08-04T11:05:36Z</time>
      </trkpt>
      <trkpt lat="44.61559" lon="3.9104">
        <ele>1039.8</ele>
        <time>2022-08-04T11:05:53Z</time>
      </trkpt>
      <trkpt lat="44.61558" lon="3.91031">
        <ele>1038.36</ele>
        <time>2022-08-04T11:06:16Z</time>
      </trkpt>
      <trkpt lat="44.61555" lon="3.91029">
        <ele>1038.36</ele>
        <time>2022-08-04T11:06:38Z</time>
      </trkpt>
      <trkpt lat="44.61552" lon="3.91034">
        <ele>1040.28</ele>
        <time>2022-08-04T11:06:53Z</time>
      </trkpt>
      <trkpt lat="44.61546" lon="3.91047">
        <ele>1039.8</ele>
        <time>2022-08-04T11:07:07Z</time>
      </trkpt>
      <trkpt lat="44.6155" lon="3.91049">
        <ele>1038.84</ele>
        <time>2022-08-04T11:07:28Z</time>
      </trkpt>
      <trkpt lat="44.61552" lon="3.91043">
        <ele>1040.28</ele>
        <time>2022-08-04T11:07:58Z</time>
      </trkpt>
      <trkpt lat="44.6155" lon="3.91044">
        <ele>1040.28</ele>
        <time>2022-08-04T11:08:26Z</time>
      </trkpt>
      <trkpt lat="44.61547" lon="3.91057">
        <ele>1045.57</ele>
        <time>2022-08-04T11:09:04Z</time>
      </trkpt>
      <trkpt lat="44.61544" lon="3.91058">
        <ele>1041.73</ele>
        <time>2022-08-04T11:09:29Z</time>
      </trkpt>
      <trkpt lat="44.61543" lon="3.9107">
        <ele>1039.32</ele>
        <time>2022-08-04T11:09:41Z</time>
      </trkpt>
      <trkpt lat="44.61548" lon="3.91087">
        <ele>1037.4</ele>
        <time>2022-08-04T11:09:55Z</time>
      </trkpt>
      <trkpt lat="44.61554" lon="3.91109">
        <ele>1035</ele>
        <time>2022-08-04T11:10:11Z</time>
      </trkpt>
      <trkpt lat="44.61557" lon="3.9113">
        <ele>1035.48</ele>
        <time>2022-08-04T11:10:27Z</time>
      </trkpt>
      <trkpt lat="44.6156" lon="3.91146">
        <ele>1033.55</ele>
        <time>2022-08-04T11:10:40Z</time>
      </trkpt>
      <trkpt lat="44.6156" lon="3.91165">
        <ele>1033.07</ele>
        <time>2022-08-04T11:10:55Z</time>
      </trkpt>
      <trkpt lat="44.61564" lon="3.9119">
        <ele>1038.84</ele>
        <time>2022-08-04T11:11:11Z</time>
      </trkpt>
      <trkpt lat="44.61567" lon="3.91207">
        <ele>1038.84</ele>
        <time>2022-08-04T11:11:25Z</time>
      </trkpt>
      <trkpt lat="44.61566" lon="3.91222">
        <ele>1043.17</ele>
        <time>2022-08-04T11:11:38Z</time>
      </trkpt>
      <trkpt lat="44.61571" lon="3.91251">
        <ele>1042.69</ele>
        <time>2022-08-04T11:11:55Z</time>
      </trkpt>
      <trkpt lat="44.61573" lon="3.91269">
        <ele>1040.28</ele>
        <time>2022-08-04T11:12:09Z</time>
      </trkpt>
      <trkpt lat="44.61572" lon="3.91281">
        <ele>1040.28</ele>
        <time>2022-08-04T11:12:17Z</time>
      </trkpt>
      <trkpt lat="44.61571" lon="3.91301">
        <ele>1043.65</ele>
        <time>2022-08-04T11:12:31Z</time>
      </trkpt>
      <trkpt lat="44.61568" lon="3.91317">
        <ele>1046.53</ele>
        <time>2022-08-04T11:12:43Z</time>
      </trkpt>
      <trkpt lat="44.61561" lon="3.9134">
        <ele>1052.78</ele>
        <time>2022-08-04T11:13:00Z</time>
      </trkpt>
      <trkpt lat="44.61554" lon="3.91358">
        <ele>1055.18</ele>
        <time>2022-08-04T11:13:14Z</time>
      </trkpt>
      <trkpt lat="44.61547" lon="3.91375">
        <ele>1053.74</ele>
        <time>2022-08-04T11:13:28Z</time>
      </trkpt>
      <trkpt lat="44.6154" lon="3.91397">
        <ele>1053.26</ele>
        <time>2022-08-04T11:13:43Z</time>
      </trkpt>
      <trkpt lat="44.61532" lon="3.91414">
        <ele>1055.18</ele>
        <time>2022-08-04T11:13:57Z</time>
      </trkpt>
      <trkpt lat="44.61527" lon="3.91428">
        <ele>1057.11</ele>
        <time>2022-08-04T11:14:07Z</time>
      </trkpt>
      <trkpt lat="44.61522" lon="3.91435">
        <ele>1058.55</ele>
        <time>2022-08-04T11:14:14Z</time>
      </trkpt>
      <trkpt lat="44.61511" lon="3.91454">
        <ele>1059.03</ele>
        <time>2022-08-04T11:14:31Z</time>
      </trkpt>
      <trkpt lat="44.61509" lon="3.91457">
        <ele>1058.55</ele>
        <time>2022-08-04T11:14:33Z</time>
      </trkpt>
      <trkpt lat="44.61502" lon="3.91465">
        <ele>1058.55</ele>
        <time>2022-08-04T11:14:41Z</time>
      </trkpt>
      <trkpt lat="44.61504" lon="3.91472">
        <ele>1060.47</ele>
        <time>2022-08-04T11:14:59Z</time>
      </trkpt>
      <trkpt lat="44.61503" lon="3.91471">
        <ele>1058.55</ele>
        <time>2022-08-04T11:15:28Z</time>
      </trkpt>
      <trkpt lat="44.61507" lon="3.91476">
        <ele>1059.03</ele>
        <time>2022-08-04T11:15:56Z</time>
      </trkpt>
      <trkpt lat="44.61512" lon="3.9147">
        <ele>1060.95</ele>
        <time>2022-08-04T11:16:15Z</time>
      </trkpt>
      <trkpt lat="44.61524" lon="3.91457">
        <ele>1063.36</ele>
        <time>2022-08-04T11:16:29Z</time>
      </trkpt>
      <trkpt lat="44.61532" lon="3.9144">
        <ele>1062.39</ele>
        <time>2022-08-04T11:16:43Z</time>
      </trkpt>
      <trkpt lat="44.61543" lon="3.91413">
        <ele>1062.39</ele>
        <time>2022-08-04T11:17:01Z</time>
      </trkpt>
      <trkpt lat="44.61547" lon="3.91407">
        <ele>1060.95</ele>
        <time>2022-08-04T11:17:07Z</time>
      </trkpt>
      <trkpt lat="44.61556" lon="3.91392">
        <ele>1061.43</ele>
        <time>2022-08-04T11:17:17Z</time>
      </trkpt>
      <trkpt lat="44.61557" lon="3.91387">
        <ele>1059.99</ele>
        <time>2022-08-04T11:17:20Z</time>
      </trkpt>
      <trkpt lat="44.61565" lon="3.91367">
        <ele>1057.11</ele>
        <time>2022-08-04T11:17:33Z</time>
      </trkpt>
      <trkpt lat="44.61571" lon="3.91351">
        <ele>1053.74</ele>
        <time>2022-08-04T11:17:46Z</time>
      </trkpt>
      <trkpt lat="44.61575" lon="3.91329">
        <ele>1050.86</ele>
        <time>2022-08-04T11:18:03Z</time>
      </trkpt>
      <trkpt lat="44.61576" lon="3.91306">
        <ele>1049.42</ele>
        <time>2022-08-04T11:18:18Z</time>
      </trkpt>
      <trkpt lat="44.61581" lon="3.91284">
        <ele>1050.38</ele>
        <time>2022-08-04T11:18:29Z</time>
      </trkpt>
      <trkpt lat="44.6158" lon="3.91272">
        <ele>1049.9</ele>
        <time>2022-08-04T11:18:37Z</time>
      </trkpt>
      <trkpt lat="44.61579" lon="3.91267">
        <ele>1049.9</ele>
        <time>2022-08-04T11:18:40Z</time>
      </trkpt>
      <trkpt lat="44.61575" lon="3.91248">
        <ele>1050.38</ele>
        <time>2022-08-04T11:18:55Z</time>
      </trkpt>
      <trkpt lat="44.61574" lon="3.91222">
        <ele>1051.34</ele>
        <time>2022-08-04T11:19:09Z</time>
      </trkpt>
      <trkpt lat="44.61569" lon="3.91197">
        <ele>1048.94</ele>
        <time>2022-08-04T11:19:22Z</time>
      </trkpt>
      <trkpt lat="44.61568" lon="3.91173">
        <ele>1045.57</ele>
        <time>2022-08-04T11:19:37Z</time>
      </trkpt>
      <trkpt lat="44.61561" lon="3.91152">
        <ele>1041.73</ele>
        <time>2022-08-04T11:19:52Z</time>
      </trkpt>
      <trkpt lat="44.61556" lon="3.91108">
        <ele>1039.32</ele>
        <time>2022-08-04T11:20:11Z</time>
      </trkpt>
      <trkpt lat="44.61546" lon="3.91087">
        <ele>1035.48</ele>
        <time>2022-08-04T11:20:26Z</time>
      </trkpt>
      <trkpt lat="44.61548" lon="3.9106">
        <ele>1033.07</ele>
        <time>2022-08-04T11:20:38Z</time>
      </trkpt>
      <trkpt lat="44.61561" lon="3.91042">
        <ele>1034.52</ele>
        <time>2022-08-04T11:20:53Z</time>
      </trkpt>
      <trkpt lat="44.6156" lon="3.91036">
        <ele>1035.48</ele>
        <time>2022-08-04T11:21:06Z</time>
      </trkpt>
      <trkpt lat="44.61558" lon="3.91033">
        <ele>1035</ele>
        <time>2022-08-04T11:21:36Z</time>
      </trkpt>
      <trkpt lat="44.61562" lon="3.91025">
        <ele>1034.52</ele>
        <time>2022-08-04T11:21:57Z</time>
      </trkpt>
      <trkpt lat="44.61558" lon="3.91004">
        <ele>1029.71</ele>
        <time>2022-08-04T11:22:15Z</time>
      </trkpt>
      <trkpt lat="44.61549" lon="3.90988">
        <ele>1029.71</ele>
        <time>2022-08-04T11:22:30Z</time>
      </trkpt>
      <trkpt lat="44.61544" lon="3.90963">
        <ele>1028.27</ele>
        <time>2022-08-04T11:22:44Z</time>
      </trkpt>
      <trkpt lat="44.61537" lon="3.90934">
        <ele>1029.23</ele>
        <time>2022-08-04T11:22:59Z</time>
      </trkpt>
      <trkpt lat="44.61536" lon="3.90932">
        <ele>1029.71</ele>
        <time>2022-08-04T11:23:00Z</time>
      </trkpt>
      <trkpt lat="44.61533" lon="3.90917">
        <ele>1029.23</ele>
        <time>2022-08-04T11:23:10Z</time>
      </trkpt>
      <trkpt lat="44.6154" lon="3.90902">
        <ele>1031.15</ele>
        <time>2022-08-04T11:23:22Z</time>
      </trkpt>
      <trkpt lat="44.61546" lon="3.90894">
        <ele>1031.63</ele>
        <time>2022-08-04T11:23:28Z</time>
      </trkpt>
      <trkpt lat="44.61548" lon="3.9089">
        <ele>1031.63</ele>
        <time>2022-08-04T11:23:31Z</time>
      </trkpt>
      <trkpt lat="44.6155" lon="3.90886">
        <ele>1031.63</ele>
        <time>2022-08-04T11:23:34Z</time>
      </trkpt>
      <trkpt lat="44.61551" lon="3.90883">
        <ele>1031.63</ele>
        <time>2022-08-04T11:23:36Z</time>
      </trkpt>
      <trkpt lat="44.61552" lon="3.90878">
        <ele>1031.63</ele>
        <time>2022-08-04T11:23:39Z</time>
      </trkpt>
      <trkpt lat="44.61555" lon="3.90871">
        <ele>1031.63</ele>
        <time>2022-08-04T11:23:44Z</time>
      </trkpt>
      <trkpt lat="44.6156" lon="3.90855">
        <ele>1030.67</ele>
        <time>2022-08-04T11:23:57Z</time>
      </trkpt>
      <trkpt lat="44.61569" lon="3.90828">
        <ele>1030.19</ele>
        <time>2022-08-04T11:24:13Z</time>
      </trkpt>
      <trkpt lat="44.61574" lon="3.9081">
        <ele>1030.19</ele>
        <time>2022-08-04T11:24:26Z</time>
      </trkpt>
      <trkpt lat="44.61577" lon="3.90794">
        <ele>1033.07</ele>
        <time>2022-08-04T11:24:39Z</time>
      </trkpt>
      <trkpt lat="44.61582" lon="3.90769">
        <ele>1033.07</ele>
        <time>2022-08-04T11:24:54Z</time>
      </trkpt>
      <trkpt lat="44.61588" lon="3.90739">
        <ele>1033.07</ele>
        <time>2022-08-04T11:25:08Z</time>
      </trkpt>
      <trkpt lat="44.61586" lon="3.90711">
        <ele>1035.48</ele>
        <time>2022-08-04T11:25:23Z</time>
      </trkpt>
      <trkpt lat="44.61575" lon="3.9068">
        <ele>1034.52</ele>
        <time>2022-08-04T11:25:37Z</time>
      </trkpt>
      <trkpt lat="44.61569" lon="3.90662">
        <ele>1033.55</ele>
        <time>2022-08-04T11:25:45Z</time>
      </trkpt>
      <trkpt lat="44.61566" lon="3.90659">
        <ele>1033.07</ele>
        <time>2022-08-04T11:25:47Z</time>
      </trkpt>
      <trkpt lat="44.6156" lon="3.90648">
        <ele>1032.11</ele>
        <time>2022-08-04T11:25:54Z</time>
      </trkpt>
      <trkpt lat="44.6155" lon="3.90625">
        <ele>1031.15</ele>
        <time>2022-08-04T11:26:09Z</time>
      </trkpt>
      <trkpt lat="44.61543" lon="3.90599">
        <ele>1033.07</ele>
        <time>2022-08-04T11:26:24Z</time>
      </trkpt>
      <trkpt lat="44.61536" lon="3.90592">
        <ele>1032.11</ele>
        <time>2022-08-04T11:26:36Z</time>
      </trkpt>
      <trkpt lat="44.61538" lon="3.90596">
        <ele>1032.59</ele>
        <time>2022-08-04T11:26:53Z</time>
      </trkpt>
      <trkpt lat="44.61537" lon="3.90611">
        <ele>1035</ele>
        <time>2022-08-04T11:27:11Z</time>
      </trkpt>
      <trkpt lat="44.61539" lon="3.9063">
        <ele>1035.96</ele>
        <time>2022-08-04T11:27:26Z</time>
      </trkpt>
      <trkpt lat="44.61541" lon="3.90653">
        <ele>1037.88</ele>
        <time>2022-08-04T11:27:43Z</time>
      </trkpt>
      <trkpt lat="44.61544" lon="3.90682">
        <ele>1040.28</ele>
        <time>2022-08-04T11:28:00Z</time>
      </trkpt>
      <trkpt lat="44.61545" lon="3.90706">
        <ele>1038.84</ele>
        <time>2022-08-04T11:28:17Z</time>
      </trkpt>
      <trkpt lat="44.61544" lon="3.90721">
        <ele>1039.32</ele>
        <time>2022-08-04T11:28:30Z</time>
      </trkpt>
      <trkpt lat="44.61542" lon="3.90733">
        <ele>1039.8</ele>
        <time>2022-08-04T11:28:49Z</time>
      </trkpt>
      <trkpt lat="44.61539" lon="3.90751">
        <ele>1042.69</ele>
        <time>2022-08-04T11:29:06Z</time>
      </trkpt>
      <trkpt lat="44.61529" lon="3.90769">
        <ele>1049.9</ele>
        <time>2022-08-04T11:29:23Z</time>
      </trkpt>
      <trkpt lat="44.61521" lon="3.9079">
        <ele>1048.45</ele>
        <time>2022-08-04T11:29:41Z</time>
      </trkpt>
      <trkpt lat="44.6151" lon="3.90803">
        <ele>1050.38</ele>
        <time>2022-08-04T11:29:58Z</time>
      </trkpt>
      <trkpt lat="44.61497" lon="3.90809">
        <ele>1052.78</ele>
        <time>2022-08-04T11:30:15Z</time>
      </trkpt>
      <trkpt lat="44.61485" lon="3.90812">
        <ele>1057.59</ele>
        <time>2022-08-04T11:30:34Z</time>
      </trkpt>
      <trkpt lat="44.61473" lon="3.90815">
        <ele>1059.51</ele>
        <time>2022-08-04T11:30:50Z</time>
      </trkpt>
      <trkpt lat="44.61473" lon="3.90812">
        <ele>1059.03</ele>
        <time>2022-08-04T11:31:04Z</time>
      </trkpt>
      <trkpt lat="44.6148" lon="3.90802">
        <ele>1059.99</ele>
        <time>2022-08-04T11:31:19Z</time>
      </trkpt>
      <trkpt lat="44.61481" lon="3.90788">
        <ele>1061.43</ele>
        <time>2022-08-04T11:31:33Z</time>
      </trkpt>
      <trkpt lat="44.61484" lon="3.90768">
        <ele>1064.8</ele>
        <time>2022-08-04T11:31:48Z</time>
      </trkpt>
      <trkpt lat="44.61488" lon="3.90745">
        <ele>1067.68</ele>
        <time>2022-08-04T11:32:06Z</time>
      </trkpt>
      <trkpt lat="44.61486" lon="3.90724">
        <ele>1068.64</ele>
        <time>2022-08-04T11:32:22Z</time>
      </trkpt>
      <trkpt lat="44.61479" lon="3.90704">
        <ele>1069.12</ele>
        <time>2022-08-04T11:32:37Z</time>
      </trkpt>
      <trkpt lat="44.61468" lon="3.90683">
        <ele>1070.08</ele>
        <time>2022-08-04T11:32:52Z</time>
      </trkpt>
      <trkpt lat="44.61459" lon="3.90659">
        <ele>1071.05</ele>
        <time>2022-08-04T11:33:06Z</time>
      </trkpt>
      <trkpt lat="44.61453" lon="3.90639">
        <ele>1072.01</ele>
        <time>2022-08-04T11:33:21Z</time>
      </trkpt>
      <trkpt lat="44.61448" lon="3.90623">
        <ele>1071.53</ele>
        <time>2022-08-04T11:33:36Z</time>
      </trkpt>
      <trkpt lat="44.61436" lon="3.90612">
        <ele>1073.45</ele>
        <time>2022-08-04T11:33:53Z</time>
      </trkpt>
      <trkpt lat="44.61437" lon="3.90628">
        <ele>1072.97</ele>
        <time>2022-08-04T11:34:05Z</time>
      </trkpt>
      <trkpt lat="44.61435" lon="3.90635">
        <ele>1072.49</ele>
        <time>2022-08-04T11:34:10Z</time>
      </trkpt>
      <trkpt lat="44.61433" lon="3.90656">
        <ele>1072.97</ele>
        <time>2022-08-04T11:34:28Z</time>
      </trkpt>
      <trkpt lat="44.6143" lon="3.90677">
        <ele>1072.01</ele>
        <time>2022-08-04T11:34:44Z</time>
      </trkpt>
      <trkpt lat="44.61426" lon="3.90696">
        <ele>1073.45</ele>
        <time>2022-08-04T11:35:00Z</time>
      </trkpt>
      <trkpt lat="44.61417" lon="3.90712">
        <ele>1074.89</ele>
        <time>2022-08-04T11:35:18Z</time>
      </trkpt>
      <trkpt lat="44.61413" lon="3.90721">
        <ele>1076.33</ele>
        <time>2022-08-04T11:35:27Z</time>
      </trkpt>
      <trkpt lat="44.61398" lon="3.90733">
        <ele>1077.29</ele>
        <time>2022-08-04T11:35:45Z</time>
      </trkpt>
      <trkpt lat="44.61386" lon="3.90743">
        <ele>1078.74</ele>
        <time>2022-08-04T11:35:59Z</time>
      </trkpt>
      <trkpt lat="44.61385" lon="3.90744">
        <ele>1079.22</ele>
        <time>2022-08-04T11:36:00Z</time>
      </trkpt>
      <trkpt lat="44.61372" lon="3.90755">
        <ele>1080.18</ele>
        <time>2022-08-04T11:36:16Z</time>
      </trkpt>
      <trkpt lat="44.61358" lon="3.90765">
        <ele>1082.1</ele>
        <time>2022-08-04T11:36:32Z</time>
      </trkpt>
      <trkpt lat="44.61348" lon="3.90771">
        <ele>1082.1</ele>
        <time>2022-08-04T11:36:43Z</time>
      </trkpt>
      <trkpt lat="44.61335" lon="3.90782">
        <ele>1081.14</ele>
        <time>2022-08-04T11:36:58Z</time>
      </trkpt>
      <trkpt lat="44.61325" lon="3.90797">
        <ele>1081.14</ele>
        <time>2022-08-04T11:37:13Z</time>
      </trkpt>
      <trkpt lat="44.61316" lon="3.90816">
        <ele>1082.1</ele>
        <time>2022-08-04T11:37:29Z</time>
      </trkpt>
      <trkpt lat="44.61309" lon="3.90835">
        <ele>1084.02</ele>
        <time>2022-08-04T11:37:44Z</time>
      </trkpt>
      <trkpt lat="44.61304" lon="3.90856">
        <ele>1084.99</ele>
        <time>2022-08-04T11:38:01Z</time>
      </trkpt>
      <trkpt lat="44.61302" lon="3.90874">
        <ele>1084.5</ele>
        <time>2022-08-04T11:38:15Z</time>
      </trkpt>
      <trkpt lat="44.61303" lon="3.90879">
        <ele>1084.99</ele>
        <time>2022-08-04T11:38:19Z</time>
      </trkpt>
      <trkpt lat="44.61307" lon="3.90899">
        <ele>1084.99</ele>
        <time>2022-08-04T11:38:34Z</time>
      </trkpt>
      <trkpt lat="44.61305" lon="3.90921">
        <ele>1089.31</ele>
        <time>2022-08-04T11:38:50Z</time>
      </trkpt>
      <trkpt lat="44.61305" lon="3.90941">
        <ele>1092.68</ele>
        <time>2022-08-04T11:39:05Z</time>
      </trkpt>
      <trkpt lat="44.61304" lon="3.90965">
        <ele>1099.4</ele>
        <time>2022-08-04T11:39:25Z</time>
      </trkpt>
      <trkpt lat="44.61299" lon="3.90986">
        <ele>1103.25</ele>
        <time>2022-08-04T11:39:42Z</time>
      </trkpt>
      <trkpt lat="44.61293" lon="3.91001">
        <ele>1109.5</ele>
        <time>2022-08-04T11:40:00Z</time>
      </trkpt>
      <trkpt lat="44.61288" lon="3.91015">
        <ele>1115.27</ele>
        <time>2022-08-04T11:40:15Z</time>
      </trkpt>
      <trkpt lat="44.61282" lon="3.91029">
        <ele>1118.63</ele>
        <time>2022-08-04T11:40:31Z</time>
      </trkpt>
      <trkpt lat="44.6127" lon="3.91039">
        <ele>1122</ele>
        <time>2022-08-04T11:40:47Z</time>
      </trkpt>
      <trkpt lat="44.61258" lon="3.91059">
        <ele>1122.96</ele>
        <time>2022-08-04T11:41:06Z</time>
      </trkpt>
      <trkpt lat="44.61248" lon="3.91071">
        <ele>1124.88</ele>
        <time>2022-08-04T11:41:22Z</time>
      </trkpt>
      <trkpt lat="44.61239" lon="3.91084">
        <ele>1126.8</ele>
        <time>2022-08-04T11:41:37Z</time>
      </trkpt>
      <trkpt lat="44.61228" lon="3.91094">
        <ele>1128.73</ele>
        <time>2022-08-04T11:41:50Z</time>
      </trkpt>
      <trkpt lat="44.61221" lon="3.91102">
        <ele>1128.73</ele>
        <time>2022-08-04T11:41:55Z</time>
      </trkpt>
      <trkpt lat="44.6121" lon="3.91119">
        <ele>1130.17</ele>
        <time>2022-08-04T11:42:11Z</time>
      </trkpt>
      <trkpt lat="44.61204" lon="3.91129">
        <ele>1130.65</ele>
        <time>2022-08-04T11:42:24Z</time>
      </trkpt>
      <trkpt lat="44.61197" lon="3.91151">
        <ele>1128.73</ele>
        <time>2022-08-04T11:42:39Z</time>
      </trkpt>
      <trkpt lat="44.6119" lon="3.9117">
        <ele>1129.21</ele>
        <time>2022-08-04T11:42:54Z</time>
      </trkpt>
      <trkpt lat="44.6118" lon="3.91195">
        <ele>1130.65</ele>
        <time>2022-08-04T11:43:12Z</time>
      </trkpt>
      <trkpt lat="44.61178" lon="3.912">
        <ele>1131.61</ele>
        <time>2022-08-04T11:43:16Z</time>
      </trkpt>
      <trkpt lat="44.6117" lon="3.91219">
        <ele>1132.57</ele>
        <time>2022-08-04T11:43:33Z</time>
      </trkpt>
      <trkpt lat="44.61165" lon="3.91246">
        <ele>1130.65</ele>
        <time>2022-08-04T11:43:50Z</time>
      </trkpt>
      <trkpt lat="44.61164" lon="3.91268">
        <ele>1132.09</ele>
        <time>2022-08-04T11:44:04Z</time>
      </trkpt>
      <trkpt lat="44.6116" lon="3.91286">
        <ele>1134.97</ele>
        <time>2022-08-04T11:44:19Z</time>
      </trkpt>
      <trkpt lat="44.61158" lon="3.91291">
        <ele>1135.94</ele>
        <time>2022-08-04T11:44:22Z</time>
      </trkpt>
      <trkpt lat="44.61155" lon="3.91296">
        <ele>1136.9</ele>
        <time>2022-08-04T11:44:26Z</time>
      </trkpt>
      <trkpt lat="44.61153" lon="3.91322">
        <ele>1137.38</ele>
        <time>2022-08-04T11:44:43Z</time>
      </trkpt>
      <trkpt lat="44.61154" lon="3.91342">
        <ele>1136.9</ele>
        <time>2022-08-04T11:44:57Z</time>
      </trkpt>
      <trkpt lat="44.61154" lon="3.91363">
        <ele>1137.38</ele>
        <time>2022-08-04T11:45:12Z</time>
      </trkpt>
      <trkpt lat="44.61156" lon="3.91384">
        <ele>1141.22</ele>
        <time>2022-08-04T11:45:27Z</time>
      </trkpt>
      <trkpt lat="44.61156" lon="3.91404">
        <ele>1143.14</ele>
        <time>2022-08-04T11:45:43Z</time>
      </trkpt>
      <trkpt lat="44.61149" lon="3.9142">
        <ele>1145.07</ele>
        <time>2022-08-04T11:46:00Z</time>
      </trkpt>
      <trkpt lat="44.61141" lon="3.91436">
        <ele>1144.59</ele>
        <time>2022-08-04T11:46:14Z</time>
      </trkpt>
      <trkpt lat="44.61132" lon="3.9145">
        <ele>1147.47</ele>
        <time>2022-08-04T11:46:30Z</time>
      </trkpt>
      <trkpt lat="44.61121" lon="3.91457">
        <ele>1149.39</ele>
        <time>2022-08-04T11:46:44Z</time>
      </trkpt>
      <trkpt lat="44.61108" lon="3.91469">
        <ele>1151.8</ele>
        <time>2022-08-04T11:46:59Z</time>
      </trkpt>
      <trkpt lat="44.61101" lon="3.9148">
        <ele>1153.24</ele>
        <time>2022-08-04T11:47:12Z</time>
      </trkpt>
      <trkpt lat="44.61089" lon="3.91491">
        <ele>1155.16</ele>
        <time>2022-08-04T11:47:28Z</time>
      </trkpt>
      <trkpt lat="44.61077" lon="3.91502">
        <ele>1157.08</ele>
        <time>2022-08-04T11:47:43Z</time>
      </trkpt>
      <trkpt lat="44.61067" lon="3.91517">
        <ele>1159.97</ele>
        <time>2022-08-04T11:47:58Z</time>
      </trkpt>
      <trkpt lat="44.61058" lon="3.9153">
        <ele>1162.37</ele>
        <time>2022-08-04T11:48:12Z</time>
      </trkpt>
      <trkpt lat="44.61052" lon="3.91535">
        <ele>1162.37</ele>
        <time>2022-08-04T11:48:19Z</time>
      </trkpt>
      <trkpt lat="44.61039" lon="3.91554">
        <ele>1164.77</ele>
        <time>2022-08-04T11:48:37Z</time>
      </trkpt>
      <trkpt lat="44.61029" lon="3.91576">
        <ele>1166.7</ele>
        <time>2022-08-04T11:48:53Z</time>
      </trkpt>
      <trkpt lat="44.61023" lon="3.91582">
        <ele>1167.18</ele>
        <time>2022-08-04T11:49:00Z</time>
      </trkpt>
      <trkpt lat="44.61011" lon="3.91606">
        <ele>1168.14</ele>
        <time>2022-08-04T11:49:19Z</time>
      </trkpt>
      <trkpt lat="44.61004" lon="3.91625">
        <ele>1168.14</ele>
        <time>2022-08-04T11:49:34Z</time>
      </trkpt>
      <trkpt lat="44.60996" lon="3.91646">
        <ele>1168.62</ele>
        <time>2022-08-04T11:49:50Z</time>
      </trkpt>
      <trkpt lat="44.60987" lon="3.91664">
        <ele>1169.58</ele>
        <time>2022-08-04T11:50:06Z</time>
      </trkpt>
      <trkpt lat="44.60979" lon="3.91684">
        <ele>1170.06</ele>
        <time>2022-08-04T11:50:23Z</time>
      </trkpt>
      <trkpt lat="44.60971" lon="3.91705">
        <ele>1171.5</ele>
        <time>2022-08-04T11:50:40Z</time>
      </trkpt>
      <trkpt lat="44.60968" lon="3.91709">
        <ele>1171.98</ele>
        <time>2022-08-04T11:50:44Z</time>
      </trkpt>
      <trkpt lat="44.60961" lon="3.91731">
        <ele>1173.43</ele>
        <time>2022-08-04T11:51:02Z</time>
      </trkpt>
      <trkpt lat="44.60956" lon="3.91749">
        <ele>1175.83</ele>
        <time>2022-08-04T11:51:16Z</time>
      </trkpt>
      <trkpt lat="44.60953" lon="3.91767">
        <ele>1177.75</ele>
        <time>2022-08-04T11:51:30Z</time>
      </trkpt>
      <trkpt lat="44.60949" lon="3.91787">
        <ele>1180.16</ele>
        <time>2022-08-04T11:51:46Z</time>
      </trkpt>
      <trkpt lat="44.60946" lon="3.91807">
        <ele>1182.08</ele>
        <time>2022-08-04T11:52:01Z</time>
      </trkpt>
      <trkpt lat="44.60944" lon="3.91832">
        <ele>1184.96</ele>
        <time>2022-08-04T11:52:20Z</time>
      </trkpt>
      <trkpt lat="44.6094" lon="3.91851">
        <ele>1186.88</ele>
        <time>2022-08-04T11:52:35Z</time>
      </trkpt>
      <trkpt lat="44.60936" lon="3.91872">
        <ele>1188.81</ele>
        <time>2022-08-04T11:52:52Z</time>
      </trkpt>
      <trkpt lat="44.60932" lon="3.91891">
        <ele>1190.25</ele>
        <time>2022-08-04T11:53:08Z</time>
      </trkpt>
      <trkpt lat="44.6093" lon="3.91908">
        <ele>1194.09</ele>
        <time>2022-08-04T11:53:23Z</time>
      </trkpt>
      <trkpt lat="44.60926" lon="3.91925">
        <ele>1197.94</ele>
        <time>2022-08-04T11:53:41Z</time>
      </trkpt>
      <trkpt lat="44.6092" lon="3.91943">
        <ele>1200.34</ele>
        <time>2022-08-04T11:53:58Z</time>
      </trkpt>
      <trkpt lat="44.60915" lon="3.91954">
        <ele>1202.75</ele>
        <time>2022-08-04T11:54:13Z</time>
      </trkpt>
      <trkpt lat="44.60909" lon="3.91966">
        <ele>1205.15</ele>
        <time>2022-08-04T11:54:27Z</time>
      </trkpt>
      <trkpt lat="44.60903" lon="3.91978">
        <ele>1207.07</ele>
        <time>2022-08-04T11:54:41Z</time>
      </trkpt>
      <trkpt lat="44.60896" lon="3.91992">
        <ele>1209.48</ele>
        <time>2022-08-04T11:54:58Z</time>
      </trkpt>
      <trkpt lat="44.60891" lon="3.92007">
        <ele>1212.84</ele>
        <time>2022-08-04T11:55:15Z</time>
      </trkpt>
      <trkpt lat="44.60881" lon="3.92019">
        <ele>1216.21</ele>
        <time>2022-08-04T11:55:33Z</time>
      </trkpt>
      <trkpt lat="44.60873" lon="3.92032">
        <ele>1219.09</ele>
        <time>2022-08-04T11:55:50Z</time>
      </trkpt>
      <trkpt lat="44.60871" lon="3.92051">
        <ele>1221.49</ele>
        <time>2022-08-04T11:56:07Z</time>
      </trkpt>
      <trkpt lat="44.60865" lon="3.92071">
        <ele>1223.42</ele>
        <time>2022-08-04T11:56:23Z</time>
      </trkpt>
      <trkpt lat="44.60857" lon="3.92089">
        <ele>1224.38</ele>
        <time>2022-08-04T11:56:39Z</time>
      </trkpt>
      <trkpt lat="44.60854" lon="3.92104">
        <ele>1225.34</ele>
        <time>2022-08-04T11:56:54Z</time>
      </trkpt>
      <trkpt lat="44.60848" lon="3.92098">
        <ele>1225.82</ele>
        <time>2022-08-04T11:57:07Z</time>
      </trkpt>
      <trkpt lat="44.60847" lon="3.92083">
        <ele>1224.86</ele>
        <time>2022-08-04T11:57:21Z</time>
      </trkpt>
      <trkpt lat="44.60849" lon="3.92078">
        <ele>1224.38</ele>
        <time>2022-08-04T11:57:33Z</time>
      </trkpt>
      <trkpt lat="44.60848" lon="3.92077">
        <ele>1225.34</ele>
        <time>2022-08-04T11:57:57Z</time>
      </trkpt>
      <trkpt lat="44.60846" lon="3.92076">
        <ele>1226.3</ele>
        <time>2022-08-04T11:58:25Z</time>
      </trkpt>
      <trkpt lat="44.60848" lon="3.92077">
        <ele>1224.86</ele>
        <time>2022-08-04T11:58:57Z</time>
      </trkpt>
      <trkpt lat="44.60848" lon="3.92078">
        <ele>1225.82</ele>
        <time>2022-08-04T11:59:29Z</time>
      </trkpt>
      <trkpt lat="44.60848" lon="3.92076">
        <ele>1224.38</ele>
        <time>2022-08-04T12:00:02Z</time>
      </trkpt>
      <trkpt lat="44.60846" lon="3.92078">
        <ele>1223.9</ele>
        <time>2022-08-04T12:00:21Z</time>
      </trkpt>
      <trkpt lat="44.60846" lon="3.92081">
        <ele>1224.86</ele>
        <time>2022-08-04T12:00:52Z</time>
      </trkpt>
      <trkpt lat="44.60846" lon="3.92095">
        <ele>1226.78</ele>
        <time>2022-08-04T12:01:07Z</time>
      </trkpt>
      <trkpt lat="44.60848" lon="3.92099">
        <ele>1227.74</ele>
        <time>2022-08-04T12:01:22Z</time>
      </trkpt>
      <trkpt lat="44.60849" lon="3.921">
        <ele>1227.74</ele>
        <time>2022-08-04T12:01:23Z</time>
      </trkpt>
      <trkpt lat="44.60854" lon="3.92107">
        <ele>1225.82</ele>
        <time>2022-08-04T12:01:38Z</time>
      </trkpt>
      <trkpt lat="44.60854" lon="3.92105">
        <ele>1226.3</ele>
        <time>2022-08-04T12:01:49Z</time>
      </trkpt>
      <trkpt lat="44.60853" lon="3.92109">
        <ele>1226.78</ele>
        <time>2022-08-04T12:02:14Z</time>
      </trkpt>
      <trkpt lat="44.60852" lon="3.92109">
        <ele>1226.78</ele>
        <time>2022-08-04T12:02:43Z</time>
      </trkpt>
      <trkpt lat="44.6085" lon="3.92111">
        <ele>1229.18</ele>
        <time>2022-08-04T12:03:11Z</time>
      </trkpt>
      <trkpt lat="44.60853" lon="3.92111">
        <ele>1224.86</ele>
        <time>2022-08-04T12:03:35Z</time>
      </trkpt>
      <trkpt lat="44.60854" lon="3.92107">
        <ele>1225.34</ele>
        <time>2022-08-04T12:03:49Z</time>
      </trkpt>
      <trkpt lat="44.60853" lon="3.92111">
        <ele>1225.34</ele>
        <time>2022-08-04T12:03:54Z</time>
      </trkpt>
      <trkpt lat="44.60854" lon="3.92114">
        <ele>1225.34</ele>
        <time>2022-08-04T12:03:56Z</time>
      </trkpt>
      <trkpt lat="44.60857" lon="3.92125">
        <ele>1225.34</ele>
        <time>2022-08-04T12:04:04Z</time>
      </trkpt>
      <trkpt lat="44.60858" lon="3.9215">
        <ele>1225.82</ele>
        <time>2022-08-04T12:04:20Z</time>
      </trkpt>
      <trkpt lat="44.60858" lon="3.92156">
        <ele>1225.82</ele>
        <time>2022-08-04T12:04:24Z</time>
      </trkpt>
      <trkpt lat="44.60859" lon="3.92171">
        <ele>1225.34</ele>
        <time>2022-08-04T12:04:39Z</time>
      </trkpt>
      <trkpt lat="44.6086" lon="3.92175">
        <ele>1225.34</ele>
        <time>2022-08-04T12:04:46Z</time>
      </trkpt>
      <trkpt lat="44.60859" lon="3.92187">
        <ele>1224.86</ele>
        <time>2022-08-04T12:05:01Z</time>
      </trkpt>
      <trkpt lat="44.60861" lon="3.92204">
        <ele>1225.82</ele>
        <time>2022-08-04T12:05:12Z</time>
      </trkpt>
      <trkpt lat="44.60862" lon="3.92231">
        <ele>1225.82</ele>
        <time>2022-08-04T12:05:30Z</time>
      </trkpt>
      <trkpt lat="44.60865" lon="3.92251">
        <ele>1223.42</ele>
        <time>2022-08-04T12:05:45Z</time>
      </trkpt>
      <trkpt lat="44.60867" lon="3.92276">
        <ele>1219.57</ele>
        <time>2022-08-04T12:06:01Z</time>
      </trkpt>
      <trkpt lat="44.60867" lon="3.92278">
        <ele>1219.57</ele>
        <time>2022-08-04T12:06:02Z</time>
      </trkpt>
      <trkpt lat="44.60868" lon="3.92283">
        <ele>1218.61</ele>
        <time>2022-08-04T12:06:05Z</time>
      </trkpt>
      <trkpt lat="44.60871" lon="3.92309">
        <ele>1216.69</ele>
        <time>2022-08-04T12:06:21Z</time>
      </trkpt>
      <trkpt lat="44.60873" lon="3.92328">
        <ele>1216.21</ele>
        <time>2022-08-04T12:06:35Z</time>
      </trkpt>
      <trkpt lat="44.60869" lon="3.92352">
        <ele>1218.13</ele>
        <time>2022-08-04T12:06:52Z</time>
      </trkpt>
      <trkpt lat="44.60866" lon="3.92372">
        <ele>1218.61</ele>
        <time>2022-08-04T12:07:06Z</time>
      </trkpt>
      <trkpt lat="44.60865" lon="3.92391">
        <ele>1217.65</ele>
        <time>2022-08-04T12:07:19Z</time>
      </trkpt>
      <trkpt lat="44.60856" lon="3.92411">
        <ele>1217.65</ele>
        <time>2022-08-04T12:07:35Z</time>
      </trkpt>
      <trkpt lat="44.60851" lon="3.92428">
        <ele>1217.65</ele>
        <time>2022-08-04T12:07:48Z</time>
      </trkpt>
      <trkpt lat="44.60845" lon="3.92452">
        <ele>1217.17</ele>
        <time>2022-08-04T12:08:02Z</time>
      </trkpt>
      <trkpt lat="44.6084" lon="3.92472">
        <ele>1214.28</ele>
        <time>2022-08-04T12:08:16Z</time>
      </trkpt>
      <trkpt lat="44.60831" lon="3.92493">
        <ele>1215.24</ele>
        <time>2022-08-04T12:08:32Z</time>
      </trkpt>
      <trkpt lat="44.60822" lon="3.92526">
        <ele>1213.8</ele>
        <time>2022-08-04T12:08:51Z</time>
      </trkpt>
      <trkpt lat="44.60816" lon="3.92552">
        <ele>1214.28</ele>
        <time>2022-08-04T12:09:07Z</time>
      </trkpt>
      <trkpt lat="44.60812" lon="3.92575">
        <ele>1213.32</ele>
        <time>2022-08-04T12:09:22Z</time>
      </trkpt>
      <trkpt lat="44.60811" lon="3.92594">
        <ele>1212.36</ele>
        <time>2022-08-04T12:09:36Z</time>
      </trkpt>
      <trkpt lat="44.60809" lon="3.92615">
        <ele>1212.84</ele>
        <time>2022-08-04T12:09:51Z</time>
      </trkpt>
      <trkpt lat="44.60808" lon="3.92617">
        <ele>1213.32</ele>
        <time>2022-08-04T12:09:53Z</time>
      </trkpt>
      <trkpt lat="44.60801" lon="3.92637">
        <ele>1215.24</ele>
        <time>2022-08-04T12:10:08Z</time>
      </trkpt>
      <trkpt lat="44.60794" lon="3.92664">
        <ele>1218.13</ele>
        <time>2022-08-04T12:10:25Z</time>
      </trkpt>
      <trkpt lat="44.60786" lon="3.9268">
        <ele>1221.97</ele>
        <time>2022-08-04T12:10:40Z</time>
      </trkpt>
      <trkpt lat="44.60777" lon="3.92711">
        <ele>1223.42</ele>
        <time>2022-08-04T12:10:59Z</time>
      </trkpt>
      <trkpt lat="44.60767" lon="3.92733">
        <ele>1226.78</ele>
        <time>2022-08-04T12:11:17Z</time>
      </trkpt>
      <trkpt lat="44.60764" lon="3.92767">
        <ele>1232.07</ele>
        <time>2022-08-04T12:11:34Z</time>
      </trkpt>
      <trkpt lat="44.6076" lon="3.92788">
        <ele>1231.59</ele>
        <time>2022-08-04T12:11:49Z</time>
      </trkpt>
      <trkpt lat="44.6076" lon="3.92814">
        <ele>1234.95</ele>
        <time>2022-08-04T12:12:05Z</time>
      </trkpt>
      <trkpt lat="44.60757" lon="3.9283">
        <ele>1236.39</ele>
        <time>2022-08-04T12:12:18Z</time>
      </trkpt>
      <trkpt lat="44.60756" lon="3.92862">
        <ele>1239.28</ele>
        <time>2022-08-04T12:12:36Z</time>
      </trkpt>
      <trkpt lat="44.60756" lon="3.92893">
        <ele>1238.8</ele>
        <time>2022-08-04T12:12:50Z</time>
      </trkpt>
      <trkpt lat="44.60756" lon="3.92917">
        <ele>1237.83</ele>
        <time>2022-08-04T12:13:08Z</time>
      </trkpt>
      <trkpt lat="44.60759" lon="3.92944">
        <ele>1240.24</ele>
        <time>2022-08-04T12:13:27Z</time>
      </trkpt>
      <trkpt lat="44.60759" lon="3.92966">
        <ele>1241.2</ele>
        <time>2022-08-04T12:13:43Z</time>
      </trkpt>
      <trkpt lat="44.60759" lon="3.92989">
        <ele>1241.68</ele>
        <time>2022-08-04T12:13:59Z</time>
      </trkpt>
      <trkpt lat="44.60764" lon="3.93016">
        <ele>1243.12</ele>
        <time>2022-08-04T12:14:16Z</time>
      </trkpt>
      <trkpt lat="44.60776" lon="3.93048">
        <ele>1240.24</ele>
        <time>2022-08-04T12:14:32Z</time>
      </trkpt>
      <trkpt lat="44.60795" lon="3.93076">
        <ele>1231.11</ele>
        <time>2022-08-04T12:14:49Z</time>
      </trkpt>
      <trkpt lat="44.60796" lon="3.93077">
        <ele>1230.62</ele>
        <time>2022-08-04T12:14:50Z</time>
      </trkpt>
      <trkpt lat="44.60807" lon="3.931">
        <ele>1227.26</ele>
        <time>2022-08-04T12:15:07Z</time>
      </trkpt>
      <trkpt lat="44.60816" lon="3.9312">
        <ele>1226.78</ele>
        <time>2022-08-04T12:15:22Z</time>
      </trkpt>
      <trkpt lat="44.60821" lon="3.93135">
        <ele>1225.34</ele>
        <time>2022-08-04T12:15:34Z</time>
      </trkpt>
      <trkpt lat="44.60825" lon="3.93154">
        <ele>1223.9</ele>
        <time>2022-08-04T12:15:49Z</time>
      </trkpt>
      <trkpt lat="44.60821" lon="3.93168">
        <ele>1221.49</ele>
        <time>2022-08-04T12:16:05Z</time>
      </trkpt>
      <trkpt lat="44.60816" lon="3.9319">
        <ele>1220.53</ele>
        <time>2022-08-04T12:16:20Z</time>
      </trkpt>
      <trkpt lat="44.6081" lon="3.9322">
        <ele>1221.49</ele>
        <time>2022-08-04T12:16:37Z</time>
      </trkpt>
      <trkpt lat="44.60806" lon="3.93243">
        <ele>1221.01</ele>
        <time>2022-08-04T12:16:53Z</time>
      </trkpt>
      <trkpt lat="44.60803" lon="3.93266">
        <ele>1220.53</ele>
        <time>2022-08-04T12:17:08Z</time>
      </trkpt>
      <trkpt lat="44.60795" lon="3.933">
        <ele>1220.53</ele>
        <time>2022-08-04T12:17:27Z</time>
      </trkpt>
      <trkpt lat="44.60784" lon="3.93315">
        <ele>1222.93</ele>
        <time>2022-08-04T12:17:42Z</time>
      </trkpt>
      <trkpt lat="44.60778" lon="3.93326">
        <ele>1221.97</ele>
        <time>2022-08-04T12:17:50Z</time>
      </trkpt>
      <trkpt lat="44.60769" lon="3.93342">
        <ele>1221.49</ele>
        <time>2022-08-04T12:18:05Z</time>
      </trkpt>
      <trkpt lat="44.60759" lon="3.93365">
        <ele>1221.01</ele>
        <time>2022-08-04T12:18:22Z</time>
      </trkpt>
      <trkpt lat="44.60756" lon="3.9337">
        <ele>1221.01</ele>
        <time>2022-08-04T12:18:27Z</time>
      </trkpt>
      <trkpt lat="44.60748" lon="3.93391">
        <ele>1219.09</ele>
        <time>2022-08-04T12:18:42Z</time>
      </trkpt>
      <trkpt lat="44.6074" lon="3.93412">
        <ele>1214.28</ele>
        <time>2022-08-04T12:19:00Z</time>
      </trkpt>
      <trkpt lat="44.60731" lon="3.93435">
        <ele>1213.32</ele>
        <time>2022-08-04T12:19:14Z</time>
      </trkpt>
      <trkpt lat="44.60728" lon="3.93458">
        <ele>1211.4</ele>
        <time>2022-08-04T12:19:29Z</time>
      </trkpt>
      <trkpt lat="44.60728" lon="3.93478">
        <ele>1208.51</ele>
        <time>2022-08-04T12:19:42Z</time>
      </trkpt>
      <trkpt lat="44.60727" lon="3.93504">
        <ele>1208.03</ele>
        <time>2022-08-04T12:19:57Z</time>
      </trkpt>
      <trkpt lat="44.6073" lon="3.93513">
        <ele>1207.07</ele>
        <time>2022-08-04T12:20:03Z</time>
      </trkpt>
      <trkpt lat="44.60737" lon="3.93537">
        <ele>1208.03</ele>
        <time>2022-08-04T12:20:20Z</time>
      </trkpt>
      <trkpt lat="44.6074" lon="3.93556">
        <ele>1209</ele>
        <time>2022-08-04T12:20:32Z</time>
      </trkpt>
      <trkpt lat="44.60746" lon="3.93581">
        <ele>1209</ele>
        <time>2022-08-04T12:20:46Z</time>
      </trkpt>
      <trkpt lat="44.60755" lon="3.93605">
        <ele>1209.48</ele>
        <time>2022-08-04T12:21:02Z</time>
      </trkpt>
      <trkpt lat="44.60756" lon="3.93608">
        <ele>1209</ele>
        <time>2022-08-04T12:21:04Z</time>
      </trkpt>
      <trkpt lat="44.60764" lon="3.93625">
        <ele>1208.03</ele>
        <time>2022-08-04T12:21:17Z</time>
      </trkpt>
      <trkpt lat="44.60775" lon="3.93646">
        <ele>1204.67</ele>
        <time>2022-08-04T12:21:34Z</time>
      </trkpt>
      <trkpt lat="44.60783" lon="3.93665">
        <ele>1204.19</ele>
        <time>2022-08-04T12:21:49Z</time>
      </trkpt>
      <trkpt lat="44.60786" lon="3.93679">
        <ele>1205.15</ele>
        <time>2022-08-04T12:22:01Z</time>
      </trkpt>
      <trkpt lat="44.60788" lon="3.93696">
        <ele>1208.51</ele>
        <time>2022-08-04T12:22:14Z</time>
      </trkpt>
      <trkpt lat="44.60787" lon="3.93723">
        <ele>1213.8</ele>
        <time>2022-08-04T12:22:28Z</time>
      </trkpt>
      <trkpt lat="44.60788" lon="3.93743">
        <ele>1216.69</ele>
        <time>2022-08-04T12:22:43Z</time>
      </trkpt>
      <trkpt lat="44.60786" lon="3.93764">
        <ele>1221.97</ele>
        <time>2022-08-04T12:22:57Z</time>
      </trkpt>
      <trkpt lat="44.60784" lon="3.93785">
        <ele>1227.26</ele>
        <time>2022-08-04T12:23:12Z</time>
      </trkpt>
      <trkpt lat="44.60782" lon="3.93806">
        <ele>1230.14</ele>
        <time>2022-08-04T12:23:28Z</time>
      </trkpt>
      <trkpt lat="44.60782" lon="3.93833">
        <ele>1234.95</ele>
        <time>2022-08-04T12:23:44Z</time>
      </trkpt>
      <trkpt lat="44.60783" lon="3.93855">
        <ele>1238.32</ele>
        <time>2022-08-04T12:23:58Z</time>
      </trkpt>
      <trkpt lat="44.60779" lon="3.93866">
        <ele>1238.8</ele>
        <time>2022-08-04T12:24:12Z</time>
      </trkpt>
      <trkpt lat="44.60785" lon="3.93876">
        <ele>1232.07</ele>
        <time>2022-08-04T12:24:26Z</time>
      </trkpt>
      <trkpt lat="44.60799" lon="3.93905">
        <ele>1214.28</ele>
        <time>2022-08-04T12:24:40Z</time>
      </trkpt>
      <trkpt lat="44.60804" lon="3.93899">
        <ele>1208.03</ele>
        <time>2022-08-04T12:24:54Z</time>
      </trkpt>
      <trkpt lat="44.60807" lon="3.93876">
        <ele>1201.3</ele>
        <time>2022-08-04T12:25:09Z</time>
      </trkpt>
      <trkpt lat="44.60811" lon="3.93875">
        <ele>1199.86</ele>
        <time>2022-08-04T12:25:23Z</time>
      </trkpt>
      <trkpt lat="44.60818" lon="3.9389">
        <ele>1202.75</ele>
        <time>2022-08-04T12:25:37Z</time>
      </trkpt>
      <trkpt lat="44.60821" lon="3.93894">
        <ele>1202.75</ele>
        <time>2022-08-04T12:25:42Z</time>
      </trkpt>
      <trkpt lat="44.60831" lon="3.93918">
        <ele>1206.11</ele>
        <time>2022-08-04T12:25:58Z</time>
      </trkpt>
      <trkpt lat="44.60837" lon="3.93927">
        <ele>1205.63</ele>
        <time>2022-08-04T12:26:07Z</time>
      </trkpt>
      <trkpt lat="44.60841" lon="3.93934">
        <ele>1204.67</ele>
        <time>2022-08-04T12:26:12Z</time>
      </trkpt>
      <trkpt lat="44.60857" lon="3.93951">
        <ele>1201.3</ele>
        <time>2022-08-04T12:26:28Z</time>
      </trkpt>
      <trkpt lat="44.60857" lon="3.93952">
        <ele>1201.3</ele>
        <time>2022-08-04T12:26:29Z</time>
      </trkpt>
      <trkpt lat="44.60875" lon="3.93967">
        <ele>1198.9</ele>
        <time>2022-08-04T12:26:46Z</time>
      </trkpt>
      <trkpt lat="44.6088" lon="3.93972">
        <ele>1197.46</ele>
        <time>2022-08-04T12:26:51Z</time>
      </trkpt>
      <trkpt lat="44.60887" lon="3.93972">
        <ele>1196.5</ele>
        <time>2022-08-04T12:26:58Z</time>
      </trkpt>
      <trkpt lat="44.60899" lon="3.93986">
        <ele>1197.94</ele>
        <time>2022-08-04T12:27:12Z</time>
      </trkpt>
      <trkpt lat="44.60909" lon="3.94002">
        <ele>1202.75</ele>
        <time>2022-08-04T12:27:25Z</time>
      </trkpt>
      <trkpt lat="44.60921" lon="3.94019">
        <ele>1208.51</ele>
        <time>2022-08-04T12:27:41Z</time>
      </trkpt>
      <trkpt lat="44.60928" lon="3.94027">
        <ele>1210.44</ele>
        <time>2022-08-04T12:27:48Z</time>
      </trkpt>
      <trkpt lat="44.60937" lon="3.94039">
        <ele>1209.96</ele>
        <time>2022-08-04T12:27:58Z</time>
      </trkpt>
      <trkpt lat="44.60938" lon="3.94053">
        <ele>1209.96</ele>
        <time>2022-08-04T12:28:14Z</time>
      </trkpt>
      <trkpt lat="44.60936" lon="3.94057">
        <ele>1209</ele>
        <time>2022-08-04T12:28:30Z</time>
      </trkpt>
      <trkpt lat="44.60926" lon="3.94064">
        <ele>1207.07</ele>
        <time>2022-08-04T12:28:45Z</time>
      </trkpt>
      <trkpt lat="44.60918" lon="3.94068">
        <ele>1205.15</ele>
        <time>2022-08-04T12:29:00Z</time>
      </trkpt>
      <trkpt lat="44.60907" lon="3.94075">
        <ele>1202.27</ele>
        <time>2022-08-04T12:29:15Z</time>
      </trkpt>
      <trkpt lat="44.60896" lon="3.94081">
        <ele>1197.94</ele>
        <time>2022-08-04T12:29:29Z</time>
      </trkpt>
      <trkpt lat="44.60886" lon="3.94077">
        <ele>1197.46</ele>
        <time>2022-08-04T12:29:45Z</time>
      </trkpt>
      <trkpt lat="44.60874" lon="3.94068">
        <ele>1198.9</ele>
        <time>2022-08-04T12:30:00Z</time>
      </trkpt>
      <trkpt lat="44.60869" lon="3.94062">
        <ele>1196.98</ele>
        <time>2022-08-04T12:30:09Z</time>
      </trkpt>
      <trkpt lat="44.60858" lon="3.94051">
        <ele>1193.13</ele>
        <time>2022-08-04T12:30:25Z</time>
      </trkpt>
      <trkpt lat="44.60845" lon="3.94041">
        <ele>1192.17</ele>
        <time>2022-08-04T12:30:40Z</time>
      </trkpt>
      <trkpt lat="44.60839" lon="3.94052">
        <ele>1190.73</ele>
        <time>2022-08-04T12:30:53Z</time>
      </trkpt>
      <trkpt lat="44.60836" lon="3.94061">
        <ele>1188.81</ele>
        <time>2022-08-04T12:31:07Z</time>
      </trkpt>
      <trkpt lat="44.60836" lon="3.94065">
        <ele>1187.37</ele>
        <time>2022-08-04T12:31:19Z</time>
      </trkpt>
      <trkpt lat="44.60835" lon="3.94072">
        <ele>1186.4</ele>
        <time>2022-08-04T12:31:32Z</time>
      </trkpt>
      <trkpt lat="44.60828" lon="3.94098">
        <ele>1188.81</ele>
        <time>2022-08-04T12:31:51Z</time>
      </trkpt>
      <trkpt lat="44.60823" lon="3.94119">
        <ele>1193.13</ele>
        <time>2022-08-04T12:32:05Z</time>
      </trkpt>
      <trkpt lat="44.60818" lon="3.94135">
        <ele>1194.58</ele>
        <time>2022-08-04T12:32:16Z</time>
      </trkpt>
      <trkpt lat="44.60815" lon="3.9416">
        <ele>1192.65</ele>
        <time>2022-08-04T12:32:32Z</time>
      </trkpt>
      <trkpt lat="44.60811" lon="3.9418">
        <ele>1193.13</ele>
        <time>2022-08-04T12:32:46Z</time>
      </trkpt>
      <trkpt lat="44.60806" lon="3.94202">
        <ele>1190.73</ele>
        <time>2022-08-04T12:33:01Z</time>
      </trkpt>
      <trkpt lat="44.60803" lon="3.94219">
        <ele>1190.25</ele>
        <time>2022-08-04T12:33:13Z</time>
      </trkpt>
      <trkpt lat="44.60799" lon="3.94243">
        <ele>1188.33</ele>
        <time>2022-08-04T12:33:29Z</time>
      </trkpt>
      <trkpt lat="44.60801" lon="3.94252">
        <ele>1186.88</ele>
        <time>2022-08-04T12:33:34Z</time>
      </trkpt>
      <trkpt lat="44.60799" lon="3.94275">
        <ele>1188.81</ele>
        <time>2022-08-04T12:33:49Z</time>
      </trkpt>
      <trkpt lat="44.60795" lon="3.94284">
        <ele>1188.81</ele>
        <time>2022-08-04T12:33:56Z</time>
      </trkpt>
      <trkpt lat="44.60788" lon="3.943">
        <ele>1186.4</ele>
        <time>2022-08-04T12:34:13Z</time>
      </trkpt>
      <trkpt lat="44.60783" lon="3.94315">
        <ele>1184.48</ele>
        <time>2022-08-04T12:34:26Z</time>
      </trkpt>
      <trkpt lat="44.60779" lon="3.94333">
        <ele>1180.16</ele>
        <time>2022-08-04T12:34:38Z</time>
      </trkpt>
      <trkpt lat="44.60771" lon="3.94355">
        <ele>1176.79</ele>
        <time>2022-08-04T12:34:53Z</time>
      </trkpt>
      <trkpt lat="44.60763" lon="3.9437">
        <ele>1170.54</ele>
        <time>2022-08-04T12:35:07Z</time>
      </trkpt>
      <trkpt lat="44.60763" lon="3.94375">
        <ele>1169.1</ele>
        <time>2022-08-04T12:35:11Z</time>
      </trkpt>
      <trkpt lat="44.60761" lon="3.94375">
        <ele>1165.26</ele>
        <time>2022-08-04T12:35:23Z</time>
      </trkpt>
      <trkpt lat="44.60764" lon="3.94389">
        <ele>1163.33</ele>
        <time>2022-08-04T12:35:34Z</time>
      </trkpt>
      <trkpt lat="44.60766" lon="3.94413">
        <ele>1162.85</ele>
        <time>2022-08-04T12:35:50Z</time>
      </trkpt>
      <trkpt lat="44.60766" lon="3.94416">
        <ele>1162.37</ele>
        <time>2022-08-04T12:35:52Z</time>
      </trkpt>
      <trkpt lat="44.60766" lon="3.94439">
        <ele>1161.89</ele>
        <time>2022-08-04T12:36:08Z</time>
      </trkpt>
      <trkpt lat="44.6076" lon="3.94464">
        <ele>1160.45</ele>
        <time>2022-08-04T12:36:26Z</time>
      </trkpt>
      <trkpt lat="44.60754" lon="3.94487">
        <ele>1159.49</ele>
        <time>2022-08-04T12:36:42Z</time>
      </trkpt>
      <trkpt lat="44.60752" lon="3.94497">
        <ele>1159.97</ele>
        <time>2022-08-04T12:36:49Z</time>
      </trkpt>
      <trkpt lat="44.60751" lon="3.94504">
        <ele>1159.97</ele>
        <time>2022-08-04T12:36:53Z</time>
      </trkpt>
      <trkpt lat="44.60743" lon="3.94528">
        <ele>1159.97</ele>
        <time>2022-08-04T12:37:09Z</time>
      </trkpt>
      <trkpt lat="44.6074" lon="3.9453">
        <ele>1161.89</ele>
        <time>2022-08-04T12:37:28Z</time>
      </trkpt>
      <trkpt lat="44.60738" lon="3.94528">
        <ele>1165.26</ele>
        <time>2022-08-04T12:37:45Z</time>
      </trkpt>
      <trkpt lat="44.60738" lon="3.94528">
        <ele>1166.22</ele>
        <time>2022-08-04T12:38:09Z</time>
      </trkpt>
      <trkpt lat="44.60738" lon="3.94527">
        <ele>1165.74</ele>
        <time>2022-08-04T12:38:36Z</time>
      </trkpt>
      <trkpt lat="44.60739" lon="3.9453">
        <ele>1163.81</ele>
        <time>2022-08-04T12:38:58Z</time>
      </trkpt>
      <trkpt lat="44.60738" lon="3.9453">
        <ele>1162.85</ele>
        <time>2022-08-04T12:39:20Z</time>
      </trkpt>
      <trkpt lat="44.60738" lon="3.94528">
        <ele>1164.29</ele>
        <time>2022-08-04T12:39:42Z</time>
      </trkpt>
      <trkpt lat="44.60736" lon="3.94536">
        <ele>1164.29</ele>
        <time>2022-08-04T12:39:54Z</time>
      </trkpt>
      <trkpt lat="44.60735" lon="3.94545">
        <ele>1163.33</ele>
        <time>2022-08-04T12:40:06Z</time>
      </trkpt>
      <trkpt lat="44.60733" lon="3.9455">
        <ele>1163.81</ele>
        <time>2022-08-04T12:40:11Z</time>
      </trkpt>
      <trkpt lat="44.60723" lon="3.94571">
        <ele>1163.33</ele>
        <time>2022-08-04T12:40:29Z</time>
      </trkpt>
      <trkpt lat="44.60719" lon="3.94581">
        <ele>1162.85</ele>
        <time>2022-08-04T12:40:36Z</time>
      </trkpt>
      <trkpt lat="44.60711" lon="3.94599">
        <ele>1161.41</ele>
        <time>2022-08-04T12:40:50Z</time>
      </trkpt>
      <trkpt lat="44.607" lon="3.94614">
        <ele>1160.45</ele>
        <time>2022-08-04T12:41:04Z</time>
      </trkpt>
      <trkpt lat="44.60698" lon="3.94619">
        <ele>1159.97</ele>
        <time>2022-08-04T12:41:08Z</time>
      </trkpt>
      <trkpt lat="44.60682" lon="3.94626">
        <ele>1160.45</ele>
        <time>2022-08-04T12:41:22Z</time>
      </trkpt>
      <trkpt lat="44.6067" lon="3.94621">
        <ele>1161.89</ele>
        <time>2022-08-04T12:41:35Z</time>
      </trkpt>
      <trkpt lat="44.60658" lon="3.94622">
        <ele>1161.41</ele>
        <time>2022-08-04T12:41:48Z</time>
      </trkpt>
      <trkpt lat="44.60658" lon="3.94622">
        <ele>1160.45</ele>
        <time>2022-08-04T12:41:55Z</time>
      </trkpt>
      <trkpt lat="44.6066" lon="3.94621">
        <ele>1159.49</ele>
        <time>2022-08-04T12:41:57Z</time>
      </trkpt>
      <trkpt lat="44.60657" lon="3.94618">
        <ele>1159.01</ele>
        <time>2022-08-04T12:42:02Z</time>
      </trkpt>
      <trkpt lat="44.60644" lon="3.94629">
        <ele>1156.6</ele>
        <time>2022-08-04T12:42:16Z</time>
      </trkpt>
      <trkpt lat="44.60629" lon="3.94644">
        <ele>1154.68</ele>
        <time>2022-08-04T12:42:32Z</time>
      </trkpt>
      <trkpt lat="44.60628" lon="3.94645">
        <ele>1154.68</ele>
        <time>2022-08-04T12:42:33Z</time>
      </trkpt>
      <trkpt lat="44.60622" lon="3.94649">
        <ele>1153.72</ele>
        <time>2022-08-04T12:42:40Z</time>
      </trkpt>
      <trkpt lat="44.60607" lon="3.94653">
        <ele>1151.8</ele>
        <time>2022-08-04T12:42:54Z</time>
      </trkpt>
      <trkpt lat="44.60589" lon="3.94656">
        <ele>1150.35</ele>
        <time>2022-08-04T12:43:09Z</time>
      </trkpt>
      <trkpt lat="44.60571" lon="3.94658">
        <ele>1148.91</ele>
        <time>2022-08-04T12:43:25Z</time>
      </trkpt>
      <trkpt lat="44.60566" lon="3.9466">
        <ele>1148.91</ele>
        <time>2022-08-04T12:43:30Z</time>
      </trkpt>
      <trkpt lat="44.60549" lon="3.9466">
        <ele>1147.95</ele>
        <time>2022-08-04T12:43:45Z</time>
      </trkpt>
      <trkpt lat="44.60531" lon="3.94657">
        <ele>1147.95</ele>
        <time>2022-08-04T12:44:00Z</time>
      </trkpt>
      <trkpt lat="44.60512" lon="3.94656">
        <ele>1146.51</ele>
        <time>2022-08-04T12:44:17Z</time>
      </trkpt>
      <trkpt lat="44.60495" lon="3.94656">
        <ele>1146.03</ele>
        <time>2022-08-04T12:44:32Z</time>
      </trkpt>
      <trkpt lat="44.60478" lon="3.9466">
        <ele>1144.11</ele>
        <time>2022-08-04T12:44:47Z</time>
      </trkpt>
      <trkpt lat="44.60465" lon="3.9466">
        <ele>1143.63</ele>
        <time>2022-08-04T12:44:59Z</time>
      </trkpt>
      <trkpt lat="44.60461" lon="3.94658">
        <ele>1143.63</ele>
        <time>2022-08-04T12:45:04Z</time>
      </trkpt>
      <trkpt lat="44.60455" lon="3.94638">
        <ele>1143.63</ele>
        <time>2022-08-04T12:45:21Z</time>
      </trkpt>
      <trkpt lat="44.60456" lon="3.94627">
        <ele>1142.66</ele>
        <time>2022-08-04T12:45:29Z</time>
      </trkpt>
      <trkpt lat="44.60471" lon="3.94612">
        <ele>1142.66</ele>
        <time>2022-08-04T12:45:46Z</time>
      </trkpt>
      <trkpt lat="44.60483" lon="3.94599">
        <ele>1143.14</ele>
        <time>2022-08-04T12:46:01Z</time>
      </trkpt>
      <trkpt lat="44.60495" lon="3.94593">
        <ele>1144.11</ele>
        <time>2022-08-04T12:46:14Z</time>
      </trkpt>
      <trkpt lat="44.60509" lon="3.94579">
        <ele>1144.11</ele>
        <time>2022-08-04T12:46:28Z</time>
      </trkpt>
      <trkpt lat="44.60521" lon="3.94562">
        <ele>1142.66</ele>
        <time>2022-08-04T12:46:42Z</time>
      </trkpt>
      <trkpt lat="44.60533" lon="3.94542">
        <ele>1141.22</ele>
        <time>2022-08-04T12:46:58Z</time>
      </trkpt>
      <trkpt lat="44.60541" lon="3.94524">
        <ele>1139.78</ele>
        <time>2022-08-04T12:47:11Z</time>
      </trkpt>
      <trkpt lat="44.60552" lon="3.94502">
        <ele>1138.82</ele>
        <time>2022-08-04T12:47:28Z</time>
      </trkpt>
      <trkpt lat="44.60558" lon="3.9448">
        <ele>1136.42</ele>
        <time>2022-08-04T12:47:43Z</time>
      </trkpt>
      <trkpt lat="44.60558" lon="3.94476">
        <ele>1135.94</ele>
        <time>2022-08-04T12:47:45Z</time>
      </trkpt>
      <trkpt lat="44.60561" lon="3.94454">
        <ele>1134.01</ele>
        <time>2022-08-04T12:47:59Z</time>
      </trkpt>
      <trkpt lat="44.60561" lon="3.94442">
        <ele>1132.09</ele>
        <time>2022-08-04T12:48:07Z</time>
      </trkpt>
      <trkpt lat="44.60563" lon="3.94424">
        <ele>1131.13</ele>
        <time>2022-08-04T12:48:19Z</time>
      </trkpt>
      <trkpt lat="44.60565" lon="3.94402">
        <ele>1130.17</ele>
        <time>2022-08-04T12:48:33Z</time>
      </trkpt>
      <trkpt lat="44.60565" lon="3.94377">
        <ele>1128.24</ele>
        <time>2022-08-04T12:48:49Z</time>
      </trkpt>
      <trkpt lat="44.60562" lon="3.94353">
        <ele>1125.36</ele>
        <time>2022-08-04T12:49:04Z</time>
      </trkpt>
      <trkpt lat="44.60561" lon="3.9433">
        <ele>1121.52</ele>
        <time>2022-08-04T12:49:19Z</time>
      </trkpt>
      <trkpt lat="44.60558" lon="3.94311">
        <ele>1117.67</ele>
        <time>2022-08-04T12:49:32Z</time>
      </trkpt>
      <trkpt lat="44.60556" lon="3.94302">
        <ele>1116.71</ele>
        <time>2022-08-04T12:49:38Z</time>
      </trkpt>
      <trkpt lat="44.60557" lon="3.94294">
        <ele>1117.67</ele>
        <time>2022-08-04T12:49:43Z</time>
      </trkpt>
      <trkpt lat="44.60557" lon="3.94269">
        <ele>1122.96</ele>
        <time>2022-08-04T12:50:00Z</time>
      </trkpt>
      <trkpt lat="44.60554" lon="3.9425">
        <ele>1124.88</ele>
        <time>2022-08-04T12:50:13Z</time>
      </trkpt>
      <trkpt lat="44.60551" lon="3.94223">
        <ele>1128.73</ele>
        <time>2022-08-04T12:50:32Z</time>
      </trkpt>
      <trkpt lat="44.60551" lon="3.94206">
        <ele>1131.61</ele>
        <time>2022-08-04T12:50:45Z</time>
      </trkpt>
      <trkpt lat="44.60552" lon="3.94203">
        <ele>1132.09</ele>
        <time>2022-08-04T12:50:47Z</time>
      </trkpt>
      <trkpt lat="44.6055" lon="3.94181">
        <ele>1135.94</ele>
        <time>2022-08-04T12:51:02Z</time>
      </trkpt>
      <trkpt lat="44.60551" lon="3.94164">
        <ele>1140.74</ele>
        <time>2022-08-04T12:51:16Z</time>
      </trkpt>
      <trkpt lat="44.60548" lon="3.94147">
        <ele>1142.66</ele>
        <time>2022-08-04T12:51:29Z</time>
      </trkpt>
      <trkpt lat="44.6054" lon="3.94131">
        <ele>1138.34</ele>
        <time>2022-08-04T12:51:43Z</time>
      </trkpt>
      <trkpt lat="44.6054" lon="3.94117">
        <ele>1137.86</ele>
        <time>2022-08-04T12:51:54Z</time>
      </trkpt>
      <trkpt lat="44.60537" lon="3.941">
        <ele>1138.82</ele>
        <time>2022-08-04T12:52:07Z</time>
      </trkpt>
      <trkpt lat="44.60533" lon="3.94081">
        <ele>1139.78</ele>
        <time>2022-08-04T12:52:19Z</time>
      </trkpt>
      <trkpt lat="44.60536" lon="3.94053">
        <ele>1139.3</ele>
        <time>2022-08-04T12:52:33Z</time>
      </trkpt>
      <trkpt lat="44.60535" lon="3.94036">
        <ele>1140.26</ele>
        <time>2022-08-04T12:52:44Z</time>
      </trkpt>
      <trkpt lat="44.60535" lon="3.94011">
        <ele>1140.26</ele>
        <time>2022-08-04T12:52:59Z</time>
      </trkpt>
      <trkpt lat="44.60535" lon="3.93988">
        <ele>1137.86</ele>
        <time>2022-08-04T12:53:13Z</time>
      </trkpt>
      <trkpt lat="44.6053" lon="3.93966">
        <ele>1135.94</ele>
        <time>2022-08-04T12:53:28Z</time>
      </trkpt>
      <trkpt lat="44.60529" lon="3.9395">
        <ele>1133.05</ele>
        <time>2022-08-04T12:53:39Z</time>
      </trkpt>
      <trkpt lat="44.60526" lon="3.93941">
        <ele>1131.13</ele>
        <time>2022-08-04T12:53:56Z</time>
      </trkpt>
      <trkpt lat="44.60525" lon="3.93924">
        <ele>1130.17</ele>
        <time>2022-08-04T12:54:08Z</time>
      </trkpt>
      <trkpt lat="44.60523" lon="3.93904">
        <ele>1129.69</ele>
        <time>2022-08-04T12:54:21Z</time>
      </trkpt>
      <trkpt lat="44.60518" lon="3.93884">
        <ele>1129.69</ele>
        <time>2022-08-04T12:54:36Z</time>
      </trkpt>
      <trkpt lat="44.60514" lon="3.93868">
        <ele>1129.69</ele>
        <time>2022-08-04T12:54:48Z</time>
      </trkpt>
      <trkpt lat="44.60509" lon="3.93851">
        <ele>1129.69</ele>
        <time>2022-08-04T12:54:59Z</time>
      </trkpt>
      <trkpt lat="44.60504" lon="3.93833">
        <ele>1129.69</ele>
        <time>2022-08-04T12:55:11Z</time>
      </trkpt>
      <trkpt lat="44.60499" lon="3.93815">
        <ele>1128.24</ele>
        <time>2022-08-04T12:55:25Z</time>
      </trkpt>
      <trkpt lat="44.60491" lon="3.93797">
        <ele>1126.8</ele>
        <time>2022-08-04T12:55:36Z</time>
      </trkpt>
      <trkpt lat="44.60482" lon="3.93777">
        <ele>1125.84</ele>
        <time>2022-08-04T12:55:50Z</time>
      </trkpt>
      <trkpt lat="44.60478" lon="3.93761">
        <ele>1128.24</ele>
        <time>2022-08-04T12:56:02Z</time>
      </trkpt>
      <trkpt lat="44.60471" lon="3.93741">
        <ele>1129.69</ele>
        <time>2022-08-04T12:56:17Z</time>
      </trkpt>
      <trkpt lat="44.60462" lon="3.9373">
        <ele>1128.73</ele>
        <time>2022-08-04T12:56:30Z</time>
      </trkpt>
      <trkpt lat="44.60442" lon="3.93712">
        <ele>1125.36</ele>
        <time>2022-08-04T12:56:44Z</time>
      </trkpt>
      <trkpt lat="44.60435" lon="3.93703">
        <ele>1124.88</ele>
        <time>2022-08-04T12:56:54Z</time>
      </trkpt>
      <trkpt lat="44.60424" lon="3.93684">
        <ele>1123.92</ele>
        <time>2022-08-04T12:57:08Z</time>
      </trkpt>
      <trkpt lat="44.60408" lon="3.93674">
        <ele>1116.71</ele>
        <time>2022-08-04T12:57:21Z</time>
      </trkpt>
      <trkpt lat="44.60396" lon="3.93666">
        <ele>1114.79</ele>
        <time>2022-08-04T12:57:34Z</time>
      </trkpt>
      <trkpt lat="44.60381" lon="3.93658">
        <ele>1111.9</ele>
        <time>2022-08-04T12:57:47Z</time>
      </trkpt>
      <trkpt lat="44.60366" lon="3.93649">
        <ele>1108.54</ele>
        <time>2022-08-04T12:58:01Z</time>
      </trkpt>
      <trkpt lat="44.60355" lon="3.93644">
        <ele>1106.61</ele>
        <time>2022-08-04T12:58:14Z</time>
      </trkpt>
      <trkpt lat="44.60342" lon="3.93633">
        <ele>1103.25</ele>
        <time>2022-08-04T12:58:27Z</time>
      </trkpt>
      <trkpt lat="44.60327" lon="3.93626">
        <ele>1102.77</ele>
        <time>2022-08-04T12:58:41Z</time>
      </trkpt>
      <trkpt lat="44.60314" lon="3.9362">
        <ele>1103.25</ele>
        <time>2022-08-04T12:58:53Z</time>
      </trkpt>
      <trkpt lat="44.60296" lon="3.93616">
        <ele>1102.77</ele>
        <time>2022-08-04T12:59:10Z</time>
      </trkpt>
      <trkpt lat="44.60285" lon="3.93614">
        <ele>1101.33</ele>
        <time>2022-08-04T12:59:23Z</time>
      </trkpt>
      <trkpt lat="44.6027" lon="3.93612">
        <ele>1098.92</ele>
        <time>2022-08-04T12:59:34Z</time>
      </trkpt>
      <trkpt lat="44.60255" lon="3.93608">
        <ele>1097</ele>
        <time>2022-08-04T12:59:45Z</time>
      </trkpt>
      <trkpt lat="44.6025" lon="3.93607">
        <ele>1096.52</ele>
        <time>2022-08-04T12:59:48Z</time>
      </trkpt>
      <trkpt lat="44.60231" lon="3.93603">
        <ele>1097</ele>
        <time>2022-08-04T13:00:04Z</time>
      </trkpt>
      <trkpt lat="44.60228" lon="3.93603">
        <ele>1097.48</ele>
        <time>2022-08-04T13:00:07Z</time>
      </trkpt>
      <trkpt lat="44.60212" lon="3.93611">
        <ele>1096.04</ele>
        <time>2022-08-04T13:00:24Z</time>
      </trkpt>
      <trkpt lat="44.60201" lon="3.93617">
        <ele>1093.64</ele>
        <time>2022-08-04T13:00:38Z</time>
      </trkpt>
      <trkpt lat="44.60197" lon="3.93622">
        <ele>1092.2</ele>
        <time>2022-08-04T13:00:50Z</time>
      </trkpt>
      <trkpt lat="44.60197" lon="3.93626">
        <ele>1092.2</ele>
        <time>2022-08-04T13:01:05Z</time>
      </trkpt>
      <trkpt lat="44.60196" lon="3.93626">
        <ele>1092.2</ele>
        <time>2022-08-04T13:01:23Z</time>
      </trkpt>
      <trkpt lat="44.60196" lon="3.93625">
        <ele>1094.12</ele>
        <time>2022-08-04T13:01:45Z</time>
      </trkpt>
      <trkpt lat="44.60183" lon="3.93629">
        <ele>1088.83</ele>
        <time>2022-08-04T13:02:00Z</time>
      </trkpt>
      <trkpt lat="44.60176" lon="3.93629">
        <ele>1087.87</ele>
        <time>2022-08-04T13:02:17Z</time>
      </trkpt>
      <trkpt lat="44.60178" lon="3.9363">
        <ele>1087.87</ele>
        <time>2022-08-04T13:02:38Z</time>
      </trkpt>
      <trkpt lat="44.60178" lon="3.93634">
        <ele>1086.43</ele>
        <time>2022-08-04T13:02:52Z</time>
      </trkpt>
      <trkpt lat="44.60177" lon="3.9364">
        <ele>1086.43</ele>
        <time>2022-08-04T13:03:23Z</time>
      </trkpt>
      <trkpt lat="44.60182" lon="3.93644">
        <ele>1090.27</ele>
        <time>2022-08-04T13:04:02Z</time>
      </trkpt>
      <trkpt lat="44.60175" lon="3.93643">
        <ele>1088.83</ele>
        <time>2022-08-04T13:04:40Z</time>
      </trkpt>
      <trkpt lat="44.6017" lon="3.93641">
        <ele>1084.02</ele>
        <time>2022-08-04T13:05:15Z</time>
      </trkpt>
      <trkpt lat="44.60172" lon="3.93642">
        <ele>1084.99</ele>
        <time>2022-08-04T13:05:57Z</time>
      </trkpt>
      <trkpt lat="44.60173" lon="3.93641">
        <ele>1080.66</ele>
        <time>2022-08-04T13:06:35Z</time>
      </trkpt>
      <trkpt lat="44.60173" lon="3.93648">
        <ele>1080.66</ele>
        <time>2022-08-04T13:07:11Z</time>
      </trkpt>
      <trkpt lat="44.60171" lon="3.93647">
        <ele>1082.58</ele>
        <time>2022-08-04T13:07:45Z</time>
      </trkpt>
      <trkpt lat="44.60171" lon="3.93644">
        <ele>1085.95</ele>
        <time>2022-08-04T13:08:27Z</time>
      </trkpt>
      <trkpt lat="44.60168" lon="3.93638">
        <ele>1084.5</ele>
        <time>2022-08-04T13:09:00Z</time>
      </trkpt>
      <trkpt lat="44.60168" lon="3.93635">
        <ele>1085.47</ele>
        <time>2022-08-04T13:09:39Z</time>
      </trkpt>
      <trkpt lat="44.60169" lon="3.93638">
        <ele>1084.5</ele>
        <time>2022-08-04T13:10:08Z</time>
      </trkpt>
      <trkpt lat="44.60167" lon="3.93634">
        <ele>1086.91</ele>
        <time>2022-08-04T13:10:48Z</time>
      </trkpt>
      <trkpt lat="44.60174" lon="3.93641">
        <ele>1088.35</ele>
        <time>2022-08-04T13:11:25Z</time>
      </trkpt>
      <trkpt lat="44.60173" lon="3.93644">
        <ele>1089.79</ele>
        <time>2022-08-04T13:12:05Z</time>
      </trkpt>
      <trkpt lat="44.60172" lon="3.93641">
        <ele>1088.83</ele>
        <time>2022-08-04T13:12:43Z</time>
      </trkpt>
      <trkpt lat="44.60168" lon="3.93646">
        <ele>1085.47</ele>
        <time>2022-08-04T13:13:12Z</time>
      </trkpt>
      <trkpt lat="44.60168" lon="3.93643">
        <ele>1084.5</ele>
        <time>2022-08-04T13:13:46Z</time>
      </trkpt>
      <trkpt lat="44.60169" lon="3.93645">
        <ele>1085.47</ele>
        <time>2022-08-04T13:14:17Z</time>
      </trkpt>
      <trkpt lat="44.6017" lon="3.93648">
        <ele>1089.31</ele>
        <time>2022-08-04T13:14:55Z</time>
      </trkpt>
      <trkpt lat="44.6017" lon="3.93652">
        <ele>1090.75</ele>
        <time>2022-08-04T13:15:26Z</time>
      </trkpt>
      <trkpt lat="44.60169" lon="3.93645">
        <ele>1091.71</ele>
        <time>2022-08-04T13:16:04Z</time>
      </trkpt>
      <trkpt lat="44.60173" lon="3.93644">
        <ele>1092.68</ele>
        <time>2022-08-04T13:16:35Z</time>
      </trkpt>
      <trkpt lat="44.60167" lon="3.93641">
        <ele>1099.4</ele>
        <time>2022-08-04T13:17:13Z</time>
      </trkpt>
      <trkpt lat="44.60175" lon="3.9364">
        <ele>1097.96</ele>
        <time>2022-08-04T13:17:44Z</time>
      </trkpt>
      <trkpt lat="44.60175" lon="3.93638">
        <ele>1093.64</ele>
        <time>2022-08-04T13:18:20Z</time>
      </trkpt>
      <trkpt lat="44.60179" lon="3.93639">
        <ele>1091.23</ele>
        <time>2022-08-04T13:18:36Z</time>
      </trkpt>
      <trkpt lat="44.6018" lon="3.93636">
        <ele>1091.71</ele>
        <time>2022-08-04T13:19:08Z</time>
      </trkpt>
      <trkpt lat="44.60184" lon="3.93638">
        <ele>1093.64</ele>
        <time>2022-08-04T13:19:28Z</time>
      </trkpt>
      <trkpt lat="44.6019" lon="3.93641">
        <ele>1084.99</ele>
        <time>2022-08-04T13:19:44Z</time>
      </trkpt>
      <trkpt lat="44.60191" lon="3.93641">
        <ele>1085.95</ele>
        <time>2022-08-04T13:19:45Z</time>
      </trkpt>
      <trkpt lat="44.60198" lon="3.93639">
        <ele>1090.27</ele>
        <time>2022-08-04T13:19:58Z</time>
      </trkpt>
      <trkpt lat="44.60201" lon="3.93631">
        <ele>1094.6</ele>
        <time>2022-08-04T13:20:19Z</time>
      </trkpt>
      <trkpt lat="44.60194" lon="3.93629">
        <ele>1093.64</ele>
        <time>2022-08-04T13:20:28Z</time>
      </trkpt>
      <trkpt lat="44.60188" lon="3.93627">
        <ele>1093.64</ele>
        <time>2022-08-04T13:20:33Z</time>
      </trkpt>
      <trkpt lat="44.60177" lon="3.93623">
        <ele>1091.23</ele>
        <time>2022-08-04T13:20:44Z</time>
      </trkpt>
      <trkpt lat="44.60163" lon="3.93619">
        <ele>1087.39</ele>
        <time>2022-08-04T13:20:58Z</time>
      </trkpt>
      <trkpt lat="44.60149" lon="3.93619">
        <ele>1085.47</ele>
        <time>2022-08-04T13:21:13Z</time>
      </trkpt>
      <trkpt lat="44.60139" lon="3.93618">
        <ele>1085.95</ele>
        <time>2022-08-04T13:21:27Z</time>
      </trkpt>
      <trkpt lat="44.60128" lon="3.93614">
        <ele>1086.91</ele>
        <time>2022-08-04T13:21:39Z</time>
      </trkpt>
      <trkpt lat="44.60115" lon="3.9361">
        <ele>1085.95</ele>
        <time>2022-08-04T13:21:51Z</time>
      </trkpt>
      <trkpt lat="44.60107" lon="3.93618">
        <ele>1083.06</ele>
        <time>2022-08-04T13:22:05Z</time>
      </trkpt>
      <trkpt lat="44.60107" lon="3.93627">
        <ele>1084.5</ele>
        <time>2022-08-04T13:22:17Z</time>
      </trkpt>
      <trkpt lat="44.60107" lon="3.93637">
        <ele>1084.02</ele>
        <time>2022-08-04T13:22:46Z</time>
      </trkpt>
      <trkpt lat="44.6011" lon="3.93639">
        <ele>1084.99</ele>
        <time>2022-08-04T13:23:07Z</time>
      </trkpt>
      <trkpt lat="44.60106" lon="3.93629">
        <ele>1084.99</ele>
        <time>2022-08-04T13:23:20Z</time>
      </trkpt>
      <trkpt lat="44.60105" lon="3.93627">
        <ele>1084.99</ele>
        <time>2022-08-04T13:23:21Z</time>
      </trkpt>
      <trkpt lat="44.60102" lon="3.93623">
        <ele>1084.99</ele>
        <time>2022-08-04T13:23:24Z</time>
      </trkpt>
      <trkpt lat="44.60097" lon="3.93612">
        <ele>1084.02</ele>
        <time>2022-08-04T13:23:31Z</time>
      </trkpt>
      <trkpt lat="44.60094" lon="3.93607">
        <ele>1084.02</ele>
        <time>2022-08-04T13:23:35Z</time>
      </trkpt>
      <trkpt lat="44.60082" lon="3.93585">
        <ele>1084.02</ele>
        <time>2022-08-04T13:23:51Z</time>
      </trkpt>
      <trkpt lat="44.6008" lon="3.93582">
        <ele>1084.02</ele>
        <time>2022-08-04T13:23:54Z</time>
      </trkpt>
      <trkpt lat="44.6007" lon="3.93562">
        <ele>1086.43</ele>
        <time>2022-08-04T13:24:11Z</time>
      </trkpt>
      <trkpt lat="44.60059" lon="3.93544">
        <ele>1088.35</ele>
        <time>2022-08-04T13:24:27Z</time>
      </trkpt>
      <trkpt lat="44.60051" lon="3.93528">
        <ele>1089.31</ele>
        <time>2022-08-04T13:24:42Z</time>
      </trkpt>
      <trkpt lat="44.60036" lon="3.93505">
        <ele>1090.75</ele>
        <time>2022-08-04T13:25:00Z</time>
      </trkpt>
      <trkpt lat="44.60023" lon="3.93491">
        <ele>1091.23</ele>
        <time>2022-08-04T13:25:14Z</time>
      </trkpt>
      <trkpt lat="44.60012" lon="3.93474">
        <ele>1092.2</ele>
        <time>2022-08-04T13:25:31Z</time>
      </trkpt>
      <trkpt lat="44.59999" lon="3.93458">
        <ele>1090.75</ele>
        <time>2022-08-04T13:25:46Z</time>
      </trkpt>
      <trkpt lat="44.59997" lon="3.93454">
        <ele>1090.75</ele>
        <time>2022-08-04T13:25:49Z</time>
      </trkpt>
      <trkpt lat="44.59991" lon="3.93435">
        <ele>1092.2</ele>
        <time>2022-08-04T13:26:04Z</time>
      </trkpt>
      <trkpt lat="44.59986" lon="3.93421">
        <ele>1092.68</ele>
        <time>2022-08-04T13:26:16Z</time>
      </trkpt>
      <trkpt lat="44.59982" lon="3.93414">
        <ele>1093.16</ele>
        <time>2022-08-04T13:26:22Z</time>
      </trkpt>
      <trkpt lat="44.59977" lon="3.93402">
        <ele>1094.12</ele>
        <time>2022-08-04T13:26:31Z</time>
      </trkpt>
      <trkpt lat="44.59976" lon="3.93398">
        <ele>1094.6</ele>
        <time>2022-08-04T13:26:34Z</time>
      </trkpt>
      <trkpt lat="44.59973" lon="3.93394">
        <ele>1095.56</ele>
        <time>2022-08-04T13:26:50Z</time>
      </trkpt>
      <trkpt lat="44.59971" lon="3.93384">
        <ele>1096.52</ele>
        <time>2022-08-04T13:27:11Z</time>
      </trkpt>
      <trkpt lat="44.5997" lon="3.9338">
        <ele>1096.52</ele>
        <time>2022-08-04T13:27:14Z</time>
      </trkpt>
      <trkpt lat="44.59965" lon="3.9337">
        <ele>1095.56</ele>
        <time>2022-08-04T13:27:22Z</time>
      </trkpt>
      <trkpt lat="44.59965" lon="3.93365">
        <ele>1094.12</ele>
        <time>2022-08-04T13:27:26Z</time>
      </trkpt>
      <trkpt lat="44.59963" lon="3.9336">
        <ele>1093.16</ele>
        <time>2022-08-04T13:27:30Z</time>
      </trkpt>
      <trkpt lat="44.59957" lon="3.93336">
        <ele>1092.2</ele>
        <time>2022-08-04T13:27:48Z</time>
      </trkpt>
      <trkpt lat="44.59957" lon="3.93329">
        <ele>1092.2</ele>
        <time>2022-08-04T13:27:53Z</time>
      </trkpt>
      <trkpt lat="44.59957" lon="3.93323">
        <ele>1091.71</ele>
        <time>2022-08-04T13:27:57Z</time>
      </trkpt>
      <trkpt lat="44.59959" lon="3.93296">
        <ele>1093.16</ele>
        <time>2022-08-04T13:28:15Z</time>
      </trkpt>
      <trkpt lat="44.59962" lon="3.93271">
        <ele>1093.64</ele>
        <time>2022-08-04T13:28:31Z</time>
      </trkpt>
      <trkpt lat="44.59965" lon="3.93246">
        <ele>1092.2</ele>
        <time>2022-08-04T13:28:48Z</time>
      </trkpt>
      <trkpt lat="44.59965" lon="3.93245">
        <ele>1092.2</ele>
        <time>2022-08-04T13:28:49Z</time>
      </trkpt>
      <trkpt lat="44.59966" lon="3.93218">
        <ele>1090.75</ele>
        <time>2022-08-04T13:29:06Z</time>
      </trkpt>
      <trkpt lat="44.59964" lon="3.93194">
        <ele>1089.31</ele>
        <time>2022-08-04T13:29:22Z</time>
      </trkpt>
      <trkpt lat="44.59962" lon="3.93181">
        <ele>1089.79</ele>
        <time>2022-08-04T13:29:31Z</time>
      </trkpt>
      <trkpt lat="44.59958" lon="3.93153">
        <ele>1089.31</ele>
        <time>2022-08-04T13:29:47Z</time>
      </trkpt>
      <trkpt lat="44.59955" lon="3.93129">
        <ele>1089.31</ele>
        <time>2022-08-04T13:30:02Z</time>
      </trkpt>
      <trkpt lat="44.59952" lon="3.93108">
        <ele>1087.87</ele>
        <time>2022-08-04T13:30:17Z</time>
      </trkpt>
      <trkpt lat="44.5995" lon="3.9308">
        <ele>1087.87</ele>
        <time>2022-08-04T13:30:35Z</time>
      </trkpt>
      <trkpt lat="44.59947" lon="3.93059">
        <ele>1087.87</ele>
        <time>2022-08-04T13:30:49Z</time>
      </trkpt>
      <trkpt lat="44.59946" lon="3.93036">
        <ele>1086.91</ele>
        <time>2022-08-04T13:31:06Z</time>
      </trkpt>
      <trkpt lat="44.59945" lon="3.93012">
        <ele>1088.83</ele>
        <time>2022-08-04T13:31:20Z</time>
      </trkpt>
      <trkpt lat="44.59944" lon="3.93006">
        <ele>1088.83</ele>
        <time>2022-08-04T13:31:24Z</time>
      </trkpt>
      <trkpt lat="44.59936" lon="3.92984">
        <ele>1089.31</ele>
        <time>2022-08-04T13:31:40Z</time>
      </trkpt>
      <trkpt lat="44.59924" lon="3.92971">
        <ele>1090.75</ele>
        <time>2022-08-04T13:31:53Z</time>
      </trkpt>
      <trkpt lat="44.59909" lon="3.92963">
        <ele>1091.23</ele>
        <time>2022-08-04T13:32:07Z</time>
      </trkpt>
      <trkpt lat="44.59891" lon="3.92955">
        <ele>1089.31</ele>
        <time>2022-08-04T13:32:24Z</time>
      </trkpt>
      <trkpt lat="44.59873" lon="3.92943">
        <ele>1087.87</ele>
        <time>2022-08-04T13:32:42Z</time>
      </trkpt>
      <trkpt lat="44.59872" lon="3.92942">
        <ele>1087.87</ele>
        <time>2022-08-04T13:32:43Z</time>
      </trkpt>
      <trkpt lat="44.59856" lon="3.92931">
        <ele>1088.83</ele>
        <time>2022-08-04T13:32:59Z</time>
      </trkpt>
      <trkpt lat="44.59846" lon="3.92921">
        <ele>1088.83</ele>
        <time>2022-08-04T13:33:10Z</time>
      </trkpt>
      <trkpt lat="44.59834" lon="3.92904">
        <ele>1087.39</ele>
        <time>2022-08-04T13:33:26Z</time>
      </trkpt>
      <trkpt lat="44.59824" lon="3.92886">
        <ele>1086.43</ele>
        <time>2022-08-04T13:33:41Z</time>
      </trkpt>
      <trkpt lat="44.59822" lon="3.92879">
        <ele>1086.43</ele>
        <time>2022-08-04T13:33:46Z</time>
      </trkpt>
      <trkpt lat="44.5982" lon="3.92867">
        <ele>1086.43</ele>
        <time>2022-08-04T13:33:54Z</time>
      </trkpt>
      <trkpt lat="44.59817" lon="3.92841">
        <ele>1086.91</ele>
        <time>2022-08-04T13:34:11Z</time>
      </trkpt>
      <trkpt lat="44.59817" lon="3.9284">
        <ele>1086.91</ele>
        <time>2022-08-04T13:34:12Z</time>
      </trkpt>
      <trkpt lat="44.59818" lon="3.92814">
        <ele>1088.83</ele>
        <time>2022-08-04T13:34:29Z</time>
      </trkpt>
      <trkpt lat="44.59819" lon="3.92794">
        <ele>1089.31</ele>
        <time>2022-08-04T13:34:42Z</time>
      </trkpt>
      <trkpt lat="44.59821" lon="3.92767">
        <ele>1088.83</ele>
        <time>2022-08-04T13:34:59Z</time>
      </trkpt>
      <trkpt lat="44.59823" lon="3.92744">
        <ele>1088.35</ele>
        <time>2022-08-04T13:35:14Z</time>
      </trkpt>
      <trkpt lat="44.59827" lon="3.92723">
        <ele>1088.83</ele>
        <time>2022-08-04T13:35:28Z</time>
      </trkpt>
      <trkpt lat="44.59837" lon="3.92699">
        <ele>1089.31</ele>
        <time>2022-08-04T13:35:46Z</time>
      </trkpt>
      <trkpt lat="44.59844" lon="3.92671">
        <ele>1087.87</ele>
        <time>2022-08-04T13:36:04Z</time>
      </trkpt>
      <trkpt lat="44.59846" lon="3.92652">
        <ele>1087.87</ele>
        <time>2022-08-04T13:36:16Z</time>
      </trkpt>
      <trkpt lat="44.5984" lon="3.92633">
        <ele>1087.39</ele>
        <time>2022-08-04T13:36:30Z</time>
      </trkpt>
      <trkpt lat="44.59825" lon="3.92618">
        <ele>1084.99</ele>
        <time>2022-08-04T13:36:45Z</time>
      </trkpt>
      <trkpt lat="44.59808" lon="3.9261">
        <ele>1083.06</ele>
        <time>2022-08-04T13:36:59Z</time>
      </trkpt>
      <trkpt lat="44.59792" lon="3.92599">
        <ele>1083.06</ele>
        <time>2022-08-04T13:37:14Z</time>
      </trkpt>
      <trkpt lat="44.59779" lon="3.92587">
        <ele>1080.66</ele>
        <time>2022-08-04T13:37:29Z</time>
      </trkpt>
      <trkpt lat="44.59767" lon="3.92569">
        <ele>1077.29</ele>
        <time>2022-08-04T13:37:46Z</time>
      </trkpt>
      <trkpt lat="44.59759" lon="3.9255">
        <ele>1076.33</ele>
        <time>2022-08-04T13:38:02Z</time>
      </trkpt>
      <trkpt lat="44.59754" lon="3.92531">
        <ele>1081.14</ele>
        <time>2022-08-04T13:38:17Z</time>
      </trkpt>
      <trkpt lat="44.59745" lon="3.92509">
        <ele>1081.14</ele>
        <time>2022-08-04T13:38:31Z</time>
      </trkpt>
      <trkpt lat="44.5974" lon="3.92484">
        <ele>1080.66</ele>
        <time>2022-08-04T13:38:50Z</time>
      </trkpt>
      <trkpt lat="44.59737" lon="3.92458">
        <ele>1078.74</ele>
        <time>2022-08-04T13:39:06Z</time>
      </trkpt>
      <trkpt lat="44.59729" lon="3.92429">
        <ele>1076.81</ele>
        <time>2022-08-04T13:39:23Z</time>
      </trkpt>
      <trkpt lat="44.59719" lon="3.92397">
        <ele>1074.89</ele>
        <time>2022-08-04T13:39:39Z</time>
      </trkpt>
      <trkpt lat="44.59709" lon="3.9237">
        <ele>1073.93</ele>
        <time>2022-08-04T13:39:55Z</time>
      </trkpt>
      <trkpt lat="44.59697" lon="3.92348">
        <ele>1072.01</ele>
        <time>2022-08-04T13:40:12Z</time>
      </trkpt>
      <trkpt lat="44.59687" lon="3.92326">
        <ele>1066.72</ele>
        <time>2022-08-04T13:40:29Z</time>
      </trkpt>
      <trkpt lat="44.5968" lon="3.92314">
        <ele>1063.84</ele>
        <time>2022-08-04T13:40:42Z</time>
      </trkpt>
      <trkpt lat="44.59671" lon="3.92294">
        <ele>1063.36</ele>
        <time>2022-08-04T13:40:57Z</time>
      </trkpt>
      <trkpt lat="44.59666" lon="3.92266">
        <ele>1067.68</ele>
        <time>2022-08-04T13:41:12Z</time>
      </trkpt>
      <trkpt lat="44.59662" lon="3.92251">
        <ele>1072.01</ele>
        <time>2022-08-04T13:41:21Z</time>
      </trkpt>
      <trkpt lat="44.59662" lon="3.92229">
        <ele>1074.41</ele>
        <time>2022-08-04T13:41:36Z</time>
      </trkpt>
      <trkpt lat="44.59663" lon="3.92219">
        <ele>1072.01</ele>
        <time>2022-08-04T13:41:41Z</time>
      </trkpt>
      <trkpt lat="44.59677" lon="3.92203">
        <ele>1066.72</ele>
        <time>2022-08-04T13:41:56Z</time>
      </trkpt>
      <trkpt lat="44.59692" lon="3.92196">
        <ele>1062.39</ele>
        <time>2022-08-04T13:42:11Z</time>
      </trkpt>
      <trkpt lat="44.59711" lon="3.92194">
        <ele>1062.39</ele>
        <time>2022-08-04T13:42:28Z</time>
      </trkpt>
      <trkpt lat="44.59728" lon="3.92193">
        <ele>1063.36</ele>
        <time>2022-08-04T13:42:44Z</time>
      </trkpt>
      <trkpt lat="44.59745" lon="3.92183">
        <ele>1059.51</ele>
        <time>2022-08-04T13:42:58Z</time>
      </trkpt>
      <trkpt lat="44.5975" lon="3.92172">
        <ele>1058.07</ele>
        <time>2022-08-04T13:43:05Z</time>
      </trkpt>
      <trkpt lat="44.59744" lon="3.92164">
        <ele>1056.15</ele>
        <time>2022-08-04T13:43:10Z</time>
      </trkpt>
      <trkpt lat="44.59724" lon="3.92162">
        <ele>1053.26</ele>
        <time>2022-08-04T13:43:26Z</time>
      </trkpt>
      <trkpt lat="44.59707" lon="3.92162">
        <ele>1050.38</ele>
        <time>2022-08-04T13:43:41Z</time>
      </trkpt>
      <trkpt lat="44.5969" lon="3.92162">
        <ele>1048.45</ele>
        <time>2022-08-04T13:43:56Z</time>
      </trkpt>
      <trkpt lat="44.59672" lon="3.92165">
        <ele>1047.01</ele>
        <time>2022-08-04T13:44:11Z</time>
      </trkpt>
      <trkpt lat="44.59654" lon="3.92167">
        <ele>1045.09</ele>
        <time>2022-08-04T13:44:27Z</time>
      </trkpt>
      <trkpt lat="44.59638" lon="3.92164">
        <ele>1044.13</ele>
        <time>2022-08-04T13:44:41Z</time>
      </trkpt>
      <trkpt lat="44.59621" lon="3.9216">
        <ele>1043.65</ele>
        <time>2022-08-04T13:44:56Z</time>
      </trkpt>
      <trkpt lat="44.59604" lon="3.92147">
        <ele>1042.69</ele>
        <time>2022-08-04T13:45:13Z</time>
      </trkpt>
      <trkpt lat="44.59595" lon="3.92129">
        <ele>1043.65</ele>
        <time>2022-08-04T13:45:28Z</time>
      </trkpt>
      <trkpt lat="44.59594" lon="3.92127">
        <ele>1044.13</ele>
        <time>2022-08-04T13:45:30Z</time>
      </trkpt>
      <trkpt lat="44.59588" lon="3.92105">
        <ele>1047.01</ele>
        <time>2022-08-04T13:45:46Z</time>
      </trkpt>
      <trkpt lat="44.59585" lon="3.92084">
        <ele>1048.45</ele>
        <time>2022-08-04T13:46:01Z</time>
      </trkpt>
      <trkpt lat="44.59587" lon="3.92062">
        <ele>1049.42</ele>
        <time>2022-08-04T13:46:16Z</time>
      </trkpt>
      <trkpt lat="44.59594" lon="3.92038">
        <ele>1051.34</ele>
        <time>2022-08-04T13:46:34Z</time>
      </trkpt>
      <trkpt lat="44.59598" lon="3.92014">
        <ele>1052.78</ele>
        <time>2022-08-04T13:46:51Z</time>
      </trkpt>
      <trkpt lat="44.59602" lon="3.91989">
        <ele>1054.7</ele>
        <time>2022-08-04T13:47:08Z</time>
      </trkpt>
      <trkpt lat="44.59609" lon="3.91963">
        <ele>1056.63</ele>
        <time>2022-08-04T13:47:27Z</time>
      </trkpt>
      <trkpt lat="44.59615" lon="3.91942">
        <ele>1057.11</ele>
        <time>2022-08-04T13:47:43Z</time>
      </trkpt>
      <trkpt lat="44.5962" lon="3.9193">
        <ele>1058.55</ele>
        <time>2022-08-04T13:47:52Z</time>
      </trkpt>
      <trkpt lat="44.59626" lon="3.91921">
        <ele>1059.03</ele>
        <time>2022-08-04T13:48:00Z</time>
      </trkpt>
      <trkpt lat="44.5964" lon="3.91908">
        <ele>1059.99</ele>
        <time>2022-08-04T13:48:18Z</time>
      </trkpt>
      <trkpt lat="44.59641" lon="3.91908">
        <ele>1059.99</ele>
        <time>2022-08-04T13:48:19Z</time>
      </trkpt>
      <trkpt lat="44.59654" lon="3.91896">
        <ele>1061.43</ele>
        <time>2022-08-04T13:48:35Z</time>
      </trkpt>
      <trkpt lat="44.59656" lon="3.91894">
        <ele>1061.43</ele>
        <time>2022-08-04T13:48:37Z</time>
      </trkpt>
      <trkpt lat="44.59667" lon="3.9187">
        <ele>1062.87</ele>
        <time>2022-08-04T13:48:56Z</time>
      </trkpt>
      <trkpt lat="44.59673" lon="3.9185">
        <ele>1062.87</ele>
        <time>2022-08-04T13:49:10Z</time>
      </trkpt>
      <trkpt lat="44.59678" lon="3.91828">
        <ele>1062.87</ele>
        <time>2022-08-04T13:49:25Z</time>
      </trkpt>
      <trkpt lat="44.59682" lon="3.91806">
        <ele>1062.87</ele>
        <time>2022-08-04T13:49:39Z</time>
      </trkpt>
      <trkpt lat="44.59685" lon="3.91798">
        <ele>1062.39</ele>
        <time>2022-08-04T13:49:51Z</time>
      </trkpt>
      <trkpt lat="44.59686" lon="3.91796">
        <ele>1062.39</ele>
        <time>2022-08-04T13:50:08Z</time>
      </trkpt>
      <trkpt lat="44.59686" lon="3.91795">
        <ele>1062.39</ele>
        <time>2022-08-04T13:50:09Z</time>
      </trkpt>
      <trkpt lat="44.59687" lon="3.91789">
        <ele>1061.43</ele>
        <time>2022-08-04T13:50:13Z</time>
      </trkpt>
      <trkpt lat="44.59697" lon="3.91769">
        <ele>1061.91</ele>
        <time>2022-08-04T13:50:28Z</time>
      </trkpt>
      <trkpt lat="44.59708" lon="3.9175">
        <ele>1061.91</ele>
        <time>2022-08-04T13:50:44Z</time>
      </trkpt>
      <trkpt lat="44.59722" lon="3.91732">
        <ele>1062.39</ele>
        <time>2022-08-04T13:51:00Z</time>
      </trkpt>
      <trkpt lat="44.59741" lon="3.91719">
        <ele>1062.87</ele>
        <time>2022-08-04T13:51:19Z</time>
      </trkpt>
      <trkpt lat="44.5976" lon="3.91713">
        <ele>1063.36</ele>
        <time>2022-08-04T13:51:37Z</time>
      </trkpt>
      <trkpt lat="44.59773" lon="3.91712">
        <ele>1065.76</ele>
        <time>2022-08-04T13:51:51Z</time>
      </trkpt>
      <trkpt lat="44.59794" lon="3.91711">
        <ele>1069.12</ele>
        <time>2022-08-04T13:52:09Z</time>
      </trkpt>
      <trkpt lat="44.59813" lon="3.91708">
        <ele>1067.68</ele>
        <time>2022-08-04T13:52:26Z</time>
      </trkpt>
      <trkpt lat="44.59829" lon="3.91708">
        <ele>1067.2</ele>
        <time>2022-08-04T13:52:41Z</time>
      </trkpt>
      <trkpt lat="44.59845" lon="3.91708">
        <ele>1067.2</ele>
        <time>2022-08-04T13:52:55Z</time>
      </trkpt>
      <trkpt lat="44.59863" lon="3.91708">
        <ele>1068.16</ele>
        <time>2022-08-04T13:53:12Z</time>
      </trkpt>
      <trkpt lat="44.59882" lon="3.91712">
        <ele>1070.08</ele>
        <time>2022-08-04T13:53:30Z</time>
      </trkpt>
      <trkpt lat="44.59896" lon="3.91717">
        <ele>1072.97</ele>
        <time>2022-08-04T13:53:46Z</time>
      </trkpt>
      <trkpt lat="44.5991" lon="3.91716">
        <ele>1074.89</ele>
        <time>2022-08-04T13:54:00Z</time>
      </trkpt>
      <trkpt lat="44.59915" lon="3.91714">
        <ele>1074.89</ele>
        <time>2022-08-04T13:54:06Z</time>
      </trkpt>
      <trkpt lat="44.59929" lon="3.91703">
        <ele>1075.85</ele>
        <time>2022-08-04T13:54:24Z</time>
      </trkpt>
      <trkpt lat="44.59931" lon="3.91699">
        <ele>1076.33</ele>
        <time>2022-08-04T13:54:27Z</time>
      </trkpt>
      <trkpt lat="44.5993" lon="3.91667">
        <ele>1080.18</ele>
        <time>2022-08-04T13:54:41Z</time>
      </trkpt>
      <trkpt lat="44.59927" lon="3.91641">
        <ele>1083.54</ele>
        <time>2022-08-04T13:54:56Z</time>
      </trkpt>
      <trkpt lat="44.59928" lon="3.91639">
        <ele>1083.54</ele>
        <time>2022-08-04T13:54:57Z</time>
      </trkpt>
      <trkpt lat="44.59927" lon="3.91616">
        <ele>1082.1</ele>
        <time>2022-08-04T13:55:12Z</time>
      </trkpt>
      <trkpt lat="44.5992" lon="3.91591">
        <ele>1080.18</ele>
        <time>2022-08-04T13:55:29Z</time>
      </trkpt>
      <trkpt lat="44.59913" lon="3.91576">
        <ele>1082.1</ele>
        <time>2022-08-04T13:55:40Z</time>
      </trkpt>
      <trkpt lat="44.59902" lon="3.9156">
        <ele>1080.66</ele>
        <time>2022-08-04T13:55:55Z</time>
      </trkpt>
      <trkpt lat="44.59893" lon="3.91546">
        <ele>1079.7</ele>
        <time>2022-08-04T13:56:10Z</time>
      </trkpt>
      <trkpt lat="44.59886" lon="3.91528">
        <ele>1082.1</ele>
        <time>2022-08-04T13:56:28Z</time>
      </trkpt>
      <trkpt lat="44.59879" lon="3.91504">
        <ele>1084.99</ele>
        <time>2022-08-04T13:56:47Z</time>
      </trkpt>
      <trkpt lat="44.59867" lon="3.91481">
        <ele>1087.39</ele>
        <time>2022-08-04T13:57:04Z</time>
      </trkpt>
      <trkpt lat="44.59849" lon="3.91462">
        <ele>1087.87</ele>
        <time>2022-08-04T13:57:20Z</time>
      </trkpt>
      <trkpt lat="44.59844" lon="3.91454">
        <ele>1088.35</ele>
        <time>2022-08-04T13:57:24Z</time>
      </trkpt>
      <trkpt lat="44.5984" lon="3.91449">
        <ele>1089.79</ele>
        <time>2022-08-04T13:57:28Z</time>
      </trkpt>
      <trkpt lat="44.59832" lon="3.91433">
        <ele>1090.75</ele>
        <time>2022-08-04T13:57:43Z</time>
      </trkpt>
      <trkpt lat="44.59829" lon="3.91411">
        <ele>1089.79</ele>
        <time>2022-08-04T13:58:00Z</time>
      </trkpt>
      <trkpt lat="44.59822" lon="3.91392">
        <ele>1088.35</ele>
        <time>2022-08-04T13:58:13Z</time>
      </trkpt>
      <trkpt lat="44.59822" lon="3.9139">
        <ele>1087.87</ele>
        <time>2022-08-04T13:58:14Z</time>
      </trkpt>
      <trkpt lat="44.59818" lon="3.91365">
        <ele>1086.43</ele>
        <time>2022-08-04T13:58:29Z</time>
      </trkpt>
      <trkpt lat="44.59809" lon="3.91348">
        <ele>1084.02</ele>
        <time>2022-08-04T13:58:43Z</time>
      </trkpt>
      <trkpt lat="44.59805" lon="3.91346">
        <ele>1083.06</ele>
        <time>2022-08-04T13:58:46Z</time>
      </trkpt>
      <trkpt lat="44.59799" lon="3.91343">
        <ele>1081.62</ele>
        <time>2022-08-04T13:58:51Z</time>
      </trkpt>
      <trkpt lat="44.59788" lon="3.9133">
        <ele>1080.18</ele>
        <time>2022-08-04T13:59:02Z</time>
      </trkpt>
      <trkpt lat="44.59773" lon="3.9132">
        <ele>1081.62</ele>
        <time>2022-08-04T13:59:17Z</time>
      </trkpt>
      <trkpt lat="44.59757" lon="3.91315">
        <ele>1085.95</ele>
        <time>2022-08-04T13:59:30Z</time>
      </trkpt>
      <trkpt lat="44.59739" lon="3.91309">
        <ele>1089.79</ele>
        <time>2022-08-04T13:59:44Z</time>
      </trkpt>
      <trkpt lat="44.59731" lon="3.9131">
        <ele>1092.2</ele>
        <time>2022-08-04T13:59:51Z</time>
      </trkpt>
      <trkpt lat="44.59721" lon="3.9131">
        <ele>1094.6</ele>
        <time>2022-08-04T13:59:57Z</time>
      </trkpt>
      <trkpt lat="44.59706" lon="3.91304">
        <ele>1091.23</ele>
        <time>2022-08-04T14:00:11Z</time>
      </trkpt>
      <trkpt lat="44.59696" lon="3.91293">
        <ele>1088.35</ele>
        <time>2022-08-04T14:00:24Z</time>
      </trkpt>
      <trkpt lat="44.59683" lon="3.91282">
        <ele>1084.5</ele>
        <time>2022-08-04T14:00:38Z</time>
      </trkpt>
      <trkpt lat="44.5967" lon="3.91269">
        <ele>1082.1</ele>
        <time>2022-08-04T14:00:51Z</time>
      </trkpt>
      <trkpt lat="44.59661" lon="3.91257">
        <ele>1080.18</ele>
        <time>2022-08-04T14:01:02Z</time>
      </trkpt>
      <trkpt lat="44.59655" lon="3.91251">
        <ele>1079.22</ele>
        <time>2022-08-04T14:01:09Z</time>
      </trkpt>
      <trkpt lat="44.59651" lon="3.91248">
        <ele>1078.26</ele>
        <time>2022-08-04T14:01:13Z</time>
      </trkpt>
      <trkpt lat="44.59642" lon="3.91235">
        <ele>1075.37</ele>
        <time>2022-08-04T14:01:28Z</time>
      </trkpt>
      <trkpt lat="44.5963" lon="3.9122">
        <ele>1073.93</ele>
        <time>2022-08-04T14:01:41Z</time>
      </trkpt>
      <trkpt lat="44.59617" lon="3.912">
        <ele>1074.89</ele>
        <time>2022-08-04T14:01:56Z</time>
      </trkpt>
      <trkpt lat="44.59612" lon="3.91192">
        <ele>1074.41</ele>
        <time>2022-08-04T14:02:02Z</time>
      </trkpt>
      <trkpt lat="44.59597" lon="3.91175">
        <ele>1071.53</ele>
        <time>2022-08-04T14:02:17Z</time>
      </trkpt>
      <trkpt lat="44.59583" lon="3.91162">
        <ele>1072.01</ele>
        <time>2022-08-04T14:02:31Z</time>
      </trkpt>
      <trkpt lat="44.59582" lon="3.91161">
        <ele>1072.01</ele>
        <time>2022-08-04T14:02:32Z</time>
      </trkpt>
      <trkpt lat="44.59568" lon="3.91144">
        <ele>1071.53</ele>
        <time>2022-08-04T14:02:49Z</time>
      </trkpt>
      <trkpt lat="44.59554" lon="3.91123">
        <ele>1073.45</ele>
        <time>2022-08-04T14:03:06Z</time>
      </trkpt>
      <trkpt lat="44.59542" lon="3.91108">
        <ele>1072.97</ele>
        <time>2022-08-04T14:03:19Z</time>
      </trkpt>
      <trkpt lat="44.59532" lon="3.91097">
        <ele>1073.45</ele>
        <time>2022-08-04T14:03:32Z</time>
      </trkpt>
      <trkpt lat="44.59521" lon="3.91085">
        <ele>1074.41</ele>
        <time>2022-08-04T14:03:46Z</time>
      </trkpt>
      <trkpt lat="44.59512" lon="3.9107">
        <ele>1076.33</ele>
        <time>2022-08-04T14:03:57Z</time>
      </trkpt>
      <trkpt lat="44.59508" lon="3.91062">
        <ele>1076.81</ele>
        <time>2022-08-04T14:04:03Z</time>
      </trkpt>
      <trkpt lat="44.59496" lon="3.91045">
        <ele>1078.74</ele>
        <time>2022-08-04T14:04:18Z</time>
      </trkpt>
      <trkpt lat="44.59484" lon="3.9103">
        <ele>1078.74</ele>
        <time>2022-08-04T14:04:32Z</time>
      </trkpt>
      <trkpt lat="44.5948" lon="3.91026">
        <ele>1079.22</ele>
        <time>2022-08-04T14:04:36Z</time>
      </trkpt>
      <trkpt lat="44.59466" lon="3.91007">
        <ele>1079.7</ele>
        <time>2022-08-04T14:04:52Z</time>
      </trkpt>
      <trkpt lat="44.59453" lon="3.90987">
        <ele>1077.29</ele>
        <time>2022-08-04T14:05:08Z</time>
      </trkpt>
      <trkpt lat="44.59446" lon="3.90978">
        <ele>1075.37</ele>
        <time>2022-08-04T14:05:17Z</time>
      </trkpt>
      <trkpt lat="44.5943" lon="3.90958">
        <ele>1070.57</ele>
        <time>2022-08-04T14:05:34Z</time>
      </trkpt>
      <trkpt lat="44.59415" lon="3.90943">
        <ele>1067.2</ele>
        <time>2022-08-04T14:05:51Z</time>
      </trkpt>
      <trkpt lat="44.59398" lon="3.90924">
        <ele>1063.84</ele>
        <time>2022-08-04T14:06:10Z</time>
      </trkpt>
      <trkpt lat="44.59384" lon="3.9091">
        <ele>1061.43</ele>
        <time>2022-08-04T14:06:24Z</time>
      </trkpt>
      <trkpt lat="44.59378" lon="3.90896">
        <ele>1059.99</ele>
        <time>2022-08-04T14:06:39Z</time>
      </trkpt>
      <trkpt lat="44.59373" lon="3.90887">
        <ele>1060.95</ele>
        <time>2022-08-04T14:06:47Z</time>
      </trkpt>
      <trkpt lat="44.59359" lon="3.90871">
        <ele>1063.36</ele>
        <time>2022-08-04T14:07:06Z</time>
      </trkpt>
      <trkpt lat="44.59349" lon="3.90859">
        <ele>1059.03</ele>
        <time>2022-08-04T14:07:20Z</time>
      </trkpt>
      <trkpt lat="44.59348" lon="3.90855">
        <ele>1059.51</ele>
        <time>2022-08-04T14:07:22Z</time>
      </trkpt>
      <trkpt lat="44.59338" lon="3.90838">
        <ele>1061.43</ele>
        <time>2022-08-04T14:07:37Z</time>
      </trkpt>
      <trkpt lat="44.59331" lon="3.90829">
        <ele>1060.47</ele>
        <time>2022-08-04T14:07:46Z</time>
      </trkpt>
      <trkpt lat="44.59327" lon="3.9082">
        <ele>1059.03</ele>
        <time>2022-08-04T14:07:55Z</time>
      </trkpt>
      <trkpt lat="44.59321" lon="3.90808">
        <ele>1058.55</ele>
        <time>2022-08-04T14:08:05Z</time>
      </trkpt>
      <trkpt lat="44.59319" lon="3.908">
        <ele>1058.07</ele>
        <time>2022-08-04T14:08:11Z</time>
      </trkpt>
      <trkpt lat="44.59312" lon="3.90782">
        <ele>1052.78</ele>
        <time>2022-08-04T14:08:27Z</time>
      </trkpt>
      <trkpt lat="44.59305" lon="3.90764">
        <ele>1046.05</ele>
        <time>2022-08-04T14:08:42Z</time>
      </trkpt>
      <trkpt lat="44.59304" lon="3.90755">
        <ele>1044.13</ele>
        <time>2022-08-04T14:08:51Z</time>
      </trkpt>
      <trkpt lat="44.59302" lon="3.90742">
        <ele>1041.73</ele>
        <time>2022-08-04T14:09:02Z</time>
      </trkpt>
      <trkpt lat="44.59299" lon="3.90731">
        <ele>1039.8</ele>
        <time>2022-08-04T14:09:10Z</time>
      </trkpt>
      <trkpt lat="44.593" lon="3.90706">
        <ele>1035.96</ele>
        <time>2022-08-04T14:09:27Z</time>
      </trkpt>
      <trkpt lat="44.59298" lon="3.90691">
        <ele>1034.52</ele>
        <time>2022-08-04T14:09:36Z</time>
      </trkpt>
      <trkpt lat="44.59293" lon="3.90674">
        <ele>1035.48</ele>
        <time>2022-08-04T14:09:46Z</time>
      </trkpt>
      <trkpt lat="44.59282" lon="3.9065">
        <ele>1035.48</ele>
        <time>2022-08-04T14:10:02Z</time>
      </trkpt>
      <trkpt lat="44.59268" lon="3.90631">
        <ele>1033.55</ele>
        <time>2022-08-04T14:10:19Z</time>
      </trkpt>
      <trkpt lat="44.5925" lon="3.90617">
        <ele>1028.75</ele>
        <time>2022-08-04T14:10:35Z</time>
      </trkpt>
      <trkpt lat="44.59235" lon="3.90605">
        <ele>1025.86</ele>
        <time>2022-08-04T14:10:50Z</time>
      </trkpt>
      <trkpt lat="44.59228" lon="3.90595">
        <ele>1025.86</ele>
        <time>2022-08-04T14:11:00Z</time>
      </trkpt>
      <trkpt lat="44.59224" lon="3.90592">
        <ele>1026.34</ele>
        <time>2022-08-04T14:11:04Z</time>
      </trkpt>
      <trkpt lat="44.59221" lon="3.90591">
        <ele>1026.34</ele>
        <time>2022-08-04T14:11:07Z</time>
      </trkpt>
      <trkpt lat="44.59216" lon="3.90589">
        <ele>1026.34</ele>
        <time>2022-08-04T14:11:12Z</time>
      </trkpt>
      <trkpt lat="44.59212" lon="3.90589">
        <ele>1025.86</ele>
        <time>2022-08-04T14:11:16Z</time>
      </trkpt>
      <trkpt lat="44.59202" lon="3.90584">
        <ele>1023.94</ele>
        <time>2022-08-04T14:11:34Z</time>
      </trkpt>
      <trkpt lat="44.59196" lon="3.90582">
        <ele>1024.9</ele>
        <time>2022-08-04T14:11:43Z</time>
      </trkpt>
      <trkpt lat="44.59188" lon="3.90576">
        <ele>1029.23</ele>
        <time>2022-08-04T14:11:56Z</time>
      </trkpt>
      <trkpt lat="44.59188" lon="3.90577">
        <ele>1029.23</ele>
        <time>2022-08-04T14:12:06Z</time>
      </trkpt>
      <trkpt lat="44.59195" lon="3.90572">
        <ele>1031.63</ele>
        <time>2022-08-04T14:12:19Z</time>
      </trkpt>
      <trkpt lat="44.59198" lon="3.90571">
        <ele>1030.67</ele>
        <time>2022-08-04T14:12:32Z</time>
      </trkpt>
      <trkpt lat="44.59196" lon="3.90572">
        <ele>1025.38</ele>
        <time>2022-08-04T14:12:50Z</time>
      </trkpt>
      <trkpt lat="44.59197" lon="3.90573">
        <ele>1024.9</ele>
        <time>2022-08-04T14:13:05Z</time>
      </trkpt>
      <trkpt lat="44.59194" lon="3.90576">
        <ele>1022.98</ele>
        <time>2022-08-04T14:13:20Z</time>
      </trkpt>
      <trkpt lat="44.59187" lon="3.90567">
        <ele>1021.54</ele>
        <time>2022-08-04T14:13:35Z</time>
      </trkpt>
      <trkpt lat="44.59187" lon="3.90564">
        <ele>1021.54</ele>
        <time>2022-08-04T14:13:38Z</time>
      </trkpt>
      <trkpt lat="44.59187" lon="3.9056">
        <ele>1021.54</ele>
        <time>2022-08-04T14:13:56Z</time>
      </trkpt>
      <trkpt lat="44.59187" lon="3.90555">
        <ele>1021.54</ele>
        <time>2022-08-04T14:14:13Z</time>
      </trkpt>
      <trkpt lat="44.59189" lon="3.90553">
        <ele>1022.02</ele>
        <time>2022-08-04T14:14:17Z</time>
      </trkpt>
      <trkpt lat="44.59188" lon="3.90553">
        <ele>1021.54</ele>
        <time>2022-08-04T14:14:31Z</time>
      </trkpt>
      <trkpt lat="44.59186" lon="3.90555">
        <ele>1020.1</ele>
        <time>2022-08-04T14:14:34Z</time>
      </trkpt>
      <trkpt lat="44.59183" lon="3.90554">
        <ele>1020.1</ele>
        <time>2022-08-04T14:14:37Z</time>
      </trkpt>
      <trkpt lat="44.59175" lon="3.90554">
        <ele>1020.58</ele>
        <time>2022-08-04T14:14:45Z</time>
      </trkpt>
      <trkpt lat="44.59162" lon="3.90547">
        <ele>1019.13</ele>
        <time>2022-08-04T14:15:00Z</time>
      </trkpt>
      <trkpt lat="44.59146" lon="3.90539">
        <ele>1021.54</ele>
        <time>2022-08-04T14:15:18Z</time>
      </trkpt>
      <trkpt lat="44.5914" lon="3.90539">
        <ele>1021.54</ele>
        <time>2022-08-04T14:15:23Z</time>
      </trkpt>
      <trkpt lat="44.5912" lon="3.90537">
        <ele>1022.5</ele>
        <time>2022-08-04T14:15:40Z</time>
      </trkpt>
      <trkpt lat="44.59107" lon="3.90536">
        <ele>1024.9</ele>
        <time>2022-08-04T14:15:53Z</time>
      </trkpt>
      <trkpt lat="44.59093" lon="3.90539">
        <ele>1028.75</ele>
        <time>2022-08-04T14:16:07Z</time>
      </trkpt>
      <trkpt lat="44.5909" lon="3.90539">
        <ele>1027.31</ele>
        <time>2022-08-04T14:16:20Z</time>
      </trkpt>
      <trkpt lat="44.59086" lon="3.90544">
        <ele>1024.42</ele>
        <time>2022-08-04T14:16:35Z</time>
      </trkpt>
      <trkpt lat="44.59086" lon="3.90545">
        <ele>1025.86</ele>
        <time>2022-08-04T14:16:47Z</time>
      </trkpt>
      <trkpt lat="44.59095" lon="3.90549">
        <ele>1027.31</ele>
        <time>2022-08-04T14:17:00Z</time>
      </trkpt>
      <trkpt lat="44.59106" lon="3.90538">
        <ele>1027.79</ele>
        <time>2022-08-04T14:17:14Z</time>
      </trkpt>
      <trkpt lat="44.59101" lon="3.90539">
        <ele>1026.83</ele>
        <time>2022-08-04T14:17:31Z</time>
      </trkpt>
      <trkpt lat="44.59117" lon="3.90531">
        <ele>1025.86</ele>
        <time>2022-08-04T14:17:54Z</time>
      </trkpt>
      <trkpt lat="44.59116" lon="3.90536">
        <ele>1024.42</ele>
        <time>2022-08-04T14:18:15Z</time>
      </trkpt>
      <trkpt lat="44.59114" lon="3.90548">
        <ele>1026.83</ele>
        <time>2022-08-04T14:18:47Z</time>
      </trkpt>
      <trkpt lat="44.59107" lon="3.90542">
        <ele>1026.83</ele>
        <time>2022-08-04T14:19:09Z</time>
      </trkpt>
      <trkpt lat="44.59108" lon="3.90549">
        <ele>1027.31</ele>
        <time>2022-08-04T14:19:31Z</time>
      </trkpt>
      <trkpt lat="44.59101" lon="3.9056">
        <ele>1027.31</ele>
        <time>2022-08-04T14:19:54Z</time>
      </trkpt>
      <trkpt lat="44.59093" lon="3.90566">
        <ele>1026.83</ele>
        <time>2022-08-04T14:20:17Z</time>
      </trkpt>
      <trkpt lat="44.59098" lon="3.90569">
        <ele>1025.86</ele>
        <time>2022-08-04T14:20:48Z</time>
      </trkpt>
      <trkpt lat="44.59097" lon="3.90561">
        <ele>1025.86</ele>
        <time>2022-08-04T14:21:14Z</time>
      </trkpt>
      <trkpt lat="44.59096" lon="3.90574">
        <ele>1024.9</ele>
        <time>2022-08-04T14:21:38Z</time>
      </trkpt>
      <trkpt lat="44.59098" lon="3.90597">
        <ele>1023.46</ele>
        <time>2022-08-04T14:22:06Z</time>
      </trkpt>
      <trkpt lat="44.59106" lon="3.90547">
        <ele>1019.62</ele>
        <time>2022-08-04T14:22:25Z</time>
      </trkpt>
      <trkpt lat="44.59112" lon="3.90536">
        <ele>1028.75</ele>
        <time>2022-08-04T14:22:34Z</time>
      </trkpt>
      <trkpt lat="44.59118" lon="3.90543">
        <ele>1031.15</ele>
        <time>2022-08-04T14:22:45Z</time>
      </trkpt>
      <trkpt lat="44.59131" lon="3.90546">
        <ele>1031.15</ele>
        <time>2022-08-04T14:22:56Z</time>
      </trkpt>
      <trkpt lat="44.5914" lon="3.90547">
        <ele>1027.31</ele>
        <time>2022-08-04T14:23:04Z</time>
      </trkpt>
      <trkpt lat="44.59146" lon="3.90549">
        <ele>1026.34</ele>
        <time>2022-08-04T14:23:10Z</time>
      </trkpt>
      <trkpt lat="44.59149" lon="3.90548">
        <ele>1026.34</ele>
        <time>2022-08-04T14:23:13Z</time>
      </trkpt>
      <trkpt lat="44.59164" lon="3.90554">
        <ele>1025.38</ele>
        <time>2022-08-04T14:23:28Z</time>
      </trkpt>
      <trkpt lat="44.59181" lon="3.9056">
        <ele>1021.06</ele>
        <time>2022-08-04T14:23:44Z</time>
      </trkpt>
      <trkpt lat="44.59183" lon="3.90559">
        <ele>1021.06</ele>
        <time>2022-08-04T14:23:46Z</time>
      </trkpt>
      <trkpt lat="44.59184" lon="3.90554">
        <ele>1020.1</ele>
        <time>2022-08-04T14:24:01Z</time>
      </trkpt>
      <trkpt lat="44.59187" lon="3.9056">
        <ele>1019.62</ele>
        <time>2022-08-04T14:24:25Z</time>
      </trkpt>
      <trkpt lat="44.59183" lon="3.90595">
        <ele>1019.62</ele>
        <time>2022-08-04T14:25:44Z</time>
      </trkpt>
      <trkpt lat="44.59176" lon="3.90552">
        <ele>1027.31</ele>
        <time>2022-08-04T14:28:30Z</time>
      </trkpt>
      <trkpt lat="44.5918" lon="3.90552">
        <ele>1026.34</ele>
        <time>2022-08-04T14:28:49Z</time>
      </trkpt>
      <trkpt lat="44.59178" lon="3.90553">
        <ele>1030.67</ele>
        <time>2022-08-04T14:29:10Z</time>
      </trkpt>
      <trkpt lat="44.5918" lon="3.90565">
        <ele>1034.04</ele>
        <time>2022-08-04T14:29:25Z</time>
      </trkpt>
      <trkpt lat="44.59186" lon="3.90575">
        <ele>1036.44</ele>
        <time>2022-08-04T14:29:38Z</time>
      </trkpt>
      <trkpt lat="44.59194" lon="3.90572">
        <ele>1034.52</ele>
        <time>2022-08-04T14:29:51Z</time>
      </trkpt>
      <trkpt lat="44.59199" lon="3.90572">
        <ele>1030.67</ele>
        <time>2022-08-04T14:30:12Z</time>
      </trkpt>
      <trkpt lat="44.59198" lon="3.90572">
        <ele>1030.19</ele>
        <time>2022-08-04T14:30:30Z</time>
      </trkpt>
      <trkpt lat="44.59199" lon="3.90575">
        <ele>1028.27</ele>
        <time>2022-08-04T14:30:52Z</time>
      </trkpt>
      <trkpt lat="44.59199" lon="3.90575">
        <ele>1025.38</ele>
        <time>2022-08-04T14:31:25Z</time>
      </trkpt>
      <trkpt lat="44.59202" lon="3.90574">
        <ele>1027.79</ele>
        <time>2022-08-04T14:32:01Z</time>
      </trkpt>
      <trkpt lat="44.59204" lon="3.90573">
        <ele>1028.27</ele>
        <time>2022-08-04T14:32:35Z</time>
      </trkpt>
      <trkpt lat="44.59201" lon="3.90575">
        <ele>1028.75</ele>
        <time>2022-08-04T14:33:07Z</time>
      </trkpt>
      <trkpt lat="44.59201" lon="3.90576">
        <ele>1031.63</ele>
        <time>2022-08-04T14:33:43Z</time>
      </trkpt>
      <trkpt lat="44.59202" lon="3.90579">
        <ele>1036.92</ele>
        <time>2022-08-04T14:34:19Z</time>
      </trkpt>
      <trkpt lat="44.59203" lon="3.9058">
        <ele>1038.36</ele>
        <time>2022-08-04T14:34:44Z</time>
      </trkpt>
      <trkpt lat="44.59202" lon="3.90574">
        <ele>1032.59</ele>
        <time>2022-08-04T14:34:59Z</time>
      </trkpt>
      <trkpt lat="44.59198" lon="3.90573">
        <ele>1020.1</ele>
        <time>2022-08-04T14:35:39Z</time>
      </trkpt>
      <trkpt lat="44.59197" lon="3.90572">
        <ele>1020.1</ele>
        <time>2022-08-04T14:36:04Z</time>
      </trkpt>
      <trkpt lat="44.59198" lon="3.90574">
        <ele>1021.54</ele>
        <time>2022-08-04T14:36:30Z</time>
      </trkpt>
      <trkpt lat="44.592" lon="3.90577">
        <ele>1026.34</ele>
        <time>2022-08-04T14:37:10Z</time>
      </trkpt>
      <trkpt lat="44.59199" lon="3.90578">
        <ele>1030.67</ele>
        <time>2022-08-04T14:38:05Z</time>
      </trkpt>
      <trkpt lat="44.59202" lon="3.90576">
        <ele>1025.86</ele>
        <time>2022-08-04T14:38:48Z</time>
      </trkpt>
      <trkpt lat="44.59196" lon="3.90572">
        <ele>1025.38</ele>
        <time>2022-08-04T14:39:37Z</time>
      </trkpt>
      <trkpt lat="44.59198" lon="3.90572">
        <ele>1022.98</ele>
        <time>2022-08-04T14:40:17Z</time>
      </trkpt>
      <trkpt lat="44.59196" lon="3.90575">
        <ele>1022.5</ele>
        <time>2022-08-04T14:40:59Z</time>
      </trkpt>
      <trkpt lat="44.59196" lon="3.90576">
        <ele>1026.83</ele>
        <time>2022-08-04T14:41:39Z</time>
      </trkpt>
      <trkpt lat="44.59197" lon="3.90576">
        <ele>1026.34</ele>
        <time>2022-08-04T14:42:12Z</time>
      </trkpt>
      <trkpt lat="44.59198" lon="3.90577">
        <ele>1024.9</ele>
        <time>2022-08-04T14:42:50Z</time>
      </trkpt>
      <trkpt lat="44.59198" lon="3.90575">
        <ele>1022.98</ele>
        <time>2022-08-04T14:43:28Z</time>
      </trkpt>
      <trkpt lat="44.59198" lon="3.90574">
        <ele>1022.02</ele>
        <time>2022-08-04T14:43:53Z</time>
      </trkpt>
      <trkpt lat="44.592" lon="3.90573">
        <ele>1022.5</ele>
        <time>2022-08-04T14:44:25Z</time>
      </trkpt>
      <trkpt lat="44.59198" lon="3.90577">
        <ele>1022.98</ele>
        <time>2022-08-04T14:44:53Z</time>
      </trkpt>
      <trkpt lat="44.592" lon="3.90578">
        <ele>1021.54</ele>
        <time>2022-08-04T14:45:24Z</time>
      </trkpt>
      <trkpt lat="44.592" lon="3.90574">
        <ele>1021.54</ele>
        <time>2022-08-04T14:45:48Z</time>
      </trkpt>
      <trkpt lat="44.59202" lon="3.90573">
        <ele>1020.58</ele>
        <time>2022-08-04T14:46:12Z</time>
      </trkpt>
      <trkpt lat="44.59201" lon="3.90573">
        <ele>1020.1</ele>
        <time>2022-08-04T14:46:44Z</time>
      </trkpt>
      <trkpt lat="44.59198" lon="3.90572">
        <ele>1019.62</ele>
        <time>2022-08-04T14:47:08Z</time>
      </trkpt>
      <trkpt lat="44.59196" lon="3.90574">
        <ele>1019.13</ele>
        <time>2022-08-04T14:47:39Z</time>
      </trkpt>
      <trkpt lat="44.59198" lon="3.9057">
        <ele>1022.02</ele>
        <time>2022-08-04T14:48:05Z</time>
      </trkpt>
      <trkpt lat="44.59197" lon="3.9057">
        <ele>1022.98</ele>
        <time>2022-08-04T14:48:40Z</time>
      </trkpt>
      <trkpt lat="44.59198" lon="3.90568">
        <ele>1022.02</ele>
        <time>2022-08-04T14:49:03Z</time>
      </trkpt>
      <trkpt lat="44.59198" lon="3.90569">
        <ele>1022.02</ele>
        <time>2022-08-04T14:49:29Z</time>
      </trkpt>
      <trkpt lat="44.59195" lon="3.90569">
        <ele>1020.58</ele>
        <time>2022-08-04T14:50:10Z</time>
      </trkpt>
      <trkpt lat="44.59192" lon="3.90571">
        <ele>1019.62</ele>
        <time>2022-08-04T14:50:41Z</time>
      </trkpt>
      <trkpt lat="44.59196" lon="3.90571">
        <ele>1019.13</ele>
        <time>2022-08-04T14:51:13Z</time>
      </trkpt>
      <trkpt lat="44.59199" lon="3.90576">
        <ele>1018.17</ele>
        <time>2022-08-04T14:51:37Z</time>
      </trkpt>
      <trkpt lat="44.59199" lon="3.90575">
        <ele>1020.1</ele>
        <time>2022-08-04T14:52:03Z</time>
      </trkpt>
      <trkpt lat="44.59196" lon="3.90571">
        <ele>1022.5</ele>
        <time>2022-08-04T14:52:33Z</time>
      </trkpt>
      <trkpt lat="44.59194" lon="3.9057">
        <ele>1022.5</ele>
        <time>2022-08-04T14:53:04Z</time>
      </trkpt>
      <trkpt lat="44.59197" lon="3.90572">
        <ele>1020.1</ele>
        <time>2022-08-04T14:53:38Z</time>
      </trkpt>
      <trkpt lat="44.59198" lon="3.90574">
        <ele>1021.06</ele>
        <time>2022-08-04T14:54:04Z</time>
      </trkpt>
      <trkpt lat="44.59198" lon="3.90571">
        <ele>1022.02</ele>
        <time>2022-08-04T14:54:36Z</time>
      </trkpt>
      <trkpt lat="44.59198" lon="3.90572">
        <ele>1023.46</ele>
        <time>2022-08-04T14:55:05Z</time>
      </trkpt>
      <trkpt lat="44.59197" lon="3.90572">
        <ele>1022.5</ele>
        <time>2022-08-04T14:55:38Z</time>
      </trkpt>
      <trkpt lat="44.59198" lon="3.90572">
        <ele>1019.62</ele>
        <time>2022-08-04T14:56:05Z</time>
      </trkpt>
      <trkpt lat="44.592" lon="3.90571">
        <ele>1020.58</ele>
        <time>2022-08-04T14:56:32Z</time>
      </trkpt>
      <trkpt lat="44.59199" lon="3.9057">
        <ele>1019.62</ele>
        <time>2022-08-04T14:57:02Z</time>
      </trkpt>
      <trkpt lat="44.59199" lon="3.90571">
        <ele>1018.65</ele>
        <time>2022-08-04T14:57:28Z</time>
      </trkpt>
      <trkpt lat="44.59204" lon="3.90572">
        <ele>1019.13</ele>
        <time>2022-08-04T14:58:01Z</time>
      </trkpt>
      <trkpt lat="44.59207" lon="3.90572">
        <ele>1022.98</ele>
        <time>2022-08-04T14:58:31Z</time>
      </trkpt>
      <trkpt lat="44.59205" lon="3.90574">
        <ele>1023.94</ele>
        <time>2022-08-04T14:58:56Z</time>
      </trkpt>
      <trkpt lat="44.592" lon="3.90574">
        <ele>1023.94</ele>
        <time>2022-08-04T14:59:22Z</time>
      </trkpt>
      <trkpt lat="44.59203" lon="3.90573">
        <ele>1024.42</ele>
        <time>2022-08-04T14:59:47Z</time>
      </trkpt>
      <trkpt lat="44.59208" lon="3.90573">
        <ele>1025.86</ele>
        <time>2022-08-04T15:00:17Z</time>
      </trkpt>
      <trkpt lat="44.59206" lon="3.90573">
        <ele>1026.34</ele>
        <time>2022-08-04T15:00:47Z</time>
      </trkpt>
      <trkpt lat="44.59204" lon="3.90576">
        <ele>1025.38</ele>
        <time>2022-08-04T15:01:18Z</time>
      </trkpt>
      <trkpt lat="44.59202" lon="3.90573">
        <ele>1024.9</ele>
        <time>2022-08-04T15:01:43Z</time>
      </trkpt>
      <trkpt lat="44.59199" lon="3.90576">
        <ele>1019.62</ele>
        <time>2022-08-04T15:02:19Z</time>
      </trkpt>
      <trkpt lat="44.592" lon="3.90574">
        <ele>1019.13</ele>
        <time>2022-08-04T15:02:50Z</time>
      </trkpt>
      <trkpt lat="44.59201" lon="3.90575">
        <ele>1019.62</ele>
        <time>2022-08-04T15:03:18Z</time>
      </trkpt>
      <trkpt lat="44.59203" lon="3.90572">
        <ele>1023.46</ele>
        <time>2022-08-04T15:03:46Z</time>
      </trkpt>
      <trkpt lat="44.59203" lon="3.90572">
        <ele>1024.42</ele>
        <time>2022-08-04T15:04:12Z</time>
      </trkpt>
      <trkpt lat="44.59199" lon="3.90574">
        <ele>1022.98</ele>
        <time>2022-08-04T15:04:46Z</time>
      </trkpt>
      <trkpt lat="44.59197" lon="3.90572">
        <ele>1023.46</ele>
        <time>2022-08-04T15:05:11Z</time>
      </trkpt>
      <trkpt lat="44.592" lon="3.9057">
        <ele>1027.31</ele>
        <time>2022-08-04T15:05:37Z</time>
      </trkpt>
      <trkpt lat="44.59204" lon="3.90573">
        <ele>1027.79</ele>
        <time>2022-08-04T15:06:02Z</time>
      </trkpt>
      <trkpt lat="44.592" lon="3.90575">
        <ele>1024.9</ele>
        <time>2022-08-04T15:08:18Z</time>
      </trkpt>
      <trkpt lat="44.59201" lon="3.90576">
        <ele>1024.9</ele>
        <time>2022-08-04T15:08:20Z</time>
      </trkpt>
      <trkpt lat="44.59105" lon="3.90512">
        <ele>1035.48</ele>
        <time>2022-08-05T05:00:22Z</time>
      </trkpt>
      <trkpt lat="44.59126" lon="3.90521">
        <ele>1036.44</ele>
        <time>2022-08-05T05:00:59Z</time>
      </trkpt>
      <trkpt lat="44.59126" lon="3.90526">
        <ele>1036.92</ele>
        <time>2022-08-05T05:01:18Z</time>
      </trkpt>
      <trkpt lat="44.59125" lon="3.90521">
        <ele>1030.19</ele>
        <time>2022-08-05T05:01:30Z</time>
      </trkpt>
      <trkpt lat="44.59125" lon="3.9052">
        <ele>1025.86</ele>
        <time>2022-08-05T05:01:48Z</time>
      </trkpt>
      <trkpt lat="44.59126" lon="3.90529">
        <ele>1025.86</ele>
        <time>2022-08-05T05:01:57Z</time>
      </trkpt>
      <trkpt lat="44.59134" lon="3.90544">
        <ele>1031.15</ele>
        <time>2022-08-05T05:02:12Z</time>
      </trkpt>
      <trkpt lat="44.59152" lon="3.90551">
        <ele>1027.31</ele>
        <time>2022-08-05T05:02:27Z</time>
      </trkpt>
      <trkpt lat="44.59155" lon="3.90552">
        <ele>1026.83</ele>
        <time>2022-08-05T05:02:30Z</time>
      </trkpt>
      <trkpt lat="44.59171" lon="3.90558">
        <ele>1024.42</ele>
        <time>2022-08-05T05:02:46Z</time>
      </trkpt>
      <trkpt lat="44.59175" lon="3.90564">
        <ele>1022.5</ele>
        <time>2022-08-05T05:02:59Z</time>
      </trkpt>
      <trkpt lat="44.59176" lon="3.90566">
        <ele>1022.02</ele>
        <time>2022-08-05T05:03:14Z</time>
      </trkpt>
      <trkpt lat="44.59179" lon="3.90562">
        <ele>1021.06</ele>
        <time>2022-08-05T05:03:33Z</time>
      </trkpt>
      <trkpt lat="44.59181" lon="3.90558">
        <ele>1021.54</ele>
        <time>2022-08-05T05:03:47Z</time>
      </trkpt>
      <trkpt lat="44.59183" lon="3.90554">
        <ele>1022.02</ele>
        <time>2022-08-05T05:03:56Z</time>
      </trkpt>
      <trkpt lat="44.59186" lon="3.90542">
        <ele>1020.58</ele>
        <time>2022-08-05T05:04:11Z</time>
      </trkpt>
      <trkpt lat="44.59191" lon="3.90519">
        <ele>1019.13</ele>
        <time>2022-08-05T05:04:28Z</time>
      </trkpt>
      <trkpt lat="44.59195" lon="3.90494">
        <ele>1021.54</ele>
        <time>2022-08-05T05:04:46Z</time>
      </trkpt>
      <trkpt lat="44.592" lon="3.90478">
        <ele>1021.06</ele>
        <time>2022-08-05T05:04:58Z</time>
      </trkpt>
      <trkpt lat="44.59213" lon="3.90464">
        <ele>1022.5</ele>
        <time>2022-08-05T05:05:16Z</time>
      </trkpt>
      <trkpt lat="44.5922" lon="3.90451">
        <ele>1026.34</ele>
        <time>2022-08-05T05:05:31Z</time>
      </trkpt>
      <trkpt lat="44.59228" lon="3.90447">
        <ele>1026.83</ele>
        <time>2022-08-05T05:05:45Z</time>
      </trkpt>
      <trkpt lat="44.59239" lon="3.9045">
        <ele>1026.34</ele>
        <time>2022-08-05T05:05:58Z</time>
      </trkpt>
      <trkpt lat="44.59247" lon="3.90455">
        <ele>1024.9</ele>
        <time>2022-08-05T05:06:14Z</time>
      </trkpt>
      <trkpt lat="44.59249" lon="3.9046">
        <ele>1025.38</ele>
        <time>2022-08-05T05:06:29Z</time>
      </trkpt>
      <trkpt lat="44.5925" lon="3.90459">
        <ele>1027.79</ele>
        <time>2022-08-05T05:07:01Z</time>
      </trkpt>
      <trkpt lat="44.59255" lon="3.9046">
        <ele>1027.31</ele>
        <time>2022-08-05T05:07:21Z</time>
      </trkpt>
      <trkpt lat="44.59252" lon="3.90454">
        <ele>1033.55</ele>
        <time>2022-08-05T05:07:50Z</time>
      </trkpt>
      <trkpt lat="44.59259" lon="3.90452">
        <ele>1027.79</ele>
        <time>2022-08-05T05:08:01Z</time>
      </trkpt>
      <trkpt lat="44.5927" lon="3.90456">
        <ele>1023.94</ele>
        <time>2022-08-05T05:08:15Z</time>
      </trkpt>
      <trkpt lat="44.59285" lon="3.90463">
        <ele>1019.13</ele>
        <time>2022-08-05T05:08:28Z</time>
      </trkpt>
      <trkpt lat="44.59303" lon="3.90464">
        <ele>1017.21</ele>
        <time>2022-08-05T05:08:44Z</time>
      </trkpt>
      <trkpt lat="44.59324" lon="3.90469">
        <ele>1022.98</ele>
        <time>2022-08-05T05:09:01Z</time>
      </trkpt>
      <trkpt lat="44.59343" lon="3.90461">
        <ele>1023.46</ele>
        <time>2022-08-05T05:09:18Z</time>
      </trkpt>
      <trkpt lat="44.59361" lon="3.90455">
        <ele>1025.38</ele>
        <time>2022-08-05T05:09:36Z</time>
      </trkpt>
      <trkpt lat="44.59381" lon="3.90442">
        <ele>1025.38</ele>
        <time>2022-08-05T05:09:54Z</time>
      </trkpt>
      <trkpt lat="44.59393" lon="3.90436">
        <ele>1026.34</ele>
        <time>2022-08-05T05:10:06Z</time>
      </trkpt>
      <trkpt lat="44.59403" lon="3.90432">
        <ele>1027.31</ele>
        <time>2022-08-05T05:10:16Z</time>
      </trkpt>
      <trkpt lat="44.59423" lon="3.90434">
        <ele>1026.83</ele>
        <time>2022-08-05T05:10:36Z</time>
      </trkpt>
      <trkpt lat="44.59436" lon="3.9043">
        <ele>1028.27</ele>
        <time>2022-08-05T05:10:48Z</time>
      </trkpt>
      <trkpt lat="44.59438" lon="3.90427">
        <ele>1028.27</ele>
        <time>2022-08-05T05:10:51Z</time>
      </trkpt>
      <trkpt lat="44.59442" lon="3.9041">
        <ele>1028.27</ele>
        <time>2022-08-05T05:11:08Z</time>
      </trkpt>
      <trkpt lat="44.59442" lon="3.90399">
        <ele>1028.75</ele>
        <time>2022-08-05T05:11:18Z</time>
      </trkpt>
      <trkpt lat="44.59438" lon="3.90392">
        <ele>1028.27</ele>
        <time>2022-08-05T05:11:23Z</time>
      </trkpt>
      <trkpt lat="44.59419" lon="3.90386">
        <ele>1030.19</ele>
        <time>2022-08-05T05:11:40Z</time>
      </trkpt>
      <trkpt lat="44.59404" lon="3.90375">
        <ele>1027.79</ele>
        <time>2022-08-05T05:11:56Z</time>
      </trkpt>
      <trkpt lat="44.59395" lon="3.90369">
        <ele>1027.79</ele>
        <time>2022-08-05T05:12:10Z</time>
      </trkpt>
      <trkpt lat="44.59397" lon="3.90362">
        <ele>1029.23</ele>
        <time>2022-08-05T05:12:23Z</time>
      </trkpt>
      <trkpt lat="44.59398" lon="3.90358">
        <ele>1030.19</ele>
        <time>2022-08-05T05:12:27Z</time>
      </trkpt>
      <trkpt lat="44.594" lon="3.90341">
        <ele>1032.59</ele>
        <time>2022-08-05T05:12:44Z</time>
      </trkpt>
      <trkpt lat="44.59401" lon="3.90326">
        <ele>1035.96</ele>
        <time>2022-08-05T05:12:59Z</time>
      </trkpt>
      <trkpt lat="44.59401" lon="3.90309">
        <ele>1039.32</ele>
        <time>2022-08-05T05:13:16Z</time>
      </trkpt>
      <trkpt lat="44.59405" lon="3.90292">
        <ele>1042.69</ele>
        <time>2022-08-05T05:13:32Z</time>
      </trkpt>
      <trkpt lat="44.594" lon="3.90278">
        <ele>1045.09</ele>
        <time>2022-08-05T05:13:47Z</time>
      </trkpt>
      <trkpt lat="44.59404" lon="3.90267">
        <ele>1047.49</ele>
        <time>2022-08-05T05:14:02Z</time>
      </trkpt>
      <trkpt lat="44.59408" lon="3.90259">
        <ele>1048.94</ele>
        <time>2022-08-05T05:14:17Z</time>
      </trkpt>
      <trkpt lat="44.59406" lon="3.90243">
        <ele>1048.94</ele>
        <time>2022-08-05T05:14:32Z</time>
      </trkpt>
      <trkpt lat="44.59394" lon="3.90247">
        <ele>1049.42</ele>
        <time>2022-08-05T05:14:47Z</time>
      </trkpt>
      <trkpt lat="44.59383" lon="3.90253">
        <ele>1052.78</ele>
        <time>2022-08-05T05:15:02Z</time>
      </trkpt>
      <trkpt lat="44.59373" lon="3.90262">
        <ele>1055.18</ele>
        <time>2022-08-05T05:15:16Z</time>
      </trkpt>
      <trkpt lat="44.59366" lon="3.90266">
        <ele>1056.63</ele>
        <time>2022-08-05T05:15:29Z</time>
      </trkpt>
      <trkpt lat="44.59353" lon="3.90268">
        <ele>1056.63</ele>
        <time>2022-08-05T05:15:44Z</time>
      </trkpt>
      <trkpt lat="44.59341" lon="3.90267">
        <ele>1057.11</ele>
        <time>2022-08-05T05:15:59Z</time>
      </trkpt>
      <trkpt lat="44.59334" lon="3.90265">
        <ele>1058.55</ele>
        <time>2022-08-05T05:16:13Z</time>
      </trkpt>
      <trkpt lat="44.59319" lon="3.90262">
        <ele>1059.51</ele>
        <time>2022-08-05T05:16:29Z</time>
      </trkpt>
      <trkpt lat="44.59305" lon="3.90253">
        <ele>1058.55</ele>
        <time>2022-08-05T05:16:46Z</time>
      </trkpt>
      <trkpt lat="44.59293" lon="3.90243">
        <ele>1056.63</ele>
        <time>2022-08-05T05:17:02Z</time>
      </trkpt>
      <trkpt lat="44.59281" lon="3.90231">
        <ele>1054.7</ele>
        <time>2022-08-05T05:17:18Z</time>
      </trkpt>
      <trkpt lat="44.59275" lon="3.9022">
        <ele>1051.82</ele>
        <time>2022-08-05T05:17:33Z</time>
      </trkpt>
      <trkpt lat="44.59259" lon="3.90209">
        <ele>1050.86</ele>
        <time>2022-08-05T05:17:52Z</time>
      </trkpt>
      <trkpt lat="44.59244" lon="3.90197">
        <ele>1051.82</ele>
        <time>2022-08-05T05:18:10Z</time>
      </trkpt>
      <trkpt lat="44.59229" lon="3.90184">
        <ele>1051.82</ele>
        <time>2022-08-05T05:18:28Z</time>
      </trkpt>
      <trkpt lat="44.59217" lon="3.90178">
        <ele>1051.34</ele>
        <time>2022-08-05T05:18:45Z</time>
      </trkpt>
      <trkpt lat="44.59203" lon="3.90168">
        <ele>1052.78</ele>
        <time>2022-08-05T05:19:05Z</time>
      </trkpt>
      <trkpt lat="44.59183" lon="3.90157">
        <ele>1056.15</ele>
        <time>2022-08-05T05:19:24Z</time>
      </trkpt>
      <trkpt lat="44.59174" lon="3.90153">
        <ele>1057.59</ele>
        <time>2022-08-05T05:19:40Z</time>
      </trkpt>
      <trkpt lat="44.59159" lon="3.90145">
        <ele>1058.55</ele>
        <time>2022-08-05T05:19:57Z</time>
      </trkpt>
      <trkpt lat="44.59143" lon="3.90137">
        <ele>1059.99</ele>
        <time>2022-08-05T05:20:17Z</time>
      </trkpt>
      <trkpt lat="44.59131" lon="3.9013">
        <ele>1059.03</ele>
        <time>2022-08-05T05:20:33Z</time>
      </trkpt>
      <trkpt lat="44.59121" lon="3.9012">
        <ele>1059.03</ele>
        <time>2022-08-05T05:20:48Z</time>
      </trkpt>
      <trkpt lat="44.59106" lon="3.90111">
        <ele>1059.03</ele>
        <time>2022-08-05T05:21:05Z</time>
      </trkpt>
      <trkpt lat="44.59092" lon="3.90105">
        <ele>1063.84</ele>
        <time>2022-08-05T05:21:22Z</time>
      </trkpt>
      <trkpt lat="44.59078" lon="3.90095">
        <ele>1067.68</ele>
        <time>2022-08-05T05:21:40Z</time>
      </trkpt>
      <trkpt lat="44.59066" lon="3.90088">
        <ele>1070.57</ele>
        <time>2022-08-05T05:21:56Z</time>
      </trkpt>
      <trkpt lat="44.59052" lon="3.9008">
        <ele>1073.45</ele>
        <time>2022-08-05T05:22:13Z</time>
      </trkpt>
      <trkpt lat="44.59039" lon="3.90069">
        <ele>1076.33</ele>
        <time>2022-08-05T05:22:30Z</time>
      </trkpt>
      <trkpt lat="44.59024" lon="3.9006">
        <ele>1078.74</ele>
        <time>2022-08-05T05:22:50Z</time>
      </trkpt>
      <trkpt lat="44.59012" lon="3.90051">
        <ele>1079.22</ele>
        <time>2022-08-05T05:23:05Z</time>
      </trkpt>
      <trkpt lat="44.59002" lon="3.90042">
        <ele>1080.66</ele>
        <time>2022-08-05T05:23:20Z</time>
      </trkpt>
      <trkpt lat="44.58992" lon="3.90033">
        <ele>1084.02</ele>
        <time>2022-08-05T05:23:35Z</time>
      </trkpt>
      <trkpt lat="44.58979" lon="3.90021">
        <ele>1086.91</ele>
        <time>2022-08-05T05:23:52Z</time>
      </trkpt>
      <trkpt lat="44.58968" lon="3.9001">
        <ele>1089.31</ele>
        <time>2022-08-05T05:24:07Z</time>
      </trkpt>
      <trkpt lat="44.58957" lon="3.89997">
        <ele>1091.23</ele>
        <time>2022-08-05T05:24:23Z</time>
      </trkpt>
      <trkpt lat="44.58952" lon="3.89985">
        <ele>1090.75</ele>
        <time>2022-08-05T05:24:35Z</time>
      </trkpt>
      <trkpt lat="44.58954" lon="3.89969">
        <ele>1091.23</ele>
        <time>2022-08-05T05:24:49Z</time>
      </trkpt>
      <trkpt lat="44.58963" lon="3.89955">
        <ele>1093.16</ele>
        <time>2022-08-05T05:25:06Z</time>
      </trkpt>
      <trkpt lat="44.58974" lon="3.89944">
        <ele>1094.12</ele>
        <time>2022-08-05T05:25:21Z</time>
      </trkpt>
      <trkpt lat="44.58986" lon="3.89929">
        <ele>1095.56</ele>
        <time>2022-08-05T05:25:41Z</time>
      </trkpt>
      <trkpt lat="44.59" lon="3.89919">
        <ele>1097.96</ele>
        <time>2022-08-05T05:26:00Z</time>
      </trkpt>
      <trkpt lat="44.59014" lon="3.89909">
        <ele>1097.48</ele>
        <time>2022-08-05T05:26:19Z</time>
      </trkpt>
      <trkpt lat="44.59029" lon="3.89901">
        <ele>1097.96</ele>
        <time>2022-08-05T05:26:38Z</time>
      </trkpt>
      <trkpt lat="44.59041" lon="3.89896">
        <ele>1099.4</ele>
        <time>2022-08-05T05:26:54Z</time>
      </trkpt>
      <trkpt lat="44.59048" lon="3.89891">
        <ele>1102.77</ele>
        <time>2022-08-05T05:27:09Z</time>
      </trkpt>
      <trkpt lat="44.59043" lon="3.89888">
        <ele>1102.29</ele>
        <time>2022-08-05T05:27:24Z</time>
      </trkpt>
      <trkpt lat="44.59041" lon="3.8989">
        <ele>1099.89</ele>
        <time>2022-08-05T05:27:43Z</time>
      </trkpt>
      <trkpt lat="44.5904" lon="3.89891">
        <ele>1098.44</ele>
        <time>2022-08-05T05:27:59Z</time>
      </trkpt>
      <trkpt lat="44.59042" lon="3.89893">
        <ele>1097</ele>
        <time>2022-08-05T05:28:15Z</time>
      </trkpt>
      <trkpt lat="44.59051" lon="3.89894">
        <ele>1100.37</ele>
        <time>2022-08-05T05:28:33Z</time>
      </trkpt>
      <trkpt lat="44.59063" lon="3.89891">
        <ele>1103.73</ele>
        <time>2022-08-05T05:28:49Z</time>
      </trkpt>
      <trkpt lat="44.59076" lon="3.89882">
        <ele>1107.1</ele>
        <time>2022-08-05T05:29:08Z</time>
      </trkpt>
      <trkpt lat="44.5909" lon="3.89873">
        <ele>1108.06</ele>
        <time>2022-08-05T05:29:24Z</time>
      </trkpt>
      <trkpt lat="44.59088" lon="3.89864">
        <ele>1105.17</ele>
        <time>2022-08-05T05:29:40Z</time>
      </trkpt>
      <trkpt lat="44.59089" lon="3.89863">
        <ele>1105.65</ele>
        <time>2022-08-05T05:30:14Z</time>
      </trkpt>
      <trkpt lat="44.59094" lon="3.89865">
        <ele>1102.77</ele>
        <time>2022-08-05T05:30:33Z</time>
      </trkpt>
      <trkpt lat="44.59095" lon="3.89863">
        <ele>1103.25</ele>
        <time>2022-08-05T05:30:53Z</time>
      </trkpt>
      <trkpt lat="44.59093" lon="3.89862">
        <ele>1105.65</ele>
        <time>2022-08-05T05:31:27Z</time>
      </trkpt>
      <trkpt lat="44.59104" lon="3.89865">
        <ele>1106.13</ele>
        <time>2022-08-05T05:31:38Z</time>
      </trkpt>
      <trkpt lat="44.59119" lon="3.89865">
        <ele>1109.5</ele>
        <time>2022-08-05T05:31:56Z</time>
      </trkpt>
      <trkpt lat="44.59135" lon="3.89865">
        <ele>1114.79</ele>
        <time>2022-08-05T05:32:14Z</time>
      </trkpt>
      <trkpt lat="44.59151" lon="3.8987">
        <ele>1119.11</ele>
        <time>2022-08-05T05:32:30Z</time>
      </trkpt>
      <trkpt lat="44.5917" lon="3.89873">
        <ele>1124.4</ele>
        <time>2022-08-05T05:32:50Z</time>
      </trkpt>
      <trkpt lat="44.59186" lon="3.89874">
        <ele>1126.32</ele>
        <time>2022-08-05T05:33:08Z</time>
      </trkpt>
      <trkpt lat="44.59201" lon="3.89872">
        <ele>1130.65</ele>
        <time>2022-08-05T05:33:25Z</time>
      </trkpt>
      <trkpt lat="44.59215" lon="3.89865">
        <ele>1133.05</ele>
        <time>2022-08-05T05:33:43Z</time>
      </trkpt>
      <trkpt lat="44.59234" lon="3.89843">
        <ele>1133.05</ele>
        <time>2022-08-05T05:33:59Z</time>
      </trkpt>
      <trkpt lat="44.59248" lon="3.89832">
        <ele>1128.24</ele>
        <time>2022-08-05T05:34:14Z</time>
      </trkpt>
      <trkpt lat="44.59259" lon="3.8982">
        <ele>1125.36</ele>
        <time>2022-08-05T05:34:32Z</time>
      </trkpt>
      <trkpt lat="44.59274" lon="3.89809">
        <ele>1125.84</ele>
        <time>2022-08-05T05:34:50Z</time>
      </trkpt>
      <trkpt lat="44.59276" lon="3.89806">
        <ele>1125.84</ele>
        <time>2022-08-05T05:34:54Z</time>
      </trkpt>
      <trkpt lat="44.59288" lon="3.89795">
        <ele>1126.32</ele>
        <time>2022-08-05T05:35:11Z</time>
      </trkpt>
      <trkpt lat="44.59303" lon="3.89779">
        <ele>1125.84</ele>
        <time>2022-08-05T05:35:32Z</time>
      </trkpt>
      <trkpt lat="44.59315" lon="3.89767">
        <ele>1126.8</ele>
        <time>2022-08-05T05:35:50Z</time>
      </trkpt>
      <trkpt lat="44.59327" lon="3.89756">
        <ele>1127.76</ele>
        <time>2022-08-05T05:36:05Z</time>
      </trkpt>
      <trkpt lat="44.59338" lon="3.89745">
        <ele>1129.69</ele>
        <time>2022-08-05T05:36:20Z</time>
      </trkpt>
      <trkpt lat="44.5935" lon="3.89734">
        <ele>1131.13</ele>
        <time>2022-08-05T05:36:37Z</time>
      </trkpt>
      <trkpt lat="44.5936" lon="3.89723">
        <ele>1133.53</ele>
        <time>2022-08-05T05:36:51Z</time>
      </trkpt>
      <trkpt lat="44.5937" lon="3.89703">
        <ele>1134.01</ele>
        <time>2022-08-05T05:37:06Z</time>
      </trkpt>
      <trkpt lat="44.59369" lon="3.89681">
        <ele>1132.57</ele>
        <time>2022-08-05T05:37:21Z</time>
      </trkpt>
      <trkpt lat="44.59366" lon="3.89676">
        <ele>1132.57</ele>
        <time>2022-08-05T05:37:26Z</time>
      </trkpt>
      <trkpt lat="44.59358" lon="3.89655">
        <ele>1132.57</ele>
        <time>2022-08-05T05:37:44Z</time>
      </trkpt>
      <trkpt lat="44.59346" lon="3.89632">
        <ele>1133.53</ele>
        <time>2022-08-05T05:38:05Z</time>
      </trkpt>
      <trkpt lat="44.59336" lon="3.89612">
        <ele>1135.94</ele>
        <time>2022-08-05T05:38:23Z</time>
      </trkpt>
      <trkpt lat="44.59327" lon="3.89597">
        <ele>1138.34</ele>
        <time>2022-08-05T05:38:39Z</time>
      </trkpt>
      <trkpt lat="44.59317" lon="3.8958">
        <ele>1139.78</ele>
        <time>2022-08-05T05:38:55Z</time>
      </trkpt>
      <trkpt lat="44.5931" lon="3.89566">
        <ele>1141.7</ele>
        <time>2022-08-05T05:39:10Z</time>
      </trkpt>
      <trkpt lat="44.59304" lon="3.89553">
        <ele>1144.59</ele>
        <time>2022-08-05T05:39:23Z</time>
      </trkpt>
      <trkpt lat="44.59296" lon="3.89535">
        <ele>1146.51</ele>
        <time>2022-08-05T05:39:40Z</time>
      </trkpt>
      <trkpt lat="44.59288" lon="3.89517">
        <ele>1146.99</ele>
        <time>2022-08-05T05:39:56Z</time>
      </trkpt>
      <trkpt lat="44.59283" lon="3.89499">
        <ele>1147.95</ele>
        <time>2022-08-05T05:40:12Z</time>
      </trkpt>
      <trkpt lat="44.59278" lon="3.8948">
        <ele>1151.32</ele>
        <time>2022-08-05T05:40:29Z</time>
      </trkpt>
      <trkpt lat="44.59273" lon="3.89459">
        <ele>1153.24</ele>
        <time>2022-08-05T05:40:47Z</time>
      </trkpt>
      <trkpt lat="44.59273" lon="3.89453">
        <ele>1154.2</ele>
        <time>2022-08-05T05:40:52Z</time>
      </trkpt>
      <trkpt lat="44.59272" lon="3.89434">
        <ele>1156.6</ele>
        <time>2022-08-05T05:41:08Z</time>
      </trkpt>
      <trkpt lat="44.59271" lon="3.89416">
        <ele>1161.89</ele>
        <time>2022-08-05T05:41:26Z</time>
      </trkpt>
      <trkpt lat="44.59272" lon="3.89396">
        <ele>1163.33</ele>
        <time>2022-08-05T05:41:41Z</time>
      </trkpt>
      <trkpt lat="44.5927" lon="3.89374">
        <ele>1161.41</ele>
        <time>2022-08-05T05:41:56Z</time>
      </trkpt>
      <trkpt lat="44.5927" lon="3.89354">
        <ele>1159.01</ele>
        <time>2022-08-05T05:42:11Z</time>
      </trkpt>
      <trkpt lat="44.59267" lon="3.8933">
        <ele>1159.97</ele>
        <time>2022-08-05T05:42:28Z</time>
      </trkpt>
      <trkpt lat="44.59262" lon="3.89309">
        <ele>1164.29</ele>
        <time>2022-08-05T05:42:44Z</time>
      </trkpt>
      <trkpt lat="44.59259" lon="3.8929">
        <ele>1163.33</ele>
        <time>2022-08-05T05:42:58Z</time>
      </trkpt>
      <trkpt lat="44.59257" lon="3.89269">
        <ele>1162.37</ele>
        <time>2022-08-05T05:43:15Z</time>
      </trkpt>
      <trkpt lat="44.59257" lon="3.89248">
        <ele>1164.29</ele>
        <time>2022-08-05T05:43:32Z</time>
      </trkpt>
      <trkpt lat="44.59259" lon="3.89226">
        <ele>1165.26</ele>
        <time>2022-08-05T05:43:49Z</time>
      </trkpt>
      <trkpt lat="44.59259" lon="3.89208">
        <ele>1168.14</ele>
        <time>2022-08-05T05:44:04Z</time>
      </trkpt>
      <trkpt lat="44.59262" lon="3.89189">
        <ele>1171.98</ele>
        <time>2022-08-05T05:44:19Z</time>
      </trkpt>
      <trkpt lat="44.59262" lon="3.8917">
        <ele>1177.75</ele>
        <time>2022-08-05T05:44:34Z</time>
      </trkpt>
      <trkpt lat="44.59255" lon="3.89155">
        <ele>1180.16</ele>
        <time>2022-08-05T05:44:47Z</time>
      </trkpt>
      <trkpt lat="44.59251" lon="3.89136">
        <ele>1184.96</ele>
        <time>2022-08-05T05:45:03Z</time>
      </trkpt>
      <trkpt lat="44.59241" lon="3.89124">
        <ele>1186.88</ele>
        <time>2022-08-05T05:45:17Z</time>
      </trkpt>
      <trkpt lat="44.5923" lon="3.89109">
        <ele>1188.33</ele>
        <time>2022-08-05T05:45:32Z</time>
      </trkpt>
      <trkpt lat="44.5922" lon="3.89093">
        <ele>1191.21</ele>
        <time>2022-08-05T05:45:50Z</time>
      </trkpt>
      <trkpt lat="44.59211" lon="3.89077">
        <ele>1191.69</ele>
        <time>2022-08-05T05:46:05Z</time>
      </trkpt>
      <trkpt lat="44.59204" lon="3.89064">
        <ele>1194.58</ele>
        <time>2022-08-05T05:46:21Z</time>
      </trkpt>
      <trkpt lat="44.59196" lon="3.89052">
        <ele>1197.94</ele>
        <time>2022-08-05T05:46:35Z</time>
      </trkpt>
      <trkpt lat="44.59188" lon="3.89039">
        <ele>1203.23</ele>
        <time>2022-08-05T05:46:52Z</time>
      </trkpt>
      <trkpt lat="44.59173" lon="3.89021">
        <ele>1204.67</ele>
        <time>2022-08-05T05:47:10Z</time>
      </trkpt>
      <trkpt lat="44.59154" lon="3.89009">
        <ele>1203.71</ele>
        <time>2022-08-05T05:47:25Z</time>
      </trkpt>
      <trkpt lat="44.59136" lon="3.8899">
        <ele>1196.98</ele>
        <time>2022-08-05T05:47:43Z</time>
      </trkpt>
      <trkpt lat="44.59123" lon="3.88977">
        <ele>1193.13</ele>
        <time>2022-08-05T05:48:02Z</time>
      </trkpt>
      <trkpt lat="44.59109" lon="3.88964">
        <ele>1192.17</ele>
        <time>2022-08-05T05:48:21Z</time>
      </trkpt>
      <trkpt lat="44.59098" lon="3.88953">
        <ele>1190.25</ele>
        <time>2022-08-05T05:48:35Z</time>
      </trkpt>
      <trkpt lat="44.59083" lon="3.88942">
        <ele>1191.21</ele>
        <time>2022-08-05T05:48:52Z</time>
      </trkpt>
      <trkpt lat="44.59072" lon="3.88937">
        <ele>1192.17</ele>
        <time>2022-08-05T05:49:07Z</time>
      </trkpt>
      <trkpt lat="44.5906" lon="3.88933">
        <ele>1194.58</ele>
        <time>2022-08-05T05:49:20Z</time>
      </trkpt>
      <trkpt lat="44.59047" lon="3.88928">
        <ele>1196.02</ele>
        <time>2022-08-05T05:49:35Z</time>
      </trkpt>
      <trkpt lat="44.59034" lon="3.8892">
        <ele>1196.5</ele>
        <time>2022-08-05T05:49:51Z</time>
      </trkpt>
      <trkpt lat="44.59024" lon="3.88908">
        <ele>1197.94</ele>
        <time>2022-08-05T05:50:06Z</time>
      </trkpt>
      <trkpt lat="44.59017" lon="3.88894">
        <ele>1203.71</ele>
        <time>2022-08-05T05:50:22Z</time>
      </trkpt>
      <trkpt lat="44.59013" lon="3.88879">
        <ele>1210.92</ele>
        <time>2022-08-05T05:50:37Z</time>
      </trkpt>
      <trkpt lat="44.59008" lon="3.88857">
        <ele>1214.28</ele>
        <time>2022-08-05T05:50:54Z</time>
      </trkpt>
      <trkpt lat="44.59001" lon="3.88842">
        <ele>1217.17</ele>
        <time>2022-08-05T05:51:08Z</time>
      </trkpt>
      <trkpt lat="44.58997" lon="3.88826">
        <ele>1217.65</ele>
        <time>2022-08-05T05:51:20Z</time>
      </trkpt>
      <trkpt lat="44.58995" lon="3.88801">
        <ele>1217.17</ele>
        <time>2022-08-05T05:51:38Z</time>
      </trkpt>
      <trkpt lat="44.58996" lon="3.88777">
        <ele>1218.13</ele>
        <time>2022-08-05T05:51:57Z</time>
      </trkpt>
      <trkpt lat="44.58996" lon="3.88758">
        <ele>1220.53</ele>
        <time>2022-08-05T05:52:13Z</time>
      </trkpt>
      <trkpt lat="44.58992" lon="3.88737">
        <ele>1222.45</ele>
        <time>2022-08-05T05:52:29Z</time>
      </trkpt>
      <trkpt lat="44.58988" lon="3.88721">
        <ele>1224.38</ele>
        <time>2022-08-05T05:52:42Z</time>
      </trkpt>
      <trkpt lat="44.58987" lon="3.88705">
        <ele>1226.78</ele>
        <time>2022-08-05T05:52:56Z</time>
      </trkpt>
      <trkpt lat="44.58983" lon="3.88685">
        <ele>1227.74</ele>
        <time>2022-08-05T05:53:12Z</time>
      </trkpt>
      <trkpt lat="44.58981" lon="3.88669">
        <ele>1228.22</ele>
        <time>2022-08-05T05:53:27Z</time>
      </trkpt>
      <trkpt lat="44.58979" lon="3.88652">
        <ele>1229.66</ele>
        <time>2022-08-05T05:53:42Z</time>
      </trkpt>
      <trkpt lat="44.58979" lon="3.88633">
        <ele>1232.07</ele>
        <time>2022-08-05T05:53:58Z</time>
      </trkpt>
      <trkpt lat="44.58974" lon="3.88613">
        <ele>1234.95</ele>
        <time>2022-08-05T05:54:15Z</time>
      </trkpt>
      <trkpt lat="44.58966" lon="3.88597">
        <ele>1239.28</ele>
        <time>2022-08-05T05:54:32Z</time>
      </trkpt>
      <trkpt lat="44.58952" lon="3.88583">
        <ele>1240.24</ele>
        <time>2022-08-05T05:54:46Z</time>
      </trkpt>
      <trkpt lat="44.58943" lon="3.88568">
        <ele>1239.28</ele>
        <time>2022-08-05T05:54:59Z</time>
      </trkpt>
      <trkpt lat="44.58936" lon="3.88557">
        <ele>1242.16</ele>
        <time>2022-08-05T05:55:15Z</time>
      </trkpt>
      <trkpt lat="44.58919" lon="3.88562">
        <ele>1242.16</ele>
        <time>2022-08-05T05:55:31Z</time>
      </trkpt>
      <trkpt lat="44.58911" lon="3.88564">
        <ele>1243.12</ele>
        <time>2022-08-05T05:55:37Z</time>
      </trkpt>
      <trkpt lat="44.58902" lon="3.88573">
        <ele>1243.12</ele>
        <time>2022-08-05T05:55:47Z</time>
      </trkpt>
      <trkpt lat="44.58887" lon="3.8858">
        <ele>1243.6</ele>
        <time>2022-08-05T05:56:02Z</time>
      </trkpt>
      <trkpt lat="44.5887" lon="3.88586">
        <ele>1245.04</ele>
        <time>2022-08-05T05:56:22Z</time>
      </trkpt>
      <trkpt lat="44.58859" lon="3.8859">
        <ele>1247.45</ele>
        <time>2022-08-05T05:56:36Z</time>
      </trkpt>
      <trkpt lat="44.58843" lon="3.88597">
        <ele>1249.85</ele>
        <time>2022-08-05T05:56:55Z</time>
      </trkpt>
      <trkpt lat="44.58827" lon="3.88605">
        <ele>1256.58</ele>
        <time>2022-08-05T05:57:14Z</time>
      </trkpt>
      <trkpt lat="44.58808" lon="3.88612">
        <ele>1261.39</ele>
        <time>2022-08-05T05:57:35Z</time>
      </trkpt>
      <trkpt lat="44.58792" lon="3.88612">
        <ele>1259.46</ele>
        <time>2022-08-05T05:57:50Z</time>
      </trkpt>
      <trkpt lat="44.58777" lon="3.88609">
        <ele>1257.06</ele>
        <time>2022-08-05T05:58:08Z</time>
      </trkpt>
      <trkpt lat="44.58767" lon="3.88601">
        <ele>1256.1</ele>
        <time>2022-08-05T05:58:24Z</time>
      </trkpt>
      <trkpt lat="44.58759" lon="3.88587">
        <ele>1257.54</ele>
        <time>2022-08-05T05:58:39Z</time>
      </trkpt>
      <trkpt lat="44.58753" lon="3.88575">
        <ele>1262.35</ele>
        <time>2022-08-05T05:58:54Z</time>
      </trkpt>
      <trkpt lat="44.58744" lon="3.88567">
        <ele>1268.6</ele>
        <time>2022-08-05T05:59:09Z</time>
      </trkpt>
      <trkpt lat="44.58733" lon="3.88553">
        <ele>1272.44</ele>
        <time>2022-08-05T05:59:26Z</time>
      </trkpt>
      <trkpt lat="44.58727" lon="3.88537">
        <ele>1278.69</ele>
        <time>2022-08-05T05:59:43Z</time>
      </trkpt>
      <trkpt lat="44.5872" lon="3.88527">
        <ele>1284.46</ele>
        <time>2022-08-05T05:59:57Z</time>
      </trkpt>
      <trkpt lat="44.58714" lon="3.88516">
        <ele>1290.71</ele>
        <time>2022-08-05T06:00:12Z</time>
      </trkpt>
      <trkpt lat="44.58707" lon="3.88505">
        <ele>1296.96</ele>
        <time>2022-08-05T06:00:28Z</time>
      </trkpt>
      <trkpt lat="44.58697" lon="3.88499">
        <ele>1301.28</ele>
        <time>2022-08-05T06:00:43Z</time>
      </trkpt>
      <trkpt lat="44.58688" lon="3.88496">
        <ele>1304.65</ele>
        <time>2022-08-05T06:00:59Z</time>
      </trkpt>
      <trkpt lat="44.58673" lon="3.88501">
        <ele>1308.01</ele>
        <time>2022-08-05T06:01:15Z</time>
      </trkpt>
      <trkpt lat="44.58667" lon="3.88501">
        <ele>1308.49</ele>
        <time>2022-08-05T06:01:21Z</time>
      </trkpt>
      <trkpt lat="44.5863" lon="3.88495">
        <ele>1294.07</ele>
        <time>2022-08-05T06:01:36Z</time>
      </trkpt>
      <trkpt lat="44.58616" lon="3.88495">
        <ele>1285.9</ele>
        <time>2022-08-05T06:01:48Z</time>
      </trkpt>
      <trkpt lat="44.58604" lon="3.88489">
        <ele>1281.57</ele>
        <time>2022-08-05T06:02:03Z</time>
      </trkpt>
      <trkpt lat="44.586" lon="3.88486">
        <ele>1280.13</ele>
        <time>2022-08-05T06:02:08Z</time>
      </trkpt>
      <trkpt lat="44.58592" lon="3.88482">
        <ele>1278.21</ele>
        <time>2022-08-05T06:02:18Z</time>
      </trkpt>
      <trkpt lat="44.58578" lon="3.88474">
        <ele>1276.29</ele>
        <time>2022-08-05T06:02:35Z</time>
      </trkpt>
      <trkpt lat="44.58566" lon="3.88464">
        <ele>1275.81</ele>
        <time>2022-08-05T06:02:50Z</time>
      </trkpt>
      <trkpt lat="44.58553" lon="3.88451">
        <ele>1276.29</ele>
        <time>2022-08-05T06:03:06Z</time>
      </trkpt>
      <trkpt lat="44.58549" lon="3.88443">
        <ele>1276.77</ele>
        <time>2022-08-05T06:03:14Z</time>
      </trkpt>
      <trkpt lat="44.58543" lon="3.88422">
        <ele>1277.25</ele>
        <time>2022-08-05T06:03:32Z</time>
      </trkpt>
      <trkpt lat="44.58541" lon="3.88416">
        <ele>1277.73</ele>
        <time>2022-08-05T06:03:37Z</time>
      </trkpt>
      <trkpt lat="44.58537" lon="3.88402">
        <ele>1277.73</ele>
        <time>2022-08-05T06:03:52Z</time>
      </trkpt>
      <trkpt lat="44.58537" lon="3.88401">
        <ele>1278.21</ele>
        <time>2022-08-05T06:04:14Z</time>
      </trkpt>
      <trkpt lat="44.58538" lon="3.88399">
        <ele>1278.21</ele>
        <time>2022-08-05T06:04:16Z</time>
      </trkpt>
      <trkpt lat="44.58538" lon="3.88378">
        <ele>1279.65</ele>
        <time>2022-08-05T06:04:31Z</time>
      </trkpt>
      <trkpt lat="44.58536" lon="3.88354">
        <ele>1280.13</ele>
        <time>2022-08-05T06:04:49Z</time>
      </trkpt>
      <trkpt lat="44.58533" lon="3.88331">
        <ele>1281.09</ele>
        <time>2022-08-05T06:05:05Z</time>
      </trkpt>
      <trkpt lat="44.58531" lon="3.88311">
        <ele>1283.5</ele>
        <time>2022-08-05T06:05:20Z</time>
      </trkpt>
      <trkpt lat="44.58528" lon="3.8829">
        <ele>1284.46</ele>
        <time>2022-08-05T06:05:36Z</time>
      </trkpt>
      <trkpt lat="44.58527" lon="3.88274">
        <ele>1283.98</ele>
        <time>2022-08-05T06:05:48Z</time>
      </trkpt>
      <trkpt lat="44.58523" lon="3.88252">
        <ele>1283.5</ele>
        <time>2022-08-05T06:06:05Z</time>
      </trkpt>
      <trkpt lat="44.58523" lon="3.8825">
        <ele>1283.5</ele>
        <time>2022-08-05T06:06:06Z</time>
      </trkpt>
      <trkpt lat="44.5852" lon="3.88231">
        <ele>1283.98</ele>
        <time>2022-08-05T06:06:21Z</time>
      </trkpt>
      <trkpt lat="44.58514" lon="3.88218">
        <ele>1284.46</ele>
        <time>2022-08-05T06:06:32Z</time>
      </trkpt>
      <trkpt lat="44.585" lon="3.88202">
        <ele>1286.86</ele>
        <time>2022-08-05T06:06:48Z</time>
      </trkpt>
      <trkpt lat="44.58491" lon="3.88193">
        <ele>1288.78</ele>
        <time>2022-08-05T06:07:01Z</time>
      </trkpt>
      <trkpt lat="44.58474" lon="3.88178">
        <ele>1289.75</ele>
        <time>2022-08-05T06:07:18Z</time>
      </trkpt>
      <trkpt lat="44.5846" lon="3.88164">
        <ele>1289.75</ele>
        <time>2022-08-05T06:07:33Z</time>
      </trkpt>
      <trkpt lat="44.58447" lon="3.88152">
        <ele>1289.27</ele>
        <time>2022-08-05T06:07:47Z</time>
      </trkpt>
      <trkpt lat="44.58433" lon="3.8814">
        <ele>1289.27</ele>
        <time>2022-08-05T06:08:03Z</time>
      </trkpt>
      <trkpt lat="44.5842" lon="3.88129">
        <ele>1289.75</ele>
        <time>2022-08-05T06:08:19Z</time>
      </trkpt>
      <trkpt lat="44.58407" lon="3.88117">
        <ele>1289.27</ele>
        <time>2022-08-05T06:08:34Z</time>
      </trkpt>
      <trkpt lat="44.58395" lon="3.88105">
        <ele>1289.75</ele>
        <time>2022-08-05T06:08:49Z</time>
      </trkpt>
      <trkpt lat="44.58384" lon="3.88096">
        <ele>1290.71</ele>
        <time>2022-08-05T06:09:01Z</time>
      </trkpt>
      <trkpt lat="44.58371" lon="3.88084">
        <ele>1290.71</ele>
        <time>2022-08-05T06:09:15Z</time>
      </trkpt>
      <trkpt lat="44.58359" lon="3.88068">
        <ele>1292.63</ele>
        <time>2022-08-05T06:09:30Z</time>
      </trkpt>
      <trkpt lat="44.58352" lon="3.88051">
        <ele>1295.03</ele>
        <time>2022-08-05T06:09:46Z</time>
      </trkpt>
      <trkpt lat="44.58351" lon="3.88047">
        <ele>1295.03</ele>
        <time>2022-08-05T06:09:49Z</time>
      </trkpt>
      <trkpt lat="44.58349" lon="3.88033">
        <ele>1297.44</ele>
        <time>2022-08-05T06:10:05Z</time>
      </trkpt>
      <trkpt lat="44.58346" lon="3.88012">
        <ele>1299.84</ele>
        <time>2022-08-05T06:10:22Z</time>
      </trkpt>
      <trkpt lat="44.58347" lon="3.87994">
        <ele>1301.76</ele>
        <time>2022-08-05T06:10:36Z</time>
      </trkpt>
      <trkpt lat="44.58348" lon="3.87988">
        <ele>1302.72</ele>
        <time>2022-08-05T06:10:44Z</time>
      </trkpt>
      <trkpt lat="44.58359" lon="3.87979">
        <ele>1303.2</ele>
        <time>2022-08-05T06:11:00Z</time>
      </trkpt>
      <trkpt lat="44.5836" lon="3.87979">
        <ele>1303.2</ele>
        <time>2022-08-05T06:11:01Z</time>
      </trkpt>
      <trkpt lat="44.5837" lon="3.87977">
        <ele>1303.69</ele>
        <time>2022-08-05T06:11:12Z</time>
      </trkpt>
      <trkpt lat="44.58387" lon="3.87975">
        <ele>1305.13</ele>
        <time>2022-08-05T06:11:28Z</time>
      </trkpt>
      <trkpt lat="44.58403" lon="3.87969">
        <ele>1306.57</ele>
        <time>2022-08-05T06:11:44Z</time>
      </trkpt>
      <trkpt lat="44.58423" lon="3.87957">
        <ele>1307.53</ele>
        <time>2022-08-05T06:12:04Z</time>
      </trkpt>
      <trkpt lat="44.5844" lon="3.87943">
        <ele>1307.05</ele>
        <time>2022-08-05T06:12:23Z</time>
      </trkpt>
      <trkpt lat="44.58452" lon="3.87935">
        <ele>1309.45</ele>
        <time>2022-08-05T06:12:39Z</time>
      </trkpt>
      <trkpt lat="44.58464" lon="3.87922">
        <ele>1311.38</ele>
        <time>2022-08-05T06:12:56Z</time>
      </trkpt>
      <trkpt lat="44.58471" lon="3.87914">
        <ele>1312.82</ele>
        <time>2022-08-05T06:13:10Z</time>
      </trkpt>
      <trkpt lat="44.58472" lon="3.87913">
        <ele>1312.82</ele>
        <time>2022-08-05T06:13:11Z</time>
      </trkpt>
      <trkpt lat="44.58482" lon="3.879">
        <ele>1312.34</ele>
        <time>2022-08-05T06:13:25Z</time>
      </trkpt>
      <trkpt lat="44.58498" lon="3.87887">
        <ele>1315.22</ele>
        <time>2022-08-05T06:13:42Z</time>
      </trkpt>
      <trkpt lat="44.58515" lon="3.8787">
        <ele>1315.7</ele>
        <time>2022-08-05T06:13:59Z</time>
      </trkpt>
      <trkpt lat="44.58528" lon="3.87855">
        <ele>1315.7</ele>
        <time>2022-08-05T06:14:14Z</time>
      </trkpt>
      <trkpt lat="44.58533" lon="3.87851">
        <ele>1314.74</ele>
        <time>2022-08-05T06:14:18Z</time>
      </trkpt>
      <trkpt lat="44.58535" lon="3.8785">
        <ele>1314.74</ele>
        <time>2022-08-05T06:14:20Z</time>
      </trkpt>
      <trkpt lat="44.58549" lon="3.8783">
        <ele>1313.3</ele>
        <time>2022-08-05T06:14:37Z</time>
      </trkpt>
      <trkpt lat="44.58551" lon="3.87823">
        <ele>1312.34</ele>
        <time>2022-08-05T06:14:42Z</time>
      </trkpt>
      <trkpt lat="44.58551" lon="3.87816">
        <ele>1311.86</ele>
        <time>2022-08-05T06:14:46Z</time>
      </trkpt>
      <trkpt lat="44.58557" lon="3.87791">
        <ele>1310.41</ele>
        <time>2022-08-05T06:15:03Z</time>
      </trkpt>
      <trkpt lat="44.58562" lon="3.87765">
        <ele>1310.41</ele>
        <time>2022-08-05T06:15:20Z</time>
      </trkpt>
      <trkpt lat="44.58566" lon="3.87742">
        <ele>1310.41</ele>
        <time>2022-08-05T06:15:36Z</time>
      </trkpt>
      <trkpt lat="44.5857" lon="3.87713">
        <ele>1311.38</ele>
        <time>2022-08-05T06:15:54Z</time>
      </trkpt>
      <trkpt lat="44.58575" lon="3.87689">
        <ele>1311.38</ele>
        <time>2022-08-05T06:16:10Z</time>
      </trkpt>
      <trkpt lat="44.58578" lon="3.87676">
        <ele>1311.86</ele>
        <time>2022-08-05T06:16:19Z</time>
      </trkpt>
      <trkpt lat="44.58578" lon="3.87673">
        <ele>1311.86</ele>
        <time>2022-08-05T06:16:21Z</time>
      </trkpt>
      <trkpt lat="44.58579" lon="3.87666">
        <ele>1311.38</ele>
        <time>2022-08-05T06:16:26Z</time>
      </trkpt>
      <trkpt lat="44.58583" lon="3.87653">
        <ele>1311.86</ele>
        <time>2022-08-05T06:16:35Z</time>
      </trkpt>
      <trkpt lat="44.58583" lon="3.87649">
        <ele>1311.86</ele>
        <time>2022-08-05T06:16:38Z</time>
      </trkpt>
      <trkpt lat="44.58591" lon="3.87625">
        <ele>1312.34</ele>
        <time>2022-08-05T06:16:54Z</time>
      </trkpt>
      <trkpt lat="44.58596" lon="3.87603">
        <ele>1312.82</ele>
        <time>2022-08-05T06:17:10Z</time>
      </trkpt>
      <trkpt lat="44.58599" lon="3.87589">
        <ele>1313.3</ele>
        <time>2022-08-05T06:17:25Z</time>
      </trkpt>
      <trkpt lat="44.58601" lon="3.87576">
        <ele>1312.82</ele>
        <time>2022-08-05T06:17:38Z</time>
      </trkpt>
      <trkpt lat="44.58605" lon="3.87555">
        <ele>1315.22</ele>
        <time>2022-08-05T06:17:53Z</time>
      </trkpt>
      <trkpt lat="44.58608" lon="3.87535">
        <ele>1315.7</ele>
        <time>2022-08-05T06:18:07Z</time>
      </trkpt>
      <trkpt lat="44.58611" lon="3.87517">
        <ele>1316.18</ele>
        <time>2022-08-05T06:18:21Z</time>
      </trkpt>
      <trkpt lat="44.58615" lon="3.87505">
        <ele>1316.66</ele>
        <time>2022-08-05T06:18:35Z</time>
      </trkpt>
      <trkpt lat="44.58615" lon="3.87494">
        <ele>1315.22</ele>
        <time>2022-08-05T06:18:46Z</time>
      </trkpt>
      <trkpt lat="44.5862" lon="3.87475">
        <ele>1315.7</ele>
        <time>2022-08-05T06:19:02Z</time>
      </trkpt>
      <trkpt lat="44.58624" lon="3.87457">
        <ele>1315.22</ele>
        <time>2022-08-05T06:19:18Z</time>
      </trkpt>
      <trkpt lat="44.58631" lon="3.87436">
        <ele>1316.66</ele>
        <time>2022-08-05T06:19:34Z</time>
      </trkpt>
      <trkpt lat="44.58632" lon="3.87414">
        <ele>1316.18</ele>
        <time>2022-08-05T06:19:49Z</time>
      </trkpt>
      <trkpt lat="44.58634" lon="3.87389">
        <ele>1314.74</ele>
        <time>2022-08-05T06:20:06Z</time>
      </trkpt>
      <trkpt lat="44.58636" lon="3.87363">
        <ele>1313.3</ele>
        <time>2022-08-05T06:20:23Z</time>
      </trkpt>
      <trkpt lat="44.58637" lon="3.87356">
        <ele>1313.3</ele>
        <time>2022-08-05T06:20:27Z</time>
      </trkpt>
      <trkpt lat="44.58639" lon="3.87332">
        <ele>1312.82</ele>
        <time>2022-08-05T06:20:43Z</time>
      </trkpt>
      <trkpt lat="44.58639" lon="3.87314">
        <ele>1311.38</ele>
        <time>2022-08-05T06:20:55Z</time>
      </trkpt>
      <trkpt lat="44.58639" lon="3.87306">
        <ele>1311.86</ele>
        <time>2022-08-05T06:21:09Z</time>
      </trkpt>
      <trkpt lat="44.5864" lon="3.87284">
        <ele>1311.38</ele>
        <time>2022-08-05T06:21:25Z</time>
      </trkpt>
      <trkpt lat="44.58636" lon="3.87276">
        <ele>1310.9</ele>
        <time>2022-08-05T06:21:41Z</time>
      </trkpt>
      <trkpt lat="44.58636" lon="3.8727">
        <ele>1310.9</ele>
        <time>2022-08-05T06:21:54Z</time>
      </trkpt>
      <trkpt lat="44.58636" lon="3.8727">
        <ele>1310.9</ele>
        <time>2022-08-05T06:21:58Z</time>
      </trkpt>
      <trkpt lat="44.58637" lon="3.87245">
        <ele>1311.38</ele>
        <time>2022-08-05T06:22:15Z</time>
      </trkpt>
      <trkpt lat="44.58634" lon="3.87217">
        <ele>1311.38</ele>
        <time>2022-08-05T06:22:35Z</time>
      </trkpt>
      <trkpt lat="44.58634" lon="3.87191">
        <ele>1312.34</ele>
        <time>2022-08-05T06:22:51Z</time>
      </trkpt>
      <trkpt lat="44.58631" lon="3.87164">
        <ele>1311.38</ele>
        <time>2022-08-05T06:23:08Z</time>
      </trkpt>
      <trkpt lat="44.58629" lon="3.87137">
        <ele>1311.38</ele>
        <time>2022-08-05T06:23:26Z</time>
      </trkpt>
      <trkpt lat="44.58623" lon="3.87108">
        <ele>1310.41</ele>
        <time>2022-08-05T06:23:44Z</time>
      </trkpt>
      <trkpt lat="44.5862" lon="3.87085">
        <ele>1309.45</ele>
        <time>2022-08-05T06:23:59Z</time>
      </trkpt>
      <trkpt lat="44.58614" lon="3.87067">
        <ele>1309.93</ele>
        <time>2022-08-05T06:24:13Z</time>
      </trkpt>
      <trkpt lat="44.58606" lon="3.87046">
        <ele>1309.45</ele>
        <time>2022-08-05T06:24:28Z</time>
      </trkpt>
      <trkpt lat="44.586" lon="3.87021">
        <ele>1310.9</ele>
        <time>2022-08-05T06:24:45Z</time>
      </trkpt>
      <trkpt lat="44.58597" lon="3.86997">
        <ele>1309.93</ele>
        <time>2022-08-05T06:25:01Z</time>
      </trkpt>
      <trkpt lat="44.58593" lon="3.86972">
        <ele>1308.97</ele>
        <time>2022-08-05T06:25:17Z</time>
      </trkpt>
      <trkpt lat="44.58591" lon="3.86957">
        <ele>1308.97</ele>
        <time>2022-08-05T06:25:27Z</time>
      </trkpt>
      <trkpt lat="44.58587" lon="3.8694">
        <ele>1308.49</ele>
        <time>2022-08-05T06:25:38Z</time>
      </trkpt>
      <trkpt lat="44.5858" lon="3.86916">
        <ele>1309.93</ele>
        <time>2022-08-05T06:25:54Z</time>
      </trkpt>
      <trkpt lat="44.58577" lon="3.8691">
        <ele>1310.9</ele>
        <time>2022-08-05T06:25:58Z</time>
      </trkpt>
      <trkpt lat="44.58568" lon="3.86886">
        <ele>1311.38</ele>
        <time>2022-08-05T06:26:15Z</time>
      </trkpt>
      <trkpt lat="44.58561" lon="3.86867">
        <ele>1310.9</ele>
        <time>2022-08-05T06:26:29Z</time>
      </trkpt>
      <trkpt lat="44.58552" lon="3.86847">
        <ele>1310.9</ele>
        <time>2022-08-05T06:26:43Z</time>
      </trkpt>
      <trkpt lat="44.58546" lon="3.86825">
        <ele>1310.9</ele>
        <time>2022-08-05T06:26:58Z</time>
      </trkpt>
      <trkpt lat="44.58538" lon="3.86804">
        <ele>1309.93</ele>
        <time>2022-08-05T06:27:14Z</time>
      </trkpt>
      <trkpt lat="44.58534" lon="3.86784">
        <ele>1310.41</ele>
        <time>2022-08-05T06:27:28Z</time>
      </trkpt>
      <trkpt lat="44.58528" lon="3.8676">
        <ele>1310.9</ele>
        <time>2022-08-05T06:27:45Z</time>
      </trkpt>
      <trkpt lat="44.58521" lon="3.86737">
        <ele>1310.9</ele>
        <time>2022-08-05T06:27:59Z</time>
      </trkpt>
      <trkpt lat="44.5852" lon="3.86731">
        <ele>1310.41</ele>
        <time>2022-08-05T06:28:03Z</time>
      </trkpt>
      <trkpt lat="44.58519" lon="3.86724">
        <ele>1310.9</ele>
        <time>2022-08-05T06:28:08Z</time>
      </trkpt>
      <trkpt lat="44.58511" lon="3.86701">
        <ele>1311.38</ele>
        <time>2022-08-05T06:28:24Z</time>
      </trkpt>
      <trkpt lat="44.5851" lon="3.86698">
        <ele>1311.38</ele>
        <time>2022-08-05T06:28:26Z</time>
      </trkpt>
      <trkpt lat="44.58504" lon="3.86685">
        <ele>1310.41</ele>
        <time>2022-08-05T06:28:35Z</time>
      </trkpt>
      <trkpt lat="44.58498" lon="3.86663">
        <ele>1310.9</ele>
        <time>2022-08-05T06:28:50Z</time>
      </trkpt>
      <trkpt lat="44.58496" lon="3.86636">
        <ele>1308.97</ele>
        <time>2022-08-05T06:29:06Z</time>
      </trkpt>
      <trkpt lat="44.58496" lon="3.86612">
        <ele>1308.49</ele>
        <time>2022-08-05T06:29:22Z</time>
      </trkpt>
      <trkpt lat="44.58498" lon="3.86586">
        <ele>1308.49</ele>
        <time>2022-08-05T06:29:38Z</time>
      </trkpt>
      <trkpt lat="44.58503" lon="3.86565">
        <ele>1308.01</ele>
        <time>2022-08-05T06:29:53Z</time>
      </trkpt>
      <trkpt lat="44.5851" lon="3.86544">
        <ele>1308.01</ele>
        <time>2022-08-05T06:30:08Z</time>
      </trkpt>
      <trkpt lat="44.58518" lon="3.86521">
        <ele>1308.49</ele>
        <time>2022-08-05T06:30:24Z</time>
      </trkpt>
      <trkpt lat="44.5852" lon="3.86517">
        <ele>1308.49</ele>
        <time>2022-08-05T06:30:27Z</time>
      </trkpt>
      <trkpt lat="44.58524" lon="3.86497">
        <ele>1309.45</ele>
        <time>2022-08-05T06:30:40Z</time>
      </trkpt>
      <trkpt lat="44.58528" lon="3.86482">
        <ele>1308.97</ele>
        <time>2022-08-05T06:30:50Z</time>
      </trkpt>
      <trkpt lat="44.58531" lon="3.86471">
        <ele>1308.97</ele>
        <time>2022-08-05T06:30:58Z</time>
      </trkpt>
      <trkpt lat="44.58535" lon="3.8646">
        <ele>1309.45</ele>
        <time>2022-08-05T06:31:05Z</time>
      </trkpt>
      <trkpt lat="44.5854" lon="3.86436">
        <ele>1306.09</ele>
        <time>2022-08-05T06:31:21Z</time>
      </trkpt>
      <trkpt lat="44.58543" lon="3.86432">
        <ele>1305.61</ele>
        <time>2022-08-05T06:31:25Z</time>
      </trkpt>
      <trkpt lat="44.58545" lon="3.86405">
        <ele>1305.61</ele>
        <time>2022-08-05T06:31:41Z</time>
      </trkpt>
      <trkpt lat="44.58544" lon="3.86384">
        <ele>1306.57</ele>
        <time>2022-08-05T06:31:55Z</time>
      </trkpt>
      <trkpt lat="44.58544" lon="3.86368">
        <ele>1309.93</ele>
        <time>2022-08-05T06:32:07Z</time>
      </trkpt>
      <trkpt lat="44.58544" lon="3.86359">
        <ele>1309.93</ele>
        <time>2022-08-05T06:32:13Z</time>
      </trkpt>
      <trkpt lat="44.58544" lon="3.86332">
        <ele>1310.41</ele>
        <time>2022-08-05T06:32:31Z</time>
      </trkpt>
      <trkpt lat="44.58543" lon="3.86319">
        <ele>1310.41</ele>
        <time>2022-08-05T06:32:40Z</time>
      </trkpt>
      <trkpt lat="44.58544" lon="3.86316">
        <ele>1310.9</ele>
        <time>2022-08-05T06:32:42Z</time>
      </trkpt>
      <trkpt lat="44.58544" lon="3.86296">
        <ele>1312.34</ele>
        <time>2022-08-05T06:32:56Z</time>
      </trkpt>
      <trkpt lat="44.58543" lon="3.86292">
        <ele>1312.34</ele>
        <time>2022-08-05T06:32:59Z</time>
      </trkpt>
      <trkpt lat="44.58544" lon="3.86267">
        <ele>1310.9</ele>
        <time>2022-08-05T06:33:17Z</time>
      </trkpt>
      <trkpt lat="44.58546" lon="3.86245">
        <ele>1311.38</ele>
        <time>2022-08-05T06:33:32Z</time>
      </trkpt>
      <trkpt lat="44.58546" lon="3.8624">
        <ele>1310.9</ele>
        <time>2022-08-05T06:33:35Z</time>
      </trkpt>
      <trkpt lat="44.58546" lon="3.86231">
        <ele>1310.41</ele>
        <time>2022-08-05T06:33:41Z</time>
      </trkpt>
      <trkpt lat="44.58543" lon="3.86207">
        <ele>1312.34</ele>
        <time>2022-08-05T06:33:57Z</time>
      </trkpt>
      <trkpt lat="44.5854" lon="3.86183">
        <ele>1314.74</ele>
        <time>2022-08-05T06:34:13Z</time>
      </trkpt>
      <trkpt lat="44.58533" lon="3.86158">
        <ele>1315.7</ele>
        <time>2022-08-05T06:34:30Z</time>
      </trkpt>
      <trkpt lat="44.58524" lon="3.86136">
        <ele>1317.14</ele>
        <time>2022-08-05T06:34:46Z</time>
      </trkpt>
      <trkpt lat="44.58522" lon="3.86129">
        <ele>1317.62</ele>
        <time>2022-08-05T06:34:51Z</time>
      </trkpt>
      <trkpt lat="44.5852" lon="3.86124">
        <ele>1317.62</ele>
        <time>2022-08-05T06:34:54Z</time>
      </trkpt>
      <trkpt lat="44.58497" lon="3.86066">
        <ele>1316.66</ele>
        <time>2022-08-05T06:35:35Z</time>
      </trkpt>
      <trkpt lat="44.58489" lon="3.86048">
        <ele>1315.7</ele>
        <time>2022-08-05T06:35:49Z</time>
      </trkpt>
      <trkpt lat="44.58482" lon="3.86034">
        <ele>1315.7</ele>
        <time>2022-08-05T06:36:02Z</time>
      </trkpt>
      <trkpt lat="44.58473" lon="3.86017">
        <ele>1314.74</ele>
        <time>2022-08-05T06:36:15Z</time>
      </trkpt>
      <trkpt lat="44.58466" lon="3.86001">
        <ele>1314.74</ele>
        <time>2022-08-05T06:36:28Z</time>
      </trkpt>
      <trkpt lat="44.58459" lon="3.85983">
        <ele>1312.82</ele>
        <time>2022-08-05T06:36:41Z</time>
      </trkpt>
      <trkpt lat="44.58451" lon="3.85963">
        <ele>1308.01</ele>
        <time>2022-08-05T06:36:56Z</time>
      </trkpt>
      <trkpt lat="44.58444" lon="3.85942">
        <ele>1305.13</ele>
        <time>2022-08-05T06:37:10Z</time>
      </trkpt>
      <trkpt lat="44.58438" lon="3.85927">
        <ele>1302.72</ele>
        <time>2022-08-05T06:37:23Z</time>
      </trkpt>
      <trkpt lat="44.58436" lon="3.85908">
        <ele>1298.4</ele>
        <time>2022-08-05T06:37:35Z</time>
      </trkpt>
      <trkpt lat="44.5843" lon="3.85885">
        <ele>1293.59</ele>
        <time>2022-08-05T06:37:52Z</time>
      </trkpt>
      <trkpt lat="44.58424" lon="3.85858">
        <ele>1293.11</ele>
        <time>2022-08-05T06:38:10Z</time>
      </trkpt>
      <trkpt lat="44.58417" lon="3.85837">
        <ele>1292.63</ele>
        <time>2022-08-05T06:38:25Z</time>
      </trkpt>
      <trkpt lat="44.58407" lon="3.85815">
        <ele>1293.11</ele>
        <time>2022-08-05T06:38:39Z</time>
      </trkpt>
      <trkpt lat="44.584" lon="3.85792">
        <ele>1292.63</ele>
        <time>2022-08-05T06:38:55Z</time>
      </trkpt>
      <trkpt lat="44.58394" lon="3.85781">
        <ele>1293.59</ele>
        <time>2022-08-05T06:39:04Z</time>
      </trkpt>
      <trkpt lat="44.58383" lon="3.85761">
        <ele>1296.48</ele>
        <time>2022-08-05T06:39:19Z</time>
      </trkpt>
      <trkpt lat="44.58376" lon="3.85742">
        <ele>1298.4</ele>
        <time>2022-08-05T06:39:33Z</time>
      </trkpt>
      <trkpt lat="44.58369" lon="3.8572">
        <ele>1299.36</ele>
        <time>2022-08-05T06:39:50Z</time>
      </trkpt>
      <trkpt lat="44.58356" lon="3.85708">
        <ele>1304.17</ele>
        <time>2022-08-05T06:40:09Z</time>
      </trkpt>
      <trkpt lat="44.58337" lon="3.85707">
        <ele>1305.13</ele>
        <time>2022-08-05T06:40:23Z</time>
      </trkpt>
      <trkpt lat="44.58321" lon="3.85697">
        <ele>1304.65</ele>
        <time>2022-08-05T06:40:39Z</time>
      </trkpt>
      <trkpt lat="44.58311" lon="3.85683">
        <ele>1304.17</ele>
        <time>2022-08-05T06:40:54Z</time>
      </trkpt>
      <trkpt lat="44.58303" lon="3.85675">
        <ele>1305.13</ele>
        <time>2022-08-05T06:41:05Z</time>
      </trkpt>
      <trkpt lat="44.58287" lon="3.85662">
        <ele>1307.05</ele>
        <time>2022-08-05T06:41:22Z</time>
      </trkpt>
      <trkpt lat="44.58271" lon="3.85653">
        <ele>1308.97</ele>
        <time>2022-08-05T06:41:38Z</time>
      </trkpt>
      <trkpt lat="44.58258" lon="3.85641">
        <ele>1308.01</ele>
        <time>2022-08-05T06:41:53Z</time>
      </trkpt>
      <trkpt lat="44.58248" lon="3.85624">
        <ele>1305.61</ele>
        <time>2022-08-05T06:42:07Z</time>
      </trkpt>
      <trkpt lat="44.58237" lon="3.85609">
        <ele>1306.57</ele>
        <time>2022-08-05T06:42:20Z</time>
      </trkpt>
      <trkpt lat="44.58228" lon="3.85591">
        <ele>1307.53</ele>
        <time>2022-08-05T06:42:34Z</time>
      </trkpt>
      <trkpt lat="44.58219" lon="3.85573">
        <ele>1309.45</ele>
        <time>2022-08-05T06:42:47Z</time>
      </trkpt>
      <trkpt lat="44.58212" lon="3.8556">
        <ele>1312.34</ele>
        <time>2022-08-05T06:42:59Z</time>
      </trkpt>
      <trkpt lat="44.58202" lon="3.85543">
        <ele>1314.74</ele>
        <time>2022-08-05T06:43:13Z</time>
      </trkpt>
      <trkpt lat="44.58197" lon="3.85535">
        <ele>1316.18</ele>
        <time>2022-08-05T06:43:20Z</time>
      </trkpt>
      <trkpt lat="44.58191" lon="3.85514">
        <ele>1314.74</ele>
        <time>2022-08-05T06:43:36Z</time>
      </trkpt>
      <trkpt lat="44.58191" lon="3.85513">
        <ele>1314.74</ele>
        <time>2022-08-05T06:43:37Z</time>
      </trkpt>
      <trkpt lat="44.58185" lon="3.85493">
        <ele>1313.78</ele>
        <time>2022-08-05T06:43:52Z</time>
      </trkpt>
      <trkpt lat="44.58178" lon="3.85472">
        <ele>1310.41</ele>
        <time>2022-08-05T06:44:06Z</time>
      </trkpt>
      <trkpt lat="44.58169" lon="3.85453">
        <ele>1308.49</ele>
        <time>2022-08-05T06:44:21Z</time>
      </trkpt>
      <trkpt lat="44.5816" lon="3.85435">
        <ele>1307.05</ele>
        <time>2022-08-05T06:44:36Z</time>
      </trkpt>
      <trkpt lat="44.58153" lon="3.85416">
        <ele>1307.05</ele>
        <time>2022-08-05T06:44:50Z</time>
      </trkpt>
      <trkpt lat="44.58145" lon="3.85399">
        <ele>1307.53</ele>
        <time>2022-08-05T06:45:03Z</time>
      </trkpt>
      <trkpt lat="44.58137" lon="3.85379">
        <ele>1308.49</ele>
        <time>2022-08-05T06:45:20Z</time>
      </trkpt>
      <trkpt lat="44.5813" lon="3.85359">
        <ele>1309.93</ele>
        <time>2022-08-05T06:45:35Z</time>
      </trkpt>
      <trkpt lat="44.58123" lon="3.85343">
        <ele>1310.9</ele>
        <time>2022-08-05T06:45:47Z</time>
      </trkpt>
      <trkpt lat="44.58114" lon="3.85327">
        <ele>1310.9</ele>
        <time>2022-08-05T06:46:03Z</time>
      </trkpt>
      <trkpt lat="44.58102" lon="3.85304">
        <ele>1309.93</ele>
        <time>2022-08-05T06:46:19Z</time>
      </trkpt>
      <trkpt lat="44.58092" lon="3.85283">
        <ele>1313.3</ele>
        <time>2022-08-05T06:46:35Z</time>
      </trkpt>
      <trkpt lat="44.5809" lon="3.85273">
        <ele>1312.82</ele>
        <time>2022-08-05T06:46:41Z</time>
      </trkpt>
      <trkpt lat="44.58084" lon="3.85251">
        <ele>1313.78</ele>
        <time>2022-08-05T06:46:57Z</time>
      </trkpt>
      <trkpt lat="44.58076" lon="3.8523">
        <ele>1315.7</ele>
        <time>2022-08-05T06:47:13Z</time>
      </trkpt>
      <trkpt lat="44.58075" lon="3.85229">
        <ele>1315.7</ele>
        <time>2022-08-05T06:47:14Z</time>
      </trkpt>
      <trkpt lat="44.58067" lon="3.85205">
        <ele>1317.14</ele>
        <time>2022-08-05T06:47:31Z</time>
      </trkpt>
      <trkpt lat="44.58061" lon="3.85187">
        <ele>1319.07</ele>
        <time>2022-08-05T06:47:44Z</time>
      </trkpt>
      <trkpt lat="44.58056" lon="3.85158">
        <ele>1316.66</ele>
        <time>2022-08-05T06:48:05Z</time>
      </trkpt>
      <trkpt lat="44.58051" lon="3.85133">
        <ele>1315.22</ele>
        <time>2022-08-05T06:48:22Z</time>
      </trkpt>
      <trkpt lat="44.58044" lon="3.8511">
        <ele>1315.22</ele>
        <time>2022-08-05T06:48:38Z</time>
      </trkpt>
      <trkpt lat="44.5804" lon="3.85098">
        <ele>1315.7</ele>
        <time>2022-08-05T06:48:47Z</time>
      </trkpt>
      <trkpt lat="44.58033" lon="3.85071">
        <ele>1315.7</ele>
        <time>2022-08-05T06:49:04Z</time>
      </trkpt>
      <trkpt lat="44.58029" lon="3.85043">
        <ele>1312.82</ele>
        <time>2022-08-05T06:49:21Z</time>
      </trkpt>
      <trkpt lat="44.58022" lon="3.85021">
        <ele>1310.41</ele>
        <time>2022-08-05T06:49:36Z</time>
      </trkpt>
      <trkpt lat="44.58019" lon="3.85001">
        <ele>1308.97</ele>
        <time>2022-08-05T06:49:50Z</time>
      </trkpt>
      <trkpt lat="44.58018" lon="3.84996">
        <ele>1308.97</ele>
        <time>2022-08-05T06:49:53Z</time>
      </trkpt>
      <trkpt lat="44.58012" lon="3.84978">
        <ele>1309.93</ele>
        <time>2022-08-05T06:50:07Z</time>
      </trkpt>
      <trkpt lat="44.58011" lon="3.84973">
        <ele>1309.45</ele>
        <time>2022-08-05T06:50:10Z</time>
      </trkpt>
      <trkpt lat="44.58011" lon="3.84949">
        <ele>1308.01</ele>
        <time>2022-08-05T06:50:25Z</time>
      </trkpt>
      <trkpt lat="44.58013" lon="3.84924">
        <ele>1308.01</ele>
        <time>2022-08-05T06:50:40Z</time>
      </trkpt>
      <trkpt lat="44.58014" lon="3.84899">
        <ele>1307.53</ele>
        <time>2022-08-05T06:50:55Z</time>
      </trkpt>
      <trkpt lat="44.58009" lon="3.84874">
        <ele>1306.09</ele>
        <time>2022-08-05T06:51:12Z</time>
      </trkpt>
      <trkpt lat="44.58008" lon="3.84871">
        <ele>1306.09</ele>
        <time>2022-08-05T06:51:14Z</time>
      </trkpt>
      <trkpt lat="44.58002" lon="3.84857">
        <ele>1304.65</ele>
        <time>2022-08-05T06:51:24Z</time>
      </trkpt>
      <trkpt lat="44.57992" lon="3.8484">
        <ele>1306.57</ele>
        <time>2022-08-05T06:51:41Z</time>
      </trkpt>
      <trkpt lat="44.57981" lon="3.84821">
        <ele>1310.9</ele>
        <time>2022-08-05T06:51:59Z</time>
      </trkpt>
      <trkpt lat="44.5797" lon="3.84803">
        <ele>1312.82</ele>
        <time>2022-08-05T06:52:14Z</time>
      </trkpt>
      <trkpt lat="44.57955" lon="3.84789">
        <ele>1311.86</ele>
        <time>2022-08-05T06:52:27Z</time>
      </trkpt>
      <trkpt lat="44.57952" lon="3.84788">
        <ele>1312.34</ele>
        <time>2022-08-05T06:52:29Z</time>
      </trkpt>
      <trkpt lat="44.57946" lon="3.84785">
        <ele>1311.86</ele>
        <time>2022-08-05T06:52:35Z</time>
      </trkpt>
      <trkpt lat="44.57927" lon="3.84792">
        <ele>1310.9</ele>
        <time>2022-08-05T06:52:49Z</time>
      </trkpt>
      <trkpt lat="44.57909" lon="3.84803">
        <ele>1309.45</ele>
        <time>2022-08-05T06:53:05Z</time>
      </trkpt>
      <trkpt lat="44.57892" lon="3.84809">
        <ele>1310.41</ele>
        <time>2022-08-05T06:53:20Z</time>
      </trkpt>
      <trkpt lat="44.57885" lon="3.84813">
        <ele>1310.41</ele>
        <time>2022-08-05T06:53:27Z</time>
      </trkpt>
      <trkpt lat="44.57872" lon="3.8482">
        <ele>1310.9</ele>
        <time>2022-08-05T06:53:41Z</time>
      </trkpt>
      <trkpt lat="44.57857" lon="3.84825">
        <ele>1308.97</ele>
        <time>2022-08-05T06:53:56Z</time>
      </trkpt>
      <trkpt lat="44.57843" lon="3.8483">
        <ele>1310.41</ele>
        <time>2022-08-05T06:54:11Z</time>
      </trkpt>
      <trkpt lat="44.57835" lon="3.84839">
        <ele>1312.34</ele>
        <time>2022-08-05T06:54:26Z</time>
      </trkpt>
      <trkpt lat="44.57836" lon="3.8484">
        <ele>1310.9</ele>
        <time>2022-08-05T06:54:44Z</time>
      </trkpt>
      <trkpt lat="44.57839" lon="3.84836">
        <ele>1310.9</ele>
        <time>2022-08-05T06:55:13Z</time>
      </trkpt>
      <trkpt lat="44.57837" lon="3.84838">
        <ele>1309.45</ele>
        <time>2022-08-05T06:55:59Z</time>
      </trkpt>
      <trkpt lat="44.57838" lon="3.84838">
        <ele>1308.01</ele>
        <time>2022-08-05T06:56:42Z</time>
      </trkpt>
      <trkpt lat="44.57841" lon="3.8484">
        <ele>1307.53</ele>
        <time>2022-08-05T06:57:25Z</time>
      </trkpt>
      <trkpt lat="44.57838" lon="3.84836">
        <ele>1309.45</ele>
        <time>2022-08-05T06:58:01Z</time>
      </trkpt>
      <trkpt lat="44.57837" lon="3.84839">
        <ele>1311.38</ele>
        <time>2022-08-05T06:58:51Z</time>
      </trkpt>
      <trkpt lat="44.57839" lon="3.84838">
        <ele>1312.34</ele>
        <time>2022-08-05T06:59:30Z</time>
      </trkpt>
      <trkpt lat="44.57843" lon="3.84845">
        <ele>1304.65</ele>
        <time>2022-08-05T07:00:05Z</time>
      </trkpt>
      <trkpt lat="44.57839" lon="3.84843">
        <ele>1302.72</ele>
        <time>2022-08-05T07:00:42Z</time>
      </trkpt>
      <trkpt lat="44.57846" lon="3.84849">
        <ele>1302.24</ele>
        <time>2022-08-05T07:01:25Z</time>
      </trkpt>
      <trkpt lat="44.57848" lon="3.84843">
        <ele>1301.28</ele>
        <time>2022-08-05T07:01:59Z</time>
      </trkpt>
      <trkpt lat="44.57842" lon="3.84835">
        <ele>1308.01</ele>
        <time>2022-08-05T07:02:28Z</time>
      </trkpt>
      <trkpt lat="44.57841" lon="3.84841">
        <ele>1310.41</ele>
        <time>2022-08-05T07:03:10Z</time>
      </trkpt>
      <trkpt lat="44.57842" lon="3.84837">
        <ele>1302.24</ele>
        <time>2022-08-05T07:03:45Z</time>
      </trkpt>
      <trkpt lat="44.57832" lon="3.84833">
        <ele>1301.76</ele>
        <time>2022-08-05T07:04:11Z</time>
      </trkpt>
      <trkpt lat="44.57843" lon="3.84845">
        <ele>1301.76</ele>
        <time>2022-08-05T07:04:50Z</time>
      </trkpt>
      <trkpt lat="44.57843" lon="3.84845">
        <ele>1306.09</ele>
        <time>2022-08-05T07:05:33Z</time>
      </trkpt>
      <trkpt lat="44.57838" lon="3.84839">
        <ele>1307.05</ele>
        <time>2022-08-05T07:06:13Z</time>
      </trkpt>
      <trkpt lat="44.57837" lon="3.84836">
        <ele>1307.05</ele>
        <time>2022-08-05T07:06:34Z</time>
      </trkpt>
      <trkpt lat="44.57838" lon="3.84836">
        <ele>1309.93</ele>
        <time>2022-08-05T07:07:09Z</time>
      </trkpt>
      <trkpt lat="44.57841" lon="3.84844">
        <ele>1309.45</ele>
        <time>2022-08-05T07:07:41Z</time>
      </trkpt>
      <trkpt lat="44.57844" lon="3.84845">
        <ele>1308.49</ele>
        <time>2022-08-05T07:08:13Z</time>
      </trkpt>
      <trkpt lat="44.57849" lon="3.8485">
        <ele>1312.34</ele>
        <time>2022-08-05T07:08:45Z</time>
      </trkpt>
      <trkpt lat="44.57839" lon="3.84845">
        <ele>1315.7</ele>
        <time>2022-08-05T07:09:08Z</time>
      </trkpt>
      <trkpt lat="44.5784" lon="3.84852">
        <ele>1320.03</ele>
        <time>2022-08-05T07:09:28Z</time>
      </trkpt>
      <trkpt lat="44.5784" lon="3.84857">
        <ele>1323.39</ele>
        <time>2022-08-05T07:09:50Z</time>
      </trkpt>
      <trkpt lat="44.57843" lon="3.8486">
        <ele>1322.91</ele>
        <time>2022-08-05T07:10:17Z</time>
      </trkpt>
      <trkpt lat="44.57841" lon="3.84852">
        <ele>1317.62</ele>
        <time>2022-08-05T07:10:39Z</time>
      </trkpt>
      <trkpt lat="44.5782" lon="3.84847">
        <ele>1310.41</ele>
        <time>2022-08-05T07:10:52Z</time>
      </trkpt>
      <trkpt lat="44.57799" lon="3.84845">
        <ele>1306.57</ele>
        <time>2022-08-05T07:11:08Z</time>
      </trkpt>
      <trkpt lat="44.57785" lon="3.8485">
        <ele>1305.61</ele>
        <time>2022-08-05T07:11:22Z</time>
      </trkpt>
      <trkpt lat="44.57783" lon="3.8485">
        <ele>1305.61</ele>
        <time>2022-08-05T07:11:24Z</time>
      </trkpt>
      <trkpt lat="44.57766" lon="3.84851">
        <ele>1304.65</ele>
        <time>2022-08-05T07:11:39Z</time>
      </trkpt>
      <trkpt lat="44.57751" lon="3.84859">
        <ele>1301.76</ele>
        <time>2022-08-05T07:11:55Z</time>
      </trkpt>
      <trkpt lat="44.57749" lon="3.84861">
        <ele>1301.28</ele>
        <time>2022-08-05T07:11:59Z</time>
      </trkpt>
      <trkpt lat="44.57732" lon="3.84866">
        <ele>1298.4</ele>
        <time>2022-08-05T07:12:15Z</time>
      </trkpt>
      <trkpt lat="44.57714" lon="3.84867">
        <ele>1295.51</ele>
        <time>2022-08-05T07:12:31Z</time>
      </trkpt>
      <trkpt lat="44.57699" lon="3.8487">
        <ele>1294.07</ele>
        <time>2022-08-05T07:12:45Z</time>
      </trkpt>
      <trkpt lat="44.57684" lon="3.84876">
        <ele>1293.11</ele>
        <time>2022-08-05T07:13:00Z</time>
      </trkpt>
      <trkpt lat="44.5767" lon="3.84877">
        <ele>1296.48</ele>
        <time>2022-08-05T07:13:14Z</time>
      </trkpt>
      <trkpt lat="44.57654" lon="3.84883">
        <ele>1294.07</ele>
        <time>2022-08-05T07:13:30Z</time>
      </trkpt>
      <trkpt lat="44.57642" lon="3.84887">
        <ele>1293.11</ele>
        <time>2022-08-05T07:13:47Z</time>
      </trkpt>
      <trkpt lat="44.57627" lon="3.84886">
        <ele>1295.03</ele>
        <time>2022-08-05T07:14:03Z</time>
      </trkpt>
      <trkpt lat="44.57607" lon="3.84886">
        <ele>1294.07</ele>
        <time>2022-08-05T07:14:20Z</time>
      </trkpt>
      <trkpt lat="44.57589" lon="3.84885">
        <ele>1288.3</ele>
        <time>2022-08-05T07:14:34Z</time>
      </trkpt>
      <trkpt lat="44.57583" lon="3.84886">
        <ele>1287.34</ele>
        <time>2022-08-05T07:14:39Z</time>
      </trkpt>
      <trkpt lat="44.57566" lon="3.84896">
        <ele>1279.65</ele>
        <time>2022-08-05T07:14:54Z</time>
      </trkpt>
      <trkpt lat="44.57564" lon="3.84898">
        <ele>1279.17</ele>
        <time>2022-08-05T07:14:56Z</time>
      </trkpt>
      <trkpt lat="44.57548" lon="3.84904">
        <ele>1275.81</ele>
        <time>2022-08-05T07:15:12Z</time>
      </trkpt>
      <trkpt lat="44.57538" lon="3.84909">
        <ele>1274.85</ele>
        <time>2022-08-05T07:15:23Z</time>
      </trkpt>
      <trkpt lat="44.57535" lon="3.84911">
        <ele>1274.85</ele>
        <time>2022-08-05T07:15:25Z</time>
      </trkpt>
      <trkpt lat="44.57519" lon="3.84917">
        <ele>1272.44</ele>
        <time>2022-08-05T07:15:40Z</time>
      </trkpt>
      <trkpt lat="44.57509" lon="3.84924">
        <ele>1271.96</ele>
        <time>2022-08-05T07:15:53Z</time>
      </trkpt>
      <trkpt lat="44.57488" lon="3.84921">
        <ele>1272.92</ele>
        <time>2022-08-05T07:16:10Z</time>
      </trkpt>
      <trkpt lat="44.57474" lon="3.84922">
        <ele>1274.36</ele>
        <time>2022-08-05T07:16:23Z</time>
      </trkpt>
      <trkpt lat="44.5746" lon="3.84928">
        <ele>1273.88</ele>
        <time>2022-08-05T07:16:38Z</time>
      </trkpt>
      <trkpt lat="44.57445" lon="3.84937">
        <ele>1270.04</ele>
        <time>2022-08-05T07:16:54Z</time>
      </trkpt>
      <trkpt lat="44.57434" lon="3.84944">
        <ele>1268.6</ele>
        <time>2022-08-05T07:17:07Z</time>
      </trkpt>
      <trkpt lat="44.57424" lon="3.8495">
        <ele>1268.12</ele>
        <time>2022-08-05T07:17:18Z</time>
      </trkpt>
      <trkpt lat="44.57409" lon="3.84955">
        <ele>1266.19</ele>
        <time>2022-08-05T07:17:33Z</time>
      </trkpt>
      <trkpt lat="44.57395" lon="3.84957">
        <ele>1265.71</ele>
        <time>2022-08-05T07:17:47Z</time>
      </trkpt>
      <trkpt lat="44.57379" lon="3.84957">
        <ele>1263.31</ele>
        <time>2022-08-05T07:18:04Z</time>
      </trkpt>
      <trkpt lat="44.57367" lon="3.84958">
        <ele>1261.87</ele>
        <time>2022-08-05T07:18:16Z</time>
      </trkpt>
      <trkpt lat="44.5735" lon="3.84962">
        <ele>1258.5</ele>
        <time>2022-08-05T07:18:32Z</time>
      </trkpt>
      <trkpt lat="44.57336" lon="3.84961">
        <ele>1254.18</ele>
        <time>2022-08-05T07:18:47Z</time>
      </trkpt>
      <trkpt lat="44.57317" lon="3.84959">
        <ele>1252.25</ele>
        <time>2022-08-05T07:19:06Z</time>
      </trkpt>
      <trkpt lat="44.57302" lon="3.84954">
        <ele>1249.37</ele>
        <time>2022-08-05T07:19:22Z</time>
      </trkpt>
      <trkpt lat="44.57286" lon="3.84943">
        <ele>1247.45</ele>
        <time>2022-08-05T07:19:40Z</time>
      </trkpt>
      <trkpt lat="44.57274" lon="3.84933">
        <ele>1246.01</ele>
        <time>2022-08-05T07:19:55Z</time>
      </trkpt>
      <trkpt lat="44.57263" lon="3.84923">
        <ele>1244.08</ele>
        <time>2022-08-05T07:20:12Z</time>
      </trkpt>
      <trkpt lat="44.57251" lon="3.84909">
        <ele>1241.68</ele>
        <time>2022-08-05T07:20:29Z</time>
      </trkpt>
      <trkpt lat="44.57241" lon="3.84898">
        <ele>1238.8</ele>
        <time>2022-08-05T07:20:43Z</time>
      </trkpt>
      <trkpt lat="44.5723" lon="3.84884">
        <ele>1236.39</ele>
        <time>2022-08-05T07:20:59Z</time>
      </trkpt>
      <trkpt lat="44.57216" lon="3.84868">
        <ele>1234.47</ele>
        <time>2022-08-05T07:21:18Z</time>
      </trkpt>
      <trkpt lat="44.57204" lon="3.84854">
        <ele>1234.47</ele>
        <time>2022-08-05T07:21:34Z</time>
      </trkpt>
      <trkpt lat="44.57191" lon="3.84835">
        <ele>1235.91</ele>
        <time>2022-08-05T07:21:54Z</time>
      </trkpt>
      <trkpt lat="44.57181" lon="3.84824">
        <ele>1235.91</ele>
        <time>2022-08-05T07:22:08Z</time>
      </trkpt>
      <trkpt lat="44.57167" lon="3.84809">
        <ele>1233.51</ele>
        <time>2022-08-05T07:22:25Z</time>
      </trkpt>
      <trkpt lat="44.57156" lon="3.84795">
        <ele>1230.62</ele>
        <time>2022-08-05T07:22:39Z</time>
      </trkpt>
      <trkpt lat="44.57142" lon="3.8478">
        <ele>1226.78</ele>
        <time>2022-08-05T07:22:58Z</time>
      </trkpt>
      <trkpt lat="44.57124" lon="3.84768">
        <ele>1222.93</ele>
        <time>2022-08-05T07:23:17Z</time>
      </trkpt>
      <trkpt lat="44.57102" lon="3.84754">
        <ele>1226.78</ele>
        <time>2022-08-05T07:23:32Z</time>
      </trkpt>
      <trkpt lat="44.57085" lon="3.84749">
        <ele>1226.3</ele>
        <time>2022-08-05T07:23:47Z</time>
      </trkpt>
      <trkpt lat="44.57068" lon="3.84743">
        <ele>1225.82</ele>
        <time>2022-08-05T07:24:02Z</time>
      </trkpt>
      <trkpt lat="44.57053" lon="3.84741">
        <ele>1224.38</ele>
        <time>2022-08-05T07:24:17Z</time>
      </trkpt>
      <trkpt lat="44.57051" lon="3.84741">
        <ele>1223.9</ele>
        <time>2022-08-05T07:24:20Z</time>
      </trkpt>
      <trkpt lat="44.57034" lon="3.84743">
        <ele>1220.53</ele>
        <time>2022-08-05T07:24:36Z</time>
      </trkpt>
      <trkpt lat="44.57019" lon="3.84739">
        <ele>1219.09</ele>
        <time>2022-08-05T07:24:52Z</time>
      </trkpt>
      <trkpt lat="44.57" lon="3.84732">
        <ele>1218.61</ele>
        <time>2022-08-05T07:25:10Z</time>
      </trkpt>
      <trkpt lat="44.56986" lon="3.84725">
        <ele>1215.24</ele>
        <time>2022-08-05T07:25:27Z</time>
      </trkpt>
      <trkpt lat="44.56974" lon="3.84716">
        <ele>1214.28</ele>
        <time>2022-08-05T07:25:44Z</time>
      </trkpt>
      <trkpt lat="44.56962" lon="3.84708">
        <ele>1215.24</ele>
        <time>2022-08-05T07:25:58Z</time>
      </trkpt>
      <trkpt lat="44.56951" lon="3.84703">
        <ele>1214.28</ele>
        <time>2022-08-05T07:26:12Z</time>
      </trkpt>
      <trkpt lat="44.5694" lon="3.84694">
        <ele>1215.72</ele>
        <time>2022-08-05T07:26:27Z</time>
      </trkpt>
      <trkpt lat="44.56923" lon="3.84677">
        <ele>1215.72</ele>
        <time>2022-08-05T07:26:45Z</time>
      </trkpt>
      <trkpt lat="44.56911" lon="3.84675">
        <ele>1213.32</ele>
        <time>2022-08-05T07:27:01Z</time>
      </trkpt>
      <trkpt lat="44.5689" lon="3.84661">
        <ele>1212.84</ele>
        <time>2022-08-05T07:27:16Z</time>
      </trkpt>
      <trkpt lat="44.5687" lon="3.84654">
        <ele>1206.59</ele>
        <time>2022-08-05T07:27:31Z</time>
      </trkpt>
      <trkpt lat="44.56854" lon="3.84654">
        <ele>1201.79</ele>
        <time>2022-08-05T07:27:49Z</time>
      </trkpt>
      <trkpt lat="44.56838" lon="3.84648">
        <ele>1200.82</ele>
        <time>2022-08-05T07:28:06Z</time>
      </trkpt>
      <trkpt lat="44.56819" lon="3.84646">
        <ele>1196.5</ele>
        <time>2022-08-05T07:28:19Z</time>
      </trkpt>
      <trkpt lat="44.56817" lon="3.84646">
        <ele>1196.98</ele>
        <time>2022-08-05T07:28:21Z</time>
      </trkpt>
      <trkpt lat="44.56803" lon="3.84645">
        <ele>1194.58</ele>
        <time>2022-08-05T07:28:36Z</time>
      </trkpt>
      <trkpt lat="44.56782" lon="3.8464">
        <ele>1191.21</ele>
        <time>2022-08-05T07:28:53Z</time>
      </trkpt>
      <trkpt lat="44.56765" lon="3.84643">
        <ele>1189.77</ele>
        <time>2022-08-05T07:29:09Z</time>
      </trkpt>
      <trkpt lat="44.56746" lon="3.84646">
        <ele>1187.37</ele>
        <time>2022-08-05T07:29:25Z</time>
      </trkpt>
      <trkpt lat="44.56737" lon="3.84648">
        <ele>1185.92</ele>
        <time>2022-08-05T07:29:34Z</time>
      </trkpt>
      <trkpt lat="44.56719" lon="3.84657">
        <ele>1183.52</ele>
        <time>2022-08-05T07:29:50Z</time>
      </trkpt>
      <trkpt lat="44.56714" lon="3.84661">
        <ele>1182.56</ele>
        <time>2022-08-05T07:29:55Z</time>
      </trkpt>
      <trkpt lat="44.567" lon="3.84669">
        <ele>1180.64</ele>
        <time>2022-08-05T07:30:09Z</time>
      </trkpt>
      <trkpt lat="44.56695" lon="3.84672">
        <ele>1179.67</ele>
        <time>2022-08-05T07:30:13Z</time>
      </trkpt>
      <trkpt lat="44.56686" lon="3.84683">
        <ele>1176.79</ele>
        <time>2022-08-05T07:30:24Z</time>
      </trkpt>
      <trkpt lat="44.56673" lon="3.84699">
        <ele>1173.43</ele>
        <time>2022-08-05T07:30:39Z</time>
      </trkpt>
      <trkpt lat="44.56659" lon="3.84718">
        <ele>1170.54</ele>
        <time>2022-08-05T07:30:56Z</time>
      </trkpt>
      <trkpt lat="44.56647" lon="3.84737">
        <ele>1168.14</ele>
        <time>2022-08-05T07:31:13Z</time>
      </trkpt>
      <trkpt lat="44.56635" lon="3.84755">
        <ele>1165.26</ele>
        <time>2022-08-05T07:31:29Z</time>
      </trkpt>
      <trkpt lat="44.56625" lon="3.84771">
        <ele>1163.81</ele>
        <time>2022-08-05T07:31:43Z</time>
      </trkpt>
      <trkpt lat="44.56611" lon="3.84794">
        <ele>1161.89</ele>
        <time>2022-08-05T07:32:01Z</time>
      </trkpt>
      <trkpt lat="44.56597" lon="3.84814">
        <ele>1159.97</ele>
        <time>2022-08-05T07:32:19Z</time>
      </trkpt>
      <trkpt lat="44.56579" lon="3.84829">
        <ele>1158.53</ele>
        <time>2022-08-05T07:32:37Z</time>
      </trkpt>
      <trkpt lat="44.56565" lon="3.84842">
        <ele>1158.05</ele>
        <time>2022-08-05T07:32:52Z</time>
      </trkpt>
      <trkpt lat="44.56553" lon="3.84857">
        <ele>1157.56</ele>
        <time>2022-08-05T07:33:08Z</time>
      </trkpt>
      <trkpt lat="44.56541" lon="3.84877">
        <ele>1156.6</ele>
        <time>2022-08-05T07:33:24Z</time>
      </trkpt>
      <trkpt lat="44.56531" lon="3.84892">
        <ele>1153.72</ele>
        <time>2022-08-05T07:33:37Z</time>
      </trkpt>
      <trkpt lat="44.56528" lon="3.84901">
        <ele>1151.32</ele>
        <time>2022-08-05T07:33:44Z</time>
      </trkpt>
      <trkpt lat="44.56523" lon="3.84914">
        <ele>1149.87</ele>
        <time>2022-08-05T07:33:54Z</time>
      </trkpt>
      <trkpt lat="44.56517" lon="3.84938">
        <ele>1149.87</ele>
        <time>2022-08-05T07:34:09Z</time>
      </trkpt>
      <trkpt lat="44.56515" lon="3.84962">
        <ele>1149.39</ele>
        <time>2022-08-05T07:34:24Z</time>
      </trkpt>
      <trkpt lat="44.56518" lon="3.8499">
        <ele>1149.39</ele>
        <time>2022-08-05T07:34:40Z</time>
      </trkpt>
      <trkpt lat="44.56524" lon="3.85014">
        <ele>1149.87</ele>
        <time>2022-08-05T07:34:56Z</time>
      </trkpt>
      <trkpt lat="44.56525" lon="3.85016">
        <ele>1150.35</ele>
        <time>2022-08-05T07:34:57Z</time>
      </trkpt>
      <trkpt lat="44.56533" lon="3.85038">
        <ele>1152.28</ele>
        <time>2022-08-05T07:35:12Z</time>
      </trkpt>
      <trkpt lat="44.56535" lon="3.85043">
        <ele>1151.8</ele>
        <time>2022-08-05T07:35:16Z</time>
      </trkpt>
      <trkpt lat="44.56538" lon="3.8505">
        <ele>1152.28</ele>
        <time>2022-08-05T07:35:20Z</time>
      </trkpt>
      <trkpt lat="44.56544" lon="3.85071">
        <ele>1153.24</ele>
        <time>2022-08-05T07:35:34Z</time>
      </trkpt>
      <trkpt lat="44.5655" lon="3.85092">
        <ele>1152.28</ele>
        <time>2022-08-05T07:35:49Z</time>
      </trkpt>
      <trkpt lat="44.56551" lon="3.85102">
        <ele>1151.8</ele>
        <time>2022-08-05T07:35:54Z</time>
      </trkpt>
      <trkpt lat="44.56554" lon="3.85107">
        <ele>1152.28</ele>
        <time>2022-08-05T07:36:06Z</time>
      </trkpt>
      <trkpt lat="44.56554" lon="3.85108">
        <ele>1152.28</ele>
        <time>2022-08-05T07:36:09Z</time>
      </trkpt>
      <trkpt lat="44.56553" lon="3.85116">
        <ele>1151.8</ele>
        <time>2022-08-05T07:36:14Z</time>
      </trkpt>
      <trkpt lat="44.56558" lon="3.85138">
        <ele>1153.72</ele>
        <time>2022-08-05T07:36:28Z</time>
      </trkpt>
      <trkpt lat="44.56558" lon="3.85145">
        <ele>1153.72</ele>
        <time>2022-08-05T07:36:32Z</time>
      </trkpt>
      <trkpt lat="44.56559" lon="3.85167">
        <ele>1156.12</ele>
        <time>2022-08-05T07:36:45Z</time>
      </trkpt>
      <trkpt lat="44.56561" lon="3.85173">
        <ele>1156.12</ele>
        <time>2022-08-05T07:36:49Z</time>
      </trkpt>
      <trkpt lat="44.56562" lon="3.85181">
        <ele>1156.12</ele>
        <time>2022-08-05T07:36:54Z</time>
      </trkpt>
      <trkpt lat="44.56565" lon="3.85205">
        <ele>1155.64</ele>
        <time>2022-08-05T07:37:09Z</time>
      </trkpt>
      <trkpt lat="44.56565" lon="3.85207">
        <ele>1156.12</ele>
        <time>2022-08-05T07:37:10Z</time>
      </trkpt>
      <trkpt lat="44.56565" lon="3.85212">
        <ele>1156.12</ele>
        <time>2022-08-05T07:37:13Z</time>
      </trkpt>
      <trkpt lat="44.56567" lon="3.85226">
        <ele>1156.12</ele>
        <time>2022-08-05T07:37:22Z</time>
      </trkpt>
      <trkpt lat="44.56569" lon="3.85231">
        <ele>1155.64</ele>
        <time>2022-08-05T07:37:25Z</time>
      </trkpt>
      <trkpt lat="44.56569" lon="3.85254">
        <ele>1154.2</ele>
        <time>2022-08-05T07:37:40Z</time>
      </trkpt>
      <trkpt lat="44.56566" lon="3.85279">
        <ele>1153.72</ele>
        <time>2022-08-05T07:37:55Z</time>
      </trkpt>
      <trkpt lat="44.56565" lon="3.85298">
        <ele>1152.28</ele>
        <time>2022-08-05T07:38:07Z</time>
      </trkpt>
      <trkpt lat="44.56567" lon="3.85321">
        <ele>1147.47</ele>
        <time>2022-08-05T07:38:22Z</time>
      </trkpt>
      <trkpt lat="44.56563" lon="3.8532">
        <ele>1146.51</ele>
        <time>2022-08-05T07:38:28Z</time>
      </trkpt>
      <trkpt lat="44.56562" lon="3.85319">
        <ele>1146.51</ele>
        <time>2022-08-05T07:38:32Z</time>
      </trkpt>
      <trkpt lat="44.56572" lon="3.85337">
        <ele>1147.47</ele>
        <time>2022-08-05T07:38:47Z</time>
      </trkpt>
      <trkpt lat="44.56572" lon="3.85345">
        <ele>1146.99</ele>
        <time>2022-08-05T07:38:56Z</time>
      </trkpt>
      <trkpt lat="44.56563" lon="3.85322">
        <ele>1146.51</ele>
        <time>2022-08-05T07:39:13Z</time>
      </trkpt>
      <trkpt lat="44.56555" lon="3.85303">
        <ele>1146.51</ele>
        <time>2022-08-05T07:39:28Z</time>
      </trkpt>
      <trkpt lat="44.56553" lon="3.85299">
        <ele>1146.51</ele>
        <time>2022-08-05T07:39:31Z</time>
      </trkpt>
      <trkpt lat="44.56545" lon="3.85283">
        <ele>1145.07</ele>
        <time>2022-08-05T07:39:41Z</time>
      </trkpt>
      <trkpt lat="44.56543" lon="3.85269">
        <ele>1143.63</ele>
        <time>2022-08-05T07:39:50Z</time>
      </trkpt>
      <trkpt lat="44.56543" lon="3.85256">
        <ele>1142.18</ele>
        <time>2022-08-05T07:39:58Z</time>
      </trkpt>
      <trkpt lat="44.56542" lon="3.85228">
        <ele>1142.18</ele>
        <time>2022-08-05T07:40:15Z</time>
      </trkpt>
      <trkpt lat="44.56541" lon="3.85203">
        <ele>1141.22</ele>
        <time>2022-08-05T07:40:30Z</time>
      </trkpt>
      <trkpt lat="44.56538" lon="3.85183">
        <ele>1140.26</ele>
        <time>2022-08-05T07:40:46Z</time>
      </trkpt>
      <trkpt lat="44.5653" lon="3.85166">
        <ele>1140.26</ele>
        <time>2022-08-05T07:41:00Z</time>
      </trkpt>
      <trkpt lat="44.56515" lon="3.85145">
        <ele>1140.26</ele>
        <time>2022-08-05T07:41:16Z</time>
      </trkpt>
      <trkpt lat="44.56514" lon="3.85144">
        <ele>1139.78</ele>
        <time>2022-08-05T07:41:17Z</time>
      </trkpt>
      <trkpt lat="44.56511" lon="3.8514">
        <ele>1139.78</ele>
        <time>2022-08-05T07:41:20Z</time>
      </trkpt>
      <trkpt lat="44.56501" lon="3.85111">
        <ele>1135.45</ele>
        <time>2022-08-05T07:41:38Z</time>
      </trkpt>
      <trkpt lat="44.56481" lon="3.85092">
        <ele>1132.09</ele>
        <time>2022-08-05T07:41:55Z</time>
      </trkpt>
      <trkpt lat="44.56465" lon="3.85076">
        <ele>1130.65</ele>
        <time>2022-08-05T07:42:10Z</time>
      </trkpt>
      <trkpt lat="44.56447" lon="3.85066">
        <ele>1127.28</ele>
        <time>2022-08-05T07:42:25Z</time>
      </trkpt>
      <trkpt lat="44.56429" lon="3.8506">
        <ele>1126.32</ele>
        <time>2022-08-05T07:42:39Z</time>
      </trkpt>
      <trkpt lat="44.56415" lon="3.85052">
        <ele>1126.32</ele>
        <time>2022-08-05T07:42:53Z</time>
      </trkpt>
      <trkpt lat="44.564" lon="3.85045">
        <ele>1126.8</ele>
        <time>2022-08-05T07:43:09Z</time>
      </trkpt>
      <trkpt lat="44.56383" lon="3.85039">
        <ele>1128.24</ele>
        <time>2022-08-05T07:43:24Z</time>
      </trkpt>
      <trkpt lat="44.56364" lon="3.85035">
        <ele>1129.69</ele>
        <time>2022-08-05T07:43:38Z</time>
      </trkpt>
      <trkpt lat="44.56359" lon="3.85044">
        <ele>1126.8</ele>
        <time>2022-08-05T07:43:54Z</time>
      </trkpt>
      <trkpt lat="44.56361" lon="3.85042">
        <ele>1126.8</ele>
        <time>2022-08-05T07:44:10Z</time>
      </trkpt>
      <trkpt lat="44.56349" lon="3.8504">
        <ele>1127.28</ele>
        <time>2022-08-05T07:44:26Z</time>
      </trkpt>
      <trkpt lat="44.56332" lon="3.8504">
        <ele>1126.8</ele>
        <time>2022-08-05T07:44:41Z</time>
      </trkpt>
      <trkpt lat="44.56323" lon="3.85034">
        <ele>1128.73</ele>
        <time>2022-08-05T07:44:56Z</time>
      </trkpt>
      <trkpt lat="44.56317" lon="3.85019">
        <ele>1131.61</ele>
        <time>2022-08-05T07:45:14Z</time>
      </trkpt>
      <trkpt lat="44.56309" lon="3.85005">
        <ele>1134.01</ele>
        <time>2022-08-05T07:45:29Z</time>
      </trkpt>
      <trkpt lat="44.56302" lon="3.8499">
        <ele>1136.42</ele>
        <time>2022-08-05T07:45:44Z</time>
      </trkpt>
      <trkpt lat="44.56295" lon="3.84979">
        <ele>1139.3</ele>
        <time>2022-08-05T07:45:58Z</time>
      </trkpt>
      <trkpt lat="44.56285" lon="3.84967">
        <ele>1142.66</ele>
        <time>2022-08-05T07:46:12Z</time>
      </trkpt>
      <trkpt lat="44.5627" lon="3.84959">
        <ele>1145.07</ele>
        <time>2022-08-05T07:46:25Z</time>
      </trkpt>
      <trkpt lat="44.5625" lon="3.84951">
        <ele>1146.03</ele>
        <time>2022-08-05T07:46:41Z</time>
      </trkpt>
      <trkpt lat="44.56228" lon="3.84944">
        <ele>1144.11</ele>
        <time>2022-08-05T07:46:56Z</time>
      </trkpt>
      <trkpt lat="44.56225" lon="3.84944">
        <ele>1143.14</ele>
        <time>2022-08-05T07:46:58Z</time>
      </trkpt>
      <trkpt lat="44.56208" lon="3.8494">
        <ele>1140.74</ele>
        <time>2022-08-05T07:47:12Z</time>
      </trkpt>
      <trkpt lat="44.56193" lon="3.84935">
        <ele>1138.34</ele>
        <time>2022-08-05T07:47:27Z</time>
      </trkpt>
      <trkpt lat="44.56192" lon="3.84927">
        <ele>1134.49</ele>
        <time>2022-08-05T07:47:42Z</time>
      </trkpt>
      <trkpt lat="44.56183" lon="3.84922">
        <ele>1132.09</ele>
        <time>2022-08-05T07:47:54Z</time>
      </trkpt>
      <trkpt lat="44.56178" lon="3.84923">
        <ele>1129.69</ele>
        <time>2022-08-05T07:48:08Z</time>
      </trkpt>
      <trkpt lat="44.56176" lon="3.84914">
        <ele>1128.24</ele>
        <time>2022-08-05T07:48:22Z</time>
      </trkpt>
      <trkpt lat="44.56163" lon="3.84903">
        <ele>1125.84</ele>
        <time>2022-08-05T07:48:37Z</time>
      </trkpt>
      <trkpt lat="44.5615" lon="3.84893">
        <ele>1126.8</ele>
        <time>2022-08-05T07:48:50Z</time>
      </trkpt>
      <trkpt lat="44.56136" lon="3.84877">
        <ele>1127.76</ele>
        <time>2022-08-05T07:49:06Z</time>
      </trkpt>
      <trkpt lat="44.56122" lon="3.84869">
        <ele>1128.73</ele>
        <time>2022-08-05T07:49:20Z</time>
      </trkpt>
      <trkpt lat="44.56107" lon="3.84861">
        <ele>1130.17</ele>
        <time>2022-08-05T07:49:36Z</time>
      </trkpt>
      <trkpt lat="44.56093" lon="3.84847">
        <ele>1133.05</ele>
        <time>2022-08-05T07:49:54Z</time>
      </trkpt>
      <trkpt lat="44.56082" lon="3.84838">
        <ele>1134.97</ele>
        <time>2022-08-05T07:50:08Z</time>
      </trkpt>
      <trkpt lat="44.56073" lon="3.84828">
        <ele>1135.45</ele>
        <time>2022-08-05T07:50:22Z</time>
      </trkpt>
      <trkpt lat="44.56067" lon="3.84812">
        <ele>1137.86</ele>
        <time>2022-08-05T07:50:37Z</time>
      </trkpt>
      <trkpt lat="44.56064" lon="3.84814">
        <ele>1139.3</ele>
        <time>2022-08-05T07:50:52Z</time>
      </trkpt>
      <trkpt lat="44.56063" lon="3.84812">
        <ele>1139.78</ele>
        <time>2022-08-05T07:51:29Z</time>
      </trkpt>
      <trkpt lat="44.56065" lon="3.84807">
        <ele>1141.22</ele>
        <time>2022-08-05T07:51:44Z</time>
      </trkpt>
      <trkpt lat="44.56057" lon="3.84791">
        <ele>1141.7</ele>
        <time>2022-08-05T07:51:59Z</time>
      </trkpt>
      <trkpt lat="44.56054" lon="3.84785">
        <ele>1142.66</ele>
        <time>2022-08-05T07:52:05Z</time>
      </trkpt>
      <trkpt lat="44.56053" lon="3.84782">
        <ele>1143.14</ele>
        <time>2022-08-05T07:52:07Z</time>
      </trkpt>
      <trkpt lat="44.5604" lon="3.84767">
        <ele>1144.11</ele>
        <time>2022-08-05T07:52:23Z</time>
      </trkpt>
      <trkpt lat="44.56028" lon="3.84755">
        <ele>1144.11</ele>
        <time>2022-08-05T07:52:39Z</time>
      </trkpt>
      <trkpt lat="44.56016" lon="3.8474">
        <ele>1146.03</ele>
        <time>2022-08-05T07:52:57Z</time>
      </trkpt>
      <trkpt lat="44.56004" lon="3.84731">
        <ele>1147.47</ele>
        <time>2022-08-05T07:53:12Z</time>
      </trkpt>
      <trkpt lat="44.55987" lon="3.84721">
        <ele>1147.47</ele>
        <time>2022-08-05T07:53:28Z</time>
      </trkpt>
      <trkpt lat="44.5598" lon="3.84718">
        <ele>1148.43</ele>
        <time>2022-08-05T07:53:35Z</time>
      </trkpt>
      <trkpt lat="44.55967" lon="3.84711">
        <ele>1149.39</ele>
        <time>2022-08-05T07:53:50Z</time>
      </trkpt>
      <trkpt lat="44.5595" lon="3.84705">
        <ele>1151.32</ele>
        <time>2022-08-05T07:54:05Z</time>
      </trkpt>
      <trkpt lat="44.55938" lon="3.847">
        <ele>1153.72</ele>
        <time>2022-08-05T07:54:18Z</time>
      </trkpt>
      <trkpt lat="44.55919" lon="3.84698">
        <ele>1158.05</ele>
        <time>2022-08-05T07:54:35Z</time>
      </trkpt>
      <trkpt lat="44.55905" lon="3.84698">
        <ele>1159.01</ele>
        <time>2022-08-05T07:54:50Z</time>
      </trkpt>
      <trkpt lat="44.55893" lon="3.84698">
        <ele>1161.89</ele>
        <time>2022-08-05T07:55:04Z</time>
      </trkpt>
      <trkpt lat="44.55875" lon="3.84694">
        <ele>1161.89</ele>
        <time>2022-08-05T07:55:21Z</time>
      </trkpt>
      <trkpt lat="44.55861" lon="3.84694">
        <ele>1163.81</ele>
        <time>2022-08-05T07:55:36Z</time>
      </trkpt>
      <trkpt lat="44.5585" lon="3.84695">
        <ele>1166.22</ele>
        <time>2022-08-05T07:55:50Z</time>
      </trkpt>
      <trkpt lat="44.55836" lon="3.84688">
        <ele>1164.77</ele>
        <time>2022-08-05T07:56:05Z</time>
      </trkpt>
      <trkpt lat="44.55824" lon="3.84684">
        <ele>1163.81</ele>
        <time>2022-08-05T07:56:20Z</time>
      </trkpt>
      <trkpt lat="44.55817" lon="3.84677">
        <ele>1159.49</ele>
        <time>2022-08-05T07:56:35Z</time>
      </trkpt>
      <trkpt lat="44.55804" lon="3.84667">
        <ele>1159.49</ele>
        <time>2022-08-05T07:56:50Z</time>
      </trkpt>
      <trkpt lat="44.55791" lon="3.84659">
        <ele>1160.45</ele>
        <time>2022-08-05T07:57:07Z</time>
      </trkpt>
      <trkpt lat="44.55777" lon="3.84649">
        <ele>1163.33</ele>
        <time>2022-08-05T07:57:26Z</time>
      </trkpt>
      <trkpt lat="44.55767" lon="3.84638">
        <ele>1164.77</ele>
        <time>2022-08-05T07:57:41Z</time>
      </trkpt>
      <trkpt lat="44.55757" lon="3.84624">
        <ele>1167.18</ele>
        <time>2022-08-05T07:57:57Z</time>
      </trkpt>
      <trkpt lat="44.55744" lon="3.84608">
        <ele>1167.18</ele>
        <time>2022-08-05T07:58:14Z</time>
      </trkpt>
      <trkpt lat="44.55735" lon="3.8459">
        <ele>1167.18</ele>
        <time>2022-08-05T07:58:30Z</time>
      </trkpt>
      <trkpt lat="44.55725" lon="3.84573">
        <ele>1167.18</ele>
        <time>2022-08-05T07:58:45Z</time>
      </trkpt>
      <trkpt lat="44.55717" lon="3.84554">
        <ele>1166.22</ele>
        <time>2022-08-05T07:59:00Z</time>
      </trkpt>
      <trkpt lat="44.5571" lon="3.84531">
        <ele>1166.22</ele>
        <time>2022-08-05T07:59:16Z</time>
      </trkpt>
      <trkpt lat="44.55709" lon="3.84511">
        <ele>1165.74</ele>
        <time>2022-08-05T07:59:29Z</time>
      </trkpt>
      <trkpt lat="44.55706" lon="3.84484">
        <ele>1165.74</ele>
        <time>2022-08-05T07:59:46Z</time>
      </trkpt>
      <trkpt lat="44.55704" lon="3.84466">
        <ele>1165.74</ele>
        <time>2022-08-05T07:59:58Z</time>
      </trkpt>
      <trkpt lat="44.55702" lon="3.84436">
        <ele>1166.22</ele>
        <time>2022-08-05T08:00:16Z</time>
      </trkpt>
      <trkpt lat="44.55703" lon="3.84411">
        <ele>1168.14</ele>
        <time>2022-08-05T08:00:32Z</time>
      </trkpt>
      <trkpt lat="44.55702" lon="3.84401">
        <ele>1167.66</ele>
        <time>2022-08-05T08:00:38Z</time>
      </trkpt>
      <trkpt lat="44.55699" lon="3.84376">
        <ele>1167.18</ele>
        <time>2022-08-05T08:00:54Z</time>
      </trkpt>
      <trkpt lat="44.55696" lon="3.8435">
        <ele>1166.7</ele>
        <time>2022-08-05T08:01:11Z</time>
      </trkpt>
      <trkpt lat="44.55692" lon="3.84321">
        <ele>1166.22</ele>
        <time>2022-08-05T08:01:29Z</time>
      </trkpt>
      <trkpt lat="44.55691" lon="3.84311">
        <ele>1166.22</ele>
        <time>2022-08-05T08:01:35Z</time>
      </trkpt>
      <trkpt lat="44.55686" lon="3.84285">
        <ele>1165.74</ele>
        <time>2022-08-05T08:01:52Z</time>
      </trkpt>
      <trkpt lat="44.55682" lon="3.84265">
        <ele>1166.22</ele>
        <time>2022-08-05T08:02:06Z</time>
      </trkpt>
      <trkpt lat="44.5568" lon="3.84254">
        <ele>1166.7</ele>
        <time>2022-08-05T08:02:14Z</time>
      </trkpt>
      <trkpt lat="44.55676" lon="3.84224">
        <ele>1168.14</ele>
        <time>2022-08-05T08:02:33Z</time>
      </trkpt>
      <trkpt lat="44.55675" lon="3.84223">
        <ele>1168.14</ele>
        <time>2022-08-05T08:02:34Z</time>
      </trkpt>
      <trkpt lat="44.55672" lon="3.84198">
        <ele>1167.18</ele>
        <time>2022-08-05T08:02:49Z</time>
      </trkpt>
      <trkpt lat="44.55671" lon="3.84192">
        <ele>1166.7</ele>
        <time>2022-08-05T08:02:53Z</time>
      </trkpt>
      <trkpt lat="44.55671" lon="3.8417">
        <ele>1168.14</ele>
        <time>2022-08-05T08:03:09Z</time>
      </trkpt>
      <trkpt lat="44.55673" lon="3.84147">
        <ele>1171.98</ele>
        <time>2022-08-05T08:03:25Z</time>
      </trkpt>
      <trkpt lat="44.55673" lon="3.84146">
        <ele>1171.98</ele>
        <time>2022-08-05T08:03:26Z</time>
      </trkpt>
      <trkpt lat="44.55674" lon="3.84125">
        <ele>1174.39</ele>
        <time>2022-08-05T08:03:40Z</time>
      </trkpt>
      <trkpt lat="44.55673" lon="3.84102">
        <ele>1174.39</ele>
        <time>2022-08-05T08:03:57Z</time>
      </trkpt>
      <trkpt lat="44.55675" lon="3.84085">
        <ele>1174.39</ele>
        <time>2022-08-05T08:04:08Z</time>
      </trkpt>
      <trkpt lat="44.55674" lon="3.84064">
        <ele>1174.87</ele>
        <time>2022-08-05T08:04:21Z</time>
      </trkpt>
      <trkpt lat="44.55675" lon="3.84041">
        <ele>1179.19</ele>
        <time>2022-08-05T08:04:38Z</time>
      </trkpt>
      <trkpt lat="44.55675" lon="3.8404">
        <ele>1179.19</ele>
        <time>2022-08-05T08:04:39Z</time>
      </trkpt>
      <trkpt lat="44.55674" lon="3.84018">
        <ele>1180.16</ele>
        <time>2022-08-05T08:04:53Z</time>
      </trkpt>
      <trkpt lat="44.55673" lon="3.83996">
        <ele>1179.67</ele>
        <time>2022-08-05T08:05:07Z</time>
      </trkpt>
      <trkpt lat="44.55665" lon="3.83969">
        <ele>1176.79</ele>
        <time>2022-08-05T08:05:23Z</time>
      </trkpt>
      <trkpt lat="44.55663" lon="3.83961">
        <ele>1175.83</ele>
        <time>2022-08-05T08:05:29Z</time>
      </trkpt>
      <trkpt lat="44.55656" lon="3.83939">
        <ele>1176.31</ele>
        <time>2022-08-05T08:05:46Z</time>
      </trkpt>
      <trkpt lat="44.55648" lon="3.83915">
        <ele>1174.87</ele>
        <time>2022-08-05T08:06:02Z</time>
      </trkpt>
      <trkpt lat="44.55635" lon="3.83893">
        <ele>1174.87</ele>
        <time>2022-08-05T08:06:18Z</time>
      </trkpt>
      <trkpt lat="44.55631" lon="3.83886">
        <ele>1173.91</ele>
        <time>2022-08-05T08:06:23Z</time>
      </trkpt>
      <trkpt lat="44.55627" lon="3.83871">
        <ele>1172.47</ele>
        <time>2022-08-05T08:06:34Z</time>
      </trkpt>
      <trkpt lat="44.55624" lon="3.83853">
        <ele>1173.91</ele>
        <time>2022-08-05T08:06:47Z</time>
      </trkpt>
      <trkpt lat="44.5562" lon="3.83828">
        <ele>1175.35</ele>
        <time>2022-08-05T08:07:03Z</time>
      </trkpt>
      <trkpt lat="44.55616" lon="3.83809">
        <ele>1172.95</ele>
        <time>2022-08-05T08:07:15Z</time>
      </trkpt>
      <trkpt lat="44.55614" lon="3.83788">
        <ele>1172.95</ele>
        <time>2022-08-05T08:07:32Z</time>
      </trkpt>
      <trkpt lat="44.5561" lon="3.83785">
        <ele>1173.43</ele>
        <time>2022-08-05T08:07:41Z</time>
      </trkpt>
      <trkpt lat="44.55593" lon="3.83791">
        <ele>1173.91</ele>
        <time>2022-08-05T08:07:55Z</time>
      </trkpt>
      <trkpt lat="44.55578" lon="3.83804">
        <ele>1177.27</ele>
        <time>2022-08-05T08:08:11Z</time>
      </trkpt>
      <trkpt lat="44.55575" lon="3.83806">
        <ele>1177.27</ele>
        <time>2022-08-05T08:08:14Z</time>
      </trkpt>
      <trkpt lat="44.55561" lon="3.83822">
        <ele>1178.23</ele>
        <time>2022-08-05T08:08:31Z</time>
      </trkpt>
      <trkpt lat="44.5555" lon="3.8384">
        <ele>1176.31</ele>
        <time>2022-08-05T08:08:47Z</time>
      </trkpt>
      <trkpt lat="44.55544" lon="3.83849">
        <ele>1174.87</ele>
        <time>2022-08-05T08:08:55Z</time>
      </trkpt>
      <trkpt lat="44.55526" lon="3.83858">
        <ele>1174.39</ele>
        <time>2022-08-05T08:09:12Z</time>
      </trkpt>
      <trkpt lat="44.55508" lon="3.83873">
        <ele>1175.83</ele>
        <time>2022-08-05T08:09:29Z</time>
      </trkpt>
      <trkpt lat="44.5549" lon="3.83889">
        <ele>1178.71</ele>
        <time>2022-08-05T08:09:47Z</time>
      </trkpt>
      <trkpt lat="44.55477" lon="3.83901">
        <ele>1178.71</ele>
        <time>2022-08-05T08:10:02Z</time>
      </trkpt>
      <trkpt lat="44.55476" lon="3.83901">
        <ele>1179.19</ele>
        <time>2022-08-05T08:10:03Z</time>
      </trkpt>
      <trkpt lat="44.55462" lon="3.8391">
        <ele>1179.67</ele>
        <time>2022-08-05T08:10:18Z</time>
      </trkpt>
      <trkpt lat="44.55447" lon="3.83921">
        <ele>1181.12</ele>
        <time>2022-08-05T08:10:34Z</time>
      </trkpt>
      <trkpt lat="44.55445" lon="3.83912">
        <ele>1180.64</ele>
        <time>2022-08-05T08:10:48Z</time>
      </trkpt>
      <trkpt lat="44.55438" lon="3.83895">
        <ele>1178.23</ele>
        <time>2022-08-05T08:11:02Z</time>
      </trkpt>
      <trkpt lat="44.55431" lon="3.83876">
        <ele>1176.31</ele>
        <time>2022-08-05T08:11:18Z</time>
      </trkpt>
      <trkpt lat="44.55423" lon="3.83852">
        <ele>1175.35</ele>
        <time>2022-08-05T08:11:34Z</time>
      </trkpt>
      <trkpt lat="44.55414" lon="3.83831">
        <ele>1177.27</ele>
        <time>2022-08-05T08:11:52Z</time>
      </trkpt>
      <trkpt lat="44.55401" lon="3.83809">
        <ele>1177.27</ele>
        <time>2022-08-05T08:12:11Z</time>
      </trkpt>
      <trkpt lat="44.55393" lon="3.83788">
        <ele>1175.83</ele>
        <time>2022-08-05T08:12:26Z</time>
      </trkpt>
      <trkpt lat="44.55384" lon="3.83764">
        <ele>1174.87</ele>
        <time>2022-08-05T08:12:43Z</time>
      </trkpt>
      <trkpt lat="44.55376" lon="3.83741">
        <ele>1176.79</ele>
        <time>2022-08-05T08:12:59Z</time>
      </trkpt>
      <trkpt lat="44.55369" lon="3.83722">
        <ele>1175.35</ele>
        <time>2022-08-05T08:13:12Z</time>
      </trkpt>
      <trkpt lat="44.55359" lon="3.83698">
        <ele>1171.98</ele>
        <time>2022-08-05T08:13:30Z</time>
      </trkpt>
      <trkpt lat="44.55347" lon="3.83673">
        <ele>1173.91</ele>
        <time>2022-08-05T08:13:48Z</time>
      </trkpt>
      <trkpt lat="44.55339" lon="3.83648">
        <ele>1171.98</ele>
        <time>2022-08-05T08:14:03Z</time>
      </trkpt>
      <trkpt lat="44.55332" lon="3.83628">
        <ele>1170.06</ele>
        <time>2022-08-05T08:14:17Z</time>
      </trkpt>
      <trkpt lat="44.5533" lon="3.83607">
        <ele>1172.95</ele>
        <time>2022-08-05T08:14:32Z</time>
      </trkpt>
      <trkpt lat="44.5533" lon="3.83605">
        <ele>1172.95</ele>
        <time>2022-08-05T08:14:33Z</time>
      </trkpt>
      <trkpt lat="44.55322" lon="3.83585">
        <ele>1172.95</ele>
        <time>2022-08-05T08:14:48Z</time>
      </trkpt>
      <trkpt lat="44.55312" lon="3.83563">
        <ele>1175.83</ele>
        <time>2022-08-05T08:15:04Z</time>
      </trkpt>
      <trkpt lat="44.55309" lon="3.83559">
        <ele>1176.31</ele>
        <time>2022-08-05T08:15:06Z</time>
      </trkpt>
      <trkpt lat="44.55302" lon="3.83535">
        <ele>1178.23</ele>
        <time>2022-08-05T08:15:21Z</time>
      </trkpt>
      <trkpt lat="44.55293" lon="3.83515">
        <ele>1176.79</ele>
        <time>2022-08-05T08:15:36Z</time>
      </trkpt>
      <trkpt lat="44.5529" lon="3.8351">
        <ele>1176.31</ele>
        <time>2022-08-05T08:15:40Z</time>
      </trkpt>
      <trkpt lat="44.55274" lon="3.83497">
        <ele>1175.83</ele>
        <time>2022-08-05T08:15:55Z</time>
      </trkpt>
      <trkpt lat="44.5525" lon="3.83486">
        <ele>1174.87</ele>
        <time>2022-08-05T08:16:12Z</time>
      </trkpt>
      <trkpt lat="44.55227" lon="3.83478">
        <ele>1170.54</ele>
        <time>2022-08-05T08:16:26Z</time>
      </trkpt>
      <trkpt lat="44.55206" lon="3.83467">
        <ele>1168.14</ele>
        <time>2022-08-05T08:16:43Z</time>
      </trkpt>
      <trkpt lat="44.55197" lon="3.83456">
        <ele>1162.37</ele>
        <time>2022-08-05T08:16:53Z</time>
      </trkpt>
      <trkpt lat="44.5519" lon="3.83431">
        <ele>1158.53</ele>
        <time>2022-08-05T08:17:11Z</time>
      </trkpt>
      <trkpt lat="44.55192" lon="3.83407">
        <ele>1159.01</ele>
        <time>2022-08-05T08:17:25Z</time>
      </trkpt>
      <trkpt lat="44.55191" lon="3.83381">
        <ele>1158.53</ele>
        <time>2022-08-05T08:17:40Z</time>
      </trkpt>
      <trkpt lat="44.55186" lon="3.83346">
        <ele>1159.01</ele>
        <time>2022-08-05T08:18:01Z</time>
      </trkpt>
      <trkpt lat="44.55175" lon="3.83321">
        <ele>1157.08</ele>
        <time>2022-08-05T08:18:19Z</time>
      </trkpt>
      <trkpt lat="44.55163" lon="3.83301">
        <ele>1156.6</ele>
        <time>2022-08-05T08:18:35Z</time>
      </trkpt>
      <trkpt lat="44.55148" lon="3.83288">
        <ele>1158.53</ele>
        <time>2022-08-05T08:18:50Z</time>
      </trkpt>
      <trkpt lat="44.55131" lon="3.83276">
        <ele>1158.53</ele>
        <time>2022-08-05T08:19:07Z</time>
      </trkpt>
      <trkpt lat="44.55107" lon="3.83269">
        <ele>1157.56</ele>
        <time>2022-08-05T08:19:27Z</time>
      </trkpt>
      <trkpt lat="44.55091" lon="3.83267">
        <ele>1156.12</ele>
        <time>2022-08-05T08:19:42Z</time>
      </trkpt>
      <trkpt lat="44.55074" lon="3.83262">
        <ele>1157.08</ele>
        <time>2022-08-05T08:19:57Z</time>
      </trkpt>
      <trkpt lat="44.55053" lon="3.83253">
        <ele>1158.05</ele>
        <time>2022-08-05T08:20:14Z</time>
      </trkpt>
      <trkpt lat="44.55036" lon="3.83244">
        <ele>1159.49</ele>
        <time>2022-08-05T08:20:30Z</time>
      </trkpt>
      <trkpt lat="44.55019" lon="3.83226">
        <ele>1159.49</ele>
        <time>2022-08-05T08:20:49Z</time>
      </trkpt>
      <trkpt lat="44.55006" lon="3.83206">
        <ele>1159.49</ele>
        <time>2022-08-05T08:21:05Z</time>
      </trkpt>
      <trkpt lat="44.54999" lon="3.83183">
        <ele>1159.97</ele>
        <time>2022-08-05T08:21:21Z</time>
      </trkpt>
      <trkpt lat="44.54995" lon="3.83159">
        <ele>1161.41</ele>
        <time>2022-08-05T08:21:36Z</time>
      </trkpt>
      <trkpt lat="44.54995" lon="3.83133">
        <ele>1162.37</ele>
        <time>2022-08-05T08:21:52Z</time>
      </trkpt>
      <trkpt lat="44.54994" lon="3.83105">
        <ele>1162.85</ele>
        <time>2022-08-05T08:22:09Z</time>
      </trkpt>
      <trkpt lat="44.54994" lon="3.8309">
        <ele>1162.37</ele>
        <time>2022-08-05T08:22:17Z</time>
      </trkpt>
      <trkpt lat="44.54992" lon="3.8306">
        <ele>1163.33</ele>
        <time>2022-08-05T08:22:36Z</time>
      </trkpt>
      <trkpt lat="44.54986" lon="3.83033">
        <ele>1164.29</ele>
        <time>2022-08-05T08:22:53Z</time>
      </trkpt>
      <trkpt lat="44.54984" lon="3.83008">
        <ele>1163.33</ele>
        <time>2022-08-05T08:23:08Z</time>
      </trkpt>
      <trkpt lat="44.54983" lon="3.82985">
        <ele>1164.29</ele>
        <time>2022-08-05T08:23:22Z</time>
      </trkpt>
      <trkpt lat="44.54983" lon="3.82966">
        <ele>1167.18</ele>
        <time>2022-08-05T08:23:31Z</time>
      </trkpt>
      <trkpt lat="44.54985" lon="3.82958">
        <ele>1167.66</ele>
        <time>2022-08-05T08:23:36Z</time>
      </trkpt>
      <trkpt lat="44.54987" lon="3.82932">
        <ele>1168.62</ele>
        <time>2022-08-05T08:23:52Z</time>
      </trkpt>
      <trkpt lat="44.54992" lon="3.82907">
        <ele>1165.26</ele>
        <time>2022-08-05T08:24:08Z</time>
      </trkpt>
      <trkpt lat="44.54998" lon="3.8288">
        <ele>1162.37</ele>
        <time>2022-08-05T08:24:24Z</time>
      </trkpt>
      <trkpt lat="44.55001" lon="3.82854">
        <ele>1160.93</ele>
        <time>2022-08-05T08:24:40Z</time>
      </trkpt>
      <trkpt lat="44.55002" lon="3.82828">
        <ele>1159.49</ele>
        <time>2022-08-05T08:24:56Z</time>
      </trkpt>
      <trkpt lat="44.55002" lon="3.8282">
        <ele>1159.01</ele>
        <time>2022-08-05T08:25:00Z</time>
      </trkpt>
      <trkpt lat="44.55012" lon="3.82802">
        <ele>1159.49</ele>
        <time>2022-08-05T08:25:15Z</time>
      </trkpt>
      <trkpt lat="44.55021" lon="3.82788">
        <ele>1160.93</ele>
        <time>2022-08-05T08:25:28Z</time>
      </trkpt>
      <trkpt lat="44.55022" lon="3.82786">
        <ele>1160.93</ele>
        <time>2022-08-05T08:25:30Z</time>
      </trkpt>
      <trkpt lat="44.55023" lon="3.82783">
        <ele>1161.41</ele>
        <time>2022-08-05T08:25:32Z</time>
      </trkpt>
      <trkpt lat="44.55034" lon="3.82765">
        <ele>1162.85</ele>
        <time>2022-08-05T08:25:47Z</time>
      </trkpt>
      <trkpt lat="44.55043" lon="3.82758">
        <ele>1164.29</ele>
        <time>2022-08-05T08:26:02Z</time>
      </trkpt>
      <trkpt lat="44.55043" lon="3.82756">
        <ele>1163.81</ele>
        <time>2022-08-05T08:26:07Z</time>
      </trkpt>
      <trkpt lat="44.55053" lon="3.82736">
        <ele>1162.85</ele>
        <time>2022-08-05T08:26:22Z</time>
      </trkpt>
      <trkpt lat="44.55061" lon="3.82716">
        <ele>1162.37</ele>
        <time>2022-08-05T08:26:36Z</time>
      </trkpt>
      <trkpt lat="44.55069" lon="3.82697">
        <ele>1161.41</ele>
        <time>2022-08-05T08:26:50Z</time>
      </trkpt>
      <trkpt lat="44.55073" lon="3.82688">
        <ele>1161.89</ele>
        <time>2022-08-05T08:26:56Z</time>
      </trkpt>
      <trkpt lat="44.55081" lon="3.82661">
        <ele>1162.37</ele>
        <time>2022-08-05T08:27:12Z</time>
      </trkpt>
      <trkpt lat="44.55082" lon="3.82652">
        <ele>1162.85</ele>
        <time>2022-08-05T08:27:18Z</time>
      </trkpt>
      <trkpt lat="44.55076" lon="3.82645">
        <ele>1163.33</ele>
        <time>2022-08-05T08:27:32Z</time>
      </trkpt>
      <trkpt lat="44.55073" lon="3.82647">
        <ele>1163.81</ele>
        <time>2022-08-05T08:27:47Z</time>
      </trkpt>
      <trkpt lat="44.55071" lon="3.82651">
        <ele>1163.81</ele>
        <time>2022-08-05T08:28:18Z</time>
      </trkpt>
      <trkpt lat="44.5507" lon="3.82651">
        <ele>1162.85</ele>
        <time>2022-08-05T08:28:46Z</time>
      </trkpt>
      <trkpt lat="44.55072" lon="3.82647">
        <ele>1164.29</ele>
        <time>2022-08-05T08:29:14Z</time>
      </trkpt>
      <trkpt lat="44.55072" lon="3.82647">
        <ele>1164.29</ele>
        <time>2022-08-05T08:29:53Z</time>
      </trkpt>
      <trkpt lat="44.55071" lon="3.82646">
        <ele>1166.22</ele>
        <time>2022-08-05T08:30:27Z</time>
      </trkpt>
      <trkpt lat="44.55068" lon="3.82652">
        <ele>1168.62</ele>
        <time>2022-08-05T08:31:01Z</time>
      </trkpt>
      <trkpt lat="44.55069" lon="3.82651">
        <ele>1166.7</ele>
        <time>2022-08-05T08:31:28Z</time>
      </trkpt>
      <trkpt lat="44.5507" lon="3.82651">
        <ele>1166.22</ele>
        <time>2022-08-05T08:31:56Z</time>
      </trkpt>
      <trkpt lat="44.55069" lon="3.82656">
        <ele>1167.18</ele>
        <time>2022-08-05T08:32:35Z</time>
      </trkpt>
      <trkpt lat="44.55067" lon="3.82658">
        <ele>1171.5</ele>
        <time>2022-08-05T08:32:58Z</time>
      </trkpt>
      <trkpt lat="44.55071" lon="3.82646">
        <ele>1171.02</ele>
        <time>2022-08-05T08:33:36Z</time>
      </trkpt>
      <trkpt lat="44.55073" lon="3.82645">
        <ele>1166.7</ele>
        <time>2022-08-05T08:34:15Z</time>
      </trkpt>
      <trkpt lat="44.55075" lon="3.82641">
        <ele>1166.7</ele>
        <time>2022-08-05T08:34:46Z</time>
      </trkpt>
      <trkpt lat="44.55077" lon="3.8264">
        <ele>1165.26</ele>
        <time>2022-08-05T08:35:24Z</time>
      </trkpt>
      <trkpt lat="44.55076" lon="3.8264">
        <ele>1163.33</ele>
        <time>2022-08-05T08:35:56Z</time>
      </trkpt>
      <trkpt lat="44.55074" lon="3.82643">
        <ele>1165.26</ele>
        <time>2022-08-05T08:36:25Z</time>
      </trkpt>
      <trkpt lat="44.55074" lon="3.82645">
        <ele>1161.89</ele>
        <time>2022-08-05T08:37:06Z</time>
      </trkpt>
      <trkpt lat="44.55072" lon="3.82645">
        <ele>1161.89</ele>
        <time>2022-08-05T08:37:36Z</time>
      </trkpt>
      <trkpt lat="44.5507" lon="3.82648">
        <ele>1161.89</ele>
        <time>2022-08-05T08:38:08Z</time>
      </trkpt>
      <trkpt lat="44.55071" lon="3.82648">
        <ele>1161.89</ele>
        <time>2022-08-05T08:38:39Z</time>
      </trkpt>
      <trkpt lat="44.55075" lon="3.82647">
        <ele>1166.7</ele>
        <time>2022-08-05T08:39:17Z</time>
      </trkpt>
      <trkpt lat="44.55074" lon="3.82645">
        <ele>1166.7</ele>
        <time>2022-08-05T08:39:43Z</time>
      </trkpt>
      <trkpt lat="44.55076" lon="3.82647">
        <ele>1168.62</ele>
        <time>2022-08-05T08:40:18Z</time>
      </trkpt>
      <trkpt lat="44.55074" lon="3.82643">
        <ele>1169.1</ele>
        <time>2022-08-05T08:40:54Z</time>
      </trkpt>
      <trkpt lat="44.55074" lon="3.82643">
        <ele>1166.22</ele>
        <time>2022-08-05T08:41:34Z</time>
      </trkpt>
      <trkpt lat="44.55072" lon="3.82646">
        <ele>1163.81</ele>
        <time>2022-08-05T08:42:06Z</time>
      </trkpt>
      <trkpt lat="44.55072" lon="3.82646">
        <ele>1164.29</ele>
        <time>2022-08-05T08:42:36Z</time>
      </trkpt>
      <trkpt lat="44.55075" lon="3.82643">
        <ele>1166.22</ele>
        <time>2022-08-05T08:43:06Z</time>
      </trkpt>
      <trkpt lat="44.55074" lon="3.82644">
        <ele>1165.26</ele>
        <time>2022-08-05T08:43:37Z</time>
      </trkpt>
      <trkpt lat="44.55073" lon="3.82641">
        <ele>1167.18</ele>
        <time>2022-08-05T08:44:21Z</time>
      </trkpt>
      <trkpt lat="44.55074" lon="3.82643">
        <ele>1165.74</ele>
        <time>2022-08-05T08:44:46Z</time>
      </trkpt>
      <trkpt lat="44.55074" lon="3.82642">
        <ele>1165.26</ele>
        <time>2022-08-05T08:45:22Z</time>
      </trkpt>
      <trkpt lat="44.55074" lon="3.82639">
        <ele>1164.29</ele>
        <time>2022-08-05T08:46:01Z</time>
      </trkpt>
      <trkpt lat="44.55069" lon="3.82638">
        <ele>1165.26</ele>
        <time>2022-08-05T08:46:40Z</time>
      </trkpt>
      <trkpt lat="44.5507" lon="3.82642">
        <ele>1166.22</ele>
        <time>2022-08-05T08:47:16Z</time>
      </trkpt>
      <trkpt lat="44.55073" lon="3.82643">
        <ele>1163.81</ele>
        <time>2022-08-05T08:47:59Z</time>
      </trkpt>
      <trkpt lat="44.55073" lon="3.82648">
        <ele>1165.26</ele>
        <time>2022-08-05T08:48:38Z</time>
      </trkpt>
      <trkpt lat="44.55072" lon="3.82644">
        <ele>1165.26</ele>
        <time>2022-08-05T08:49:11Z</time>
      </trkpt>
      <trkpt lat="44.55072" lon="3.82643">
        <ele>1163.81</ele>
        <time>2022-08-05T08:49:42Z</time>
      </trkpt>
      <trkpt lat="44.55072" lon="3.82642">
        <ele>1163.81</ele>
        <time>2022-08-05T08:50:00Z</time>
      </trkpt>
      <trkpt lat="44.55072" lon="3.82642">
        <ele>1163.33</ele>
        <time>2022-08-05T08:50:25Z</time>
      </trkpt>
      <trkpt lat="44.55073" lon="3.82643">
        <ele>1162.37</ele>
        <time>2022-08-05T08:50:42Z</time>
      </trkpt>
      <trkpt lat="44.55074" lon="3.82643">
        <ele>1161.41</ele>
        <time>2022-08-05T08:51:04Z</time>
      </trkpt>
      <trkpt lat="44.55073" lon="3.82643">
        <ele>1162.85</ele>
        <time>2022-08-05T08:51:25Z</time>
      </trkpt>
      <trkpt lat="44.55073" lon="3.82644">
        <ele>1165.74</ele>
        <time>2022-08-05T08:51:46Z</time>
      </trkpt>
      <trkpt lat="44.55074" lon="3.82643">
        <ele>1164.29</ele>
        <time>2022-08-05T08:52:05Z</time>
      </trkpt>
      <trkpt lat="44.55073" lon="3.82645">
        <ele>1164.29</ele>
        <time>2022-08-05T08:52:30Z</time>
      </trkpt>
      <trkpt lat="44.55073" lon="3.82647">
        <ele>1165.26</ele>
        <time>2022-08-05T08:52:55Z</time>
      </trkpt>
      <trkpt lat="44.55074" lon="3.82649">
        <ele>1164.77</ele>
        <time>2022-08-05T08:53:24Z</time>
      </trkpt>
      <trkpt lat="44.55071" lon="3.82649">
        <ele>1167.66</ele>
        <time>2022-08-05T08:53:55Z</time>
      </trkpt>
      <trkpt lat="44.55073" lon="3.82652">
        <ele>1169.1</ele>
        <time>2022-08-05T08:54:12Z</time>
      </trkpt>
      <trkpt lat="44.55075" lon="3.82647">
        <ele>1168.62</ele>
        <time>2022-08-05T08:54:55Z</time>
      </trkpt>
      <trkpt lat="44.55074" lon="3.82648">
        <ele>1169.1</ele>
        <time>2022-08-05T08:55:34Z</time>
      </trkpt>
      <trkpt lat="44.55075" lon="3.82651">
        <ele>1170.06</ele>
        <time>2022-08-05T08:56:10Z</time>
      </trkpt>
      <trkpt lat="44.55076" lon="3.8265">
        <ele>1170.06</ele>
        <time>2022-08-05T08:56:44Z</time>
      </trkpt>
      <trkpt lat="44.55078" lon="3.82649">
        <ele>1168.62</ele>
        <time>2022-08-05T08:57:15Z</time>
      </trkpt>
      <trkpt lat="44.55074" lon="3.8265">
        <ele>1168.62</ele>
        <time>2022-08-05T08:57:34Z</time>
      </trkpt>
      <trkpt lat="44.55075" lon="3.82647">
        <ele>1167.18</ele>
        <time>2022-08-05T08:57:58Z</time>
      </trkpt>
      <trkpt lat="44.55074" lon="3.82651">
        <ele>1166.22</ele>
        <time>2022-08-05T08:58:19Z</time>
      </trkpt>
      <trkpt lat="44.55076" lon="3.82648">
        <ele>1165.26</ele>
        <time>2022-08-05T08:58:35Z</time>
      </trkpt>
      <trkpt lat="44.5508" lon="3.82646">
        <ele>1164.77</ele>
        <time>2022-08-05T08:58:41Z</time>
      </trkpt>
      <trkpt lat="44.55089" lon="3.82628">
        <ele>1166.22</ele>
        <time>2022-08-05T08:58:55Z</time>
      </trkpt>
      <trkpt lat="44.55091" lon="3.82621">
        <ele>1166.22</ele>
        <time>2022-08-05T08:59:06Z</time>
      </trkpt>
      <trkpt lat="44.5509" lon="3.82617">
        <ele>1166.22</ele>
        <time>2022-08-05T08:59:21Z</time>
      </trkpt>
      <trkpt lat="44.55091" lon="3.82613">
        <ele>1165.74</ele>
        <time>2022-08-05T08:59:24Z</time>
      </trkpt>
      <trkpt lat="44.55088" lon="3.82592">
        <ele>1165.74</ele>
        <time>2022-08-05T08:59:38Z</time>
      </trkpt>
      <trkpt lat="44.55087" lon="3.82586">
        <ele>1164.77</ele>
        <time>2022-08-05T08:59:42Z</time>
      </trkpt>
      <trkpt lat="44.55078" lon="3.82564">
        <ele>1165.26</ele>
        <time>2022-08-05T08:59:58Z</time>
      </trkpt>
      <trkpt lat="44.55079" lon="3.82562">
        <ele>1164.77</ele>
        <time>2022-08-05T09:00:03Z</time>
      </trkpt>
      <trkpt lat="44.5509" lon="3.82562">
        <ele>1170.54</ele>
        <time>2022-08-05T09:00:20Z</time>
      </trkpt>
      <trkpt lat="44.551" lon="3.82563">
        <ele>1182.56</ele>
        <time>2022-08-05T09:00:36Z</time>
      </trkpt>
      <trkpt lat="44.55112" lon="3.82551">
        <ele>1184.48</ele>
        <time>2022-08-05T09:00:50Z</time>
      </trkpt>
      <trkpt lat="44.55112" lon="3.82543">
        <ele>1184</ele>
        <time>2022-08-05T09:00:55Z</time>
      </trkpt>
      <trkpt lat="44.55114" lon="3.82524">
        <ele>1183.04</ele>
        <time>2022-08-05T09:01:09Z</time>
      </trkpt>
      <trkpt lat="44.55119" lon="3.82513">
        <ele>1182.56</ele>
        <time>2022-08-05T09:01:22Z</time>
      </trkpt>
      <trkpt lat="44.55122" lon="3.825">
        <ele>1182.56</ele>
        <time>2022-08-05T09:01:33Z</time>
      </trkpt>
      <trkpt lat="44.55121" lon="3.82492">
        <ele>1182.56</ele>
        <time>2022-08-05T09:01:39Z</time>
      </trkpt>
      <trkpt lat="44.55119" lon="3.82486">
        <ele>1184.48</ele>
        <time>2022-08-05T09:01:53Z</time>
      </trkpt>
      <trkpt lat="44.5512" lon="3.82482">
        <ele>1185.44</ele>
        <time>2022-08-05T09:02:01Z</time>
      </trkpt>
      <trkpt lat="44.55124" lon="3.82464">
        <ele>1185.44</ele>
        <time>2022-08-05T09:02:17Z</time>
      </trkpt>
      <trkpt lat="44.55121" lon="3.82444">
        <ele>1185.92</ele>
        <time>2022-08-05T09:02:30Z</time>
      </trkpt>
      <trkpt lat="44.55116" lon="3.82426">
        <ele>1186.88</ele>
        <time>2022-08-05T09:02:42Z</time>
      </trkpt>
      <trkpt lat="44.5511" lon="3.82404">
        <ele>1187.37</ele>
        <time>2022-08-05T09:03:00Z</time>
      </trkpt>
      <trkpt lat="44.55107" lon="3.82382">
        <ele>1186.88</ele>
        <time>2022-08-05T09:03:16Z</time>
      </trkpt>
      <trkpt lat="44.55101" lon="3.82358">
        <ele>1185.44</ele>
        <time>2022-08-05T09:03:31Z</time>
      </trkpt>
      <trkpt lat="44.55101" lon="3.8233">
        <ele>1185.44</ele>
        <time>2022-08-05T09:03:48Z</time>
      </trkpt>
      <trkpt lat="44.551" lon="3.82311">
        <ele>1184.48</ele>
        <time>2022-08-05T09:04:01Z</time>
      </trkpt>
      <trkpt lat="44.551" lon="3.82309">
        <ele>1184</ele>
        <time>2022-08-05T09:04:02Z</time>
      </trkpt>
      <trkpt lat="44.55098" lon="3.82295">
        <ele>1182.56</ele>
        <time>2022-08-05T09:04:12Z</time>
      </trkpt>
      <trkpt lat="44.55097" lon="3.82285">
        <ele>1182.08</ele>
        <time>2022-08-05T09:04:19Z</time>
      </trkpt>
      <trkpt lat="44.55097" lon="3.82279">
        <ele>1182.08</ele>
        <time>2022-08-05T09:04:23Z</time>
      </trkpt>
      <trkpt lat="44.55093" lon="3.8225">
        <ele>1181.6</ele>
        <time>2022-08-05T09:04:43Z</time>
      </trkpt>
      <trkpt lat="44.55093" lon="3.82227">
        <ele>1180.64</ele>
        <time>2022-08-05T09:05:00Z</time>
      </trkpt>
      <trkpt lat="44.55095" lon="3.82203">
        <ele>1176.79</ele>
        <time>2022-08-05T09:05:18Z</time>
      </trkpt>
      <trkpt lat="44.55095" lon="3.82198">
        <ele>1176.31</ele>
        <time>2022-08-05T09:05:22Z</time>
      </trkpt>
      <trkpt lat="44.55095" lon="3.82192">
        <ele>1174.87</ele>
        <time>2022-08-05T09:05:26Z</time>
      </trkpt>
      <trkpt lat="44.55094" lon="3.82167">
        <ele>1169.58</ele>
        <time>2022-08-05T09:05:43Z</time>
      </trkpt>
      <trkpt lat="44.55094" lon="3.82144">
        <ele>1166.22</ele>
        <time>2022-08-05T09:05:59Z</time>
      </trkpt>
      <trkpt lat="44.55093" lon="3.82121">
        <ele>1162.37</ele>
        <time>2022-08-05T09:06:14Z</time>
      </trkpt>
      <trkpt lat="44.55096" lon="3.82097">
        <ele>1159.49</ele>
        <time>2022-08-05T09:06:30Z</time>
      </trkpt>
      <trkpt lat="44.55096" lon="3.82081">
        <ele>1158.53</ele>
        <time>2022-08-05T09:06:41Z</time>
      </trkpt>
      <trkpt lat="44.55102" lon="3.82056">
        <ele>1159.97</ele>
        <time>2022-08-05T09:06:58Z</time>
      </trkpt>
      <trkpt lat="44.55103" lon="3.82031">
        <ele>1158.53</ele>
        <time>2022-08-05T09:07:14Z</time>
      </trkpt>
      <trkpt lat="44.551" lon="3.82009">
        <ele>1155.64</ele>
        <time>2022-08-05T09:07:29Z</time>
      </trkpt>
      <trkpt lat="44.55097" lon="3.81983">
        <ele>1153.24</ele>
        <time>2022-08-05T09:07:46Z</time>
      </trkpt>
      <trkpt lat="44.55094" lon="3.81972">
        <ele>1152.76</ele>
        <time>2022-08-05T09:07:53Z</time>
      </trkpt>
      <trkpt lat="44.55088" lon="3.81948">
        <ele>1150.35</ele>
        <time>2022-08-05T09:08:10Z</time>
      </trkpt>
      <trkpt lat="44.55086" lon="3.81946">
        <ele>1150.35</ele>
        <time>2022-08-05T09:08:12Z</time>
      </trkpt>
      <trkpt lat="44.55078" lon="3.81924">
        <ele>1148.91</ele>
        <time>2022-08-05T09:08:29Z</time>
      </trkpt>
      <trkpt lat="44.55071" lon="3.81916">
        <ele>1148.43</ele>
        <time>2022-08-05T09:08:36Z</time>
      </trkpt>
      <trkpt lat="44.5506" lon="3.81898">
        <ele>1147.47</ele>
        <time>2022-08-05T09:08:51Z</time>
      </trkpt>
      <trkpt lat="44.55049" lon="3.81883">
        <ele>1145.07</ele>
        <time>2022-08-05T09:09:05Z</time>
      </trkpt>
      <trkpt lat="44.55036" lon="3.81866">
        <ele>1142.18</ele>
        <time>2022-08-05T09:09:22Z</time>
      </trkpt>
      <trkpt lat="44.55024" lon="3.81848">
        <ele>1139.78</ele>
        <time>2022-08-05T09:09:38Z</time>
      </trkpt>
      <trkpt lat="44.5501" lon="3.81829">
        <ele>1138.82</ele>
        <time>2022-08-05T09:09:56Z</time>
      </trkpt>
      <trkpt lat="44.55002" lon="3.81819">
        <ele>1138.34</ele>
        <time>2022-08-05T09:10:06Z</time>
      </trkpt>
      <trkpt lat="44.54999" lon="3.81813">
        <ele>1137.38</ele>
        <time>2022-08-05T09:10:11Z</time>
      </trkpt>
      <trkpt lat="44.54982" lon="3.81794">
        <ele>1136.9</ele>
        <time>2022-08-05T09:10:30Z</time>
      </trkpt>
      <trkpt lat="44.54966" lon="3.81774">
        <ele>1135.45</ele>
        <time>2022-08-05T09:10:49Z</time>
      </trkpt>
      <trkpt lat="44.54951" lon="3.81753">
        <ele>1134.97</ele>
        <time>2022-08-05T09:11:08Z</time>
      </trkpt>
      <trkpt lat="44.54949" lon="3.81747">
        <ele>1134.49</ele>
        <time>2022-08-05T09:11:13Z</time>
      </trkpt>
      <trkpt lat="44.54948" lon="3.81741">
        <ele>1134.01</ele>
        <time>2022-08-05T09:11:17Z</time>
      </trkpt>
      <trkpt lat="44.54943" lon="3.81735">
        <ele>1134.49</ele>
        <time>2022-08-05T09:11:31Z</time>
      </trkpt>
      <trkpt lat="44.54944" lon="3.81734">
        <ele>1134.01</ele>
        <time>2022-08-05T09:11:42Z</time>
      </trkpt>
      <trkpt lat="44.54946" lon="3.81734">
        <ele>1134.49</ele>
        <time>2022-08-05T09:11:44Z</time>
      </trkpt>
      <trkpt lat="44.54945" lon="3.81717">
        <ele>1132.57</ele>
        <time>2022-08-05T09:11:56Z</time>
      </trkpt>
      <trkpt lat="44.54942" lon="3.81701">
        <ele>1131.61</ele>
        <time>2022-08-05T09:12:11Z</time>
      </trkpt>
      <trkpt lat="44.54942" lon="3.817">
        <ele>1131.61</ele>
        <time>2022-08-05T09:12:14Z</time>
      </trkpt>
      <trkpt lat="44.54943" lon="3.81693">
        <ele>1131.13</ele>
        <time>2022-08-05T09:12:19Z</time>
      </trkpt>
      <trkpt lat="44.54938" lon="3.81686">
        <ele>1132.09</ele>
        <time>2022-08-05T09:12:31Z</time>
      </trkpt>
      <trkpt lat="44.5494" lon="3.81684">
        <ele>1132.57</ele>
        <time>2022-08-05T09:12:51Z</time>
      </trkpt>
      <trkpt lat="44.54936" lon="3.81677">
        <ele>1133.53</ele>
        <time>2022-08-05T09:13:08Z</time>
      </trkpt>
      <trkpt lat="44.54938" lon="3.81676">
        <ele>1134.97</ele>
        <time>2022-08-05T09:13:42Z</time>
      </trkpt>
      <trkpt lat="44.54939" lon="3.81676">
        <ele>1134.49</ele>
        <time>2022-08-05T09:13:43Z</time>
      </trkpt>
      <trkpt lat="44.5494" lon="3.81674">
        <ele>1134.01</ele>
        <time>2022-08-05T09:13:45Z</time>
      </trkpt>
      <trkpt lat="44.5494" lon="3.81668">
        <ele>1133.53</ele>
        <time>2022-08-05T09:13:49Z</time>
      </trkpt>
      <trkpt lat="44.54939" lon="3.81646">
        <ele>1132.09</ele>
        <time>2022-08-05T09:14:02Z</time>
      </trkpt>
      <trkpt lat="44.54937" lon="3.8164">
        <ele>1133.05</ele>
        <time>2022-08-05T09:14:14Z</time>
      </trkpt>
      <trkpt lat="44.54939" lon="3.81642">
        <ele>1131.61</ele>
        <time>2022-08-05T09:14:30Z</time>
      </trkpt>
      <trkpt lat="44.54946" lon="3.81624">
        <ele>1128.73</ele>
        <time>2022-08-05T09:14:44Z</time>
      </trkpt>
      <trkpt lat="44.54951" lon="3.8162">
        <ele>1127.76</ele>
        <time>2022-08-05T09:14:49Z</time>
      </trkpt>
      <trkpt lat="44.54951" lon="3.81611">
        <ele>1127.28</ele>
        <time>2022-08-05T09:14:56Z</time>
      </trkpt>
      <trkpt lat="44.54937" lon="3.81606">
        <ele>1126.32</ele>
        <time>2022-08-05T09:15:07Z</time>
      </trkpt>
      <trkpt lat="44.54923" lon="3.81607">
        <ele>1123.92</ele>
        <time>2022-08-05T09:15:20Z</time>
      </trkpt>
      <trkpt lat="44.5492" lon="3.81606">
        <ele>1123.92</ele>
        <time>2022-08-05T09:15:23Z</time>
      </trkpt>
      <trkpt lat="44.54917" lon="3.81593">
        <ele>1121.52</ele>
        <time>2022-08-05T09:15:34Z</time>
      </trkpt>
      <trkpt lat="44.54921" lon="3.8158">
        <ele>1120.55</ele>
        <time>2022-08-05T09:15:48Z</time>
      </trkpt>
      <trkpt lat="44.54921" lon="3.8158">
        <ele>1117.67</ele>
        <time>2022-08-05T09:16:03Z</time>
      </trkpt>
      <trkpt lat="44.54923" lon="3.81578">
        <ele>1118.15</ele>
        <time>2022-08-05T09:16:13Z</time>
      </trkpt>
      <trkpt lat="44.54926" lon="3.81575">
        <ele>1117.67</ele>
        <time>2022-08-05T09:16:19Z</time>
      </trkpt>
      <trkpt lat="44.54937" lon="3.81565">
        <ele>1117.67</ele>
        <time>2022-08-05T09:16:32Z</time>
      </trkpt>
      <trkpt lat="44.54938" lon="3.81564">
        <ele>1117.67</ele>
        <time>2022-08-05T09:16:33Z</time>
      </trkpt>
      <trkpt lat="44.54955" lon="3.81565">
        <ele>1117.19</ele>
        <time>2022-08-05T09:16:52Z</time>
      </trkpt>
      <trkpt lat="44.54968" lon="3.81566">
        <ele>1114.79</ele>
        <time>2022-08-05T09:17:06Z</time>
      </trkpt>
      <trkpt lat="44.54978" lon="3.81562">
        <ele>1114.31</ele>
        <time>2022-08-05T09:17:15Z</time>
      </trkpt>
      <trkpt lat="44.54981" lon="3.81558">
        <ele>1114.31</ele>
        <time>2022-08-05T09:17:18Z</time>
      </trkpt>
      <trkpt lat="44.54983" lon="3.81555">
        <ele>1113.82</ele>
        <time>2022-08-05T09:17:20Z</time>
      </trkpt>
      <trkpt lat="44.54971" lon="3.81545">
        <ele>1109.02</ele>
        <time>2022-08-05T09:17:36Z</time>
      </trkpt>
      <trkpt lat="44.5496" lon="3.81539">
        <ele>1103.25</ele>
        <time>2022-08-05T09:17:50Z</time>
      </trkpt>
      <trkpt lat="44.54958" lon="3.8154">
        <ele>1102.77</ele>
        <time>2022-08-05T09:17:52Z</time>
      </trkpt>
      <trkpt lat="44.5494" lon="3.81533">
        <ele>1097.96</ele>
        <time>2022-08-05T09:18:10Z</time>
      </trkpt>
      <trkpt lat="44.54921" lon="3.81532">
        <ele>1094.12</ele>
        <time>2022-08-05T09:18:28Z</time>
      </trkpt>
      <trkpt lat="44.5491" lon="3.81523">
        <ele>1090.75</ele>
        <time>2022-08-05T09:18:43Z</time>
      </trkpt>
      <trkpt lat="44.54909" lon="3.81521">
        <ele>1090.75</ele>
        <time>2022-08-05T09:18:45Z</time>
      </trkpt>
      <trkpt lat="44.54901" lon="3.81504">
        <ele>1090.27</ele>
        <time>2022-08-05T09:18:58Z</time>
      </trkpt>
      <trkpt lat="44.54893" lon="3.81493">
        <ele>1088.83</ele>
        <time>2022-08-05T09:19:09Z</time>
      </trkpt>
      <trkpt lat="44.54882" lon="3.81479">
        <ele>1089.31</ele>
        <time>2022-08-05T09:19:22Z</time>
      </trkpt>
      <trkpt lat="44.54869" lon="3.81464">
        <ele>1090.27</ele>
        <time>2022-08-05T09:19:36Z</time>
      </trkpt>
      <trkpt lat="44.54859" lon="3.81449">
        <ele>1085.47</ele>
        <time>2022-08-05T09:19:50Z</time>
      </trkpt>
      <trkpt lat="44.54846" lon="3.81457">
        <ele>1084.99</ele>
        <time>2022-08-05T09:19:57Z</time>
      </trkpt>
      <trkpt lat="44.5483" lon="3.81467">
        <ele>1084.5</ele>
        <time>2022-08-05T09:20:13Z</time>
      </trkpt>
      <trkpt lat="44.54825" lon="3.81471">
        <ele>1082.1</ele>
        <time>2022-08-05T09:20:25Z</time>
      </trkpt>
      <trkpt lat="44.54823" lon="3.81471">
        <ele>1083.06</ele>
        <time>2022-08-05T09:20:27Z</time>
      </trkpt>
      <trkpt lat="44.54803" lon="3.81488">
        <ele>1086.91</ele>
        <time>2022-08-05T09:20:38Z</time>
      </trkpt>
      <trkpt lat="44.54795" lon="3.81506">
        <ele>1092.68</ele>
        <time>2022-08-05T09:20:50Z</time>
      </trkpt>
      <trkpt lat="44.54785" lon="3.8151">
        <ele>1096.52</ele>
        <time>2022-08-05T09:20:58Z</time>
      </trkpt>
      <trkpt lat="44.54773" lon="3.81521">
        <ele>1097.48</ele>
        <time>2022-08-05T09:21:13Z</time>
      </trkpt>
      <trkpt lat="44.54758" lon="3.81531">
        <ele>1097.48</ele>
        <time>2022-08-05T09:21:26Z</time>
      </trkpt>
      <trkpt lat="44.54746" lon="3.81535">
        <ele>1094.12</ele>
        <time>2022-08-05T09:21:42Z</time>
      </trkpt>
      <trkpt lat="44.54736" lon="3.81532">
        <ele>1091.71</ele>
        <time>2022-08-05T09:21:57Z</time>
      </trkpt>
      <trkpt lat="44.54727" lon="3.81524">
        <ele>1091.23</ele>
        <time>2022-08-05T09:22:11Z</time>
      </trkpt>
      <trkpt lat="44.5471" lon="3.81519">
        <ele>1091.71</ele>
        <time>2022-08-05T09:22:27Z</time>
      </trkpt>
      <trkpt lat="44.54692" lon="3.81516">
        <ele>1091.71</ele>
        <time>2022-08-05T09:22:44Z</time>
      </trkpt>
      <trkpt lat="44.54684" lon="3.81514">
        <ele>1094.12</ele>
        <time>2022-08-05T09:22:52Z</time>
      </trkpt>
      <trkpt lat="44.54668" lon="3.81517">
        <ele>1095.08</ele>
        <time>2022-08-05T09:23:07Z</time>
      </trkpt>
      <trkpt lat="44.54657" lon="3.81516">
        <ele>1100.37</ele>
        <time>2022-08-05T09:23:21Z</time>
      </trkpt>
      <trkpt lat="44.54641" lon="3.81518">
        <ele>1105.17</ele>
        <time>2022-08-05T09:23:39Z</time>
      </trkpt>
      <trkpt lat="44.54628" lon="3.81526">
        <ele>1110.46</ele>
        <time>2022-08-05T09:23:53Z</time>
      </trkpt>
      <trkpt lat="44.54616" lon="3.81531">
        <ele>1112.38</ele>
        <time>2022-08-05T09:24:06Z</time>
      </trkpt>
      <trkpt lat="44.54607" lon="3.81531">
        <ele>1114.31</ele>
        <time>2022-08-05T09:24:14Z</time>
      </trkpt>
      <trkpt lat="44.54609" lon="3.81529">
        <ele>1113.34</ele>
        <time>2022-08-05T09:24:28Z</time>
      </trkpt>
      <trkpt lat="44.5461" lon="3.81529">
        <ele>1113.82</ele>
        <time>2022-08-05T09:24:30Z</time>
      </trkpt>
      <trkpt lat="44.5462" lon="3.81526">
        <ele>1118.63</ele>
        <time>2022-08-05T09:24:43Z</time>
      </trkpt>
      <trkpt lat="44.54622" lon="3.81522">
        <ele>1119.59</ele>
        <time>2022-08-05T09:24:46Z</time>
      </trkpt>
      <trkpt lat="44.54614" lon="3.81512">
        <ele>1121.52</ele>
        <time>2022-08-05T09:24:59Z</time>
      </trkpt>
      <trkpt lat="44.54606" lon="3.81505">
        <ele>1120.55</ele>
        <time>2022-08-05T09:25:12Z</time>
      </trkpt>
      <trkpt lat="44.54595" lon="3.81497">
        <ele>1117.67</ele>
        <time>2022-08-05T09:25:26Z</time>
      </trkpt>
      <trkpt lat="44.54587" lon="3.81484">
        <ele>1116.71</ele>
        <time>2022-08-05T09:25:41Z</time>
      </trkpt>
      <trkpt lat="44.54577" lon="3.81473">
        <ele>1116.71</ele>
        <time>2022-08-05T09:25:56Z</time>
      </trkpt>
      <trkpt lat="44.54566" lon="3.81463">
        <ele>1119.11</ele>
        <time>2022-08-05T09:26:12Z</time>
      </trkpt>
      <trkpt lat="44.54555" lon="3.81453">
        <ele>1120.07</ele>
        <time>2022-08-05T09:26:27Z</time>
      </trkpt>
      <trkpt lat="44.54544" lon="3.81446">
        <ele>1121.03</ele>
        <time>2022-08-05T09:26:43Z</time>
      </trkpt>
      <trkpt lat="44.54532" lon="3.81438">
        <ele>1121.03</ele>
        <time>2022-08-05T09:27:00Z</time>
      </trkpt>
      <trkpt lat="44.54522" lon="3.81433">
        <ele>1120.07</ele>
        <time>2022-08-05T09:27:16Z</time>
      </trkpt>
      <trkpt lat="44.54511" lon="3.81425">
        <ele>1120.07</ele>
        <time>2022-08-05T09:27:30Z</time>
      </trkpt>
      <trkpt lat="44.54505" lon="3.81413">
        <ele>1122</ele>
        <time>2022-08-05T09:27:44Z</time>
      </trkpt>
      <trkpt lat="44.54501" lon="3.81399">
        <ele>1122.96</ele>
        <time>2022-08-05T09:27:58Z</time>
      </trkpt>
      <trkpt lat="44.5449" lon="3.81388">
        <ele>1123.92</ele>
        <time>2022-08-05T09:28:13Z</time>
      </trkpt>
      <trkpt lat="44.54488" lon="3.81376">
        <ele>1128.73</ele>
        <time>2022-08-05T09:28:30Z</time>
      </trkpt>
      <trkpt lat="44.54491" lon="3.81366">
        <ele>1130.17</ele>
        <time>2022-08-05T09:28:38Z</time>
      </trkpt>
      <trkpt lat="44.54496" lon="3.81339">
        <ele>1131.61</ele>
        <time>2022-08-05T09:28:57Z</time>
      </trkpt>
      <trkpt lat="44.54503" lon="3.81319">
        <ele>1130.17</ele>
        <time>2022-08-05T09:29:12Z</time>
      </trkpt>
      <trkpt lat="44.54512" lon="3.81301">
        <ele>1126.8</ele>
        <time>2022-08-05T09:29:28Z</time>
      </trkpt>
      <trkpt lat="44.54512" lon="3.81292">
        <ele>1126.8</ele>
        <time>2022-08-05T09:29:35Z</time>
      </trkpt>
      <trkpt lat="44.54511" lon="3.81286">
        <ele>1125.84</ele>
        <time>2022-08-05T09:29:39Z</time>
      </trkpt>
      <trkpt lat="44.54507" lon="3.81262">
        <ele>1123.44</ele>
        <time>2022-08-05T09:29:55Z</time>
      </trkpt>
      <trkpt lat="44.54501" lon="3.81239">
        <ele>1121.03</ele>
        <time>2022-08-05T09:30:12Z</time>
      </trkpt>
      <trkpt lat="44.5449" lon="3.8122">
        <ele>1118.63</ele>
        <time>2022-08-05T09:30:28Z</time>
      </trkpt>
      <trkpt lat="44.54479" lon="3.81204">
        <ele>1116.71</ele>
        <time>2022-08-05T09:30:44Z</time>
      </trkpt>
      <trkpt lat="44.54471" lon="3.81184">
        <ele>1113.82</ele>
        <time>2022-08-05T09:31:02Z</time>
      </trkpt>
      <trkpt lat="44.54463" lon="3.81166">
        <ele>1112.38</ele>
        <time>2022-08-05T09:31:19Z</time>
      </trkpt>
      <trkpt lat="44.54455" lon="3.81161">
        <ele>1111.42</ele>
        <time>2022-08-05T09:31:27Z</time>
      </trkpt>
      <trkpt lat="44.5445" lon="3.81162">
        <ele>1110.94</ele>
        <time>2022-08-05T09:31:31Z</time>
      </trkpt>
      <trkpt lat="44.54445" lon="3.81161">
        <ele>1110.46</ele>
        <time>2022-08-05T09:31:34Z</time>
      </trkpt>
      <trkpt lat="44.54439" lon="3.81161">
        <ele>1109.5</ele>
        <time>2022-08-05T09:31:39Z</time>
      </trkpt>
      <trkpt lat="44.54422" lon="3.81152">
        <ele>1110.94</ele>
        <time>2022-08-05T09:31:55Z</time>
      </trkpt>
      <trkpt lat="44.54402" lon="3.81145">
        <ele>1108.06</ele>
        <time>2022-08-05T09:32:12Z</time>
      </trkpt>
      <trkpt lat="44.54384" lon="3.81141">
        <ele>1104.69</ele>
        <time>2022-08-05T09:32:28Z</time>
      </trkpt>
      <trkpt lat="44.54377" lon="3.81133">
        <ele>1104.21</ele>
        <time>2022-08-05T09:32:37Z</time>
      </trkpt>
      <trkpt lat="44.54377" lon="3.81111">
        <ele>1107.1</ele>
        <time>2022-08-05T09:32:52Z</time>
      </trkpt>
      <trkpt lat="44.54378" lon="3.81105">
        <ele>1108.06</ele>
        <time>2022-08-05T09:32:58Z</time>
      </trkpt>
      <trkpt lat="44.54388" lon="3.81091">
        <ele>1109.5</ele>
        <time>2022-08-05T09:33:13Z</time>
      </trkpt>
      <trkpt lat="44.54401" lon="3.81077">
        <ele>1111.9</ele>
        <time>2022-08-05T09:33:29Z</time>
      </trkpt>
      <trkpt lat="44.54416" lon="3.81065">
        <ele>1113.34</ele>
        <time>2022-08-05T09:33:47Z</time>
      </trkpt>
      <trkpt lat="44.54428" lon="3.81056">
        <ele>1114.31</ele>
        <time>2022-08-05T09:34:03Z</time>
      </trkpt>
      <trkpt lat="44.54432" lon="3.81053">
        <ele>1115.27</ele>
        <time>2022-08-05T09:34:08Z</time>
      </trkpt>
      <trkpt lat="44.54443" lon="3.81043">
        <ele>1118.15</ele>
        <time>2022-08-05T09:34:24Z</time>
      </trkpt>
      <trkpt lat="44.54458" lon="3.81032">
        <ele>1120.07</ele>
        <time>2022-08-05T09:34:42Z</time>
      </trkpt>
      <trkpt lat="44.54463" lon="3.81026">
        <ele>1121.03</ele>
        <time>2022-08-05T09:34:49Z</time>
      </trkpt>
      <trkpt lat="44.54475" lon="3.81016">
        <ele>1124.4</ele>
        <time>2022-08-05T09:35:05Z</time>
      </trkpt>
      <trkpt lat="44.54485" lon="3.81005">
        <ele>1125.36</ele>
        <time>2022-08-05T09:35:20Z</time>
      </trkpt>
      <trkpt lat="44.54497" lon="3.80995">
        <ele>1127.76</ele>
        <time>2022-08-05T09:35:36Z</time>
      </trkpt>
      <trkpt lat="44.54508" lon="3.80979">
        <ele>1129.21</ele>
        <time>2022-08-05T09:35:55Z</time>
      </trkpt>
      <trkpt lat="44.54513" lon="3.8096">
        <ele>1130.65</ele>
        <time>2022-08-05T09:36:11Z</time>
      </trkpt>
      <trkpt lat="44.54517" lon="3.80939">
        <ele>1132.09</ele>
        <time>2022-08-05T09:36:29Z</time>
      </trkpt>
      <trkpt lat="44.54517" lon="3.80918">
        <ele>1133.53</ele>
        <time>2022-08-05T09:36:45Z</time>
      </trkpt>
      <trkpt lat="44.54517" lon="3.80902">
        <ele>1134.97</ele>
        <time>2022-08-05T09:36:58Z</time>
      </trkpt>
      <trkpt lat="44.54518" lon="3.80876">
        <ele>1134.01</ele>
        <time>2022-08-05T09:37:17Z</time>
      </trkpt>
      <trkpt lat="44.54521" lon="3.80857">
        <ele>1133.05</ele>
        <time>2022-08-05T09:37:31Z</time>
      </trkpt>
      <trkpt lat="44.54521" lon="3.80834">
        <ele>1131.13</ele>
        <time>2022-08-05T09:37:46Z</time>
      </trkpt>
      <trkpt lat="44.54526" lon="3.80803">
        <ele>1132.57</ele>
        <time>2022-08-05T09:38:06Z</time>
      </trkpt>
      <trkpt lat="44.54527" lon="3.80778">
        <ele>1133.05</ele>
        <time>2022-08-05T09:38:22Z</time>
      </trkpt>
      <trkpt lat="44.54532" lon="3.80752">
        <ele>1133.53</ele>
        <time>2022-08-05T09:38:40Z</time>
      </trkpt>
      <trkpt lat="44.54536" lon="3.8073">
        <ele>1134.01</ele>
        <time>2022-08-05T09:38:55Z</time>
      </trkpt>
      <trkpt lat="44.54538" lon="3.80708">
        <ele>1134.49</ele>
        <time>2022-08-05T09:39:10Z</time>
      </trkpt>
      <trkpt lat="44.54539" lon="3.80683">
        <ele>1135.45</ele>
        <time>2022-08-05T09:39:28Z</time>
      </trkpt>
      <trkpt lat="44.54541" lon="3.80655">
        <ele>1135.45</ele>
        <time>2022-08-05T09:39:46Z</time>
      </trkpt>
      <trkpt lat="44.54541" lon="3.80632">
        <ele>1134.97</ele>
        <time>2022-08-05T09:40:01Z</time>
      </trkpt>
      <trkpt lat="44.54539" lon="3.80608">
        <ele>1131.13</ele>
        <time>2022-08-05T09:40:18Z</time>
      </trkpt>
      <trkpt lat="44.54538" lon="3.80603">
        <ele>1130.65</ele>
        <time>2022-08-05T09:40:21Z</time>
      </trkpt>
      <trkpt lat="44.54537" lon="3.80578">
        <ele>1128.73</ele>
        <time>2022-08-05T09:40:37Z</time>
      </trkpt>
      <trkpt lat="44.54531" lon="3.80554">
        <ele>1128.73</ele>
        <time>2022-08-05T09:40:54Z</time>
      </trkpt>
      <trkpt lat="44.54528" lon="3.80538">
        <ele>1129.21</ele>
        <time>2022-08-05T09:41:05Z</time>
      </trkpt>
      <trkpt lat="44.54527" lon="3.80535">
        <ele>1129.21</ele>
        <time>2022-08-05T09:41:07Z</time>
      </trkpt>
      <trkpt lat="44.5452" lon="3.80508">
        <ele>1130.65</ele>
        <time>2022-08-05T09:41:26Z</time>
      </trkpt>
      <trkpt lat="44.54511" lon="3.80486">
        <ele>1130.65</ele>
        <time>2022-08-05T09:41:43Z</time>
      </trkpt>
      <trkpt lat="44.54501" lon="3.80472">
        <ele>1131.61</ele>
        <time>2022-08-05T09:41:57Z</time>
      </trkpt>
      <trkpt lat="44.54496" lon="3.80463">
        <ele>1132.57</ele>
        <time>2022-08-05T09:42:05Z</time>
      </trkpt>
      <trkpt lat="44.54483" lon="3.80439">
        <ele>1133.05</ele>
        <time>2022-08-05T09:42:24Z</time>
      </trkpt>
      <trkpt lat="44.5447" lon="3.80422">
        <ele>1132.09</ele>
        <time>2022-08-05T09:42:40Z</time>
      </trkpt>
      <trkpt lat="44.54455" lon="3.80402">
        <ele>1133.53</ele>
        <time>2022-08-05T09:42:58Z</time>
      </trkpt>
      <trkpt lat="44.54442" lon="3.80389">
        <ele>1135.45</ele>
        <time>2022-08-05T09:43:14Z</time>
      </trkpt>
      <trkpt lat="44.54426" lon="3.80375">
        <ele>1137.38</ele>
        <time>2022-08-05T09:43:33Z</time>
      </trkpt>
      <trkpt lat="44.54412" lon="3.80366">
        <ele>1140.26</ele>
        <time>2022-08-05T09:43:50Z</time>
      </trkpt>
      <trkpt lat="44.54395" lon="3.80358">
        <ele>1141.22</ele>
        <time>2022-08-05T09:44:08Z</time>
      </trkpt>
      <trkpt lat="44.5438" lon="3.80352">
        <ele>1143.14</ele>
        <time>2022-08-05T09:44:24Z</time>
      </trkpt>
      <trkpt lat="44.54363" lon="3.80347">
        <ele>1143.63</ele>
        <time>2022-08-05T09:44:41Z</time>
      </trkpt>
      <trkpt lat="44.54344" lon="3.80342">
        <ele>1144.59</ele>
        <time>2022-08-05T09:45:00Z</time>
      </trkpt>
      <trkpt lat="44.54332" lon="3.80338">
        <ele>1147.47</ele>
        <time>2022-08-05T09:45:15Z</time>
      </trkpt>
      <trkpt lat="44.54319" lon="3.80333">
        <ele>1152.28</ele>
        <time>2022-08-05T09:45:32Z</time>
      </trkpt>
      <trkpt lat="44.54307" lon="3.80326">
        <ele>1155.16</ele>
        <time>2022-08-05T09:45:49Z</time>
      </trkpt>
      <trkpt lat="44.54305" lon="3.80323">
        <ele>1154.68</ele>
        <time>2022-08-05T09:45:52Z</time>
      </trkpt>
      <trkpt lat="44.54293" lon="3.80315">
        <ele>1153.24</ele>
        <time>2022-08-05T09:46:06Z</time>
      </trkpt>
      <trkpt lat="44.54273" lon="3.80305">
        <ele>1151.32</ele>
        <time>2022-08-05T09:46:24Z</time>
      </trkpt>
      <trkpt lat="44.54258" lon="3.80298">
        <ele>1150.35</ele>
        <time>2022-08-05T09:46:40Z</time>
      </trkpt>
      <trkpt lat="44.54241" lon="3.80291">
        <ele>1148.91</ele>
        <time>2022-08-05T09:46:57Z</time>
      </trkpt>
      <trkpt lat="44.54223" lon="3.80284">
        <ele>1146.51</ele>
        <time>2022-08-05T09:47:14Z</time>
      </trkpt>
      <trkpt lat="44.54208" lon="3.80282">
        <ele>1144.59</ele>
        <time>2022-08-05T09:47:31Z</time>
      </trkpt>
      <trkpt lat="44.54191" lon="3.80275">
        <ele>1145.55</ele>
        <time>2022-08-05T09:47:46Z</time>
      </trkpt>
      <trkpt lat="44.54176" lon="3.80276">
        <ele>1148.43</ele>
        <time>2022-08-05T09:48:01Z</time>
      </trkpt>
      <trkpt lat="44.54159" lon="3.80276">
        <ele>1148.91</ele>
        <time>2022-08-05T09:48:16Z</time>
      </trkpt>
      <trkpt lat="44.5414" lon="3.80279">
        <ele>1150.35</ele>
        <time>2022-08-05T09:48:34Z</time>
      </trkpt>
      <trkpt lat="44.54123" lon="3.80279">
        <ele>1152.28</ele>
        <time>2022-08-05T09:48:50Z</time>
      </trkpt>
      <trkpt lat="44.54107" lon="3.80274">
        <ele>1153.24</ele>
        <time>2022-08-05T09:49:08Z</time>
      </trkpt>
      <trkpt lat="44.54099" lon="3.80257">
        <ele>1153.72</ele>
        <time>2022-08-05T09:49:25Z</time>
      </trkpt>
      <trkpt lat="44.54086" lon="3.80241">
        <ele>1153.72</ele>
        <time>2022-08-05T09:49:41Z</time>
      </trkpt>
      <trkpt lat="44.54071" lon="3.80228">
        <ele>1154.68</ele>
        <time>2022-08-05T09:49:56Z</time>
      </trkpt>
      <trkpt lat="44.54056" lon="3.80214">
        <ele>1154.68</ele>
        <time>2022-08-05T09:50:12Z</time>
      </trkpt>
      <trkpt lat="44.54043" lon="3.80195">
        <ele>1155.16</ele>
        <time>2022-08-05T09:50:30Z</time>
      </trkpt>
      <trkpt lat="44.54042" lon="3.80174">
        <ele>1155.64</ele>
        <time>2022-08-05T09:50:45Z</time>
      </trkpt>
      <trkpt lat="44.54039" lon="3.80153">
        <ele>1156.12</ele>
        <time>2022-08-05T09:51:00Z</time>
      </trkpt>
      <trkpt lat="44.54031" lon="3.80131">
        <ele>1156.12</ele>
        <time>2022-08-05T09:51:17Z</time>
      </trkpt>
      <trkpt lat="44.54024" lon="3.80113">
        <ele>1156.6</ele>
        <time>2022-08-05T09:51:31Z</time>
      </trkpt>
      <trkpt lat="44.5402" lon="3.80095">
        <ele>1157.56</ele>
        <time>2022-08-05T09:51:44Z</time>
      </trkpt>
      <trkpt lat="44.54014" lon="3.80077">
        <ele>1159.49</ele>
        <time>2022-08-05T09:51:58Z</time>
      </trkpt>
      <trkpt lat="44.54011" lon="3.80062">
        <ele>1160.93</ele>
        <time>2022-08-05T09:52:10Z</time>
      </trkpt>
      <trkpt lat="44.54004" lon="3.80042">
        <ele>1162.37</ele>
        <time>2022-08-05T09:52:25Z</time>
      </trkpt>
      <trkpt lat="44.54002" lon="3.80015">
        <ele>1163.33</ele>
        <time>2022-08-05T09:52:42Z</time>
      </trkpt>
      <trkpt lat="44.54007" lon="3.79994">
        <ele>1162.37</ele>
        <time>2022-08-05T09:53:00Z</time>
      </trkpt>
      <trkpt lat="44.54024" lon="3.79989">
        <ele>1161.89</ele>
        <time>2022-08-05T09:53:19Z</time>
      </trkpt>
      <trkpt lat="44.54036" lon="3.79995">
        <ele>1164.29</ele>
        <time>2022-08-05T09:53:31Z</time>
      </trkpt>
      <trkpt lat="44.5405" lon="3.80015">
        <ele>1167.66</ele>
        <time>2022-08-05T09:53:48Z</time>
      </trkpt>
      <trkpt lat="44.54065" lon="3.80031">
        <ele>1168.14</ele>
        <time>2022-08-05T09:54:06Z</time>
      </trkpt>
      <trkpt lat="44.54068" lon="3.80035">
        <ele>1169.1</ele>
        <time>2022-08-05T09:54:10Z</time>
      </trkpt>
      <trkpt lat="44.54082" lon="3.80047">
        <ele>1169.58</ele>
        <time>2022-08-05T09:54:26Z</time>
      </trkpt>
      <trkpt lat="44.54097" lon="3.80059">
        <ele>1170.54</ele>
        <time>2022-08-05T09:54:42Z</time>
      </trkpt>
      <trkpt lat="44.54111" lon="3.80055">
        <ele>1170.54</ele>
        <time>2022-08-05T09:54:58Z</time>
      </trkpt>
      <trkpt lat="44.54116" lon="3.80046">
        <ele>1171.02</ele>
        <time>2022-08-05T09:55:06Z</time>
      </trkpt>
      <trkpt lat="44.54127" lon="3.80021">
        <ele>1170.54</ele>
        <time>2022-08-05T09:55:24Z</time>
      </trkpt>
      <trkpt lat="44.54138" lon="3.79993">
        <ele>1172.47</ele>
        <time>2022-08-05T09:55:45Z</time>
      </trkpt>
      <trkpt lat="44.54144" lon="3.7997">
        <ele>1175.35</ele>
        <time>2022-08-05T09:56:02Z</time>
      </trkpt>
      <trkpt lat="44.54147" lon="3.79945">
        <ele>1176.79</ele>
        <time>2022-08-05T09:56:19Z</time>
      </trkpt>
      <trkpt lat="44.54143" lon="3.79918">
        <ele>1176.79</ele>
        <time>2022-08-05T09:56:38Z</time>
      </trkpt>
      <trkpt lat="44.54137" lon="3.79892">
        <ele>1178.71</ele>
        <time>2022-08-05T09:56:56Z</time>
      </trkpt>
      <trkpt lat="44.54128" lon="3.7987">
        <ele>1180.16</ele>
        <time>2022-08-05T09:57:14Z</time>
      </trkpt>
      <trkpt lat="44.54117" lon="3.79848">
        <ele>1181.12</ele>
        <time>2022-08-05T09:57:32Z</time>
      </trkpt>
      <trkpt lat="44.54106" lon="3.79829">
        <ele>1183.04</ele>
        <time>2022-08-05T09:57:49Z</time>
      </trkpt>
      <trkpt lat="44.54094" lon="3.79807">
        <ele>1183.52</ele>
        <time>2022-08-05T09:58:09Z</time>
      </trkpt>
      <trkpt lat="44.54086" lon="3.79788">
        <ele>1184</ele>
        <time>2022-08-05T09:58:25Z</time>
      </trkpt>
      <trkpt lat="44.54077" lon="3.79764">
        <ele>1185.92</ele>
        <time>2022-08-05T09:58:43Z</time>
      </trkpt>
      <trkpt lat="44.54069" lon="3.7974">
        <ele>1186.88</ele>
        <time>2022-08-05T09:59:02Z</time>
      </trkpt>
      <trkpt lat="44.54061" lon="3.79714">
        <ele>1187.85</ele>
        <time>2022-08-05T09:59:21Z</time>
      </trkpt>
      <trkpt lat="44.54047" lon="3.797">
        <ele>1188.33</ele>
        <time>2022-08-05T09:59:37Z</time>
      </trkpt>
      <trkpt lat="44.54032" lon="3.79699">
        <ele>1188.81</ele>
        <time>2022-08-05T09:59:52Z</time>
      </trkpt>
      <trkpt lat="44.54016" lon="3.79712">
        <ele>1189.77</ele>
        <time>2022-08-05T10:00:09Z</time>
      </trkpt>
      <trkpt lat="44.53999" lon="3.79726">
        <ele>1190.25</ele>
        <time>2022-08-05T10:00:27Z</time>
      </trkpt>
      <trkpt lat="44.53984" lon="3.79743">
        <ele>1193.13</ele>
        <time>2022-08-05T10:00:44Z</time>
      </trkpt>
      <trkpt lat="44.53971" lon="3.79756">
        <ele>1194.09</ele>
        <time>2022-08-05T10:00:59Z</time>
      </trkpt>
      <trkpt lat="44.53955" lon="3.7977">
        <ele>1194.58</ele>
        <time>2022-08-05T10:01:16Z</time>
      </trkpt>
      <trkpt lat="44.5394" lon="3.7978">
        <ele>1196.5</ele>
        <time>2022-08-05T10:01:32Z</time>
      </trkpt>
      <trkpt lat="44.53933" lon="3.79778">
        <ele>1197.46</ele>
        <time>2022-08-05T10:01:38Z</time>
      </trkpt>
      <trkpt lat="44.53927" lon="3.79778">
        <ele>1197.46</ele>
        <time>2022-08-05T10:01:43Z</time>
      </trkpt>
      <trkpt lat="44.53925" lon="3.79776">
        <ele>1197.94</ele>
        <time>2022-08-05T10:01:46Z</time>
      </trkpt>
      <trkpt lat="44.53924" lon="3.79773">
        <ele>1197.94</ele>
        <time>2022-08-05T10:01:48Z</time>
      </trkpt>
      <trkpt lat="44.53925" lon="3.79769">
        <ele>1197.94</ele>
        <time>2022-08-05T10:01:52Z</time>
      </trkpt>
      <trkpt lat="44.53924" lon="3.79747">
        <ele>1197.94</ele>
        <time>2022-08-05T10:02:08Z</time>
      </trkpt>
      <trkpt lat="44.53924" lon="3.79742">
        <ele>1198.42</ele>
        <time>2022-08-05T10:02:12Z</time>
      </trkpt>
      <trkpt lat="44.53918" lon="3.79717">
        <ele>1201.3</ele>
        <time>2022-08-05T10:02:30Z</time>
      </trkpt>
      <trkpt lat="44.5391" lon="3.79697">
        <ele>1204.19</ele>
        <time>2022-08-05T10:02:45Z</time>
      </trkpt>
      <trkpt lat="44.53905" lon="3.79691">
        <ele>1206.11</ele>
        <time>2022-08-05T10:03:00Z</time>
      </trkpt>
      <trkpt lat="44.53904" lon="3.79687">
        <ele>1205.15</ele>
        <time>2022-08-05T10:03:19Z</time>
      </trkpt>
      <trkpt lat="44.53895" lon="3.79671">
        <ele>1207.07</ele>
        <time>2022-08-05T10:03:34Z</time>
      </trkpt>
      <trkpt lat="44.53888" lon="3.79661">
        <ele>1208.03</ele>
        <time>2022-08-05T10:03:45Z</time>
      </trkpt>
      <trkpt lat="44.53876" lon="3.79649">
        <ele>1210.44</ele>
        <time>2022-08-05T10:04:00Z</time>
      </trkpt>
      <trkpt lat="44.53866" lon="3.79641">
        <ele>1213.8</ele>
        <time>2022-08-05T10:04:12Z</time>
      </trkpt>
      <trkpt lat="44.53857" lon="3.7963">
        <ele>1217.65</ele>
        <time>2022-08-05T10:04:27Z</time>
      </trkpt>
      <trkpt lat="44.53847" lon="3.79617">
        <ele>1222.45</ele>
        <time>2022-08-05T10:04:43Z</time>
      </trkpt>
      <trkpt lat="44.53838" lon="3.79606">
        <ele>1225.82</ele>
        <time>2022-08-05T10:04:57Z</time>
      </trkpt>
      <trkpt lat="44.53827" lon="3.79593">
        <ele>1226.3</ele>
        <time>2022-08-05T10:05:10Z</time>
      </trkpt>
      <trkpt lat="44.53814" lon="3.79582">
        <ele>1226.78</ele>
        <time>2022-08-05T10:05:26Z</time>
      </trkpt>
      <trkpt lat="44.53807" lon="3.7957">
        <ele>1228.22</ele>
        <time>2022-08-05T10:05:39Z</time>
      </trkpt>
      <trkpt lat="44.538" lon="3.7956">
        <ele>1231.11</ele>
        <time>2022-08-05T10:05:52Z</time>
      </trkpt>
      <trkpt lat="44.53794" lon="3.7955">
        <ele>1235.91</ele>
        <time>2022-08-05T10:06:05Z</time>
      </trkpt>
      <trkpt lat="44.53786" lon="3.7954">
        <ele>1240.72</ele>
        <time>2022-08-05T10:06:20Z</time>
      </trkpt>
      <trkpt lat="44.53772" lon="3.79521">
        <ele>1246.01</ele>
        <time>2022-08-05T10:06:39Z</time>
      </trkpt>
      <trkpt lat="44.53763" lon="3.7951">
        <ele>1250.81</ele>
        <time>2022-08-05T10:06:54Z</time>
      </trkpt>
      <trkpt lat="44.53747" lon="3.79498">
        <ele>1253.22</ele>
        <time>2022-08-05T10:07:10Z</time>
      </trkpt>
      <trkpt lat="44.53736" lon="3.79488">
        <ele>1256.1</ele>
        <time>2022-08-05T10:07:27Z</time>
      </trkpt>
      <trkpt lat="44.53728" lon="3.79479">
        <ele>1259.94</ele>
        <time>2022-08-05T10:07:41Z</time>
      </trkpt>
      <trkpt lat="44.53714" lon="3.79468">
        <ele>1261.87</ele>
        <time>2022-08-05T10:07:58Z</time>
      </trkpt>
      <trkpt lat="44.53705" lon="3.79464">
        <ele>1263.31</ele>
        <time>2022-08-05T10:08:13Z</time>
      </trkpt>
      <trkpt lat="44.53694" lon="3.79461">
        <ele>1264.75</ele>
        <time>2022-08-05T10:08:29Z</time>
      </trkpt>
      <trkpt lat="44.53683" lon="3.79459">
        <ele>1267.16</ele>
        <time>2022-08-05T10:08:43Z</time>
      </trkpt>
      <trkpt lat="44.53668" lon="3.79458">
        <ele>1267.64</ele>
        <time>2022-08-05T10:08:56Z</time>
      </trkpt>
      <trkpt lat="44.53659" lon="3.79455">
        <ele>1268.12</ele>
        <time>2022-08-05T10:09:11Z</time>
      </trkpt>
      <trkpt lat="44.5365" lon="3.79445">
        <ele>1271</ele>
        <time>2022-08-05T10:09:28Z</time>
      </trkpt>
      <trkpt lat="44.53643" lon="3.79441">
        <ele>1271.96</ele>
        <time>2022-08-05T10:09:41Z</time>
      </trkpt>
      <trkpt lat="44.53636" lon="3.79434">
        <ele>1274.36</ele>
        <time>2022-08-05T10:09:56Z</time>
      </trkpt>
      <trkpt lat="44.5363" lon="3.79432">
        <ele>1277.73</ele>
        <time>2022-08-05T10:10:11Z</time>
      </trkpt>
      <trkpt lat="44.5362" lon="3.79431">
        <ele>1279.17</ele>
        <time>2022-08-05T10:10:26Z</time>
      </trkpt>
      <trkpt lat="44.53612" lon="3.79425">
        <ele>1281.57</ele>
        <time>2022-08-05T10:10:40Z</time>
      </trkpt>
      <trkpt lat="44.53604" lon="3.79419">
        <ele>1284.46</ele>
        <time>2022-08-05T10:10:53Z</time>
      </trkpt>
      <trkpt lat="44.53593" lon="3.79419">
        <ele>1285.9</ele>
        <time>2022-08-05T10:11:05Z</time>
      </trkpt>
      <trkpt lat="44.53582" lon="3.79421">
        <ele>1287.82</ele>
        <time>2022-08-05T10:11:19Z</time>
      </trkpt>
      <trkpt lat="44.53565" lon="3.79425">
        <ele>1292.63</ele>
        <time>2022-08-05T10:11:38Z</time>
      </trkpt>
      <trkpt lat="44.53555" lon="3.79427">
        <ele>1295.99</ele>
        <time>2022-08-05T10:11:54Z</time>
      </trkpt>
      <trkpt lat="44.53544" lon="3.79431">
        <ele>1302.24</ele>
        <time>2022-08-05T10:12:11Z</time>
      </trkpt>
      <trkpt lat="44.53532" lon="3.79437">
        <ele>1307.53</ele>
        <time>2022-08-05T10:12:30Z</time>
      </trkpt>
      <trkpt lat="44.5352" lon="3.79441">
        <ele>1312.34</ele>
        <time>2022-08-05T10:12:48Z</time>
      </trkpt>
      <trkpt lat="44.53503" lon="3.79445">
        <ele>1317.14</ele>
        <time>2022-08-05T10:13:06Z</time>
      </trkpt>
      <trkpt lat="44.53492" lon="3.79449">
        <ele>1320.99</ele>
        <time>2022-08-05T10:13:26Z</time>
      </trkpt>
      <trkpt lat="44.53484" lon="3.79451">
        <ele>1323.87</ele>
        <time>2022-08-05T10:13:41Z</time>
      </trkpt>
      <trkpt lat="44.53476" lon="3.7945">
        <ele>1326.28</ele>
        <time>2022-08-05T10:13:56Z</time>
      </trkpt>
      <trkpt lat="44.53467" lon="3.7945">
        <ele>1328.68</ele>
        <time>2022-08-05T10:14:10Z</time>
      </trkpt>
      <trkpt lat="44.53448" lon="3.79453">
        <ele>1327.72</ele>
        <time>2022-08-05T10:14:24Z</time>
      </trkpt>
      <trkpt lat="44.53443" lon="3.79456">
        <ele>1331.08</ele>
        <time>2022-08-05T10:14:38Z</time>
      </trkpt>
      <trkpt lat="44.5343" lon="3.79459">
        <ele>1336.85</ele>
        <time>2022-08-05T10:14:55Z</time>
      </trkpt>
      <trkpt lat="44.53419" lon="3.79454">
        <ele>1336.85</ele>
        <time>2022-08-05T10:15:09Z</time>
      </trkpt>
      <trkpt lat="44.53408" lon="3.79451">
        <ele>1338.77</ele>
        <time>2022-08-05T10:15:25Z</time>
      </trkpt>
      <trkpt lat="44.53404" lon="3.79447">
        <ele>1341.66</ele>
        <time>2022-08-05T10:15:39Z</time>
      </trkpt>
      <trkpt lat="44.53397" lon="3.79444">
        <ele>1344.06</ele>
        <time>2022-08-05T10:15:54Z</time>
      </trkpt>
      <trkpt lat="44.53384" lon="3.79433">
        <ele>1341.18</ele>
        <time>2022-08-05T10:16:11Z</time>
      </trkpt>
      <trkpt lat="44.5338" lon="3.79418">
        <ele>1338.77</ele>
        <time>2022-08-05T10:16:22Z</time>
      </trkpt>
      <trkpt lat="44.53371" lon="3.79399">
        <ele>1333.49</ele>
        <time>2022-08-05T10:16:37Z</time>
      </trkpt>
      <trkpt lat="44.53363" lon="3.79405">
        <ele>1334.93</ele>
        <time>2022-08-05T10:16:54Z</time>
      </trkpt>
      <trkpt lat="44.53356" lon="3.79415">
        <ele>1335.41</ele>
        <time>2022-08-05T10:17:03Z</time>
      </trkpt>
      <trkpt lat="44.53351" lon="3.79436">
        <ele>1335.89</ele>
        <time>2022-08-05T10:17:17Z</time>
      </trkpt>
      <trkpt lat="44.53349" lon="3.79457">
        <ele>1337.81</ele>
        <time>2022-08-05T10:17:32Z</time>
      </trkpt>
      <trkpt lat="44.53355" lon="3.79479">
        <ele>1337.33</ele>
        <time>2022-08-05T10:17:46Z</time>
      </trkpt>
      <trkpt lat="44.53359" lon="3.79501">
        <ele>1337.33</ele>
        <time>2022-08-05T10:18:01Z</time>
      </trkpt>
      <trkpt lat="44.53366" lon="3.7952">
        <ele>1338.77</ele>
        <time>2022-08-05T10:18:16Z</time>
      </trkpt>
      <trkpt lat="44.53377" lon="3.79538">
        <ele>1339.73</ele>
        <time>2022-08-05T10:18:33Z</time>
      </trkpt>
      <trkpt lat="44.53382" lon="3.79546">
        <ele>1340.7</ele>
        <time>2022-08-05T10:18:41Z</time>
      </trkpt>
      <trkpt lat="44.53393" lon="3.79561">
        <ele>1341.18</ele>
        <time>2022-08-05T10:18:58Z</time>
      </trkpt>
      <trkpt lat="44.53407" lon="3.79577">
        <ele>1344.54</ele>
        <time>2022-08-05T10:19:14Z</time>
      </trkpt>
      <trkpt lat="44.53421" lon="3.79592">
        <ele>1345.02</ele>
        <time>2022-08-05T10:19:32Z</time>
      </trkpt>
      <trkpt lat="44.53429" lon="3.79606">
        <ele>1346.94</ele>
        <time>2022-08-05T10:19:45Z</time>
      </trkpt>
      <trkpt lat="44.53439" lon="3.79621">
        <ele>1347.43</ele>
        <time>2022-08-05T10:20:01Z</time>
      </trkpt>
      <trkpt lat="44.53444" lon="3.79638">
        <ele>1348.87</ele>
        <time>2022-08-05T10:20:13Z</time>
      </trkpt>
      <trkpt lat="44.53448" lon="3.79651">
        <ele>1348.39</ele>
        <time>2022-08-05T10:20:25Z</time>
      </trkpt>
      <trkpt lat="44.53447" lon="3.79652">
        <ele>1345.5</ele>
        <time>2022-08-05T10:20:38Z</time>
      </trkpt>
      <trkpt lat="44.53444" lon="3.79641">
        <ele>1343.1</ele>
        <time>2022-08-05T10:20:52Z</time>
      </trkpt>
      <trkpt lat="44.53446" lon="3.79645">
        <ele>1343.1</ele>
        <time>2022-08-05T10:20:56Z</time>
      </trkpt>
      <trkpt lat="44.53446" lon="3.79648">
        <ele>1342.14</ele>
        <time>2022-08-05T10:21:11Z</time>
      </trkpt>
      <trkpt lat="44.53448" lon="3.79649">
        <ele>1342.14</ele>
        <time>2022-08-05T10:21:23Z</time>
      </trkpt>
      <trkpt lat="44.53449" lon="3.79647">
        <ele>1345.98</ele>
        <time>2022-08-05T10:21:46Z</time>
      </trkpt>
      <trkpt lat="44.5345" lon="3.79652">
        <ele>1347.43</ele>
        <time>2022-08-05T10:22:08Z</time>
      </trkpt>
      <trkpt lat="44.53452" lon="3.79655">
        <ele>1345.98</ele>
        <time>2022-08-05T10:22:41Z</time>
      </trkpt>
      <trkpt lat="44.53451" lon="3.79656">
        <ele>1344.54</ele>
        <time>2022-08-05T10:22:57Z</time>
      </trkpt>
      <trkpt lat="44.53449" lon="3.79654">
        <ele>1344.06</ele>
        <time>2022-08-05T10:23:11Z</time>
      </trkpt>
      <trkpt lat="44.53444" lon="3.79658">
        <ele>1345.5</ele>
        <time>2022-08-05T10:23:36Z</time>
      </trkpt>
      <trkpt lat="44.53442" lon="3.79658">
        <ele>1345.5</ele>
        <time>2022-08-05T10:24:09Z</time>
      </trkpt>
      <trkpt lat="44.53441" lon="3.79651">
        <ele>1340.7</ele>
        <time>2022-08-05T10:24:25Z</time>
      </trkpt>
      <trkpt lat="44.53441" lon="3.79651">
        <ele>1342.14</ele>
        <time>2022-08-05T10:24:55Z</time>
      </trkpt>
      <trkpt lat="44.53442" lon="3.79651">
        <ele>1343.58</ele>
        <time>2022-08-05T10:25:27Z</time>
      </trkpt>
      <trkpt lat="44.53446" lon="3.7965">
        <ele>1342.62</ele>
        <time>2022-08-05T10:25:45Z</time>
      </trkpt>
      <trkpt lat="44.53448" lon="3.79653">
        <ele>1339.73</ele>
        <time>2022-08-05T10:26:09Z</time>
      </trkpt>
      <trkpt lat="44.53451" lon="3.79649">
        <ele>1340.7</ele>
        <time>2022-08-05T10:26:38Z</time>
      </trkpt>
      <trkpt lat="44.53452" lon="3.79649">
        <ele>1344.06</ele>
        <time>2022-08-05T10:27:07Z</time>
      </trkpt>
      <trkpt lat="44.53459" lon="3.79645">
        <ele>1348.87</ele>
        <time>2022-08-05T10:27:43Z</time>
      </trkpt>
      <trkpt lat="44.53458" lon="3.79649">
        <ele>1346.46</ele>
        <time>2022-08-05T10:28:21Z</time>
      </trkpt>
      <trkpt lat="44.53451" lon="3.79642">
        <ele>1345.98</ele>
        <time>2022-08-05T10:28:29Z</time>
      </trkpt>
      <trkpt lat="44.53435" lon="3.79626">
        <ele>1345.02</ele>
        <time>2022-08-05T10:28:46Z</time>
      </trkpt>
      <trkpt lat="44.53425" lon="3.79617">
        <ele>1347.43</ele>
        <time>2022-08-05T10:28:59Z</time>
      </trkpt>
      <trkpt lat="44.53424" lon="3.79616">
        <ele>1347.43</ele>
        <time>2022-08-05T10:29:01Z</time>
      </trkpt>
      <trkpt lat="44.53408" lon="3.79608">
        <ele>1349.35</ele>
        <time>2022-08-05T10:29:17Z</time>
      </trkpt>
      <trkpt lat="44.53395" lon="3.79598">
        <ele>1353.19</ele>
        <time>2022-08-05T10:29:30Z</time>
      </trkpt>
      <trkpt lat="44.53379" lon="3.79587">
        <ele>1357.04</ele>
        <time>2022-08-05T10:29:46Z</time>
      </trkpt>
      <trkpt lat="44.53358" lon="3.79575">
        <ele>1355.12</ele>
        <time>2022-08-05T10:30:03Z</time>
      </trkpt>
      <trkpt lat="44.53343" lon="3.79565">
        <ele>1355.12</ele>
        <time>2022-08-05T10:30:17Z</time>
      </trkpt>
      <trkpt lat="44.53327" lon="3.79554">
        <ele>1356.08</ele>
        <time>2022-08-05T10:30:32Z</time>
      </trkpt>
      <trkpt lat="44.53323" lon="3.79548">
        <ele>1356.08</ele>
        <time>2022-08-05T10:30:40Z</time>
      </trkpt>
      <trkpt lat="44.53323" lon="3.79547">
        <ele>1355.6</ele>
        <time>2022-08-05T10:30:42Z</time>
      </trkpt>
      <trkpt lat="44.5331" lon="3.7954">
        <ele>1355.12</ele>
        <time>2022-08-05T10:30:56Z</time>
      </trkpt>
      <trkpt lat="44.53305" lon="3.79524">
        <ele>1358.96</ele>
        <time>2022-08-05T10:31:11Z</time>
      </trkpt>
      <trkpt lat="44.533" lon="3.79511">
        <ele>1361.84</ele>
        <time>2022-08-05T10:31:23Z</time>
      </trkpt>
      <trkpt lat="44.53298" lon="3.79504">
        <ele>1362.81</ele>
        <time>2022-08-05T10:31:29Z</time>
      </trkpt>
      <trkpt lat="44.5329" lon="3.7949">
        <ele>1363.29</ele>
        <time>2022-08-05T10:31:44Z</time>
      </trkpt>
      <trkpt lat="44.53279" lon="3.79476">
        <ele>1362.33</ele>
        <time>2022-08-05T10:31:57Z</time>
      </trkpt>
      <trkpt lat="44.5327" lon="3.79454">
        <ele>1364.25</ele>
        <time>2022-08-05T10:32:12Z</time>
      </trkpt>
      <trkpt lat="44.53262" lon="3.79437">
        <ele>1363.29</ele>
        <time>2022-08-05T10:32:28Z</time>
      </trkpt>
      <trkpt lat="44.53251" lon="3.79413">
        <ele>1367.13</ele>
        <time>2022-08-05T10:32:44Z</time>
      </trkpt>
      <trkpt lat="44.53247" lon="3.79401">
        <ele>1367.61</ele>
        <time>2022-08-05T10:32:57Z</time>
      </trkpt>
      <trkpt lat="44.53237" lon="3.79386">
        <ele>1369.54</ele>
        <time>2022-08-05T10:33:09Z</time>
      </trkpt>
      <trkpt lat="44.53233" lon="3.79378">
        <ele>1370.5</ele>
        <time>2022-08-05T10:33:20Z</time>
      </trkpt>
      <trkpt lat="44.53223" lon="3.79357">
        <ele>1374.82</ele>
        <time>2022-08-05T10:33:33Z</time>
      </trkpt>
      <trkpt lat="44.53222" lon="3.79337">
        <ele>1375.3</ele>
        <time>2022-08-05T10:33:48Z</time>
      </trkpt>
      <trkpt lat="44.53229" lon="3.79321">
        <ele>1374.82</ele>
        <time>2022-08-05T10:34:05Z</time>
      </trkpt>
      <trkpt lat="44.53235" lon="3.79306">
        <ele>1379.15</ele>
        <time>2022-08-05T10:34:19Z</time>
      </trkpt>
      <trkpt lat="44.53239" lon="3.79285">
        <ele>1382.03</ele>
        <time>2022-08-05T10:34:32Z</time>
      </trkpt>
      <trkpt lat="44.53239" lon="3.79275">
        <ele>1382.03</ele>
        <time>2022-08-05T10:34:38Z</time>
      </trkpt>
      <trkpt lat="44.53241" lon="3.79267">
        <ele>1382.03</ele>
        <time>2022-08-05T10:34:43Z</time>
      </trkpt>
      <trkpt lat="44.53247" lon="3.7924">
        <ele>1382.99</ele>
        <time>2022-08-05T10:35:02Z</time>
      </trkpt>
      <trkpt lat="44.53254" lon="3.7922">
        <ele>1382.51</ele>
        <time>2022-08-05T10:35:17Z</time>
      </trkpt>
      <trkpt lat="44.5326" lon="3.79205">
        <ele>1383.47</ele>
        <time>2022-08-05T10:35:31Z</time>
      </trkpt>
      <trkpt lat="44.53263" lon="3.79182">
        <ele>1383.47</ele>
        <time>2022-08-05T10:35:47Z</time>
      </trkpt>
      <trkpt lat="44.53265" lon="3.79158">
        <ele>1384.44</ele>
        <time>2022-08-05T10:36:02Z</time>
      </trkpt>
      <trkpt lat="44.53263" lon="3.7914">
        <ele>1383.47</ele>
        <time>2022-08-05T10:36:16Z</time>
      </trkpt>
      <trkpt lat="44.53262" lon="3.79115">
        <ele>1385.88</ele>
        <time>2022-08-05T10:36:32Z</time>
      </trkpt>
      <trkpt lat="44.53262" lon="3.79096">
        <ele>1389.72</ele>
        <time>2022-08-05T10:36:46Z</time>
      </trkpt>
      <trkpt lat="44.53261" lon="3.79082">
        <ele>1390.2</ele>
        <time>2022-08-05T10:36:54Z</time>
      </trkpt>
      <trkpt lat="44.53259" lon="3.79062">
        <ele>1395.01</ele>
        <time>2022-08-05T10:37:08Z</time>
      </trkpt>
      <trkpt lat="44.53261" lon="3.79035">
        <ele>1399.82</ele>
        <time>2022-08-05T10:37:27Z</time>
      </trkpt>
      <trkpt lat="44.53261" lon="3.79009">
        <ele>1400.3</ele>
        <time>2022-08-05T10:37:40Z</time>
      </trkpt>
      <trkpt lat="44.53259" lon="3.78984">
        <ele>1398.37</ele>
        <time>2022-08-05T10:37:56Z</time>
      </trkpt>
      <trkpt lat="44.53258" lon="3.78981">
        <ele>1398.37</ele>
        <time>2022-08-05T10:37:58Z</time>
      </trkpt>
      <trkpt lat="44.53255" lon="3.78972">
        <ele>1397.41</ele>
        <time>2022-08-05T10:38:04Z</time>
      </trkpt>
      <trkpt lat="44.53254" lon="3.78951">
        <ele>1396.93</ele>
        <time>2022-08-05T10:38:19Z</time>
      </trkpt>
      <trkpt lat="44.53253" lon="3.78934">
        <ele>1398.86</ele>
        <time>2022-08-05T10:38:32Z</time>
      </trkpt>
      <trkpt lat="44.53252" lon="3.78911">
        <ele>1400.3</ele>
        <time>2022-08-05T10:38:47Z</time>
      </trkpt>
      <trkpt lat="44.53248" lon="3.78887">
        <ele>1403.18</ele>
        <time>2022-08-05T10:39:03Z</time>
      </trkpt>
      <trkpt lat="44.53248" lon="3.78883">
        <ele>1402.7</ele>
        <time>2022-08-05T10:39:06Z</time>
      </trkpt>
      <trkpt lat="44.53247" lon="3.78858">
        <ele>1402.22</ele>
        <time>2022-08-05T10:39:23Z</time>
      </trkpt>
      <trkpt lat="44.53246" lon="3.78837">
        <ele>1399.82</ele>
        <time>2022-08-05T10:39:35Z</time>
      </trkpt>
      <trkpt lat="44.53247" lon="3.78824">
        <ele>1399.34</ele>
        <time>2022-08-05T10:39:44Z</time>
      </trkpt>
      <trkpt lat="44.53245" lon="3.78797">
        <ele>1401.74</ele>
        <time>2022-08-05T10:40:01Z</time>
      </trkpt>
      <trkpt lat="44.53241" lon="3.78772">
        <ele>1401.74</ele>
        <time>2022-08-05T10:40:17Z</time>
      </trkpt>
      <trkpt lat="44.53236" lon="3.78758">
        <ele>1401.26</ele>
        <time>2022-08-05T10:40:26Z</time>
      </trkpt>
      <trkpt lat="44.53223" lon="3.78733">
        <ele>1401.26</ele>
        <time>2022-08-05T10:40:44Z</time>
      </trkpt>
      <trkpt lat="44.53214" lon="3.78718">
        <ele>1400.3</ele>
        <time>2022-08-05T10:40:58Z</time>
      </trkpt>
      <trkpt lat="44.53206" lon="3.78701">
        <ele>1400.78</ele>
        <time>2022-08-05T10:41:13Z</time>
      </trkpt>
      <trkpt lat="44.53195" lon="3.78685">
        <ele>1402.7</ele>
        <time>2022-08-05T10:41:31Z</time>
      </trkpt>
      <trkpt lat="44.53183" lon="3.78673">
        <ele>1407.99</ele>
        <time>2022-08-05T10:41:47Z</time>
      </trkpt>
      <trkpt lat="44.53172" lon="3.78663">
        <ele>1412.79</ele>
        <time>2022-08-05T10:42:03Z</time>
      </trkpt>
      <trkpt lat="44.53159" lon="3.78651">
        <ele>1417.6</ele>
        <time>2022-08-05T10:42:21Z</time>
      </trkpt>
      <trkpt lat="44.5315" lon="3.78641">
        <ele>1421.93</ele>
        <time>2022-08-05T10:42:35Z</time>
      </trkpt>
      <trkpt lat="44.53134" lon="3.7863">
        <ele>1422.41</ele>
        <time>2022-08-05T10:42:51Z</time>
      </trkpt>
      <trkpt lat="44.53117" lon="3.78616">
        <ele>1421.93</ele>
        <time>2022-08-05T10:43:08Z</time>
      </trkpt>
      <trkpt lat="44.53102" lon="3.78604">
        <ele>1420.49</ele>
        <time>2022-08-05T10:43:23Z</time>
      </trkpt>
      <trkpt lat="44.53093" lon="3.78593">
        <ele>1422.41</ele>
        <time>2022-08-05T10:43:37Z</time>
      </trkpt>
      <trkpt lat="44.53077" lon="3.78579">
        <ele>1420.49</ele>
        <time>2022-08-05T10:43:52Z</time>
      </trkpt>
      <trkpt lat="44.53061" lon="3.78565">
        <ele>1420</ele>
        <time>2022-08-05T10:44:09Z</time>
      </trkpt>
      <trkpt lat="44.5304" lon="3.78548">
        <ele>1415.68</ele>
        <time>2022-08-05T10:44:24Z</time>
      </trkpt>
      <trkpt lat="44.53037" lon="3.78547">
        <ele>1414.72</ele>
        <time>2022-08-05T10:44:26Z</time>
      </trkpt>
      <trkpt lat="44.53022" lon="3.78531">
        <ele>1411.83</ele>
        <time>2022-08-05T10:44:43Z</time>
      </trkpt>
      <trkpt lat="44.5301" lon="3.78522">
        <ele>1413.28</ele>
        <time>2022-08-05T10:44:59Z</time>
      </trkpt>
      <trkpt lat="44.53009" lon="3.7852">
        <ele>1414.24</ele>
        <time>2022-08-05T10:45:22Z</time>
      </trkpt>
      <trkpt lat="44.53007" lon="3.78519">
        <ele>1412.31</ele>
        <time>2022-08-05T10:45:54Z</time>
      </trkpt>
      <trkpt lat="44.53008" lon="3.78518">
        <ele>1413.28</ele>
        <time>2022-08-05T10:46:23Z</time>
      </trkpt>
      <trkpt lat="44.53008" lon="3.78521">
        <ele>1413.76</ele>
        <time>2022-08-05T10:46:41Z</time>
      </trkpt>
      <trkpt lat="44.53007" lon="3.78522">
        <ele>1415.68</ele>
        <time>2022-08-05T10:47:06Z</time>
      </trkpt>
      <trkpt lat="44.53014" lon="3.78523">
        <ele>1418.08</ele>
        <time>2022-08-05T10:47:28Z</time>
      </trkpt>
      <trkpt lat="44.53009" lon="3.78521">
        <ele>1416.64</ele>
        <time>2022-08-05T10:47:39Z</time>
      </trkpt>
      <trkpt lat="44.52993" lon="3.78534">
        <ele>1415.2</ele>
        <time>2022-08-05T10:47:54Z</time>
      </trkpt>
      <trkpt lat="44.52981" lon="3.78556">
        <ele>1414.72</ele>
        <time>2022-08-05T10:48:12Z</time>
      </trkpt>
      <trkpt lat="44.52972" lon="3.78573">
        <ele>1413.76</ele>
        <time>2022-08-05T10:48:25Z</time>
      </trkpt>
      <trkpt lat="44.52959" lon="3.7859">
        <ele>1411.35</ele>
        <time>2022-08-05T10:48:42Z</time>
      </trkpt>
      <trkpt lat="44.52949" lon="3.78604">
        <ele>1412.79</ele>
        <time>2022-08-05T10:48:59Z</time>
      </trkpt>
      <trkpt lat="44.52938" lon="3.78619">
        <ele>1413.28</ele>
        <time>2022-08-05T10:49:14Z</time>
      </trkpt>
      <trkpt lat="44.52922" lon="3.78636">
        <ele>1412.31</ele>
        <time>2022-08-05T10:49:29Z</time>
      </trkpt>
      <trkpt lat="44.52904" lon="3.78651">
        <ele>1412.31</ele>
        <time>2022-08-05T10:49:46Z</time>
      </trkpt>
      <trkpt lat="44.52893" lon="3.78667">
        <ele>1410.87</ele>
        <time>2022-08-05T10:50:01Z</time>
      </trkpt>
      <trkpt lat="44.52882" lon="3.78681">
        <ele>1410.87</ele>
        <time>2022-08-05T10:50:16Z</time>
      </trkpt>
      <trkpt lat="44.5287" lon="3.78689">
        <ele>1416.64</ele>
        <time>2022-08-05T10:50:33Z</time>
      </trkpt>
      <trkpt lat="44.52861" lon="3.78702">
        <ele>1416.16</ele>
        <time>2022-08-05T10:50:59Z</time>
      </trkpt>
      <trkpt lat="44.52853" lon="3.78717">
        <ele>1417.6</ele>
        <time>2022-08-05T10:51:12Z</time>
      </trkpt>
      <trkpt lat="44.52846" lon="3.78731">
        <ele>1419.52</ele>
        <time>2022-08-05T10:51:25Z</time>
      </trkpt>
      <trkpt lat="44.5284" lon="3.7875">
        <ele>1420.97</ele>
        <time>2022-08-05T10:51:42Z</time>
      </trkpt>
      <trkpt lat="44.52832" lon="3.78778">
        <ele>1417.6</ele>
        <time>2022-08-05T10:51:57Z</time>
      </trkpt>
      <trkpt lat="44.52823" lon="3.78807">
        <ele>1419.52</ele>
        <time>2022-08-05T10:52:13Z</time>
      </trkpt>
      <trkpt lat="44.52817" lon="3.78827">
        <ele>1422.89</ele>
        <time>2022-08-05T10:52:29Z</time>
      </trkpt>
      <trkpt lat="44.52811" lon="3.78839">
        <ele>1427.21</ele>
        <time>2022-08-05T10:52:43Z</time>
      </trkpt>
      <trkpt lat="44.52803" lon="3.78855">
        <ele>1433.46</ele>
        <time>2022-08-05T10:53:00Z</time>
      </trkpt>
      <trkpt lat="44.52793" lon="3.78866">
        <ele>1435.87</ele>
        <time>2022-08-05T10:53:15Z</time>
      </trkpt>
      <trkpt lat="44.52787" lon="3.78883">
        <ele>1437.31</ele>
        <time>2022-08-05T10:53:30Z</time>
      </trkpt>
      <trkpt lat="44.52777" lon="3.78897">
        <ele>1437.79</ele>
        <time>2022-08-05T10:53:45Z</time>
      </trkpt>
      <trkpt lat="44.52769" lon="3.78913">
        <ele>1437.31</ele>
        <time>2022-08-05T10:53:58Z</time>
      </trkpt>
      <trkpt lat="44.52759" lon="3.78933">
        <ele>1425.29</ele>
        <time>2022-08-05T10:54:10Z</time>
      </trkpt>
      <trkpt lat="44.52747" lon="3.78946">
        <ele>1425.29</ele>
        <time>2022-08-05T10:54:24Z</time>
      </trkpt>
      <trkpt lat="44.52729" lon="3.78966">
        <ele>1413.76</ele>
        <time>2022-08-05T10:54:40Z</time>
      </trkpt>
      <trkpt lat="44.52715" lon="3.78974">
        <ele>1411.83</ele>
        <time>2022-08-05T10:54:55Z</time>
      </trkpt>
      <trkpt lat="44.52702" lon="3.78981">
        <ele>1410.87</ele>
        <time>2022-08-05T10:55:08Z</time>
      </trkpt>
      <trkpt lat="44.5269" lon="3.78982">
        <ele>1410.87</ele>
        <time>2022-08-05T10:55:21Z</time>
      </trkpt>
      <trkpt lat="44.5267" lon="3.7898">
        <ele>1408.95</ele>
        <time>2022-08-05T10:55:35Z</time>
      </trkpt>
      <trkpt lat="44.52657" lon="3.78982">
        <ele>1408.95</ele>
        <time>2022-08-05T10:55:47Z</time>
      </trkpt>
      <trkpt lat="44.52648" lon="3.78983">
        <ele>1409.91</ele>
        <time>2022-08-05T10:55:56Z</time>
      </trkpt>
      <trkpt lat="44.52627" lon="3.78986">
        <ele>1411.83</ele>
        <time>2022-08-05T10:56:14Z</time>
      </trkpt>
      <trkpt lat="44.52609" lon="3.78987">
        <ele>1413.76</ele>
        <time>2022-08-05T10:56:29Z</time>
      </trkpt>
      <trkpt lat="44.52599" lon="3.78989">
        <ele>1413.76</ele>
        <time>2022-08-05T10:56:39Z</time>
      </trkpt>
      <trkpt lat="44.52582" lon="3.78998">
        <ele>1415.2</ele>
        <time>2022-08-05T10:56:56Z</time>
      </trkpt>
      <trkpt lat="44.52563" lon="3.79012">
        <ele>1407.03</ele>
        <time>2022-08-05T10:57:12Z</time>
      </trkpt>
      <trkpt lat="44.52553" lon="3.79019">
        <ele>1405.1</ele>
        <time>2022-08-05T10:57:21Z</time>
      </trkpt>
      <trkpt lat="44.5254" lon="3.79033">
        <ele>1403.18</ele>
        <time>2022-08-05T10:57:35Z</time>
      </trkpt>
      <trkpt lat="44.52524" lon="3.79051">
        <ele>1398.37</ele>
        <time>2022-08-05T10:57:52Z</time>
      </trkpt>
      <trkpt lat="44.52521" lon="3.79053">
        <ele>1398.37</ele>
        <time>2022-08-05T10:57:55Z</time>
      </trkpt>
      <trkpt lat="44.52514" lon="3.79064">
        <ele>1396.93</ele>
        <time>2022-08-05T10:58:04Z</time>
      </trkpt>
      <trkpt lat="44.5251" lon="3.7907">
        <ele>1395.97</ele>
        <time>2022-08-05T10:58:09Z</time>
      </trkpt>
      <trkpt lat="44.52506" lon="3.79074">
        <ele>1395.49</ele>
        <time>2022-08-05T10:58:13Z</time>
      </trkpt>
      <trkpt lat="44.5249" lon="3.79091">
        <ele>1390.68</ele>
        <time>2022-08-05T10:58:30Z</time>
      </trkpt>
      <trkpt lat="44.52474" lon="3.79108">
        <ele>1389.72</ele>
        <time>2022-08-05T10:58:47Z</time>
      </trkpt>
      <trkpt lat="44.52459" lon="3.79122">
        <ele>1391.17</ele>
        <time>2022-08-05T10:59:03Z</time>
      </trkpt>
      <trkpt lat="44.52452" lon="3.7913">
        <ele>1393.09</ele>
        <time>2022-08-05T10:59:11Z</time>
      </trkpt>
      <trkpt lat="44.52448" lon="3.79136">
        <ele>1393.57</ele>
        <time>2022-08-05T10:59:16Z</time>
      </trkpt>
      <trkpt lat="44.52441" lon="3.79147">
        <ele>1396.93</ele>
        <time>2022-08-05T10:59:27Z</time>
      </trkpt>
      <trkpt lat="44.52434" lon="3.79168">
        <ele>1399.34</ele>
        <time>2022-08-05T10:59:42Z</time>
      </trkpt>
      <trkpt lat="44.52427" lon="3.79191">
        <ele>1397.89</ele>
        <time>2022-08-05T10:59:57Z</time>
      </trkpt>
      <trkpt lat="44.52418" lon="3.79207">
        <ele>1400.3</ele>
        <time>2022-08-05T11:00:11Z</time>
      </trkpt>
      <trkpt lat="44.52408" lon="3.79228">
        <ele>1400.78</ele>
        <time>2022-08-05T11:00:26Z</time>
      </trkpt>
      <trkpt lat="44.52399" lon="3.79248">
        <ele>1404.14</ele>
        <time>2022-08-05T11:00:43Z</time>
      </trkpt>
      <trkpt lat="44.52387" lon="3.79271">
        <ele>1405.1</ele>
        <time>2022-08-05T11:00:59Z</time>
      </trkpt>
      <trkpt lat="44.52384" lon="3.79279">
        <ele>1407.99</ele>
        <time>2022-08-05T11:01:05Z</time>
      </trkpt>
      <trkpt lat="44.52383" lon="3.7928">
        <ele>1408.95</ele>
        <time>2022-08-05T11:01:07Z</time>
      </trkpt>
      <trkpt lat="44.52376" lon="3.79299">
        <ele>1418.56</ele>
        <time>2022-08-05T11:01:23Z</time>
      </trkpt>
      <trkpt lat="44.5237" lon="3.7932">
        <ele>1427.21</ele>
        <time>2022-08-05T11:01:40Z</time>
      </trkpt>
      <trkpt lat="44.52364" lon="3.7934">
        <ele>1435.87</ele>
        <time>2022-08-05T11:01:55Z</time>
      </trkpt>
      <trkpt lat="44.52358" lon="3.79359">
        <ele>1440.19</ele>
        <time>2022-08-05T11:02:08Z</time>
      </trkpt>
      <trkpt lat="44.52352" lon="3.79375">
        <ele>1438.27</ele>
        <time>2022-08-05T11:02:19Z</time>
      </trkpt>
      <trkpt lat="44.52354" lon="3.79406">
        <ele>1428.18</ele>
        <time>2022-08-05T11:02:34Z</time>
      </trkpt>
      <trkpt lat="44.52356" lon="3.79431">
        <ele>1422.41</ele>
        <time>2022-08-05T11:02:47Z</time>
      </trkpt>
      <trkpt lat="44.52353" lon="3.79446">
        <ele>1420.97</ele>
        <time>2022-08-05T11:02:59Z</time>
      </trkpt>
      <trkpt lat="44.52345" lon="3.79466">
        <ele>1420.97</ele>
        <time>2022-08-05T11:03:13Z</time>
      </trkpt>
      <trkpt lat="44.52338" lon="3.79484">
        <ele>1422.89</ele>
        <time>2022-08-05T11:03:27Z</time>
      </trkpt>
      <trkpt lat="44.52327" lon="3.79502">
        <ele>1425.77</ele>
        <time>2022-08-05T11:03:42Z</time>
      </trkpt>
      <trkpt lat="44.52321" lon="3.79517">
        <ele>1426.25</ele>
        <time>2022-08-05T11:03:54Z</time>
      </trkpt>
      <trkpt lat="44.52312" lon="3.79541">
        <ele>1424.33</ele>
        <time>2022-08-05T11:04:10Z</time>
      </trkpt>
      <trkpt lat="44.52308" lon="3.79547">
        <ele>1425.29</ele>
        <time>2022-08-05T11:04:14Z</time>
      </trkpt>
      <trkpt lat="44.52297" lon="3.79564">
        <ele>1426.73</ele>
        <time>2022-08-05T11:04:27Z</time>
      </trkpt>
      <trkpt lat="44.52291" lon="3.79579">
        <ele>1421.45</ele>
        <time>2022-08-05T11:04:35Z</time>
      </trkpt>
      <trkpt lat="44.52286" lon="3.79589">
        <ele>1419.04</ele>
        <time>2022-08-05T11:04:41Z</time>
      </trkpt>
      <trkpt lat="44.52282" lon="3.79593">
        <ele>1419.04</ele>
        <time>2022-08-05T11:04:46Z</time>
      </trkpt>
      <trkpt lat="44.52268" lon="3.79606">
        <ele>1414.72</ele>
        <time>2022-08-05T11:05:01Z</time>
      </trkpt>
      <trkpt lat="44.52261" lon="3.79614">
        <ele>1407.03</ele>
        <time>2022-08-05T11:05:09Z</time>
      </trkpt>
      <trkpt lat="44.52247" lon="3.79615">
        <ele>1388.28</ele>
        <time>2022-08-05T11:05:26Z</time>
      </trkpt>
      <trkpt lat="44.52232" lon="3.79615">
        <ele>1374.82</ele>
        <time>2022-08-05T11:05:44Z</time>
      </trkpt>
      <trkpt lat="44.52219" lon="3.7961">
        <ele>1370.02</ele>
        <time>2022-08-05T11:05:59Z</time>
      </trkpt>
      <trkpt lat="44.52201" lon="3.79605">
        <ele>1366.17</ele>
        <time>2022-08-05T11:06:15Z</time>
      </trkpt>
      <trkpt lat="44.52186" lon="3.79603">
        <ele>1362.81</ele>
        <time>2022-08-05T11:06:29Z</time>
      </trkpt>
      <trkpt lat="44.52174" lon="3.79601">
        <ele>1361.36</ele>
        <time>2022-08-05T11:06:42Z</time>
      </trkpt>
      <trkpt lat="44.52159" lon="3.79599">
        <ele>1357.52</ele>
        <time>2022-08-05T11:06:56Z</time>
      </trkpt>
      <trkpt lat="44.52147" lon="3.79597">
        <ele>1356.56</ele>
        <time>2022-08-05T11:07:10Z</time>
      </trkpt>
      <trkpt lat="44.52132" lon="3.79592">
        <ele>1350.79</ele>
        <time>2022-08-05T11:07:25Z</time>
      </trkpt>
      <trkpt lat="44.52115" lon="3.79583">
        <ele>1344.54</ele>
        <time>2022-08-05T11:07:42Z</time>
      </trkpt>
      <trkpt lat="44.52099" lon="3.79577">
        <ele>1341.18</ele>
        <time>2022-08-05T11:07:58Z</time>
      </trkpt>
      <trkpt lat="44.52083" lon="3.7957">
        <ele>1340.22</ele>
        <time>2022-08-05T11:08:13Z</time>
      </trkpt>
      <trkpt lat="44.52081" lon="3.79569">
        <ele>1339.73</ele>
        <time>2022-08-05T11:08:15Z</time>
      </trkpt>
      <trkpt lat="44.52065" lon="3.79565">
        <ele>1339.25</ele>
        <time>2022-08-05T11:08:30Z</time>
      </trkpt>
      <trkpt lat="44.52049" lon="3.79564">
        <ele>1335.89</ele>
        <time>2022-08-05T11:08:46Z</time>
      </trkpt>
      <trkpt lat="44.5203" lon="3.79564">
        <ele>1333.01</ele>
        <time>2022-08-05T11:09:02Z</time>
      </trkpt>
      <trkpt lat="44.52013" lon="3.79566">
        <ele>1333.01</ele>
        <time>2022-08-05T11:09:19Z</time>
      </trkpt>
      <trkpt lat="44.52" lon="3.79572">
        <ele>1332.04</ele>
        <time>2022-08-05T11:09:33Z</time>
      </trkpt>
      <trkpt lat="44.51991" lon="3.79578">
        <ele>1332.52</ele>
        <time>2022-08-05T11:09:43Z</time>
      </trkpt>
      <trkpt lat="44.51986" lon="3.79581">
        <ele>1332.52</ele>
        <time>2022-08-05T11:09:48Z</time>
      </trkpt>
      <trkpt lat="44.5197" lon="3.79589">
        <ele>1331.08</ele>
        <time>2022-08-05T11:10:03Z</time>
      </trkpt>
      <trkpt lat="44.51966" lon="3.79589">
        <ele>1330.12</ele>
        <time>2022-08-05T11:10:07Z</time>
      </trkpt>
      <trkpt lat="44.51963" lon="3.79591">
        <ele>1329.16</ele>
        <time>2022-08-05T11:10:10Z</time>
      </trkpt>
      <trkpt lat="44.51953" lon="3.79597">
        <ele>1327.72</ele>
        <time>2022-08-05T11:10:21Z</time>
      </trkpt>
      <trkpt lat="44.5195" lon="3.79601">
        <ele>1327.72</ele>
        <time>2022-08-05T11:10:24Z</time>
      </trkpt>
      <trkpt lat="44.51946" lon="3.79604">
        <ele>1327.72</ele>
        <time>2022-08-05T11:10:28Z</time>
      </trkpt>
      <trkpt lat="44.51931" lon="3.7962">
        <ele>1326.76</ele>
        <time>2022-08-05T11:10:45Z</time>
      </trkpt>
      <trkpt lat="44.51917" lon="3.79638">
        <ele>1326.76</ele>
        <time>2022-08-05T11:11:02Z</time>
      </trkpt>
      <trkpt lat="44.51907" lon="3.7965">
        <ele>1327.24</ele>
        <time>2022-08-05T11:11:16Z</time>
      </trkpt>
      <trkpt lat="44.51893" lon="3.79663">
        <ele>1329.16</ele>
        <time>2022-08-05T11:11:30Z</time>
      </trkpt>
      <trkpt lat="44.5188" lon="3.79671">
        <ele>1330.12</ele>
        <time>2022-08-05T11:11:43Z</time>
      </trkpt>
      <trkpt lat="44.51866" lon="3.79685">
        <ele>1330.12</ele>
        <time>2022-08-05T11:11:58Z</time>
      </trkpt>
      <trkpt lat="44.51849" lon="3.79692">
        <ele>1327.24</ele>
        <time>2022-08-05T11:12:13Z</time>
      </trkpt>
      <trkpt lat="44.5184" lon="3.79709">
        <ele>1307.05</ele>
        <time>2022-08-05T11:12:27Z</time>
      </trkpt>
      <trkpt lat="44.51842" lon="3.79711">
        <ele>1308.01</ele>
        <time>2022-08-05T11:12:55Z</time>
      </trkpt>
      <trkpt lat="44.51846" lon="3.79708">
        <ele>1309.45</ele>
        <time>2022-08-05T11:13:24Z</time>
      </trkpt>
      <trkpt lat="44.51848" lon="3.79711">
        <ele>1304.17</ele>
        <time>2022-08-05T11:13:50Z</time>
      </trkpt>
      <trkpt lat="44.51844" lon="3.79709">
        <ele>1301.76</ele>
        <time>2022-08-05T11:14:35Z</time>
      </trkpt>
      <trkpt lat="44.51845" lon="3.79708">
        <ele>1296.96</ele>
        <time>2022-08-05T11:15:11Z</time>
      </trkpt>
      <trkpt lat="44.51843" lon="3.79714">
        <ele>1296.48</ele>
        <time>2022-08-05T11:15:24Z</time>
      </trkpt>
      <trkpt lat="44.51844" lon="3.79718">
        <ele>1299.36</ele>
        <time>2022-08-05T11:15:49Z</time>
      </trkpt>
      <trkpt lat="44.5184" lon="3.79715">
        <ele>1298.4</ele>
        <time>2022-08-05T11:16:05Z</time>
      </trkpt>
      <trkpt lat="44.51835" lon="3.79719">
        <ele>1294.55</ele>
        <time>2022-08-05T11:16:14Z</time>
      </trkpt>
      <trkpt lat="44.5183" lon="3.79722">
        <ele>1290.23</ele>
        <time>2022-08-05T11:16:28Z</time>
      </trkpt>
      <trkpt lat="44.51828" lon="3.7972">
        <ele>1290.71</ele>
        <time>2022-08-05T11:16:46Z</time>
      </trkpt>
      <trkpt lat="44.51818" lon="3.79725">
        <ele>1288.78</ele>
        <time>2022-08-05T11:16:59Z</time>
      </trkpt>
      <trkpt lat="44.51817" lon="3.79726">
        <ele>1288.3</ele>
        <time>2022-08-05T11:17:00Z</time>
      </trkpt>
      <trkpt lat="44.51806" lon="3.79737">
        <ele>1283.98</ele>
        <time>2022-08-05T11:17:14Z</time>
      </trkpt>
      <trkpt lat="44.51793" lon="3.79754">
        <ele>1280.61</ele>
        <time>2022-08-05T11:17:31Z</time>
      </trkpt>
      <trkpt lat="44.51791" lon="3.79755">
        <ele>1280.61</ele>
        <time>2022-08-05T11:17:33Z</time>
      </trkpt>
      <trkpt lat="44.51787" lon="3.79757">
        <ele>1280.13</ele>
        <time>2022-08-05T11:17:37Z</time>
      </trkpt>
      <trkpt lat="44.51784" lon="3.79758">
        <ele>1280.13</ele>
        <time>2022-08-05T11:17:40Z</time>
      </trkpt>
      <trkpt lat="44.51773" lon="3.79764">
        <ele>1279.65</ele>
        <time>2022-08-05T11:17:52Z</time>
      </trkpt>
      <trkpt lat="44.5176" lon="3.79773">
        <ele>1279.17</ele>
        <time>2022-08-05T11:18:06Z</time>
      </trkpt>
      <trkpt lat="44.51758" lon="3.79774">
        <ele>1278.69</ele>
        <time>2022-08-05T11:18:08Z</time>
      </trkpt>
      <trkpt lat="44.51738" lon="3.7978">
        <ele>1280.13</ele>
        <time>2022-08-05T11:18:26Z</time>
      </trkpt>
      <trkpt lat="44.51718" lon="3.79787">
        <ele>1282.54</ele>
        <time>2022-08-05T11:18:43Z</time>
      </trkpt>
      <trkpt lat="44.517" lon="3.79793">
        <ele>1286.86</ele>
        <time>2022-08-05T11:19:00Z</time>
      </trkpt>
      <trkpt lat="44.51688" lon="3.79797">
        <ele>1289.75</ele>
        <time>2022-08-05T11:19:13Z</time>
      </trkpt>
      <trkpt lat="44.51673" lon="3.79805">
        <ele>1291.19</ele>
        <time>2022-08-05T11:19:28Z</time>
      </trkpt>
      <trkpt lat="44.5166" lon="3.79812">
        <ele>1286.38</ele>
        <time>2022-08-05T11:19:42Z</time>
      </trkpt>
      <trkpt lat="44.51648" lon="3.79816">
        <ele>1281.09</ele>
        <time>2022-08-05T11:19:56Z</time>
      </trkpt>
      <trkpt lat="44.51649" lon="3.79809">
        <ele>1273.4</ele>
        <time>2022-08-05T11:20:12Z</time>
      </trkpt>
      <trkpt lat="44.51657" lon="3.79796">
        <ele>1271.48</ele>
        <time>2022-08-05T11:20:27Z</time>
      </trkpt>
      <trkpt lat="44.51665" lon="3.79781">
        <ele>1273.4</ele>
        <time>2022-08-05T11:20:42Z</time>
      </trkpt>
      <trkpt lat="44.51668" lon="3.79776">
        <ele>1274.36</ele>
        <time>2022-08-05T11:20:47Z</time>
      </trkpt>
      <trkpt lat="44.51682" lon="3.79748">
        <ele>1274.85</ele>
        <time>2022-08-05T11:21:05Z</time>
      </trkpt>
      <trkpt lat="44.51685" lon="3.79739">
        <ele>1272.92</ele>
        <time>2022-08-05T11:21:09Z</time>
      </trkpt>
      <trkpt lat="44.51696" lon="3.79717">
        <ele>1273.4</ele>
        <time>2022-08-05T11:21:26Z</time>
      </trkpt>
      <trkpt lat="44.51708" lon="3.79694">
        <ele>1274.85</ele>
        <time>2022-08-05T11:21:44Z</time>
      </trkpt>
      <trkpt lat="44.51723" lon="3.7968">
        <ele>1274.36</ele>
        <time>2022-08-05T11:22:00Z</time>
      </trkpt>
      <trkpt lat="44.51731" lon="3.79665">
        <ele>1272.44</ele>
        <time>2022-08-05T11:22:15Z</time>
      </trkpt>
      <trkpt lat="44.51742" lon="3.7965">
        <ele>1271</ele>
        <time>2022-08-05T11:22:29Z</time>
      </trkpt>
      <trkpt lat="44.51754" lon="3.79622">
        <ele>1263.79</ele>
        <time>2022-08-05T11:22:46Z</time>
      </trkpt>
      <trkpt lat="44.5176" lon="3.796">
        <ele>1259.46</ele>
        <time>2022-08-05T11:23:03Z</time>
      </trkpt>
      <trkpt lat="44.51768" lon="3.79578">
        <ele>1257.06</ele>
        <time>2022-08-05T11:23:20Z</time>
      </trkpt>
      <trkpt lat="44.5177" lon="3.79573">
        <ele>1257.06</ele>
        <time>2022-08-05T11:23:23Z</time>
      </trkpt>
      <trkpt lat="44.51778" lon="3.79549">
        <ele>1251.77</ele>
        <time>2022-08-05T11:23:37Z</time>
      </trkpt>
      <trkpt lat="44.51785" lon="3.79528">
        <ele>1252.74</ele>
        <time>2022-08-05T11:23:52Z</time>
      </trkpt>
      <trkpt lat="44.51794" lon="3.79509">
        <ele>1258.02</ele>
        <time>2022-08-05T11:24:08Z</time>
      </trkpt>
      <trkpt lat="44.51805" lon="3.79491">
        <ele>1260.43</ele>
        <time>2022-08-05T11:24:23Z</time>
      </trkpt>
      <trkpt lat="44.5181" lon="3.79466">
        <ele>1261.87</ele>
        <time>2022-08-05T11:24:40Z</time>
      </trkpt>
      <trkpt lat="44.51817" lon="3.79444">
        <ele>1260.91</ele>
        <time>2022-08-05T11:24:55Z</time>
      </trkpt>
      <trkpt lat="44.51826" lon="3.79424">
        <ele>1255.62</ele>
        <time>2022-08-05T11:25:12Z</time>
      </trkpt>
      <trkpt lat="44.51831" lon="3.79406">
        <ele>1254.66</ele>
        <time>2022-08-05T11:25:29Z</time>
      </trkpt>
      <trkpt lat="44.51834" lon="3.79386">
        <ele>1262.83</ele>
        <time>2022-08-05T11:25:47Z</time>
      </trkpt>
      <trkpt lat="44.51838" lon="3.79373">
        <ele>1268.6</ele>
        <time>2022-08-05T11:26:02Z</time>
      </trkpt>
      <trkpt lat="44.51823" lon="3.79365">
        <ele>1274.36</ele>
        <time>2022-08-05T11:26:17Z</time>
      </trkpt>
      <trkpt lat="44.51804" lon="3.79362">
        <ele>1276.29</ele>
        <time>2022-08-05T11:26:32Z</time>
      </trkpt>
      <trkpt lat="44.51793" lon="3.79364">
        <ele>1276.29</ele>
        <time>2022-08-05T11:26:42Z</time>
      </trkpt>
      <trkpt lat="44.51783" lon="3.79372">
        <ele>1275.81</ele>
        <time>2022-08-05T11:26:58Z</time>
      </trkpt>
      <trkpt lat="44.51768" lon="3.79387">
        <ele>1279.17</ele>
        <time>2022-08-05T11:27:16Z</time>
      </trkpt>
      <trkpt lat="44.51753" lon="3.79401">
        <ele>1280.13</ele>
        <time>2022-08-05T11:27:33Z</time>
      </trkpt>
      <trkpt lat="44.51739" lon="3.79414">
        <ele>1277.73</ele>
        <time>2022-08-05T11:27:49Z</time>
      </trkpt>
      <trkpt lat="44.51724" lon="3.79427">
        <ele>1273.88</ele>
        <time>2022-08-05T11:28:07Z</time>
      </trkpt>
      <trkpt lat="44.51716" lon="3.79436">
        <ele>1271.48</ele>
        <time>2022-08-05T11:28:22Z</time>
      </trkpt>
      <trkpt lat="44.51728" lon="3.79433">
        <ele>1267.64</ele>
        <time>2022-08-05T11:28:38Z</time>
      </trkpt>
      <trkpt lat="44.51729" lon="3.79432">
        <ele>1267.16</ele>
        <time>2022-08-05T11:28:39Z</time>
      </trkpt>
      <trkpt lat="44.5174" lon="3.79417">
        <ele>1266.67</ele>
        <time>2022-08-05T11:28:54Z</time>
      </trkpt>
      <trkpt lat="44.51752" lon="3.79402">
        <ele>1269.08</ele>
        <time>2022-08-05T11:29:08Z</time>
      </trkpt>
      <trkpt lat="44.5176" lon="3.79389">
        <ele>1271.48</ele>
        <time>2022-08-05T11:29:22Z</time>
      </trkpt>
      <trkpt lat="44.51766" lon="3.79372">
        <ele>1273.88</ele>
        <time>2022-08-05T11:29:39Z</time>
      </trkpt>
      <trkpt lat="44.51776" lon="3.79357">
        <ele>1276.77</ele>
        <time>2022-08-05T11:29:52Z</time>
      </trkpt>
      <trkpt lat="44.51792" lon="3.79341">
        <ele>1281.09</ele>
        <time>2022-08-05T11:30:06Z</time>
      </trkpt>
      <trkpt lat="44.51797" lon="3.79331">
        <ele>1282.54</ele>
        <time>2022-08-05T11:30:17Z</time>
      </trkpt>
      <trkpt lat="44.51801" lon="3.79313">
        <ele>1285.42</ele>
        <time>2022-08-05T11:30:34Z</time>
      </trkpt>
      <trkpt lat="44.51811" lon="3.79294">
        <ele>1293.59</ele>
        <time>2022-08-05T11:30:49Z</time>
      </trkpt>
      <trkpt lat="44.51817" lon="3.79287">
        <ele>1296.48</ele>
        <time>2022-08-05T11:30:59Z</time>
      </trkpt>
      <trkpt lat="44.5182" lon="3.79273">
        <ele>1299.36</ele>
        <time>2022-08-05T11:31:12Z</time>
      </trkpt>
      <trkpt lat="44.51825" lon="3.7926">
        <ele>1303.69</ele>
        <time>2022-08-05T11:31:23Z</time>
      </trkpt>
      <trkpt lat="44.51832" lon="3.79246">
        <ele>1307.05</ele>
        <time>2022-08-05T11:31:37Z</time>
      </trkpt>
      <trkpt lat="44.51839" lon="3.79227">
        <ele>1309.93</ele>
        <time>2022-08-05T11:31:52Z</time>
      </trkpt>
      <trkpt lat="44.51847" lon="3.79208">
        <ele>1309.45</ele>
        <time>2022-08-05T11:32:07Z</time>
      </trkpt>
      <trkpt lat="44.51849" lon="3.79206">
        <ele>1308.97</ele>
        <time>2022-08-05T11:32:10Z</time>
      </trkpt>
      <trkpt lat="44.51855" lon="3.79183">
        <ele>1307.53</ele>
        <time>2022-08-05T11:32:23Z</time>
      </trkpt>
      <trkpt lat="44.5186" lon="3.79165">
        <ele>1303.2</ele>
        <time>2022-08-05T11:32:36Z</time>
      </trkpt>
      <trkpt lat="44.51865" lon="3.79142">
        <ele>1300.8</ele>
        <time>2022-08-05T11:32:50Z</time>
      </trkpt>
      <trkpt lat="44.51873" lon="3.79122">
        <ele>1302.72</ele>
        <time>2022-08-05T11:33:05Z</time>
      </trkpt>
      <trkpt lat="44.51878" lon="3.79106">
        <ele>1302.24</ele>
        <time>2022-08-05T11:33:18Z</time>
      </trkpt>
      <trkpt lat="44.5188" lon="3.79087">
        <ele>1302.72</ele>
        <time>2022-08-05T11:33:33Z</time>
      </trkpt>
      <trkpt lat="44.51885" lon="3.79067">
        <ele>1301.28</ele>
        <time>2022-08-05T11:33:50Z</time>
      </trkpt>
      <trkpt lat="44.51885" lon="3.79049">
        <ele>1301.76</ele>
        <time>2022-08-05T11:34:07Z</time>
      </trkpt>
      <trkpt lat="44.51887" lon="3.7903">
        <ele>1303.69</ele>
        <time>2022-08-05T11:34:23Z</time>
      </trkpt>
      <trkpt lat="44.51884" lon="3.79009">
        <ele>1305.13</ele>
        <time>2022-08-05T11:34:37Z</time>
      </trkpt>
      <trkpt lat="44.51876" lon="3.78989">
        <ele>1305.61</ele>
        <time>2022-08-05T11:34:51Z</time>
      </trkpt>
      <trkpt lat="44.51875" lon="3.78974">
        <ele>1304.65</ele>
        <time>2022-08-05T11:35:06Z</time>
      </trkpt>
      <trkpt lat="44.51882" lon="3.78961">
        <ele>1305.61</ele>
        <time>2022-08-05T11:35:18Z</time>
      </trkpt>
      <trkpt lat="44.51886" lon="3.78962">
        <ele>1305.61</ele>
        <time>2022-08-05T11:35:30Z</time>
      </trkpt>
      <trkpt lat="44.51896" lon="3.78965">
        <ele>1305.13</ele>
        <time>2022-08-05T11:35:46Z</time>
      </trkpt>
      <trkpt lat="44.51904" lon="3.78968">
        <ele>1305.13</ele>
        <time>2022-08-05T11:35:59Z</time>
      </trkpt>
      <trkpt lat="44.5192" lon="3.78965">
        <ele>1306.57</ele>
        <time>2022-08-05T11:36:13Z</time>
      </trkpt>
      <trkpt lat="44.51931" lon="3.78957">
        <ele>1308.49</ele>
        <time>2022-08-05T11:36:24Z</time>
      </trkpt>
      <trkpt lat="44.51935" lon="3.78957">
        <ele>1308.49</ele>
        <time>2022-08-05T11:36:27Z</time>
      </trkpt>
      <trkpt lat="44.51943" lon="3.78948">
        <ele>1308.97</ele>
        <time>2022-08-05T11:36:37Z</time>
      </trkpt>
      <trkpt lat="44.51956" lon="3.78937">
        <ele>1308.49</ele>
        <time>2022-08-05T11:36:54Z</time>
      </trkpt>
      <trkpt lat="44.51966" lon="3.78923">
        <ele>1310.41</ele>
        <time>2022-08-05T11:37:08Z</time>
      </trkpt>
      <trkpt lat="44.51978" lon="3.78905">
        <ele>1313.3</ele>
        <time>2022-08-05T11:37:21Z</time>
      </trkpt>
      <trkpt lat="44.51988" lon="3.78888">
        <ele>1313.78</ele>
        <time>2022-08-05T11:37:34Z</time>
      </trkpt>
      <trkpt lat="44.51995" lon="3.78871">
        <ele>1314.26</ele>
        <time>2022-08-05T11:37:47Z</time>
      </trkpt>
      <trkpt lat="44.52003" lon="3.78856">
        <ele>1315.7</ele>
        <time>2022-08-05T11:38:02Z</time>
      </trkpt>
      <trkpt lat="44.52014" lon="3.7884">
        <ele>1320.03</ele>
        <time>2022-08-05T11:38:17Z</time>
      </trkpt>
      <trkpt lat="44.52025" lon="3.7882">
        <ele>1320.51</ele>
        <time>2022-08-05T11:38:30Z</time>
      </trkpt>
      <trkpt lat="44.52032" lon="3.78805">
        <ele>1321.95</ele>
        <time>2022-08-05T11:38:43Z</time>
      </trkpt>
      <trkpt lat="44.52037" lon="3.78789">
        <ele>1324.83</ele>
        <time>2022-08-05T11:38:57Z</time>
      </trkpt>
      <trkpt lat="44.52047" lon="3.78772">
        <ele>1328.2</ele>
        <time>2022-08-05T11:39:12Z</time>
      </trkpt>
      <trkpt lat="44.52057" lon="3.78751">
        <ele>1327.24</ele>
        <time>2022-08-05T11:39:26Z</time>
      </trkpt>
      <trkpt lat="44.5206" lon="3.78735">
        <ele>1326.76</ele>
        <time>2022-08-05T11:39:39Z</time>
      </trkpt>
      <trkpt lat="44.52065" lon="3.78715">
        <ele>1326.76</ele>
        <time>2022-08-05T11:39:53Z</time>
      </trkpt>
      <trkpt lat="44.52072" lon="3.78696">
        <ele>1326.28</ele>
        <time>2022-08-05T11:40:07Z</time>
      </trkpt>
      <trkpt lat="44.52072" lon="3.78688">
        <ele>1324.83</ele>
        <time>2022-08-05T11:40:13Z</time>
      </trkpt>
      <trkpt lat="44.52078" lon="3.7867">
        <ele>1321.47</ele>
        <time>2022-08-05T11:40:29Z</time>
      </trkpt>
      <trkpt lat="44.52085" lon="3.78647">
        <ele>1321.95</ele>
        <time>2022-08-05T11:40:42Z</time>
      </trkpt>
      <trkpt lat="44.52088" lon="3.78641">
        <ele>1323.39</ele>
        <time>2022-08-05T11:40:46Z</time>
      </trkpt>
      <trkpt lat="44.52095" lon="3.78626">
        <ele>1326.76</ele>
        <time>2022-08-05T11:40:58Z</time>
      </trkpt>
      <trkpt lat="44.52099" lon="3.7861">
        <ele>1333.01</ele>
        <time>2022-08-05T11:41:15Z</time>
      </trkpt>
      <trkpt lat="44.52105" lon="3.78595">
        <ele>1334.45</ele>
        <time>2022-08-05T11:41:30Z</time>
      </trkpt>
      <trkpt lat="44.52108" lon="3.7858">
        <ele>1332.04</ele>
        <time>2022-08-05T11:41:46Z</time>
      </trkpt>
      <trkpt lat="44.52116" lon="3.7856">
        <ele>1333.49</ele>
        <time>2022-08-05T11:42:01Z</time>
      </trkpt>
      <trkpt lat="44.52125" lon="3.7854">
        <ele>1333.49</ele>
        <time>2022-08-05T11:42:16Z</time>
      </trkpt>
      <trkpt lat="44.52131" lon="3.78519">
        <ele>1335.41</ele>
        <time>2022-08-05T11:42:32Z</time>
      </trkpt>
      <trkpt lat="44.52133" lon="3.78506">
        <ele>1336.85</ele>
        <time>2022-08-05T11:42:44Z</time>
      </trkpt>
      <trkpt lat="44.52145" lon="3.78477">
        <ele>1333.01</ele>
        <time>2022-08-05T11:42:58Z</time>
      </trkpt>
      <trkpt lat="44.52149" lon="3.78459">
        <ele>1332.04</ele>
        <time>2022-08-05T11:43:13Z</time>
      </trkpt>
      <trkpt lat="44.52154" lon="3.78445">
        <ele>1333.97</ele>
        <time>2022-08-05T11:43:25Z</time>
      </trkpt>
      <trkpt lat="44.52153" lon="3.78432">
        <ele>1330.6</ele>
        <time>2022-08-05T11:43:39Z</time>
      </trkpt>
      <trkpt lat="44.52153" lon="3.78414">
        <ele>1331.08</ele>
        <time>2022-08-05T11:43:50Z</time>
      </trkpt>
      <trkpt lat="44.52139" lon="3.78406">
        <ele>1326.76</ele>
        <time>2022-08-05T11:44:05Z</time>
      </trkpt>
      <trkpt lat="44.52126" lon="3.78413">
        <ele>1327.24</ele>
        <time>2022-08-05T11:44:23Z</time>
      </trkpt>
      <trkpt lat="44.52117" lon="3.78421">
        <ele>1330.12</ele>
        <time>2022-08-05T11:44:38Z</time>
      </trkpt>
      <trkpt lat="44.52106" lon="3.78437">
        <ele>1332.04</ele>
        <time>2022-08-05T11:44:54Z</time>
      </trkpt>
      <trkpt lat="44.52096" lon="3.78455">
        <ele>1332.04</ele>
        <time>2022-08-05T11:45:12Z</time>
      </trkpt>
      <trkpt lat="44.52085" lon="3.78473">
        <ele>1331.08</ele>
        <time>2022-08-05T11:45:28Z</time>
      </trkpt>
      <trkpt lat="44.52079" lon="3.7849">
        <ele>1333.01</ele>
        <time>2022-08-05T11:45:46Z</time>
      </trkpt>
      <trkpt lat="44.52065" lon="3.78503">
        <ele>1334.45</ele>
        <time>2022-08-05T11:46:03Z</time>
      </trkpt>
      <trkpt lat="44.52049" lon="3.7852">
        <ele>1336.85</ele>
        <time>2022-08-05T11:46:23Z</time>
      </trkpt>
      <trkpt lat="44.52037" lon="3.7853">
        <ele>1339.25</ele>
        <time>2022-08-05T11:46:39Z</time>
      </trkpt>
      <trkpt lat="44.52027" lon="3.78538">
        <ele>1340.7</ele>
        <time>2022-08-05T11:46:52Z</time>
      </trkpt>
      <trkpt lat="44.52016" lon="3.7855">
        <ele>1341.18</ele>
        <time>2022-08-05T11:47:08Z</time>
      </trkpt>
      <trkpt lat="44.52005" lon="3.78559">
        <ele>1345.02</ele>
        <time>2022-08-05T11:47:25Z</time>
      </trkpt>
      <trkpt lat="44.51996" lon="3.7857">
        <ele>1344.54</ele>
        <time>2022-08-05T11:47:40Z</time>
      </trkpt>
      <trkpt lat="44.5198" lon="3.78586">
        <ele>1345.5</ele>
        <time>2022-08-05T11:47:58Z</time>
      </trkpt>
      <trkpt lat="44.51969" lon="3.78595">
        <ele>1347.91</ele>
        <time>2022-08-05T11:48:14Z</time>
      </trkpt>
      <trkpt lat="44.51957" lon="3.78606">
        <ele>1349.83</ele>
        <time>2022-08-05T11:48:30Z</time>
      </trkpt>
      <trkpt lat="44.51942" lon="3.78617">
        <ele>1351.75</ele>
        <time>2022-08-05T11:48:45Z</time>
      </trkpt>
      <trkpt lat="44.51925" lon="3.78629">
        <ele>1349.83</ele>
        <time>2022-08-05T11:49:03Z</time>
      </trkpt>
      <trkpt lat="44.5191" lon="3.78645">
        <ele>1351.27</ele>
        <time>2022-08-05T11:49:17Z</time>
      </trkpt>
      <trkpt lat="44.519" lon="3.78649">
        <ele>1348.39</ele>
        <time>2022-08-05T11:49:34Z</time>
      </trkpt>
      <trkpt lat="44.51892" lon="3.78656">
        <ele>1348.87</ele>
        <time>2022-08-05T11:49:47Z</time>
      </trkpt>
      <trkpt lat="44.51881" lon="3.78665">
        <ele>1349.35</ele>
        <time>2022-08-05T11:50:01Z</time>
      </trkpt>
      <trkpt lat="44.51873" lon="3.7867">
        <ele>1348.87</ele>
        <time>2022-08-05T11:50:07Z</time>
      </trkpt>
      <trkpt lat="44.5187" lon="3.7867">
        <ele>1348.87</ele>
        <time>2022-08-05T11:50:09Z</time>
      </trkpt>
      <trkpt lat="44.51856" lon="3.78677">
        <ele>1349.83</ele>
        <time>2022-08-05T11:50:24Z</time>
      </trkpt>
      <trkpt lat="44.51839" lon="3.78678">
        <ele>1353.19</ele>
        <time>2022-08-05T11:50:42Z</time>
      </trkpt>
      <trkpt lat="44.51825" lon="3.78681">
        <ele>1355.12</ele>
        <time>2022-08-05T11:50:54Z</time>
      </trkpt>
      <trkpt lat="44.51809" lon="3.7868">
        <ele>1357.04</ele>
        <time>2022-08-05T11:51:12Z</time>
      </trkpt>
      <trkpt lat="44.518" lon="3.7868">
        <ele>1356.08</ele>
        <time>2022-08-05T11:51:23Z</time>
      </trkpt>
      <trkpt lat="44.5179" lon="3.78677">
        <ele>1356.08</ele>
        <time>2022-08-05T11:51:37Z</time>
      </trkpt>
      <trkpt lat="44.51773" lon="3.78671">
        <ele>1358.48</ele>
        <time>2022-08-05T11:51:51Z</time>
      </trkpt>
      <trkpt lat="44.51763" lon="3.78666">
        <ele>1359.92</ele>
        <time>2022-08-05T11:52:01Z</time>
      </trkpt>
      <trkpt lat="44.51743" lon="3.78655">
        <ele>1363.77</ele>
        <time>2022-08-05T11:52:17Z</time>
      </trkpt>
      <trkpt lat="44.51731" lon="3.7865">
        <ele>1365.69</ele>
        <time>2022-08-05T11:52:30Z</time>
      </trkpt>
      <trkpt lat="44.51714" lon="3.78644">
        <ele>1366.17</ele>
        <time>2022-08-05T11:52:46Z</time>
      </trkpt>
      <trkpt lat="44.51694" lon="3.78636">
        <ele>1366.65</ele>
        <time>2022-08-05T11:53:01Z</time>
      </trkpt>
      <trkpt lat="44.5168" lon="3.78636">
        <ele>1364.73</ele>
        <time>2022-08-05T11:53:14Z</time>
      </trkpt>
      <trkpt lat="44.51662" lon="3.78635">
        <ele>1365.21</ele>
        <time>2022-08-05T11:53:31Z</time>
      </trkpt>
      <trkpt lat="44.5165" lon="3.78634">
        <ele>1366.65</ele>
        <time>2022-08-05T11:53:44Z</time>
      </trkpt>
      <trkpt lat="44.51639" lon="3.78631">
        <ele>1369.05</ele>
        <time>2022-08-05T11:53:57Z</time>
      </trkpt>
      <trkpt lat="44.51627" lon="3.78632">
        <ele>1370.02</ele>
        <time>2022-08-05T11:54:10Z</time>
      </trkpt>
      <trkpt lat="44.5161" lon="3.78627">
        <ele>1369.54</ele>
        <time>2022-08-05T11:54:26Z</time>
      </trkpt>
      <trkpt lat="44.51598" lon="3.78622">
        <ele>1370.5</ele>
        <time>2022-08-05T11:54:40Z</time>
      </trkpt>
      <trkpt lat="44.51584" lon="3.78621">
        <ele>1370.5</ele>
        <time>2022-08-05T11:54:53Z</time>
      </trkpt>
      <trkpt lat="44.51574" lon="3.78616">
        <ele>1370.02</ele>
        <time>2022-08-05T11:55:05Z</time>
      </trkpt>
      <trkpt lat="44.51558" lon="3.7861">
        <ele>1369.54</ele>
        <time>2022-08-05T11:55:20Z</time>
      </trkpt>
      <trkpt lat="44.51545" lon="3.78608">
        <ele>1369.05</ele>
        <time>2022-08-05T11:55:34Z</time>
      </trkpt>
      <trkpt lat="44.51523" lon="3.786">
        <ele>1366.65</ele>
        <time>2022-08-05T11:55:49Z</time>
      </trkpt>
      <trkpt lat="44.51521" lon="3.78598">
        <ele>1366.65</ele>
        <time>2022-08-05T11:55:52Z</time>
      </trkpt>
      <trkpt lat="44.51512" lon="3.78588">
        <ele>1363.77</ele>
        <time>2022-08-05T11:56:09Z</time>
      </trkpt>
      <trkpt lat="44.51508" lon="3.78584">
        <ele>1362.33</ele>
        <time>2022-08-05T11:56:25Z</time>
      </trkpt>
      <trkpt lat="44.51511" lon="3.78581">
        <ele>1362.33</ele>
        <time>2022-08-05T11:56:28Z</time>
      </trkpt>
      <trkpt lat="44.51518" lon="3.78565">
        <ele>1363.29</ele>
        <time>2022-08-05T11:56:46Z</time>
      </trkpt>
      <trkpt lat="44.51515" lon="3.78562">
        <ele>1364.73</ele>
        <time>2022-08-05T11:57:12Z</time>
      </trkpt>
      <trkpt lat="44.51515" lon="3.78555">
        <ele>1366.17</ele>
        <time>2022-08-05T11:57:35Z</time>
      </trkpt>
      <trkpt lat="44.51515" lon="3.78555">
        <ele>1365.69</ele>
        <time>2022-08-05T11:57:36Z</time>
      </trkpt>
      <trkpt lat="44.51519" lon="3.78554">
        <ele>1364.25</ele>
        <time>2022-08-05T11:57:41Z</time>
      </trkpt>
      <trkpt lat="44.51518" lon="3.78549">
        <ele>1364.25</ele>
        <time>2022-08-05T11:57:46Z</time>
      </trkpt>
      <trkpt lat="44.51511" lon="3.78531">
        <ele>1366.17</ele>
        <time>2022-08-05T11:58:02Z</time>
      </trkpt>
      <trkpt lat="44.51506" lon="3.78513">
        <ele>1367.61</ele>
        <time>2022-08-05T11:58:16Z</time>
      </trkpt>
      <trkpt lat="44.51508" lon="3.78506">
        <ele>1366.65</ele>
        <time>2022-08-05T11:58:38Z</time>
      </trkpt>
      <trkpt lat="44.51507" lon="3.785">
        <ele>1359.92</ele>
        <time>2022-08-05T11:59:11Z</time>
      </trkpt>
      <trkpt lat="44.51503" lon="3.78492">
        <ele>1360.88</ele>
        <time>2022-08-05T11:59:18Z</time>
      </trkpt>
      <trkpt lat="44.51497" lon="3.78471">
        <ele>1363.77</ele>
        <time>2022-08-05T11:59:34Z</time>
      </trkpt>
      <trkpt lat="44.51496" lon="3.78448">
        <ele>1367.13</ele>
        <time>2022-08-05T11:59:49Z</time>
      </trkpt>
      <trkpt lat="44.51494" lon="3.78421">
        <ele>1369.05</ele>
        <time>2022-08-05T12:00:04Z</time>
      </trkpt>
      <trkpt lat="44.51488" lon="3.78408">
        <ele>1369.54</ele>
        <time>2022-08-05T12:00:11Z</time>
      </trkpt>
      <trkpt lat="44.51477" lon="3.7839">
        <ele>1364.73</ele>
        <time>2022-08-05T12:00:25Z</time>
      </trkpt>
      <trkpt lat="44.51478" lon="3.78372">
        <ele>1360.4</ele>
        <time>2022-08-05T12:00:41Z</time>
      </trkpt>
      <trkpt lat="44.51472" lon="3.78348">
        <ele>1359.92</ele>
        <time>2022-08-05T12:01:00Z</time>
      </trkpt>
      <trkpt lat="44.51464" lon="3.78326">
        <ele>1358</ele>
        <time>2022-08-05T12:01:17Z</time>
      </trkpt>
      <trkpt lat="44.51461" lon="3.78305">
        <ele>1355.6</ele>
        <time>2022-08-05T12:01:33Z</time>
      </trkpt>
      <trkpt lat="44.51455" lon="3.78282">
        <ele>1349.35</ele>
        <time>2022-08-05T12:01:53Z</time>
      </trkpt>
      <trkpt lat="44.5145" lon="3.7826">
        <ele>1347.91</ele>
        <time>2022-08-05T12:02:09Z</time>
      </trkpt>
      <trkpt lat="44.51447" lon="3.78245">
        <ele>1350.31</ele>
        <time>2022-08-05T12:02:25Z</time>
      </trkpt>
      <trkpt lat="44.51446" lon="3.78242">
        <ele>1349.83</ele>
        <time>2022-08-05T12:02:28Z</time>
      </trkpt>
      <trkpt lat="44.51427" lon="3.78223">
        <ele>1341.18</ele>
        <time>2022-08-05T12:02:44Z</time>
      </trkpt>
      <trkpt lat="44.51413" lon="3.78217">
        <ele>1338.29</ele>
        <time>2022-08-05T12:02:59Z</time>
      </trkpt>
      <trkpt lat="44.51392" lon="3.78214">
        <ele>1329.16</ele>
        <time>2022-08-05T12:03:12Z</time>
      </trkpt>
      <trkpt lat="44.51377" lon="3.78202">
        <ele>1325.31</ele>
        <time>2022-08-05T12:03:28Z</time>
      </trkpt>
      <trkpt lat="44.5136" lon="3.78191">
        <ele>1322.91</ele>
        <time>2022-08-05T12:03:43Z</time>
      </trkpt>
      <trkpt lat="44.51349" lon="3.78184">
        <ele>1322.43</ele>
        <time>2022-08-05T12:03:56Z</time>
      </trkpt>
      <trkpt lat="44.51334" lon="3.78169">
        <ele>1324.35</ele>
        <time>2022-08-05T12:04:12Z</time>
      </trkpt>
      <trkpt lat="44.51319" lon="3.78161">
        <ele>1325.31</ele>
        <time>2022-08-05T12:04:27Z</time>
      </trkpt>
      <trkpt lat="44.51302" lon="3.7815">
        <ele>1323.87</ele>
        <time>2022-08-05T12:04:42Z</time>
      </trkpt>
      <trkpt lat="44.51286" lon="3.7814">
        <ele>1322.43</ele>
        <time>2022-08-05T12:04:58Z</time>
      </trkpt>
      <trkpt lat="44.51272" lon="3.78132">
        <ele>1323.39</ele>
        <time>2022-08-05T12:05:12Z</time>
      </trkpt>
      <trkpt lat="44.5126" lon="3.78118">
        <ele>1326.28</ele>
        <time>2022-08-05T12:05:27Z</time>
      </trkpt>
      <trkpt lat="44.51259" lon="3.78117">
        <ele>1326.28</ele>
        <time>2022-08-05T12:05:28Z</time>
      </trkpt>
      <trkpt lat="44.51245" lon="3.78099">
        <ele>1323.87</ele>
        <time>2022-08-05T12:05:45Z</time>
      </trkpt>
      <trkpt lat="44.51231" lon="3.78082">
        <ele>1320.99</ele>
        <time>2022-08-05T12:06:02Z</time>
      </trkpt>
      <trkpt lat="44.51216" lon="3.78069">
        <ele>1320.99</ele>
        <time>2022-08-05T12:06:16Z</time>
      </trkpt>
      <trkpt lat="44.51204" lon="3.78052">
        <ele>1322.43</ele>
        <time>2022-08-05T12:06:32Z</time>
      </trkpt>
      <trkpt lat="44.51187" lon="3.78035">
        <ele>1323.39</ele>
        <time>2022-08-05T12:06:49Z</time>
      </trkpt>
      <trkpt lat="44.51184" lon="3.78031">
        <ele>1322.91</ele>
        <time>2022-08-05T12:06:52Z</time>
      </trkpt>
      <trkpt lat="44.51173" lon="3.78014">
        <ele>1322.43</ele>
        <time>2022-08-05T12:07:07Z</time>
      </trkpt>
      <trkpt lat="44.51166" lon="3.77996">
        <ele>1321.95</ele>
        <time>2022-08-05T12:07:20Z</time>
      </trkpt>
      <trkpt lat="44.51147" lon="3.77975">
        <ele>1317.62</ele>
        <time>2022-08-05T12:07:38Z</time>
      </trkpt>
      <trkpt lat="44.51129" lon="3.77961">
        <ele>1315.7</ele>
        <time>2022-08-05T12:07:55Z</time>
      </trkpt>
      <trkpt lat="44.51115" lon="3.77956">
        <ele>1314.26</ele>
        <time>2022-08-05T12:08:08Z</time>
      </trkpt>
      <trkpt lat="44.511" lon="3.77952">
        <ele>1309.45</ele>
        <time>2022-08-05T12:08:19Z</time>
      </trkpt>
      <trkpt lat="44.51097" lon="3.77949">
        <ele>1308.01</ele>
        <time>2022-08-05T12:08:23Z</time>
      </trkpt>
      <trkpt lat="44.51094" lon="3.77947">
        <ele>1305.61</ele>
        <time>2022-08-05T12:08:37Z</time>
      </trkpt>
      <trkpt lat="44.5109" lon="3.77939">
        <ele>1305.13</ele>
        <time>2022-08-05T12:08:55Z</time>
      </trkpt>
      <trkpt lat="44.5109" lon="3.77938">
        <ele>1305.61</ele>
        <time>2022-08-05T12:09:10Z</time>
      </trkpt>
      <trkpt lat="44.51083" lon="3.77929">
        <ele>1304.65</ele>
        <time>2022-08-05T12:09:26Z</time>
      </trkpt>
      <trkpt lat="44.51074" lon="3.77911">
        <ele>1302.72</ele>
        <time>2022-08-05T12:09:40Z</time>
      </trkpt>
      <trkpt lat="44.51067" lon="3.77894">
        <ele>1301.76</ele>
        <time>2022-08-05T12:09:53Z</time>
      </trkpt>
      <trkpt lat="44.51062" lon="3.77882">
        <ele>1303.2</ele>
        <time>2022-08-05T12:10:05Z</time>
      </trkpt>
      <trkpt lat="44.51056" lon="3.7787">
        <ele>1303.2</ele>
        <time>2022-08-05T12:10:16Z</time>
      </trkpt>
      <trkpt lat="44.51051" lon="3.77856">
        <ele>1302.72</ele>
        <time>2022-08-05T12:10:27Z</time>
      </trkpt>
      <trkpt lat="44.51038" lon="3.77834">
        <ele>1297.44</ele>
        <time>2022-08-05T12:10:43Z</time>
      </trkpt>
      <trkpt lat="44.51029" lon="3.77818">
        <ele>1294.55</ele>
        <time>2022-08-05T12:10:56Z</time>
      </trkpt>
      <trkpt lat="44.5102" lon="3.77802">
        <ele>1291.19</ele>
        <time>2022-08-05T12:11:11Z</time>
      </trkpt>
      <trkpt lat="44.51009" lon="3.77785">
        <ele>1295.03</ele>
        <time>2022-08-05T12:11:24Z</time>
      </trkpt>
      <trkpt lat="44.51008" lon="3.77782">
        <ele>1295.51</ele>
        <time>2022-08-05T12:11:26Z</time>
      </trkpt>
      <trkpt lat="44.51011" lon="3.77774">
        <ele>1295.51</ele>
        <time>2022-08-05T12:11:33Z</time>
      </trkpt>
      <trkpt lat="44.51016" lon="3.77774">
        <ele>1295.03</ele>
        <time>2022-08-05T12:11:48Z</time>
      </trkpt>
      <trkpt lat="44.51019" lon="3.77774">
        <ele>1296.48</ele>
        <time>2022-08-05T12:12:02Z</time>
      </trkpt>
      <trkpt lat="44.51019" lon="3.77774">
        <ele>1296.96</ele>
        <time>2022-08-05T12:12:09Z</time>
      </trkpt>
      <trkpt lat="44.51033" lon="3.77774">
        <ele>1295.51</ele>
        <time>2022-08-05T12:12:26Z</time>
      </trkpt>
      <trkpt lat="44.5105" lon="3.77774">
        <ele>1296.48</ele>
        <time>2022-08-05T12:12:42Z</time>
      </trkpt>
      <trkpt lat="44.51065" lon="3.7777">
        <ele>1299.84</ele>
        <time>2022-08-05T12:12:58Z</time>
      </trkpt>
      <trkpt lat="44.51081" lon="3.7777">
        <ele>1306.57</ele>
        <time>2022-08-05T12:13:14Z</time>
      </trkpt>
      <trkpt lat="44.511" lon="3.77772">
        <ele>1313.3</ele>
        <time>2022-08-05T12:13:32Z</time>
      </trkpt>
      <trkpt lat="44.51123" lon="3.77773">
        <ele>1314.26</ele>
        <time>2022-08-05T12:13:50Z</time>
      </trkpt>
      <trkpt lat="44.51139" lon="3.77776">
        <ele>1315.7</ele>
        <time>2022-08-05T12:14:04Z</time>
      </trkpt>
      <trkpt lat="44.51156" lon="3.77775">
        <ele>1312.34</ele>
        <time>2022-08-05T12:14:17Z</time>
      </trkpt>
      <trkpt lat="44.51172" lon="3.77775">
        <ele>1301.76</ele>
        <time>2022-08-05T12:14:33Z</time>
      </trkpt>
      <trkpt lat="44.51178" lon="3.77778">
        <ele>1293.59</ele>
        <time>2022-08-05T12:14:51Z</time>
      </trkpt>
      <trkpt lat="44.51181" lon="3.7778">
        <ele>1286.38</ele>
        <time>2022-08-05T12:15:09Z</time>
      </trkpt>
      <trkpt lat="44.5118" lon="3.77772">
        <ele>1282.06</ele>
        <time>2022-08-05T12:15:26Z</time>
      </trkpt>
      <trkpt lat="44.5118" lon="3.7777">
        <ele>1280.13</ele>
        <time>2022-08-05T12:16:05Z</time>
      </trkpt>
      <trkpt lat="44.51178" lon="3.77779">
        <ele>1277.25</ele>
        <time>2022-08-05T12:16:27Z</time>
      </trkpt>
      <trkpt lat="44.51174" lon="3.77791">
        <ele>1277.25</ele>
        <time>2022-08-05T12:17:02Z</time>
      </trkpt>
      <trkpt lat="44.51176" lon="3.77791">
        <ele>1276.29</ele>
        <time>2022-08-05T12:17:24Z</time>
      </trkpt>
      <trkpt lat="44.51177" lon="3.77787">
        <ele>1274.36</ele>
        <time>2022-08-05T12:17:57Z</time>
      </trkpt>
      <trkpt lat="44.51181" lon="3.77786">
        <ele>1274.36</ele>
        <time>2022-08-05T12:18:12Z</time>
      </trkpt>
      <trkpt lat="44.51199" lon="3.77788">
        <ele>1274.85</ele>
        <time>2022-08-05T12:18:26Z</time>
      </trkpt>
      <trkpt lat="44.51201" lon="3.77789">
        <ele>1274.85</ele>
        <time>2022-08-05T12:18:28Z</time>
      </trkpt>
      <trkpt lat="44.51206" lon="3.77786">
        <ele>1276.29</ele>
        <time>2022-08-05T12:18:45Z</time>
      </trkpt>
      <trkpt lat="44.51216" lon="3.77784">
        <ele>1274.36</ele>
        <time>2022-08-05T12:18:59Z</time>
      </trkpt>
      <trkpt lat="44.51226" lon="3.77788">
        <ele>1271.96</ele>
        <time>2022-08-05T12:19:12Z</time>
      </trkpt>
      <trkpt lat="44.5124" lon="3.7779">
        <ele>1269.56</ele>
        <time>2022-08-05T12:19:26Z</time>
      </trkpt>
      <trkpt lat="44.51252" lon="3.77791">
        <ele>1267.16</ele>
        <time>2022-08-05T12:19:38Z</time>
      </trkpt>
      <trkpt lat="44.51264" lon="3.77799">
        <ele>1266.19</ele>
        <time>2022-08-05T12:19:53Z</time>
      </trkpt>
      <trkpt lat="44.51269" lon="3.77794">
        <ele>1263.79</ele>
        <time>2022-08-05T12:20:01Z</time>
      </trkpt>
      <trkpt lat="44.5127" lon="3.77788">
        <ele>1262.35</ele>
        <time>2022-08-05T12:20:06Z</time>
      </trkpt>
      <trkpt lat="44.51269" lon="3.77771">
        <ele>1258.02</ele>
        <time>2022-08-05T12:20:19Z</time>
      </trkpt>
      <trkpt lat="44.51268" lon="3.77754">
        <ele>1254.18</ele>
        <time>2022-08-05T12:20:31Z</time>
      </trkpt>
      <trkpt lat="44.51264" lon="3.77736">
        <ele>1249.85</ele>
        <time>2022-08-05T12:20:44Z</time>
      </trkpt>
      <trkpt lat="44.51263" lon="3.77732">
        <ele>1248.41</ele>
        <time>2022-08-05T12:20:46Z</time>
      </trkpt>
      <trkpt lat="44.51261" lon="3.77715">
        <ele>1244.56</ele>
        <time>2022-08-05T12:20:57Z</time>
      </trkpt>
      <trkpt lat="44.51258" lon="3.77699">
        <ele>1239.76</ele>
        <time>2022-08-05T12:21:10Z</time>
      </trkpt>
      <trkpt lat="44.51257" lon="3.77693">
        <ele>1238.32</ele>
        <time>2022-08-05T12:21:14Z</time>
      </trkpt>
      <trkpt lat="44.51255" lon="3.77689">
        <ele>1237.35</ele>
        <time>2022-08-05T12:21:17Z</time>
      </trkpt>
      <trkpt lat="44.51244" lon="3.77677">
        <ele>1232.55</ele>
        <time>2022-08-05T12:21:31Z</time>
      </trkpt>
      <trkpt lat="44.51244" lon="3.77678">
        <ele>1228.7</ele>
        <time>2022-08-05T12:21:51Z</time>
      </trkpt>
      <trkpt lat="44.51244" lon="3.77678">
        <ele>1228.22</ele>
        <time>2022-08-05T12:22:18Z</time>
      </trkpt>
      <trkpt lat="44.51245" lon="3.77679">
        <ele>1229.66</ele>
        <time>2022-08-05T12:22:38Z</time>
      </trkpt>
      <trkpt lat="44.51234" lon="3.77664">
        <ele>1233.51</ele>
        <time>2022-08-05T12:22:51Z</time>
      </trkpt>
      <trkpt lat="44.51223" lon="3.77652">
        <ele>1234.47</ele>
        <time>2022-08-05T12:23:02Z</time>
      </trkpt>
      <trkpt lat="44.5121" lon="3.77635">
        <ele>1227.74</ele>
        <time>2022-08-05T12:23:20Z</time>
      </trkpt>
      <trkpt lat="44.51202" lon="3.77629">
        <ele>1224.38</ele>
        <time>2022-08-05T12:23:29Z</time>
      </trkpt>
      <trkpt lat="44.51199" lon="3.77625">
        <ele>1223.42</ele>
        <time>2022-08-05T12:23:33Z</time>
      </trkpt>
      <trkpt lat="44.51191" lon="3.77617">
        <ele>1224.86</ele>
        <time>2022-08-05T12:23:47Z</time>
      </trkpt>
      <trkpt lat="44.51191" lon="3.77616">
        <ele>1225.34</ele>
        <time>2022-08-05T12:24:08Z</time>
      </trkpt>
      <trkpt lat="44.5119" lon="3.77617">
        <ele>1224.86</ele>
        <time>2022-08-05T12:24:22Z</time>
      </trkpt>
      <trkpt lat="44.51189" lon="3.77617">
        <ele>1226.78</ele>
        <time>2022-08-05T12:24:42Z</time>
      </trkpt>
      <trkpt lat="44.51187" lon="3.7761">
        <ele>1225.34</ele>
        <time>2022-08-05T12:25:03Z</time>
      </trkpt>
      <trkpt lat="44.51179" lon="3.776">
        <ele>1221.01</ele>
        <time>2022-08-05T12:25:15Z</time>
      </trkpt>
      <trkpt lat="44.51172" lon="3.77594">
        <ele>1219.09</ele>
        <time>2022-08-05T12:25:23Z</time>
      </trkpt>
      <trkpt lat="44.51158" lon="3.77578">
        <ele>1217.17</ele>
        <time>2022-08-05T12:25:38Z</time>
      </trkpt>
      <trkpt lat="44.51145" lon="3.77565">
        <ele>1214.28</ele>
        <time>2022-08-05T12:25:52Z</time>
      </trkpt>
      <trkpt lat="44.51129" lon="3.77553">
        <ele>1211.88</ele>
        <time>2022-08-05T12:26:07Z</time>
      </trkpt>
      <trkpt lat="44.51121" lon="3.77544">
        <ele>1215.24</ele>
        <time>2022-08-05T12:26:17Z</time>
      </trkpt>
      <trkpt lat="44.51108" lon="3.77528">
        <ele>1220.05</ele>
        <time>2022-08-05T12:26:30Z</time>
      </trkpt>
      <trkpt lat="44.51102" lon="3.77518">
        <ele>1227.26</ele>
        <time>2022-08-05T12:26:45Z</time>
      </trkpt>
      <trkpt lat="44.51095" lon="3.77511">
        <ele>1229.18</ele>
        <time>2022-08-05T12:26:50Z</time>
      </trkpt>
      <trkpt lat="44.51079" lon="3.77502">
        <ele>1232.07</ele>
        <time>2022-08-05T12:27:03Z</time>
      </trkpt>
      <trkpt lat="44.51066" lon="3.77496">
        <ele>1231.59</ele>
        <time>2022-08-05T12:27:14Z</time>
      </trkpt>
      <trkpt lat="44.51051" lon="3.7749">
        <ele>1232.55</ele>
        <time>2022-08-05T12:27:26Z</time>
      </trkpt>
      <trkpt lat="44.51038" lon="3.77484">
        <ele>1232.07</ele>
        <time>2022-08-05T12:27:39Z</time>
      </trkpt>
      <trkpt lat="44.51033" lon="3.77481">
        <ele>1232.55</ele>
        <time>2022-08-05T12:27:51Z</time>
      </trkpt>
      <trkpt lat="44.51024" lon="3.77472">
        <ele>1235.91</ele>
        <time>2022-08-05T12:28:02Z</time>
      </trkpt>
      <trkpt lat="44.51018" lon="3.77468">
        <ele>1236.87</ele>
        <time>2022-08-05T12:28:12Z</time>
      </trkpt>
      <trkpt lat="44.51009" lon="3.77461">
        <ele>1236.87</ele>
        <time>2022-08-05T12:28:24Z</time>
      </trkpt>
      <trkpt lat="44.51001" lon="3.77454">
        <ele>1234.95</ele>
        <time>2022-08-05T12:28:38Z</time>
      </trkpt>
      <trkpt lat="44.50995" lon="3.7745">
        <ele>1235.43</ele>
        <time>2022-08-05T12:28:46Z</time>
      </trkpt>
      <trkpt lat="44.50992" lon="3.77441">
        <ele>1235.43</ele>
        <time>2022-08-05T12:28:58Z</time>
      </trkpt>
      <trkpt lat="44.50985" lon="3.77427">
        <ele>1235.43</ele>
        <time>2022-08-05T12:29:10Z</time>
      </trkpt>
      <trkpt lat="44.5098" lon="3.77412">
        <ele>1233.99</ele>
        <time>2022-08-05T12:29:23Z</time>
      </trkpt>
      <trkpt lat="44.50979" lon="3.77411">
        <ele>1233.99</ele>
        <time>2022-08-05T12:29:24Z</time>
      </trkpt>
      <trkpt lat="44.50972" lon="3.77396">
        <ele>1230.14</ele>
        <time>2022-08-05T12:29:35Z</time>
      </trkpt>
      <trkpt lat="44.50969" lon="3.77381">
        <ele>1230.14</ele>
        <time>2022-08-05T12:29:46Z</time>
      </trkpt>
      <trkpt lat="44.50966" lon="3.77376">
        <ele>1228.22</ele>
        <time>2022-08-05T12:30:00Z</time>
      </trkpt>
      <trkpt lat="44.50961" lon="3.77372">
        <ele>1227.26</ele>
        <time>2022-08-05T12:30:18Z</time>
      </trkpt>
      <trkpt lat="44.5096" lon="3.77356">
        <ele>1224.38</ele>
        <time>2022-08-05T12:30:31Z</time>
      </trkpt>
      <trkpt lat="44.50959" lon="3.77349">
        <ele>1224.38</ele>
        <time>2022-08-05T12:30:38Z</time>
      </trkpt>
      <trkpt lat="44.50958" lon="3.77335">
        <ele>1223.42</ele>
        <time>2022-08-05T12:30:50Z</time>
      </trkpt>
      <trkpt lat="44.50954" lon="3.7732">
        <ele>1221.01</ele>
        <time>2022-08-05T12:31:01Z</time>
      </trkpt>
      <trkpt lat="44.50952" lon="3.77312">
        <ele>1220.53</ele>
        <time>2022-08-05T12:31:06Z</time>
      </trkpt>
      <trkpt lat="44.50952" lon="3.77306">
        <ele>1220.53</ele>
        <time>2022-08-05T12:31:10Z</time>
      </trkpt>
      <trkpt lat="44.50948" lon="3.77288">
        <ele>1218.13</ele>
        <time>2022-08-05T12:31:22Z</time>
      </trkpt>
      <trkpt lat="44.50945" lon="3.77268">
        <ele>1216.69</ele>
        <time>2022-08-05T12:31:33Z</time>
      </trkpt>
      <trkpt lat="44.50946" lon="3.77264">
        <ele>1215.72</ele>
        <time>2022-08-05T12:31:36Z</time>
      </trkpt>
      <trkpt lat="44.50945" lon="3.7726">
        <ele>1214.76</ele>
        <time>2022-08-05T12:31:39Z</time>
      </trkpt>
      <trkpt lat="44.50943" lon="3.77253">
        <ele>1213.8</ele>
        <time>2022-08-05T12:31:44Z</time>
      </trkpt>
      <trkpt lat="44.50943" lon="3.77248">
        <ele>1213.32</ele>
        <time>2022-08-05T12:31:47Z</time>
      </trkpt>
      <trkpt lat="44.50934" lon="3.77232">
        <ele>1209</ele>
        <time>2022-08-05T12:31:59Z</time>
      </trkpt>
      <trkpt lat="44.50931" lon="3.77212">
        <ele>1208.03</ele>
        <time>2022-08-05T12:32:12Z</time>
      </trkpt>
      <trkpt lat="44.50929" lon="3.77197">
        <ele>1209.96</ele>
        <time>2022-08-05T12:32:23Z</time>
      </trkpt>
      <trkpt lat="44.50926" lon="3.77178">
        <ele>1211.88</ele>
        <time>2022-08-05T12:32:36Z</time>
      </trkpt>
      <trkpt lat="44.50926" lon="3.77156">
        <ele>1218.61</ele>
        <time>2022-08-05T12:32:50Z</time>
      </trkpt>
      <trkpt lat="44.50925" lon="3.77151">
        <ele>1221.01</ele>
        <time>2022-08-05T12:32:54Z</time>
      </trkpt>
      <trkpt lat="44.50923" lon="3.77135">
        <ele>1222.45</ele>
        <time>2022-08-05T12:33:08Z</time>
      </trkpt>
      <trkpt lat="44.5092" lon="3.77127">
        <ele>1223.42</ele>
        <time>2022-08-05T12:33:18Z</time>
      </trkpt>
      <trkpt lat="44.50906" lon="3.77104">
        <ele>1216.21</ele>
        <time>2022-08-05T12:33:32Z</time>
      </trkpt>
      <trkpt lat="44.50899" lon="3.77088">
        <ele>1213.8</ele>
        <time>2022-08-05T12:33:47Z</time>
      </trkpt>
      <trkpt lat="44.50891" lon="3.77074">
        <ele>1214.76</ele>
        <time>2022-08-05T12:34:00Z</time>
      </trkpt>
      <trkpt lat="44.50885" lon="3.7706">
        <ele>1214.28</ele>
        <time>2022-08-05T12:34:13Z</time>
      </trkpt>
      <trkpt lat="44.50883" lon="3.77057">
        <ele>1213.8</ele>
        <time>2022-08-05T12:34:15Z</time>
      </trkpt>
      <trkpt lat="44.50872" lon="3.77037">
        <ele>1212.84</ele>
        <time>2022-08-05T12:34:30Z</time>
      </trkpt>
      <trkpt lat="44.50866" lon="3.77025">
        <ele>1214.28</ele>
        <time>2022-08-05T12:34:41Z</time>
      </trkpt>
      <trkpt lat="44.50857" lon="3.77012">
        <ele>1214.28</ele>
        <time>2022-08-05T12:34:54Z</time>
      </trkpt>
      <trkpt lat="44.50842" lon="3.76992">
        <ele>1211.88</ele>
        <time>2022-08-05T12:35:08Z</time>
      </trkpt>
      <trkpt lat="44.50832" lon="3.76986">
        <ele>1209.48</ele>
        <time>2022-08-05T12:35:18Z</time>
      </trkpt>
      <trkpt lat="44.50829" lon="3.76984">
        <ele>1209.48</ele>
        <time>2022-08-05T12:35:21Z</time>
      </trkpt>
      <trkpt lat="44.50823" lon="3.76979">
        <ele>1209.96</ele>
        <time>2022-08-05T12:35:34Z</time>
      </trkpt>
      <trkpt lat="44.50807" lon="3.76973">
        <ele>1207.55</ele>
        <time>2022-08-05T12:35:47Z</time>
      </trkpt>
      <trkpt lat="44.50793" lon="3.76966">
        <ele>1204.67</ele>
        <time>2022-08-05T12:36:00Z</time>
      </trkpt>
      <trkpt lat="44.50782" lon="3.76959">
        <ele>1203.71</ele>
        <time>2022-08-05T12:36:12Z</time>
      </trkpt>
      <trkpt lat="44.50772" lon="3.76951">
        <ele>1204.19</ele>
        <time>2022-08-05T12:36:23Z</time>
      </trkpt>
      <trkpt lat="44.50753" lon="3.7694">
        <ele>1201.79</ele>
        <time>2022-08-05T12:36:36Z</time>
      </trkpt>
      <trkpt lat="44.50745" lon="3.76936">
        <ele>1198.9</ele>
        <time>2022-08-05T12:36:41Z</time>
      </trkpt>
      <trkpt lat="44.50721" lon="3.76922">
        <ele>1190.73</ele>
        <time>2022-08-05T12:36:57Z</time>
      </trkpt>
      <trkpt lat="44.50708" lon="3.76917">
        <ele>1186.88</ele>
        <time>2022-08-05T12:37:10Z</time>
      </trkpt>
      <trkpt lat="44.50696" lon="3.76914">
        <ele>1184.96</ele>
        <time>2022-08-05T12:37:24Z</time>
      </trkpt>
      <trkpt lat="44.50681" lon="3.76903">
        <ele>1182.56</ele>
        <time>2022-08-05T12:37:38Z</time>
      </trkpt>
      <trkpt lat="44.50664" lon="3.76896">
        <ele>1181.12</ele>
        <time>2022-08-05T12:37:54Z</time>
      </trkpt>
      <trkpt lat="44.50647" lon="3.7689">
        <ele>1178.71</ele>
        <time>2022-08-05T12:38:09Z</time>
      </trkpt>
      <trkpt lat="44.50643" lon="3.76889">
        <ele>1178.23</ele>
        <time>2022-08-05T12:38:13Z</time>
      </trkpt>
      <trkpt lat="44.50639" lon="3.76888">
        <ele>1178.23</ele>
        <time>2022-08-05T12:38:17Z</time>
      </trkpt>
      <trkpt lat="44.50621" lon="3.76884">
        <ele>1173.91</ele>
        <time>2022-08-05T12:38:34Z</time>
      </trkpt>
      <trkpt lat="44.50607" lon="3.7688">
        <ele>1171.02</ele>
        <time>2022-08-05T12:38:48Z</time>
      </trkpt>
      <trkpt lat="44.50601" lon="3.76877">
        <ele>1170.06</ele>
        <time>2022-08-05T12:38:53Z</time>
      </trkpt>
      <trkpt lat="44.5059" lon="3.76872">
        <ele>1169.58</ele>
        <time>2022-08-05T12:39:04Z</time>
      </trkpt>
      <trkpt lat="44.50584" lon="3.76869">
        <ele>1169.1</ele>
        <time>2022-08-05T12:39:10Z</time>
      </trkpt>
      <trkpt lat="44.50568" lon="3.76862">
        <ele>1168.14</ele>
        <time>2022-08-05T12:39:25Z</time>
      </trkpt>
      <trkpt lat="44.50549" lon="3.76858">
        <ele>1168.14</ele>
        <time>2022-08-05T12:39:41Z</time>
      </trkpt>
      <trkpt lat="44.50539" lon="3.76859">
        <ele>1166.7</ele>
        <time>2022-08-05T12:39:54Z</time>
      </trkpt>
      <trkpt lat="44.50527" lon="3.76853">
        <ele>1166.7</ele>
        <time>2022-08-05T12:40:07Z</time>
      </trkpt>
      <trkpt lat="44.50513" lon="3.7685">
        <ele>1165.74</ele>
        <time>2022-08-05T12:40:20Z</time>
      </trkpt>
      <trkpt lat="44.50494" lon="3.76846">
        <ele>1165.74</ele>
        <time>2022-08-05T12:40:36Z</time>
      </trkpt>
      <trkpt lat="44.50478" lon="3.76843">
        <ele>1165.74</ele>
        <time>2022-08-05T12:40:50Z</time>
      </trkpt>
      <trkpt lat="44.50463" lon="3.7684">
        <ele>1165.74</ele>
        <time>2022-08-05T12:41:04Z</time>
      </trkpt>
      <trkpt lat="44.50451" lon="3.76833">
        <ele>1166.22</ele>
        <time>2022-08-05T12:41:18Z</time>
      </trkpt>
      <trkpt lat="44.50445" lon="3.76828">
        <ele>1165.26</ele>
        <time>2022-08-05T12:41:24Z</time>
      </trkpt>
      <trkpt lat="44.50431" lon="3.76817">
        <ele>1162.85</ele>
        <time>2022-08-05T12:41:36Z</time>
      </trkpt>
      <trkpt lat="44.5043" lon="3.76816">
        <ele>1162.37</ele>
        <time>2022-08-05T12:41:38Z</time>
      </trkpt>
      <trkpt lat="44.50428" lon="3.76815">
        <ele>1162.37</ele>
        <time>2022-08-05T12:41:40Z</time>
      </trkpt>
      <trkpt lat="44.50417" lon="3.76809">
        <ele>1161.89</ele>
        <time>2022-08-05T12:41:54Z</time>
      </trkpt>
      <trkpt lat="44.50406" lon="3.768">
        <ele>1160.93</ele>
        <time>2022-08-05T12:42:07Z</time>
      </trkpt>
      <trkpt lat="44.50389" lon="3.76787">
        <ele>1155.64</ele>
        <time>2022-08-05T12:42:25Z</time>
      </trkpt>
      <trkpt lat="44.50372" lon="3.76774">
        <ele>1151.32</ele>
        <time>2022-08-05T12:42:41Z</time>
      </trkpt>
      <trkpt lat="44.50365" lon="3.76769">
        <ele>1149.87</ele>
        <time>2022-08-05T12:42:50Z</time>
      </trkpt>
      <trkpt lat="44.50346" lon="3.76762">
        <ele>1149.87</ele>
        <time>2022-08-05T12:43:07Z</time>
      </trkpt>
      <trkpt lat="44.50324" lon="3.76755">
        <ele>1150.84</ele>
        <time>2022-08-05T12:43:24Z</time>
      </trkpt>
      <trkpt lat="44.50313" lon="3.7675">
        <ele>1149.39</ele>
        <time>2022-08-05T12:43:38Z</time>
      </trkpt>
      <trkpt lat="44.5029" lon="3.76746">
        <ele>1149.87</ele>
        <time>2022-08-05T12:43:53Z</time>
      </trkpt>
      <trkpt lat="44.50274" lon="3.76743">
        <ele>1147.47</ele>
        <time>2022-08-05T12:44:09Z</time>
      </trkpt>
      <trkpt lat="44.5025" lon="3.76739">
        <ele>1146.51</ele>
        <time>2022-08-05T12:44:27Z</time>
      </trkpt>
      <trkpt lat="44.50235" lon="3.76738">
        <ele>1145.07</ele>
        <time>2022-08-05T12:44:41Z</time>
      </trkpt>
      <trkpt lat="44.50231" lon="3.76742">
        <ele>1140.26</ele>
        <time>2022-08-05T12:44:58Z</time>
      </trkpt>
      <trkpt lat="44.50224" lon="3.76737">
        <ele>1144.11</ele>
        <time>2022-08-05T12:45:23Z</time>
      </trkpt>
      <trkpt lat="44.50209" lon="3.76728">
        <ele>1142.18</ele>
        <time>2022-08-05T12:45:39Z</time>
      </trkpt>
      <trkpt lat="44.50195" lon="3.76714">
        <ele>1142.18</ele>
        <time>2022-08-05T12:45:54Z</time>
      </trkpt>
      <trkpt lat="44.50183" lon="3.76701">
        <ele>1147.47</ele>
        <time>2022-08-05T12:46:08Z</time>
      </trkpt>
      <trkpt lat="44.50172" lon="3.76694">
        <ele>1152.76</ele>
        <time>2022-08-05T12:46:16Z</time>
      </trkpt>
      <trkpt lat="44.50161" lon="3.76676">
        <ele>1155.64</ele>
        <time>2022-08-05T12:46:31Z</time>
      </trkpt>
      <trkpt lat="44.50152" lon="3.76665">
        <ele>1158.53</ele>
        <time>2022-08-05T12:46:45Z</time>
      </trkpt>
      <trkpt lat="44.50151" lon="3.76663">
        <ele>1159.01</ele>
        <time>2022-08-05T12:46:47Z</time>
      </trkpt>
      <trkpt lat="44.50148" lon="3.7666">
        <ele>1159.49</ele>
        <time>2022-08-05T12:46:51Z</time>
      </trkpt>
      <trkpt lat="44.50139" lon="3.76658">
        <ele>1160.45</ele>
        <time>2022-08-05T12:46:58Z</time>
      </trkpt>
      <trkpt lat="44.50119" lon="3.76655">
        <ele>1160.45</ele>
        <time>2022-08-05T12:47:12Z</time>
      </trkpt>
      <trkpt lat="44.50107" lon="3.76652">
        <ele>1160.45</ele>
        <time>2022-08-05T12:47:25Z</time>
      </trkpt>
      <trkpt lat="44.50101" lon="3.7665">
        <ele>1160.45</ele>
        <time>2022-08-05T12:47:54Z</time>
      </trkpt>
      <trkpt lat="44.50089" lon="3.76649">
        <ele>1158.53</ele>
        <time>2022-08-05T12:48:06Z</time>
      </trkpt>
      <trkpt lat="44.50083" lon="3.76649">
        <ele>1159.49</ele>
        <time>2022-08-05T12:48:22Z</time>
      </trkpt>
      <trkpt lat="44.50078" lon="3.76642">
        <ele>1155.16</ele>
        <time>2022-08-05T12:48:57Z</time>
      </trkpt>
      <trkpt lat="44.50078" lon="3.76643">
        <ele>1155.16</ele>
        <time>2022-08-05T12:49:23Z</time>
      </trkpt>
      <trkpt lat="44.50069" lon="3.76643">
        <ele>1154.68</ele>
        <time>2022-08-05T12:49:35Z</time>
      </trkpt>
      <trkpt lat="44.50063" lon="3.76642">
        <ele>1155.64</ele>
        <time>2022-08-05T12:49:40Z</time>
      </trkpt>
      <trkpt lat="44.50058" lon="3.76641">
        <ele>1156.6</ele>
        <time>2022-08-05T12:49:45Z</time>
      </trkpt>
      <trkpt lat="44.50038" lon="3.76639">
        <ele>1158.53</ele>
        <time>2022-08-05T12:50:00Z</time>
      </trkpt>
      <trkpt lat="44.50023" lon="3.76637">
        <ele>1158.53</ele>
        <time>2022-08-05T12:50:14Z</time>
      </trkpt>
      <trkpt lat="44.50007" lon="3.76634">
        <ele>1159.49</ele>
        <time>2022-08-05T12:50:29Z</time>
      </trkpt>
      <trkpt lat="44.50004" lon="3.76633">
        <ele>1159.49</ele>
        <time>2022-08-05T12:50:31Z</time>
      </trkpt>
      <trkpt lat="44.49998" lon="3.76632">
        <ele>1159.49</ele>
        <time>2022-08-05T12:50:36Z</time>
      </trkpt>
      <trkpt lat="44.49983" lon="3.7663">
        <ele>1159.49</ele>
        <time>2022-08-05T12:50:50Z</time>
      </trkpt>
      <trkpt lat="44.49968" lon="3.76629">
        <ele>1160.45</ele>
        <time>2022-08-05T12:51:03Z</time>
      </trkpt>
      <trkpt lat="44.49951" lon="3.76628">
        <ele>1162.85</ele>
        <time>2022-08-05T12:51:19Z</time>
      </trkpt>
      <trkpt lat="44.49936" lon="3.76626">
        <ele>1163.81</ele>
        <time>2022-08-05T12:51:33Z</time>
      </trkpt>
      <trkpt lat="44.49916" lon="3.76623">
        <ele>1164.77</ele>
        <time>2022-08-05T12:51:50Z</time>
      </trkpt>
      <trkpt lat="44.49902" lon="3.76628">
        <ele>1164.29</ele>
        <time>2022-08-05T12:52:04Z</time>
      </trkpt>
      <trkpt lat="44.49888" lon="3.76629">
        <ele>1164.77</ele>
        <time>2022-08-05T12:52:17Z</time>
      </trkpt>
      <trkpt lat="44.49885" lon="3.76629">
        <ele>1164.77</ele>
        <time>2022-08-05T12:52:20Z</time>
      </trkpt>
      <trkpt lat="44.49875" lon="3.76626">
        <ele>1164.77</ele>
        <time>2022-08-05T12:52:35Z</time>
      </trkpt>
      <trkpt lat="44.49873" lon="3.76627">
        <ele>1164.77</ele>
        <time>2022-08-05T12:52:36Z</time>
      </trkpt>
      <trkpt lat="44.49859" lon="3.7663">
        <ele>1166.7</ele>
        <time>2022-08-05T12:52:50Z</time>
      </trkpt>
      <trkpt lat="44.49849" lon="3.76633">
        <ele>1168.62</ele>
        <time>2022-08-05T12:53:00Z</time>
      </trkpt>
      <trkpt lat="44.49833" lon="3.76636">
        <ele>1168.62</ele>
        <time>2022-08-05T12:53:14Z</time>
      </trkpt>
      <trkpt lat="44.49817" lon="3.76643">
        <ele>1172.95</ele>
        <time>2022-08-05T12:53:27Z</time>
      </trkpt>
      <trkpt lat="44.498" lon="3.76648">
        <ele>1173.91</ele>
        <time>2022-08-05T12:53:42Z</time>
      </trkpt>
      <trkpt lat="44.49793" lon="3.76653">
        <ele>1175.35</ele>
        <time>2022-08-05T12:53:49Z</time>
      </trkpt>
      <trkpt lat="44.49777" lon="3.76654">
        <ele>1175.35</ele>
        <time>2022-08-05T12:54:05Z</time>
      </trkpt>
      <trkpt lat="44.49769" lon="3.76654">
        <ele>1176.31</ele>
        <time>2022-08-05T12:54:12Z</time>
      </trkpt>
      <trkpt lat="44.49764" lon="3.76654">
        <ele>1177.27</ele>
        <time>2022-08-05T12:54:17Z</time>
      </trkpt>
      <trkpt lat="44.49748" lon="3.76653">
        <ele>1180.16</ele>
        <time>2022-08-05T12:54:32Z</time>
      </trkpt>
      <trkpt lat="44.49733" lon="3.76653">
        <ele>1181.12</ele>
        <time>2022-08-05T12:54:47Z</time>
      </trkpt>
      <trkpt lat="44.49718" lon="3.76652">
        <ele>1181.6</ele>
        <time>2022-08-05T12:55:00Z</time>
      </trkpt>
      <trkpt lat="44.49713" lon="3.7665">
        <ele>1182.08</ele>
        <time>2022-08-05T12:55:06Z</time>
      </trkpt>
      <trkpt lat="44.49698" lon="3.76643">
        <ele>1182.56</ele>
        <time>2022-08-05T12:55:22Z</time>
      </trkpt>
      <trkpt lat="44.49695" lon="3.7664">
        <ele>1182.56</ele>
        <time>2022-08-05T12:55:25Z</time>
      </trkpt>
      <trkpt lat="44.49692" lon="3.76634">
        <ele>1182.56</ele>
        <time>2022-08-05T12:55:32Z</time>
      </trkpt>
      <trkpt lat="44.49696" lon="3.76631">
        <ele>1183.52</ele>
        <time>2022-08-05T12:55:37Z</time>
      </trkpt>
      <trkpt lat="44.49713" lon="3.76619">
        <ele>1184.48</ele>
        <time>2022-08-05T12:55:54Z</time>
      </trkpt>
      <trkpt lat="44.49719" lon="3.76614">
        <ele>1184.96</ele>
        <time>2022-08-05T12:56:00Z</time>
      </trkpt>
      <trkpt lat="44.49732" lon="3.76603">
        <ele>1185.44</ele>
        <time>2022-08-05T12:56:14Z</time>
      </trkpt>
      <trkpt lat="44.49747" lon="3.76582">
        <ele>1185.44</ele>
        <time>2022-08-05T12:56:32Z</time>
      </trkpt>
      <trkpt lat="44.49759" lon="3.7657">
        <ele>1186.88</ele>
        <time>2022-08-05T12:56:45Z</time>
      </trkpt>
      <trkpt lat="44.49773" lon="3.76551">
        <ele>1187.85</ele>
        <time>2022-08-05T12:57:02Z</time>
      </trkpt>
      <trkpt lat="44.49786" lon="3.76529">
        <ele>1187.85</ele>
        <time>2022-08-05T12:57:20Z</time>
      </trkpt>
      <trkpt lat="44.49791" lon="3.76507">
        <ele>1188.81</ele>
        <time>2022-08-05T12:57:35Z</time>
      </trkpt>
      <trkpt lat="44.49796" lon="3.76487">
        <ele>1189.29</ele>
        <time>2022-08-05T12:57:49Z</time>
      </trkpt>
      <trkpt lat="44.49806" lon="3.76468">
        <ele>1190.25</ele>
        <time>2022-08-05T12:58:05Z</time>
      </trkpt>
      <trkpt lat="44.49818" lon="3.76455">
        <ele>1191.69</ele>
        <time>2022-08-05T12:58:18Z</time>
      </trkpt>
      <trkpt lat="44.49826" lon="3.76446">
        <ele>1192.65</ele>
        <time>2022-08-05T12:58:28Z</time>
      </trkpt>
      <trkpt lat="44.49833" lon="3.76438">
        <ele>1193.61</ele>
        <time>2022-08-05T12:58:36Z</time>
      </trkpt>
      <trkpt lat="44.49845" lon="3.76424">
        <ele>1194.58</ele>
        <time>2022-08-05T12:58:50Z</time>
      </trkpt>
      <trkpt lat="44.49846" lon="3.76421">
        <ele>1194.09</ele>
        <time>2022-08-05T12:58:52Z</time>
      </trkpt>
      <trkpt lat="44.49851" lon="3.76415">
        <ele>1194.58</ele>
        <time>2022-08-05T12:58:58Z</time>
      </trkpt>
      <trkpt lat="44.49864" lon="3.76393">
        <ele>1194.09</ele>
        <time>2022-08-05T12:59:15Z</time>
      </trkpt>
      <trkpt lat="44.49873" lon="3.76376">
        <ele>1195.54</ele>
        <time>2022-08-05T12:59:28Z</time>
      </trkpt>
      <trkpt lat="44.49881" lon="3.76357">
        <ele>1196.02</ele>
        <time>2022-08-05T12:59:42Z</time>
      </trkpt>
      <trkpt lat="44.49882" lon="3.76356">
        <ele>1196.02</ele>
        <time>2022-08-05T12:59:43Z</time>
      </trkpt>
      <trkpt lat="44.49886" lon="3.76343">
        <ele>1196.5</ele>
        <time>2022-08-05T12:59:52Z</time>
      </trkpt>
      <trkpt lat="44.49888" lon="3.76321">
        <ele>1196.02</ele>
        <time>2022-08-05T13:00:07Z</time>
      </trkpt>
      <trkpt lat="44.4989" lon="3.763">
        <ele>1196.02</ele>
        <time>2022-08-05T13:00:21Z</time>
      </trkpt>
      <trkpt lat="44.49891" lon="3.76291">
        <ele>1196.98</ele>
        <time>2022-08-05T13:00:27Z</time>
      </trkpt>
      <trkpt lat="44.49894" lon="3.7627">
        <ele>1196.02</ele>
        <time>2022-08-05T13:00:41Z</time>
      </trkpt>
      <trkpt lat="44.49894" lon="3.76268">
        <ele>1196.02</ele>
        <time>2022-08-05T13:00:42Z</time>
      </trkpt>
      <trkpt lat="44.49895" lon="3.76246">
        <ele>1195.06</ele>
        <time>2022-08-05T13:00:56Z</time>
      </trkpt>
      <trkpt lat="44.49894" lon="3.76226">
        <ele>1193.13</ele>
        <time>2022-08-05T13:01:09Z</time>
      </trkpt>
      <trkpt lat="44.49894" lon="3.76208">
        <ele>1193.13</ele>
        <time>2022-08-05T13:01:21Z</time>
      </trkpt>
      <trkpt lat="44.49894" lon="3.76185">
        <ele>1195.54</ele>
        <time>2022-08-05T13:01:36Z</time>
      </trkpt>
      <trkpt lat="44.49892" lon="3.76162">
        <ele>1198.42</ele>
        <time>2022-08-05T13:01:50Z</time>
      </trkpt>
      <trkpt lat="44.49894" lon="3.76136">
        <ele>1201.79</ele>
        <time>2022-08-05T13:02:06Z</time>
      </trkpt>
      <trkpt lat="44.49894" lon="3.7612">
        <ele>1203.23</ele>
        <time>2022-08-05T13:02:16Z</time>
      </trkpt>
      <trkpt lat="44.49894" lon="3.76117">
        <ele>1203.71</ele>
        <time>2022-08-05T13:02:18Z</time>
      </trkpt>
      <trkpt lat="44.49894" lon="3.76113">
        <ele>1204.19</ele>
        <time>2022-08-05T13:02:20Z</time>
      </trkpt>
      <trkpt lat="44.49894" lon="3.7611">
        <ele>1204.67</ele>
        <time>2022-08-05T13:02:22Z</time>
      </trkpt>
      <trkpt lat="44.49894" lon="3.76107">
        <ele>1205.15</ele>
        <time>2022-08-05T13:02:24Z</time>
      </trkpt>
      <trkpt lat="44.49896" lon="3.76082">
        <ele>1205.63</ele>
        <time>2022-08-05T13:02:40Z</time>
      </trkpt>
      <trkpt lat="44.49896" lon="3.76078">
        <ele>1206.11</ele>
        <time>2022-08-05T13:02:43Z</time>
      </trkpt>
      <trkpt lat="44.49898" lon="3.76059">
        <ele>1206.59</ele>
        <time>2022-08-05T13:02:57Z</time>
      </trkpt>
      <trkpt lat="44.49898" lon="3.76056">
        <ele>1206.59</ele>
        <time>2022-08-05T13:02:59Z</time>
      </trkpt>
      <trkpt lat="44.499" lon="3.76039">
        <ele>1206.11</ele>
        <time>2022-08-05T13:03:14Z</time>
      </trkpt>
      <trkpt lat="44.49901" lon="3.76035">
        <ele>1206.11</ele>
        <time>2022-08-05T13:03:17Z</time>
      </trkpt>
      <trkpt lat="44.49902" lon="3.76019">
        <ele>1204.19</ele>
        <time>2022-08-05T13:03:31Z</time>
      </trkpt>
      <trkpt lat="44.49902" lon="3.76014">
        <ele>1204.19</ele>
        <time>2022-08-05T13:03:43Z</time>
      </trkpt>
      <trkpt lat="44.49902" lon="3.76008">
        <ele>1203.71</ele>
        <time>2022-08-05T13:03:55Z</time>
      </trkpt>
      <trkpt lat="44.49902" lon="3.76004">
        <ele>1203.71</ele>
        <time>2022-08-05T13:04:14Z</time>
      </trkpt>
      <trkpt lat="44.499" lon="3.7599">
        <ele>1202.75</ele>
        <time>2022-08-05T13:04:24Z</time>
      </trkpt>
      <trkpt lat="44.49903" lon="3.75964">
        <ele>1202.27</ele>
        <time>2022-08-05T13:04:42Z</time>
      </trkpt>
      <trkpt lat="44.49905" lon="3.7596">
        <ele>1201.79</ele>
        <time>2022-08-05T13:04:45Z</time>
      </trkpt>
      <trkpt lat="44.49902" lon="3.75956">
        <ele>1202.75</ele>
        <time>2022-08-05T13:04:59Z</time>
      </trkpt>
      <trkpt lat="44.49903" lon="3.75957">
        <ele>1202.75</ele>
        <time>2022-08-05T13:05:04Z</time>
      </trkpt>
      <trkpt lat="44.49905" lon="3.75952">
        <ele>1202.27</ele>
        <time>2022-08-05T13:05:08Z</time>
      </trkpt>
      <trkpt lat="44.49915" lon="3.75934">
        <ele>1200.82</ele>
        <time>2022-08-05T13:05:21Z</time>
      </trkpt>
      <trkpt lat="44.49927" lon="3.75914">
        <ele>1199.86</ele>
        <time>2022-08-05T13:05:36Z</time>
      </trkpt>
      <trkpt lat="44.4994" lon="3.75895">
        <ele>1198.42</ele>
        <time>2022-08-05T13:05:51Z</time>
      </trkpt>
      <trkpt lat="44.49956" lon="3.75878">
        <ele>1195.06</ele>
        <time>2022-08-05T13:06:07Z</time>
      </trkpt>
      <trkpt lat="44.49972" lon="3.75867">
        <ele>1194.09</ele>
        <time>2022-08-05T13:06:21Z</time>
      </trkpt>
      <trkpt lat="44.49994" lon="3.7587">
        <ele>1193.61</ele>
        <time>2022-08-05T13:06:39Z</time>
      </trkpt>
      <trkpt lat="44.50015" lon="3.75871">
        <ele>1192.17</ele>
        <time>2022-08-05T13:06:55Z</time>
      </trkpt>
      <trkpt lat="44.50033" lon="3.75863">
        <ele>1191.21</ele>
        <time>2022-08-05T13:07:12Z</time>
      </trkpt>
      <trkpt lat="44.50049" lon="3.75851">
        <ele>1190.73</ele>
        <time>2022-08-05T13:07:26Z</time>
      </trkpt>
      <trkpt lat="44.50061" lon="3.7583">
        <ele>1189.29</ele>
        <time>2022-08-05T13:07:41Z</time>
      </trkpt>
      <trkpt lat="44.50068" lon="3.75819">
        <ele>1188.33</ele>
        <time>2022-08-05T13:07:50Z</time>
      </trkpt>
      <trkpt lat="44.50073" lon="3.75788">
        <ele>1186.88</ele>
        <time>2022-08-05T13:08:07Z</time>
      </trkpt>
      <trkpt lat="44.50077" lon="3.75759">
        <ele>1184</ele>
        <time>2022-08-05T13:08:23Z</time>
      </trkpt>
      <trkpt lat="44.5008" lon="3.75737">
        <ele>1183.04</ele>
        <time>2022-08-05T13:08:36Z</time>
      </trkpt>
      <trkpt lat="44.50083" lon="3.75727">
        <ele>1183.04</ele>
        <time>2022-08-05T13:08:42Z</time>
      </trkpt>
      <trkpt lat="44.50086" lon="3.75701">
        <ele>1182.08</ele>
        <time>2022-08-05T13:08:57Z</time>
      </trkpt>
      <trkpt lat="44.50092" lon="3.75682">
        <ele>1181.6</ele>
        <time>2022-08-05T13:09:09Z</time>
      </trkpt>
      <trkpt lat="44.50086" lon="3.75659">
        <ele>1176.79</ele>
        <time>2022-08-05T13:09:24Z</time>
      </trkpt>
      <trkpt lat="44.50074" lon="3.75651">
        <ele>1174.39</ele>
        <time>2022-08-05T13:09:35Z</time>
      </trkpt>
      <trkpt lat="44.5007" lon="3.75635">
        <ele>1172.47</ele>
        <time>2022-08-05T13:09:48Z</time>
      </trkpt>
      <trkpt lat="44.50065" lon="3.75608">
        <ele>1170.06</ele>
        <time>2022-08-05T13:10:04Z</time>
      </trkpt>
      <trkpt lat="44.50051" lon="3.75593">
        <ele>1167.18</ele>
        <time>2022-08-05T13:10:20Z</time>
      </trkpt>
      <trkpt lat="44.50034" lon="3.75579">
        <ele>1168.14</ele>
        <time>2022-08-05T13:10:37Z</time>
      </trkpt>
      <trkpt lat="44.50027" lon="3.75572">
        <ele>1169.58</ele>
        <time>2022-08-05T13:10:53Z</time>
      </trkpt>
      <trkpt lat="44.50012" lon="3.75561">
        <ele>1170.06</ele>
        <time>2022-08-05T13:11:08Z</time>
      </trkpt>
      <trkpt lat="44.49997" lon="3.75548">
        <ele>1169.1</ele>
        <time>2022-08-05T13:11:24Z</time>
      </trkpt>
      <trkpt lat="44.49986" lon="3.75524">
        <ele>1167.18</ele>
        <time>2022-08-05T13:11:41Z</time>
      </trkpt>
      <trkpt lat="44.49982" lon="3.75508">
        <ele>1165.74</ele>
        <time>2022-08-05T13:11:52Z</time>
      </trkpt>
      <trkpt lat="44.49982" lon="3.75489">
        <ele>1164.77</ele>
        <time>2022-08-05T13:12:04Z</time>
      </trkpt>
      <trkpt lat="44.49981" lon="3.75484">
        <ele>1164.77</ele>
        <time>2022-08-05T13:12:07Z</time>
      </trkpt>
      <trkpt lat="44.49984" lon="3.75457">
        <ele>1165.26</ele>
        <time>2022-08-05T13:12:24Z</time>
      </trkpt>
      <trkpt lat="44.49985" lon="3.7543">
        <ele>1165.26</ele>
        <time>2022-08-05T13:12:40Z</time>
      </trkpt>
      <trkpt lat="44.49987" lon="3.75411">
        <ele>1163.81</ele>
        <time>2022-08-05T13:12:52Z</time>
      </trkpt>
      <trkpt lat="44.49993" lon="3.75386">
        <ele>1162.85</ele>
        <time>2022-08-05T13:13:08Z</time>
      </trkpt>
      <trkpt lat="44.50001" lon="3.75358">
        <ele>1161.89</ele>
        <time>2022-08-05T13:13:26Z</time>
      </trkpt>
      <trkpt lat="44.50001" lon="3.75332">
        <ele>1159.97</ele>
        <time>2022-08-05T13:13:43Z</time>
      </trkpt>
      <trkpt lat="44.49999" lon="3.75325">
        <ele>1159.01</ele>
        <time>2022-08-05T13:13:48Z</time>
      </trkpt>
      <trkpt lat="44.49985" lon="3.75304">
        <ele>1159.01</ele>
        <time>2022-08-05T13:14:07Z</time>
      </trkpt>
      <trkpt lat="44.49972" lon="3.75284">
        <ele>1161.41</ele>
        <time>2022-08-05T13:14:24Z</time>
      </trkpt>
      <trkpt lat="44.49959" lon="3.75267">
        <ele>1164.29</ele>
        <time>2022-08-05T13:14:40Z</time>
      </trkpt>
      <trkpt lat="44.49942" lon="3.7525">
        <ele>1166.22</ele>
        <time>2022-08-05T13:14:57Z</time>
      </trkpt>
      <trkpt lat="44.49927" lon="3.75242">
        <ele>1167.18</ele>
        <time>2022-08-05T13:15:12Z</time>
      </trkpt>
      <trkpt lat="44.49915" lon="3.75238">
        <ele>1167.66</ele>
        <time>2022-08-05T13:15:23Z</time>
      </trkpt>
      <trkpt lat="44.499" lon="3.75236">
        <ele>1167.18</ele>
        <time>2022-08-05T13:15:36Z</time>
      </trkpt>
      <trkpt lat="44.49881" lon="3.75238">
        <ele>1166.7</ele>
        <time>2022-08-05T13:15:52Z</time>
      </trkpt>
      <trkpt lat="44.49867" lon="3.75242">
        <ele>1167.18</ele>
        <time>2022-08-05T13:16:04Z</time>
      </trkpt>
      <trkpt lat="44.49852" lon="3.75247">
        <ele>1168.62</ele>
        <time>2022-08-05T13:16:19Z</time>
      </trkpt>
      <trkpt lat="44.49837" lon="3.75246">
        <ele>1170.06</ele>
        <time>2022-08-05T13:16:35Z</time>
      </trkpt>
      <trkpt lat="44.49835" lon="3.75245">
        <ele>1170.54</ele>
        <time>2022-08-05T13:16:38Z</time>
      </trkpt>
      <trkpt lat="44.49823" lon="3.75234">
        <ele>1171.98</ele>
        <time>2022-08-05T13:16:52Z</time>
      </trkpt>
      <trkpt lat="44.49811" lon="3.75222">
        <ele>1172.47</ele>
        <time>2022-08-05T13:17:06Z</time>
      </trkpt>
      <trkpt lat="44.49802" lon="3.7521">
        <ele>1172.47</ele>
        <time>2022-08-05T13:17:18Z</time>
      </trkpt>
      <trkpt lat="44.49792" lon="3.75196">
        <ele>1172.95</ele>
        <time>2022-08-05T13:17:32Z</time>
      </trkpt>
      <trkpt lat="44.4979" lon="3.75195">
        <ele>1172.95</ele>
        <time>2022-08-05T13:17:34Z</time>
      </trkpt>
      <trkpt lat="44.49778" lon="3.75177">
        <ele>1171.98</ele>
        <time>2022-08-05T13:17:49Z</time>
      </trkpt>
      <trkpt lat="44.49764" lon="3.75156">
        <ele>1167.66</ele>
        <time>2022-08-05T13:18:06Z</time>
      </trkpt>
      <trkpt lat="44.49751" lon="3.75143">
        <ele>1164.77</ele>
        <time>2022-08-05T13:18:20Z</time>
      </trkpt>
      <trkpt lat="44.49739" lon="3.75132">
        <ele>1163.33</ele>
        <time>2022-08-05T13:18:33Z</time>
      </trkpt>
      <trkpt lat="44.49729" lon="3.75107">
        <ele>1161.89</ele>
        <time>2022-08-05T13:18:51Z</time>
      </trkpt>
      <trkpt lat="44.49727" lon="3.75084">
        <ele>1161.41</ele>
        <time>2022-08-05T13:19:06Z</time>
      </trkpt>
      <trkpt lat="44.49725" lon="3.75061">
        <ele>1160.93</ele>
        <time>2022-08-05T13:19:23Z</time>
      </trkpt>
      <trkpt lat="44.49722" lon="3.75046">
        <ele>1160.45</ele>
        <time>2022-08-05T13:19:36Z</time>
      </trkpt>
      <trkpt lat="44.49717" lon="3.75035">
        <ele>1159.49</ele>
        <time>2022-08-05T13:19:45Z</time>
      </trkpt>
      <trkpt lat="44.49703" lon="3.75013">
        <ele>1158.05</ele>
        <time>2022-08-05T13:20:03Z</time>
      </trkpt>
      <trkpt lat="44.49687" lon="3.74992">
        <ele>1158.53</ele>
        <time>2022-08-05T13:20:21Z</time>
      </trkpt>
      <trkpt lat="44.49672" lon="3.74976">
        <ele>1157.08</ele>
        <time>2022-08-05T13:20:37Z</time>
      </trkpt>
      <trkpt lat="44.49659" lon="3.74963">
        <ele>1156.12</ele>
        <time>2022-08-05T13:20:51Z</time>
      </trkpt>
      <trkpt lat="44.49642" lon="3.74945">
        <ele>1154.68</ele>
        <time>2022-08-05T13:21:09Z</time>
      </trkpt>
      <trkpt lat="44.49627" lon="3.74931">
        <ele>1152.76</ele>
        <time>2022-08-05T13:21:25Z</time>
      </trkpt>
      <trkpt lat="44.49614" lon="3.74919">
        <ele>1150.35</ele>
        <time>2022-08-05T13:21:38Z</time>
      </trkpt>
      <trkpt lat="44.49596" lon="3.74901">
        <ele>1147.47</ele>
        <time>2022-08-05T13:21:56Z</time>
      </trkpt>
      <trkpt lat="44.49581" lon="3.74887">
        <ele>1146.03</ele>
        <time>2022-08-05T13:22:12Z</time>
      </trkpt>
      <trkpt lat="44.49568" lon="3.7487">
        <ele>1145.07</ele>
        <time>2022-08-05T13:22:27Z</time>
      </trkpt>
      <trkpt lat="44.49556" lon="3.74854">
        <ele>1144.11</ele>
        <time>2022-08-05T13:22:41Z</time>
      </trkpt>
      <trkpt lat="44.49544" lon="3.74836">
        <ele>1143.14</ele>
        <time>2022-08-05T13:22:56Z</time>
      </trkpt>
      <trkpt lat="44.49541" lon="3.74832">
        <ele>1143.14</ele>
        <time>2022-08-05T13:23:00Z</time>
      </trkpt>
      <trkpt lat="44.49528" lon="3.74816">
        <ele>1142.18</ele>
        <time>2022-08-05T13:23:15Z</time>
      </trkpt>
      <trkpt lat="44.49514" lon="3.7479">
        <ele>1141.7</ele>
        <time>2022-08-05T13:23:35Z</time>
      </trkpt>
      <trkpt lat="44.49501" lon="3.74766">
        <ele>1139.78</ele>
        <time>2022-08-05T13:23:53Z</time>
      </trkpt>
      <trkpt lat="44.49485" lon="3.74743">
        <ele>1138.82</ele>
        <time>2022-08-05T13:24:13Z</time>
      </trkpt>
      <trkpt lat="44.49468" lon="3.74723">
        <ele>1136.9</ele>
        <time>2022-08-05T13:24:31Z</time>
      </trkpt>
      <trkpt lat="44.49452" lon="3.74708">
        <ele>1134.97</ele>
        <time>2022-08-05T13:24:47Z</time>
      </trkpt>
      <trkpt lat="44.4945" lon="3.74707">
        <ele>1134.49</ele>
        <time>2022-08-05T13:24:49Z</time>
      </trkpt>
      <trkpt lat="44.49443" lon="3.74702">
        <ele>1134.01</ele>
        <time>2022-08-05T13:24:55Z</time>
      </trkpt>
      <trkpt lat="44.49428" lon="3.74685">
        <ele>1132.09</ele>
        <time>2022-08-05T13:25:13Z</time>
      </trkpt>
      <trkpt lat="44.49416" lon="3.7466">
        <ele>1131.13</ele>
        <time>2022-08-05T13:25:32Z</time>
      </trkpt>
      <trkpt lat="44.49407" lon="3.74633">
        <ele>1129.21</ele>
        <time>2022-08-05T13:25:50Z</time>
      </trkpt>
      <trkpt lat="44.49398" lon="3.74607">
        <ele>1127.76</ele>
        <time>2022-08-05T13:26:07Z</time>
      </trkpt>
      <trkpt lat="44.49389" lon="3.74579">
        <ele>1127.76</ele>
        <time>2022-08-05T13:26:26Z</time>
      </trkpt>
      <trkpt lat="44.49382" lon="3.74556">
        <ele>1125.36</ele>
        <time>2022-08-05T13:26:41Z</time>
      </trkpt>
      <trkpt lat="44.49373" lon="3.74532">
        <ele>1123.44</ele>
        <time>2022-08-05T13:26:58Z</time>
      </trkpt>
      <trkpt lat="44.49364" lon="3.74503">
        <ele>1121.03</ele>
        <time>2022-08-05T13:27:17Z</time>
      </trkpt>
      <trkpt lat="44.49353" lon="3.74479">
        <ele>1119.11</ele>
        <time>2022-08-05T13:27:35Z</time>
      </trkpt>
      <trkpt lat="44.49341" lon="3.74456">
        <ele>1117.67</ele>
        <time>2022-08-05T13:27:52Z</time>
      </trkpt>
      <trkpt lat="44.49332" lon="3.74442">
        <ele>1116.23</ele>
        <time>2022-08-05T13:28:03Z</time>
      </trkpt>
      <trkpt lat="44.49322" lon="3.7442">
        <ele>1114.31</ele>
        <time>2022-08-05T13:28:19Z</time>
      </trkpt>
      <trkpt lat="44.49313" lon="3.74395">
        <ele>1113.82</ele>
        <time>2022-08-05T13:28:37Z</time>
      </trkpt>
      <trkpt lat="44.49302" lon="3.74372">
        <ele>1112.38</ele>
        <time>2022-08-05T13:28:53Z</time>
      </trkpt>
      <trkpt lat="44.49288" lon="3.74355">
        <ele>1110.94</ele>
        <time>2022-08-05T13:29:09Z</time>
      </trkpt>
      <trkpt lat="44.49274" lon="3.7434">
        <ele>1109.5</ele>
        <time>2022-08-05T13:29:24Z</time>
      </trkpt>
      <trkpt lat="44.4926" lon="3.74323">
        <ele>1109.02</ele>
        <time>2022-08-05T13:29:39Z</time>
      </trkpt>
      <trkpt lat="44.49247" lon="3.74303">
        <ele>1107.58</ele>
        <time>2022-08-05T13:29:55Z</time>
      </trkpt>
      <trkpt lat="44.49233" lon="3.74283">
        <ele>1106.13</ele>
        <time>2022-08-05T13:30:11Z</time>
      </trkpt>
      <trkpt lat="44.49221" lon="3.74264">
        <ele>1104.69</ele>
        <time>2022-08-05T13:30:27Z</time>
      </trkpt>
      <trkpt lat="44.49207" lon="3.74243">
        <ele>1102.77</ele>
        <time>2022-08-05T13:30:46Z</time>
      </trkpt>
      <trkpt lat="44.49206" lon="3.74241">
        <ele>1102.29</ele>
        <time>2022-08-05T13:30:47Z</time>
      </trkpt>
      <trkpt lat="44.49196" lon="3.74217">
        <ele>1100.37</ele>
        <time>2022-08-05T13:31:06Z</time>
      </trkpt>
      <trkpt lat="44.4919" lon="3.74201">
        <ele>1099.4</ele>
        <time>2022-08-05T13:31:19Z</time>
      </trkpt>
      <trkpt lat="44.49181" lon="3.74189">
        <ele>1097.48</ele>
        <time>2022-08-05T13:31:33Z</time>
      </trkpt>
      <trkpt lat="44.49173" lon="3.74184">
        <ele>1094.6</ele>
        <time>2022-08-05T13:31:46Z</time>
      </trkpt>
      <trkpt lat="44.49167" lon="3.74172">
        <ele>1092.2</ele>
        <time>2022-08-05T13:32:00Z</time>
      </trkpt>
      <trkpt lat="44.49166" lon="3.74168">
        <ele>1091.71</ele>
        <time>2022-08-05T13:32:03Z</time>
      </trkpt>
      <trkpt lat="44.49166" lon="3.74157">
        <ele>1089.79</ele>
        <time>2022-08-05T13:32:12Z</time>
      </trkpt>
      <trkpt lat="44.49175" lon="3.74137">
        <ele>1087.39</ele>
        <time>2022-08-05T13:32:29Z</time>
      </trkpt>
      <trkpt lat="44.49178" lon="3.74132">
        <ele>1085.95</ele>
        <time>2022-08-05T13:32:34Z</time>
      </trkpt>
      <trkpt lat="44.49184" lon="3.74116">
        <ele>1083.54</ele>
        <time>2022-08-05T13:32:49Z</time>
      </trkpt>
      <trkpt lat="44.49183" lon="3.74115">
        <ele>1083.06</ele>
        <time>2022-08-05T13:32:50Z</time>
      </trkpt>
      <trkpt lat="44.49169" lon="3.74101">
        <ele>1081.14</ele>
        <time>2022-08-05T13:33:06Z</time>
      </trkpt>
      <trkpt lat="44.49155" lon="3.74088">
        <ele>1080.18</ele>
        <time>2022-08-05T13:33:21Z</time>
      </trkpt>
      <trkpt lat="44.4914" lon="3.74093">
        <ele>1079.22</ele>
        <time>2022-08-05T13:33:38Z</time>
      </trkpt>
      <trkpt lat="44.49123" lon="3.74097">
        <ele>1074.41</ele>
        <time>2022-08-05T13:33:55Z</time>
      </trkpt>
      <trkpt lat="44.49114" lon="3.74099">
        <ele>1075.37</ele>
        <time>2022-08-05T13:34:10Z</time>
      </trkpt>
      <trkpt lat="44.49111" lon="3.74095">
        <ele>1075.37</ele>
        <time>2022-08-05T13:34:27Z</time>
      </trkpt>
      <trkpt lat="44.49111" lon="3.74094">
        <ele>1075.37</ele>
        <time>2022-08-05T13:34:28Z</time>
      </trkpt>
      <trkpt lat="44.49105" lon="3.74082">
        <ele>1073.93</ele>
        <time>2022-08-05T13:34:40Z</time>
      </trkpt>
      <trkpt lat="44.49094" lon="3.74067">
        <ele>1074.41</ele>
        <time>2022-08-05T13:34:54Z</time>
      </trkpt>
      <trkpt lat="44.49086" lon="3.74059">
        <ele>1070.57</ele>
        <time>2022-08-05T13:35:08Z</time>
      </trkpt>
      <trkpt lat="44.49084" lon="3.74057">
        <ele>1069.6</ele>
        <time>2022-08-05T13:35:33Z</time>
      </trkpt>
      <trkpt lat="44.49085" lon="3.74057">
        <ele>1067.68</ele>
        <time>2022-08-05T13:35:55Z</time>
      </trkpt>
      <trkpt lat="44.49084" lon="3.74056">
        <ele>1069.12</ele>
        <time>2022-08-05T13:36:21Z</time>
      </trkpt>
      <trkpt lat="44.49083" lon="3.74056">
        <ele>1071.05</ele>
        <time>2022-08-05T13:36:41Z</time>
      </trkpt>
      <trkpt lat="44.49077" lon="3.74048">
        <ele>1071.53</ele>
        <time>2022-08-05T13:36:54Z</time>
      </trkpt>
      <trkpt lat="44.49063" lon="3.74036">
        <ele>1070.57</ele>
        <time>2022-08-05T13:37:08Z</time>
      </trkpt>
      <trkpt lat="44.4905" lon="3.74021">
        <ele>1071.05</ele>
        <time>2022-08-05T13:37:22Z</time>
      </trkpt>
      <trkpt lat="44.49048" lon="3.74015">
        <ele>1070.57</ele>
        <time>2022-08-05T13:37:26Z</time>
      </trkpt>
      <trkpt lat="44.49034" lon="3.74002">
        <ele>1067.68</ele>
        <time>2022-08-05T13:37:44Z</time>
      </trkpt>
      <trkpt lat="44.49023" lon="3.74004">
        <ele>1066.72</ele>
        <time>2022-08-05T13:37:55Z</time>
      </trkpt>
      <trkpt lat="44.49014" lon="3.73997">
        <ele>1066.72</ele>
        <time>2022-08-05T13:38:06Z</time>
      </trkpt>
      <trkpt lat="44.49011" lon="3.73997">
        <ele>1066.24</ele>
        <time>2022-08-05T13:38:21Z</time>
      </trkpt>
      <trkpt lat="44.49012" lon="3.73997">
        <ele>1065.76</ele>
        <time>2022-08-05T13:38:36Z</time>
      </trkpt>
      <trkpt lat="44.49021" lon="3.73993">
        <ele>1066.72</ele>
        <time>2022-08-05T13:38:58Z</time>
      </trkpt>
      <trkpt lat="44.49004" lon="3.73995">
        <ele>1065.76</ele>
        <time>2022-08-05T13:39:16Z</time>
      </trkpt>
      <trkpt lat="44.49003" lon="3.7399">
        <ele>1064.8</ele>
        <time>2022-08-05T13:39:38Z</time>
      </trkpt>
      <trkpt lat="44.49006" lon="3.73989">
        <ele>1063.84</ele>
        <time>2022-08-05T13:40:04Z</time>
      </trkpt>
      <trkpt lat="44.49014" lon="3.73991">
        <ele>1061.43</ele>
        <time>2022-08-05T13:40:29Z</time>
      </trkpt>
      <trkpt lat="44.49003" lon="3.73991">
        <ele>1060.47</ele>
        <time>2022-08-05T13:40:52Z</time>
      </trkpt>
      <trkpt lat="44.48998" lon="3.73993">
        <ele>1060.95</ele>
        <time>2022-08-05T13:41:13Z</time>
      </trkpt>
      <trkpt lat="44.49001" lon="3.73993">
        <ele>1060.95</ele>
        <time>2022-08-05T13:41:17Z</time>
      </trkpt>
      <trkpt lat="44.49042" lon="3.74013">
        <ele>1061.43</ele>
        <time>2022-08-05T13:41:35Z</time>
      </trkpt>
      <trkpt lat="44.49003" lon="3.73987">
        <ele>1060.47</ele>
        <time>2022-08-05T13:53:09Z</time>
      </trkpt>
      <trkpt lat="44.49012" lon="3.74">
        <ele>1069.6</ele>
        <time>2022-08-05T13:53:30Z</time>
      </trkpt>
      <trkpt lat="44.49019" lon="3.74001">
        <ele>1070.08</ele>
        <time>2022-08-05T13:53:59Z</time>
      </trkpt>
      <trkpt lat="44.49022" lon="3.73999">
        <ele>1073.93</ele>
        <time>2022-08-05T13:54:22Z</time>
      </trkpt>
      <trkpt lat="44.49015" lon="3.73993">
        <ele>1081.62</ele>
        <time>2022-08-05T13:54:45Z</time>
      </trkpt>
      <trkpt lat="44.49016" lon="3.73992">
        <ele>1078.74</ele>
        <time>2022-08-05T13:55:10Z</time>
      </trkpt>
      <trkpt lat="44.49015" lon="3.74001">
        <ele>1077.29</ele>
        <time>2022-08-05T13:55:33Z</time>
      </trkpt>
      <trkpt lat="44.49028" lon="3.74001">
        <ele>1077.29</ele>
        <time>2022-08-05T13:56:03Z</time>
      </trkpt>
      <trkpt lat="44.49043" lon="3.73991">
        <ele>1077.78</ele>
        <time>2022-08-05T13:56:43Z</time>
      </trkpt>
      <trkpt lat="44.49024" lon="3.73995">
        <ele>1073.93</ele>
        <time>2022-08-05T13:57:00Z</time>
      </trkpt>
      <trkpt lat="44.49021" lon="3.74004">
        <ele>1085.95</ele>
        <time>2022-08-05T13:57:16Z</time>
      </trkpt>
      <trkpt lat="44.49024" lon="3.74002">
        <ele>1088.35</ele>
        <time>2022-08-05T13:57:32Z</time>
      </trkpt>
      <trkpt lat="44.49025" lon="3.74005">
        <ele>1084.5</ele>
        <time>2022-08-05T13:57:46Z</time>
      </trkpt>
      <trkpt lat="44.49023" lon="3.74008">
        <ele>1080.18</ele>
        <time>2022-08-05T13:58:07Z</time>
      </trkpt>
      <trkpt lat="44.4902" lon="3.74011">
        <ele>1076.81</ele>
        <time>2022-08-05T13:58:26Z</time>
      </trkpt>
      <trkpt lat="44.49018" lon="3.74014">
        <ele>1072.97</ele>
        <time>2022-08-05T13:58:56Z</time>
      </trkpt>
      <trkpt lat="44.49017" lon="3.74013">
        <ele>1073.45</ele>
        <time>2022-08-05T13:59:21Z</time>
      </trkpt>
      <trkpt lat="44.49017" lon="3.74013">
        <ele>1073.45</ele>
        <time>2022-08-05T13:59:25Z</time>
      </trkpt>
      <trkpt lat="44.48969" lon="3.7391">
        <ele>1075.37</ele>
        <time>2022-08-06T05:13:23Z</time>
      </trkpt>
      <trkpt lat="44.48982" lon="3.73938">
        <ele>1072.97</ele>
        <time>2022-08-06T05:14:06Z</time>
      </trkpt>
      <trkpt lat="44.48977" lon="3.73937">
        <ele>1072.97</ele>
        <time>2022-08-06T05:14:14Z</time>
      </trkpt>
      <trkpt lat="44.48966" lon="3.73934">
        <ele>1071.53</ele>
        <time>2022-08-06T05:14:29Z</time>
      </trkpt>
      <trkpt lat="44.48955" lon="3.73932">
        <ele>1065.76</ele>
        <time>2022-08-06T05:14:44Z</time>
      </trkpt>
      <trkpt lat="44.48943" lon="3.7393">
        <ele>1060.95</ele>
        <time>2022-08-06T05:15:00Z</time>
      </trkpt>
      <trkpt lat="44.48933" lon="3.73926">
        <ele>1058.55</ele>
        <time>2022-08-06T05:15:15Z</time>
      </trkpt>
      <trkpt lat="44.48925" lon="3.73917">
        <ele>1062.39</ele>
        <time>2022-08-06T05:15:29Z</time>
      </trkpt>
      <trkpt lat="44.48918" lon="3.73909">
        <ele>1063.84</ele>
        <time>2022-08-06T05:15:42Z</time>
      </trkpt>
      <trkpt lat="44.48916" lon="3.73889">
        <ele>1064.8</ele>
        <time>2022-08-06T05:15:57Z</time>
      </trkpt>
      <trkpt lat="44.48911" lon="3.73872">
        <ele>1064.32</ele>
        <time>2022-08-06T05:16:10Z</time>
      </trkpt>
      <trkpt lat="44.48906" lon="3.73855">
        <ele>1064.8</ele>
        <time>2022-08-06T05:16:24Z</time>
      </trkpt>
      <trkpt lat="44.48905" lon="3.73851">
        <ele>1064.8</ele>
        <time>2022-08-06T05:16:28Z</time>
      </trkpt>
      <trkpt lat="44.48903" lon="3.73843">
        <ele>1064.32</ele>
        <time>2022-08-06T05:16:35Z</time>
      </trkpt>
      <trkpt lat="44.48894" lon="3.73826">
        <ele>1065.28</ele>
        <time>2022-08-06T05:16:51Z</time>
      </trkpt>
      <trkpt lat="44.48888" lon="3.73817">
        <ele>1066.24</ele>
        <time>2022-08-06T05:17:05Z</time>
      </trkpt>
      <trkpt lat="44.4889" lon="3.73817">
        <ele>1064.8</ele>
        <time>2022-08-06T05:17:27Z</time>
      </trkpt>
      <trkpt lat="44.48885" lon="3.73807">
        <ele>1064.8</ele>
        <time>2022-08-06T05:17:38Z</time>
      </trkpt>
      <trkpt lat="44.48874" lon="3.73796">
        <ele>1070.57</ele>
        <time>2022-08-06T05:17:52Z</time>
      </trkpt>
      <trkpt lat="44.48873" lon="3.73789">
        <ele>1072.97</ele>
        <time>2022-08-06T05:18:16Z</time>
      </trkpt>
      <trkpt lat="44.48867" lon="3.73784">
        <ele>1074.89</ele>
        <time>2022-08-06T05:18:34Z</time>
      </trkpt>
      <trkpt lat="44.48856" lon="3.73775">
        <ele>1074.41</ele>
        <time>2022-08-06T05:18:49Z</time>
      </trkpt>
      <trkpt lat="44.4884" lon="3.73765">
        <ele>1074.89</ele>
        <time>2022-08-06T05:19:05Z</time>
      </trkpt>
      <trkpt lat="44.48832" lon="3.73757">
        <ele>1074.89</ele>
        <time>2022-08-06T05:19:18Z</time>
      </trkpt>
      <trkpt lat="44.48822" lon="3.73741">
        <ele>1074.89</ele>
        <time>2022-08-06T05:19:34Z</time>
      </trkpt>
      <trkpt lat="44.48815" lon="3.73725">
        <ele>1076.81</ele>
        <time>2022-08-06T05:19:47Z</time>
      </trkpt>
      <trkpt lat="44.48811" lon="3.73715">
        <ele>1079.22</ele>
        <time>2022-08-06T05:19:56Z</time>
      </trkpt>
      <trkpt lat="44.488" lon="3.73698">
        <ele>1082.1</ele>
        <time>2022-08-06T05:20:12Z</time>
      </trkpt>
      <trkpt lat="44.48791" lon="3.73684">
        <ele>1082.58</ele>
        <time>2022-08-06T05:20:26Z</time>
      </trkpt>
      <trkpt lat="44.4878" lon="3.7366">
        <ele>1083.06</ele>
        <time>2022-08-06T05:20:47Z</time>
      </trkpt>
      <trkpt lat="44.4877" lon="3.73646">
        <ele>1084.5</ele>
        <time>2022-08-06T05:21:04Z</time>
      </trkpt>
      <trkpt lat="44.48769" lon="3.73643">
        <ele>1084.99</ele>
        <time>2022-08-06T05:21:17Z</time>
      </trkpt>
      <trkpt lat="44.48765" lon="3.73642">
        <ele>1087.87</ele>
        <time>2022-08-06T05:21:39Z</time>
      </trkpt>
      <trkpt lat="44.48758" lon="3.73633">
        <ele>1090.75</ele>
        <time>2022-08-06T05:21:51Z</time>
      </trkpt>
      <trkpt lat="44.48749" lon="3.73631">
        <ele>1087.87</ele>
        <time>2022-08-06T05:22:03Z</time>
      </trkpt>
      <trkpt lat="44.48739" lon="3.73622">
        <ele>1085.95</ele>
        <time>2022-08-06T05:22:18Z</time>
      </trkpt>
      <trkpt lat="44.48726" lon="3.73604">
        <ele>1080.66</ele>
        <time>2022-08-06T05:22:34Z</time>
      </trkpt>
      <trkpt lat="44.48715" lon="3.7359">
        <ele>1077.78</ele>
        <time>2022-08-06T05:22:50Z</time>
      </trkpt>
      <trkpt lat="44.487" lon="3.73575">
        <ele>1074.41</ele>
        <time>2022-08-06T05:23:06Z</time>
      </trkpt>
      <trkpt lat="44.48683" lon="3.73561">
        <ele>1067.68</ele>
        <time>2022-08-06T05:23:25Z</time>
      </trkpt>
      <trkpt lat="44.48665" lon="3.73552">
        <ele>1069.6</ele>
        <time>2022-08-06T05:23:44Z</time>
      </trkpt>
      <trkpt lat="44.48658" lon="3.73556">
        <ele>1072.49</ele>
        <time>2022-08-06T05:23:52Z</time>
      </trkpt>
      <trkpt lat="44.48649" lon="3.73558">
        <ele>1080.18</ele>
        <time>2022-08-06T05:24:07Z</time>
      </trkpt>
      <trkpt lat="44.48639" lon="3.73565">
        <ele>1082.1</ele>
        <time>2022-08-06T05:24:20Z</time>
      </trkpt>
      <trkpt lat="44.48626" lon="3.73568">
        <ele>1082.58</ele>
        <time>2022-08-06T05:24:35Z</time>
      </trkpt>
      <trkpt lat="44.48619" lon="3.7357">
        <ele>1083.54</ele>
        <time>2022-08-06T05:24:48Z</time>
      </trkpt>
      <trkpt lat="44.4862" lon="3.73571">
        <ele>1083.54</ele>
        <time>2022-08-06T05:24:50Z</time>
      </trkpt>
      <trkpt lat="44.48629" lon="3.73589">
        <ele>1083.06</ele>
        <time>2022-08-06T05:25:03Z</time>
      </trkpt>
      <trkpt lat="44.48634" lon="3.73595">
        <ele>1084.5</ele>
        <time>2022-08-06T05:25:16Z</time>
      </trkpt>
      <trkpt lat="44.48642" lon="3.73591">
        <ele>1083.06</ele>
        <time>2022-08-06T05:25:30Z</time>
      </trkpt>
      <trkpt lat="44.48643" lon="3.73591">
        <ele>1083.06</ele>
        <time>2022-08-06T05:25:31Z</time>
      </trkpt>
      <trkpt lat="44.48655" lon="3.73594">
        <ele>1082.1</ele>
        <time>2022-08-06T05:25:46Z</time>
      </trkpt>
      <trkpt lat="44.48657" lon="3.73603">
        <ele>1083.06</ele>
        <time>2022-08-06T05:26:01Z</time>
      </trkpt>
      <trkpt lat="44.48656" lon="3.7361">
        <ele>1084.02</ele>
        <time>2022-08-06T05:26:14Z</time>
      </trkpt>
      <trkpt lat="44.48654" lon="3.73627">
        <ele>1085.95</ele>
        <time>2022-08-06T05:26:34Z</time>
      </trkpt>
      <trkpt lat="44.48658" lon="3.73637">
        <ele>1089.79</ele>
        <time>2022-08-06T05:26:48Z</time>
      </trkpt>
      <trkpt lat="44.48664" lon="3.73646">
        <ele>1091.23</ele>
        <time>2022-08-06T05:27:01Z</time>
      </trkpt>
      <trkpt lat="44.48673" lon="3.73649">
        <ele>1091.71</ele>
        <time>2022-08-06T05:27:16Z</time>
      </trkpt>
      <trkpt lat="44.48685" lon="3.7365">
        <ele>1092.2</ele>
        <time>2022-08-06T05:27:32Z</time>
      </trkpt>
      <trkpt lat="44.48686" lon="3.7366">
        <ele>1092.68</ele>
        <time>2022-08-06T05:27:46Z</time>
      </trkpt>
      <trkpt lat="44.48675" lon="3.73665">
        <ele>1095.08</ele>
        <time>2022-08-06T05:28:01Z</time>
      </trkpt>
      <trkpt lat="44.48664" lon="3.7367">
        <ele>1097</ele>
        <time>2022-08-06T05:28:17Z</time>
      </trkpt>
      <trkpt lat="44.48649" lon="3.73679">
        <ele>1101.33</ele>
        <time>2022-08-06T05:28:35Z</time>
      </trkpt>
      <trkpt lat="44.48638" lon="3.73691">
        <ele>1103.25</ele>
        <time>2022-08-06T05:28:51Z</time>
      </trkpt>
      <trkpt lat="44.48633" lon="3.73698">
        <ele>1104.69</ele>
        <time>2022-08-06T05:28:59Z</time>
      </trkpt>
      <trkpt lat="44.48623" lon="3.73711">
        <ele>1106.13</ele>
        <time>2022-08-06T05:29:16Z</time>
      </trkpt>
      <trkpt lat="44.48616" lon="3.73724">
        <ele>1108.06</ele>
        <time>2022-08-06T05:29:31Z</time>
      </trkpt>
      <trkpt lat="44.4862" lon="3.73746">
        <ele>1109.98</ele>
        <time>2022-08-06T05:29:49Z</time>
      </trkpt>
      <trkpt lat="44.48623" lon="3.73753">
        <ele>1109.02</ele>
        <time>2022-08-06T05:30:06Z</time>
      </trkpt>
      <trkpt lat="44.4863" lon="3.73763">
        <ele>1109.98</ele>
        <time>2022-08-06T05:30:20Z</time>
      </trkpt>
      <trkpt lat="44.48631" lon="3.73761">
        <ele>1113.34</ele>
        <time>2022-08-06T05:30:42Z</time>
      </trkpt>
      <trkpt lat="44.48625" lon="3.73759">
        <ele>1113.34</ele>
        <time>2022-08-06T05:31:16Z</time>
      </trkpt>
      <trkpt lat="44.48618" lon="3.73767">
        <ele>1113.34</ele>
        <time>2022-08-06T05:31:31Z</time>
      </trkpt>
      <trkpt lat="44.48611" lon="3.73776">
        <ele>1114.31</ele>
        <time>2022-08-06T05:31:51Z</time>
      </trkpt>
      <trkpt lat="44.48602" lon="3.7378">
        <ele>1116.71</ele>
        <time>2022-08-06T05:32:06Z</time>
      </trkpt>
      <trkpt lat="44.48601" lon="3.73779">
        <ele>1119.59</ele>
        <time>2022-08-06T05:32:41Z</time>
      </trkpt>
      <trkpt lat="44.48593" lon="3.73785">
        <ele>1117.67</ele>
        <time>2022-08-06T05:33:03Z</time>
      </trkpt>
      <trkpt lat="44.48578" lon="3.73795">
        <ele>1118.63</ele>
        <time>2022-08-06T05:33:22Z</time>
      </trkpt>
      <trkpt lat="44.48576" lon="3.73797">
        <ele>1118.63</ele>
        <time>2022-08-06T05:33:24Z</time>
      </trkpt>
      <trkpt lat="44.48564" lon="3.73807">
        <ele>1118.63</ele>
        <time>2022-08-06T05:33:41Z</time>
      </trkpt>
      <trkpt lat="44.4855" lon="3.73819">
        <ele>1119.59</ele>
        <time>2022-08-06T05:33:58Z</time>
      </trkpt>
      <trkpt lat="44.48538" lon="3.73832">
        <ele>1119.11</ele>
        <time>2022-08-06T05:34:13Z</time>
      </trkpt>
      <trkpt lat="44.48535" lon="3.73834">
        <ele>1119.59</ele>
        <time>2022-08-06T05:34:17Z</time>
      </trkpt>
      <trkpt lat="44.48534" lon="3.73835">
        <ele>1119.11</ele>
        <time>2022-08-06T05:34:19Z</time>
      </trkpt>
      <trkpt lat="44.48532" lon="3.73837">
        <ele>1119.11</ele>
        <time>2022-08-06T05:34:21Z</time>
      </trkpt>
      <trkpt lat="44.4852" lon="3.73851">
        <ele>1119.59</ele>
        <time>2022-08-06T05:34:36Z</time>
      </trkpt>
      <trkpt lat="44.48514" lon="3.73857">
        <ele>1120.07</ele>
        <time>2022-08-06T05:34:43Z</time>
      </trkpt>
      <trkpt lat="44.48502" lon="3.73867">
        <ele>1118.15</ele>
        <time>2022-08-06T05:34:58Z</time>
      </trkpt>
      <trkpt lat="44.485" lon="3.73869">
        <ele>1117.67</ele>
        <time>2022-08-06T05:35:01Z</time>
      </trkpt>
      <trkpt lat="44.48487" lon="3.7388">
        <ele>1118.15</ele>
        <time>2022-08-06T05:35:16Z</time>
      </trkpt>
      <trkpt lat="44.48476" lon="3.73892">
        <ele>1118.63</ele>
        <time>2022-08-06T05:35:31Z</time>
      </trkpt>
      <trkpt lat="44.48465" lon="3.73905">
        <ele>1119.11</ele>
        <time>2022-08-06T05:35:46Z</time>
      </trkpt>
      <trkpt lat="44.48458" lon="3.73912">
        <ele>1119.11</ele>
        <time>2022-08-06T05:35:56Z</time>
      </trkpt>
      <trkpt lat="44.48447" lon="3.73922">
        <ele>1119.11</ele>
        <time>2022-08-06T05:36:10Z</time>
      </trkpt>
      <trkpt lat="44.48433" lon="3.73933">
        <ele>1120.55</ele>
        <time>2022-08-06T05:36:26Z</time>
      </trkpt>
      <trkpt lat="44.4842" lon="3.73947">
        <ele>1122</ele>
        <time>2022-08-06T05:36:42Z</time>
      </trkpt>
      <trkpt lat="44.48408" lon="3.73959">
        <ele>1122.48</ele>
        <time>2022-08-06T05:36:57Z</time>
      </trkpt>
      <trkpt lat="44.48394" lon="3.73974">
        <ele>1122.96</ele>
        <time>2022-08-06T05:37:14Z</time>
      </trkpt>
      <trkpt lat="44.4839" lon="3.73978">
        <ele>1122.96</ele>
        <time>2022-08-06T05:37:19Z</time>
      </trkpt>
      <trkpt lat="44.48378" lon="3.73994">
        <ele>1124.88</ele>
        <time>2022-08-06T05:37:36Z</time>
      </trkpt>
      <trkpt lat="44.48373" lon="3.74">
        <ele>1125.84</ele>
        <time>2022-08-06T05:37:43Z</time>
      </trkpt>
      <trkpt lat="44.48368" lon="3.74007">
        <ele>1130.17</ele>
        <time>2022-08-06T05:37:58Z</time>
      </trkpt>
      <trkpt lat="44.4837" lon="3.74002">
        <ele>1133.05</ele>
        <time>2022-08-06T05:38:26Z</time>
      </trkpt>
      <trkpt lat="44.48366" lon="3.74003">
        <ele>1133.53</ele>
        <time>2022-08-06T05:38:57Z</time>
      </trkpt>
      <trkpt lat="44.48352" lon="3.74014">
        <ele>1134.01</ele>
        <time>2022-08-06T05:39:13Z</time>
      </trkpt>
      <trkpt lat="44.48341" lon="3.74017">
        <ele>1133.53</ele>
        <time>2022-08-06T05:39:26Z</time>
      </trkpt>
      <trkpt lat="44.48329" lon="3.74005">
        <ele>1134.01</ele>
        <time>2022-08-06T05:39:44Z</time>
      </trkpt>
      <trkpt lat="44.48323" lon="3.73989">
        <ele>1137.86</ele>
        <time>2022-08-06T05:40:00Z</time>
      </trkpt>
      <trkpt lat="44.48316" lon="3.7397">
        <ele>1140.74</ele>
        <time>2022-08-06T05:40:18Z</time>
      </trkpt>
      <trkpt lat="44.48309" lon="3.73955">
        <ele>1142.18</ele>
        <time>2022-08-06T05:40:34Z</time>
      </trkpt>
      <trkpt lat="44.48302" lon="3.73942">
        <ele>1143.14</ele>
        <time>2022-08-06T05:40:49Z</time>
      </trkpt>
      <trkpt lat="44.48296" lon="3.73929">
        <ele>1143.63</ele>
        <time>2022-08-06T05:41:05Z</time>
      </trkpt>
      <trkpt lat="44.4829" lon="3.73914">
        <ele>1145.07</ele>
        <time>2022-08-06T05:41:20Z</time>
      </trkpt>
      <trkpt lat="44.48282" lon="3.73903">
        <ele>1146.03</ele>
        <time>2022-08-06T05:41:34Z</time>
      </trkpt>
      <trkpt lat="44.4827" lon="3.73895">
        <ele>1146.99</ele>
        <time>2022-08-06T05:41:50Z</time>
      </trkpt>
      <trkpt lat="44.48257" lon="3.73891">
        <ele>1147.95</ele>
        <time>2022-08-06T05:42:05Z</time>
      </trkpt>
      <trkpt lat="44.48241" lon="3.73893">
        <ele>1150.84</ele>
        <time>2022-08-06T05:42:23Z</time>
      </trkpt>
      <trkpt lat="44.48229" lon="3.73894">
        <ele>1152.28</ele>
        <time>2022-08-06T05:42:36Z</time>
      </trkpt>
      <trkpt lat="44.48218" lon="3.73898">
        <ele>1154.2</ele>
        <time>2022-08-06T05:42:50Z</time>
      </trkpt>
      <trkpt lat="44.48204" lon="3.73906">
        <ele>1154.68</ele>
        <time>2022-08-06T05:43:06Z</time>
      </trkpt>
      <trkpt lat="44.48194" lon="3.73914">
        <ele>1156.6</ele>
        <time>2022-08-06T05:43:20Z</time>
      </trkpt>
      <trkpt lat="44.48183" lon="3.73921">
        <ele>1156.6</ele>
        <time>2022-08-06T05:43:35Z</time>
      </trkpt>
      <trkpt lat="44.48172" lon="3.73933">
        <ele>1158.05</ele>
        <time>2022-08-06T05:43:51Z</time>
      </trkpt>
      <trkpt lat="44.48163" lon="3.73938">
        <ele>1158.53</ele>
        <time>2022-08-06T05:44:02Z</time>
      </trkpt>
      <trkpt lat="44.4815" lon="3.73947">
        <ele>1161.41</ele>
        <time>2022-08-06T05:44:20Z</time>
      </trkpt>
      <trkpt lat="44.48139" lon="3.73951">
        <ele>1162.37</ele>
        <time>2022-08-06T05:44:36Z</time>
      </trkpt>
      <trkpt lat="44.48128" lon="3.73957">
        <ele>1163.81</ele>
        <time>2022-08-06T05:44:51Z</time>
      </trkpt>
      <trkpt lat="44.48116" lon="3.7396">
        <ele>1166.22</ele>
        <time>2022-08-06T05:45:06Z</time>
      </trkpt>
      <trkpt lat="44.48103" lon="3.73962">
        <ele>1167.18</ele>
        <time>2022-08-06T05:45:23Z</time>
      </trkpt>
      <trkpt lat="44.48089" lon="3.73964">
        <ele>1168.62</ele>
        <time>2022-08-06T05:45:40Z</time>
      </trkpt>
      <trkpt lat="44.48074" lon="3.73968">
        <ele>1169.1</ele>
        <time>2022-08-06T05:45:58Z</time>
      </trkpt>
      <trkpt lat="44.48061" lon="3.73975">
        <ele>1169.58</ele>
        <time>2022-08-06T05:46:13Z</time>
      </trkpt>
      <trkpt lat="44.48049" lon="3.73982">
        <ele>1171.5</ele>
        <time>2022-08-06T05:46:30Z</time>
      </trkpt>
      <trkpt lat="44.48038" lon="3.73989">
        <ele>1172.47</ele>
        <time>2022-08-06T05:46:45Z</time>
      </trkpt>
      <trkpt lat="44.48025" lon="3.73993">
        <ele>1171.98</ele>
        <time>2022-08-06T05:47:00Z</time>
      </trkpt>
      <trkpt lat="44.48023" lon="3.73993">
        <ele>1171.98</ele>
        <time>2022-08-06T05:47:02Z</time>
      </trkpt>
      <trkpt lat="44.48005" lon="3.74002">
        <ele>1174.87</ele>
        <time>2022-08-06T05:47:21Z</time>
      </trkpt>
      <trkpt lat="44.47992" lon="3.74011">
        <ele>1175.35</ele>
        <time>2022-08-06T05:47:38Z</time>
      </trkpt>
      <trkpt lat="44.47972" lon="3.74018">
        <ele>1179.67</ele>
        <time>2022-08-06T05:47:58Z</time>
      </trkpt>
      <trkpt lat="44.47954" lon="3.74025">
        <ele>1184.96</ele>
        <time>2022-08-06T05:48:18Z</time>
      </trkpt>
      <trkpt lat="44.4794" lon="3.74034">
        <ele>1186.88</ele>
        <time>2022-08-06T05:48:35Z</time>
      </trkpt>
      <trkpt lat="44.47924" lon="3.74039">
        <ele>1188.33</ele>
        <time>2022-08-06T05:48:52Z</time>
      </trkpt>
      <trkpt lat="44.47912" lon="3.74041">
        <ele>1188.81</ele>
        <time>2022-08-06T05:49:08Z</time>
      </trkpt>
      <trkpt lat="44.47899" lon="3.74042">
        <ele>1188.33</ele>
        <time>2022-08-06T05:49:25Z</time>
      </trkpt>
      <trkpt lat="44.47884" lon="3.74042">
        <ele>1187.85</ele>
        <time>2022-08-06T05:49:41Z</time>
      </trkpt>
      <trkpt lat="44.47876" lon="3.74043">
        <ele>1188.81</ele>
        <time>2022-08-06T05:49:50Z</time>
      </trkpt>
      <trkpt lat="44.47861" lon="3.74045">
        <ele>1189.77</ele>
        <time>2022-08-06T05:50:07Z</time>
      </trkpt>
      <trkpt lat="44.47845" lon="3.74046">
        <ele>1190.25</ele>
        <time>2022-08-06T05:50:24Z</time>
      </trkpt>
      <trkpt lat="44.4783" lon="3.74048">
        <ele>1188.81</ele>
        <time>2022-08-06T05:50:39Z</time>
      </trkpt>
      <trkpt lat="44.47817" lon="3.74049">
        <ele>1188.33</ele>
        <time>2022-08-06T05:50:53Z</time>
      </trkpt>
      <trkpt lat="44.47801" lon="3.74048">
        <ele>1188.33</ele>
        <time>2022-08-06T05:51:09Z</time>
      </trkpt>
      <trkpt lat="44.47786" lon="3.74047">
        <ele>1188.33</ele>
        <time>2022-08-06T05:51:25Z</time>
      </trkpt>
      <trkpt lat="44.47771" lon="3.74045">
        <ele>1189.29</ele>
        <time>2022-08-06T05:51:41Z</time>
      </trkpt>
      <trkpt lat="44.47768" lon="3.74045">
        <ele>1189.29</ele>
        <time>2022-08-06T05:51:45Z</time>
      </trkpt>
      <trkpt lat="44.4776" lon="3.74048">
        <ele>1189.29</ele>
        <time>2022-08-06T05:51:54Z</time>
      </trkpt>
      <trkpt lat="44.4775" lon="3.74039">
        <ele>1188.81</ele>
        <time>2022-08-06T05:52:06Z</time>
      </trkpt>
      <trkpt lat="44.47738" lon="3.74033">
        <ele>1188.33</ele>
        <time>2022-08-06T05:52:19Z</time>
      </trkpt>
      <trkpt lat="44.47721" lon="3.74026">
        <ele>1189.29</ele>
        <time>2022-08-06T05:52:37Z</time>
      </trkpt>
      <trkpt lat="44.47706" lon="3.7402">
        <ele>1189.29</ele>
        <time>2022-08-06T05:52:53Z</time>
      </trkpt>
      <trkpt lat="44.47692" lon="3.74014">
        <ele>1188.33</ele>
        <time>2022-08-06T05:53:08Z</time>
      </trkpt>
      <trkpt lat="44.47676" lon="3.74007">
        <ele>1189.29</ele>
        <time>2022-08-06T05:53:25Z</time>
      </trkpt>
      <trkpt lat="44.4766" lon="3.74002">
        <ele>1188.81</ele>
        <time>2022-08-06T05:53:42Z</time>
      </trkpt>
      <trkpt lat="44.47642" lon="3.74">
        <ele>1188.81</ele>
        <time>2022-08-06T05:54:00Z</time>
      </trkpt>
      <trkpt lat="44.47626" lon="3.73998">
        <ele>1189.77</ele>
        <time>2022-08-06T05:54:17Z</time>
      </trkpt>
      <trkpt lat="44.47609" lon="3.73995">
        <ele>1190.25</ele>
        <time>2022-08-06T05:54:35Z</time>
      </trkpt>
      <trkpt lat="44.476" lon="3.73993">
        <ele>1191.21</ele>
        <time>2022-08-06T05:54:44Z</time>
      </trkpt>
      <trkpt lat="44.47589" lon="3.73989">
        <ele>1193.13</ele>
        <time>2022-08-06T05:54:57Z</time>
      </trkpt>
      <trkpt lat="44.47573" lon="3.73984">
        <ele>1194.58</ele>
        <time>2022-08-06T05:55:15Z</time>
      </trkpt>
      <trkpt lat="44.47571" lon="3.73984">
        <ele>1194.58</ele>
        <time>2022-08-06T05:55:17Z</time>
      </trkpt>
      <trkpt lat="44.47556" lon="3.73979">
        <ele>1196.02</ele>
        <time>2022-08-06T05:55:34Z</time>
      </trkpt>
      <trkpt lat="44.47544" lon="3.73972">
        <ele>1196.5</ele>
        <time>2022-08-06T05:55:49Z</time>
      </trkpt>
      <trkpt lat="44.47531" lon="3.73962">
        <ele>1196.5</ele>
        <time>2022-08-06T05:56:04Z</time>
      </trkpt>
      <trkpt lat="44.4752" lon="3.73948">
        <ele>1196.98</ele>
        <time>2022-08-06T05:56:19Z</time>
      </trkpt>
      <trkpt lat="44.47509" lon="3.73933">
        <ele>1197.46</ele>
        <time>2022-08-06T05:56:34Z</time>
      </trkpt>
      <trkpt lat="44.47497" lon="3.73918">
        <ele>1197.94</ele>
        <time>2022-08-06T05:56:50Z</time>
      </trkpt>
      <trkpt lat="44.47486" lon="3.73901">
        <ele>1197.94</ele>
        <time>2022-08-06T05:57:05Z</time>
      </trkpt>
      <trkpt lat="44.47483" lon="3.73897">
        <ele>1197.46</ele>
        <time>2022-08-06T05:57:09Z</time>
      </trkpt>
      <trkpt lat="44.47481" lon="3.73896">
        <ele>1196.98</ele>
        <time>2022-08-06T05:57:11Z</time>
      </trkpt>
      <trkpt lat="44.47472" lon="3.73885">
        <ele>1196.5</ele>
        <time>2022-08-06T05:57:23Z</time>
      </trkpt>
      <trkpt lat="44.47468" lon="3.73884">
        <ele>1196.5</ele>
        <time>2022-08-06T05:57:27Z</time>
      </trkpt>
      <trkpt lat="44.47451" lon="3.73867">
        <ele>1196.98</ele>
        <time>2022-08-06T05:57:47Z</time>
      </trkpt>
      <trkpt lat="44.47436" lon="3.73857">
        <ele>1197.46</ele>
        <time>2022-08-06T05:58:03Z</time>
      </trkpt>
      <trkpt lat="44.47419" lon="3.73853">
        <ele>1197.46</ele>
        <time>2022-08-06T05:58:19Z</time>
      </trkpt>
      <trkpt lat="44.47406" lon="3.73849">
        <ele>1196.5</ele>
        <time>2022-08-06T05:58:32Z</time>
      </trkpt>
      <trkpt lat="44.47405" lon="3.73849">
        <ele>1196.5</ele>
        <time>2022-08-06T05:58:33Z</time>
      </trkpt>
      <trkpt lat="44.47389" lon="3.73845">
        <ele>1196.98</ele>
        <time>2022-08-06T05:58:48Z</time>
      </trkpt>
      <trkpt lat="44.47387" lon="3.73844">
        <ele>1196.98</ele>
        <time>2022-08-06T05:58:50Z</time>
      </trkpt>
      <trkpt lat="44.47374" lon="3.73839">
        <ele>1196.02</ele>
        <time>2022-08-06T05:59:05Z</time>
      </trkpt>
      <trkpt lat="44.47357" lon="3.73834">
        <ele>1197.46</ele>
        <time>2022-08-06T05:59:23Z</time>
      </trkpt>
      <trkpt lat="44.47342" lon="3.73833">
        <ele>1198.9</ele>
        <time>2022-08-06T05:59:39Z</time>
      </trkpt>
      <trkpt lat="44.47329" lon="3.73834">
        <ele>1200.82</ele>
        <time>2022-08-06T05:59:56Z</time>
      </trkpt>
      <trkpt lat="44.47316" lon="3.73835">
        <ele>1201.3</ele>
        <time>2022-08-06T06:00:11Z</time>
      </trkpt>
      <trkpt lat="44.47301" lon="3.73834">
        <ele>1204.67</ele>
        <time>2022-08-06T06:00:29Z</time>
      </trkpt>
      <trkpt lat="44.47293" lon="3.73835">
        <ele>1206.11</ele>
        <time>2022-08-06T06:00:42Z</time>
      </trkpt>
      <trkpt lat="44.47285" lon="3.73832">
        <ele>1207.55</ele>
        <time>2022-08-06T06:00:56Z</time>
      </trkpt>
      <trkpt lat="44.47278" lon="3.73829">
        <ele>1209.48</ele>
        <time>2022-08-06T06:01:10Z</time>
      </trkpt>
      <trkpt lat="44.47268" lon="3.73827">
        <ele>1212.36</ele>
        <time>2022-08-06T06:01:28Z</time>
      </trkpt>
      <trkpt lat="44.47258" lon="3.73821">
        <ele>1214.28</ele>
        <time>2022-08-06T06:01:48Z</time>
      </trkpt>
      <trkpt lat="44.47249" lon="3.73817">
        <ele>1215.24</ele>
        <time>2022-08-06T06:02:04Z</time>
      </trkpt>
      <trkpt lat="44.47241" lon="3.73812">
        <ele>1219.09</ele>
        <time>2022-08-06T06:02:21Z</time>
      </trkpt>
      <trkpt lat="44.47233" lon="3.73809">
        <ele>1221.49</ele>
        <time>2022-08-06T06:02:36Z</time>
      </trkpt>
      <trkpt lat="44.47221" lon="3.73807">
        <ele>1222.93</ele>
        <time>2022-08-06T06:02:51Z</time>
      </trkpt>
      <trkpt lat="44.47211" lon="3.73808">
        <ele>1222.93</ele>
        <time>2022-08-06T06:03:07Z</time>
      </trkpt>
      <trkpt lat="44.47195" lon="3.7381">
        <ele>1224.38</ele>
        <time>2022-08-06T06:03:25Z</time>
      </trkpt>
      <trkpt lat="44.47184" lon="3.73811">
        <ele>1224.38</ele>
        <time>2022-08-06T06:03:41Z</time>
      </trkpt>
      <trkpt lat="44.47168" lon="3.73814">
        <ele>1227.26</ele>
        <time>2022-08-06T06:04:01Z</time>
      </trkpt>
      <trkpt lat="44.47155" lon="3.73819">
        <ele>1231.59</ele>
        <time>2022-08-06T06:04:22Z</time>
      </trkpt>
      <trkpt lat="44.47141" lon="3.73824">
        <ele>1230.62</ele>
        <time>2022-08-06T06:04:40Z</time>
      </trkpt>
      <trkpt lat="44.47129" lon="3.73833">
        <ele>1231.59</ele>
        <time>2022-08-06T06:04:58Z</time>
      </trkpt>
      <trkpt lat="44.47118" lon="3.73841">
        <ele>1233.03</ele>
        <time>2022-08-06T06:05:15Z</time>
      </trkpt>
      <trkpt lat="44.47107" lon="3.73848">
        <ele>1234.47</ele>
        <time>2022-08-06T06:05:33Z</time>
      </trkpt>
      <trkpt lat="44.47094" lon="3.73856">
        <ele>1237.83</ele>
        <time>2022-08-06T06:05:52Z</time>
      </trkpt>
      <trkpt lat="44.4709" lon="3.73868">
        <ele>1239.28</ele>
        <time>2022-08-06T06:06:05Z</time>
      </trkpt>
      <trkpt lat="44.47086" lon="3.73886">
        <ele>1239.28</ele>
        <time>2022-08-06T06:06:20Z</time>
      </trkpt>
      <trkpt lat="44.47083" lon="3.73901">
        <ele>1236.87</ele>
        <time>2022-08-06T06:06:36Z</time>
      </trkpt>
      <trkpt lat="44.47072" lon="3.73913">
        <ele>1236.39</ele>
        <time>2022-08-06T06:06:53Z</time>
      </trkpt>
      <trkpt lat="44.47061" lon="3.73923">
        <ele>1244.56</ele>
        <time>2022-08-06T06:07:09Z</time>
      </trkpt>
      <trkpt lat="44.47052" lon="3.73939">
        <ele>1253.7</ele>
        <time>2022-08-06T06:07:24Z</time>
      </trkpt>
      <trkpt lat="44.47044" lon="3.73954">
        <ele>1253.7</ele>
        <time>2022-08-06T06:07:38Z</time>
      </trkpt>
      <trkpt lat="44.47028" lon="3.73966">
        <ele>1255.14</ele>
        <time>2022-08-06T06:07:56Z</time>
      </trkpt>
      <trkpt lat="44.47022" lon="3.73981">
        <ele>1258.5</ele>
        <time>2022-08-06T06:08:12Z</time>
      </trkpt>
      <trkpt lat="44.47014" lon="3.73998">
        <ele>1258.02</ele>
        <time>2022-08-06T06:08:27Z</time>
      </trkpt>
      <trkpt lat="44.47001" lon="3.74013">
        <ele>1257.06</ele>
        <time>2022-08-06T06:08:43Z</time>
      </trkpt>
      <trkpt lat="44.46991" lon="3.7402">
        <ele>1258.5</ele>
        <time>2022-08-06T06:08:59Z</time>
      </trkpt>
      <trkpt lat="44.46984" lon="3.74025">
        <ele>1265.71</ele>
        <time>2022-08-06T06:09:15Z</time>
      </trkpt>
      <trkpt lat="44.46969" lon="3.74036">
        <ele>1271.96</ele>
        <time>2022-08-06T06:09:34Z</time>
      </trkpt>
      <trkpt lat="44.46957" lon="3.74054">
        <ele>1275.33</ele>
        <time>2022-08-06T06:09:55Z</time>
      </trkpt>
      <trkpt lat="44.46941" lon="3.74068">
        <ele>1274.85</ele>
        <time>2022-08-06T06:10:12Z</time>
      </trkpt>
      <trkpt lat="44.46929" lon="3.74084">
        <ele>1271.96</ele>
        <time>2022-08-06T06:10:31Z</time>
      </trkpt>
      <trkpt lat="44.46919" lon="3.74097">
        <ele>1269.56</ele>
        <time>2022-08-06T06:10:47Z</time>
      </trkpt>
      <trkpt lat="44.46906" lon="3.74107">
        <ele>1266.67</ele>
        <time>2022-08-06T06:11:03Z</time>
      </trkpt>
      <trkpt lat="44.46901" lon="3.74122">
        <ele>1266.67</ele>
        <time>2022-08-06T06:11:18Z</time>
      </trkpt>
      <trkpt lat="44.46893" lon="3.74132">
        <ele>1268.12</ele>
        <time>2022-08-06T06:11:33Z</time>
      </trkpt>
      <trkpt lat="44.46879" lon="3.74141">
        <ele>1271.96</ele>
        <time>2022-08-06T06:11:48Z</time>
      </trkpt>
      <trkpt lat="44.46863" lon="3.74156">
        <ele>1270.04</ele>
        <time>2022-08-06T06:12:06Z</time>
      </trkpt>
      <trkpt lat="44.46857" lon="3.74168">
        <ele>1271</ele>
        <time>2022-08-06T06:12:19Z</time>
      </trkpt>
      <trkpt lat="44.46856" lon="3.74185">
        <ele>1274.85</ele>
        <time>2022-08-06T06:12:33Z</time>
      </trkpt>
      <trkpt lat="44.46854" lon="3.74198">
        <ele>1277.25</ele>
        <time>2022-08-06T06:12:47Z</time>
      </trkpt>
      <trkpt lat="44.46851" lon="3.74212">
        <ele>1279.17</ele>
        <time>2022-08-06T06:13:04Z</time>
      </trkpt>
      <trkpt lat="44.46845" lon="3.74229">
        <ele>1281.57</ele>
        <time>2022-08-06T06:13:23Z</time>
      </trkpt>
      <trkpt lat="44.46845" lon="3.74247">
        <ele>1284.46</ele>
        <time>2022-08-06T06:13:38Z</time>
      </trkpt>
      <trkpt lat="44.46842" lon="3.74265">
        <ele>1287.34</ele>
        <time>2022-08-06T06:13:56Z</time>
      </trkpt>
      <trkpt lat="44.46845" lon="3.74285">
        <ele>1288.3</ele>
        <time>2022-08-06T06:14:11Z</time>
      </trkpt>
      <trkpt lat="44.46853" lon="3.74315">
        <ele>1283.02</ele>
        <time>2022-08-06T06:14:29Z</time>
      </trkpt>
      <trkpt lat="44.46851" lon="3.74335">
        <ele>1282.54</ele>
        <time>2022-08-06T06:14:47Z</time>
      </trkpt>
      <trkpt lat="44.46857" lon="3.74361">
        <ele>1281.57</ele>
        <time>2022-08-06T06:15:06Z</time>
      </trkpt>
      <trkpt lat="44.46855" lon="3.74382">
        <ele>1280.61</ele>
        <time>2022-08-06T06:15:20Z</time>
      </trkpt>
      <trkpt lat="44.46856" lon="3.744">
        <ele>1282.54</ele>
        <time>2022-08-06T06:15:36Z</time>
      </trkpt>
      <trkpt lat="44.46856" lon="3.74416">
        <ele>1282.06</ele>
        <time>2022-08-06T06:15:54Z</time>
      </trkpt>
      <trkpt lat="44.4685" lon="3.74437">
        <ele>1283.02</ele>
        <time>2022-08-06T06:16:10Z</time>
      </trkpt>
      <trkpt lat="44.46844" lon="3.74455">
        <ele>1283.02</ele>
        <time>2022-08-06T06:16:27Z</time>
      </trkpt>
      <trkpt lat="44.46837" lon="3.74467">
        <ele>1284.46</ele>
        <time>2022-08-06T06:16:41Z</time>
      </trkpt>
      <trkpt lat="44.46832" lon="3.7448">
        <ele>1283.5</ele>
        <time>2022-08-06T06:16:57Z</time>
      </trkpt>
      <trkpt lat="44.46823" lon="3.74492">
        <ele>1285.42</ele>
        <time>2022-08-06T06:17:13Z</time>
      </trkpt>
      <trkpt lat="44.46814" lon="3.74502">
        <ele>1285.42</ele>
        <time>2022-08-06T06:17:30Z</time>
      </trkpt>
      <trkpt lat="44.46807" lon="3.74513">
        <ele>1287.34</ele>
        <time>2022-08-06T06:17:45Z</time>
      </trkpt>
      <trkpt lat="44.46797" lon="3.74525">
        <ele>1290.71</ele>
        <time>2022-08-06T06:18:01Z</time>
      </trkpt>
      <trkpt lat="44.46788" lon="3.74531">
        <ele>1295.51</ele>
        <time>2022-08-06T06:18:17Z</time>
      </trkpt>
      <trkpt lat="44.46781" lon="3.74537">
        <ele>1300.8</ele>
        <time>2022-08-06T06:18:31Z</time>
      </trkpt>
      <trkpt lat="44.46775" lon="3.74546">
        <ele>1304.65</ele>
        <time>2022-08-06T06:18:47Z</time>
      </trkpt>
      <trkpt lat="44.46765" lon="3.74551">
        <ele>1307.05</ele>
        <time>2022-08-06T06:19:00Z</time>
      </trkpt>
      <trkpt lat="44.46759" lon="3.74557">
        <ele>1309.93</ele>
        <time>2022-08-06T06:19:12Z</time>
      </trkpt>
      <trkpt lat="44.4675" lon="3.74563">
        <ele>1311.38</ele>
        <time>2022-08-06T06:19:24Z</time>
      </trkpt>
      <trkpt lat="44.46741" lon="3.74575">
        <ele>1311.38</ele>
        <time>2022-08-06T06:19:41Z</time>
      </trkpt>
      <trkpt lat="44.46731" lon="3.74585">
        <ele>1315.22</ele>
        <time>2022-08-06T06:19:57Z</time>
      </trkpt>
      <trkpt lat="44.46722" lon="3.74598">
        <ele>1315.7</ele>
        <time>2022-08-06T06:20:14Z</time>
      </trkpt>
      <trkpt lat="44.46717" lon="3.74608">
        <ele>1313.3</ele>
        <time>2022-08-06T06:20:27Z</time>
      </trkpt>
      <trkpt lat="44.46708" lon="3.74611">
        <ele>1313.78</ele>
        <time>2022-08-06T06:20:45Z</time>
      </trkpt>
      <trkpt lat="44.467" lon="3.74616">
        <ele>1317.14</ele>
        <time>2022-08-06T06:21:00Z</time>
      </trkpt>
      <trkpt lat="44.46693" lon="3.74623">
        <ele>1321.95</ele>
        <time>2022-08-06T06:21:17Z</time>
      </trkpt>
      <trkpt lat="44.46684" lon="3.74633">
        <ele>1326.76</ele>
        <time>2022-08-06T06:21:33Z</time>
      </trkpt>
      <trkpt lat="44.46673" lon="3.74636">
        <ele>1329.64</ele>
        <time>2022-08-06T06:21:49Z</time>
      </trkpt>
      <trkpt lat="44.46662" lon="3.74642">
        <ele>1332.52</ele>
        <time>2022-08-06T06:22:05Z</time>
      </trkpt>
      <trkpt lat="44.46648" lon="3.74644">
        <ele>1336.37</ele>
        <time>2022-08-06T06:22:23Z</time>
      </trkpt>
      <trkpt lat="44.46638" lon="3.74648">
        <ele>1339.73</ele>
        <time>2022-08-06T06:22:40Z</time>
      </trkpt>
      <trkpt lat="44.4662" lon="3.74649">
        <ele>1343.1</ele>
        <time>2022-08-06T06:22:59Z</time>
      </trkpt>
      <trkpt lat="44.46608" lon="3.74661">
        <ele>1339.73</ele>
        <time>2022-08-06T06:23:14Z</time>
      </trkpt>
      <trkpt lat="44.46606" lon="3.74661">
        <ele>1337.81</ele>
        <time>2022-08-06T06:23:32Z</time>
      </trkpt>
      <trkpt lat="44.46592" lon="3.74658">
        <ele>1341.18</ele>
        <time>2022-08-06T06:23:49Z</time>
      </trkpt>
      <trkpt lat="44.46573" lon="3.74665">
        <ele>1339.25</ele>
        <time>2022-08-06T06:24:03Z</time>
      </trkpt>
      <trkpt lat="44.46557" lon="3.74672">
        <ele>1338.29</ele>
        <time>2022-08-06T06:24:19Z</time>
      </trkpt>
      <trkpt lat="44.46548" lon="3.74684">
        <ele>1336.37</ele>
        <time>2022-08-06T06:24:36Z</time>
      </trkpt>
      <trkpt lat="44.46543" lon="3.74696">
        <ele>1334.45</ele>
        <time>2022-08-06T06:24:51Z</time>
      </trkpt>
      <trkpt lat="44.46535" lon="3.74709">
        <ele>1333.97</ele>
        <time>2022-08-06T06:25:07Z</time>
      </trkpt>
      <trkpt lat="44.46524" lon="3.74718">
        <ele>1334.45</ele>
        <time>2022-08-06T06:25:20Z</time>
      </trkpt>
      <trkpt lat="44.46517" lon="3.74727">
        <ele>1334.45</ele>
        <time>2022-08-06T06:25:31Z</time>
      </trkpt>
      <trkpt lat="44.46506" lon="3.74735">
        <ele>1336.85</ele>
        <time>2022-08-06T06:25:45Z</time>
      </trkpt>
      <trkpt lat="44.46496" lon="3.74743">
        <ele>1338.29</ele>
        <time>2022-08-06T06:26:00Z</time>
      </trkpt>
      <trkpt lat="44.46488" lon="3.74752">
        <ele>1338.77</ele>
        <time>2022-08-06T06:26:14Z</time>
      </trkpt>
      <trkpt lat="44.46479" lon="3.7476">
        <ele>1339.73</ele>
        <time>2022-08-06T06:26:29Z</time>
      </trkpt>
      <trkpt lat="44.46471" lon="3.74768">
        <ele>1342.14</ele>
        <time>2022-08-06T06:26:43Z</time>
      </trkpt>
      <trkpt lat="44.46459" lon="3.74773">
        <ele>1345.5</ele>
        <time>2022-08-06T06:26:59Z</time>
      </trkpt>
      <trkpt lat="44.46452" lon="3.74779">
        <ele>1348.39</ele>
        <time>2022-08-06T06:27:13Z</time>
      </trkpt>
      <trkpt lat="44.46448" lon="3.74782">
        <ele>1351.27</ele>
        <time>2022-08-06T06:27:25Z</time>
      </trkpt>
      <trkpt lat="44.4644" lon="3.74785">
        <ele>1354.15</ele>
        <time>2022-08-06T06:27:39Z</time>
      </trkpt>
      <trkpt lat="44.46433" lon="3.74791">
        <ele>1356.08</ele>
        <time>2022-08-06T06:27:55Z</time>
      </trkpt>
      <trkpt lat="44.46421" lon="3.748">
        <ele>1356.08</ele>
        <time>2022-08-06T06:28:12Z</time>
      </trkpt>
      <trkpt lat="44.4641" lon="3.74808">
        <ele>1357.52</ele>
        <time>2022-08-06T06:28:26Z</time>
      </trkpt>
      <trkpt lat="44.46403" lon="3.74816">
        <ele>1359.44</ele>
        <time>2022-08-06T06:28:42Z</time>
      </trkpt>
      <trkpt lat="44.46394" lon="3.74819">
        <ele>1364.25</ele>
        <time>2022-08-06T06:28:59Z</time>
      </trkpt>
      <trkpt lat="44.46386" lon="3.74823">
        <ele>1367.13</ele>
        <time>2022-08-06T06:29:14Z</time>
      </trkpt>
      <trkpt lat="44.46379" lon="3.74825">
        <ele>1370.02</ele>
        <time>2022-08-06T06:29:30Z</time>
      </trkpt>
      <trkpt lat="44.46372" lon="3.74828">
        <ele>1371.94</ele>
        <time>2022-08-06T06:29:46Z</time>
      </trkpt>
      <trkpt lat="44.46366" lon="3.74827">
        <ele>1374.82</ele>
        <time>2022-08-06T06:30:01Z</time>
      </trkpt>
      <trkpt lat="44.46359" lon="3.74826">
        <ele>1375.3</ele>
        <time>2022-08-06T06:30:16Z</time>
      </trkpt>
      <trkpt lat="44.46349" lon="3.74828">
        <ele>1376.26</ele>
        <time>2022-08-06T06:30:34Z</time>
      </trkpt>
      <trkpt lat="44.4634" lon="3.74827">
        <ele>1376.75</ele>
        <time>2022-08-06T06:30:49Z</time>
      </trkpt>
      <trkpt lat="44.46326" lon="3.74832">
        <ele>1379.15</ele>
        <time>2022-08-06T06:31:05Z</time>
      </trkpt>
      <trkpt lat="44.46312" lon="3.7483">
        <ele>1379.63</ele>
        <time>2022-08-06T06:31:22Z</time>
      </trkpt>
      <trkpt lat="44.463" lon="3.74823">
        <ele>1379.63</ele>
        <time>2022-08-06T06:31:40Z</time>
      </trkpt>
      <trkpt lat="44.46292" lon="3.74818">
        <ele>1379.63</ele>
        <time>2022-08-06T06:31:53Z</time>
      </trkpt>
      <trkpt lat="44.46282" lon="3.74817">
        <ele>1383.96</ele>
        <time>2022-08-06T06:32:09Z</time>
      </trkpt>
      <trkpt lat="44.46271" lon="3.74816">
        <ele>1387.32</ele>
        <time>2022-08-06T06:32:23Z</time>
      </trkpt>
      <trkpt lat="44.46258" lon="3.74814">
        <ele>1389.24</ele>
        <time>2022-08-06T06:32:40Z</time>
      </trkpt>
      <trkpt lat="44.46246" lon="3.74811">
        <ele>1390.2</ele>
        <time>2022-08-06T06:32:57Z</time>
      </trkpt>
      <trkpt lat="44.46236" lon="3.74807">
        <ele>1390.2</ele>
        <time>2022-08-06T06:33:12Z</time>
      </trkpt>
      <trkpt lat="44.46224" lon="3.74803">
        <ele>1390.68</ele>
        <time>2022-08-06T06:33:30Z</time>
      </trkpt>
      <trkpt lat="44.46215" lon="3.74799">
        <ele>1391.17</ele>
        <time>2022-08-06T06:33:42Z</time>
      </trkpt>
      <trkpt lat="44.46202" lon="3.74797">
        <ele>1391.65</ele>
        <time>2022-08-06T06:33:59Z</time>
      </trkpt>
      <trkpt lat="44.46186" lon="3.74791">
        <ele>1391.17</ele>
        <time>2022-08-06T06:34:21Z</time>
      </trkpt>
      <trkpt lat="44.4617" lon="3.74789">
        <ele>1395.97</ele>
        <time>2022-08-06T06:34:38Z</time>
      </trkpt>
      <trkpt lat="44.46157" lon="3.74787">
        <ele>1399.82</ele>
        <time>2022-08-06T06:34:53Z</time>
      </trkpt>
      <trkpt lat="44.46142" lon="3.74786">
        <ele>1404.14</ele>
        <time>2022-08-06T06:35:09Z</time>
      </trkpt>
      <trkpt lat="44.46129" lon="3.74789">
        <ele>1405.58</ele>
        <time>2022-08-06T06:35:23Z</time>
      </trkpt>
      <trkpt lat="44.46118" lon="3.74796">
        <ele>1405.58</ele>
        <time>2022-08-06T06:35:37Z</time>
      </trkpt>
      <trkpt lat="44.46106" lon="3.74797">
        <ele>1407.03</ele>
        <time>2022-08-06T06:35:51Z</time>
      </trkpt>
      <trkpt lat="44.46094" lon="3.74799">
        <ele>1407.03</ele>
        <time>2022-08-06T06:36:05Z</time>
      </trkpt>
      <trkpt lat="44.46081" lon="3.74804">
        <ele>1407.51</ele>
        <time>2022-08-06T06:36:20Z</time>
      </trkpt>
      <trkpt lat="44.46067" lon="3.74809">
        <ele>1407.99</ele>
        <time>2022-08-06T06:36:35Z</time>
      </trkpt>
      <trkpt lat="44.46051" lon="3.74816">
        <ele>1408.47</ele>
        <time>2022-08-06T06:36:52Z</time>
      </trkpt>
      <trkpt lat="44.46045" lon="3.74816">
        <ele>1408.95</ele>
        <time>2022-08-06T06:36:59Z</time>
      </trkpt>
      <trkpt lat="44.46034" lon="3.74816">
        <ele>1409.91</ele>
        <time>2022-08-06T06:37:10Z</time>
      </trkpt>
      <trkpt lat="44.46027" lon="3.74821">
        <ele>1410.87</ele>
        <time>2022-08-06T06:37:17Z</time>
      </trkpt>
      <trkpt lat="44.46009" lon="3.74826">
        <ele>1411.83</ele>
        <time>2022-08-06T06:37:34Z</time>
      </trkpt>
      <trkpt lat="44.45995" lon="3.74833">
        <ele>1412.31</ele>
        <time>2022-08-06T06:37:50Z</time>
      </trkpt>
      <trkpt lat="44.45994" lon="3.74834">
        <ele>1412.31</ele>
        <time>2022-08-06T06:37:51Z</time>
      </trkpt>
      <trkpt lat="44.4598" lon="3.7484">
        <ele>1409.43</ele>
        <time>2022-08-06T06:38:07Z</time>
      </trkpt>
      <trkpt lat="44.45965" lon="3.7484">
        <ele>1408.47</ele>
        <time>2022-08-06T06:38:22Z</time>
      </trkpt>
      <trkpt lat="44.45963" lon="3.74841">
        <ele>1407.99</ele>
        <time>2022-08-06T06:38:24Z</time>
      </trkpt>
      <trkpt lat="44.45953" lon="3.74843">
        <ele>1410.39</ele>
        <time>2022-08-06T06:38:36Z</time>
      </trkpt>
      <trkpt lat="44.45933" lon="3.74846">
        <ele>1410.39</ele>
        <time>2022-08-06T06:38:54Z</time>
      </trkpt>
      <trkpt lat="44.45931" lon="3.74847">
        <ele>1409.91</ele>
        <time>2022-08-06T06:38:56Z</time>
      </trkpt>
      <trkpt lat="44.45916" lon="3.74853">
        <ele>1409.43</ele>
        <time>2022-08-06T06:39:11Z</time>
      </trkpt>
      <trkpt lat="44.45901" lon="3.7486">
        <ele>1407.51</ele>
        <time>2022-08-06T06:39:26Z</time>
      </trkpt>
      <trkpt lat="44.45894" lon="3.74863">
        <ele>1406.55</ele>
        <time>2022-08-06T06:39:33Z</time>
      </trkpt>
      <trkpt lat="44.45877" lon="3.74867">
        <ele>1404.14</ele>
        <time>2022-08-06T06:39:51Z</time>
      </trkpt>
      <trkpt lat="44.45875" lon="3.74865">
        <ele>1404.14</ele>
        <time>2022-08-06T06:40:05Z</time>
      </trkpt>
      <trkpt lat="44.45874" lon="3.74868">
        <ele>1403.66</ele>
        <time>2022-08-06T06:40:18Z</time>
      </trkpt>
      <trkpt lat="44.45858" lon="3.74873">
        <ele>1406.55</ele>
        <time>2022-08-06T06:40:33Z</time>
      </trkpt>
      <trkpt lat="44.45847" lon="3.74875">
        <ele>1407.03</ele>
        <time>2022-08-06T06:40:47Z</time>
      </trkpt>
      <trkpt lat="44.45832" lon="3.74881">
        <ele>1407.99</ele>
        <time>2022-08-06T06:41:01Z</time>
      </trkpt>
      <trkpt lat="44.45814" lon="3.7489">
        <ele>1407.51</ele>
        <time>2022-08-06T06:41:18Z</time>
      </trkpt>
      <trkpt lat="44.45798" lon="3.74898">
        <ele>1407.99</ele>
        <time>2022-08-06T06:41:33Z</time>
      </trkpt>
      <trkpt lat="44.45781" lon="3.74905">
        <ele>1408.47</ele>
        <time>2022-08-06T06:41:49Z</time>
      </trkpt>
      <trkpt lat="44.45764" lon="3.74913">
        <ele>1407.99</ele>
        <time>2022-08-06T06:42:06Z</time>
      </trkpt>
      <trkpt lat="44.45747" lon="3.74921">
        <ele>1408.95</ele>
        <time>2022-08-06T06:42:22Z</time>
      </trkpt>
      <trkpt lat="44.4573" lon="3.74929">
        <ele>1407.99</ele>
        <time>2022-08-06T06:42:39Z</time>
      </trkpt>
      <trkpt lat="44.45716" lon="3.74936">
        <ele>1407.51</ele>
        <time>2022-08-06T06:42:53Z</time>
      </trkpt>
      <trkpt lat="44.45701" lon="3.74946">
        <ele>1406.55</ele>
        <time>2022-08-06T06:43:09Z</time>
      </trkpt>
      <trkpt lat="44.45682" lon="3.74951">
        <ele>1406.07</ele>
        <time>2022-08-06T06:43:27Z</time>
      </trkpt>
      <trkpt lat="44.4568" lon="3.74949">
        <ele>1406.07</ele>
        <time>2022-08-06T06:43:30Z</time>
      </trkpt>
      <trkpt lat="44.45661" lon="3.74945">
        <ele>1406.55</ele>
        <time>2022-08-06T06:43:49Z</time>
      </trkpt>
      <trkpt lat="44.45644" lon="3.74943">
        <ele>1407.03</ele>
        <time>2022-08-06T06:44:05Z</time>
      </trkpt>
      <trkpt lat="44.45632" lon="3.74946">
        <ele>1406.55</ele>
        <time>2022-08-06T06:44:17Z</time>
      </trkpt>
      <trkpt lat="44.45615" lon="3.74946">
        <ele>1407.51</ele>
        <time>2022-08-06T06:44:33Z</time>
      </trkpt>
      <trkpt lat="44.45597" lon="3.74944">
        <ele>1408.95</ele>
        <time>2022-08-06T06:44:50Z</time>
      </trkpt>
      <trkpt lat="44.45581" lon="3.74944">
        <ele>1409.91</ele>
        <time>2022-08-06T06:45:07Z</time>
      </trkpt>
      <trkpt lat="44.45563" lon="3.74943">
        <ele>1409.43</ele>
        <time>2022-08-06T06:45:25Z</time>
      </trkpt>
      <trkpt lat="44.45544" lon="3.7494">
        <ele>1410.87</ele>
        <time>2022-08-06T06:45:44Z</time>
      </trkpt>
      <trkpt lat="44.45525" lon="3.7494">
        <ele>1411.35</ele>
        <time>2022-08-06T06:46:03Z</time>
      </trkpt>
      <trkpt lat="44.45507" lon="3.74938">
        <ele>1411.35</ele>
        <time>2022-08-06T06:46:22Z</time>
      </trkpt>
      <trkpt lat="44.45488" lon="3.74935">
        <ele>1412.79</ele>
        <time>2022-08-06T06:46:41Z</time>
      </trkpt>
      <trkpt lat="44.45477" lon="3.74931">
        <ele>1412.79</ele>
        <time>2022-08-06T06:46:56Z</time>
      </trkpt>
      <trkpt lat="44.45468" lon="3.74931">
        <ele>1412.79</ele>
        <time>2022-08-06T06:47:06Z</time>
      </trkpt>
      <trkpt lat="44.45466" lon="3.74932">
        <ele>1412.79</ele>
        <time>2022-08-06T06:47:08Z</time>
      </trkpt>
      <trkpt lat="44.45448" lon="3.74928">
        <ele>1412.79</ele>
        <time>2022-08-06T06:47:25Z</time>
      </trkpt>
      <trkpt lat="44.45428" lon="3.74927">
        <ele>1414.24</ele>
        <time>2022-08-06T06:47:44Z</time>
      </trkpt>
      <trkpt lat="44.45413" lon="3.74924">
        <ele>1415.2</ele>
        <time>2022-08-06T06:48:00Z</time>
      </trkpt>
      <trkpt lat="44.45397" lon="3.74919">
        <ele>1416.64</ele>
        <time>2022-08-06T06:48:16Z</time>
      </trkpt>
      <trkpt lat="44.45383" lon="3.74919">
        <ele>1417.12</ele>
        <time>2022-08-06T06:48:32Z</time>
      </trkpt>
      <trkpt lat="44.45379" lon="3.74917">
        <ele>1417.12</ele>
        <time>2022-08-06T06:48:36Z</time>
      </trkpt>
      <trkpt lat="44.45363" lon="3.74907">
        <ele>1417.6</ele>
        <time>2022-08-06T06:48:52Z</time>
      </trkpt>
      <trkpt lat="44.45352" lon="3.749">
        <ele>1417.6</ele>
        <time>2022-08-06T06:49:07Z</time>
      </trkpt>
      <trkpt lat="44.45341" lon="3.74893">
        <ele>1419.52</ele>
        <time>2022-08-06T06:49:20Z</time>
      </trkpt>
      <trkpt lat="44.45344" lon="3.74896">
        <ele>1420</ele>
        <time>2022-08-06T06:49:31Z</time>
      </trkpt>
      <trkpt lat="44.45338" lon="3.74894">
        <ele>1419.52</ele>
        <time>2022-08-06T06:49:41Z</time>
      </trkpt>
      <trkpt lat="44.45337" lon="3.74891">
        <ele>1419.04</ele>
        <time>2022-08-06T06:50:04Z</time>
      </trkpt>
      <trkpt lat="44.4533" lon="3.74888">
        <ele>1418.56</ele>
        <time>2022-08-06T06:50:28Z</time>
      </trkpt>
      <trkpt lat="44.45322" lon="3.74885">
        <ele>1418.56</ele>
        <time>2022-08-06T06:50:35Z</time>
      </trkpt>
      <trkpt lat="44.45304" lon="3.74875">
        <ele>1419.04</ele>
        <time>2022-08-06T06:50:51Z</time>
      </trkpt>
      <trkpt lat="44.45295" lon="3.74866">
        <ele>1420.97</ele>
        <time>2022-08-06T06:51:04Z</time>
      </trkpt>
      <trkpt lat="44.45291" lon="3.74861">
        <ele>1421.45</ele>
        <time>2022-08-06T06:51:12Z</time>
      </trkpt>
      <trkpt lat="44.4529" lon="3.74859">
        <ele>1421.45</ele>
        <time>2022-08-06T06:51:14Z</time>
      </trkpt>
      <trkpt lat="44.45273" lon="3.74851">
        <ele>1420.97</ele>
        <time>2022-08-06T06:51:30Z</time>
      </trkpt>
      <trkpt lat="44.45268" lon="3.74849">
        <ele>1420.49</ele>
        <time>2022-08-06T06:51:36Z</time>
      </trkpt>
      <trkpt lat="44.45254" lon="3.74845">
        <ele>1420</ele>
        <time>2022-08-06T06:51:50Z</time>
      </trkpt>
      <trkpt lat="44.45252" lon="3.74844">
        <ele>1419.52</ele>
        <time>2022-08-06T06:51:52Z</time>
      </trkpt>
      <trkpt lat="44.45241" lon="3.74832">
        <ele>1418.08</ele>
        <time>2022-08-06T06:52:06Z</time>
      </trkpt>
      <trkpt lat="44.45239" lon="3.74829">
        <ele>1417.6</ele>
        <time>2022-08-06T06:52:09Z</time>
      </trkpt>
      <trkpt lat="44.4523" lon="3.74822">
        <ele>1417.6</ele>
        <time>2022-08-06T06:52:19Z</time>
      </trkpt>
      <trkpt lat="44.45222" lon="3.7482">
        <ele>1417.6</ele>
        <time>2022-08-06T06:52:27Z</time>
      </trkpt>
      <trkpt lat="44.45216" lon="3.74818">
        <ele>1418.08</ele>
        <time>2022-08-06T06:52:32Z</time>
      </trkpt>
      <trkpt lat="44.45201" lon="3.74809">
        <ele>1417.12</ele>
        <time>2022-08-06T06:52:48Z</time>
      </trkpt>
      <trkpt lat="44.45183" lon="3.74802">
        <ele>1418.08</ele>
        <time>2022-08-06T06:53:06Z</time>
      </trkpt>
      <trkpt lat="44.45175" lon="3.74805">
        <ele>1418.56</ele>
        <time>2022-08-06T06:53:20Z</time>
      </trkpt>
      <trkpt lat="44.45174" lon="3.74803">
        <ele>1418.56</ele>
        <time>2022-08-06T06:53:21Z</time>
      </trkpt>
      <trkpt lat="44.45161" lon="3.74795">
        <ele>1418.56</ele>
        <time>2022-08-06T06:53:35Z</time>
      </trkpt>
      <trkpt lat="44.45145" lon="3.74795">
        <ele>1418.08</ele>
        <time>2022-08-06T06:53:53Z</time>
      </trkpt>
      <trkpt lat="44.45145" lon="3.74796">
        <ele>1418.56</ele>
        <time>2022-08-06T06:53:54Z</time>
      </trkpt>
      <trkpt lat="44.45136" lon="3.74812">
        <ele>1416.64</ele>
        <time>2022-08-06T06:54:10Z</time>
      </trkpt>
      <trkpt lat="44.45138" lon="3.74814">
        <ele>1417.12</ele>
        <time>2022-08-06T06:54:28Z</time>
      </trkpt>
      <trkpt lat="44.4514" lon="3.74815">
        <ele>1420</ele>
        <time>2022-08-06T06:55:00Z</time>
      </trkpt>
      <trkpt lat="44.45139" lon="3.74815">
        <ele>1420.49</ele>
        <time>2022-08-06T06:55:28Z</time>
      </trkpt>
      <trkpt lat="44.45138" lon="3.74815">
        <ele>1420.97</ele>
        <time>2022-08-06T06:56:01Z</time>
      </trkpt>
      <trkpt lat="44.45138" lon="3.74815">
        <ele>1420.49</ele>
        <time>2022-08-06T06:56:30Z</time>
      </trkpt>
      <trkpt lat="44.45138" lon="3.74815">
        <ele>1419.04</ele>
        <time>2022-08-06T06:56:54Z</time>
      </trkpt>
      <trkpt lat="44.45137" lon="3.74815">
        <ele>1421.45</ele>
        <time>2022-08-06T06:57:20Z</time>
      </trkpt>
      <trkpt lat="44.45139" lon="3.74815">
        <ele>1421.93</ele>
        <time>2022-08-06T06:57:49Z</time>
      </trkpt>
      <trkpt lat="44.45138" lon="3.74814">
        <ele>1421.45</ele>
        <time>2022-08-06T06:58:20Z</time>
      </trkpt>
      <trkpt lat="44.45137" lon="3.74813">
        <ele>1420.97</ele>
        <time>2022-08-06T06:58:45Z</time>
      </trkpt>
      <trkpt lat="44.45135" lon="3.74817">
        <ele>1417.12</ele>
        <time>2022-08-06T06:59:11Z</time>
      </trkpt>
      <trkpt lat="44.45134" lon="3.74817">
        <ele>1415.68</ele>
        <time>2022-08-06T06:59:40Z</time>
      </trkpt>
      <trkpt lat="44.45136" lon="3.74816">
        <ele>1412.31</ele>
        <time>2022-08-06T07:00:08Z</time>
      </trkpt>
      <trkpt lat="44.45138" lon="3.74817">
        <ele>1412.79</ele>
        <time>2022-08-06T07:00:38Z</time>
      </trkpt>
      <trkpt lat="44.45138" lon="3.74818">
        <ele>1413.76</ele>
        <time>2022-08-06T07:01:02Z</time>
      </trkpt>
      <trkpt lat="44.45138" lon="3.74819">
        <ele>1414.24</ele>
        <time>2022-08-06T07:01:26Z</time>
      </trkpt>
      <trkpt lat="44.45138" lon="3.74819">
        <ele>1414.24</ele>
        <time>2022-08-06T07:01:52Z</time>
      </trkpt>
      <trkpt lat="44.45135" lon="3.74817">
        <ele>1415.2</ele>
        <time>2022-08-06T07:02:21Z</time>
      </trkpt>
      <trkpt lat="44.45137" lon="3.74817">
        <ele>1415.2</ele>
        <time>2022-08-06T07:02:48Z</time>
      </trkpt>
      <trkpt lat="44.45136" lon="3.74817">
        <ele>1413.76</ele>
        <time>2022-08-06T07:03:12Z</time>
      </trkpt>
      <trkpt lat="44.45136" lon="3.74816">
        <ele>1414.24</ele>
        <time>2022-08-06T07:03:39Z</time>
      </trkpt>
      <trkpt lat="44.45136" lon="3.74815">
        <ele>1414.24</ele>
        <time>2022-08-06T07:04:04Z</time>
      </trkpt>
      <trkpt lat="44.45137" lon="3.74815">
        <ele>1412.79</ele>
        <time>2022-08-06T07:04:33Z</time>
      </trkpt>
      <trkpt lat="44.45136" lon="3.74814">
        <ele>1412.79</ele>
        <time>2022-08-06T07:05:05Z</time>
      </trkpt>
      <trkpt lat="44.45135" lon="3.74814">
        <ele>1412.79</ele>
        <time>2022-08-06T07:05:33Z</time>
      </trkpt>
      <trkpt lat="44.45135" lon="3.74814">
        <ele>1412.31</ele>
        <time>2022-08-06T07:06:00Z</time>
      </trkpt>
      <trkpt lat="44.45134" lon="3.74815">
        <ele>1411.35</ele>
        <time>2022-08-06T07:06:31Z</time>
      </trkpt>
      <trkpt lat="44.45135" lon="3.74814">
        <ele>1412.31</ele>
        <time>2022-08-06T07:07:02Z</time>
      </trkpt>
      <trkpt lat="44.45135" lon="3.74813">
        <ele>1413.28</ele>
        <time>2022-08-06T07:07:40Z</time>
      </trkpt>
      <trkpt lat="44.45135" lon="3.74814">
        <ele>1416.16</ele>
        <time>2022-08-06T07:08:07Z</time>
      </trkpt>
      <trkpt lat="44.45137" lon="3.74817">
        <ele>1415.68</ele>
        <time>2022-08-06T07:08:37Z</time>
      </trkpt>
      <trkpt lat="44.45137" lon="3.74818">
        <ele>1415.2</ele>
        <time>2022-08-06T07:09:08Z</time>
      </trkpt>
      <trkpt lat="44.45136" lon="3.74816">
        <ele>1415.2</ele>
        <time>2022-08-06T07:09:46Z</time>
      </trkpt>
      <trkpt lat="44.45136" lon="3.74815">
        <ele>1415.2</ele>
        <time>2022-08-06T07:10:18Z</time>
      </trkpt>
      <trkpt lat="44.45136" lon="3.74815">
        <ele>1416.16</ele>
        <time>2022-08-06T07:10:48Z</time>
      </trkpt>
      <trkpt lat="44.45136" lon="3.74814">
        <ele>1415.68</ele>
        <time>2022-08-06T07:11:15Z</time>
      </trkpt>
      <trkpt lat="44.45137" lon="3.74814">
        <ele>1417.12</ele>
        <time>2022-08-06T07:11:45Z</time>
      </trkpt>
      <trkpt lat="44.45137" lon="3.74815">
        <ele>1418.08</ele>
        <time>2022-08-06T07:12:23Z</time>
      </trkpt>
      <trkpt lat="44.45135" lon="3.74816">
        <ele>1417.12</ele>
        <time>2022-08-06T07:13:03Z</time>
      </trkpt>
      <trkpt lat="44.45136" lon="3.74815">
        <ele>1417.12</ele>
        <time>2022-08-06T07:13:34Z</time>
      </trkpt>
      <trkpt lat="44.45138" lon="3.74815">
        <ele>1418.08</ele>
        <time>2022-08-06T07:14:01Z</time>
      </trkpt>
      <trkpt lat="44.45135" lon="3.74815">
        <ele>1418.08</ele>
        <time>2022-08-06T07:14:29Z</time>
      </trkpt>
      <trkpt lat="44.45137" lon="3.74815">
        <ele>1418.56</ele>
        <time>2022-08-06T07:15:00Z</time>
      </trkpt>
      <trkpt lat="44.45137" lon="3.74815">
        <ele>1417.6</ele>
        <time>2022-08-06T07:15:35Z</time>
      </trkpt>
      <trkpt lat="44.45139" lon="3.74814">
        <ele>1418.08</ele>
        <time>2022-08-06T07:16:09Z</time>
      </trkpt>
      <trkpt lat="44.4514" lon="3.74814">
        <ele>1417.12</ele>
        <time>2022-08-06T07:16:34Z</time>
      </trkpt>
      <trkpt lat="44.45139" lon="3.74814">
        <ele>1416.64</ele>
        <time>2022-08-06T07:17:01Z</time>
      </trkpt>
      <trkpt lat="44.45139" lon="3.74815">
        <ele>1417.12</ele>
        <time>2022-08-06T07:17:28Z</time>
      </trkpt>
      <trkpt lat="44.45136" lon="3.74817">
        <ele>1416.16</ele>
        <time>2022-08-06T07:18:09Z</time>
      </trkpt>
      <trkpt lat="44.45136" lon="3.74815">
        <ele>1415.68</ele>
        <time>2022-08-06T07:18:42Z</time>
      </trkpt>
      <trkpt lat="44.45139" lon="3.74815">
        <ele>1418.08</ele>
        <time>2022-08-06T07:19:16Z</time>
      </trkpt>
      <trkpt lat="44.45137" lon="3.74816">
        <ele>1418.08</ele>
        <time>2022-08-06T07:19:46Z</time>
      </trkpt>
      <trkpt lat="44.45137" lon="3.74816">
        <ele>1418.08</ele>
        <time>2022-08-06T07:20:12Z</time>
      </trkpt>
      <trkpt lat="44.45138" lon="3.74816">
        <ele>1420</ele>
        <time>2022-08-06T07:20:44Z</time>
      </trkpt>
      <trkpt lat="44.45139" lon="3.74813">
        <ele>1417.12</ele>
        <time>2022-08-06T07:20:53Z</time>
      </trkpt>
      <trkpt lat="44.4514" lon="3.74811">
        <ele>1419.04</ele>
        <time>2022-08-06T07:21:06Z</time>
      </trkpt>
      <trkpt lat="44.45141" lon="3.74808">
        <ele>1417.6</ele>
        <time>2022-08-06T07:21:24Z</time>
      </trkpt>
      <trkpt lat="44.45138" lon="3.74803">
        <ele>1418.56</ele>
        <time>2022-08-06T07:21:54Z</time>
      </trkpt>
      <trkpt lat="44.45133" lon="3.74798">
        <ele>1417.12</ele>
        <time>2022-08-06T07:22:15Z</time>
      </trkpt>
      <trkpt lat="44.45129" lon="3.74796">
        <ele>1417.12</ele>
        <time>2022-08-06T07:22:19Z</time>
      </trkpt>
      <trkpt lat="44.45114" lon="3.74787">
        <ele>1414.72</ele>
        <time>2022-08-06T07:22:34Z</time>
      </trkpt>
      <trkpt lat="44.45101" lon="3.74786">
        <ele>1413.76</ele>
        <time>2022-08-06T07:22:48Z</time>
      </trkpt>
      <trkpt lat="44.45085" lon="3.74784">
        <ele>1415.2</ele>
        <time>2022-08-06T07:23:04Z</time>
      </trkpt>
      <trkpt lat="44.45082" lon="3.74783">
        <ele>1415.2</ele>
        <time>2022-08-06T07:23:07Z</time>
      </trkpt>
      <trkpt lat="44.45069" lon="3.74781">
        <ele>1416.16</ele>
        <time>2022-08-06T07:23:20Z</time>
      </trkpt>
      <trkpt lat="44.45063" lon="3.7478">
        <ele>1416.16</ele>
        <time>2022-08-06T07:23:26Z</time>
      </trkpt>
      <trkpt lat="44.45047" lon="3.74774">
        <ele>1417.12</ele>
        <time>2022-08-06T07:23:40Z</time>
      </trkpt>
      <trkpt lat="44.45038" lon="3.74769">
        <ele>1417.6</ele>
        <time>2022-08-06T07:23:52Z</time>
      </trkpt>
      <trkpt lat="44.45036" lon="3.74765">
        <ele>1418.56</ele>
        <time>2022-08-06T07:23:57Z</time>
      </trkpt>
      <trkpt lat="44.45028" lon="3.7476">
        <ele>1420</ele>
        <time>2022-08-06T07:24:07Z</time>
      </trkpt>
      <trkpt lat="44.45014" lon="3.7476">
        <ele>1420.49</ele>
        <time>2022-08-06T07:24:23Z</time>
      </trkpt>
      <trkpt lat="44.45013" lon="3.7476">
        <ele>1420.97</ele>
        <time>2022-08-06T07:24:38Z</time>
      </trkpt>
      <trkpt lat="44.45017" lon="3.74756">
        <ele>1421.93</ele>
        <time>2022-08-06T07:24:56Z</time>
      </trkpt>
      <trkpt lat="44.45027" lon="3.7475">
        <ele>1421.45</ele>
        <time>2022-08-06T07:25:10Z</time>
      </trkpt>
      <trkpt lat="44.45028" lon="3.7474">
        <ele>1419.52</ele>
        <time>2022-08-06T07:25:19Z</time>
      </trkpt>
      <trkpt lat="44.45025" lon="3.74733">
        <ele>1419.04</ele>
        <time>2022-08-06T07:25:24Z</time>
      </trkpt>
      <trkpt lat="44.45016" lon="3.74725">
        <ele>1419.52</ele>
        <time>2022-08-06T07:25:36Z</time>
      </trkpt>
      <trkpt lat="44.45003" lon="3.74716">
        <ele>1420.49</ele>
        <time>2022-08-06T07:25:52Z</time>
      </trkpt>
      <trkpt lat="44.44992" lon="3.74709">
        <ele>1422.41</ele>
        <time>2022-08-06T07:26:06Z</time>
      </trkpt>
      <trkpt lat="44.44985" lon="3.74708">
        <ele>1422.89</ele>
        <time>2022-08-06T07:26:15Z</time>
      </trkpt>
      <trkpt lat="44.44969" lon="3.74704">
        <ele>1423.37</ele>
        <time>2022-08-06T07:26:33Z</time>
      </trkpt>
      <trkpt lat="44.44962" lon="3.74701">
        <ele>1424.33</ele>
        <time>2022-08-06T07:26:46Z</time>
      </trkpt>
      <trkpt lat="44.44954" lon="3.74701">
        <ele>1424.81</ele>
        <time>2022-08-06T07:26:56Z</time>
      </trkpt>
      <trkpt lat="44.44945" lon="3.74699">
        <ele>1426.25</ele>
        <time>2022-08-06T07:27:10Z</time>
      </trkpt>
      <trkpt lat="44.44934" lon="3.74691">
        <ele>1427.7</ele>
        <time>2022-08-06T07:27:28Z</time>
      </trkpt>
      <trkpt lat="44.44921" lon="3.74686">
        <ele>1429.14</ele>
        <time>2022-08-06T07:27:45Z</time>
      </trkpt>
      <trkpt lat="44.44909" lon="3.74679">
        <ele>1431.06</ele>
        <time>2022-08-06T07:28:02Z</time>
      </trkpt>
      <trkpt lat="44.44899" lon="3.74675">
        <ele>1432.5</ele>
        <time>2022-08-06T07:28:18Z</time>
      </trkpt>
      <trkpt lat="44.44895" lon="3.74674">
        <ele>1432.98</ele>
        <time>2022-08-06T07:28:24Z</time>
      </trkpt>
      <trkpt lat="44.44883" lon="3.74671">
        <ele>1434.42</ele>
        <time>2022-08-06T07:28:40Z</time>
      </trkpt>
      <trkpt lat="44.44871" lon="3.74671">
        <ele>1435.87</ele>
        <time>2022-08-06T07:28:57Z</time>
      </trkpt>
      <trkpt lat="44.44859" lon="3.74668">
        <ele>1438.27</ele>
        <time>2022-08-06T07:29:12Z</time>
      </trkpt>
      <trkpt lat="44.44847" lon="3.74669">
        <ele>1440.67</ele>
        <time>2022-08-06T07:29:28Z</time>
      </trkpt>
      <trkpt lat="44.44836" lon="3.74669">
        <ele>1441.15</ele>
        <time>2022-08-06T07:29:44Z</time>
      </trkpt>
      <trkpt lat="44.44824" lon="3.74671">
        <ele>1440.67</ele>
        <time>2022-08-06T07:30:01Z</time>
      </trkpt>
      <trkpt lat="44.44812" lon="3.74672">
        <ele>1439.71</ele>
        <time>2022-08-06T07:30:17Z</time>
      </trkpt>
      <trkpt lat="44.44799" lon="3.74674">
        <ele>1439.71</ele>
        <time>2022-08-06T07:30:32Z</time>
      </trkpt>
      <trkpt lat="44.44786" lon="3.74676">
        <ele>1440.67</ele>
        <time>2022-08-06T07:30:48Z</time>
      </trkpt>
      <trkpt lat="44.44774" lon="3.74677">
        <ele>1441.15</ele>
        <time>2022-08-06T07:31:03Z</time>
      </trkpt>
      <trkpt lat="44.4476" lon="3.74678">
        <ele>1442.11</ele>
        <time>2022-08-06T07:31:17Z</time>
      </trkpt>
      <trkpt lat="44.44759" lon="3.74679">
        <ele>1442.11</ele>
        <time>2022-08-06T07:31:18Z</time>
      </trkpt>
      <trkpt lat="44.44741" lon="3.74683">
        <ele>1441.63</ele>
        <time>2022-08-06T07:31:35Z</time>
      </trkpt>
      <trkpt lat="44.4474" lon="3.74683">
        <ele>1442.11</ele>
        <time>2022-08-06T07:31:36Z</time>
      </trkpt>
      <trkpt lat="44.44728" lon="3.74686">
        <ele>1445</ele>
        <time>2022-08-06T07:31:49Z</time>
      </trkpt>
      <trkpt lat="44.44716" lon="3.7469">
        <ele>1445.48</ele>
        <time>2022-08-06T07:32:02Z</time>
      </trkpt>
      <trkpt lat="44.447" lon="3.74695">
        <ele>1447.4</ele>
        <time>2022-08-06T07:32:19Z</time>
      </trkpt>
      <trkpt lat="44.44697" lon="3.74697">
        <ele>1447.88</ele>
        <time>2022-08-06T07:32:23Z</time>
      </trkpt>
      <trkpt lat="44.44695" lon="3.74698">
        <ele>1447.88</ele>
        <time>2022-08-06T07:32:25Z</time>
      </trkpt>
      <trkpt lat="44.44682" lon="3.74702">
        <ele>1448.84</ele>
        <time>2022-08-06T07:32:39Z</time>
      </trkpt>
      <trkpt lat="44.4467" lon="3.74707">
        <ele>1450.29</ele>
        <time>2022-08-06T07:32:52Z</time>
      </trkpt>
      <trkpt lat="44.44658" lon="3.74711">
        <ele>1450.77</ele>
        <time>2022-08-06T07:33:06Z</time>
      </trkpt>
      <trkpt lat="44.44645" lon="3.74715">
        <ele>1451.25</ele>
        <time>2022-08-06T07:33:20Z</time>
      </trkpt>
      <trkpt lat="44.44633" lon="3.74718">
        <ele>1451.73</ele>
        <time>2022-08-06T07:33:33Z</time>
      </trkpt>
      <trkpt lat="44.44619" lon="3.74723">
        <ele>1454.61</ele>
        <time>2022-08-06T07:33:48Z</time>
      </trkpt>
      <trkpt lat="44.44607" lon="3.74728">
        <ele>1456.05</ele>
        <time>2022-08-06T07:34:03Z</time>
      </trkpt>
      <trkpt lat="44.44597" lon="3.74731">
        <ele>1457.98</ele>
        <time>2022-08-06T07:34:16Z</time>
      </trkpt>
      <trkpt lat="44.44586" lon="3.74737">
        <ele>1459.9</ele>
        <time>2022-08-06T07:34:31Z</time>
      </trkpt>
      <trkpt lat="44.44575" lon="3.7474">
        <ele>1461.82</ele>
        <time>2022-08-06T07:34:45Z</time>
      </trkpt>
      <trkpt lat="44.44565" lon="3.74746">
        <ele>1463.26</ele>
        <time>2022-08-06T07:35:00Z</time>
      </trkpt>
      <trkpt lat="44.44553" lon="3.74748">
        <ele>1465.19</ele>
        <time>2022-08-06T07:35:15Z</time>
      </trkpt>
      <trkpt lat="44.44542" lon="3.74752">
        <ele>1466.15</ele>
        <time>2022-08-06T07:35:30Z</time>
      </trkpt>
      <trkpt lat="44.44535" lon="3.74765">
        <ele>1468.07</ele>
        <time>2022-08-06T07:35:46Z</time>
      </trkpt>
      <trkpt lat="44.44527" lon="3.74776">
        <ele>1470.95</ele>
        <time>2022-08-06T07:36:00Z</time>
      </trkpt>
      <trkpt lat="44.44521" lon="3.74788">
        <ele>1472.4</ele>
        <time>2022-08-06T07:36:13Z</time>
      </trkpt>
      <trkpt lat="44.44511" lon="3.74804">
        <ele>1472.4</ele>
        <time>2022-08-06T07:36:29Z</time>
      </trkpt>
      <trkpt lat="44.44505" lon="3.74809">
        <ele>1474.32</ele>
        <time>2022-08-06T07:36:45Z</time>
      </trkpt>
      <trkpt lat="44.445" lon="3.7481">
        <ele>1475.28</ele>
        <time>2022-08-06T07:37:01Z</time>
      </trkpt>
      <trkpt lat="44.44487" lon="3.74809">
        <ele>1477.68</ele>
        <time>2022-08-06T07:37:16Z</time>
      </trkpt>
      <trkpt lat="44.44482" lon="3.7481">
        <ele>1479.13</ele>
        <time>2022-08-06T07:37:21Z</time>
      </trkpt>
      <trkpt lat="44.44476" lon="3.74809">
        <ele>1481.53</ele>
        <time>2022-08-06T07:37:27Z</time>
      </trkpt>
      <trkpt lat="44.44463" lon="3.74811">
        <ele>1485.37</ele>
        <time>2022-08-06T07:37:41Z</time>
      </trkpt>
      <trkpt lat="44.44453" lon="3.74817">
        <ele>1486.82</ele>
        <time>2022-08-06T07:37:53Z</time>
      </trkpt>
      <trkpt lat="44.44441" lon="3.7482">
        <ele>1487.78</ele>
        <time>2022-08-06T07:38:06Z</time>
      </trkpt>
      <trkpt lat="44.44435" lon="3.74823">
        <ele>1488.26</ele>
        <time>2022-08-06T07:38:13Z</time>
      </trkpt>
      <trkpt lat="44.44423" lon="3.74825">
        <ele>1490.18</ele>
        <time>2022-08-06T07:38:28Z</time>
      </trkpt>
      <trkpt lat="44.44418" lon="3.74828">
        <ele>1489.22</ele>
        <time>2022-08-06T07:38:35Z</time>
      </trkpt>
      <trkpt lat="44.44414" lon="3.74828">
        <ele>1489.22</ele>
        <time>2022-08-06T07:38:40Z</time>
      </trkpt>
      <trkpt lat="44.44401" lon="3.74834">
        <ele>1490.18</ele>
        <time>2022-08-06T07:38:56Z</time>
      </trkpt>
      <trkpt lat="44.44391" lon="3.74845">
        <ele>1491.14</ele>
        <time>2022-08-06T07:39:11Z</time>
      </trkpt>
      <trkpt lat="44.44379" lon="3.74853">
        <ele>1492.58</ele>
        <time>2022-08-06T07:39:27Z</time>
      </trkpt>
      <trkpt lat="44.44369" lon="3.74862">
        <ele>1494.03</ele>
        <time>2022-08-06T07:39:42Z</time>
      </trkpt>
      <trkpt lat="44.44362" lon="3.74871">
        <ele>1494.51</ele>
        <time>2022-08-06T07:39:55Z</time>
      </trkpt>
      <trkpt lat="44.44354" lon="3.74879">
        <ele>1494.51</ele>
        <time>2022-08-06T07:40:08Z</time>
      </trkpt>
      <trkpt lat="44.44343" lon="3.74887">
        <ele>1496.91</ele>
        <time>2022-08-06T07:40:23Z</time>
      </trkpt>
      <trkpt lat="44.44334" lon="3.74897">
        <ele>1498.83</ele>
        <time>2022-08-06T07:40:38Z</time>
      </trkpt>
      <trkpt lat="44.44325" lon="3.74902">
        <ele>1498.83</ele>
        <time>2022-08-06T07:40:50Z</time>
      </trkpt>
      <trkpt lat="44.44313" lon="3.74908">
        <ele>1502.2</ele>
        <time>2022-08-06T07:41:05Z</time>
      </trkpt>
      <trkpt lat="44.44303" lon="3.74917">
        <ele>1503.64</ele>
        <time>2022-08-06T07:41:20Z</time>
      </trkpt>
      <trkpt lat="44.44292" lon="3.74921">
        <ele>1507.48</ele>
        <time>2022-08-06T07:41:35Z</time>
      </trkpt>
      <trkpt lat="44.44281" lon="3.74928">
        <ele>1509.89</ele>
        <time>2022-08-06T07:41:49Z</time>
      </trkpt>
      <trkpt lat="44.4427" lon="3.74933">
        <ele>1512.29</ele>
        <time>2022-08-06T07:42:03Z</time>
      </trkpt>
      <trkpt lat="44.44257" lon="3.74939">
        <ele>1514.69</ele>
        <time>2022-08-06T07:42:18Z</time>
      </trkpt>
      <trkpt lat="44.44243" lon="3.74944">
        <ele>1514.69</ele>
        <time>2022-08-06T07:42:35Z</time>
      </trkpt>
      <trkpt lat="44.44228" lon="3.74946">
        <ele>1517.1</ele>
        <time>2022-08-06T07:42:52Z</time>
      </trkpt>
      <trkpt lat="44.44214" lon="3.74949">
        <ele>1517.58</ele>
        <time>2022-08-06T07:43:08Z</time>
      </trkpt>
      <trkpt lat="44.44202" lon="3.7495">
        <ele>1520.46</ele>
        <time>2022-08-06T07:43:23Z</time>
      </trkpt>
      <trkpt lat="44.44189" lon="3.74951">
        <ele>1520.94</ele>
        <time>2022-08-06T07:43:37Z</time>
      </trkpt>
      <trkpt lat="44.44176" lon="3.74952">
        <ele>1521.42</ele>
        <time>2022-08-06T07:43:52Z</time>
      </trkpt>
      <trkpt lat="44.44161" lon="3.74952">
        <ele>1523.83</ele>
        <time>2022-08-06T07:44:06Z</time>
      </trkpt>
      <trkpt lat="44.44147" lon="3.74952">
        <ele>1525.75</ele>
        <time>2022-08-06T07:44:22Z</time>
      </trkpt>
      <trkpt lat="44.44139" lon="3.74951">
        <ele>1526.71</ele>
        <time>2022-08-06T07:44:30Z</time>
      </trkpt>
      <trkpt lat="44.44129" lon="3.74949">
        <ele>1527.19</ele>
        <time>2022-08-06T07:44:41Z</time>
      </trkpt>
      <trkpt lat="44.44121" lon="3.7495">
        <ele>1528.15</ele>
        <time>2022-08-06T07:44:51Z</time>
      </trkpt>
      <trkpt lat="44.44107" lon="3.74947">
        <ele>1529.11</ele>
        <time>2022-08-06T07:45:07Z</time>
      </trkpt>
      <trkpt lat="44.44091" lon="3.74944">
        <ele>1531.04</ele>
        <time>2022-08-06T07:45:24Z</time>
      </trkpt>
      <trkpt lat="44.44075" lon="3.74946">
        <ele>1532</ele>
        <time>2022-08-06T07:45:41Z</time>
      </trkpt>
      <trkpt lat="44.4406" lon="3.74949">
        <ele>1532.48</ele>
        <time>2022-08-06T07:45:56Z</time>
      </trkpt>
      <trkpt lat="44.44054" lon="3.7495">
        <ele>1532</ele>
        <time>2022-08-06T07:46:02Z</time>
      </trkpt>
      <trkpt lat="44.4405" lon="3.74949">
        <ele>1532</ele>
        <time>2022-08-06T07:46:17Z</time>
      </trkpt>
      <trkpt lat="44.44049" lon="3.74951">
        <ele>1532</ele>
        <time>2022-08-06T07:46:24Z</time>
      </trkpt>
      <trkpt lat="44.44033" lon="3.74949">
        <ele>1532.96</ele>
        <time>2022-08-06T07:46:40Z</time>
      </trkpt>
      <trkpt lat="44.44015" lon="3.74946">
        <ele>1534.4</ele>
        <time>2022-08-06T07:46:58Z</time>
      </trkpt>
      <trkpt lat="44.44" lon="3.74943">
        <ele>1535.36</ele>
        <time>2022-08-06T07:47:14Z</time>
      </trkpt>
      <trkpt lat="44.43983" lon="3.74942">
        <ele>1535.36</ele>
        <time>2022-08-06T07:47:31Z</time>
      </trkpt>
      <trkpt lat="44.43968" lon="3.74938">
        <ele>1534.88</ele>
        <time>2022-08-06T07:47:46Z</time>
      </trkpt>
      <trkpt lat="44.43952" lon="3.74939">
        <ele>1537.29</ele>
        <time>2022-08-06T07:48:01Z</time>
      </trkpt>
      <trkpt lat="44.4394" lon="3.74939">
        <ele>1538.73</ele>
        <time>2022-08-06T07:48:14Z</time>
      </trkpt>
      <trkpt lat="44.43924" lon="3.74937">
        <ele>1539.69</ele>
        <time>2022-08-06T07:48:30Z</time>
      </trkpt>
      <trkpt lat="44.4391" lon="3.74937">
        <ele>1540.65</ele>
        <time>2022-08-06T07:48:45Z</time>
      </trkpt>
      <trkpt lat="44.43893" lon="3.74935">
        <ele>1541.61</ele>
        <time>2022-08-06T07:49:02Z</time>
      </trkpt>
      <trkpt lat="44.43876" lon="3.74932">
        <ele>1543.05</ele>
        <time>2022-08-06T07:49:19Z</time>
      </trkpt>
      <trkpt lat="44.43859" lon="3.74932">
        <ele>1544.98</ele>
        <time>2022-08-06T07:49:36Z</time>
      </trkpt>
      <trkpt lat="44.43843" lon="3.74932">
        <ele>1545.46</ele>
        <time>2022-08-06T07:49:53Z</time>
      </trkpt>
      <trkpt lat="44.43842" lon="3.7493">
        <ele>1546.42</ele>
        <time>2022-08-06T07:50:09Z</time>
      </trkpt>
      <trkpt lat="44.43843" lon="3.74931">
        <ele>1545.94</ele>
        <time>2022-08-06T07:50:26Z</time>
      </trkpt>
      <trkpt lat="44.43838" lon="3.7493">
        <ele>1544.98</ele>
        <time>2022-08-06T07:50:41Z</time>
      </trkpt>
      <trkpt lat="44.43827" lon="3.74929">
        <ele>1545.94</ele>
        <time>2022-08-06T07:51:03Z</time>
      </trkpt>
      <trkpt lat="44.43812" lon="3.74926">
        <ele>1549.3</ele>
        <time>2022-08-06T07:51:18Z</time>
      </trkpt>
      <trkpt lat="44.43797" lon="3.74924">
        <ele>1550.74</ele>
        <time>2022-08-06T07:51:35Z</time>
      </trkpt>
      <trkpt lat="44.43781" lon="3.74924">
        <ele>1551.22</ele>
        <time>2022-08-06T07:51:52Z</time>
      </trkpt>
      <trkpt lat="44.4377" lon="3.74925">
        <ele>1551.71</ele>
        <time>2022-08-06T07:52:03Z</time>
      </trkpt>
      <trkpt lat="44.43767" lon="3.74928">
        <ele>1551.71</ele>
        <time>2022-08-06T07:52:06Z</time>
      </trkpt>
      <trkpt lat="44.43749" lon="3.74927">
        <ele>1551.22</ele>
        <time>2022-08-06T07:52:24Z</time>
      </trkpt>
      <trkpt lat="44.43734" lon="3.74925">
        <ele>1551.71</ele>
        <time>2022-08-06T07:52:40Z</time>
      </trkpt>
      <trkpt lat="44.43718" lon="3.74925">
        <ele>1552.67</ele>
        <time>2022-08-06T07:52:57Z</time>
      </trkpt>
      <trkpt lat="44.43704" lon="3.74925">
        <ele>1552.67</ele>
        <time>2022-08-06T07:53:11Z</time>
      </trkpt>
      <trkpt lat="44.43688" lon="3.74925">
        <ele>1552.67</ele>
        <time>2022-08-06T07:53:27Z</time>
      </trkpt>
      <trkpt lat="44.43672" lon="3.74928">
        <ele>1553.63</ele>
        <time>2022-08-06T07:53:43Z</time>
      </trkpt>
      <trkpt lat="44.43658" lon="3.74928">
        <ele>1556.99</ele>
        <time>2022-08-06T07:53:59Z</time>
      </trkpt>
      <trkpt lat="44.4365" lon="3.74926">
        <ele>1558.43</ele>
        <time>2022-08-06T07:54:07Z</time>
      </trkpt>
      <trkpt lat="44.43634" lon="3.74929">
        <ele>1560.84</ele>
        <time>2022-08-06T07:54:25Z</time>
      </trkpt>
      <trkpt lat="44.43619" lon="3.74932">
        <ele>1561.32</ele>
        <time>2022-08-06T07:54:40Z</time>
      </trkpt>
      <trkpt lat="44.43606" lon="3.74934">
        <ele>1562.28</ele>
        <time>2022-08-06T07:54:53Z</time>
      </trkpt>
      <trkpt lat="44.43587" lon="3.74935">
        <ele>1563.72</ele>
        <time>2022-08-06T07:55:11Z</time>
      </trkpt>
      <trkpt lat="44.43585" lon="3.74935">
        <ele>1564.2</ele>
        <time>2022-08-06T07:55:14Z</time>
      </trkpt>
      <trkpt lat="44.43565" lon="3.74933">
        <ele>1567.57</ele>
        <time>2022-08-06T07:55:34Z</time>
      </trkpt>
      <trkpt lat="44.43548" lon="3.74929">
        <ele>1568.05</ele>
        <time>2022-08-06T07:55:50Z</time>
      </trkpt>
      <trkpt lat="44.43531" lon="3.74926">
        <ele>1568.53</ele>
        <time>2022-08-06T07:56:07Z</time>
      </trkpt>
      <trkpt lat="44.43517" lon="3.74921">
        <ele>1569.49</ele>
        <time>2022-08-06T07:56:21Z</time>
      </trkpt>
      <trkpt lat="44.43501" lon="3.74916">
        <ele>1569.49</ele>
        <time>2022-08-06T07:56:37Z</time>
      </trkpt>
      <trkpt lat="44.43484" lon="3.7491">
        <ele>1568.53</ele>
        <time>2022-08-06T07:56:52Z</time>
      </trkpt>
      <trkpt lat="44.43469" lon="3.74904">
        <ele>1568.53</ele>
        <time>2022-08-06T07:57:06Z</time>
      </trkpt>
      <trkpt lat="44.43461" lon="3.74905">
        <ele>1568.53</ele>
        <time>2022-08-06T07:57:13Z</time>
      </trkpt>
      <trkpt lat="44.43452" lon="3.749">
        <ele>1568.53</ele>
        <time>2022-08-06T07:57:27Z</time>
      </trkpt>
      <trkpt lat="44.43449" lon="3.749">
        <ele>1568.05</ele>
        <time>2022-08-06T07:57:40Z</time>
      </trkpt>
      <trkpt lat="44.43439" lon="3.74903">
        <ele>1572.85</ele>
        <time>2022-08-06T07:57:55Z</time>
      </trkpt>
      <trkpt lat="44.43419" lon="3.74899">
        <ele>1573.82</ele>
        <time>2022-08-06T07:58:10Z</time>
      </trkpt>
      <trkpt lat="44.434" lon="3.74895">
        <ele>1572.37</ele>
        <time>2022-08-06T07:58:24Z</time>
      </trkpt>
      <trkpt lat="44.43385" lon="3.74891">
        <ele>1572.37</ele>
        <time>2022-08-06T07:58:37Z</time>
      </trkpt>
      <trkpt lat="44.43369" lon="3.74889">
        <ele>1572.37</ele>
        <time>2022-08-06T07:58:51Z</time>
      </trkpt>
      <trkpt lat="44.43351" lon="3.74886">
        <ele>1572.37</ele>
        <time>2022-08-06T07:59:07Z</time>
      </trkpt>
      <trkpt lat="44.43335" lon="3.74888">
        <ele>1573.82</ele>
        <time>2022-08-06T07:59:23Z</time>
      </trkpt>
      <trkpt lat="44.43331" lon="3.74888">
        <ele>1574.78</ele>
        <time>2022-08-06T07:59:27Z</time>
      </trkpt>
      <trkpt lat="44.43311" lon="3.7489">
        <ele>1576.7</ele>
        <time>2022-08-06T07:59:44Z</time>
      </trkpt>
      <trkpt lat="44.43294" lon="3.7489">
        <ele>1576.7</ele>
        <time>2022-08-06T07:59:59Z</time>
      </trkpt>
      <trkpt lat="44.43276" lon="3.74895">
        <ele>1578.14</ele>
        <time>2022-08-06T08:00:16Z</time>
      </trkpt>
      <trkpt lat="44.4326" lon="3.74899">
        <ele>1580.54</ele>
        <time>2022-08-06T08:00:31Z</time>
      </trkpt>
      <trkpt lat="44.43245" lon="3.74905">
        <ele>1581.99</ele>
        <time>2022-08-06T08:00:46Z</time>
      </trkpt>
      <trkpt lat="44.43229" lon="3.74911">
        <ele>1581.99</ele>
        <time>2022-08-06T08:01:02Z</time>
      </trkpt>
      <trkpt lat="44.43221" lon="3.74914">
        <ele>1582.47</ele>
        <time>2022-08-06T08:01:10Z</time>
      </trkpt>
      <trkpt lat="44.43219" lon="3.74915">
        <ele>1582.95</ele>
        <time>2022-08-06T08:01:12Z</time>
      </trkpt>
      <trkpt lat="44.43199" lon="3.7492">
        <ele>1584.39</ele>
        <time>2022-08-06T08:01:30Z</time>
      </trkpt>
      <trkpt lat="44.43182" lon="3.74918">
        <ele>1585.83</ele>
        <time>2022-08-06T08:01:46Z</time>
      </trkpt>
      <trkpt lat="44.43165" lon="3.74921">
        <ele>1588.24</ele>
        <time>2022-08-06T08:02:02Z</time>
      </trkpt>
      <trkpt lat="44.43148" lon="3.74923">
        <ele>1590.16</ele>
        <time>2022-08-06T08:02:18Z</time>
      </trkpt>
      <trkpt lat="44.4313" lon="3.74928">
        <ele>1592.56</ele>
        <time>2022-08-06T08:02:35Z</time>
      </trkpt>
      <trkpt lat="44.43113" lon="3.74933">
        <ele>1596.41</ele>
        <time>2022-08-06T08:02:52Z</time>
      </trkpt>
      <trkpt lat="44.43097" lon="3.74938">
        <ele>1596.89</ele>
        <time>2022-08-06T08:03:08Z</time>
      </trkpt>
      <trkpt lat="44.43079" lon="3.74945">
        <ele>1597.37</ele>
        <time>2022-08-06T08:03:27Z</time>
      </trkpt>
      <trkpt lat="44.43065" lon="3.74953">
        <ele>1597.85</ele>
        <time>2022-08-06T08:03:42Z</time>
      </trkpt>
      <trkpt lat="44.43062" lon="3.74954">
        <ele>1598.33</ele>
        <time>2022-08-06T08:03:45Z</time>
      </trkpt>
      <trkpt lat="44.43046" lon="3.74958">
        <ele>1599.77</ele>
        <time>2022-08-06T08:04:00Z</time>
      </trkpt>
      <trkpt lat="44.43037" lon="3.74963">
        <ele>1600.25</ele>
        <time>2022-08-06T08:04:09Z</time>
      </trkpt>
      <trkpt lat="44.43023" lon="3.74971">
        <ele>1600.73</ele>
        <time>2022-08-06T08:04:24Z</time>
      </trkpt>
      <trkpt lat="44.4301" lon="3.74979">
        <ele>1602.66</ele>
        <time>2022-08-06T08:04:38Z</time>
      </trkpt>
      <trkpt lat="44.42995" lon="3.74986">
        <ele>1605.06</ele>
        <time>2022-08-06T08:04:52Z</time>
      </trkpt>
      <trkpt lat="44.42981" lon="3.74992">
        <ele>1606.02</ele>
        <time>2022-08-06T08:05:06Z</time>
      </trkpt>
      <trkpt lat="44.42965" lon="3.74998">
        <ele>1608.42</ele>
        <time>2022-08-06T08:05:22Z</time>
      </trkpt>
      <trkpt lat="44.42952" lon="3.75006">
        <ele>1610.35</ele>
        <time>2022-08-06T08:05:36Z</time>
      </trkpt>
      <trkpt lat="44.42936" lon="3.75011">
        <ele>1611.31</ele>
        <time>2022-08-06T08:05:51Z</time>
      </trkpt>
      <trkpt lat="44.4292" lon="3.75015">
        <ele>1611.79</ele>
        <time>2022-08-06T08:06:07Z</time>
      </trkpt>
      <trkpt lat="44.42904" lon="3.75018">
        <ele>1613.71</ele>
        <time>2022-08-06T08:06:23Z</time>
      </trkpt>
      <trkpt lat="44.4289" lon="3.75024">
        <ele>1615.63</ele>
        <time>2022-08-06T08:06:37Z</time>
      </trkpt>
      <trkpt lat="44.42874" lon="3.75034">
        <ele>1618.04</ele>
        <time>2022-08-06T08:06:53Z</time>
      </trkpt>
      <trkpt lat="44.42863" lon="3.7504">
        <ele>1619.96</ele>
        <time>2022-08-06T08:07:08Z</time>
      </trkpt>
      <trkpt lat="44.42862" lon="3.75041">
        <ele>1620.92</ele>
        <time>2022-08-06T08:07:34Z</time>
      </trkpt>
      <trkpt lat="44.42863" lon="3.7504">
        <ele>1621.4</ele>
        <time>2022-08-06T08:07:51Z</time>
      </trkpt>
      <trkpt lat="44.42863" lon="3.75043">
        <ele>1620.44</ele>
        <time>2022-08-06T08:08:14Z</time>
      </trkpt>
      <trkpt lat="44.4286" lon="3.75041">
        <ele>1620.44</ele>
        <time>2022-08-06T08:08:30Z</time>
      </trkpt>
      <trkpt lat="44.4286" lon="3.75039">
        <ele>1622.36</ele>
        <time>2022-08-06T08:08:53Z</time>
      </trkpt>
      <trkpt lat="44.42855" lon="3.75042">
        <ele>1622.84</ele>
        <time>2022-08-06T08:09:15Z</time>
      </trkpt>
      <trkpt lat="44.42841" lon="3.75045">
        <ele>1623.8</ele>
        <time>2022-08-06T08:09:31Z</time>
      </trkpt>
      <trkpt lat="44.42826" lon="3.75052">
        <ele>1625.25</ele>
        <time>2022-08-06T08:09:48Z</time>
      </trkpt>
      <trkpt lat="44.42809" lon="3.75061">
        <ele>1626.69</ele>
        <time>2022-08-06T08:10:06Z</time>
      </trkpt>
      <trkpt lat="44.42797" lon="3.75066">
        <ele>1627.65</ele>
        <time>2022-08-06T08:10:21Z</time>
      </trkpt>
      <trkpt lat="44.42787" lon="3.75068">
        <ele>1628.61</ele>
        <time>2022-08-06T08:10:31Z</time>
      </trkpt>
      <trkpt lat="44.42773" lon="3.75079">
        <ele>1629.57</ele>
        <time>2022-08-06T08:10:45Z</time>
      </trkpt>
      <trkpt lat="44.42763" lon="3.75085">
        <ele>1630.53</ele>
        <time>2022-08-06T08:11:00Z</time>
      </trkpt>
      <trkpt lat="44.42761" lon="3.75085">
        <ele>1631.01</ele>
        <time>2022-08-06T08:11:02Z</time>
      </trkpt>
      <trkpt lat="44.42757" lon="3.75086">
        <ele>1631.49</ele>
        <time>2022-08-06T08:11:06Z</time>
      </trkpt>
      <trkpt lat="44.42738" lon="3.75096">
        <ele>1632.94</ele>
        <time>2022-08-06T08:11:24Z</time>
      </trkpt>
      <trkpt lat="44.42729" lon="3.75098">
        <ele>1632.94</ele>
        <time>2022-08-06T08:11:32Z</time>
      </trkpt>
      <trkpt lat="44.42715" lon="3.75103">
        <ele>1633.9</ele>
        <time>2022-08-06T08:11:46Z</time>
      </trkpt>
      <trkpt lat="44.42698" lon="3.75114">
        <ele>1634.86</ele>
        <time>2022-08-06T08:12:03Z</time>
      </trkpt>
      <trkpt lat="44.42681" lon="3.75121">
        <ele>1634.86</ele>
        <time>2022-08-06T08:12:19Z</time>
      </trkpt>
      <trkpt lat="44.4267" lon="3.75127">
        <ele>1635.34</ele>
        <time>2022-08-06T08:12:30Z</time>
      </trkpt>
      <trkpt lat="44.42658" lon="3.7513">
        <ele>1636.78</ele>
        <time>2022-08-06T08:12:42Z</time>
      </trkpt>
      <trkpt lat="44.42655" lon="3.75133">
        <ele>1636.3</ele>
        <time>2022-08-06T08:12:48Z</time>
      </trkpt>
      <trkpt lat="44.42649" lon="3.75133">
        <ele>1636.78</ele>
        <time>2022-08-06T08:12:54Z</time>
      </trkpt>
      <trkpt lat="44.42646" lon="3.75137">
        <ele>1637.26</ele>
        <time>2022-08-06T08:12:59Z</time>
      </trkpt>
      <trkpt lat="44.42639" lon="3.75147">
        <ele>1636.78</ele>
        <time>2022-08-06T08:13:15Z</time>
      </trkpt>
      <trkpt lat="44.4264" lon="3.75147">
        <ele>1636.78</ele>
        <time>2022-08-06T08:13:38Z</time>
      </trkpt>
      <trkpt lat="44.4264" lon="3.75146">
        <ele>1637.74</ele>
        <time>2022-08-06T08:13:58Z</time>
      </trkpt>
      <trkpt lat="44.42641" lon="3.75145">
        <ele>1638.22</ele>
        <time>2022-08-06T08:14:06Z</time>
      </trkpt>
      <trkpt lat="44.42639" lon="3.75124">
        <ele>1639.19</ele>
        <time>2022-08-06T08:14:23Z</time>
      </trkpt>
      <trkpt lat="44.42639" lon="3.7512">
        <ele>1639.67</ele>
        <time>2022-08-06T08:14:26Z</time>
      </trkpt>
      <trkpt lat="44.4264" lon="3.75106">
        <ele>1641.11</ele>
        <time>2022-08-06T08:14:37Z</time>
      </trkpt>
      <trkpt lat="44.42641" lon="3.75093">
        <ele>1642.07</ele>
        <time>2022-08-06T08:14:47Z</time>
      </trkpt>
      <trkpt lat="44.42643" lon="3.7508">
        <ele>1643.03</ele>
        <time>2022-08-06T08:14:58Z</time>
      </trkpt>
      <trkpt lat="44.4265" lon="3.7506">
        <ele>1644.47</ele>
        <time>2022-08-06T08:15:16Z</time>
      </trkpt>
      <trkpt lat="44.42649" lon="3.7504">
        <ele>1646.88</ele>
        <time>2022-08-06T08:15:34Z</time>
      </trkpt>
      <trkpt lat="44.42649" lon="3.75018">
        <ele>1648.8</ele>
        <time>2022-08-06T08:15:51Z</time>
      </trkpt>
      <trkpt lat="44.42649" lon="3.74999">
        <ele>1651.68</ele>
        <time>2022-08-06T08:16:07Z</time>
      </trkpt>
      <trkpt lat="44.42649" lon="3.7498">
        <ele>1653.6</ele>
        <time>2022-08-06T08:16:24Z</time>
      </trkpt>
      <trkpt lat="44.4265" lon="3.74961">
        <ele>1655.53</ele>
        <time>2022-08-06T08:16:39Z</time>
      </trkpt>
      <trkpt lat="44.42652" lon="3.74944">
        <ele>1656.97</ele>
        <time>2022-08-06T08:16:54Z</time>
      </trkpt>
      <trkpt lat="44.42654" lon="3.74924">
        <ele>1659.85</ele>
        <time>2022-08-06T08:17:10Z</time>
      </trkpt>
      <trkpt lat="44.42654" lon="3.74909">
        <ele>1660.33</ele>
        <time>2022-08-06T08:17:23Z</time>
      </trkpt>
      <trkpt lat="44.42655" lon="3.74899">
        <ele>1661.3</ele>
        <time>2022-08-06T08:17:32Z</time>
      </trkpt>
      <trkpt lat="44.42656" lon="3.74878">
        <ele>1663.7</ele>
        <time>2022-08-06T08:17:48Z</time>
      </trkpt>
      <trkpt lat="44.42657" lon="3.74859">
        <ele>1665.14</ele>
        <time>2022-08-06T08:18:04Z</time>
      </trkpt>
      <trkpt lat="44.42657" lon="3.74855">
        <ele>1665.62</ele>
        <time>2022-08-06T08:18:07Z</time>
      </trkpt>
      <trkpt lat="44.42659" lon="3.74833">
        <ele>1667.54</ele>
        <time>2022-08-06T08:18:24Z</time>
      </trkpt>
      <trkpt lat="44.42661" lon="3.74814">
        <ele>1670.91</ele>
        <time>2022-08-06T08:18:38Z</time>
      </trkpt>
      <trkpt lat="44.4266" lon="3.74804">
        <ele>1672.35</ele>
        <time>2022-08-06T08:18:46Z</time>
      </trkpt>
      <trkpt lat="44.42663" lon="3.74781">
        <ele>1674.27</ele>
        <time>2022-08-06T08:19:03Z</time>
      </trkpt>
      <trkpt lat="44.42667" lon="3.74762">
        <ele>1674.27</ele>
        <time>2022-08-06T08:19:18Z</time>
      </trkpt>
      <trkpt lat="44.4267" lon="3.74739">
        <ele>1673.31</ele>
        <time>2022-08-06T08:19:34Z</time>
      </trkpt>
      <trkpt lat="44.42671" lon="3.74717">
        <ele>1674.27</ele>
        <time>2022-08-06T08:19:50Z</time>
      </trkpt>
      <trkpt lat="44.42673" lon="3.74706">
        <ele>1674.27</ele>
        <time>2022-08-06T08:20:03Z</time>
      </trkpt>
      <trkpt lat="44.42674" lon="3.74688">
        <ele>1674.27</ele>
        <time>2022-08-06T08:20:17Z</time>
      </trkpt>
      <trkpt lat="44.42676" lon="3.74675">
        <ele>1674.75</ele>
        <time>2022-08-06T08:20:26Z</time>
      </trkpt>
      <trkpt lat="44.4268" lon="3.74658">
        <ele>1675.72</ele>
        <time>2022-08-06T08:20:38Z</time>
      </trkpt>
      <trkpt lat="44.42684" lon="3.74636">
        <ele>1677.64</ele>
        <time>2022-08-06T08:20:54Z</time>
      </trkpt>
      <trkpt lat="44.42688" lon="3.74624">
        <ele>1678.6</ele>
        <time>2022-08-06T08:21:03Z</time>
      </trkpt>
      <trkpt lat="44.42692" lon="3.74604">
        <ele>1680.04</ele>
        <time>2022-08-06T08:21:19Z</time>
      </trkpt>
      <trkpt lat="44.42693" lon="3.74602">
        <ele>1680.04</ele>
        <time>2022-08-06T08:21:20Z</time>
      </trkpt>
      <trkpt lat="44.42699" lon="3.74586">
        <ele>1679.56</ele>
        <time>2022-08-06T08:21:34Z</time>
      </trkpt>
      <trkpt lat="44.42709" lon="3.74572">
        <ele>1680.04</ele>
        <time>2022-08-06T08:21:49Z</time>
      </trkpt>
      <trkpt lat="44.42711" lon="3.74569">
        <ele>1680.52</ele>
        <time>2022-08-06T08:21:52Z</time>
      </trkpt>
      <trkpt lat="44.42725" lon="3.74557">
        <ele>1682.44</ele>
        <time>2022-08-06T08:22:08Z</time>
      </trkpt>
      <trkpt lat="44.42736" lon="3.74542">
        <ele>1683.89</ele>
        <time>2022-08-06T08:22:23Z</time>
      </trkpt>
      <trkpt lat="44.42737" lon="3.7454">
        <ele>1683.89</ele>
        <time>2022-08-06T08:22:25Z</time>
      </trkpt>
      <trkpt lat="44.42744" lon="3.7452">
        <ele>1684.37</ele>
        <time>2022-08-06T08:22:41Z</time>
      </trkpt>
      <trkpt lat="44.4274" lon="3.74511">
        <ele>1683.89</ele>
        <time>2022-08-06T08:22:48Z</time>
      </trkpt>
      <trkpt lat="44.42736" lon="3.74505">
        <ele>1683.41</ele>
        <time>2022-08-06T08:22:53Z</time>
      </trkpt>
      <trkpt lat="44.42725" lon="3.74489">
        <ele>1681.96</ele>
        <time>2022-08-06T08:23:09Z</time>
      </trkpt>
      <trkpt lat="44.42718" lon="3.7447">
        <ele>1680.52</ele>
        <time>2022-08-06T08:23:23Z</time>
      </trkpt>
      <trkpt lat="44.42712" lon="3.74446">
        <ele>1680.52</ele>
        <time>2022-08-06T08:23:39Z</time>
      </trkpt>
      <trkpt lat="44.42709" lon="3.74437">
        <ele>1680.52</ele>
        <time>2022-08-06T08:23:45Z</time>
      </trkpt>
      <trkpt lat="44.42704" lon="3.74419">
        <ele>1680.04</ele>
        <time>2022-08-06T08:23:57Z</time>
      </trkpt>
      <trkpt lat="44.42703" lon="3.74416">
        <ele>1680.04</ele>
        <time>2022-08-06T08:23:59Z</time>
      </trkpt>
      <trkpt lat="44.42701" lon="3.74411">
        <ele>1680.04</ele>
        <time>2022-08-06T08:24:03Z</time>
      </trkpt>
      <trkpt lat="44.42691" lon="3.74385">
        <ele>1678.6</ele>
        <time>2022-08-06T08:24:21Z</time>
      </trkpt>
      <trkpt lat="44.42686" lon="3.74361">
        <ele>1677.16</ele>
        <time>2022-08-06T08:24:36Z</time>
      </trkpt>
      <trkpt lat="44.42681" lon="3.74331">
        <ele>1677.16</ele>
        <time>2022-08-06T08:24:55Z</time>
      </trkpt>
      <trkpt lat="44.42673" lon="3.74302">
        <ele>1677.16</ele>
        <time>2022-08-06T08:25:14Z</time>
      </trkpt>
      <trkpt lat="44.42665" lon="3.74275">
        <ele>1676.68</ele>
        <time>2022-08-06T08:25:33Z</time>
      </trkpt>
      <trkpt lat="44.42661" lon="3.7425">
        <ele>1677.16</ele>
        <time>2022-08-06T08:25:49Z</time>
      </trkpt>
      <trkpt lat="44.42661" lon="3.74245">
        <ele>1677.64</ele>
        <time>2022-08-06T08:25:53Z</time>
      </trkpt>
      <trkpt lat="44.42657" lon="3.74226">
        <ele>1678.6</ele>
        <time>2022-08-06T08:26:06Z</time>
      </trkpt>
      <trkpt lat="44.42654" lon="3.74219">
        <ele>1678.12</ele>
        <time>2022-08-06T08:26:11Z</time>
      </trkpt>
      <trkpt lat="44.42647" lon="3.74194">
        <ele>1679.08</ele>
        <time>2022-08-06T08:26:29Z</time>
      </trkpt>
      <trkpt lat="44.42642" lon="3.74166">
        <ele>1681</ele>
        <time>2022-08-06T08:26:48Z</time>
      </trkpt>
      <trkpt lat="44.42637" lon="3.74138">
        <ele>1683.89</ele>
        <time>2022-08-06T08:27:08Z</time>
      </trkpt>
      <trkpt lat="44.42633" lon="3.74115">
        <ele>1685.33</ele>
        <time>2022-08-06T08:27:23Z</time>
      </trkpt>
      <trkpt lat="44.42631" lon="3.74108">
        <ele>1686.29</ele>
        <time>2022-08-06T08:27:28Z</time>
      </trkpt>
      <trkpt lat="44.42629" lon="3.74081">
        <ele>1689.65</ele>
        <time>2022-08-06T08:27:45Z</time>
      </trkpt>
      <trkpt lat="44.42628" lon="3.74079">
        <ele>1690.14</ele>
        <time>2022-08-06T08:27:46Z</time>
      </trkpt>
      <trkpt lat="44.42627" lon="3.74068">
        <ele>1691.1</ele>
        <time>2022-08-06T08:27:53Z</time>
      </trkpt>
      <trkpt lat="44.42627" lon="3.74061">
        <ele>1692.06</ele>
        <time>2022-08-06T08:27:57Z</time>
      </trkpt>
      <trkpt lat="44.42624" lon="3.74047">
        <ele>1693.5</ele>
        <time>2022-08-06T08:28:06Z</time>
      </trkpt>
      <trkpt lat="44.42619" lon="3.74023">
        <ele>1696.38</ele>
        <time>2022-08-06T08:28:21Z</time>
      </trkpt>
      <trkpt lat="44.42616" lon="3.73998">
        <ele>1698.79</ele>
        <time>2022-08-06T08:28:36Z</time>
      </trkpt>
      <trkpt lat="44.42614" lon="3.73977">
        <ele>1699.75</ele>
        <time>2022-08-06T08:28:48Z</time>
      </trkpt>
      <trkpt lat="44.42613" lon="3.73969">
        <ele>1699.27</ele>
        <time>2022-08-06T08:28:53Z</time>
      </trkpt>
      <trkpt lat="44.42612" lon="3.7396">
        <ele>1699.27</ele>
        <time>2022-08-06T08:28:59Z</time>
      </trkpt>
      <trkpt lat="44.42611" lon="3.7394">
        <ele>1699.27</ele>
        <time>2022-08-06T08:29:12Z</time>
      </trkpt>
      <trkpt lat="44.4261" lon="3.73936">
        <ele>1699.27</ele>
        <time>2022-08-06T08:29:15Z</time>
      </trkpt>
      <trkpt lat="44.42603" lon="3.73917">
        <ele>1698.79</ele>
        <time>2022-08-06T08:29:33Z</time>
      </trkpt>
      <trkpt lat="44.42603" lon="3.73918">
        <ele>1697.34</ele>
        <time>2022-08-06T08:29:53Z</time>
      </trkpt>
      <trkpt lat="44.42601" lon="3.73924">
        <ele>1696.38</ele>
        <time>2022-08-06T08:30:13Z</time>
      </trkpt>
      <trkpt lat="44.42601" lon="3.73918">
        <ele>1696.38</ele>
        <time>2022-08-06T08:30:27Z</time>
      </trkpt>
      <trkpt lat="44.42599" lon="3.73918">
        <ele>1695.42</ele>
        <time>2022-08-06T08:30:51Z</time>
      </trkpt>
      <trkpt lat="44.42598" lon="3.73919">
        <ele>1696.38</ele>
        <time>2022-08-06T08:31:17Z</time>
      </trkpt>
      <trkpt lat="44.426" lon="3.73918">
        <ele>1695.42</ele>
        <time>2022-08-06T08:31:34Z</time>
      </trkpt>
      <trkpt lat="44.426" lon="3.73916">
        <ele>1694.94</ele>
        <time>2022-08-06T08:31:59Z</time>
      </trkpt>
      <trkpt lat="44.426" lon="3.73916">
        <ele>1695.9</ele>
        <time>2022-08-06T08:32:14Z</time>
      </trkpt>
      <trkpt lat="44.426" lon="3.73914">
        <ele>1694.94</ele>
        <time>2022-08-06T08:32:33Z</time>
      </trkpt>
      <trkpt lat="44.42599" lon="3.73914">
        <ele>1695.42</ele>
        <time>2022-08-06T08:32:50Z</time>
      </trkpt>
      <trkpt lat="44.42598" lon="3.73914">
        <ele>1695.9</ele>
        <time>2022-08-06T08:33:12Z</time>
      </trkpt>
      <trkpt lat="44.42597" lon="3.73915">
        <ele>1694.94</ele>
        <time>2022-08-06T08:33:32Z</time>
      </trkpt>
      <trkpt lat="44.42597" lon="3.73915">
        <ele>1695.42</ele>
        <time>2022-08-06T08:33:51Z</time>
      </trkpt>
      <trkpt lat="44.42598" lon="3.73914">
        <ele>1694.46</ele>
        <time>2022-08-06T08:34:12Z</time>
      </trkpt>
      <trkpt lat="44.42604" lon="3.73911">
        <ele>1693.5</ele>
        <time>2022-08-06T08:34:36Z</time>
      </trkpt>
      <trkpt lat="44.42603" lon="3.73911">
        <ele>1695.42</ele>
        <time>2022-08-06T08:34:49Z</time>
      </trkpt>
      <trkpt lat="44.42603" lon="3.73911">
        <ele>1696.38</ele>
        <time>2022-08-06T08:34:55Z</time>
      </trkpt>
      <trkpt lat="44.42603" lon="3.73909">
        <ele>1696.38</ele>
        <time>2022-08-06T08:35:06Z</time>
      </trkpt>
      <trkpt lat="44.42604" lon="3.73908">
        <ele>1698.79</ele>
        <time>2022-08-06T08:35:39Z</time>
      </trkpt>
      <trkpt lat="44.42605" lon="3.73909">
        <ele>1699.27</ele>
        <time>2022-08-06T08:36:04Z</time>
      </trkpt>
      <trkpt lat="44.42605" lon="3.73908">
        <ele>1699.27</ele>
        <time>2022-08-06T08:36:42Z</time>
      </trkpt>
      <trkpt lat="44.42605" lon="3.73908">
        <ele>1698.31</ele>
        <time>2022-08-06T08:37:24Z</time>
      </trkpt>
      <trkpt lat="44.42605" lon="3.73908">
        <ele>1698.31</ele>
        <time>2022-08-06T08:38:03Z</time>
      </trkpt>
      <trkpt lat="44.42605" lon="3.73908">
        <ele>1697.83</ele>
        <time>2022-08-06T08:38:47Z</time>
      </trkpt>
      <trkpt lat="44.42605" lon="3.73908">
        <ele>1697.83</ele>
        <time>2022-08-06T08:39:27Z</time>
      </trkpt>
      <trkpt lat="44.42605" lon="3.73908">
        <ele>1697.83</ele>
        <time>2022-08-06T08:40:14Z</time>
      </trkpt>
      <trkpt lat="44.42605" lon="3.73908">
        <ele>1697.83</ele>
        <time>2022-08-06T08:40:55Z</time>
      </trkpt>
      <trkpt lat="44.42605" lon="3.73908">
        <ele>1698.31</ele>
        <time>2022-08-06T08:41:28Z</time>
      </trkpt>
      <trkpt lat="44.42604" lon="3.73908">
        <ele>1698.79</ele>
        <time>2022-08-06T08:42:09Z</time>
      </trkpt>
      <trkpt lat="44.42603" lon="3.73908">
        <ele>1697.83</ele>
        <time>2022-08-06T08:42:38Z</time>
      </trkpt>
      <trkpt lat="44.42603" lon="3.73908">
        <ele>1697.34</ele>
        <time>2022-08-06T08:43:03Z</time>
      </trkpt>
      <trkpt lat="44.42604" lon="3.73908">
        <ele>1698.31</ele>
        <time>2022-08-06T08:43:32Z</time>
      </trkpt>
      <trkpt lat="44.42604" lon="3.73907">
        <ele>1698.79</ele>
        <time>2022-08-06T08:44:09Z</time>
      </trkpt>
      <trkpt lat="44.42603" lon="3.73908">
        <ele>1698.79</ele>
        <time>2022-08-06T08:44:45Z</time>
      </trkpt>
      <trkpt lat="44.42603" lon="3.73907">
        <ele>1698.79</ele>
        <time>2022-08-06T08:45:20Z</time>
      </trkpt>
      <trkpt lat="44.42603" lon="3.73908">
        <ele>1699.27</ele>
        <time>2022-08-06T08:46:07Z</time>
      </trkpt>
      <trkpt lat="44.42602" lon="3.73908">
        <ele>1698.79</ele>
        <time>2022-08-06T08:46:50Z</time>
      </trkpt>
      <trkpt lat="44.42602" lon="3.73908">
        <ele>1697.83</ele>
        <time>2022-08-06T08:47:25Z</time>
      </trkpt>
      <trkpt lat="44.42603" lon="3.73908">
        <ele>1695.9</ele>
        <time>2022-08-06T08:48:00Z</time>
      </trkpt>
      <trkpt lat="44.42603" lon="3.7391">
        <ele>1696.38</ele>
        <time>2022-08-06T08:48:33Z</time>
      </trkpt>
      <trkpt lat="44.42603" lon="3.7391">
        <ele>1695.42</ele>
        <time>2022-08-06T08:49:01Z</time>
      </trkpt>
      <trkpt lat="44.42603" lon="3.73909">
        <ele>1696.38</ele>
        <time>2022-08-06T08:49:19Z</time>
      </trkpt>
      <trkpt lat="44.42603" lon="3.7391">
        <ele>1695.9</ele>
        <time>2022-08-06T08:49:40Z</time>
      </trkpt>
      <trkpt lat="44.42603" lon="3.73909">
        <ele>1693.98</ele>
        <time>2022-08-06T08:50:05Z</time>
      </trkpt>
      <trkpt lat="44.42603" lon="3.73909">
        <ele>1693.5</ele>
        <time>2022-08-06T08:50:39Z</time>
      </trkpt>
      <trkpt lat="44.42603" lon="3.73911">
        <ele>1693.5</ele>
        <time>2022-08-06T08:51:03Z</time>
      </trkpt>
      <trkpt lat="44.42604" lon="3.7391">
        <ele>1694.94</ele>
        <time>2022-08-06T08:51:26Z</time>
      </trkpt>
      <trkpt lat="44.42604" lon="3.73911">
        <ele>1694.46</ele>
        <time>2022-08-06T08:51:50Z</time>
      </trkpt>
      <trkpt lat="44.42604" lon="3.7391">
        <ele>1693.98</ele>
        <time>2022-08-06T08:52:18Z</time>
      </trkpt>
      <trkpt lat="44.42602" lon="3.73912">
        <ele>1693.5</ele>
        <time>2022-08-06T08:52:26Z</time>
      </trkpt>
      <trkpt lat="44.42587" lon="3.73915">
        <ele>1693.5</ele>
        <time>2022-08-06T08:52:40Z</time>
      </trkpt>
      <trkpt lat="44.4257" lon="3.73909">
        <ele>1693.5</ele>
        <time>2022-08-06T08:52:56Z</time>
      </trkpt>
      <trkpt lat="44.42564" lon="3.73907">
        <ele>1693.02</ele>
        <time>2022-08-06T08:53:02Z</time>
      </trkpt>
      <trkpt lat="44.42547" lon="3.73903">
        <ele>1692.54</ele>
        <time>2022-08-06T08:53:17Z</time>
      </trkpt>
      <trkpt lat="44.42529" lon="3.73898">
        <ele>1692.06</ele>
        <time>2022-08-06T08:53:33Z</time>
      </trkpt>
      <trkpt lat="44.42512" lon="3.73893">
        <ele>1691.1</ele>
        <time>2022-08-06T08:53:49Z</time>
      </trkpt>
      <trkpt lat="44.42493" lon="3.73889">
        <ele>1689.65</ele>
        <time>2022-08-06T08:54:06Z</time>
      </trkpt>
      <trkpt lat="44.42479" lon="3.73885">
        <ele>1687.73</ele>
        <time>2022-08-06T08:54:20Z</time>
      </trkpt>
      <trkpt lat="44.42464" lon="3.73882">
        <ele>1686.29</ele>
        <time>2022-08-06T08:54:35Z</time>
      </trkpt>
      <trkpt lat="44.4245" lon="3.73879">
        <ele>1683.41</ele>
        <time>2022-08-06T08:54:49Z</time>
      </trkpt>
      <trkpt lat="44.42434" lon="3.73877">
        <ele>1681.48</ele>
        <time>2022-08-06T08:55:04Z</time>
      </trkpt>
      <trkpt lat="44.42416" lon="3.73876">
        <ele>1678.6</ele>
        <time>2022-08-06T08:55:21Z</time>
      </trkpt>
      <trkpt lat="44.42401" lon="3.73878">
        <ele>1677.16</ele>
        <time>2022-08-06T08:55:37Z</time>
      </trkpt>
      <trkpt lat="44.42395" lon="3.73879">
        <ele>1677.64</ele>
        <time>2022-08-06T08:55:42Z</time>
      </trkpt>
      <trkpt lat="44.42378" lon="3.7388">
        <ele>1677.16</ele>
        <time>2022-08-06T08:55:57Z</time>
      </trkpt>
      <trkpt lat="44.42362" lon="3.73881">
        <ele>1675.72</ele>
        <time>2022-08-06T08:56:12Z</time>
      </trkpt>
      <trkpt lat="44.42346" lon="3.73883">
        <ele>1673.79</ele>
        <time>2022-08-06T08:56:28Z</time>
      </trkpt>
      <trkpt lat="44.42328" lon="3.73886">
        <ele>1671.39</ele>
        <time>2022-08-06T08:56:45Z</time>
      </trkpt>
      <trkpt lat="44.42312" lon="3.7389">
        <ele>1668.51</ele>
        <time>2022-08-06T08:57:01Z</time>
      </trkpt>
      <trkpt lat="44.4231" lon="3.7389">
        <ele>1668.02</ele>
        <time>2022-08-06T08:57:03Z</time>
      </trkpt>
      <trkpt lat="44.42294" lon="3.73893">
        <ele>1664.66</ele>
        <time>2022-08-06T08:57:17Z</time>
      </trkpt>
      <trkpt lat="44.42277" lon="3.73896">
        <ele>1661.78</ele>
        <time>2022-08-06T08:57:34Z</time>
      </trkpt>
      <trkpt lat="44.42273" lon="3.73896">
        <ele>1660.81</ele>
        <time>2022-08-06T08:57:38Z</time>
      </trkpt>
      <trkpt lat="44.42268" lon="3.73893">
        <ele>1661.3</ele>
        <time>2022-08-06T08:57:47Z</time>
      </trkpt>
      <trkpt lat="44.42267" lon="3.73901">
        <ele>1660.81</ele>
        <time>2022-08-06T08:57:52Z</time>
      </trkpt>
      <trkpt lat="44.42265" lon="3.73927">
        <ele>1660.33</ele>
        <time>2022-08-06T08:58:07Z</time>
      </trkpt>
      <trkpt lat="44.42262" lon="3.73954">
        <ele>1658.41</ele>
        <time>2022-08-06T08:58:25Z</time>
      </trkpt>
      <trkpt lat="44.42257" lon="3.73985">
        <ele>1659.37</ele>
        <time>2022-08-06T08:58:47Z</time>
      </trkpt>
      <trkpt lat="44.42252" lon="3.74011">
        <ele>1660.81</ele>
        <time>2022-08-06T08:59:04Z</time>
      </trkpt>
      <trkpt lat="44.42245" lon="3.74035">
        <ele>1659.85</ele>
        <time>2022-08-06T08:59:19Z</time>
      </trkpt>
      <trkpt lat="44.42236" lon="3.74061">
        <ele>1657.93</ele>
        <time>2022-08-06T08:59:35Z</time>
      </trkpt>
      <trkpt lat="44.42226" lon="3.74082">
        <ele>1657.45</ele>
        <time>2022-08-06T08:59:49Z</time>
      </trkpt>
      <trkpt lat="44.42214" lon="3.74075">
        <ele>1656.49</ele>
        <time>2022-08-06T09:00:03Z</time>
      </trkpt>
      <trkpt lat="44.42205" lon="3.74064">
        <ele>1652.64</ele>
        <time>2022-08-06T09:00:17Z</time>
      </trkpt>
      <trkpt lat="44.42198" lon="3.74059">
        <ele>1651.2</ele>
        <time>2022-08-06T09:00:24Z</time>
      </trkpt>
      <trkpt lat="44.42193" lon="3.74064">
        <ele>1651.2</ele>
        <time>2022-08-06T09:00:30Z</time>
      </trkpt>
      <trkpt lat="44.4219" lon="3.74067">
        <ele>1650.72</ele>
        <time>2022-08-06T09:00:33Z</time>
      </trkpt>
      <trkpt lat="44.42173" lon="3.74079">
        <ele>1650.72</ele>
        <time>2022-08-06T09:00:49Z</time>
      </trkpt>
      <trkpt lat="44.42159" lon="3.74084">
        <ele>1651.2</ele>
        <time>2022-08-06T09:01:02Z</time>
      </trkpt>
      <trkpt lat="44.42157" lon="3.74085">
        <ele>1651.2</ele>
        <time>2022-08-06T09:01:04Z</time>
      </trkpt>
      <trkpt lat="44.42137" lon="3.7409">
        <ele>1650.72</ele>
        <time>2022-08-06T09:01:20Z</time>
      </trkpt>
      <trkpt lat="44.4212" lon="3.74095">
        <ele>1648.32</ele>
        <time>2022-08-06T09:01:36Z</time>
      </trkpt>
      <trkpt lat="44.42109" lon="3.74099">
        <ele>1648.32</ele>
        <time>2022-08-06T09:01:45Z</time>
      </trkpt>
      <trkpt lat="44.42093" lon="3.74099">
        <ele>1647.36</ele>
        <time>2022-08-06T09:01:59Z</time>
      </trkpt>
      <trkpt lat="44.42089" lon="3.741">
        <ele>1646.88</ele>
        <time>2022-08-06T09:02:02Z</time>
      </trkpt>
      <trkpt lat="44.42078" lon="3.74102">
        <ele>1646.4</ele>
        <time>2022-08-06T09:02:10Z</time>
      </trkpt>
      <trkpt lat="44.42063" lon="3.74105">
        <ele>1644.47</ele>
        <time>2022-08-06T09:02:24Z</time>
      </trkpt>
      <trkpt lat="44.42048" lon="3.74116">
        <ele>1643.99</ele>
        <time>2022-08-06T09:02:39Z</time>
      </trkpt>
      <trkpt lat="44.42045" lon="3.74114">
        <ele>1643.99</ele>
        <time>2022-08-06T09:02:56Z</time>
      </trkpt>
      <trkpt lat="44.42043" lon="3.74117">
        <ele>1643.99</ele>
        <time>2022-08-06T09:03:18Z</time>
      </trkpt>
      <trkpt lat="44.42041" lon="3.74121">
        <ele>1644.47</ele>
        <time>2022-08-06T09:03:33Z</time>
      </trkpt>
      <trkpt lat="44.42029" lon="3.74128">
        <ele>1643.99</ele>
        <time>2022-08-06T09:03:48Z</time>
      </trkpt>
      <trkpt lat="44.4202" lon="3.74134">
        <ele>1642.07</ele>
        <time>2022-08-06T09:04:00Z</time>
      </trkpt>
      <trkpt lat="44.42012" lon="3.74134">
        <ele>1639.19</ele>
        <time>2022-08-06T09:04:13Z</time>
      </trkpt>
      <trkpt lat="44.42001" lon="3.74131">
        <ele>1635.34</ele>
        <time>2022-08-06T09:04:30Z</time>
      </trkpt>
      <trkpt lat="44.41991" lon="3.74123">
        <ele>1631.98</ele>
        <time>2022-08-06T09:04:44Z</time>
      </trkpt>
      <trkpt lat="44.41983" lon="3.74121">
        <ele>1628.13</ele>
        <time>2022-08-06T09:04:56Z</time>
      </trkpt>
      <trkpt lat="44.41977" lon="3.74123">
        <ele>1627.17</ele>
        <time>2022-08-06T09:05:02Z</time>
      </trkpt>
      <trkpt lat="44.41963" lon="3.74136">
        <ele>1628.13</ele>
        <time>2022-08-06T09:05:16Z</time>
      </trkpt>
      <trkpt lat="44.41948" lon="3.74143">
        <ele>1626.21</ele>
        <time>2022-08-06T09:05:32Z</time>
      </trkpt>
      <trkpt lat="44.41939" lon="3.74147">
        <ele>1624.28</ele>
        <time>2022-08-06T09:05:45Z</time>
      </trkpt>
      <trkpt lat="44.41927" lon="3.74146">
        <ele>1622.36</ele>
        <time>2022-08-06T09:05:59Z</time>
      </trkpt>
      <trkpt lat="44.41917" lon="3.74145">
        <ele>1618.52</ele>
        <time>2022-08-06T09:06:12Z</time>
      </trkpt>
      <trkpt lat="44.41909" lon="3.74143">
        <ele>1616.11</ele>
        <time>2022-08-06T09:06:22Z</time>
      </trkpt>
      <trkpt lat="44.41898" lon="3.74144">
        <ele>1611.31</ele>
        <time>2022-08-06T09:06:36Z</time>
      </trkpt>
      <trkpt lat="44.41886" lon="3.74143">
        <ele>1609.86</ele>
        <time>2022-08-06T09:06:50Z</time>
      </trkpt>
      <trkpt lat="44.41876" lon="3.74147">
        <ele>1605.06</ele>
        <time>2022-08-06T09:07:05Z</time>
      </trkpt>
      <trkpt lat="44.41867" lon="3.74156">
        <ele>1600.25</ele>
        <time>2022-08-06T09:07:18Z</time>
      </trkpt>
      <trkpt lat="44.41856" lon="3.74162">
        <ele>1598.33</ele>
        <time>2022-08-06T09:07:32Z</time>
      </trkpt>
      <trkpt lat="44.41844" lon="3.74169">
        <ele>1595.93</ele>
        <time>2022-08-06T09:07:45Z</time>
      </trkpt>
      <trkpt lat="44.4183" lon="3.74172">
        <ele>1593.04</ele>
        <time>2022-08-06T09:08:00Z</time>
      </trkpt>
      <trkpt lat="44.4182" lon="3.74181">
        <ele>1590.64</ele>
        <time>2022-08-06T09:08:13Z</time>
      </trkpt>
      <trkpt lat="44.4181" lon="3.74193">
        <ele>1585.35</ele>
        <time>2022-08-06T09:08:28Z</time>
      </trkpt>
      <trkpt lat="44.41803" lon="3.74205">
        <ele>1583.43</ele>
        <time>2022-08-06T09:08:42Z</time>
      </trkpt>
      <trkpt lat="44.41795" lon="3.74223">
        <ele>1583.91</ele>
        <time>2022-08-06T09:08:56Z</time>
      </trkpt>
      <trkpt lat="44.41789" lon="3.74236">
        <ele>1583.91</ele>
        <time>2022-08-06T09:09:08Z</time>
      </trkpt>
      <trkpt lat="44.41785" lon="3.74245">
        <ele>1582.95</ele>
        <time>2022-08-06T09:09:19Z</time>
      </trkpt>
      <trkpt lat="44.41777" lon="3.74265">
        <ele>1585.35</ele>
        <time>2022-08-06T09:09:33Z</time>
      </trkpt>
      <trkpt lat="44.41769" lon="3.74282">
        <ele>1581.99</ele>
        <time>2022-08-06T09:09:47Z</time>
      </trkpt>
      <trkpt lat="44.41767" lon="3.74288">
        <ele>1581.03</ele>
        <time>2022-08-06T09:09:52Z</time>
      </trkpt>
      <trkpt lat="44.41763" lon="3.74301">
        <ele>1581.03</ele>
        <time>2022-08-06T09:10:01Z</time>
      </trkpt>
      <trkpt lat="44.41753" lon="3.74317">
        <ele>1579.58</ele>
        <time>2022-08-06T09:10:14Z</time>
      </trkpt>
      <trkpt lat="44.41748" lon="3.7433">
        <ele>1578.14</ele>
        <time>2022-08-06T09:10:26Z</time>
      </trkpt>
      <trkpt lat="44.4174" lon="3.74345">
        <ele>1576.22</ele>
        <time>2022-08-06T09:10:42Z</time>
      </trkpt>
      <trkpt lat="44.41734" lon="3.74359">
        <ele>1576.22</ele>
        <time>2022-08-06T09:10:53Z</time>
      </trkpt>
      <trkpt lat="44.41726" lon="3.74367">
        <ele>1573.33</ele>
        <time>2022-08-06T09:11:08Z</time>
      </trkpt>
      <trkpt lat="44.41716" lon="3.74358">
        <ele>1569.97</ele>
        <time>2022-08-06T09:11:24Z</time>
      </trkpt>
      <trkpt lat="44.41714" lon="3.74356">
        <ele>1569.49</ele>
        <time>2022-08-06T09:11:26Z</time>
      </trkpt>
      <trkpt lat="44.41696" lon="3.74346">
        <ele>1567.57</ele>
        <time>2022-08-06T09:11:42Z</time>
      </trkpt>
      <trkpt lat="44.41686" lon="3.74342">
        <ele>1566.12</ele>
        <time>2022-08-06T09:11:55Z</time>
      </trkpt>
      <trkpt lat="44.41675" lon="3.74343">
        <ele>1564.2</ele>
        <time>2022-08-06T09:12:09Z</time>
      </trkpt>
      <trkpt lat="44.41655" lon="3.74331">
        <ele>1564.2</ele>
        <time>2022-08-06T09:12:24Z</time>
      </trkpt>
      <trkpt lat="44.41648" lon="3.74325">
        <ele>1558.43</ele>
        <time>2022-08-06T09:12:38Z</time>
      </trkpt>
      <trkpt lat="44.4164" lon="3.74305">
        <ele>1554.59</ele>
        <time>2022-08-06T09:12:53Z</time>
      </trkpt>
      <trkpt lat="44.41636" lon="3.74294">
        <ele>1553.15</ele>
        <time>2022-08-06T09:13:06Z</time>
      </trkpt>
      <trkpt lat="44.41625" lon="3.74265">
        <ele>1554.11</ele>
        <time>2022-08-06T09:13:23Z</time>
      </trkpt>
      <trkpt lat="44.41622" lon="3.74248">
        <ele>1550.26</ele>
        <time>2022-08-06T09:13:37Z</time>
      </trkpt>
      <trkpt lat="44.4161" lon="3.74226">
        <ele>1550.26</ele>
        <time>2022-08-06T09:13:54Z</time>
      </trkpt>
      <trkpt lat="44.41608" lon="3.74215">
        <ele>1546.9</ele>
        <time>2022-08-06T09:14:07Z</time>
      </trkpt>
      <trkpt lat="44.41604" lon="3.74206">
        <ele>1544.5</ele>
        <time>2022-08-06T09:14:19Z</time>
      </trkpt>
      <trkpt lat="44.41599" lon="3.74198">
        <ele>1543.53</ele>
        <time>2022-08-06T09:14:31Z</time>
      </trkpt>
      <trkpt lat="44.41592" lon="3.74175">
        <ele>1541.13</ele>
        <time>2022-08-06T09:14:45Z</time>
      </trkpt>
      <trkpt lat="44.41592" lon="3.74155">
        <ele>1539.69</ele>
        <time>2022-08-06T09:14:56Z</time>
      </trkpt>
      <trkpt lat="44.41586" lon="3.74136">
        <ele>1538.25</ele>
        <time>2022-08-06T09:15:11Z</time>
      </trkpt>
      <trkpt lat="44.41581" lon="3.74128">
        <ele>1533.44</ele>
        <time>2022-08-06T09:15:26Z</time>
      </trkpt>
      <trkpt lat="44.4158" lon="3.74127">
        <ele>1528.15</ele>
        <time>2022-08-06T09:16:05Z</time>
      </trkpt>
      <trkpt lat="44.41569" lon="3.74119">
        <ele>1525.27</ele>
        <time>2022-08-06T09:16:21Z</time>
      </trkpt>
      <trkpt lat="44.41562" lon="3.74109">
        <ele>1522.39</ele>
        <time>2022-08-06T09:16:35Z</time>
      </trkpt>
      <trkpt lat="44.41555" lon="3.7409">
        <ele>1518.54</ele>
        <time>2022-08-06T09:16:50Z</time>
      </trkpt>
      <trkpt lat="44.41549" lon="3.74075">
        <ele>1517.1</ele>
        <time>2022-08-06T09:17:03Z</time>
      </trkpt>
      <trkpt lat="44.41546" lon="3.74059">
        <ele>1515.66</ele>
        <time>2022-08-06T09:17:16Z</time>
      </trkpt>
      <trkpt lat="44.41542" lon="3.74042">
        <ele>1514.69</ele>
        <time>2022-08-06T09:17:31Z</time>
      </trkpt>
      <trkpt lat="44.41539" lon="3.74027">
        <ele>1511.33</ele>
        <time>2022-08-06T09:17:46Z</time>
      </trkpt>
      <trkpt lat="44.41537" lon="3.74008">
        <ele>1506.52</ele>
        <time>2022-08-06T09:18:02Z</time>
      </trkpt>
      <trkpt lat="44.41535" lon="3.73986">
        <ele>1504.6</ele>
        <time>2022-08-06T09:18:16Z</time>
      </trkpt>
      <trkpt lat="44.41536" lon="3.73966">
        <ele>1505.56</ele>
        <time>2022-08-06T09:18:29Z</time>
      </trkpt>
      <trkpt lat="44.41535" lon="3.73952">
        <ele>1504.6</ele>
        <time>2022-08-06T09:18:42Z</time>
      </trkpt>
      <trkpt lat="44.41535" lon="3.73932">
        <ele>1498.83</ele>
        <time>2022-08-06T09:18:57Z</time>
      </trkpt>
      <trkpt lat="44.41534" lon="3.73916">
        <ele>1495.47</ele>
        <time>2022-08-06T09:19:10Z</time>
      </trkpt>
      <trkpt lat="44.41528" lon="3.73898">
        <ele>1492.58</ele>
        <time>2022-08-06T09:19:26Z</time>
      </trkpt>
      <trkpt lat="44.41526" lon="3.7388">
        <ele>1486.82</ele>
        <time>2022-08-06T09:19:41Z</time>
      </trkpt>
      <trkpt lat="44.41528" lon="3.73859">
        <ele>1483.93</ele>
        <time>2022-08-06T09:19:56Z</time>
      </trkpt>
      <trkpt lat="44.41522" lon="3.73842">
        <ele>1480.09</ele>
        <time>2022-08-06T09:20:11Z</time>
      </trkpt>
      <trkpt lat="44.41515" lon="3.73836">
        <ele>1480.09</ele>
        <time>2022-08-06T09:20:20Z</time>
      </trkpt>
      <trkpt lat="44.41503" lon="3.73827">
        <ele>1481.05</ele>
        <time>2022-08-06T09:20:35Z</time>
      </trkpt>
      <trkpt lat="44.41499" lon="3.73812">
        <ele>1479.13</ele>
        <time>2022-08-06T09:20:47Z</time>
      </trkpt>
      <trkpt lat="44.41495" lon="3.73798">
        <ele>1474.32</ele>
        <time>2022-08-06T09:21:03Z</time>
      </trkpt>
      <trkpt lat="44.41492" lon="3.73785">
        <ele>1472.4</ele>
        <time>2022-08-06T09:21:17Z</time>
      </trkpt>
      <trkpt lat="44.41491" lon="3.73772">
        <ele>1469.51</ele>
        <time>2022-08-06T09:21:30Z</time>
      </trkpt>
      <trkpt lat="44.41494" lon="3.73761">
        <ele>1470.95</ele>
        <time>2022-08-06T09:21:40Z</time>
      </trkpt>
      <trkpt lat="44.41503" lon="3.73742">
        <ele>1472.88</ele>
        <time>2022-08-06T09:21:56Z</time>
      </trkpt>
      <trkpt lat="44.41513" lon="3.7372">
        <ele>1473.84</ele>
        <time>2022-08-06T09:22:09Z</time>
      </trkpt>
      <trkpt lat="44.41518" lon="3.73713">
        <ele>1473.84</ele>
        <time>2022-08-06T09:22:13Z</time>
      </trkpt>
      <trkpt lat="44.41521" lon="3.73704">
        <ele>1473.84</ele>
        <time>2022-08-06T09:22:19Z</time>
      </trkpt>
      <trkpt lat="44.41521" lon="3.73691">
        <ele>1473.84</ele>
        <time>2022-08-06T09:22:34Z</time>
      </trkpt>
      <trkpt lat="44.4151" lon="3.73696">
        <ele>1473.36</ele>
        <time>2022-08-06T09:22:47Z</time>
      </trkpt>
      <trkpt lat="44.41498" lon="3.73704">
        <ele>1472.88</ele>
        <time>2022-08-06T09:22:59Z</time>
      </trkpt>
      <trkpt lat="44.41479" lon="3.73716">
        <ele>1470.95</ele>
        <time>2022-08-06T09:23:16Z</time>
      </trkpt>
      <trkpt lat="44.41464" lon="3.73724">
        <ele>1469.51</ele>
        <time>2022-08-06T09:23:29Z</time>
      </trkpt>
      <trkpt lat="44.4145" lon="3.73729">
        <ele>1469.99</ele>
        <time>2022-08-06T09:23:41Z</time>
      </trkpt>
      <trkpt lat="44.41449" lon="3.73732">
        <ele>1469.99</ele>
        <time>2022-08-06T09:23:44Z</time>
      </trkpt>
      <trkpt lat="44.41429" lon="3.7374">
        <ele>1470.47</ele>
        <time>2022-08-06T09:24:00Z</time>
      </trkpt>
      <trkpt lat="44.41412" lon="3.73749">
        <ele>1468.07</ele>
        <time>2022-08-06T09:24:15Z</time>
      </trkpt>
      <trkpt lat="44.41396" lon="3.73755">
        <ele>1466.15</ele>
        <time>2022-08-06T09:24:30Z</time>
      </trkpt>
      <trkpt lat="44.41379" lon="3.73766">
        <ele>1469.03</ele>
        <time>2022-08-06T09:24:44Z</time>
      </trkpt>
      <trkpt lat="44.41363" lon="3.73773">
        <ele>1469.03</ele>
        <time>2022-08-06T09:24:57Z</time>
      </trkpt>
      <trkpt lat="44.41345" lon="3.73781">
        <ele>1467.11</ele>
        <time>2022-08-06T09:25:12Z</time>
      </trkpt>
      <trkpt lat="44.41329" lon="3.73791">
        <ele>1464.23</ele>
        <time>2022-08-06T09:25:26Z</time>
      </trkpt>
      <trkpt lat="44.41311" lon="3.73804">
        <ele>1461.34</ele>
        <time>2022-08-06T09:25:43Z</time>
      </trkpt>
      <trkpt lat="44.41295" lon="3.73825">
        <ele>1459.42</ele>
        <time>2022-08-06T09:25:59Z</time>
      </trkpt>
      <trkpt lat="44.41289" lon="3.73839">
        <ele>1458.46</ele>
        <time>2022-08-06T09:26:09Z</time>
      </trkpt>
      <trkpt lat="44.41283" lon="3.73862">
        <ele>1457.5</ele>
        <time>2022-08-06T09:26:23Z</time>
      </trkpt>
      <trkpt lat="44.41281" lon="3.7387">
        <ele>1457.02</ele>
        <time>2022-08-06T09:26:28Z</time>
      </trkpt>
      <trkpt lat="44.41273" lon="3.73883">
        <ele>1457.5</ele>
        <time>2022-08-06T09:26:38Z</time>
      </trkpt>
      <trkpt lat="44.41268" lon="3.7388">
        <ele>1456.05</ele>
        <time>2022-08-06T09:26:43Z</time>
      </trkpt>
      <trkpt lat="44.41255" lon="3.73858">
        <ele>1450.77</ele>
        <time>2022-08-06T09:27:00Z</time>
      </trkpt>
      <trkpt lat="44.41244" lon="3.73831">
        <ele>1448.84</ele>
        <time>2022-08-06T09:27:19Z</time>
      </trkpt>
      <trkpt lat="44.41236" lon="3.7381">
        <ele>1447.88</ele>
        <time>2022-08-06T09:27:34Z</time>
      </trkpt>
      <trkpt lat="44.41225" lon="3.7379">
        <ele>1446.44</ele>
        <time>2022-08-06T09:27:49Z</time>
      </trkpt>
      <trkpt lat="44.41215" lon="3.7377">
        <ele>1447.88</ele>
        <time>2022-08-06T09:28:05Z</time>
      </trkpt>
      <trkpt lat="44.41205" lon="3.73747">
        <ele>1448.84</ele>
        <time>2022-08-06T09:28:21Z</time>
      </trkpt>
      <trkpt lat="44.41199" lon="3.73728">
        <ele>1446.44</ele>
        <time>2022-08-06T09:28:34Z</time>
      </trkpt>
      <trkpt lat="44.41192" lon="3.73706">
        <ele>1446.44</ele>
        <time>2022-08-06T09:28:48Z</time>
      </trkpt>
      <trkpt lat="44.41184" lon="3.73685">
        <ele>1444.52</ele>
        <time>2022-08-06T09:29:01Z</time>
      </trkpt>
      <trkpt lat="44.41177" lon="3.73666">
        <ele>1445.48</ele>
        <time>2022-08-06T09:29:13Z</time>
      </trkpt>
      <trkpt lat="44.41168" lon="3.73642">
        <ele>1446.92</ele>
        <time>2022-08-06T09:29:28Z</time>
      </trkpt>
      <trkpt lat="44.41158" lon="3.73621">
        <ele>1445.48</ele>
        <time>2022-08-06T09:29:42Z</time>
      </trkpt>
      <trkpt lat="44.41151" lon="3.736">
        <ele>1443.08</ele>
        <time>2022-08-06T09:29:57Z</time>
      </trkpt>
      <trkpt lat="44.4114" lon="3.73577">
        <ele>1442.6</ele>
        <time>2022-08-06T09:30:13Z</time>
      </trkpt>
      <trkpt lat="44.41137" lon="3.73571">
        <ele>1443.08</ele>
        <time>2022-08-06T09:30:17Z</time>
      </trkpt>
      <trkpt lat="44.41127" lon="3.73549">
        <ele>1441.63</ele>
        <time>2022-08-06T09:30:32Z</time>
      </trkpt>
      <trkpt lat="44.41119" lon="3.73532">
        <ele>1439.71</ele>
        <time>2022-08-06T09:30:48Z</time>
      </trkpt>
      <trkpt lat="44.41104" lon="3.7351">
        <ele>1438.27</ele>
        <time>2022-08-06T09:31:03Z</time>
      </trkpt>
      <trkpt lat="44.41102" lon="3.73508">
        <ele>1438.27</ele>
        <time>2022-08-06T09:31:04Z</time>
      </trkpt>
      <trkpt lat="44.4109" lon="3.7349">
        <ele>1439.71</ele>
        <time>2022-08-06T09:31:18Z</time>
      </trkpt>
      <trkpt lat="44.41081" lon="3.73466">
        <ele>1440.19</ele>
        <time>2022-08-06T09:31:34Z</time>
      </trkpt>
      <trkpt lat="44.4107" lon="3.73447">
        <ele>1440.19</ele>
        <time>2022-08-06T09:31:49Z</time>
      </trkpt>
      <trkpt lat="44.41058" lon="3.73431">
        <ele>1438.27</ele>
        <time>2022-08-06T09:32:04Z</time>
      </trkpt>
      <trkpt lat="44.41046" lon="3.73414">
        <ele>1434.91</ele>
        <time>2022-08-06T09:32:17Z</time>
      </trkpt>
      <trkpt lat="44.41032" lon="3.73402">
        <ele>1432.5</ele>
        <time>2022-08-06T09:32:31Z</time>
      </trkpt>
      <trkpt lat="44.41017" lon="3.73392">
        <ele>1428.18</ele>
        <time>2022-08-06T09:32:45Z</time>
      </trkpt>
      <trkpt lat="44.41" lon="3.73385">
        <ele>1423.37</ele>
        <time>2022-08-06T09:33:01Z</time>
      </trkpt>
      <trkpt lat="44.40987" lon="3.73378">
        <ele>1419.52</ele>
        <time>2022-08-06T09:33:14Z</time>
      </trkpt>
      <trkpt lat="44.40964" lon="3.73366">
        <ele>1422.89</ele>
        <time>2022-08-06T09:33:28Z</time>
      </trkpt>
      <trkpt lat="44.40946" lon="3.73358">
        <ele>1422.41</ele>
        <time>2022-08-06T09:33:44Z</time>
      </trkpt>
      <trkpt lat="44.40932" lon="3.73351">
        <ele>1418.56</ele>
        <time>2022-08-06T09:33:58Z</time>
      </trkpt>
      <trkpt lat="44.40919" lon="3.73343">
        <ele>1412.79</ele>
        <time>2022-08-06T09:34:15Z</time>
      </trkpt>
      <trkpt lat="44.40912" lon="3.7334">
        <ele>1406.07</ele>
        <time>2022-08-06T09:34:29Z</time>
      </trkpt>
      <trkpt lat="44.40893" lon="3.73328">
        <ele>1403.66</ele>
        <time>2022-08-06T09:34:45Z</time>
      </trkpt>
      <trkpt lat="44.40868" lon="3.73307">
        <ele>1408.47</ele>
        <time>2022-08-06T09:35:02Z</time>
      </trkpt>
      <trkpt lat="44.40858" lon="3.73296">
        <ele>1407.03</ele>
        <time>2022-08-06T09:35:18Z</time>
      </trkpt>
      <trkpt lat="44.40851" lon="3.73283">
        <ele>1403.18</ele>
        <time>2022-08-06T09:35:32Z</time>
      </trkpt>
      <trkpt lat="44.4084" lon="3.73266">
        <ele>1402.22</ele>
        <time>2022-08-06T09:35:47Z</time>
      </trkpt>
      <trkpt lat="44.4082" lon="3.7324">
        <ele>1407.99</ele>
        <time>2022-08-06T09:36:03Z</time>
      </trkpt>
      <trkpt lat="44.40806" lon="3.73217">
        <ele>1410.87</ele>
        <time>2022-08-06T09:36:19Z</time>
      </trkpt>
      <trkpt lat="44.40793" lon="3.732">
        <ele>1408.47</ele>
        <time>2022-08-06T09:36:35Z</time>
      </trkpt>
      <trkpt lat="44.40778" lon="3.73179">
        <ele>1408.47</ele>
        <time>2022-08-06T09:36:52Z</time>
      </trkpt>
      <trkpt lat="44.40754" lon="3.73162">
        <ele>1408.47</ele>
        <time>2022-08-06T09:37:09Z</time>
      </trkpt>
      <trkpt lat="44.40735" lon="3.73154">
        <ele>1403.18</ele>
        <time>2022-08-06T09:37:26Z</time>
      </trkpt>
      <trkpt lat="44.40717" lon="3.7315">
        <ele>1400.78</ele>
        <time>2022-08-06T09:37:41Z</time>
      </trkpt>
      <trkpt lat="44.40699" lon="3.73144">
        <ele>1399.34</ele>
        <time>2022-08-06T09:37:57Z</time>
      </trkpt>
      <trkpt lat="44.40681" lon="3.7314">
        <ele>1399.82</ele>
        <time>2022-08-06T09:38:12Z</time>
      </trkpt>
      <trkpt lat="44.40655" lon="3.73133">
        <ele>1402.22</ele>
        <time>2022-08-06T09:38:31Z</time>
      </trkpt>
      <trkpt lat="44.40633" lon="3.73126">
        <ele>1403.18</ele>
        <time>2022-08-06T09:38:48Z</time>
      </trkpt>
      <trkpt lat="44.4061" lon="3.73126">
        <ele>1406.07</ele>
        <time>2022-08-06T09:39:05Z</time>
      </trkpt>
      <trkpt lat="44.40591" lon="3.73128">
        <ele>1407.99</ele>
        <time>2022-08-06T09:39:20Z</time>
      </trkpt>
      <trkpt lat="44.40571" lon="3.73129">
        <ele>1409.91</ele>
        <time>2022-08-06T09:39:36Z</time>
      </trkpt>
      <trkpt lat="44.40555" lon="3.73129">
        <ele>1409.91</ele>
        <time>2022-08-06T09:39:52Z</time>
      </trkpt>
      <trkpt lat="44.40552" lon="3.73126">
        <ele>1408.95</ele>
        <time>2022-08-06T09:39:57Z</time>
      </trkpt>
      <trkpt lat="44.40549" lon="3.73107">
        <ele>1406.07</ele>
        <time>2022-08-06T09:40:12Z</time>
      </trkpt>
      <trkpt lat="44.40545" lon="3.73077">
        <ele>1399.82</ele>
        <time>2022-08-06T09:40:30Z</time>
      </trkpt>
      <trkpt lat="44.40544" lon="3.73052">
        <ele>1395.01</ele>
        <time>2022-08-06T09:40:46Z</time>
      </trkpt>
      <trkpt lat="44.40549" lon="3.73029">
        <ele>1391.65</ele>
        <time>2022-08-06T09:41:01Z</time>
      </trkpt>
      <trkpt lat="44.40552" lon="3.73003">
        <ele>1388.28</ele>
        <time>2022-08-06T09:41:17Z</time>
      </trkpt>
      <trkpt lat="44.40549" lon="3.72978">
        <ele>1382.51</ele>
        <time>2022-08-06T09:41:34Z</time>
      </trkpt>
      <trkpt lat="44.4055" lon="3.72961">
        <ele>1382.99</ele>
        <time>2022-08-06T09:41:47Z</time>
      </trkpt>
      <trkpt lat="44.40544" lon="3.72956">
        <ele>1384.92</ele>
        <time>2022-08-06T09:42:01Z</time>
      </trkpt>
      <trkpt lat="44.40529" lon="3.7295">
        <ele>1384.44</ele>
        <time>2022-08-06T09:42:17Z</time>
      </trkpt>
      <trkpt lat="44.40519" lon="3.72942">
        <ele>1386.36</ele>
        <time>2022-08-06T09:42:30Z</time>
      </trkpt>
      <trkpt lat="44.4051" lon="3.72936">
        <ele>1385.4</ele>
        <time>2022-08-06T09:42:43Z</time>
      </trkpt>
      <trkpt lat="44.40499" lon="3.72932">
        <ele>1384.44</ele>
        <time>2022-08-06T09:42:56Z</time>
      </trkpt>
      <trkpt lat="44.40487" lon="3.72924">
        <ele>1383.96</ele>
        <time>2022-08-06T09:43:07Z</time>
      </trkpt>
      <trkpt lat="44.40483" lon="3.7292">
        <ele>1383.47</ele>
        <time>2022-08-06T09:43:25Z</time>
      </trkpt>
      <trkpt lat="44.40483" lon="3.7292">
        <ele>1383.96</ele>
        <time>2022-08-06T09:43:40Z</time>
      </trkpt>
      <trkpt lat="44.40479" lon="3.7292">
        <ele>1382.99</ele>
        <time>2022-08-06T09:44:04Z</time>
      </trkpt>
      <trkpt lat="44.40467" lon="3.72918">
        <ele>1379.63</ele>
        <time>2022-08-06T09:44:19Z</time>
      </trkpt>
      <trkpt lat="44.40452" lon="3.72913">
        <ele>1379.63</ele>
        <time>2022-08-06T09:44:33Z</time>
      </trkpt>
      <trkpt lat="44.4044" lon="3.72909">
        <ele>1375.78</ele>
        <time>2022-08-06T09:44:46Z</time>
      </trkpt>
      <trkpt lat="44.4043" lon="3.72909">
        <ele>1369.54</ele>
        <time>2022-08-06T09:45:01Z</time>
      </trkpt>
      <trkpt lat="44.40419" lon="3.72908">
        <ele>1367.13</ele>
        <time>2022-08-06T09:45:14Z</time>
      </trkpt>
      <trkpt lat="44.40408" lon="3.72904">
        <ele>1367.61</ele>
        <time>2022-08-06T09:45:25Z</time>
      </trkpt>
      <trkpt lat="44.40394" lon="3.72899">
        <ele>1370.98</ele>
        <time>2022-08-06T09:45:38Z</time>
      </trkpt>
      <trkpt lat="44.40391" lon="3.72898">
        <ele>1370.98</ele>
        <time>2022-08-06T09:45:41Z</time>
      </trkpt>
      <trkpt lat="44.40376" lon="3.72897">
        <ele>1372.42</ele>
        <time>2022-08-06T09:45:54Z</time>
      </trkpt>
      <trkpt lat="44.40365" lon="3.72896">
        <ele>1375.78</ele>
        <time>2022-08-06T09:46:07Z</time>
      </trkpt>
      <trkpt lat="44.40361" lon="3.72892">
        <ele>1377.23</ele>
        <time>2022-08-06T09:46:18Z</time>
      </trkpt>
      <trkpt lat="44.4036" lon="3.7289">
        <ele>1377.23</ele>
        <time>2022-08-06T09:46:20Z</time>
      </trkpt>
      <trkpt lat="44.40345" lon="3.72884">
        <ele>1375.3</ele>
        <time>2022-08-06T09:46:35Z</time>
      </trkpt>
      <trkpt lat="44.40333" lon="3.72881">
        <ele>1374.34</ele>
        <time>2022-08-06T09:46:48Z</time>
      </trkpt>
      <trkpt lat="44.40318" lon="3.72877">
        <ele>1373.38</ele>
        <time>2022-08-06T09:47:03Z</time>
      </trkpt>
      <trkpt lat="44.40308" lon="3.72879">
        <ele>1370.98</ele>
        <time>2022-08-06T09:47:14Z</time>
      </trkpt>
      <trkpt lat="44.40294" lon="3.72878">
        <ele>1368.09</ele>
        <time>2022-08-06T09:47:29Z</time>
      </trkpt>
      <trkpt lat="44.40284" lon="3.72883">
        <ele>1365.69</ele>
        <time>2022-08-06T09:47:44Z</time>
      </trkpt>
      <trkpt lat="44.40273" lon="3.72885">
        <ele>1363.29</ele>
        <time>2022-08-06T09:47:57Z</time>
      </trkpt>
      <trkpt lat="44.4027" lon="3.72886">
        <ele>1362.33</ele>
        <time>2022-08-06T09:48:00Z</time>
      </trkpt>
      <trkpt lat="44.40254" lon="3.72883">
        <ele>1360.88</ele>
        <time>2022-08-06T09:48:15Z</time>
      </trkpt>
      <trkpt lat="44.4024" lon="3.72884">
        <ele>1359.44</ele>
        <time>2022-08-06T09:48:27Z</time>
      </trkpt>
      <trkpt lat="44.40234" lon="3.72885">
        <ele>1359.44</ele>
        <time>2022-08-06T09:48:33Z</time>
      </trkpt>
      <trkpt lat="44.4023" lon="3.72886">
        <ele>1358.96</ele>
        <time>2022-08-06T09:48:37Z</time>
      </trkpt>
      <trkpt lat="44.40225" lon="3.72889">
        <ele>1358.48</ele>
        <time>2022-08-06T09:48:42Z</time>
      </trkpt>
      <trkpt lat="44.40212" lon="3.72895">
        <ele>1357.52</ele>
        <time>2022-08-06T09:48:53Z</time>
      </trkpt>
      <trkpt lat="44.40197" lon="3.72905">
        <ele>1356.08</ele>
        <time>2022-08-06T09:49:08Z</time>
      </trkpt>
      <trkpt lat="44.40193" lon="3.72911">
        <ele>1356.08</ele>
        <time>2022-08-06T09:49:13Z</time>
      </trkpt>
      <trkpt lat="44.40195" lon="3.72935">
        <ele>1353.67</ele>
        <time>2022-08-06T09:49:29Z</time>
      </trkpt>
      <trkpt lat="44.40193" lon="3.72961">
        <ele>1350.31</ele>
        <time>2022-08-06T09:49:46Z</time>
      </trkpt>
      <trkpt lat="44.40193" lon="3.72968">
        <ele>1349.83</ele>
        <time>2022-08-06T09:49:50Z</time>
      </trkpt>
      <trkpt lat="44.40195" lon="3.72984">
        <ele>1347.43</ele>
        <time>2022-08-06T09:50:01Z</time>
      </trkpt>
      <trkpt lat="44.40199" lon="3.72999">
        <ele>1345.5</ele>
        <time>2022-08-06T09:50:11Z</time>
      </trkpt>
      <trkpt lat="44.40199" lon="3.7302">
        <ele>1343.1</ele>
        <time>2022-08-06T09:50:25Z</time>
      </trkpt>
      <trkpt lat="44.40204" lon="3.73042">
        <ele>1341.66</ele>
        <time>2022-08-06T09:50:41Z</time>
      </trkpt>
      <trkpt lat="44.40207" lon="3.7306">
        <ele>1339.25</ele>
        <time>2022-08-06T09:50:53Z</time>
      </trkpt>
      <trkpt lat="44.40208" lon="3.73077">
        <ele>1336.85</ele>
        <time>2022-08-06T09:51:04Z</time>
      </trkpt>
      <trkpt lat="44.40205" lon="3.73091">
        <ele>1335.89</ele>
        <time>2022-08-06T09:51:13Z</time>
      </trkpt>
      <trkpt lat="44.402" lon="3.73114">
        <ele>1335.89</ele>
        <time>2022-08-06T09:51:28Z</time>
      </trkpt>
      <trkpt lat="44.40194" lon="3.73145">
        <ele>1333.97</ele>
        <time>2022-08-06T09:51:47Z</time>
      </trkpt>
      <trkpt lat="44.40191" lon="3.73165">
        <ele>1332.04</ele>
        <time>2022-08-06T09:52:00Z</time>
      </trkpt>
      <trkpt lat="44.40186" lon="3.73189">
        <ele>1331.56</ele>
        <time>2022-08-06T09:52:15Z</time>
      </trkpt>
      <trkpt lat="44.40179" lon="3.73215">
        <ele>1333.49</ele>
        <time>2022-08-06T09:52:31Z</time>
      </trkpt>
      <trkpt lat="44.40171" lon="3.73235">
        <ele>1332.52</ele>
        <time>2022-08-06T09:52:46Z</time>
      </trkpt>
      <trkpt lat="44.40161" lon="3.73256">
        <ele>1331.56</ele>
        <time>2022-08-06T09:53:01Z</time>
      </trkpt>
      <trkpt lat="44.40153" lon="3.73279">
        <ele>1327.24</ele>
        <time>2022-08-06T09:53:17Z</time>
      </trkpt>
      <trkpt lat="44.40146" lon="3.73304">
        <ele>1326.28</ele>
        <time>2022-08-06T09:53:34Z</time>
      </trkpt>
      <trkpt lat="44.40144" lon="3.7331">
        <ele>1326.28</ele>
        <time>2022-08-06T09:53:38Z</time>
      </trkpt>
      <trkpt lat="44.4014" lon="3.73338">
        <ele>1323.87</ele>
        <time>2022-08-06T09:53:56Z</time>
      </trkpt>
      <trkpt lat="44.40136" lon="3.73364">
        <ele>1320.99</ele>
        <time>2022-08-06T09:54:12Z</time>
      </trkpt>
      <trkpt lat="44.40134" lon="3.73376">
        <ele>1319.07</ele>
        <time>2022-08-06T09:54:20Z</time>
      </trkpt>
      <trkpt lat="44.40134" lon="3.73398">
        <ele>1315.7</ele>
        <time>2022-08-06T09:54:33Z</time>
      </trkpt>
      <trkpt lat="44.40135" lon="3.73403">
        <ele>1314.74</ele>
        <time>2022-08-06T09:54:36Z</time>
      </trkpt>
      <trkpt lat="44.40133" lon="3.7343">
        <ele>1313.3</ele>
        <time>2022-08-06T09:54:53Z</time>
      </trkpt>
      <trkpt lat="44.40134" lon="3.73453">
        <ele>1313.78</ele>
        <time>2022-08-06T09:55:07Z</time>
      </trkpt>
      <trkpt lat="44.4014" lon="3.73471">
        <ele>1312.34</ele>
        <time>2022-08-06T09:55:20Z</time>
      </trkpt>
      <trkpt lat="44.40147" lon="3.73495">
        <ele>1310.41</ele>
        <time>2022-08-06T09:55:36Z</time>
      </trkpt>
      <trkpt lat="44.40153" lon="3.73524">
        <ele>1308.97</ele>
        <time>2022-08-06T09:55:53Z</time>
      </trkpt>
      <trkpt lat="44.40156" lon="3.73538">
        <ele>1308.49</ele>
        <time>2022-08-06T09:56:01Z</time>
      </trkpt>
      <trkpt lat="44.40156" lon="3.73568">
        <ele>1305.13</ele>
        <time>2022-08-06T09:56:20Z</time>
      </trkpt>
      <trkpt lat="44.40153" lon="3.73593">
        <ele>1303.2</ele>
        <time>2022-08-06T09:56:35Z</time>
      </trkpt>
      <trkpt lat="44.40151" lon="3.73619">
        <ele>1300.8</ele>
        <time>2022-08-06T09:56:50Z</time>
      </trkpt>
      <trkpt lat="44.40149" lon="3.73647">
        <ele>1297.92</ele>
        <time>2022-08-06T09:57:06Z</time>
      </trkpt>
      <trkpt lat="44.40149" lon="3.7367">
        <ele>1296.48</ele>
        <time>2022-08-06T09:57:19Z</time>
      </trkpt>
      <trkpt lat="44.40148" lon="3.73694">
        <ele>1294.07</ele>
        <time>2022-08-06T09:57:33Z</time>
      </trkpt>
      <trkpt lat="44.40149" lon="3.73722">
        <ele>1293.11</ele>
        <time>2022-08-06T09:57:50Z</time>
      </trkpt>
      <trkpt lat="44.40154" lon="3.73747">
        <ele>1290.23</ele>
        <time>2022-08-06T09:58:06Z</time>
      </trkpt>
      <trkpt lat="44.40159" lon="3.7377">
        <ele>1288.3</ele>
        <time>2022-08-06T09:58:20Z</time>
      </trkpt>
      <trkpt lat="44.40162" lon="3.73778">
        <ele>1287.34</ele>
        <time>2022-08-06T09:58:26Z</time>
      </trkpt>
      <trkpt lat="44.40166" lon="3.73803">
        <ele>1286.38</ele>
        <time>2022-08-06T09:58:43Z</time>
      </trkpt>
      <trkpt lat="44.40169" lon="3.73829">
        <ele>1283.02</ele>
        <time>2022-08-06T09:58:59Z</time>
      </trkpt>
      <trkpt lat="44.40171" lon="3.73853">
        <ele>1278.69</ele>
        <time>2022-08-06T09:59:14Z</time>
      </trkpt>
      <trkpt lat="44.40177" lon="3.73876">
        <ele>1276.29</ele>
        <time>2022-08-06T09:59:30Z</time>
      </trkpt>
      <trkpt lat="44.40181" lon="3.739">
        <ele>1272.92</ele>
        <time>2022-08-06T09:59:45Z</time>
      </trkpt>
      <trkpt lat="44.40185" lon="3.73919">
        <ele>1270.52</ele>
        <time>2022-08-06T09:59:58Z</time>
      </trkpt>
      <trkpt lat="44.40189" lon="3.73944">
        <ele>1268.6</ele>
        <time>2022-08-06T10:00:13Z</time>
      </trkpt>
      <trkpt lat="44.40194" lon="3.73972">
        <ele>1266.67</ele>
        <time>2022-08-06T10:00:31Z</time>
      </trkpt>
      <trkpt lat="44.40198" lon="3.73989">
        <ele>1265.71</ele>
        <time>2022-08-06T10:00:45Z</time>
      </trkpt>
      <trkpt lat="44.40202" lon="3.74014">
        <ele>1263.31</ele>
        <time>2022-08-06T10:01:01Z</time>
      </trkpt>
      <trkpt lat="44.40204" lon="3.74017">
        <ele>1262.83</ele>
        <time>2022-08-06T10:01:03Z</time>
      </trkpt>
      <trkpt lat="44.40206" lon="3.74031">
        <ele>1262.83</ele>
        <time>2022-08-06T10:01:17Z</time>
      </trkpt>
      <trkpt lat="44.40218" lon="3.74049">
        <ele>1262.35</ele>
        <time>2022-08-06T10:01:32Z</time>
      </trkpt>
      <trkpt lat="44.40233" lon="3.74065">
        <ele>1262.35</ele>
        <time>2022-08-06T10:01:47Z</time>
      </trkpt>
      <trkpt lat="44.40244" lon="3.74077">
        <ele>1262.35</ele>
        <time>2022-08-06T10:01:59Z</time>
      </trkpt>
      <trkpt lat="44.40259" lon="3.74089">
        <ele>1262.35</ele>
        <time>2022-08-06T10:02:13Z</time>
      </trkpt>
      <trkpt lat="44.40262" lon="3.7409">
        <ele>1262.35</ele>
        <time>2022-08-06T10:02:15Z</time>
      </trkpt>
      <trkpt lat="44.40273" lon="3.74103">
        <ele>1259.94</ele>
        <time>2022-08-06T10:02:28Z</time>
      </trkpt>
      <trkpt lat="44.40277" lon="3.74112">
        <ele>1259.46</ele>
        <time>2022-08-06T10:02:34Z</time>
      </trkpt>
      <trkpt lat="44.40288" lon="3.74137">
        <ele>1257.54</ele>
        <time>2022-08-06T10:02:51Z</time>
      </trkpt>
      <trkpt lat="44.40298" lon="3.74162">
        <ele>1256.58</ele>
        <time>2022-08-06T10:03:07Z</time>
      </trkpt>
      <trkpt lat="44.40307" lon="3.74181">
        <ele>1256.1</ele>
        <time>2022-08-06T10:03:19Z</time>
      </trkpt>
      <trkpt lat="44.40322" lon="3.74199">
        <ele>1255.62</ele>
        <time>2022-08-06T10:03:35Z</time>
      </trkpt>
      <trkpt lat="44.40328" lon="3.74209">
        <ele>1255.62</ele>
        <time>2022-08-06T10:03:42Z</time>
      </trkpt>
      <trkpt lat="44.40334" lon="3.74217">
        <ele>1255.14</ele>
        <time>2022-08-06T10:03:48Z</time>
      </trkpt>
      <trkpt lat="44.40348" lon="3.74232">
        <ele>1256.58</ele>
        <time>2022-08-06T10:04:03Z</time>
      </trkpt>
      <trkpt lat="44.40359" lon="3.74254">
        <ele>1255.62</ele>
        <time>2022-08-06T10:04:19Z</time>
      </trkpt>
      <trkpt lat="44.40371" lon="3.74269">
        <ele>1255.14</ele>
        <time>2022-08-06T10:04:33Z</time>
      </trkpt>
      <trkpt lat="44.40389" lon="3.74283">
        <ele>1254.18</ele>
        <time>2022-08-06T10:04:50Z</time>
      </trkpt>
      <trkpt lat="44.40405" lon="3.74291">
        <ele>1252.25</ele>
        <time>2022-08-06T10:05:05Z</time>
      </trkpt>
      <trkpt lat="44.40412" lon="3.743">
        <ele>1252.74</ele>
        <time>2022-08-06T10:05:13Z</time>
      </trkpt>
      <trkpt lat="44.40425" lon="3.74326">
        <ele>1250.33</ele>
        <time>2022-08-06T10:05:31Z</time>
      </trkpt>
      <trkpt lat="44.40431" lon="3.74348">
        <ele>1249.37</ele>
        <time>2022-08-06T10:05:46Z</time>
      </trkpt>
      <trkpt lat="44.40432" lon="3.74372">
        <ele>1246.97</ele>
        <time>2022-08-06T10:06:01Z</time>
      </trkpt>
      <trkpt lat="44.40433" lon="3.74383">
        <ele>1240.72</ele>
        <time>2022-08-06T10:06:09Z</time>
      </trkpt>
      <trkpt lat="44.40425" lon="3.74404">
        <ele>1242.64</ele>
        <time>2022-08-06T10:06:25Z</time>
      </trkpt>
      <trkpt lat="44.40422" lon="3.7441">
        <ele>1243.6</ele>
        <time>2022-08-06T10:06:30Z</time>
      </trkpt>
      <trkpt lat="44.40418" lon="3.74415">
        <ele>1243.12</ele>
        <time>2022-08-06T10:06:34Z</time>
      </trkpt>
      <trkpt lat="44.40414" lon="3.74424">
        <ele>1243.12</ele>
        <time>2022-08-06T10:06:41Z</time>
      </trkpt>
      <trkpt lat="44.40421" lon="3.74442">
        <ele>1241.68</ele>
        <time>2022-08-06T10:06:55Z</time>
      </trkpt>
      <trkpt lat="44.40421" lon="3.74446">
        <ele>1242.64</ele>
        <time>2022-08-06T10:06:58Z</time>
      </trkpt>
      <trkpt lat="44.40423" lon="3.74467">
        <ele>1245.04</ele>
        <time>2022-08-06T10:07:12Z</time>
      </trkpt>
      <trkpt lat="44.4042" lon="3.74475">
        <ele>1245.04</ele>
        <time>2022-08-06T10:07:17Z</time>
      </trkpt>
      <trkpt lat="44.40412" lon="3.74495">
        <ele>1242.16</ele>
        <time>2022-08-06T10:07:30Z</time>
      </trkpt>
      <trkpt lat="44.40404" lon="3.74507">
        <ele>1235.91</ele>
        <time>2022-08-06T10:07:47Z</time>
      </trkpt>
      <trkpt lat="44.40401" lon="3.74502">
        <ele>1234.47</ele>
        <time>2022-08-06T10:08:10Z</time>
      </trkpt>
      <trkpt lat="44.40403" lon="3.74504">
        <ele>1231.59</ele>
        <time>2022-08-06T10:08:26Z</time>
      </trkpt>
      <trkpt lat="44.40402" lon="3.74503">
        <ele>1232.55</ele>
        <time>2022-08-06T10:08:44Z</time>
      </trkpt>
      <trkpt lat="44.40402" lon="3.74505">
        <ele>1236.39</ele>
        <time>2022-08-06T10:09:08Z</time>
      </trkpt>
      <trkpt lat="44.40404" lon="3.74503">
        <ele>1238.32</ele>
        <time>2022-08-06T10:09:35Z</time>
      </trkpt>
      <trkpt lat="44.40397" lon="3.74499">
        <ele>1236.87</ele>
        <time>2022-08-06T10:09:57Z</time>
      </trkpt>
      <trkpt lat="44.40394" lon="3.74501">
        <ele>1233.99</ele>
        <time>2022-08-06T10:10:10Z</time>
      </trkpt>
      <trkpt lat="44.404" lon="3.74509">
        <ele>1235.91</ele>
        <time>2022-08-06T10:10:36Z</time>
      </trkpt>
      <trkpt lat="44.40396" lon="3.74508">
        <ele>1233.99</ele>
        <time>2022-08-06T10:10:54Z</time>
      </trkpt>
      <trkpt lat="44.40393" lon="3.74508">
        <ele>1235.43</ele>
        <time>2022-08-06T10:11:18Z</time>
      </trkpt>
      <trkpt lat="44.40391" lon="3.74511">
        <ele>1235.43</ele>
        <time>2022-08-06T10:11:23Z</time>
      </trkpt>
      <trkpt lat="44.40383" lon="3.74525">
        <ele>1235.43</ele>
        <time>2022-08-06T10:11:38Z</time>
      </trkpt>
      <trkpt lat="44.40374" lon="3.74529">
        <ele>1235.91</ele>
        <time>2022-08-06T10:11:50Z</time>
      </trkpt>
      <trkpt lat="44.40359" lon="3.74537">
        <ele>1233.51</ele>
        <time>2022-08-06T10:12:06Z</time>
      </trkpt>
      <trkpt lat="44.4036" lon="3.74533">
        <ele>1233.03</ele>
        <time>2022-08-06T10:12:35Z</time>
      </trkpt>
      <trkpt lat="44.4036" lon="3.7453">
        <ele>1232.55</ele>
        <time>2022-08-06T10:12:59Z</time>
      </trkpt>
      <trkpt lat="44.40359" lon="3.74527">
        <ele>1233.03</ele>
        <time>2022-08-06T10:13:27Z</time>
      </trkpt>
      <trkpt lat="44.40356" lon="3.74528">
        <ele>1234.47</ele>
        <time>2022-08-06T10:13:54Z</time>
      </trkpt>
      <trkpt lat="44.40354" lon="3.74526">
        <ele>1233.99</ele>
        <time>2022-08-06T10:13:59Z</time>
      </trkpt>
      <trkpt lat="44.4034" lon="3.74517">
        <ele>1232.07</ele>
        <time>2022-08-06T10:14:14Z</time>
      </trkpt>
      <trkpt lat="44.40338" lon="3.74515">
        <ele>1231.59</ele>
        <time>2022-08-06T10:14:17Z</time>
      </trkpt>
      <trkpt lat="44.40323" lon="3.74497">
        <ele>1226.3</ele>
        <time>2022-08-06T10:14:34Z</time>
      </trkpt>
      <trkpt lat="44.40317" lon="3.74492">
        <ele>1224.86</ele>
        <time>2022-08-06T10:14:41Z</time>
      </trkpt>
      <trkpt lat="44.40297" lon="3.74487">
        <ele>1222.45</ele>
        <time>2022-08-06T10:14:59Z</time>
      </trkpt>
      <trkpt lat="44.40279" lon="3.74486">
        <ele>1223.42</ele>
        <time>2022-08-06T10:15:15Z</time>
      </trkpt>
      <trkpt lat="44.40262" lon="3.74474">
        <ele>1220.05</ele>
        <time>2022-08-06T10:15:32Z</time>
      </trkpt>
      <trkpt lat="44.40257" lon="3.74469">
        <ele>1216.69</ele>
        <time>2022-08-06T10:15:47Z</time>
      </trkpt>
      <trkpt lat="44.40248" lon="3.74466">
        <ele>1216.69</ele>
        <time>2022-08-06T10:16:01Z</time>
      </trkpt>
      <trkpt lat="44.40234" lon="3.74455">
        <ele>1214.76</ele>
        <time>2022-08-06T10:16:16Z</time>
      </trkpt>
      <trkpt lat="44.40218" lon="3.74446">
        <ele>1212.36</ele>
        <time>2022-08-06T10:16:31Z</time>
      </trkpt>
      <trkpt lat="44.40201" lon="3.74435">
        <ele>1211.4</ele>
        <time>2022-08-06T10:16:46Z</time>
      </trkpt>
      <trkpt lat="44.402" lon="3.74434">
        <ele>1211.4</ele>
        <time>2022-08-06T10:16:47Z</time>
      </trkpt>
      <trkpt lat="44.40182" lon="3.74434">
        <ele>1210.92</ele>
        <time>2022-08-06T10:17:03Z</time>
      </trkpt>
      <trkpt lat="44.40175" lon="3.74435">
        <ele>1209.48</ele>
        <time>2022-08-06T10:17:09Z</time>
      </trkpt>
      <trkpt lat="44.40152" lon="3.74436">
        <ele>1205.63</ele>
        <time>2022-08-06T10:17:27Z</time>
      </trkpt>
      <trkpt lat="44.40133" lon="3.74438">
        <ele>1204.19</ele>
        <time>2022-08-06T10:17:42Z</time>
      </trkpt>
      <trkpt lat="44.40115" lon="3.74435">
        <ele>1204.19</ele>
        <time>2022-08-06T10:17:57Z</time>
      </trkpt>
      <trkpt lat="44.40106" lon="3.74434">
        <ele>1205.15</ele>
        <time>2022-08-06T10:18:05Z</time>
      </trkpt>
      <trkpt lat="44.40097" lon="3.74425">
        <ele>1206.11</ele>
        <time>2022-08-06T10:18:17Z</time>
      </trkpt>
      <trkpt lat="44.40088" lon="3.74396">
        <ele>1205.15</ele>
        <time>2022-08-06T10:18:33Z</time>
      </trkpt>
      <trkpt lat="44.40086" lon="3.74391">
        <ele>1204.67</ele>
        <time>2022-08-06T10:18:37Z</time>
      </trkpt>
      <trkpt lat="44.4007" lon="3.74381">
        <ele>1203.71</ele>
        <time>2022-08-06T10:18:51Z</time>
      </trkpt>
      <trkpt lat="44.40046" lon="3.74377">
        <ele>1204.67</ele>
        <time>2022-08-06T10:19:10Z</time>
      </trkpt>
      <trkpt lat="44.40036" lon="3.74375">
        <ele>1204.19</ele>
        <time>2022-08-06T10:19:18Z</time>
      </trkpt>
      <trkpt lat="44.40032" lon="3.74373">
        <ele>1203.23</ele>
        <time>2022-08-06T10:19:23Z</time>
      </trkpt>
      <trkpt lat="44.40023" lon="3.74382">
        <ele>1201.79</ele>
        <time>2022-08-06T10:19:34Z</time>
      </trkpt>
      <trkpt lat="44.40013" lon="3.74407">
        <ele>1198.42</ele>
        <time>2022-08-06T10:19:51Z</time>
      </trkpt>
      <trkpt lat="44.40011" lon="3.74415">
        <ele>1196.5</ele>
        <time>2022-08-06T10:19:58Z</time>
      </trkpt>
      <trkpt lat="44.40007" lon="3.74427">
        <ele>1195.06</ele>
        <time>2022-08-06T10:20:07Z</time>
      </trkpt>
      <trkpt lat="44.39991" lon="3.74441">
        <ele>1194.58</ele>
        <time>2022-08-06T10:20:24Z</time>
      </trkpt>
      <trkpt lat="44.39977" lon="3.74443">
        <ele>1196.5</ele>
        <time>2022-08-06T10:20:35Z</time>
      </trkpt>
      <trkpt lat="44.39965" lon="3.74443">
        <ele>1196.98</ele>
        <time>2022-08-06T10:20:46Z</time>
      </trkpt>
      <trkpt lat="44.39959" lon="3.74442">
        <ele>1195.54</ele>
        <time>2022-08-06T10:20:51Z</time>
      </trkpt>
      <trkpt lat="44.39947" lon="3.74441">
        <ele>1193.61</ele>
        <time>2022-08-06T10:21:02Z</time>
      </trkpt>
      <trkpt lat="44.39932" lon="3.74448">
        <ele>1190.73</ele>
        <time>2022-08-06T10:21:17Z</time>
      </trkpt>
      <trkpt lat="44.39911" lon="3.7445">
        <ele>1187.37</ele>
        <time>2022-08-06T10:21:34Z</time>
      </trkpt>
      <trkpt lat="44.39892" lon="3.74453">
        <ele>1188.81</ele>
        <time>2022-08-06T10:21:49Z</time>
      </trkpt>
      <trkpt lat="44.39876" lon="3.7445">
        <ele>1189.29</ele>
        <time>2022-08-06T10:22:04Z</time>
      </trkpt>
      <trkpt lat="44.39861" lon="3.74443">
        <ele>1189.77</ele>
        <time>2022-08-06T10:22:19Z</time>
      </trkpt>
      <trkpt lat="44.39845" lon="3.74439">
        <ele>1189.29</ele>
        <time>2022-08-06T10:22:34Z</time>
      </trkpt>
      <trkpt lat="44.39826" lon="3.74443">
        <ele>1190.25</ele>
        <time>2022-08-06T10:22:50Z</time>
      </trkpt>
      <trkpt lat="44.39805" lon="3.74447">
        <ele>1191.21</ele>
        <time>2022-08-06T10:23:07Z</time>
      </trkpt>
      <trkpt lat="44.39783" lon="3.74449">
        <ele>1190.73</ele>
        <time>2022-08-06T10:23:26Z</time>
      </trkpt>
      <trkpt lat="44.39776" lon="3.74459">
        <ele>1191.21</ele>
        <time>2022-08-06T10:23:37Z</time>
      </trkpt>
      <trkpt lat="44.39766" lon="3.74484">
        <ele>1190.25</ele>
        <time>2022-08-06T10:23:54Z</time>
      </trkpt>
      <trkpt lat="44.39755" lon="3.74507">
        <ele>1188.33</ele>
        <time>2022-08-06T10:24:11Z</time>
      </trkpt>
      <trkpt lat="44.39748" lon="3.74511">
        <ele>1187.37</ele>
        <time>2022-08-06T10:24:18Z</time>
      </trkpt>
      <trkpt lat="44.3974" lon="3.74512">
        <ele>1187.37</ele>
        <time>2022-08-06T10:24:35Z</time>
      </trkpt>
      <trkpt lat="44.3973" lon="3.74512">
        <ele>1187.37</ele>
        <time>2022-08-06T10:24:51Z</time>
      </trkpt>
      <trkpt lat="44.3971" lon="3.74512">
        <ele>1187.37</ele>
        <time>2022-08-06T10:25:07Z</time>
      </trkpt>
      <trkpt lat="44.39693" lon="3.74507">
        <ele>1186.88</ele>
        <time>2022-08-06T10:25:22Z</time>
      </trkpt>
      <trkpt lat="44.39675" lon="3.7451">
        <ele>1186.4</ele>
        <time>2022-08-06T10:25:37Z</time>
      </trkpt>
      <trkpt lat="44.39659" lon="3.74512">
        <ele>1186.88</ele>
        <time>2022-08-06T10:25:52Z</time>
      </trkpt>
      <trkpt lat="44.39646" lon="3.74506">
        <ele>1184.48</ele>
        <time>2022-08-06T10:26:08Z</time>
      </trkpt>
      <trkpt lat="44.39644" lon="3.74504">
        <ele>1186.88</ele>
        <time>2022-08-06T10:26:25Z</time>
      </trkpt>
      <trkpt lat="44.3963" lon="3.74506">
        <ele>1186.88</ele>
        <time>2022-08-06T10:26:38Z</time>
      </trkpt>
      <trkpt lat="44.39613" lon="3.74515">
        <ele>1186.88</ele>
        <time>2022-08-06T10:26:55Z</time>
      </trkpt>
      <trkpt lat="44.39597" lon="3.74521">
        <ele>1187.37</ele>
        <time>2022-08-06T10:27:10Z</time>
      </trkpt>
      <trkpt lat="44.3958" lon="3.74521">
        <ele>1188.33</ele>
        <time>2022-08-06T10:27:25Z</time>
      </trkpt>
      <trkpt lat="44.39561" lon="3.74522">
        <ele>1187.37</ele>
        <time>2022-08-06T10:27:41Z</time>
      </trkpt>
      <trkpt lat="44.39541" lon="3.74526">
        <ele>1185.92</ele>
        <time>2022-08-06T10:27:59Z</time>
      </trkpt>
      <trkpt lat="44.39521" lon="3.7453">
        <ele>1184.96</ele>
        <time>2022-08-06T10:28:17Z</time>
      </trkpt>
      <trkpt lat="44.39508" lon="3.74532">
        <ele>1184</ele>
        <time>2022-08-06T10:28:31Z</time>
      </trkpt>
      <trkpt lat="44.39488" lon="3.74535">
        <ele>1184</ele>
        <time>2022-08-06T10:28:47Z</time>
      </trkpt>
      <trkpt lat="44.39477" lon="3.74543">
        <ele>1184</ele>
        <time>2022-08-06T10:29:02Z</time>
      </trkpt>
      <trkpt lat="44.39479" lon="3.74543">
        <ele>1185.44</ele>
        <time>2022-08-06T10:29:18Z</time>
      </trkpt>
      <trkpt lat="44.39469" lon="3.74546">
        <ele>1183.52</ele>
        <time>2022-08-06T10:29:31Z</time>
      </trkpt>
      <trkpt lat="44.39451" lon="3.74554">
        <ele>1182.56</ele>
        <time>2022-08-06T10:29:48Z</time>
      </trkpt>
      <trkpt lat="44.39432" lon="3.74569">
        <ele>1182.08</ele>
        <time>2022-08-06T10:30:06Z</time>
      </trkpt>
      <trkpt lat="44.39419" lon="3.74584">
        <ele>1181.12</ele>
        <time>2022-08-06T10:30:21Z</time>
      </trkpt>
      <trkpt lat="44.3941" lon="3.74587">
        <ele>1179.67</ele>
        <time>2022-08-06T10:30:29Z</time>
      </trkpt>
      <trkpt lat="44.39402" lon="3.74605">
        <ele>1176.31</ele>
        <time>2022-08-06T10:30:42Z</time>
      </trkpt>
      <trkpt lat="44.39402" lon="3.74606">
        <ele>1175.83</ele>
        <time>2022-08-06T10:30:43Z</time>
      </trkpt>
      <trkpt lat="44.39396" lon="3.74612">
        <ele>1174.87</ele>
        <time>2022-08-06T10:30:49Z</time>
      </trkpt>
      <trkpt lat="44.39376" lon="3.74618">
        <ele>1172.95</ele>
        <time>2022-08-06T10:31:06Z</time>
      </trkpt>
      <trkpt lat="44.39363" lon="3.74602">
        <ele>1171.02</ele>
        <time>2022-08-06T10:31:22Z</time>
      </trkpt>
      <trkpt lat="44.39355" lon="3.74576">
        <ele>1169.58</ele>
        <time>2022-08-06T10:31:40Z</time>
      </trkpt>
      <trkpt lat="44.39355" lon="3.74564">
        <ele>1168.62</ele>
        <time>2022-08-06T10:31:47Z</time>
      </trkpt>
      <trkpt lat="44.39355" lon="3.74556">
        <ele>1167.66</ele>
        <time>2022-08-06T10:31:52Z</time>
      </trkpt>
      <trkpt lat="44.39356" lon="3.74548">
        <ele>1166.7</ele>
        <time>2022-08-06T10:31:57Z</time>
      </trkpt>
      <trkpt lat="44.39362" lon="3.74528">
        <ele>1163.33</ele>
        <time>2022-08-06T10:32:11Z</time>
      </trkpt>
      <trkpt lat="44.39363" lon="3.74523">
        <ele>1162.85</ele>
        <time>2022-08-06T10:32:14Z</time>
      </trkpt>
      <trkpt lat="44.39366" lon="3.74518">
        <ele>1162.85</ele>
        <time>2022-08-06T10:32:18Z</time>
      </trkpt>
      <trkpt lat="44.39366" lon="3.74515">
        <ele>1162.85</ele>
        <time>2022-08-06T10:32:20Z</time>
      </trkpt>
      <trkpt lat="44.39375" lon="3.74494">
        <ele>1159.01</ele>
        <time>2022-08-06T10:32:34Z</time>
      </trkpt>
      <trkpt lat="44.39385" lon="3.7447">
        <ele>1154.2</ele>
        <time>2022-08-06T10:32:51Z</time>
      </trkpt>
      <trkpt lat="44.39392" lon="3.7445">
        <ele>1152.28</ele>
        <time>2022-08-06T10:33:05Z</time>
      </trkpt>
      <trkpt lat="44.39387" lon="3.7442">
        <ele>1150.84</ele>
        <time>2022-08-06T10:33:23Z</time>
      </trkpt>
      <trkpt lat="44.39374" lon="3.74402">
        <ele>1151.32</ele>
        <time>2022-08-06T10:33:40Z</time>
      </trkpt>
      <trkpt lat="44.39361" lon="3.74388">
        <ele>1153.24</ele>
        <time>2022-08-06T10:33:57Z</time>
      </trkpt>
      <trkpt lat="44.39359" lon="3.74385">
        <ele>1153.72</ele>
        <time>2022-08-06T10:34:00Z</time>
      </trkpt>
      <trkpt lat="44.39353" lon="3.74363">
        <ele>1155.16</ele>
        <time>2022-08-06T10:34:18Z</time>
      </trkpt>
      <trkpt lat="44.39348" lon="3.74355">
        <ele>1156.12</ele>
        <time>2022-08-06T10:34:26Z</time>
      </trkpt>
      <trkpt lat="44.39328" lon="3.74344">
        <ele>1157.56</ele>
        <time>2022-08-06T10:34:46Z</time>
      </trkpt>
      <trkpt lat="44.3931" lon="3.74345">
        <ele>1158.05</ele>
        <time>2022-08-06T10:35:03Z</time>
      </trkpt>
      <trkpt lat="44.39294" lon="3.74347">
        <ele>1158.53</ele>
        <time>2022-08-06T10:35:18Z</time>
      </trkpt>
      <trkpt lat="44.39283" lon="3.74347">
        <ele>1158.53</ele>
        <time>2022-08-06T10:35:28Z</time>
      </trkpt>
      <trkpt lat="44.39265" lon="3.74347">
        <ele>1157.56</ele>
        <time>2022-08-06T10:35:46Z</time>
      </trkpt>
      <trkpt lat="44.39263" lon="3.74348">
        <ele>1156.6</ele>
        <time>2022-08-06T10:35:49Z</time>
      </trkpt>
      <trkpt lat="44.39261" lon="3.74347">
        <ele>1156.12</ele>
        <time>2022-08-06T10:35:51Z</time>
      </trkpt>
      <trkpt lat="44.39248" lon="3.74346">
        <ele>1153.24</ele>
        <time>2022-08-06T10:36:06Z</time>
      </trkpt>
      <trkpt lat="44.39233" lon="3.74353">
        <ele>1150.84</ele>
        <time>2022-08-06T10:36:23Z</time>
      </trkpt>
      <trkpt lat="44.39216" lon="3.74352">
        <ele>1147.95</ele>
        <time>2022-08-06T10:36:41Z</time>
      </trkpt>
      <trkpt lat="44.39206" lon="3.74343">
        <ele>1145.55</ele>
        <time>2022-08-06T10:36:57Z</time>
      </trkpt>
      <trkpt lat="44.39204" lon="3.74347">
        <ele>1145.55</ele>
        <time>2022-08-06T10:37:10Z</time>
      </trkpt>
      <trkpt lat="44.39203" lon="3.74349">
        <ele>1146.03</ele>
        <time>2022-08-06T10:37:31Z</time>
      </trkpt>
      <trkpt lat="44.39206" lon="3.74353">
        <ele>1145.55</ele>
        <time>2022-08-06T10:37:35Z</time>
      </trkpt>
      <trkpt lat="44.39204" lon="3.74359">
        <ele>1145.07</ele>
        <time>2022-08-06T10:37:49Z</time>
      </trkpt>
      <trkpt lat="44.39201" lon="3.74353">
        <ele>1143.63</ele>
        <time>2022-08-06T10:38:06Z</time>
      </trkpt>
      <trkpt lat="44.39203" lon="3.74353">
        <ele>1142.66</ele>
        <time>2022-08-06T10:38:28Z</time>
      </trkpt>
      <trkpt lat="44.392" lon="3.74351">
        <ele>1143.63</ele>
        <time>2022-08-06T10:38:46Z</time>
      </trkpt>
      <trkpt lat="44.39197" lon="3.74353">
        <ele>1142.18</ele>
        <time>2022-08-06T10:39:08Z</time>
      </trkpt>
      <trkpt lat="44.39196" lon="3.74353">
        <ele>1140.26</ele>
        <time>2022-08-06T10:39:41Z</time>
      </trkpt>
      <trkpt lat="44.39196" lon="3.74353">
        <ele>1147.47</ele>
        <time>2022-08-06T10:40:12Z</time>
      </trkpt>
      <trkpt lat="44.39197" lon="3.74357">
        <ele>1151.8</ele>
        <time>2022-08-06T10:40:46Z</time>
      </trkpt>
      <trkpt lat="44.39199" lon="3.74354">
        <ele>1152.28</ele>
        <time>2022-08-06T10:41:19Z</time>
      </trkpt>
      <trkpt lat="44.39198" lon="3.74356">
        <ele>1151.8</ele>
        <time>2022-08-06T10:41:59Z</time>
      </trkpt>
      <trkpt lat="44.39199" lon="3.74356">
        <ele>1153.72</ele>
        <time>2022-08-06T10:42:33Z</time>
      </trkpt>
      <trkpt lat="44.39198" lon="3.74355">
        <ele>1153.72</ele>
        <time>2022-08-06T10:43:06Z</time>
      </trkpt>
      <trkpt lat="44.39195" lon="3.74351">
        <ele>1151.32</ele>
        <time>2022-08-06T10:43:37Z</time>
      </trkpt>
      <trkpt lat="44.39201" lon="3.74357">
        <ele>1150.84</ele>
        <time>2022-08-06T10:44:25Z</time>
      </trkpt>
      <trkpt lat="44.39197" lon="3.74355">
        <ele>1152.76</ele>
        <time>2022-08-06T10:44:59Z</time>
      </trkpt>
      <trkpt lat="44.39195" lon="3.74356">
        <ele>1151.32</ele>
        <time>2022-08-06T10:45:43Z</time>
      </trkpt>
      <trkpt lat="44.39196" lon="3.74354">
        <ele>1150.84</ele>
        <time>2022-08-06T10:46:11Z</time>
      </trkpt>
      <trkpt lat="44.39196" lon="3.74355">
        <ele>1153.24</ele>
        <time>2022-08-06T10:46:40Z</time>
      </trkpt>
      <trkpt lat="44.39196" lon="3.74353">
        <ele>1154.2</ele>
        <time>2022-08-06T10:47:05Z</time>
      </trkpt>
      <trkpt lat="44.39195" lon="3.74355">
        <ele>1151.8</ele>
        <time>2022-08-06T10:47:42Z</time>
      </trkpt>
      <trkpt lat="44.39193" lon="3.74355">
        <ele>1150.84</ele>
        <time>2022-08-06T10:48:12Z</time>
      </trkpt>
      <trkpt lat="44.39192" lon="3.74355">
        <ele>1155.64</ele>
        <time>2022-08-06T10:48:44Z</time>
      </trkpt>
      <trkpt lat="44.39195" lon="3.74357">
        <ele>1153.72</ele>
        <time>2022-08-06T10:49:20Z</time>
      </trkpt>
      <trkpt lat="44.39195" lon="3.74351">
        <ele>1150.84</ele>
        <time>2022-08-06T10:49:57Z</time>
      </trkpt>
      <trkpt lat="44.39194" lon="3.74353">
        <ele>1153.24</ele>
        <time>2022-08-06T10:50:32Z</time>
      </trkpt>
      <trkpt lat="44.39191" lon="3.74354">
        <ele>1152.76</ele>
        <time>2022-08-06T10:51:19Z</time>
      </trkpt>
      <trkpt lat="44.39192" lon="3.74351">
        <ele>1153.72</ele>
        <time>2022-08-06T10:52:03Z</time>
      </trkpt>
      <trkpt lat="44.39191" lon="3.74355">
        <ele>1159.01</ele>
        <time>2022-08-06T10:52:46Z</time>
      </trkpt>
      <trkpt lat="44.39193" lon="3.74353">
        <ele>1157.08</ele>
        <time>2022-08-06T10:53:22Z</time>
      </trkpt>
      <trkpt lat="44.39197" lon="3.74356">
        <ele>1157.08</ele>
        <time>2022-08-06T10:54:01Z</time>
      </trkpt>
      <trkpt lat="44.39198" lon="3.74357">
        <ele>1157.08</ele>
        <time>2022-08-06T10:54:33Z</time>
      </trkpt>
      <trkpt lat="44.39192" lon="3.74354">
        <ele>1156.12</ele>
        <time>2022-08-06T10:55:07Z</time>
      </trkpt>
      <trkpt lat="44.39195" lon="3.74358">
        <ele>1153.72</ele>
        <time>2022-08-06T10:55:38Z</time>
      </trkpt>
      <trkpt lat="44.39195" lon="3.74355">
        <ele>1152.28</ele>
        <time>2022-08-06T10:56:09Z</time>
      </trkpt>
      <trkpt lat="44.39195" lon="3.74355">
        <ele>1153.72</ele>
        <time>2022-08-06T10:56:46Z</time>
      </trkpt>
      <trkpt lat="44.39195" lon="3.74354">
        <ele>1155.64</ele>
        <time>2022-08-06T10:57:24Z</time>
      </trkpt>
      <trkpt lat="44.39196" lon="3.74352">
        <ele>1151.8</ele>
        <time>2022-08-06T10:57:59Z</time>
      </trkpt>
      <trkpt lat="44.39195" lon="3.74355">
        <ele>1154.2</ele>
        <time>2022-08-06T10:58:34Z</time>
      </trkpt>
      <trkpt lat="44.39198" lon="3.74357">
        <ele>1150.84</ele>
        <time>2022-08-06T10:59:17Z</time>
      </trkpt>
      <trkpt lat="44.39196" lon="3.74357">
        <ele>1150.35</ele>
        <time>2022-08-06T10:59:41Z</time>
      </trkpt>
      <trkpt lat="44.39196" lon="3.74357">
        <ele>1151.32</ele>
        <time>2022-08-06T11:00:18Z</time>
      </trkpt>
      <trkpt lat="44.39195" lon="3.74354">
        <ele>1151.32</ele>
        <time>2022-08-06T11:00:45Z</time>
      </trkpt>
      <trkpt lat="44.39194" lon="3.74352">
        <ele>1151.8</ele>
        <time>2022-08-06T11:01:21Z</time>
      </trkpt>
      <trkpt lat="44.39197" lon="3.74354">
        <ele>1150.84</ele>
        <time>2022-08-06T11:01:57Z</time>
      </trkpt>
      <trkpt lat="44.39193" lon="3.74353">
        <ele>1153.72</ele>
        <time>2022-08-06T11:02:37Z</time>
      </trkpt>
      <trkpt lat="44.39193" lon="3.74356">
        <ele>1153.72</ele>
        <time>2022-08-06T11:03:21Z</time>
      </trkpt>
      <trkpt lat="44.39193" lon="3.74356">
        <ele>1154.68</ele>
        <time>2022-08-06T11:03:56Z</time>
      </trkpt>
      <trkpt lat="44.39193" lon="3.74353">
        <ele>1151.8</ele>
        <time>2022-08-06T11:04:22Z</time>
      </trkpt>
      <trkpt lat="44.39197" lon="3.74351">
        <ele>1148.43</ele>
        <time>2022-08-06T11:05:03Z</time>
      </trkpt>
      <trkpt lat="44.39198" lon="3.74353">
        <ele>1148.91</ele>
        <time>2022-08-06T11:05:41Z</time>
      </trkpt>
      <trkpt lat="44.392" lon="3.74352">
        <ele>1145.55</ele>
        <time>2022-08-06T11:06:16Z</time>
      </trkpt>
      <trkpt lat="44.392" lon="3.74352">
        <ele>1144.11</ele>
        <time>2022-08-06T11:06:49Z</time>
      </trkpt>
      <trkpt lat="44.39198" lon="3.74352">
        <ele>1145.55</ele>
        <time>2022-08-06T11:07:19Z</time>
      </trkpt>
      <trkpt lat="44.39196" lon="3.74349">
        <ele>1148.91</ele>
        <time>2022-08-06T11:07:58Z</time>
      </trkpt>
      <trkpt lat="44.39199" lon="3.74352">
        <ele>1148.91</ele>
        <time>2022-08-06T11:08:43Z</time>
      </trkpt>
      <trkpt lat="44.39197" lon="3.74352">
        <ele>1145.55</ele>
        <time>2022-08-06T11:09:17Z</time>
      </trkpt>
      <trkpt lat="44.39198" lon="3.74349">
        <ele>1145.07</ele>
        <time>2022-08-06T11:09:56Z</time>
      </trkpt>
      <trkpt lat="44.39197" lon="3.74352">
        <ele>1146.03</ele>
        <time>2022-08-06T11:10:29Z</time>
      </trkpt>
      <trkpt lat="44.39196" lon="3.74352">
        <ele>1143.63</ele>
        <time>2022-08-06T11:11:02Z</time>
      </trkpt>
      <trkpt lat="44.39195" lon="3.74349">
        <ele>1142.66</ele>
        <time>2022-08-06T11:11:40Z</time>
      </trkpt>
      <trkpt lat="44.39197" lon="3.74349">
        <ele>1144.11</ele>
        <time>2022-08-06T11:12:10Z</time>
      </trkpt>
      <trkpt lat="44.39198" lon="3.74352">
        <ele>1144.11</ele>
        <time>2022-08-06T11:12:48Z</time>
      </trkpt>
      <trkpt lat="44.39198" lon="3.74349">
        <ele>1145.07</ele>
        <time>2022-08-06T11:13:26Z</time>
      </trkpt>
      <trkpt lat="44.392" lon="3.74352">
        <ele>1145.55</ele>
        <time>2022-08-06T11:14:07Z</time>
      </trkpt>
      <trkpt lat="44.39198" lon="3.74347">
        <ele>1145.55</ele>
        <time>2022-08-06T11:14:42Z</time>
      </trkpt>
      <trkpt lat="44.39199" lon="3.74358">
        <ele>1148.91</ele>
        <time>2022-08-06T11:15:17Z</time>
      </trkpt>
      <trkpt lat="44.39197" lon="3.74353">
        <ele>1152.28</ele>
        <time>2022-08-06T11:15:51Z</time>
      </trkpt>
      <trkpt lat="44.39199" lon="3.74355">
        <ele>1157.08</ele>
        <time>2022-08-06T11:16:29Z</time>
      </trkpt>
      <trkpt lat="44.392" lon="3.74358">
        <ele>1155.16</ele>
        <time>2022-08-06T11:17:03Z</time>
      </trkpt>
      <trkpt lat="44.39199" lon="3.7436">
        <ele>1153.72</ele>
        <time>2022-08-06T11:17:32Z</time>
      </trkpt>
      <trkpt lat="44.39195" lon="3.74351">
        <ele>1152.28</ele>
        <time>2022-08-06T11:18:06Z</time>
      </trkpt>
      <trkpt lat="44.39194" lon="3.74354">
        <ele>1154.68</ele>
        <time>2022-08-06T11:18:44Z</time>
      </trkpt>
      <trkpt lat="44.39193" lon="3.74357">
        <ele>1152.28</ele>
        <time>2022-08-06T11:19:21Z</time>
      </trkpt>
      <trkpt lat="44.39193" lon="3.74354">
        <ele>1155.16</ele>
        <time>2022-08-06T11:20:04Z</time>
      </trkpt>
      <trkpt lat="44.39195" lon="3.74356">
        <ele>1151.8</ele>
        <time>2022-08-06T11:20:39Z</time>
      </trkpt>
      <trkpt lat="44.39198" lon="3.74352">
        <ele>1148.43</ele>
        <time>2022-08-06T11:21:10Z</time>
      </trkpt>
      <trkpt lat="44.39197" lon="3.74354">
        <ele>1148.91</ele>
        <time>2022-08-06T11:21:43Z</time>
      </trkpt>
      <trkpt lat="44.39197" lon="3.74359">
        <ele>1150.84</ele>
        <time>2022-08-06T11:22:20Z</time>
      </trkpt>
      <trkpt lat="44.39196" lon="3.74355">
        <ele>1152.76</ele>
        <time>2022-08-06T11:22:58Z</time>
      </trkpt>
      <trkpt lat="44.39198" lon="3.74355">
        <ele>1156.12</ele>
        <time>2022-08-06T11:23:33Z</time>
      </trkpt>
      <trkpt lat="44.39196" lon="3.74355">
        <ele>1159.01</ele>
        <time>2022-08-06T11:24:10Z</time>
      </trkpt>
      <trkpt lat="44.39194" lon="3.74353">
        <ele>1158.53</ele>
        <time>2022-08-06T11:24:49Z</time>
      </trkpt>
      <trkpt lat="44.39193" lon="3.74348">
        <ele>1158.05</ele>
        <time>2022-08-06T11:25:20Z</time>
      </trkpt>
      <trkpt lat="44.39193" lon="3.74349">
        <ele>1152.28</ele>
        <time>2022-08-06T11:25:51Z</time>
      </trkpt>
      <trkpt lat="44.39196" lon="3.74355">
        <ele>1155.16</ele>
        <time>2022-08-06T11:26:27Z</time>
      </trkpt>
      <trkpt lat="44.39203" lon="3.74355">
        <ele>1153.72</ele>
        <time>2022-08-06T11:26:47Z</time>
      </trkpt>
      <trkpt lat="44.39204" lon="3.74355">
        <ele>1150.84</ele>
        <time>2022-08-06T11:27:16Z</time>
      </trkpt>
      <trkpt lat="44.39204" lon="3.74358">
        <ele>1148.91</ele>
        <time>2022-08-06T11:27:47Z</time>
      </trkpt>
      <trkpt lat="44.39206" lon="3.74362">
        <ele>1148.91</ele>
        <time>2022-08-06T11:28:02Z</time>
      </trkpt>
      <trkpt lat="44.39208" lon="3.74354">
        <ele>1149.87</ele>
        <time>2022-08-06T11:28:14Z</time>
      </trkpt>
      <trkpt lat="44.39205" lon="3.74343">
        <ele>1148.43</ele>
        <time>2022-08-06T11:28:27Z</time>
      </trkpt>
      <trkpt lat="44.39198" lon="3.74326">
        <ele>1147.47</ele>
        <time>2022-08-06T11:28:41Z</time>
      </trkpt>
      <trkpt lat="44.39189" lon="3.7431">
        <ele>1150.35</ele>
        <time>2022-08-06T11:28:57Z</time>
      </trkpt>
      <trkpt lat="44.39178" lon="3.74308">
        <ele>1148.43</ele>
        <time>2022-08-06T11:29:09Z</time>
      </trkpt>
      <trkpt lat="44.39172" lon="3.74308">
        <ele>1148.43</ele>
        <time>2022-08-06T11:29:15Z</time>
      </trkpt>
      <trkpt lat="44.39154" lon="3.74302">
        <ele>1149.87</ele>
        <time>2022-08-06T11:29:31Z</time>
      </trkpt>
      <trkpt lat="44.39152" lon="3.74301">
        <ele>1149.87</ele>
        <time>2022-08-06T11:29:32Z</time>
      </trkpt>
      <trkpt lat="44.39132" lon="3.743">
        <ele>1153.24</ele>
        <time>2022-08-06T11:29:47Z</time>
      </trkpt>
      <trkpt lat="44.39119" lon="3.74318">
        <ele>1154.68</ele>
        <time>2022-08-06T11:30:04Z</time>
      </trkpt>
      <trkpt lat="44.39105" lon="3.74338">
        <ele>1155.16</ele>
        <time>2022-08-06T11:30:20Z</time>
      </trkpt>
      <trkpt lat="44.3909" lon="3.74345">
        <ele>1148.91</ele>
        <time>2022-08-06T11:30:35Z</time>
      </trkpt>
      <trkpt lat="44.39076" lon="3.7435">
        <ele>1147.95</ele>
        <time>2022-08-06T11:30:49Z</time>
      </trkpt>
      <trkpt lat="44.39063" lon="3.74357">
        <ele>1148.43</ele>
        <time>2022-08-06T11:31:01Z</time>
      </trkpt>
      <trkpt lat="44.39045" lon="3.74369">
        <ele>1146.99</ele>
        <time>2022-08-06T11:31:19Z</time>
      </trkpt>
      <trkpt lat="44.39033" lon="3.74378">
        <ele>1144.11</ele>
        <time>2022-08-06T11:31:31Z</time>
      </trkpt>
      <trkpt lat="44.39027" lon="3.74395">
        <ele>1144.11</ele>
        <time>2022-08-06T11:31:45Z</time>
      </trkpt>
      <trkpt lat="44.39028" lon="3.74394">
        <ele>1141.7</ele>
        <time>2022-08-06T11:31:58Z</time>
      </trkpt>
      <trkpt lat="44.39026" lon="3.74395">
        <ele>1141.22</ele>
        <time>2022-08-06T11:32:02Z</time>
      </trkpt>
      <trkpt lat="44.39017" lon="3.74409">
        <ele>1143.14</ele>
        <time>2022-08-06T11:32:18Z</time>
      </trkpt>
      <trkpt lat="44.39011" lon="3.74415">
        <ele>1145.55</ele>
        <time>2022-08-06T11:32:34Z</time>
      </trkpt>
      <trkpt lat="44.38999" lon="3.74426">
        <ele>1145.55</ele>
        <time>2022-08-06T11:32:48Z</time>
      </trkpt>
      <trkpt lat="44.38988" lon="3.74433">
        <ele>1146.51</ele>
        <time>2022-08-06T11:33:00Z</time>
      </trkpt>
      <trkpt lat="44.38977" lon="3.74444">
        <ele>1146.51</ele>
        <time>2022-08-06T11:33:13Z</time>
      </trkpt>
      <trkpt lat="44.38963" lon="3.74454">
        <ele>1146.51</ele>
        <time>2022-08-06T11:33:28Z</time>
      </trkpt>
      <trkpt lat="44.3895" lon="3.74464">
        <ele>1147.47</ele>
        <time>2022-08-06T11:33:43Z</time>
      </trkpt>
      <trkpt lat="44.38935" lon="3.74472">
        <ele>1149.39</ele>
        <time>2022-08-06T11:33:59Z</time>
      </trkpt>
      <trkpt lat="44.38931" lon="3.74472">
        <ele>1149.39</ele>
        <time>2022-08-06T11:34:03Z</time>
      </trkpt>
      <trkpt lat="44.3892" lon="3.74478">
        <ele>1150.84</ele>
        <time>2022-08-06T11:34:19Z</time>
      </trkpt>
      <trkpt lat="44.38923" lon="3.74478">
        <ele>1148.91</ele>
        <time>2022-08-06T11:34:38Z</time>
      </trkpt>
      <trkpt lat="44.38923" lon="3.74478">
        <ele>1147.95</ele>
        <time>2022-08-06T11:34:50Z</time>
      </trkpt>
      <trkpt lat="44.38906" lon="3.74476">
        <ele>1147.47</ele>
        <time>2022-08-06T11:35:03Z</time>
      </trkpt>
      <trkpt lat="44.38888" lon="3.74475">
        <ele>1147.95</ele>
        <time>2022-08-06T11:35:18Z</time>
      </trkpt>
      <trkpt lat="44.38869" lon="3.74472">
        <ele>1146.51</ele>
        <time>2022-08-06T11:35:34Z</time>
      </trkpt>
      <trkpt lat="44.38856" lon="3.74469">
        <ele>1145.55</ele>
        <time>2022-08-06T11:35:46Z</time>
      </trkpt>
      <trkpt lat="44.38852" lon="3.74468">
        <ele>1145.55</ele>
        <time>2022-08-06T11:35:50Z</time>
      </trkpt>
      <trkpt lat="44.38832" lon="3.74471">
        <ele>1144.59</ele>
        <time>2022-08-06T11:36:07Z</time>
      </trkpt>
      <trkpt lat="44.38822" lon="3.74473">
        <ele>1143.63</ele>
        <time>2022-08-06T11:36:20Z</time>
      </trkpt>
      <trkpt lat="44.38806" lon="3.74478">
        <ele>1142.66</ele>
        <time>2022-08-06T11:36:34Z</time>
      </trkpt>
      <trkpt lat="44.388" lon="3.7448">
        <ele>1142.66</ele>
        <time>2022-08-06T11:36:40Z</time>
      </trkpt>
      <trkpt lat="44.38778" lon="3.74487">
        <ele>1142.18</ele>
        <time>2022-08-06T11:36:59Z</time>
      </trkpt>
      <trkpt lat="44.38766" lon="3.74489">
        <ele>1142.18</ele>
        <time>2022-08-06T11:37:16Z</time>
      </trkpt>
      <trkpt lat="44.38746" lon="3.74496">
        <ele>1140.74</ele>
        <time>2022-08-06T11:37:34Z</time>
      </trkpt>
      <trkpt lat="44.38728" lon="3.74507">
        <ele>1139.78</ele>
        <time>2022-08-06T11:37:51Z</time>
      </trkpt>
      <trkpt lat="44.38714" lon="3.7452">
        <ele>1138.82</ele>
        <time>2022-08-06T11:38:07Z</time>
      </trkpt>
      <trkpt lat="44.38705" lon="3.7453">
        <ele>1137.86</ele>
        <time>2022-08-06T11:38:18Z</time>
      </trkpt>
      <trkpt lat="44.38697" lon="3.74535">
        <ele>1138.34</ele>
        <time>2022-08-06T11:38:26Z</time>
      </trkpt>
      <trkpt lat="44.38691" lon="3.74538">
        <ele>1137.86</ele>
        <time>2022-08-06T11:38:32Z</time>
      </trkpt>
      <trkpt lat="44.38673" lon="3.74544">
        <ele>1137.38</ele>
        <time>2022-08-06T11:38:48Z</time>
      </trkpt>
      <trkpt lat="44.38655" lon="3.74542">
        <ele>1136.9</ele>
        <time>2022-08-06T11:39:03Z</time>
      </trkpt>
      <trkpt lat="44.38636" lon="3.74536">
        <ele>1136.42</ele>
        <time>2022-08-06T11:39:20Z</time>
      </trkpt>
      <trkpt lat="44.38618" lon="3.74529">
        <ele>1136.42</ele>
        <time>2022-08-06T11:39:36Z</time>
      </trkpt>
      <trkpt lat="44.38602" lon="3.7452">
        <ele>1135.94</ele>
        <time>2022-08-06T11:39:51Z</time>
      </trkpt>
      <trkpt lat="44.38589" lon="3.74509">
        <ele>1134.97</ele>
        <time>2022-08-06T11:40:05Z</time>
      </trkpt>
      <trkpt lat="44.38574" lon="3.74493">
        <ele>1134.49</ele>
        <time>2022-08-06T11:40:21Z</time>
      </trkpt>
      <trkpt lat="44.38557" lon="3.74477">
        <ele>1133.53</ele>
        <time>2022-08-06T11:40:38Z</time>
      </trkpt>
      <trkpt lat="44.38543" lon="3.74465">
        <ele>1133.53</ele>
        <time>2022-08-06T11:40:52Z</time>
      </trkpt>
      <trkpt lat="44.38523" lon="3.74462">
        <ele>1132.09</ele>
        <time>2022-08-06T11:41:08Z</time>
      </trkpt>
      <trkpt lat="44.38502" lon="3.74466">
        <ele>1132.09</ele>
        <time>2022-08-06T11:41:25Z</time>
      </trkpt>
      <trkpt lat="44.38484" lon="3.74472">
        <ele>1130.65</ele>
        <time>2022-08-06T11:41:41Z</time>
      </trkpt>
      <trkpt lat="44.38463" lon="3.74475">
        <ele>1130.65</ele>
        <time>2022-08-06T11:41:59Z</time>
      </trkpt>
      <trkpt lat="44.3845" lon="3.74476">
        <ele>1131.13</ele>
        <time>2022-08-06T11:42:16Z</time>
      </trkpt>
      <trkpt lat="44.38446" lon="3.74476">
        <ele>1130.17</ele>
        <time>2022-08-06T11:42:34Z</time>
      </trkpt>
      <trkpt lat="44.38445" lon="3.74478">
        <ele>1129.21</ele>
        <time>2022-08-06T11:42:51Z</time>
      </trkpt>
      <trkpt lat="44.38445" lon="3.7448">
        <ele>1129.21</ele>
        <time>2022-08-06T11:43:05Z</time>
      </trkpt>
      <trkpt lat="44.38442" lon="3.74479">
        <ele>1129.21</ele>
        <time>2022-08-06T11:43:14Z</time>
      </trkpt>
      <trkpt lat="44.38436" lon="3.74475">
        <ele>1129.69</ele>
        <time>2022-08-06T11:43:27Z</time>
      </trkpt>
      <trkpt lat="44.38427" lon="3.74468">
        <ele>1130.65</ele>
        <time>2022-08-06T11:43:42Z</time>
      </trkpt>
      <trkpt lat="44.38411" lon="3.7446">
        <ele>1130.65</ele>
        <time>2022-08-06T11:43:55Z</time>
      </trkpt>
      <trkpt lat="44.38392" lon="3.74455">
        <ele>1128.73</ele>
        <time>2022-08-06T11:44:10Z</time>
      </trkpt>
      <trkpt lat="44.38369" lon="3.74454">
        <ele>1128.73</ele>
        <time>2022-08-06T11:44:28Z</time>
      </trkpt>
      <trkpt lat="44.38349" lon="3.74455">
        <ele>1127.28</ele>
        <time>2022-08-06T11:44:44Z</time>
      </trkpt>
      <trkpt lat="44.38335" lon="3.74449">
        <ele>1127.76</ele>
        <time>2022-08-06T11:44:58Z</time>
      </trkpt>
      <trkpt lat="44.38335" lon="3.74449">
        <ele>1128.24</ele>
        <time>2022-08-06T11:44:59Z</time>
      </trkpt>
      <trkpt lat="44.38317" lon="3.74441">
        <ele>1127.28</ele>
        <time>2022-08-06T11:45:15Z</time>
      </trkpt>
      <trkpt lat="44.38309" lon="3.74443">
        <ele>1127.28</ele>
        <time>2022-08-06T11:45:22Z</time>
      </trkpt>
      <trkpt lat="44.38305" lon="3.74448">
        <ele>1126.8</ele>
        <time>2022-08-06T11:45:26Z</time>
      </trkpt>
      <trkpt lat="44.38289" lon="3.7447">
        <ele>1125.36</ele>
        <time>2022-08-06T11:45:44Z</time>
      </trkpt>
      <trkpt lat="44.38278" lon="3.74489">
        <ele>1124.88</ele>
        <time>2022-08-06T11:45:59Z</time>
      </trkpt>
      <trkpt lat="44.38255" lon="3.74496">
        <ele>1123.92</ele>
        <time>2022-08-06T11:46:18Z</time>
      </trkpt>
      <trkpt lat="44.38251" lon="3.74498">
        <ele>1124.4</ele>
        <time>2022-08-06T11:46:21Z</time>
      </trkpt>
      <trkpt lat="44.38237" lon="3.7451">
        <ele>1123.92</ele>
        <time>2022-08-06T11:46:34Z</time>
      </trkpt>
      <trkpt lat="44.38235" lon="3.74512">
        <ele>1123.92</ele>
        <time>2022-08-06T11:46:36Z</time>
      </trkpt>
      <trkpt lat="44.38228" lon="3.74518">
        <ele>1123.92</ele>
        <time>2022-08-06T11:46:42Z</time>
      </trkpt>
      <trkpt lat="44.38209" lon="3.74515">
        <ele>1125.36</ele>
        <time>2022-08-06T11:46:58Z</time>
      </trkpt>
      <trkpt lat="44.38192" lon="3.74508">
        <ele>1126.8</ele>
        <time>2022-08-06T11:47:12Z</time>
      </trkpt>
      <trkpt lat="44.38171" lon="3.74504">
        <ele>1127.28</ele>
        <time>2022-08-06T11:47:29Z</time>
      </trkpt>
      <trkpt lat="44.38151" lon="3.74491">
        <ele>1124.88</ele>
        <time>2022-08-06T11:47:45Z</time>
      </trkpt>
      <trkpt lat="44.38132" lon="3.74486">
        <ele>1122.96</ele>
        <time>2022-08-06T11:48:00Z</time>
      </trkpt>
      <trkpt lat="44.38116" lon="3.74472">
        <ele>1120.07</ele>
        <time>2022-08-06T11:48:14Z</time>
      </trkpt>
      <trkpt lat="44.38114" lon="3.7447">
        <ele>1120.07</ele>
        <time>2022-08-06T11:48:16Z</time>
      </trkpt>
      <trkpt lat="44.38093" lon="3.74469">
        <ele>1116.71</ele>
        <time>2022-08-06T11:48:32Z</time>
      </trkpt>
      <trkpt lat="44.38088" lon="3.74468">
        <ele>1116.71</ele>
        <time>2022-08-06T11:48:36Z</time>
      </trkpt>
      <trkpt lat="44.38087" lon="3.74465">
        <ele>1115.75</ele>
        <time>2022-08-06T11:48:39Z</time>
      </trkpt>
      <trkpt lat="44.3808" lon="3.74465">
        <ele>1113.82</ele>
        <time>2022-08-06T11:48:46Z</time>
      </trkpt>
      <trkpt lat="44.38077" lon="3.74466">
        <ele>1113.34</ele>
        <time>2022-08-06T11:48:49Z</time>
      </trkpt>
      <trkpt lat="44.38073" lon="3.74477">
        <ele>1112.38</ele>
        <time>2022-08-06T11:48:57Z</time>
      </trkpt>
      <trkpt lat="44.38058" lon="3.74481">
        <ele>1108.54</ele>
        <time>2022-08-06T11:49:12Z</time>
      </trkpt>
      <trkpt lat="44.38056" lon="3.74462">
        <ele>1107.1</ele>
        <time>2022-08-06T11:49:27Z</time>
      </trkpt>
      <trkpt lat="44.38053" lon="3.74453">
        <ele>1106.61</ele>
        <time>2022-08-06T11:49:34Z</time>
      </trkpt>
      <trkpt lat="44.38049" lon="3.74449">
        <ele>1105.17</ele>
        <time>2022-08-06T11:49:39Z</time>
      </trkpt>
      <trkpt lat="44.38027" lon="3.74446">
        <ele>1102.77</ele>
        <time>2022-08-06T11:49:55Z</time>
      </trkpt>
      <trkpt lat="44.38017" lon="3.74447">
        <ele>1101.33</ele>
        <time>2022-08-06T11:50:03Z</time>
      </trkpt>
      <trkpt lat="44.38014" lon="3.74446">
        <ele>1101.81</ele>
        <time>2022-08-06T11:50:05Z</time>
      </trkpt>
      <trkpt lat="44.37995" lon="3.74445">
        <ele>1101.33</ele>
        <time>2022-08-06T11:50:20Z</time>
      </trkpt>
      <trkpt lat="44.37975" lon="3.7445">
        <ele>1102.29</ele>
        <time>2022-08-06T11:50:36Z</time>
      </trkpt>
      <trkpt lat="44.37964" lon="3.74443">
        <ele>1100.85</ele>
        <time>2022-08-06T11:50:52Z</time>
      </trkpt>
      <trkpt lat="44.37957" lon="3.7444">
        <ele>1101.33</ele>
        <time>2022-08-06T11:51:04Z</time>
      </trkpt>
      <trkpt lat="44.37953" lon="3.7444">
        <ele>1101.81</ele>
        <time>2022-08-06T11:51:09Z</time>
      </trkpt>
      <trkpt lat="44.37951" lon="3.74441">
        <ele>1101.81</ele>
        <time>2022-08-06T11:51:11Z</time>
      </trkpt>
      <trkpt lat="44.37937" lon="3.74443">
        <ele>1102.29</ele>
        <time>2022-08-06T11:51:22Z</time>
      </trkpt>
      <trkpt lat="44.37917" lon="3.74443">
        <ele>1104.21</ele>
        <time>2022-08-06T11:51:38Z</time>
      </trkpt>
      <trkpt lat="44.37904" lon="3.74447">
        <ele>1105.17</ele>
        <time>2022-08-06T11:51:52Z</time>
      </trkpt>
      <trkpt lat="44.37894" lon="3.74439">
        <ele>1106.13</ele>
        <time>2022-08-06T11:52:04Z</time>
      </trkpt>
      <trkpt lat="44.37891" lon="3.74434">
        <ele>1105.65</ele>
        <time>2022-08-06T11:52:08Z</time>
      </trkpt>
      <trkpt lat="44.37889" lon="3.74432">
        <ele>1105.65</ele>
        <time>2022-08-06T11:52:10Z</time>
      </trkpt>
      <trkpt lat="44.37877" lon="3.74412">
        <ele>1105.17</ele>
        <time>2022-08-06T11:52:26Z</time>
      </trkpt>
      <trkpt lat="44.37869" lon="3.7441">
        <ele>1105.17</ele>
        <time>2022-08-06T11:52:39Z</time>
      </trkpt>
      <trkpt lat="44.37864" lon="3.74399">
        <ele>1105.65</ele>
        <time>2022-08-06T11:52:52Z</time>
      </trkpt>
      <trkpt lat="44.37861" lon="3.74386">
        <ele>1105.65</ele>
        <time>2022-08-06T11:53:02Z</time>
      </trkpt>
      <trkpt lat="44.37856" lon="3.74361">
        <ele>1108.54</ele>
        <time>2022-08-06T11:53:22Z</time>
      </trkpt>
      <trkpt lat="44.37846" lon="3.74351">
        <ele>1112.38</ele>
        <time>2022-08-06T11:53:37Z</time>
      </trkpt>
      <trkpt lat="44.37839" lon="3.74338">
        <ele>1110.94</ele>
        <time>2022-08-06T11:53:52Z</time>
      </trkpt>
      <trkpt lat="44.37838" lon="3.74324">
        <ele>1111.42</ele>
        <time>2022-08-06T11:54:01Z</time>
      </trkpt>
      <trkpt lat="44.3782" lon="3.74317">
        <ele>1112.86</ele>
        <time>2022-08-06T11:54:19Z</time>
      </trkpt>
      <trkpt lat="44.3782" lon="3.74319">
        <ele>1112.38</ele>
        <time>2022-08-06T11:54:37Z</time>
      </trkpt>
      <trkpt lat="44.37819" lon="3.74322">
        <ele>1112.38</ele>
        <time>2022-08-06T11:55:02Z</time>
      </trkpt>
      <trkpt lat="44.37814" lon="3.74319">
        <ele>1113.34</ele>
        <time>2022-08-06T11:55:09Z</time>
      </trkpt>
      <trkpt lat="44.37794" lon="3.74325">
        <ele>1116.23</ele>
        <time>2022-08-06T11:55:26Z</time>
      </trkpt>
      <trkpt lat="44.37777" lon="3.7434">
        <ele>1118.15</ele>
        <time>2022-08-06T11:55:41Z</time>
      </trkpt>
      <trkpt lat="44.37764" lon="3.74364">
        <ele>1118.63</ele>
        <time>2022-08-06T11:55:57Z</time>
      </trkpt>
      <trkpt lat="44.37746" lon="3.74381">
        <ele>1120.07</ele>
        <time>2022-08-06T11:56:16Z</time>
      </trkpt>
      <trkpt lat="44.37744" lon="3.74382">
        <ele>1120.55</ele>
        <time>2022-08-06T11:56:20Z</time>
      </trkpt>
      <trkpt lat="44.37739" lon="3.74382">
        <ele>1120.55</ele>
        <time>2022-08-06T11:56:28Z</time>
      </trkpt>
      <trkpt lat="44.3774" lon="3.74383">
        <ele>1116.71</ele>
        <time>2022-08-06T11:56:47Z</time>
      </trkpt>
      <trkpt lat="44.37726" lon="3.74372">
        <ele>1115.27</ele>
        <time>2022-08-06T11:57:02Z</time>
      </trkpt>
      <trkpt lat="44.37725" lon="3.74371">
        <ele>1114.79</ele>
        <time>2022-08-06T11:57:03Z</time>
      </trkpt>
      <trkpt lat="44.37706" lon="3.74363">
        <ele>1112.38</ele>
        <time>2022-08-06T11:57:20Z</time>
      </trkpt>
      <trkpt lat="44.37685" lon="3.74362">
        <ele>1109.98</ele>
        <time>2022-08-06T11:57:37Z</time>
      </trkpt>
      <trkpt lat="44.37663" lon="3.74362">
        <ele>1109.98</ele>
        <time>2022-08-06T11:57:54Z</time>
      </trkpt>
      <trkpt lat="44.37641" lon="3.74362">
        <ele>1109.98</ele>
        <time>2022-08-06T11:58:11Z</time>
      </trkpt>
      <trkpt lat="44.37623" lon="3.7436">
        <ele>1109.98</ele>
        <time>2022-08-06T11:58:26Z</time>
      </trkpt>
      <trkpt lat="44.37611" lon="3.74351">
        <ele>1106.61</ele>
        <time>2022-08-06T11:58:42Z</time>
      </trkpt>
      <trkpt lat="44.37612" lon="3.74344">
        <ele>1107.1</ele>
        <time>2022-08-06T11:58:58Z</time>
      </trkpt>
      <trkpt lat="44.3761" lon="3.74332">
        <ele>1104.21</ele>
        <time>2022-08-06T11:59:14Z</time>
      </trkpt>
      <trkpt lat="44.37601" lon="3.74324">
        <ele>1102.77</ele>
        <time>2022-08-06T11:59:30Z</time>
      </trkpt>
      <trkpt lat="44.37594" lon="3.74312">
        <ele>1101.33</ele>
        <time>2022-08-06T11:59:44Z</time>
      </trkpt>
      <trkpt lat="44.3759" lon="3.74295">
        <ele>1101.33</ele>
        <time>2022-08-06T11:59:59Z</time>
      </trkpt>
      <trkpt lat="44.37586" lon="3.74283">
        <ele>1099.89</ele>
        <time>2022-08-06T12:00:10Z</time>
      </trkpt>
      <trkpt lat="44.37578" lon="3.7427">
        <ele>1098.92</ele>
        <time>2022-08-06T12:00:26Z</time>
      </trkpt>
      <trkpt lat="44.37574" lon="3.74259">
        <ele>1097.96</ele>
        <time>2022-08-06T12:00:37Z</time>
      </trkpt>
      <trkpt lat="44.37557" lon="3.74261">
        <ele>1095.08</ele>
        <time>2022-08-06T12:00:52Z</time>
      </trkpt>
      <trkpt lat="44.37545" lon="3.74276">
        <ele>1095.56</ele>
        <time>2022-08-06T12:01:07Z</time>
      </trkpt>
      <trkpt lat="44.37539" lon="3.74281">
        <ele>1096.52</ele>
        <time>2022-08-06T12:01:14Z</time>
      </trkpt>
      <trkpt lat="44.37534" lon="3.74286">
        <ele>1096.04</ele>
        <time>2022-08-06T12:01:27Z</time>
      </trkpt>
      <trkpt lat="44.37523" lon="3.74285">
        <ele>1094.6</ele>
        <time>2022-08-06T12:01:42Z</time>
      </trkpt>
      <trkpt lat="44.37509" lon="3.74293">
        <ele>1094.6</ele>
        <time>2022-08-06T12:01:56Z</time>
      </trkpt>
      <trkpt lat="44.37503" lon="3.74299">
        <ele>1094.12</ele>
        <time>2022-08-06T12:02:03Z</time>
      </trkpt>
      <trkpt lat="44.37497" lon="3.74303">
        <ele>1093.16</ele>
        <time>2022-08-06T12:02:08Z</time>
      </trkpt>
      <trkpt lat="44.37479" lon="3.74316">
        <ele>1092.68</ele>
        <time>2022-08-06T12:02:25Z</time>
      </trkpt>
      <trkpt lat="44.37465" lon="3.74325">
        <ele>1092.68</ele>
        <time>2022-08-06T12:02:39Z</time>
      </trkpt>
      <trkpt lat="44.37452" lon="3.7434">
        <ele>1092.68</ele>
        <time>2022-08-06T12:02:55Z</time>
      </trkpt>
      <trkpt lat="44.3744" lon="3.74354">
        <ele>1092.68</ele>
        <time>2022-08-06T12:03:10Z</time>
      </trkpt>
      <trkpt lat="44.37429" lon="3.74364">
        <ele>1092.68</ele>
        <time>2022-08-06T12:03:26Z</time>
      </trkpt>
      <trkpt lat="44.37429" lon="3.74374">
        <ele>1094.12</ele>
        <time>2022-08-06T12:03:38Z</time>
      </trkpt>
      <trkpt lat="44.37429" lon="3.74378">
        <ele>1094.12</ele>
        <time>2022-08-06T12:03:41Z</time>
      </trkpt>
      <trkpt lat="44.37427" lon="3.74385">
        <ele>1094.12</ele>
        <time>2022-08-06T12:03:54Z</time>
      </trkpt>
      <trkpt lat="44.37427" lon="3.7439">
        <ele>1096.04</ele>
        <time>2022-08-06T12:04:07Z</time>
      </trkpt>
      <trkpt lat="44.37427" lon="3.74392">
        <ele>1094.12</ele>
        <time>2022-08-06T12:04:27Z</time>
      </trkpt>
      <trkpt lat="44.37419" lon="3.74407">
        <ele>1094.12</ele>
        <time>2022-08-06T12:04:40Z</time>
      </trkpt>
      <trkpt lat="44.37407" lon="3.7443">
        <ele>1093.16</ele>
        <time>2022-08-06T12:04:58Z</time>
      </trkpt>
      <trkpt lat="44.37399" lon="3.74445">
        <ele>1093.16</ele>
        <time>2022-08-06T12:05:09Z</time>
      </trkpt>
      <trkpt lat="44.37396" lon="3.74451">
        <ele>1093.16</ele>
        <time>2022-08-06T12:05:14Z</time>
      </trkpt>
      <trkpt lat="44.37383" lon="3.7448">
        <ele>1092.2</ele>
        <time>2022-08-06T12:05:33Z</time>
      </trkpt>
      <trkpt lat="44.3737" lon="3.74497">
        <ele>1092.2</ele>
        <time>2022-08-06T12:05:50Z</time>
      </trkpt>
      <trkpt lat="44.37367" lon="3.74501">
        <ele>1091.71</ele>
        <time>2022-08-06T12:05:54Z</time>
      </trkpt>
      <trkpt lat="44.37348" lon="3.74514">
        <ele>1092.68</ele>
        <time>2022-08-06T12:06:12Z</time>
      </trkpt>
      <trkpt lat="44.37339" lon="3.74518">
        <ele>1092.68</ele>
        <time>2022-08-06T12:06:20Z</time>
      </trkpt>
      <trkpt lat="44.37337" lon="3.7452">
        <ele>1092.68</ele>
        <time>2022-08-06T12:06:23Z</time>
      </trkpt>
      <trkpt lat="44.37334" lon="3.74521">
        <ele>1092.68</ele>
        <time>2022-08-06T12:06:26Z</time>
      </trkpt>
      <trkpt lat="44.37323" lon="3.74526">
        <ele>1089.79</ele>
        <time>2022-08-06T12:06:40Z</time>
      </trkpt>
      <trkpt lat="44.37316" lon="3.74528">
        <ele>1088.35</ele>
        <time>2022-08-06T12:06:48Z</time>
      </trkpt>
      <trkpt lat="44.37308" lon="3.74527">
        <ele>1087.87</ele>
        <time>2022-08-06T12:06:58Z</time>
      </trkpt>
      <trkpt lat="44.37306" lon="3.74528">
        <ele>1087.39</ele>
        <time>2022-08-06T12:07:01Z</time>
      </trkpt>
      <trkpt lat="44.37296" lon="3.74527">
        <ele>1084.99</ele>
        <time>2022-08-06T12:07:14Z</time>
      </trkpt>
      <trkpt lat="44.37284" lon="3.74525">
        <ele>1082.1</ele>
        <time>2022-08-06T12:07:28Z</time>
      </trkpt>
      <trkpt lat="44.37275" lon="3.74524">
        <ele>1079.7</ele>
        <time>2022-08-06T12:07:42Z</time>
      </trkpt>
      <trkpt lat="44.37265" lon="3.74524">
        <ele>1076.81</ele>
        <time>2022-08-06T12:07:55Z</time>
      </trkpt>
      <trkpt lat="44.37264" lon="3.74522">
        <ele>1076.33</ele>
        <time>2022-08-06T12:07:57Z</time>
      </trkpt>
      <trkpt lat="44.37254" lon="3.74525">
        <ele>1075.85</ele>
        <time>2022-08-06T12:08:11Z</time>
      </trkpt>
      <trkpt lat="44.37251" lon="3.74532">
        <ele>1075.37</ele>
        <time>2022-08-06T12:08:17Z</time>
      </trkpt>
      <trkpt lat="44.37249" lon="3.74537">
        <ele>1074.89</ele>
        <time>2022-08-06T12:08:21Z</time>
      </trkpt>
      <trkpt lat="44.37238" lon="3.74549">
        <ele>1071.53</ele>
        <time>2022-08-06T12:08:38Z</time>
      </trkpt>
      <trkpt lat="44.37237" lon="3.74548">
        <ele>1071.53</ele>
        <time>2022-08-06T12:08:39Z</time>
      </trkpt>
      <trkpt lat="44.37234" lon="3.7455">
        <ele>1070.57</ele>
        <time>2022-08-06T12:08:43Z</time>
      </trkpt>
      <trkpt lat="44.37234" lon="3.74553">
        <ele>1070.57</ele>
        <time>2022-08-06T12:08:45Z</time>
      </trkpt>
      <trkpt lat="44.37234" lon="3.74559">
        <ele>1069.6</ele>
        <time>2022-08-06T12:08:49Z</time>
      </trkpt>
      <trkpt lat="44.37221" lon="3.74577">
        <ele>1067.68</ele>
        <time>2022-08-06T12:09:07Z</time>
      </trkpt>
      <trkpt lat="44.37216" lon="3.74581">
        <ele>1067.2</ele>
        <time>2022-08-06T12:09:13Z</time>
      </trkpt>
      <trkpt lat="44.37202" lon="3.74592">
        <ele>1065.76</ele>
        <time>2022-08-06T12:09:29Z</time>
      </trkpt>
      <trkpt lat="44.37198" lon="3.74596">
        <ele>1064.8</ele>
        <time>2022-08-06T12:09:36Z</time>
      </trkpt>
      <trkpt lat="44.37188" lon="3.7461">
        <ele>1063.36</ele>
        <time>2022-08-06T12:09:53Z</time>
      </trkpt>
      <trkpt lat="44.37181" lon="3.74617">
        <ele>1060.95</ele>
        <time>2022-08-06T12:10:07Z</time>
      </trkpt>
      <trkpt lat="44.37176" lon="3.74615">
        <ele>1059.03</ele>
        <time>2022-08-06T12:10:19Z</time>
      </trkpt>
      <trkpt lat="44.37167" lon="3.74613">
        <ele>1056.15</ele>
        <time>2022-08-06T12:10:31Z</time>
      </trkpt>
      <trkpt lat="44.37156" lon="3.74609">
        <ele>1053.74</ele>
        <time>2022-08-06T12:10:46Z</time>
      </trkpt>
      <trkpt lat="44.37146" lon="3.74602">
        <ele>1050.86</ele>
        <time>2022-08-06T12:11:02Z</time>
      </trkpt>
      <trkpt lat="44.37144" lon="3.74604">
        <ele>1049.9</ele>
        <time>2022-08-06T12:11:25Z</time>
      </trkpt>
      <trkpt lat="44.37142" lon="3.74604">
        <ele>1051.34</ele>
        <time>2022-08-06T12:11:46Z</time>
      </trkpt>
      <trkpt lat="44.37138" lon="3.74613">
        <ele>1048.94</ele>
        <time>2022-08-06T12:11:57Z</time>
      </trkpt>
      <trkpt lat="44.37132" lon="3.74623">
        <ele>1047.49</ele>
        <time>2022-08-06T12:12:12Z</time>
      </trkpt>
      <trkpt lat="44.37129" lon="3.74621">
        <ele>1045.57</ele>
        <time>2022-08-06T12:12:17Z</time>
      </trkpt>
      <trkpt lat="44.37123" lon="3.74608">
        <ele>1042.69</ele>
        <time>2022-08-06T12:12:30Z</time>
      </trkpt>
      <trkpt lat="44.3712" lon="3.74605">
        <ele>1044.13</ele>
        <time>2022-08-06T12:12:42Z</time>
      </trkpt>
      <trkpt lat="44.37113" lon="3.7461">
        <ele>1042.69</ele>
        <time>2022-08-06T12:12:54Z</time>
      </trkpt>
      <trkpt lat="44.37102" lon="3.74615">
        <ele>1040.76</ele>
        <time>2022-08-06T12:13:10Z</time>
      </trkpt>
      <trkpt lat="44.37102" lon="3.74616">
        <ele>1040.76</ele>
        <time>2022-08-06T12:13:11Z</time>
      </trkpt>
      <trkpt lat="44.37099" lon="3.74617">
        <ele>1040.28</ele>
        <time>2022-08-06T12:13:14Z</time>
      </trkpt>
      <trkpt lat="44.37087" lon="3.74615">
        <ele>1038.36</ele>
        <time>2022-08-06T12:13:28Z</time>
      </trkpt>
      <trkpt lat="44.37086" lon="3.74609">
        <ele>1037.4</ele>
        <time>2022-08-06T12:13:33Z</time>
      </trkpt>
      <trkpt lat="44.37094" lon="3.74598">
        <ele>1035.48</ele>
        <time>2022-08-06T12:13:46Z</time>
      </trkpt>
      <trkpt lat="44.37099" lon="3.7458">
        <ele>1032.11</ele>
        <time>2022-08-06T12:14:03Z</time>
      </trkpt>
      <trkpt lat="44.37104" lon="3.7456">
        <ele>1030.19</ele>
        <time>2022-08-06T12:14:19Z</time>
      </trkpt>
      <trkpt lat="44.37107" lon="3.74543">
        <ele>1028.75</ele>
        <time>2022-08-06T12:14:34Z</time>
      </trkpt>
      <trkpt lat="44.3711" lon="3.74531">
        <ele>1026.83</ele>
        <time>2022-08-06T12:14:48Z</time>
      </trkpt>
      <trkpt lat="44.37112" lon="3.74516">
        <ele>1024.9</ele>
        <time>2022-08-06T12:15:02Z</time>
      </trkpt>
      <trkpt lat="44.3711" lon="3.74511">
        <ele>1023.94</ele>
        <time>2022-08-06T12:15:08Z</time>
      </trkpt>
      <trkpt lat="44.37099" lon="3.74509">
        <ele>1024.42</ele>
        <time>2022-08-06T12:15:22Z</time>
      </trkpt>
      <trkpt lat="44.3709" lon="3.74507">
        <ele>1022.02</ele>
        <time>2022-08-06T12:15:34Z</time>
      </trkpt>
      <trkpt lat="44.37077" lon="3.74506">
        <ele>1019.62</ele>
        <time>2022-08-06T12:15:49Z</time>
      </trkpt>
      <trkpt lat="44.37064" lon="3.74506">
        <ele>1016.73</ele>
        <time>2022-08-06T12:16:06Z</time>
      </trkpt>
      <trkpt lat="44.3705" lon="3.74505">
        <ele>1016.25</ele>
        <time>2022-08-06T12:16:21Z</time>
      </trkpt>
      <trkpt lat="44.37039" lon="3.74502">
        <ele>1011.93</ele>
        <time>2022-08-06T12:16:36Z</time>
      </trkpt>
      <trkpt lat="44.37025" lon="3.74496">
        <ele>1009.52</ele>
        <time>2022-08-06T12:16:50Z</time>
      </trkpt>
      <trkpt lat="44.37015" lon="3.74488">
        <ele>1007.12</ele>
        <time>2022-08-06T12:17:05Z</time>
      </trkpt>
      <trkpt lat="44.37005" lon="3.74485">
        <ele>1006.16</ele>
        <time>2022-08-06T12:17:20Z</time>
      </trkpt>
      <trkpt lat="44.36998" lon="3.74486">
        <ele>1004.23</ele>
        <time>2022-08-06T12:17:33Z</time>
      </trkpt>
      <trkpt lat="44.36987" lon="3.74488">
        <ele>1001.83</ele>
        <time>2022-08-06T12:17:50Z</time>
      </trkpt>
      <trkpt lat="44.3699" lon="3.7449">
        <ele>998.47</ele>
        <time>2022-08-06T12:18:04Z</time>
      </trkpt>
      <trkpt lat="44.3699" lon="3.74487">
        <ele>998.47</ele>
        <time>2022-08-06T12:18:18Z</time>
      </trkpt>
      <trkpt lat="44.36988" lon="3.7449">
        <ele>996.06</ele>
        <time>2022-08-06T12:18:42Z</time>
      </trkpt>
      <trkpt lat="44.36992" lon="3.74491">
        <ele>998.47</ele>
        <time>2022-08-06T12:19:08Z</time>
      </trkpt>
      <trkpt lat="44.3698" lon="3.74492">
        <ele>996.06</ele>
        <time>2022-08-06T12:19:23Z</time>
      </trkpt>
      <trkpt lat="44.36973" lon="3.74496">
        <ele>994.62</ele>
        <time>2022-08-06T12:19:36Z</time>
      </trkpt>
      <trkpt lat="44.36975" lon="3.74507">
        <ele>992.7</ele>
        <time>2022-08-06T12:19:49Z</time>
      </trkpt>
      <trkpt lat="44.36965" lon="3.74509">
        <ele>991.26</ele>
        <time>2022-08-06T12:20:04Z</time>
      </trkpt>
      <trkpt lat="44.36956" lon="3.74504">
        <ele>989.81</ele>
        <time>2022-08-06T12:20:18Z</time>
      </trkpt>
      <trkpt lat="44.36944" lon="3.74501">
        <ele>988.37</ele>
        <time>2022-08-06T12:20:32Z</time>
      </trkpt>
      <trkpt lat="44.36933" lon="3.74498">
        <ele>985.97</ele>
        <time>2022-08-06T12:20:47Z</time>
      </trkpt>
      <trkpt lat="44.3692" lon="3.74494">
        <ele>985.01</ele>
        <time>2022-08-06T12:21:01Z</time>
      </trkpt>
      <trkpt lat="44.36911" lon="3.74486">
        <ele>984.05</ele>
        <time>2022-08-06T12:21:15Z</time>
      </trkpt>
      <trkpt lat="44.36902" lon="3.74479">
        <ele>983.09</ele>
        <time>2022-08-06T12:21:29Z</time>
      </trkpt>
      <trkpt lat="44.36892" lon="3.7447">
        <ele>982.6</ele>
        <time>2022-08-06T12:21:43Z</time>
      </trkpt>
      <trkpt lat="44.36886" lon="3.74467">
        <ele>981.64</ele>
        <time>2022-08-06T12:21:51Z</time>
      </trkpt>
      <trkpt lat="44.36867" lon="3.74455">
        <ele>978.76</ele>
        <time>2022-08-06T12:22:09Z</time>
      </trkpt>
      <trkpt lat="44.36857" lon="3.74448">
        <ele>975.88</ele>
        <time>2022-08-06T12:22:23Z</time>
      </trkpt>
      <trkpt lat="44.36841" lon="3.74445">
        <ele>973.47</ele>
        <time>2022-08-06T12:22:40Z</time>
      </trkpt>
      <trkpt lat="44.36838" lon="3.74446">
        <ele>972.99</ele>
        <time>2022-08-06T12:22:43Z</time>
      </trkpt>
      <trkpt lat="44.36834" lon="3.74445">
        <ele>972.03</ele>
        <time>2022-08-06T12:23:02Z</time>
      </trkpt>
      <trkpt lat="44.36831" lon="3.74445">
        <ele>971.07</ele>
        <time>2022-08-06T12:23:26Z</time>
      </trkpt>
      <trkpt lat="44.36823" lon="3.74446">
        <ele>970.59</ele>
        <time>2022-08-06T12:23:41Z</time>
      </trkpt>
      <trkpt lat="44.36812" lon="3.74445">
        <ele>970.11</ele>
        <time>2022-08-06T12:23:55Z</time>
      </trkpt>
      <trkpt lat="44.36806" lon="3.74443">
        <ele>968.67</ele>
        <time>2022-08-06T12:24:02Z</time>
      </trkpt>
      <trkpt lat="44.36793" lon="3.74437">
        <ele>966.26</ele>
        <time>2022-08-06T12:24:18Z</time>
      </trkpt>
      <trkpt lat="44.36784" lon="3.74434">
        <ele>962.9</ele>
        <time>2022-08-06T12:24:33Z</time>
      </trkpt>
      <trkpt lat="44.36774" lon="3.74425">
        <ele>960.49</ele>
        <time>2022-08-06T12:24:48Z</time>
      </trkpt>
      <trkpt lat="44.36762" lon="3.74417">
        <ele>956.65</ele>
        <time>2022-08-06T12:25:02Z</time>
      </trkpt>
      <trkpt lat="44.36756" lon="3.74406">
        <ele>953.28</ele>
        <time>2022-08-06T12:25:18Z</time>
      </trkpt>
      <trkpt lat="44.36741" lon="3.74401">
        <ele>950.4</ele>
        <time>2022-08-06T12:25:35Z</time>
      </trkpt>
      <trkpt lat="44.36731" lon="3.74406">
        <ele>949.44</ele>
        <time>2022-08-06T12:25:51Z</time>
      </trkpt>
      <trkpt lat="44.36718" lon="3.74414">
        <ele>946.07</ele>
        <time>2022-08-06T12:26:07Z</time>
      </trkpt>
      <trkpt lat="44.36707" lon="3.74421">
        <ele>944.63</ele>
        <time>2022-08-06T12:26:22Z</time>
      </trkpt>
      <trkpt lat="44.36695" lon="3.74428">
        <ele>940.31</ele>
        <time>2022-08-06T12:26:37Z</time>
      </trkpt>
      <trkpt lat="44.36683" lon="3.74432">
        <ele>937.42</ele>
        <time>2022-08-06T12:26:53Z</time>
      </trkpt>
      <trkpt lat="44.36674" lon="3.74435">
        <ele>935.02</ele>
        <time>2022-08-06T12:27:03Z</time>
      </trkpt>
      <trkpt lat="44.36656" lon="3.74435">
        <ele>931.17</ele>
        <time>2022-08-06T12:27:22Z</time>
      </trkpt>
      <trkpt lat="44.36641" lon="3.7443">
        <ele>927.33</ele>
        <time>2022-08-06T12:27:38Z</time>
      </trkpt>
      <trkpt lat="44.36627" lon="3.74427">
        <ele>926.37</ele>
        <time>2022-08-06T12:27:54Z</time>
      </trkpt>
      <trkpt lat="44.36614" lon="3.74427">
        <ele>925.41</ele>
        <time>2022-08-06T12:28:07Z</time>
      </trkpt>
      <trkpt lat="44.36606" lon="3.74431">
        <ele>924.45</ele>
        <time>2022-08-06T12:28:17Z</time>
      </trkpt>
      <trkpt lat="44.366" lon="3.74437">
        <ele>923.48</ele>
        <time>2022-08-06T12:28:30Z</time>
      </trkpt>
      <trkpt lat="44.36587" lon="3.74437">
        <ele>920.12</ele>
        <time>2022-08-06T12:28:45Z</time>
      </trkpt>
      <trkpt lat="44.36578" lon="3.7444">
        <ele>916.75</ele>
        <time>2022-08-06T12:28:56Z</time>
      </trkpt>
      <trkpt lat="44.36563" lon="3.74433">
        <ele>914.35</ele>
        <time>2022-08-06T12:29:12Z</time>
      </trkpt>
      <trkpt lat="44.36551" lon="3.74427">
        <ele>912.91</ele>
        <time>2022-08-06T12:29:26Z</time>
      </trkpt>
      <trkpt lat="44.36538" lon="3.74423">
        <ele>909.06</ele>
        <time>2022-08-06T12:29:41Z</time>
      </trkpt>
      <trkpt lat="44.36528" lon="3.74416">
        <ele>905.22</ele>
        <time>2022-08-06T12:29:57Z</time>
      </trkpt>
      <trkpt lat="44.36524" lon="3.74419">
        <ele>907.62</ele>
        <time>2022-08-06T12:30:14Z</time>
      </trkpt>
      <trkpt lat="44.36513" lon="3.74407">
        <ele>903.3</ele>
        <time>2022-08-06T12:30:28Z</time>
      </trkpt>
      <trkpt lat="44.36497" lon="3.74404">
        <ele>902.82</ele>
        <time>2022-08-06T12:30:42Z</time>
      </trkpt>
      <trkpt lat="44.36482" lon="3.74405">
        <ele>903.3</ele>
        <time>2022-08-06T12:30:56Z</time>
      </trkpt>
      <trkpt lat="44.3647" lon="3.74407">
        <ele>901.85</ele>
        <time>2022-08-06T12:31:10Z</time>
      </trkpt>
      <trkpt lat="44.36461" lon="3.74409">
        <ele>898.97</ele>
        <time>2022-08-06T12:31:24Z</time>
      </trkpt>
      <trkpt lat="44.36454" lon="3.74402">
        <ele>895.61</ele>
        <time>2022-08-06T12:31:38Z</time>
      </trkpt>
      <trkpt lat="44.36451" lon="3.74397">
        <ele>895.61</ele>
        <time>2022-08-06T12:31:43Z</time>
      </trkpt>
      <trkpt lat="44.36441" lon="3.74381">
        <ele>894.64</ele>
        <time>2022-08-06T12:31:59Z</time>
      </trkpt>
      <trkpt lat="44.36432" lon="3.74373">
        <ele>892.24</ele>
        <time>2022-08-06T12:32:13Z</time>
      </trkpt>
      <trkpt lat="44.36424" lon="3.74377">
        <ele>888.4</ele>
        <time>2022-08-06T12:32:27Z</time>
      </trkpt>
      <trkpt lat="44.36415" lon="3.74385">
        <ele>886.95</ele>
        <time>2022-08-06T12:32:40Z</time>
      </trkpt>
      <trkpt lat="44.36401" lon="3.74384">
        <ele>886.95</ele>
        <time>2022-08-06T12:32:55Z</time>
      </trkpt>
      <trkpt lat="44.36391" lon="3.7438">
        <ele>885.51</ele>
        <time>2022-08-06T12:33:09Z</time>
      </trkpt>
      <trkpt lat="44.36386" lon="3.7438">
        <ele>885.03</ele>
        <time>2022-08-06T12:33:22Z</time>
      </trkpt>
      <trkpt lat="44.36386" lon="3.74379">
        <ele>884.07</ele>
        <time>2022-08-06T12:33:42Z</time>
      </trkpt>
      <trkpt lat="44.36386" lon="3.74377">
        <ele>883.59</ele>
        <time>2022-08-06T12:33:45Z</time>
      </trkpt>
      <trkpt lat="44.36384" lon="3.74359">
        <ele>884.55</ele>
        <time>2022-08-06T12:34:02Z</time>
      </trkpt>
      <trkpt lat="44.36383" lon="3.74343">
        <ele>884.55</ele>
        <time>2022-08-06T12:34:16Z</time>
      </trkpt>
      <trkpt lat="44.36377" lon="3.74337">
        <ele>884.07</ele>
        <time>2022-08-06T12:34:24Z</time>
      </trkpt>
      <trkpt lat="44.36369" lon="3.74338">
        <ele>883.59</ele>
        <time>2022-08-06T12:34:32Z</time>
      </trkpt>
      <trkpt lat="44.36358" lon="3.74345">
        <ele>883.11</ele>
        <time>2022-08-06T12:34:46Z</time>
      </trkpt>
      <trkpt lat="44.36357" lon="3.74348">
        <ele>880.22</ele>
        <time>2022-08-06T12:34:59Z</time>
      </trkpt>
      <trkpt lat="44.36346" lon="3.74354">
        <ele>878.78</ele>
        <time>2022-08-06T12:35:11Z</time>
      </trkpt>
      <trkpt lat="44.36344" lon="3.74356">
        <ele>877.82</ele>
        <time>2022-08-06T12:35:14Z</time>
      </trkpt>
      <trkpt lat="44.36342" lon="3.74362">
        <ele>873.98</ele>
        <time>2022-08-06T12:35:27Z</time>
      </trkpt>
      <trkpt lat="44.36335" lon="3.7436">
        <ele>874.94</ele>
        <time>2022-08-06T12:35:35Z</time>
      </trkpt>
      <trkpt lat="44.36327" lon="3.74366">
        <ele>876.38</ele>
        <time>2022-08-06T12:35:48Z</time>
      </trkpt>
      <trkpt lat="44.36324" lon="3.7437">
        <ele>877.34</ele>
        <time>2022-08-06T12:36:03Z</time>
      </trkpt>
      <trkpt lat="44.36327" lon="3.74374">
        <ele>880.71</ele>
        <time>2022-08-06T12:36:20Z</time>
      </trkpt>
      <trkpt lat="44.36327" lon="3.74377">
        <ele>880.22</ele>
        <time>2022-08-06T12:36:41Z</time>
      </trkpt>
      <trkpt lat="44.36325" lon="3.74373">
        <ele>880.71</ele>
        <time>2022-08-06T12:37:08Z</time>
      </trkpt>
      <trkpt lat="44.36324" lon="3.7438">
        <ele>882.63</ele>
        <time>2022-08-06T12:37:36Z</time>
      </trkpt>
      <trkpt lat="44.3633" lon="3.74383">
        <ele>882.63</ele>
        <time>2022-08-06T12:38:12Z</time>
      </trkpt>
      <trkpt lat="44.36325" lon="3.7438">
        <ele>880.71</ele>
        <time>2022-08-06T12:38:30Z</time>
      </trkpt>
      <trkpt lat="44.36325" lon="3.74385">
        <ele>879.74</ele>
        <time>2022-08-06T12:38:46Z</time>
      </trkpt>
      <trkpt lat="44.36325" lon="3.74382">
        <ele>877.82</ele>
        <time>2022-08-06T12:39:04Z</time>
      </trkpt>
      <trkpt lat="44.36326" lon="3.74382">
        <ele>875.9</ele>
        <time>2022-08-06T12:39:19Z</time>
      </trkpt>
      <trkpt lat="44.36322" lon="3.74379">
        <ele>873.01</ele>
        <time>2022-08-06T12:39:35Z</time>
      </trkpt>
      <trkpt lat="44.36324" lon="3.74377">
        <ele>868.69</ele>
        <time>2022-08-06T12:40:17Z</time>
      </trkpt>
      <trkpt lat="44.36326" lon="3.74378">
        <ele>869.17</ele>
        <time>2022-08-06T12:40:52Z</time>
      </trkpt>
      <trkpt lat="44.36323" lon="3.74372">
        <ele>877.82</ele>
        <time>2022-08-06T12:41:36Z</time>
      </trkpt>
      <trkpt lat="44.36328" lon="3.74384">
        <ele>873.98</ele>
        <time>2022-08-06T12:42:14Z</time>
      </trkpt>
      <trkpt lat="44.36327" lon="3.74386">
        <ele>870.61</ele>
        <time>2022-08-06T12:42:49Z</time>
      </trkpt>
      <trkpt lat="44.36323" lon="3.74382">
        <ele>873.01</ele>
        <time>2022-08-06T12:43:28Z</time>
      </trkpt>
      <trkpt lat="44.36326" lon="3.7438">
        <ele>874.46</ele>
        <time>2022-08-06T12:44:07Z</time>
      </trkpt>
      <trkpt lat="44.36323" lon="3.74373">
        <ele>871.57</ele>
        <time>2022-08-06T12:44:44Z</time>
      </trkpt>
      <trkpt lat="44.36323" lon="3.74374">
        <ele>869.65</ele>
        <time>2022-08-06T12:45:19Z</time>
      </trkpt>
      <trkpt lat="44.36326" lon="3.74376">
        <ele>873.5</ele>
        <time>2022-08-06T12:45:53Z</time>
      </trkpt>
      <trkpt lat="44.36327" lon="3.74376">
        <ele>875.42</ele>
        <time>2022-08-06T12:46:27Z</time>
      </trkpt>
      <trkpt lat="44.36327" lon="3.74377">
        <ele>876.38</ele>
        <time>2022-08-06T12:46:57Z</time>
      </trkpt>
      <trkpt lat="44.36328" lon="3.74378">
        <ele>875.42</ele>
        <time>2022-08-06T12:47:30Z</time>
      </trkpt>
      <trkpt lat="44.36327" lon="3.74381">
        <ele>872.53</ele>
        <time>2022-08-06T12:48:12Z</time>
      </trkpt>
      <trkpt lat="44.3633" lon="3.74379">
        <ele>871.09</ele>
        <time>2022-08-06T12:48:44Z</time>
      </trkpt>
      <trkpt lat="44.36328" lon="3.74381">
        <ele>873.5</ele>
        <time>2022-08-06T12:49:15Z</time>
      </trkpt>
      <trkpt lat="44.3633" lon="3.74384">
        <ele>871.09</ele>
        <time>2022-08-06T12:49:46Z</time>
      </trkpt>
      <trkpt lat="44.36329" lon="3.74385">
        <ele>867.73</ele>
        <time>2022-08-06T12:50:13Z</time>
      </trkpt>
      <trkpt lat="44.36327" lon="3.74383">
        <ele>869.65</ele>
        <time>2022-08-06T12:50:50Z</time>
      </trkpt>
      <trkpt lat="44.3633" lon="3.74382">
        <ele>870.61</ele>
        <time>2022-08-06T12:51:23Z</time>
      </trkpt>
      <trkpt lat="44.36327" lon="3.74383">
        <ele>869.65</ele>
        <time>2022-08-06T12:51:55Z</time>
      </trkpt>
      <trkpt lat="44.36322" lon="3.74378">
        <ele>874.94</ele>
        <time>2022-08-06T12:52:34Z</time>
      </trkpt>
      <trkpt lat="44.36323" lon="3.74375">
        <ele>877.82</ele>
        <time>2022-08-06T12:53:05Z</time>
      </trkpt>
      <trkpt lat="44.36323" lon="3.74378">
        <ele>879.26</ele>
        <time>2022-08-06T12:53:36Z</time>
      </trkpt>
      <trkpt lat="44.36323" lon="3.74378">
        <ele>877.82</ele>
        <time>2022-08-06T12:54:16Z</time>
      </trkpt>
      <trkpt lat="44.36313" lon="3.74369">
        <ele>885.51</ele>
        <time>2022-08-06T12:55:01Z</time>
      </trkpt>
      <trkpt lat="44.36318" lon="3.74374">
        <ele>886.47</ele>
        <time>2022-08-06T12:55:40Z</time>
      </trkpt>
      <trkpt lat="44.36322" lon="3.74379">
        <ele>883.59</ele>
        <time>2022-08-06T12:56:13Z</time>
      </trkpt>
      <trkpt lat="44.3632" lon="3.74376">
        <ele>883.59</ele>
        <time>2022-08-06T12:56:46Z</time>
      </trkpt>
      <trkpt lat="44.36323" lon="3.74378">
        <ele>877.34</ele>
        <time>2022-08-06T12:57:27Z</time>
      </trkpt>
      <trkpt lat="44.36322" lon="3.74384">
        <ele>877.82</ele>
        <time>2022-08-06T12:57:57Z</time>
      </trkpt>
      <trkpt lat="44.3632" lon="3.74383">
        <ele>883.59</ele>
        <time>2022-08-06T12:58:28Z</time>
      </trkpt>
      <trkpt lat="44.36319" lon="3.74375">
        <ele>883.59</ele>
        <time>2022-08-06T12:59:03Z</time>
      </trkpt>
      <trkpt lat="44.3632" lon="3.74381">
        <ele>882.63</ele>
        <time>2022-08-06T12:59:32Z</time>
      </trkpt>
      <trkpt lat="44.36323" lon="3.74386">
        <ele>884.07</ele>
        <time>2022-08-06T13:00:02Z</time>
      </trkpt>
      <trkpt lat="44.36319" lon="3.74382">
        <ele>884.07</ele>
        <time>2022-08-06T13:00:39Z</time>
      </trkpt>
      <trkpt lat="44.36319" lon="3.74382">
        <ele>884.07</ele>
        <time>2022-08-06T13:01:16Z</time>
      </trkpt>
      <trkpt lat="44.36328" lon="3.74392">
        <ele>876.86</ele>
        <time>2022-08-06T13:01:49Z</time>
      </trkpt>
      <trkpt lat="44.36326" lon="3.7439">
        <ele>877.82</ele>
        <time>2022-08-06T13:02:27Z</time>
      </trkpt>
      <trkpt lat="44.36326" lon="3.74385">
        <ele>883.11</ele>
        <time>2022-08-06T13:03:04Z</time>
      </trkpt>
      <trkpt lat="44.3633" lon="3.74385">
        <ele>881.19</ele>
        <time>2022-08-06T13:03:40Z</time>
      </trkpt>
      <trkpt lat="44.36327" lon="3.74383">
        <ele>880.71</ele>
        <time>2022-08-06T13:04:08Z</time>
      </trkpt>
      <trkpt lat="44.36326" lon="3.74384">
        <ele>878.78</ele>
        <time>2022-08-06T13:04:37Z</time>
      </trkpt>
      <trkpt lat="44.36325" lon="3.7438">
        <ele>882.15</ele>
        <time>2022-08-06T13:05:11Z</time>
      </trkpt>
      <trkpt lat="44.36329" lon="3.74388">
        <ele>879.74</ele>
        <time>2022-08-06T13:05:49Z</time>
      </trkpt>
      <trkpt lat="44.36328" lon="3.74388">
        <ele>876.86</ele>
        <time>2022-08-06T13:06:26Z</time>
      </trkpt>
      <trkpt lat="44.36329" lon="3.74389">
        <ele>873.5</ele>
        <time>2022-08-06T13:07:01Z</time>
      </trkpt>
      <trkpt lat="44.36332" lon="3.74392">
        <ele>873.98</ele>
        <time>2022-08-06T13:07:37Z</time>
      </trkpt>
      <trkpt lat="44.36331" lon="3.7439">
        <ele>874.94</ele>
        <time>2022-08-06T13:08:14Z</time>
      </trkpt>
      <trkpt lat="44.3633" lon="3.74387">
        <ele>876.38</ele>
        <time>2022-08-06T13:08:52Z</time>
      </trkpt>
      <trkpt lat="44.36328" lon="3.74384">
        <ele>879.26</ele>
        <time>2022-08-06T13:09:32Z</time>
      </trkpt>
      <trkpt lat="44.36329" lon="3.74381">
        <ele>880.71</ele>
        <time>2022-08-06T13:10:16Z</time>
      </trkpt>
      <trkpt lat="44.36326" lon="3.7438">
        <ele>881.67</ele>
        <time>2022-08-06T13:10:57Z</time>
      </trkpt>
      <trkpt lat="44.36324" lon="3.74382">
        <ele>881.19</ele>
        <time>2022-08-06T13:11:40Z</time>
      </trkpt>
      <trkpt lat="44.36328" lon="3.74383">
        <ele>875.9</ele>
        <time>2022-08-06T13:12:09Z</time>
      </trkpt>
      <trkpt lat="44.36329" lon="3.74389">
        <ele>861</ele>
        <time>2022-08-06T13:12:45Z</time>
      </trkpt>
      <trkpt lat="44.36326" lon="3.74383">
        <ele>865.8</ele>
        <time>2022-08-06T13:13:22Z</time>
      </trkpt>
      <trkpt lat="44.36329" lon="3.74386">
        <ele>866.77</ele>
        <time>2022-08-06T13:13:54Z</time>
      </trkpt>
      <trkpt lat="44.36329" lon="3.74386">
        <ele>867.25</ele>
        <time>2022-08-06T13:14:22Z</time>
      </trkpt>
      <trkpt lat="44.3633" lon="3.74388">
        <ele>866.77</ele>
        <time>2022-08-06T13:14:57Z</time>
      </trkpt>
      <trkpt lat="44.36327" lon="3.74383">
        <ele>872.53</ele>
        <time>2022-08-06T13:15:25Z</time>
      </trkpt>
      <trkpt lat="44.36326" lon="3.74383">
        <ele>876.86</ele>
        <time>2022-08-06T13:15:56Z</time>
      </trkpt>
      <trkpt lat="44.36329" lon="3.74382">
        <ele>873.98</ele>
        <time>2022-08-06T13:16:24Z</time>
      </trkpt>
      <trkpt lat="44.36329" lon="3.74389">
        <ele>867.25</ele>
        <time>2022-08-06T13:16:56Z</time>
      </trkpt>
      <trkpt lat="44.36328" lon="3.74385">
        <ele>867.25</ele>
        <time>2022-08-06T13:17:30Z</time>
      </trkpt>
      <trkpt lat="44.36323" lon="3.74381">
        <ele>877.34</ele>
        <time>2022-08-06T13:17:56Z</time>
      </trkpt>
      <trkpt lat="44.36322" lon="3.74385">
        <ele>879.74</ele>
        <time>2022-08-06T13:18:28Z</time>
      </trkpt>
      <trkpt lat="44.36324" lon="3.74381">
        <ele>876.38</ele>
        <time>2022-08-06T13:19:03Z</time>
      </trkpt>
      <trkpt lat="44.36325" lon="3.74381">
        <ele>876.86</ele>
        <time>2022-08-06T13:19:36Z</time>
      </trkpt>
      <trkpt lat="44.36326" lon="3.74384">
        <ele>869.65</ele>
        <time>2022-08-06T13:20:09Z</time>
      </trkpt>
      <trkpt lat="44.36325" lon="3.74387">
        <ele>873.5</ele>
        <time>2022-08-06T13:20:43Z</time>
      </trkpt>
      <trkpt lat="44.36322" lon="3.7438">
        <ele>872.05</ele>
        <time>2022-08-06T13:21:17Z</time>
      </trkpt>
      <trkpt lat="44.36324" lon="3.74383">
        <ele>869.65</ele>
        <time>2022-08-06T13:21:49Z</time>
      </trkpt>
      <trkpt lat="44.36324" lon="3.74381">
        <ele>872.53</ele>
        <time>2022-08-06T13:22:22Z</time>
      </trkpt>
      <trkpt lat="44.36323" lon="3.74381">
        <ele>873.5</ele>
        <time>2022-08-06T13:22:59Z</time>
      </trkpt>
      <trkpt lat="44.36323" lon="3.74376">
        <ele>877.34</ele>
        <time>2022-08-06T13:23:39Z</time>
      </trkpt>
      <trkpt lat="44.36324" lon="3.74377">
        <ele>878.3</ele>
        <time>2022-08-06T13:24:17Z</time>
      </trkpt>
      <trkpt lat="44.36321" lon="3.74377">
        <ele>872.53</ele>
        <time>2022-08-06T13:24:54Z</time>
      </trkpt>
      <trkpt lat="44.36324" lon="3.74379">
        <ele>878.78</ele>
        <time>2022-08-06T13:25:31Z</time>
      </trkpt>
      <trkpt lat="44.36325" lon="3.74379">
        <ele>876.86</ele>
        <time>2022-08-06T13:26:10Z</time>
      </trkpt>
      <trkpt lat="44.36321" lon="3.74376">
        <ele>879.74</ele>
        <time>2022-08-06T13:26:46Z</time>
      </trkpt>
      <trkpt lat="44.36321" lon="3.74378">
        <ele>878.3</ele>
        <time>2022-08-06T13:27:19Z</time>
      </trkpt>
      <trkpt lat="44.36326" lon="3.74381">
        <ele>876.38</ele>
        <time>2022-08-06T13:28:01Z</time>
      </trkpt>
      <trkpt lat="44.36328" lon="3.74381">
        <ele>875.42</ele>
        <time>2022-08-06T13:28:33Z</time>
      </trkpt>
      <trkpt lat="44.36322" lon="3.74381">
        <ele>879.74</ele>
        <time>2022-08-06T13:29:06Z</time>
      </trkpt>
      <trkpt lat="44.36324" lon="3.74383">
        <ele>878.3</ele>
        <time>2022-08-06T13:29:38Z</time>
      </trkpt>
      <trkpt lat="44.36325" lon="3.74382">
        <ele>876.86</ele>
        <time>2022-08-06T13:30:08Z</time>
      </trkpt>
      <trkpt lat="44.36326" lon="3.74385">
        <ele>876.38</ele>
        <time>2022-08-06T13:30:25Z</time>
      </trkpt>
      <trkpt lat="44.36331" lon="3.74379">
        <ele>878.3</ele>
        <time>2022-08-06T13:30:39Z</time>
      </trkpt>
      <trkpt lat="44.36333" lon="3.74364">
        <ele>880.71</ele>
        <time>2022-08-06T13:30:52Z</time>
      </trkpt>
      <trkpt lat="44.36334" lon="3.74359">
        <ele>880.71</ele>
        <time>2022-08-06T13:31:07Z</time>
      </trkpt>
      <trkpt lat="44.36329" lon="3.74356">
        <ele>881.19</ele>
        <time>2022-08-06T13:31:24Z</time>
      </trkpt>
      <trkpt lat="44.36327" lon="3.74357">
        <ele>879.74</ele>
        <time>2022-08-06T13:31:46Z</time>
      </trkpt>
      <trkpt lat="44.3632" lon="3.74353">
        <ele>878.3</ele>
        <time>2022-08-06T13:32:00Z</time>
      </trkpt>
      <trkpt lat="44.36316" lon="3.74351">
        <ele>878.78</ele>
        <time>2022-08-06T13:32:04Z</time>
      </trkpt>
      <trkpt lat="44.36308" lon="3.74348">
        <ele>877.82</ele>
        <time>2022-08-06T13:32:19Z</time>
      </trkpt>
      <trkpt lat="44.36294" lon="3.74343">
        <ele>876.86</ele>
        <time>2022-08-06T13:32:35Z</time>
      </trkpt>
      <trkpt lat="44.36285" lon="3.74335">
        <ele>874.46</ele>
        <time>2022-08-06T13:32:51Z</time>
      </trkpt>
      <trkpt lat="44.36285" lon="3.74337">
        <ele>875.9</ele>
        <time>2022-08-06T13:33:07Z</time>
      </trkpt>
      <trkpt lat="44.3629" lon="3.74341">
        <ele>875.42</ele>
        <time>2022-08-06T13:33:25Z</time>
      </trkpt>
      <trkpt lat="44.36299" lon="3.74342">
        <ele>873.5</ele>
        <time>2022-08-06T13:33:36Z</time>
      </trkpt>
      <trkpt lat="44.36301" lon="3.74343">
        <ele>873.01</ele>
        <time>2022-08-06T13:33:54Z</time>
      </trkpt>
      <trkpt lat="44.36301" lon="3.74341">
        <ele>873.01</ele>
        <time>2022-08-06T13:34:16Z</time>
      </trkpt>
      <trkpt lat="44.363" lon="3.74339">
        <ele>872.05</ele>
        <time>2022-08-06T13:34:37Z</time>
      </trkpt>
      <trkpt lat="44.36304" lon="3.74329">
        <ele>875.9</ele>
        <time>2022-08-06T13:34:52Z</time>
      </trkpt>
      <trkpt lat="44.3631" lon="3.74321">
        <ele>878.3</ele>
        <time>2022-08-06T13:35:05Z</time>
      </trkpt>
      <trkpt lat="44.3631" lon="3.7431">
        <ele>877.34</ele>
        <time>2022-08-06T13:35:20Z</time>
      </trkpt>
      <trkpt lat="44.36312" lon="3.74306">
        <ele>876.38</ele>
        <time>2022-08-06T13:35:34Z</time>
      </trkpt>
      <trkpt lat="44.36315" lon="3.74311">
        <ele>875.9</ele>
        <time>2022-08-06T13:35:47Z</time>
      </trkpt>
      <trkpt lat="44.36314" lon="3.74314">
        <ele>877.82</ele>
        <time>2022-08-06T13:36:05Z</time>
      </trkpt>
      <trkpt lat="44.36315" lon="3.74311">
        <ele>877.82</ele>
        <time>2022-08-06T13:36:21Z</time>
      </trkpt>
      <trkpt lat="44.36316" lon="3.74314">
        <ele>875.9</ele>
        <time>2022-08-06T13:36:40Z</time>
      </trkpt>
      <trkpt lat="44.36314" lon="3.7431">
        <ele>873.98</ele>
        <time>2022-08-06T13:37:10Z</time>
      </trkpt>
      <trkpt lat="44.36313" lon="3.74313">
        <ele>876.38</ele>
        <time>2022-08-06T13:37:43Z</time>
      </trkpt>
      <trkpt lat="44.36317" lon="3.74314">
        <ele>878.3</ele>
        <time>2022-08-06T13:38:19Z</time>
      </trkpt>
      <trkpt lat="44.36315" lon="3.74315">
        <ele>873.5</ele>
        <time>2022-08-06T13:38:52Z</time>
      </trkpt>
      <trkpt lat="44.36315" lon="3.74313">
        <ele>872.53</ele>
        <time>2022-08-06T13:39:23Z</time>
      </trkpt>
      <trkpt lat="44.36313" lon="3.7431">
        <ele>877.34</ele>
        <time>2022-08-06T13:39:55Z</time>
      </trkpt>
      <trkpt lat="44.36316" lon="3.74312">
        <ele>875.42</ele>
        <time>2022-08-06T13:40:31Z</time>
      </trkpt>
      <trkpt lat="44.36316" lon="3.74313">
        <ele>875.9</ele>
        <time>2022-08-06T13:40:59Z</time>
      </trkpt>
      <trkpt lat="44.36315" lon="3.74314">
        <ele>874.46</ele>
        <time>2022-08-06T13:41:25Z</time>
      </trkpt>
      <trkpt lat="44.36315" lon="3.74312">
        <ele>872.05</ele>
        <time>2022-08-06T13:41:56Z</time>
      </trkpt>
      <trkpt lat="44.36313" lon="3.74313">
        <ele>869.65</ele>
        <time>2022-08-06T13:42:25Z</time>
      </trkpt>
      <trkpt lat="44.36314" lon="3.7431">
        <ele>871.09</ele>
        <time>2022-08-06T13:42:57Z</time>
      </trkpt>
      <trkpt lat="44.36316" lon="3.74314">
        <ele>874.94</ele>
        <time>2022-08-06T13:43:31Z</time>
      </trkpt>
      <trkpt lat="44.36318" lon="3.74312">
        <ele>873.98</ele>
        <time>2022-08-06T13:44:05Z</time>
      </trkpt>
      <trkpt lat="44.36311" lon="3.7431">
        <ele>872.05</ele>
        <time>2022-08-06T13:44:47Z</time>
      </trkpt>
      <trkpt lat="44.36311" lon="3.7431">
        <ele>872.05</ele>
        <time>2022-08-06T13:45:14Z</time>
      </trkpt>
      <trkpt lat="44.36314" lon="3.74313">
        <ele>871.09</ele>
        <time>2022-08-06T13:45:56Z</time>
      </trkpt>
      <trkpt lat="44.36315" lon="3.74311">
        <ele>873.5</ele>
        <time>2022-08-06T13:46:36Z</time>
      </trkpt>
      <trkpt lat="44.36313" lon="3.7431">
        <ele>874.46</ele>
        <time>2022-08-06T13:47:09Z</time>
      </trkpt>
      <trkpt lat="44.36312" lon="3.7431">
        <ele>871.09</ele>
        <time>2022-08-06T13:47:55Z</time>
      </trkpt>
      <trkpt lat="44.36315" lon="3.74311">
        <ele>878.78</ele>
        <time>2022-08-06T13:48:33Z</time>
      </trkpt>
      <trkpt lat="44.36315" lon="3.74313">
        <ele>875.42</ele>
        <time>2022-08-06T13:49:14Z</time>
      </trkpt>
      <trkpt lat="44.36314" lon="3.74311">
        <ele>875.42</ele>
        <time>2022-08-06T13:49:55Z</time>
      </trkpt>
      <trkpt lat="44.36313" lon="3.74313">
        <ele>872.53</ele>
        <time>2022-08-06T13:50:43Z</time>
      </trkpt>
      <trkpt lat="44.36311" lon="3.74311">
        <ele>873.98</ele>
        <time>2022-08-06T13:51:20Z</time>
      </trkpt>
      <trkpt lat="44.36314" lon="3.74311">
        <ele>873.5</ele>
        <time>2022-08-06T13:52:08Z</time>
      </trkpt>
      <trkpt lat="44.36314" lon="3.74312">
        <ele>874.94</ele>
        <time>2022-08-06T13:52:49Z</time>
      </trkpt>
      <trkpt lat="44.36315" lon="3.74308">
        <ele>877.34</ele>
        <time>2022-08-06T13:53:28Z</time>
      </trkpt>
      <trkpt lat="44.36316" lon="3.74312">
        <ele>874.46</ele>
        <time>2022-08-06T13:54:21Z</time>
      </trkpt>
      <trkpt lat="44.36315" lon="3.7431">
        <ele>878.3</ele>
        <time>2022-08-06T13:54:59Z</time>
      </trkpt>
      <trkpt lat="44.36313" lon="3.74312">
        <ele>876.86</ele>
        <time>2022-08-06T13:55:38Z</time>
      </trkpt>
      <trkpt lat="44.36312" lon="3.74312">
        <ele>874.46</ele>
        <time>2022-08-06T13:56:13Z</time>
      </trkpt>
      <trkpt lat="44.36313" lon="3.74312">
        <ele>874.46</ele>
        <time>2022-08-06T13:56:50Z</time>
      </trkpt>
      <trkpt lat="44.36314" lon="3.74312">
        <ele>872.53</ele>
        <time>2022-08-06T13:57:29Z</time>
      </trkpt>
      <trkpt lat="44.36312" lon="3.74313">
        <ele>873.01</ele>
        <time>2022-08-06T13:58:03Z</time>
      </trkpt>
      <trkpt lat="44.36314" lon="3.74311">
        <ele>874.46</ele>
        <time>2022-08-06T13:58:32Z</time>
      </trkpt>
      <trkpt lat="44.36316" lon="3.74311">
        <ele>871.57</ele>
        <time>2022-08-06T13:59:02Z</time>
      </trkpt>
      <trkpt lat="44.36313" lon="3.74312">
        <ele>871.09</ele>
        <time>2022-08-06T13:59:38Z</time>
      </trkpt>
      <trkpt lat="44.36313" lon="3.7431">
        <ele>872.53</ele>
        <time>2022-08-06T14:00:07Z</time>
      </trkpt>
      <trkpt lat="44.36313" lon="3.74311">
        <ele>875.42</ele>
        <time>2022-08-06T14:00:45Z</time>
      </trkpt>
      <trkpt lat="44.36314" lon="3.74312">
        <ele>875.9</ele>
        <time>2022-08-06T14:01:19Z</time>
      </trkpt>
      <trkpt lat="44.36314" lon="3.7431">
        <ele>878.3</ele>
        <time>2022-08-06T14:01:51Z</time>
      </trkpt>
      <trkpt lat="44.36315" lon="3.74312">
        <ele>875.42</ele>
        <time>2022-08-06T14:02:27Z</time>
      </trkpt>
      <trkpt lat="44.36316" lon="3.74316">
        <ele>873.98</ele>
        <time>2022-08-06T14:03:04Z</time>
      </trkpt>
      <trkpt lat="44.36316" lon="3.74312">
        <ele>873.01</ele>
        <time>2022-08-06T14:03:34Z</time>
      </trkpt>
      <trkpt lat="44.36313" lon="3.74313">
        <ele>873.98</ele>
        <time>2022-08-06T14:04:20Z</time>
      </trkpt>
      <trkpt lat="44.36313" lon="3.74311">
        <ele>875.42</ele>
        <time>2022-08-06T14:05:02Z</time>
      </trkpt>
      <trkpt lat="44.36314" lon="3.74312">
        <ele>874.46</ele>
        <time>2022-08-06T14:05:37Z</time>
      </trkpt>
      <trkpt lat="44.36312" lon="3.74311">
        <ele>873.01</ele>
        <time>2022-08-06T14:06:12Z</time>
      </trkpt>
      <trkpt lat="44.36314" lon="3.74313">
        <ele>876.86</ele>
        <time>2022-08-06T14:06:47Z</time>
      </trkpt>
      <trkpt lat="44.36314" lon="3.74313">
        <ele>875.9</ele>
        <time>2022-08-06T14:07:21Z</time>
      </trkpt>
      <trkpt lat="44.36314" lon="3.74313">
        <ele>872.05</ele>
        <time>2022-08-06T14:07:57Z</time>
      </trkpt>
      <trkpt lat="44.36313" lon="3.74315">
        <ele>870.13</ele>
        <time>2022-08-06T14:08:30Z</time>
      </trkpt>
      <trkpt lat="44.36314" lon="3.74314">
        <ele>871.57</ele>
        <time>2022-08-06T14:09:04Z</time>
      </trkpt>
      <trkpt lat="44.36316" lon="3.74314">
        <ele>870.13</ele>
        <time>2022-08-06T14:09:30Z</time>
      </trkpt>
      <trkpt lat="44.36315" lon="3.74316">
        <ele>869.65</ele>
        <time>2022-08-06T14:10:00Z</time>
      </trkpt>
      <trkpt lat="44.36312" lon="3.74316">
        <ele>870.61</ele>
        <time>2022-08-06T14:10:44Z</time>
      </trkpt>
      <trkpt lat="44.36314" lon="3.74315">
        <ele>871.57</ele>
        <time>2022-08-06T14:11:10Z</time>
      </trkpt>
      <trkpt lat="44.36314" lon="3.74314">
        <ele>872.53</ele>
        <time>2022-08-06T14:11:56Z</time>
      </trkpt>
      <trkpt lat="44.36313" lon="3.74316">
        <ele>870.13</ele>
        <time>2022-08-06T14:12:33Z</time>
      </trkpt>
      <trkpt lat="44.36314" lon="3.74316">
        <ele>869.65</ele>
        <time>2022-08-06T14:13:02Z</time>
      </trkpt>
      <trkpt lat="44.36314" lon="3.74314">
        <ele>869.17</ele>
        <time>2022-08-06T14:13:46Z</time>
      </trkpt>
      <trkpt lat="44.36312" lon="3.74313">
        <ele>869.17</ele>
        <time>2022-08-06T14:14:20Z</time>
      </trkpt>
      <trkpt lat="44.36312" lon="3.74313">
        <ele>869.65</ele>
        <time>2022-08-06T14:14:49Z</time>
      </trkpt>
      <trkpt lat="44.36313" lon="3.74312">
        <ele>871.09</ele>
        <time>2022-08-06T14:15:24Z</time>
      </trkpt>
      <trkpt lat="44.36315" lon="3.74314">
        <ele>870.13</ele>
        <time>2022-08-06T14:16:00Z</time>
      </trkpt>
      <trkpt lat="44.36314" lon="3.74313">
        <ele>869.65</ele>
        <time>2022-08-06T14:16:34Z</time>
      </trkpt>
      <trkpt lat="44.36316" lon="3.74314">
        <ele>871.09</ele>
        <time>2022-08-06T14:17:12Z</time>
      </trkpt>
      <trkpt lat="44.36316" lon="3.7431">
        <ele>870.61</ele>
        <time>2022-08-06T14:17:48Z</time>
      </trkpt>
      <trkpt lat="44.36314" lon="3.74312">
        <ele>873.98</ele>
        <time>2022-08-06T14:18:20Z</time>
      </trkpt>
      <trkpt lat="44.36317" lon="3.74312">
        <ele>872.05</ele>
        <time>2022-08-06T14:18:53Z</time>
      </trkpt>
      <trkpt lat="44.36316" lon="3.74316">
        <ele>875.9</ele>
        <time>2022-08-06T14:19:30Z</time>
      </trkpt>
      <trkpt lat="44.36314" lon="3.74314">
        <ele>879.26</ele>
        <time>2022-08-06T14:19:58Z</time>
      </trkpt>
      <trkpt lat="44.36315" lon="3.74315">
        <ele>877.34</ele>
        <time>2022-08-06T14:20:36Z</time>
      </trkpt>
      <trkpt lat="44.36314" lon="3.74312">
        <ele>874.46</ele>
        <time>2022-08-06T14:21:23Z</time>
      </trkpt>
      <trkpt lat="44.36314" lon="3.74312">
        <ele>874.46</ele>
        <time>2022-08-06T14:22:03Z</time>
      </trkpt>
      <trkpt lat="44.36312" lon="3.74313">
        <ele>872.05</ele>
        <time>2022-08-06T14:22:37Z</time>
      </trkpt>
      <trkpt lat="44.36311" lon="3.74314">
        <ele>870.61</ele>
        <time>2022-08-06T14:23:09Z</time>
      </trkpt>
      <trkpt lat="44.36313" lon="3.74311">
        <ele>870.13</ele>
        <time>2022-08-06T14:23:48Z</time>
      </trkpt>
      <trkpt lat="44.36313" lon="3.7431">
        <ele>872.05</ele>
        <time>2022-08-06T14:24:16Z</time>
      </trkpt>
      <trkpt lat="44.36313" lon="3.74311">
        <ele>875.9</ele>
        <time>2022-08-06T14:24:56Z</time>
      </trkpt>
      <trkpt lat="44.3631" lon="3.74311">
        <ele>873.98</ele>
        <time>2022-08-06T14:25:25Z</time>
      </trkpt>
      <trkpt lat="44.36313" lon="3.74315">
        <ele>872.53</ele>
        <time>2022-08-06T14:26:05Z</time>
      </trkpt>
      <trkpt lat="44.36315" lon="3.74314">
        <ele>873.5</ele>
        <time>2022-08-06T14:26:42Z</time>
      </trkpt>
      <trkpt lat="44.36313" lon="3.74313">
        <ele>871.57</ele>
        <time>2022-08-06T14:27:08Z</time>
      </trkpt>
      <trkpt lat="44.36313" lon="3.74314">
        <ele>873.5</ele>
        <time>2022-08-06T14:27:26Z</time>
      </trkpt>
      <trkpt lat="44.36313" lon="3.7432">
        <ele>873.98</ele>
        <time>2022-08-06T14:27:50Z</time>
      </trkpt>
      <trkpt lat="44.36311" lon="3.74314">
        <ele>874.94</ele>
        <time>2022-08-06T14:28:17Z</time>
      </trkpt>
      <trkpt lat="44.36308" lon="3.74306">
        <ele>873.5</ele>
        <time>2022-08-06T14:28:30Z</time>
      </trkpt>
      <trkpt lat="44.36307" lon="3.74314">
        <ele>874.46</ele>
        <time>2022-08-06T14:28:45Z</time>
      </trkpt>
      <trkpt lat="44.36305" lon="3.74325">
        <ele>873.98</ele>
        <time>2022-08-06T14:28:59Z</time>
      </trkpt>
      <trkpt lat="44.36299" lon="3.74339">
        <ele>872.53</ele>
        <time>2022-08-06T14:29:12Z</time>
      </trkpt>
      <trkpt lat="44.36294" lon="3.74341">
        <ele>872.53</ele>
        <time>2022-08-06T14:29:26Z</time>
      </trkpt>
      <trkpt lat="44.36286" lon="3.74342">
        <ele>873.01</ele>
        <time>2022-08-06T14:29:43Z</time>
      </trkpt>
      <trkpt lat="44.36288" lon="3.74345">
        <ele>878.78</ele>
        <time>2022-08-06T14:29:58Z</time>
      </trkpt>
      <trkpt lat="44.36292" lon="3.74343">
        <ele>881.19</ele>
        <time>2022-08-06T14:30:10Z</time>
      </trkpt>
      <trkpt lat="44.36304" lon="3.74353">
        <ele>879.74</ele>
        <time>2022-08-06T14:30:25Z</time>
      </trkpt>
      <trkpt lat="44.36315" lon="3.74361">
        <ele>880.71</ele>
        <time>2022-08-06T14:30:39Z</time>
      </trkpt>
      <trkpt lat="44.36324" lon="3.74367">
        <ele>879.74</ele>
        <time>2022-08-06T14:30:53Z</time>
      </trkpt>
      <trkpt lat="44.36325" lon="3.74368">
        <ele>881.67</ele>
        <time>2022-08-06T14:31:07Z</time>
      </trkpt>
      <trkpt lat="44.36326" lon="3.74388">
        <ele>878.78</ele>
        <time>2022-08-06T14:31:24Z</time>
      </trkpt>
      <trkpt lat="44.36327" lon="3.744">
        <ele>873.98</ele>
        <time>2022-08-06T14:31:37Z</time>
      </trkpt>
      <trkpt lat="44.36329" lon="3.74408">
        <ele>869.65</ele>
        <time>2022-08-06T14:31:51Z</time>
      </trkpt>
      <trkpt lat="44.36331" lon="3.74411">
        <ele>867.25</ele>
        <time>2022-08-06T14:32:01Z</time>
      </trkpt>
      <trkpt lat="44.36325" lon="3.7442">
        <ele>856.67</ele>
        <time>2022-08-06T14:34:34Z</time>
      </trkpt>
      <trkpt lat="44.36328" lon="3.74409">
        <ele>872.53</ele>
        <time>2022-08-06T14:34:39Z</time>
      </trkpt>
      <trkpt lat="44.36326" lon="3.74395">
        <ele>879.26</ele>
        <time>2022-08-06T14:34:49Z</time>
      </trkpt>
      <trkpt lat="44.36328" lon="3.74385">
        <ele>875.9</ele>
        <time>2022-08-06T14:34:57Z</time>
      </trkpt>
      <trkpt lat="44.36328" lon="3.74381">
        <ele>875.9</ele>
        <time>2022-08-06T14:35:00Z</time>
      </trkpt>
      <trkpt lat="44.36326" lon="3.74366">
        <ele>880.71</ele>
        <time>2022-08-06T14:35:14Z</time>
      </trkpt>
      <trkpt lat="44.36325" lon="3.74366">
        <ele>880.71</ele>
        <time>2022-08-06T14:35:33Z</time>
      </trkpt>
      <trkpt lat="44.36326" lon="3.7437">
        <ele>883.59</ele>
        <time>2022-08-06T14:36:07Z</time>
      </trkpt>
      <trkpt lat="44.36327" lon="3.74371">
        <ele>885.99</ele>
        <time>2022-08-06T14:36:40Z</time>
      </trkpt>
      <trkpt lat="44.36329" lon="3.7437">
        <ele>889.84</ele>
        <time>2022-08-06T14:37:10Z</time>
      </trkpt>
      <trkpt lat="44.36328" lon="3.74372">
        <ele>899.45</ele>
        <time>2022-08-06T14:37:45Z</time>
      </trkpt>
      <trkpt lat="44.36326" lon="3.74372">
        <ele>893.2</ele>
        <time>2022-08-06T14:38:25Z</time>
      </trkpt>
      <trkpt lat="44.36325" lon="3.7437">
        <ele>890.32</ele>
        <time>2022-08-06T14:39:03Z</time>
      </trkpt>
      <trkpt lat="44.36324" lon="3.74372">
        <ele>890.32</ele>
        <time>2022-08-06T14:39:42Z</time>
      </trkpt>
      <trkpt lat="44.36323" lon="3.74373">
        <ele>893.2</ele>
        <time>2022-08-06T14:40:22Z</time>
      </trkpt>
      <trkpt lat="44.36324" lon="3.7437">
        <ele>893.2</ele>
        <time>2022-08-06T14:41:04Z</time>
      </trkpt>
      <trkpt lat="44.3633" lon="3.74367">
        <ele>894.16</ele>
        <time>2022-08-06T14:41:44Z</time>
      </trkpt>
      <trkpt lat="44.3633" lon="3.74375">
        <ele>888.88</ele>
        <time>2022-08-06T14:42:22Z</time>
      </trkpt>
      <trkpt lat="44.36324" lon="3.74371">
        <ele>891.28</ele>
        <time>2022-08-06T14:43:10Z</time>
      </trkpt>
      <trkpt lat="44.36325" lon="3.74372">
        <ele>891.28</ele>
        <time>2022-08-06T14:43:46Z</time>
      </trkpt>
      <trkpt lat="44.36317" lon="3.74371">
        <ele>894.16</ele>
        <time>2022-08-06T14:44:23Z</time>
      </trkpt>
      <trkpt lat="44.36322" lon="3.74373">
        <ele>900.41</ele>
        <time>2022-08-06T14:45:06Z</time>
      </trkpt>
      <trkpt lat="44.36322" lon="3.74375">
        <ele>889.84</ele>
        <time>2022-08-06T14:45:42Z</time>
      </trkpt>
      <trkpt lat="44.36328" lon="3.7437">
        <ele>885.99</ele>
        <time>2022-08-06T14:46:13Z</time>
      </trkpt>
      <trkpt lat="44.36329" lon="3.74371">
        <ele>883.59</ele>
        <time>2022-08-06T14:46:50Z</time>
      </trkpt>
      <trkpt lat="44.3633" lon="3.74373">
        <ele>883.59</ele>
        <time>2022-08-06T14:47:22Z</time>
      </trkpt>
      <trkpt lat="44.36329" lon="3.74373">
        <ele>883.59</ele>
        <time>2022-08-06T14:47:54Z</time>
      </trkpt>
      <trkpt lat="44.36326" lon="3.7437">
        <ele>886.47</ele>
        <time>2022-08-06T14:48:26Z</time>
      </trkpt>
      <trkpt lat="44.36325" lon="3.74371">
        <ele>885.99</ele>
        <time>2022-08-06T14:48:57Z</time>
      </trkpt>
      <trkpt lat="44.36335" lon="3.74377">
        <ele>883.59</ele>
        <time>2022-08-06T14:49:29Z</time>
      </trkpt>
      <trkpt lat="44.36331" lon="3.74374">
        <ele>880.22</ele>
        <time>2022-08-06T14:50:03Z</time>
      </trkpt>
      <trkpt lat="44.36329" lon="3.74372">
        <ele>880.22</ele>
        <time>2022-08-06T14:50:33Z</time>
      </trkpt>
      <trkpt lat="44.36329" lon="3.74374">
        <ele>880.22</ele>
        <time>2022-08-06T14:51:12Z</time>
      </trkpt>
      <trkpt lat="44.36334" lon="3.74371">
        <ele>874.94</ele>
        <time>2022-08-06T14:51:49Z</time>
      </trkpt>
      <trkpt lat="44.36337" lon="3.74376">
        <ele>872.53</ele>
        <time>2022-08-06T14:52:24Z</time>
      </trkpt>
      <trkpt lat="44.36334" lon="3.74375">
        <ele>874.46</ele>
        <time>2022-08-06T14:52:59Z</time>
      </trkpt>
      <trkpt lat="44.36332" lon="3.74372">
        <ele>873.5</ele>
        <time>2022-08-06T14:53:38Z</time>
      </trkpt>
      <trkpt lat="44.36332" lon="3.74374">
        <ele>874.94</ele>
        <time>2022-08-06T14:54:12Z</time>
      </trkpt>
      <trkpt lat="44.36333" lon="3.74379">
        <ele>876.86</ele>
        <time>2022-08-06T14:54:52Z</time>
      </trkpt>
      <trkpt lat="44.36336" lon="3.74376">
        <ele>878.3</ele>
        <time>2022-08-06T14:55:25Z</time>
      </trkpt>
      <trkpt lat="44.36326" lon="3.74372">
        <ele>880.22</ele>
        <time>2022-08-06T14:56:01Z</time>
      </trkpt>
      <trkpt lat="44.36327" lon="3.74372">
        <ele>880.71</ele>
        <time>2022-08-06T14:56:31Z</time>
      </trkpt>
      <trkpt lat="44.36333" lon="3.74375">
        <ele>876.38</ele>
        <time>2022-08-06T14:57:11Z</time>
      </trkpt>
      <trkpt lat="44.36333" lon="3.74378">
        <ele>879.26</ele>
        <time>2022-08-06T14:57:45Z</time>
      </trkpt>
      <trkpt lat="44.36334" lon="3.74378">
        <ele>879.26</ele>
        <time>2022-08-06T14:58:06Z</time>
      </trkpt>
      <trkpt lat="44.36333" lon="3.74376">
        <ele>880.22</ele>
        <time>2022-08-06T14:58:37Z</time>
      </trkpt>
      <trkpt lat="44.3633" lon="3.74372">
        <ele>879.74</ele>
        <time>2022-08-06T14:59:10Z</time>
      </trkpt>
      <trkpt lat="44.36335" lon="3.74374">
        <ele>878.78</ele>
        <time>2022-08-06T14:59:47Z</time>
      </trkpt>
      <trkpt lat="44.36332" lon="3.74372">
        <ele>878.78</ele>
        <time>2022-08-06T15:00:14Z</time>
      </trkpt>
      <trkpt lat="44.36331" lon="3.74372">
        <ele>877.34</ele>
        <time>2022-08-06T15:00:43Z</time>
      </trkpt>
      <trkpt lat="44.36329" lon="3.74373">
        <ele>879.26</ele>
        <time>2022-08-06T15:01:16Z</time>
      </trkpt>
      <trkpt lat="44.36328" lon="3.74373">
        <ele>880.22</ele>
        <time>2022-08-06T15:01:56Z</time>
      </trkpt>
      <trkpt lat="44.36329" lon="3.74376">
        <ele>878.3</ele>
        <time>2022-08-06T15:02:30Z</time>
      </trkpt>
      <trkpt lat="44.36329" lon="3.74376">
        <ele>879.26</ele>
        <time>2022-08-06T15:02:53Z</time>
      </trkpt>
      <trkpt lat="44.3633" lon="3.74375">
        <ele>881.19</ele>
        <time>2022-08-06T15:03:28Z</time>
      </trkpt>
      <trkpt lat="44.36331" lon="3.74374">
        <ele>880.71</ele>
        <time>2022-08-06T15:03:55Z</time>
      </trkpt>
      <trkpt lat="44.36329" lon="3.74372">
        <ele>882.15</ele>
        <time>2022-08-06T15:04:21Z</time>
      </trkpt>
      <trkpt lat="44.36325" lon="3.74374">
        <ele>881.67</ele>
        <time>2022-08-06T15:04:49Z</time>
      </trkpt>
      <trkpt lat="44.36323" lon="3.74379">
        <ele>883.11</ele>
        <time>2022-08-06T15:05:16Z</time>
      </trkpt>
      <trkpt lat="44.36329" lon="3.74374">
        <ele>880.71</ele>
        <time>2022-08-06T15:05:50Z</time>
      </trkpt>
      <trkpt lat="44.36329" lon="3.74372">
        <ele>881.19</ele>
        <time>2022-08-06T15:06:14Z</time>
      </trkpt>
      <trkpt lat="44.36326" lon="3.74372">
        <ele>880.71</ele>
        <time>2022-08-06T15:06:35Z</time>
      </trkpt>
      <trkpt lat="44.36325" lon="3.74372">
        <ele>881.19</ele>
        <time>2022-08-06T15:07:00Z</time>
      </trkpt>
      <trkpt lat="44.36328" lon="3.74375">
        <ele>880.71</ele>
        <time>2022-08-06T15:07:23Z</time>
      </trkpt>
      <trkpt lat="44.36328" lon="3.74374">
        <ele>878.3</ele>
        <time>2022-08-06T15:07:52Z</time>
      </trkpt>
      <trkpt lat="44.36328" lon="3.74373">
        <ele>879.74</ele>
        <time>2022-08-06T15:08:18Z</time>
      </trkpt>
      <trkpt lat="44.36331" lon="3.74369">
        <ele>879.74</ele>
        <time>2022-08-06T15:08:37Z</time>
      </trkpt>
      <trkpt lat="44.36329" lon="3.7436">
        <ele>878.78</ele>
        <time>2022-08-06T15:08:48Z</time>
      </trkpt>
      <trkpt lat="44.36317" lon="3.74352">
        <ele>876.38</ele>
        <time>2022-08-06T15:09:00Z</time>
      </trkpt>
      <trkpt lat="44.36304" lon="3.74346">
        <ele>873.98</ele>
        <time>2022-08-06T15:09:13Z</time>
      </trkpt>
      <trkpt lat="44.36294" lon="3.74342">
        <ele>873.01</ele>
        <time>2022-08-06T15:09:27Z</time>
      </trkpt>
      <trkpt lat="44.36285" lon="3.74345">
        <ele>873.98</ele>
        <time>2022-08-06T15:09:46Z</time>
      </trkpt>
      <trkpt lat="44.36285" lon="3.74351">
        <ele>873.98</ele>
        <time>2022-08-06T15:10:05Z</time>
      </trkpt>
      <trkpt lat="44.36282" lon="3.74352">
        <ele>874.46</ele>
        <time>2022-08-06T15:10:22Z</time>
      </trkpt>
      <trkpt lat="44.3628" lon="3.7435">
        <ele>874.94</ele>
        <time>2022-08-06T15:10:57Z</time>
      </trkpt>
      <trkpt lat="44.36276" lon="3.74351">
        <ele>875.9</ele>
        <time>2022-08-06T15:11:28Z</time>
      </trkpt>
      <trkpt lat="44.36277" lon="3.74353">
        <ele>875.9</ele>
        <time>2022-08-06T15:12:00Z</time>
      </trkpt>
      <trkpt lat="44.36278" lon="3.74354">
        <ele>875.9</ele>
        <time>2022-08-06T15:12:38Z</time>
      </trkpt>
      <trkpt lat="44.36277" lon="3.74352">
        <ele>877.34</ele>
        <time>2022-08-06T15:13:10Z</time>
      </trkpt>
      <trkpt lat="44.36279" lon="3.74352">
        <ele>876.86</ele>
        <time>2022-08-06T15:13:42Z</time>
      </trkpt>
      <trkpt lat="44.36282" lon="3.74351">
        <ele>879.26</ele>
        <time>2022-08-06T15:14:08Z</time>
      </trkpt>
      <trkpt lat="44.36281" lon="3.74351">
        <ele>879.26</ele>
        <time>2022-08-06T15:14:22Z</time>
      </trkpt>
      <trkpt lat="44.3628" lon="3.74351">
        <ele>879.26</ele>
        <time>2022-08-06T15:14:36Z</time>
      </trkpt>
      <trkpt lat="44.36277" lon="3.74355">
        <ele>879.26</ele>
        <time>2022-08-06T15:14:56Z</time>
      </trkpt>
      <trkpt lat="44.3628" lon="3.74352">
        <ele>879.74</ele>
        <time>2022-08-06T15:15:13Z</time>
      </trkpt>
      <trkpt lat="44.36278" lon="3.7436">
        <ele>878.3</ele>
        <time>2022-08-06T15:15:30Z</time>
      </trkpt>
      <trkpt lat="44.3627" lon="3.74359">
        <ele>879.26</ele>
        <time>2022-08-06T15:15:42Z</time>
      </trkpt>
      <trkpt lat="44.36262" lon="3.74347">
        <ele>877.82</ele>
        <time>2022-08-06T15:15:58Z</time>
      </trkpt>
      <trkpt lat="44.36262" lon="3.7434">
        <ele>880.71</ele>
        <time>2022-08-06T15:16:10Z</time>
      </trkpt>
      <trkpt lat="44.36254" lon="3.74335">
        <ele>881.67</ele>
        <time>2022-08-06T15:16:23Z</time>
      </trkpt>
      <trkpt lat="44.36243" lon="3.7434">
        <ele>883.11</ele>
        <time>2022-08-06T15:16:39Z</time>
      </trkpt>
      <trkpt lat="44.36237" lon="3.74348">
        <ele>885.99</ele>
        <time>2022-08-06T15:16:55Z</time>
      </trkpt>
      <trkpt lat="44.36232" lon="3.7435">
        <ele>886.47</ele>
        <time>2022-08-06T15:17:08Z</time>
      </trkpt>
      <trkpt lat="44.3623" lon="3.74341">
        <ele>886.47</ele>
        <time>2022-08-06T15:17:23Z</time>
      </trkpt>
      <trkpt lat="44.36231" lon="3.74333">
        <ele>888.88</ele>
        <time>2022-08-06T15:17:37Z</time>
      </trkpt>
      <trkpt lat="44.36237" lon="3.74326">
        <ele>887.43</ele>
        <time>2022-08-06T15:17:52Z</time>
      </trkpt>
      <trkpt lat="44.36243" lon="3.74314">
        <ele>887.91</ele>
        <time>2022-08-06T15:18:05Z</time>
      </trkpt>
      <trkpt lat="44.3624" lon="3.743">
        <ele>886.95</ele>
        <time>2022-08-06T15:18:19Z</time>
      </trkpt>
      <trkpt lat="44.36244" lon="3.74293">
        <ele>883.11</ele>
        <time>2022-08-06T15:18:34Z</time>
      </trkpt>
      <trkpt lat="44.36245" lon="3.74284">
        <ele>885.51</ele>
        <time>2022-08-06T15:18:48Z</time>
      </trkpt>
      <trkpt lat="44.36233" lon="3.74283">
        <ele>885.99</ele>
        <time>2022-08-06T15:19:03Z</time>
      </trkpt>
      <trkpt lat="44.36225" lon="3.74289">
        <ele>887.43</ele>
        <time>2022-08-06T15:19:17Z</time>
      </trkpt>
      <trkpt lat="44.36217" lon="3.74295">
        <ele>888.4</ele>
        <time>2022-08-06T15:19:32Z</time>
      </trkpt>
      <trkpt lat="44.3621" lon="3.74303">
        <ele>891.28</ele>
        <time>2022-08-06T15:19:47Z</time>
      </trkpt>
      <trkpt lat="44.36207" lon="3.74313">
        <ele>898.49</ele>
        <time>2022-08-06T15:20:02Z</time>
      </trkpt>
      <trkpt lat="44.36205" lon="3.74323">
        <ele>902.82</ele>
        <time>2022-08-06T15:20:14Z</time>
      </trkpt>
      <trkpt lat="44.36199" lon="3.74333">
        <ele>904.74</ele>
        <time>2022-08-06T15:20:27Z</time>
      </trkpt>
      <trkpt lat="44.36192" lon="3.74347">
        <ele>904.74</ele>
        <time>2022-08-06T15:20:41Z</time>
      </trkpt>
      <trkpt lat="44.36184" lon="3.74355">
        <ele>905.7</ele>
        <time>2022-08-06T15:20:56Z</time>
      </trkpt>
      <trkpt lat="44.36178" lon="3.74363">
        <ele>907.62</ele>
        <time>2022-08-06T15:21:09Z</time>
      </trkpt>
      <trkpt lat="44.36169" lon="3.74369">
        <ele>908.1</ele>
        <time>2022-08-06T15:21:25Z</time>
      </trkpt>
      <trkpt lat="44.36161" lon="3.74368">
        <ele>908.1</ele>
        <time>2022-08-06T15:21:39Z</time>
      </trkpt>
      <trkpt lat="44.36154" lon="3.7437">
        <ele>911.47</ele>
        <time>2022-08-06T15:21:56Z</time>
      </trkpt>
      <trkpt lat="44.36144" lon="3.74377">
        <ele>913.39</ele>
        <time>2022-08-06T15:22:13Z</time>
      </trkpt>
      <trkpt lat="44.36135" lon="3.74382">
        <ele>911.95</ele>
        <time>2022-08-06T15:22:28Z</time>
      </trkpt>
      <trkpt lat="44.36124" lon="3.7438">
        <ele>915.31</ele>
        <time>2022-08-06T15:22:45Z</time>
      </trkpt>
      <trkpt lat="44.36114" lon="3.74377">
        <ele>917.24</ele>
        <time>2022-08-06T15:23:00Z</time>
      </trkpt>
      <trkpt lat="44.36104" lon="3.7438">
        <ele>919.16</ele>
        <time>2022-08-06T15:23:19Z</time>
      </trkpt>
      <trkpt lat="44.36093" lon="3.74381">
        <ele>922.04</ele>
        <time>2022-08-06T15:23:36Z</time>
      </trkpt>
      <trkpt lat="44.3608" lon="3.74376">
        <ele>923.96</ele>
        <time>2022-08-06T15:23:52Z</time>
      </trkpt>
      <trkpt lat="44.36073" lon="3.74366">
        <ele>924.93</ele>
        <time>2022-08-06T15:24:06Z</time>
      </trkpt>
      <trkpt lat="44.36076" lon="3.74366">
        <ele>924.93</ele>
        <time>2022-08-06T15:24:21Z</time>
      </trkpt>
      <trkpt lat="44.36084" lon="3.74369">
        <ele>925.89</ele>
        <time>2022-08-06T15:24:35Z</time>
      </trkpt>
      <trkpt lat="44.36093" lon="3.74362">
        <ele>929.25</ele>
        <time>2022-08-06T15:24:48Z</time>
      </trkpt>
      <trkpt lat="44.361" lon="3.74348">
        <ele>932.14</ele>
        <time>2022-08-06T15:25:06Z</time>
      </trkpt>
      <trkpt lat="44.36102" lon="3.74337">
        <ele>933.1</ele>
        <time>2022-08-06T15:25:22Z</time>
      </trkpt>
      <trkpt lat="44.36093" lon="3.74329">
        <ele>935.02</ele>
        <time>2022-08-06T15:25:36Z</time>
      </trkpt>
      <trkpt lat="44.36089" lon="3.7432">
        <ele>936.94</ele>
        <time>2022-08-06T15:25:51Z</time>
      </trkpt>
      <trkpt lat="44.36095" lon="3.74315">
        <ele>936.94</ele>
        <time>2022-08-06T15:26:04Z</time>
      </trkpt>
      <trkpt lat="44.36101" lon="3.74308">
        <ele>937.9</ele>
        <time>2022-08-06T15:26:17Z</time>
      </trkpt>
      <trkpt lat="44.36109" lon="3.74306">
        <ele>939.83</ele>
        <time>2022-08-06T15:26:31Z</time>
      </trkpt>
      <trkpt lat="44.36102" lon="3.74295">
        <ele>943.19</ele>
        <time>2022-08-06T15:26:49Z</time>
      </trkpt>
      <trkpt lat="44.36092" lon="3.74294">
        <ele>945.11</ele>
        <time>2022-08-06T15:27:06Z</time>
      </trkpt>
      <trkpt lat="44.36089" lon="3.7429">
        <ele>945.59</ele>
        <time>2022-08-06T15:27:23Z</time>
      </trkpt>
      <trkpt lat="44.361" lon="3.74284">
        <ele>946.07</ele>
        <time>2022-08-06T15:27:39Z</time>
      </trkpt>
      <trkpt lat="44.36107" lon="3.74273">
        <ele>948.48</ele>
        <time>2022-08-06T15:27:57Z</time>
      </trkpt>
      <trkpt lat="44.36113" lon="3.74262">
        <ele>949.44</ele>
        <time>2022-08-06T15:28:13Z</time>
      </trkpt>
      <trkpt lat="44.36115" lon="3.74251">
        <ele>951.84</ele>
        <time>2022-08-06T15:28:28Z</time>
      </trkpt>
      <trkpt lat="44.36119" lon="3.74238">
        <ele>956.17</ele>
        <time>2022-08-06T15:28:46Z</time>
      </trkpt>
      <trkpt lat="44.36123" lon="3.74226">
        <ele>959.05</ele>
        <time>2022-08-06T15:29:04Z</time>
      </trkpt>
      <trkpt lat="44.36127" lon="3.74213">
        <ele>960.98</ele>
        <time>2022-08-06T15:29:20Z</time>
      </trkpt>
      <trkpt lat="44.36131" lon="3.74202">
        <ele>962.42</ele>
        <time>2022-08-06T15:29:34Z</time>
      </trkpt>
      <trkpt lat="44.36139" lon="3.74192">
        <ele>964.82</ele>
        <time>2022-08-06T15:29:50Z</time>
      </trkpt>
      <trkpt lat="44.36143" lon="3.7418">
        <ele>966.74</ele>
        <time>2022-08-06T15:30:07Z</time>
      </trkpt>
      <trkpt lat="44.36148" lon="3.74168">
        <ele>967.7</ele>
        <time>2022-08-06T15:30:23Z</time>
      </trkpt>
      <trkpt lat="44.36152" lon="3.74156">
        <ele>969.63</ele>
        <time>2022-08-06T15:30:38Z</time>
      </trkpt>
      <trkpt lat="44.36155" lon="3.74145">
        <ele>971.55</ele>
        <time>2022-08-06T15:30:52Z</time>
      </trkpt>
      <trkpt lat="44.36162" lon="3.74135">
        <ele>974.43</ele>
        <time>2022-08-06T15:31:08Z</time>
      </trkpt>
      <trkpt lat="44.36168" lon="3.74126">
        <ele>979.24</ele>
        <time>2022-08-06T15:31:22Z</time>
      </trkpt>
      <trkpt lat="44.36176" lon="3.74116">
        <ele>981.64</ele>
        <time>2022-08-06T15:31:39Z</time>
      </trkpt>
      <trkpt lat="44.36182" lon="3.74108">
        <ele>983.57</ele>
        <time>2022-08-06T15:31:56Z</time>
      </trkpt>
      <trkpt lat="44.36176" lon="3.74096">
        <ele>985.01</ele>
        <time>2022-08-06T15:32:11Z</time>
      </trkpt>
      <trkpt lat="44.36166" lon="3.74098">
        <ele>985.49</ele>
        <time>2022-08-06T15:32:28Z</time>
      </trkpt>
      <trkpt lat="44.36158" lon="3.74108">
        <ele>987.41</ele>
        <time>2022-08-06T15:32:43Z</time>
      </trkpt>
      <trkpt lat="44.36146" lon="3.74112">
        <ele>985.49</ele>
        <time>2022-08-06T15:33:00Z</time>
      </trkpt>
      <trkpt lat="44.36134" lon="3.74113">
        <ele>986.45</ele>
        <time>2022-08-06T15:33:18Z</time>
      </trkpt>
      <trkpt lat="44.36126" lon="3.74119">
        <ele>986.93</ele>
        <time>2022-08-06T15:33:33Z</time>
      </trkpt>
      <trkpt lat="44.36117" lon="3.74125">
        <ele>988.37</ele>
        <time>2022-08-06T15:33:48Z</time>
      </trkpt>
      <trkpt lat="44.36109" lon="3.74128">
        <ele>989.81</ele>
        <time>2022-08-06T15:34:03Z</time>
      </trkpt>
      <trkpt lat="44.36098" lon="3.74131">
        <ele>992.22</ele>
        <time>2022-08-06T15:34:20Z</time>
      </trkpt>
      <trkpt lat="44.36088" lon="3.74134">
        <ele>993.18</ele>
        <time>2022-08-06T15:34:37Z</time>
      </trkpt>
      <trkpt lat="44.3608" lon="3.74137">
        <ele>993.66</ele>
        <time>2022-08-06T15:34:51Z</time>
      </trkpt>
      <trkpt lat="44.36072" lon="3.74139">
        <ele>994.62</ele>
        <time>2022-08-06T15:35:04Z</time>
      </trkpt>
      <trkpt lat="44.36061" lon="3.74143">
        <ele>997.51</ele>
        <time>2022-08-06T15:35:21Z</time>
      </trkpt>
      <trkpt lat="44.36051" lon="3.74149">
        <ele>1000.87</ele>
        <time>2022-08-06T15:35:37Z</time>
      </trkpt>
      <trkpt lat="44.3604" lon="3.74148">
        <ele>1001.35</ele>
        <time>2022-08-06T15:35:55Z</time>
      </trkpt>
      <trkpt lat="44.36027" lon="3.74146">
        <ele>1004.72</ele>
        <time>2022-08-06T15:36:14Z</time>
      </trkpt>
      <trkpt lat="44.36017" lon="3.74144">
        <ele>1005.68</ele>
        <time>2022-08-06T15:36:29Z</time>
      </trkpt>
      <trkpt lat="44.36006" lon="3.7414">
        <ele>1007.12</ele>
        <time>2022-08-06T15:36:46Z</time>
      </trkpt>
      <trkpt lat="44.35994" lon="3.74136">
        <ele>1008.08</ele>
        <time>2022-08-06T15:37:02Z</time>
      </trkpt>
      <trkpt lat="44.35982" lon="3.74131">
        <ele>1009.04</ele>
        <time>2022-08-06T15:37:19Z</time>
      </trkpt>
      <trkpt lat="44.3597" lon="3.74129">
        <ele>1009.52</ele>
        <time>2022-08-06T15:37:37Z</time>
      </trkpt>
      <trkpt lat="44.35962" lon="3.74129">
        <ele>1011.93</ele>
        <time>2022-08-06T15:37:51Z</time>
      </trkpt>
      <trkpt lat="44.35953" lon="3.74128">
        <ele>1015.29</ele>
        <time>2022-08-06T15:38:07Z</time>
      </trkpt>
      <trkpt lat="44.35946" lon="3.74124">
        <ele>1018.17</ele>
        <time>2022-08-06T15:38:20Z</time>
      </trkpt>
      <trkpt lat="44.35938" lon="3.74118">
        <ele>1019.62</ele>
        <time>2022-08-06T15:38:35Z</time>
      </trkpt>
      <trkpt lat="44.35934" lon="3.74108">
        <ele>1018.65</ele>
        <time>2022-08-06T15:38:50Z</time>
      </trkpt>
      <trkpt lat="44.35924" lon="3.74101">
        <ele>1022.02</ele>
        <time>2022-08-06T15:39:06Z</time>
      </trkpt>
      <trkpt lat="44.35918" lon="3.74099">
        <ele>1022.98</ele>
        <time>2022-08-06T15:39:19Z</time>
      </trkpt>
      <trkpt lat="44.35911" lon="3.74094">
        <ele>1024.9</ele>
        <time>2022-08-06T15:39:33Z</time>
      </trkpt>
      <trkpt lat="44.35903" lon="3.7409">
        <ele>1027.31</ele>
        <time>2022-08-06T15:39:46Z</time>
      </trkpt>
      <trkpt lat="44.35893" lon="3.74086">
        <ele>1029.23</ele>
        <time>2022-08-06T15:40:02Z</time>
      </trkpt>
      <trkpt lat="44.35887" lon="3.74082">
        <ele>1030.19</ele>
        <time>2022-08-06T15:40:15Z</time>
      </trkpt>
      <trkpt lat="44.3588" lon="3.74078">
        <ele>1032.11</ele>
        <time>2022-08-06T15:40:28Z</time>
      </trkpt>
      <trkpt lat="44.35875" lon="3.74075">
        <ele>1033.07</ele>
        <time>2022-08-06T15:40:43Z</time>
      </trkpt>
      <trkpt lat="44.35868" lon="3.7407">
        <ele>1032.59</ele>
        <time>2022-08-06T15:40:56Z</time>
      </trkpt>
      <trkpt lat="44.35861" lon="3.74064">
        <ele>1034.52</ele>
        <time>2022-08-06T15:41:10Z</time>
      </trkpt>
      <trkpt lat="44.35852" lon="3.74062">
        <ele>1036.44</ele>
        <time>2022-08-06T15:41:25Z</time>
      </trkpt>
      <trkpt lat="44.35845" lon="3.74056">
        <ele>1037.88</ele>
        <time>2022-08-06T15:41:38Z</time>
      </trkpt>
      <trkpt lat="44.35841" lon="3.74048">
        <ele>1040.76</ele>
        <time>2022-08-06T15:41:52Z</time>
      </trkpt>
      <trkpt lat="44.35833" lon="3.74041">
        <ele>1042.69</ele>
        <time>2022-08-06T15:42:06Z</time>
      </trkpt>
      <trkpt lat="44.35824" lon="3.74035">
        <ele>1043.65</ele>
        <time>2022-08-06T15:42:20Z</time>
      </trkpt>
      <trkpt lat="44.35814" lon="3.74027">
        <ele>1043.65</ele>
        <time>2022-08-06T15:42:35Z</time>
      </trkpt>
      <trkpt lat="44.35806" lon="3.74024">
        <ele>1042.69</ele>
        <time>2022-08-06T15:42:49Z</time>
      </trkpt>
      <trkpt lat="44.35795" lon="3.74025">
        <ele>1042.21</ele>
        <time>2022-08-06T15:43:03Z</time>
      </trkpt>
      <trkpt lat="44.35784" lon="3.74027">
        <ele>1041.73</ele>
        <time>2022-08-06T15:43:20Z</time>
      </trkpt>
      <trkpt lat="44.35774" lon="3.74027">
        <ele>1043.17</ele>
        <time>2022-08-06T15:43:35Z</time>
      </trkpt>
      <trkpt lat="44.35765" lon="3.74034">
        <ele>1043.17</ele>
        <time>2022-08-06T15:43:51Z</time>
      </trkpt>
      <trkpt lat="44.35756" lon="3.74038">
        <ele>1042.21</ele>
        <time>2022-08-06T15:44:08Z</time>
      </trkpt>
      <trkpt lat="44.35749" lon="3.74041">
        <ele>1044.61</ele>
        <time>2022-08-06T15:44:21Z</time>
      </trkpt>
      <trkpt lat="44.35741" lon="3.74046">
        <ele>1047.49</ele>
        <time>2022-08-06T15:44:35Z</time>
      </trkpt>
      <trkpt lat="44.35733" lon="3.74047">
        <ele>1050.38</ele>
        <time>2022-08-06T15:44:48Z</time>
      </trkpt>
      <trkpt lat="44.35724" lon="3.7405">
        <ele>1054.7</ele>
        <time>2022-08-06T15:45:04Z</time>
      </trkpt>
      <trkpt lat="44.35715" lon="3.74052">
        <ele>1055.67</ele>
        <time>2022-08-06T15:45:19Z</time>
      </trkpt>
      <trkpt lat="44.35708" lon="3.74053">
        <ele>1056.63</ele>
        <time>2022-08-06T15:45:31Z</time>
      </trkpt>
      <trkpt lat="44.357" lon="3.74055">
        <ele>1058.55</ele>
        <time>2022-08-06T15:45:44Z</time>
      </trkpt>
      <trkpt lat="44.3569" lon="3.74055">
        <ele>1059.99</ele>
        <time>2022-08-06T15:45:59Z</time>
      </trkpt>
      <trkpt lat="44.35684" lon="3.74051">
        <ele>1062.87</ele>
        <time>2022-08-06T15:46:12Z</time>
      </trkpt>
      <trkpt lat="44.35694" lon="3.74045">
        <ele>1064.32</ele>
        <time>2022-08-06T15:46:28Z</time>
      </trkpt>
      <trkpt lat="44.35704" lon="3.74042">
        <ele>1065.28</ele>
        <time>2022-08-06T15:46:44Z</time>
      </trkpt>
      <trkpt lat="44.35703" lon="3.74035">
        <ele>1067.2</ele>
        <time>2022-08-06T15:46:56Z</time>
      </trkpt>
      <trkpt lat="44.35693" lon="3.74035">
        <ele>1068.16</ele>
        <time>2022-08-06T15:47:10Z</time>
      </trkpt>
      <trkpt lat="44.35679" lon="3.74036">
        <ele>1068.64</ele>
        <time>2022-08-06T15:47:28Z</time>
      </trkpt>
      <trkpt lat="44.35669" lon="3.7404">
        <ele>1070.08</ele>
        <time>2022-08-06T15:47:42Z</time>
      </trkpt>
      <trkpt lat="44.35658" lon="3.74041">
        <ele>1071.05</ele>
        <time>2022-08-06T15:47:59Z</time>
      </trkpt>
      <trkpt lat="44.35648" lon="3.74042">
        <ele>1074.89</ele>
        <time>2022-08-06T15:48:14Z</time>
      </trkpt>
      <trkpt lat="44.35639" lon="3.74043">
        <ele>1077.29</ele>
        <time>2022-08-06T15:48:28Z</time>
      </trkpt>
      <trkpt lat="44.35631" lon="3.74044">
        <ele>1080.18</ele>
        <time>2022-08-06T15:48:41Z</time>
      </trkpt>
      <trkpt lat="44.35619" lon="3.74046">
        <ele>1081.62</ele>
        <time>2022-08-06T15:48:58Z</time>
      </trkpt>
      <trkpt lat="44.35613" lon="3.74046">
        <ele>1084.02</ele>
        <time>2022-08-06T15:49:12Z</time>
      </trkpt>
      <trkpt lat="44.35602" lon="3.74051">
        <ele>1084.99</ele>
        <time>2022-08-06T15:49:29Z</time>
      </trkpt>
      <trkpt lat="44.35592" lon="3.74051">
        <ele>1086.43</ele>
        <time>2022-08-06T15:49:43Z</time>
      </trkpt>
      <trkpt lat="44.35582" lon="3.74057">
        <ele>1088.35</ele>
        <time>2022-08-06T15:49:59Z</time>
      </trkpt>
      <trkpt lat="44.35574" lon="3.74061">
        <ele>1090.27</ele>
        <time>2022-08-06T15:50:13Z</time>
      </trkpt>
      <trkpt lat="44.35564" lon="3.7406">
        <ele>1093.64</ele>
        <time>2022-08-06T15:50:28Z</time>
      </trkpt>
      <trkpt lat="44.35554" lon="3.74061">
        <ele>1094.6</ele>
        <time>2022-08-06T15:50:42Z</time>
      </trkpt>
      <trkpt lat="44.35548" lon="3.7406">
        <ele>1096.04</ele>
        <time>2022-08-06T15:50:50Z</time>
      </trkpt>
      <trkpt lat="44.35534" lon="3.74063">
        <ele>1096.52</ele>
        <time>2022-08-06T15:51:08Z</time>
      </trkpt>
      <trkpt lat="44.35523" lon="3.74063">
        <ele>1097.48</ele>
        <time>2022-08-06T15:51:22Z</time>
      </trkpt>
      <trkpt lat="44.35511" lon="3.74058">
        <ele>1100.85</ele>
        <time>2022-08-06T15:51:38Z</time>
      </trkpt>
      <trkpt lat="44.35496" lon="3.74052">
        <ele>1103.25</ele>
        <time>2022-08-06T15:51:58Z</time>
      </trkpt>
      <trkpt lat="44.35484" lon="3.74049">
        <ele>1103.73</ele>
        <time>2022-08-06T15:52:14Z</time>
      </trkpt>
      <trkpt lat="44.35477" lon="3.74048">
        <ele>1103.25</ele>
        <time>2022-08-06T15:52:22Z</time>
      </trkpt>
      <trkpt lat="44.35463" lon="3.7405">
        <ele>1103.25</ele>
        <time>2022-08-06T15:52:38Z</time>
      </trkpt>
      <trkpt lat="44.35449" lon="3.74051">
        <ele>1103.73</ele>
        <time>2022-08-06T15:52:54Z</time>
      </trkpt>
      <trkpt lat="44.35446" lon="3.74049">
        <ele>1102.77</ele>
        <time>2022-08-06T15:52:57Z</time>
      </trkpt>
      <trkpt lat="44.35433" lon="3.74041">
        <ele>1099.4</ele>
        <time>2022-08-06T15:53:13Z</time>
      </trkpt>
      <trkpt lat="44.3542" lon="3.74038">
        <ele>1098.44</ele>
        <time>2022-08-06T15:53:27Z</time>
      </trkpt>
      <trkpt lat="44.35406" lon="3.74038">
        <ele>1097.48</ele>
        <time>2022-08-06T15:53:44Z</time>
      </trkpt>
      <trkpt lat="44.354" lon="3.74037">
        <ele>1097.96</ele>
        <time>2022-08-06T15:53:51Z</time>
      </trkpt>
      <trkpt lat="44.3539" lon="3.74031">
        <ele>1098.92</ele>
        <time>2022-08-06T15:54:05Z</time>
      </trkpt>
      <trkpt lat="44.35374" lon="3.74022">
        <ele>1099.89</ele>
        <time>2022-08-06T15:54:22Z</time>
      </trkpt>
      <trkpt lat="44.3536" lon="3.74016">
        <ele>1100.37</ele>
        <time>2022-08-06T15:54:38Z</time>
      </trkpt>
      <trkpt lat="44.35351" lon="3.74018">
        <ele>1100.37</ele>
        <time>2022-08-06T15:54:52Z</time>
      </trkpt>
      <trkpt lat="44.35343" lon="3.74019">
        <ele>1098.92</ele>
        <time>2022-08-06T15:55:04Z</time>
      </trkpt>
      <trkpt lat="44.35338" lon="3.74019">
        <ele>1098.44</ele>
        <time>2022-08-06T15:55:15Z</time>
      </trkpt>
      <trkpt lat="44.35338" lon="3.74015">
        <ele>1099.4</ele>
        <time>2022-08-06T15:55:29Z</time>
      </trkpt>
      <trkpt lat="44.35333" lon="3.74012">
        <ele>1101.33</ele>
        <time>2022-08-06T15:55:41Z</time>
      </trkpt>
      <trkpt lat="44.35333" lon="3.74011">
        <ele>1100.85</ele>
        <time>2022-08-06T15:55:56Z</time>
      </trkpt>
      <trkpt lat="44.35334" lon="3.74011">
        <ele>1097.48</ele>
        <time>2022-08-06T15:56:16Z</time>
      </trkpt>
      <trkpt lat="44.35334" lon="3.74011">
        <ele>1097</ele>
        <time>2022-08-06T15:56:41Z</time>
      </trkpt>
      <trkpt lat="44.35333" lon="3.7401">
        <ele>1097</ele>
        <time>2022-08-06T15:57:05Z</time>
      </trkpt>
      <trkpt lat="44.35333" lon="3.7401">
        <ele>1097.48</ele>
        <time>2022-08-06T15:57:09Z</time>
      </trkpt>
      <trkpt lat="44.35237" lon="3.73944">
        <ele>1101.81</ele>
        <time>2022-08-07T05:23:08Z</time>
      </trkpt>
      <trkpt lat="44.3522" lon="3.73932">
        <ele>1099.89</ele>
        <time>2022-08-07T05:23:45Z</time>
      </trkpt>
      <trkpt lat="44.35217" lon="3.73933">
        <ele>1102.77</ele>
        <time>2022-08-07T05:24:00Z</time>
      </trkpt>
      <trkpt lat="44.35206" lon="3.73922">
        <ele>1106.13</ele>
        <time>2022-08-07T05:24:16Z</time>
      </trkpt>
      <trkpt lat="44.35198" lon="3.73915">
        <ele>1105.65</ele>
        <time>2022-08-07T05:24:29Z</time>
      </trkpt>
      <trkpt lat="44.35195" lon="3.73913">
        <ele>1105.65</ele>
        <time>2022-08-07T05:24:35Z</time>
      </trkpt>
      <trkpt lat="44.35184" lon="3.73903">
        <ele>1107.58</ele>
        <time>2022-08-07T05:24:50Z</time>
      </trkpt>
      <trkpt lat="44.35172" lon="3.73899">
        <ele>1109.02</ele>
        <time>2022-08-07T05:25:06Z</time>
      </trkpt>
      <trkpt lat="44.35171" lon="3.73899">
        <ele>1109.5</ele>
        <time>2022-08-07T05:25:22Z</time>
      </trkpt>
      <trkpt lat="44.35167" lon="3.73892">
        <ele>1108.54</ele>
        <time>2022-08-07T05:25:29Z</time>
      </trkpt>
      <trkpt lat="44.35166" lon="3.7389">
        <ele>1108.06</ele>
        <time>2022-08-07T05:25:31Z</time>
      </trkpt>
      <trkpt lat="44.35158" lon="3.73879">
        <ele>1107.1</ele>
        <time>2022-08-07T05:25:46Z</time>
      </trkpt>
      <trkpt lat="44.35149" lon="3.73873">
        <ele>1108.06</ele>
        <time>2022-08-07T05:25:58Z</time>
      </trkpt>
      <trkpt lat="44.35143" lon="3.73871">
        <ele>1107.58</ele>
        <time>2022-08-07T05:26:06Z</time>
      </trkpt>
      <trkpt lat="44.35129" lon="3.73854">
        <ele>1106.61</ele>
        <time>2022-08-07T05:26:25Z</time>
      </trkpt>
      <trkpt lat="44.35117" lon="3.73841">
        <ele>1106.61</ele>
        <time>2022-08-07T05:26:42Z</time>
      </trkpt>
      <trkpt lat="44.35104" lon="3.73828">
        <ele>1105.65</ele>
        <time>2022-08-07T05:26:59Z</time>
      </trkpt>
      <trkpt lat="44.35091" lon="3.73817">
        <ele>1106.61</ele>
        <time>2022-08-07T05:27:15Z</time>
      </trkpt>
      <trkpt lat="44.35078" lon="3.73806">
        <ele>1107.1</ele>
        <time>2022-08-07T05:27:30Z</time>
      </trkpt>
      <trkpt lat="44.35064" lon="3.73792">
        <ele>1107.58</ele>
        <time>2022-08-07T05:27:47Z</time>
      </trkpt>
      <trkpt lat="44.35054" lon="3.73786">
        <ele>1105.17</ele>
        <time>2022-08-07T05:28:00Z</time>
      </trkpt>
      <trkpt lat="44.3504" lon="3.73778">
        <ele>1104.21</ele>
        <time>2022-08-07T05:28:16Z</time>
      </trkpt>
      <trkpt lat="44.35027" lon="3.7377">
        <ele>1103.73</ele>
        <time>2022-08-07T05:28:32Z</time>
      </trkpt>
      <trkpt lat="44.35016" lon="3.73762">
        <ele>1103.73</ele>
        <time>2022-08-07T05:28:45Z</time>
      </trkpt>
      <trkpt lat="44.35006" lon="3.7376">
        <ele>1103.25</ele>
        <time>2022-08-07T05:28:57Z</time>
      </trkpt>
      <trkpt lat="44.35003" lon="3.73759">
        <ele>1103.73</ele>
        <time>2022-08-07T05:29:00Z</time>
      </trkpt>
      <trkpt lat="44.3499" lon="3.7375">
        <ele>1104.21</ele>
        <time>2022-08-07T05:29:15Z</time>
      </trkpt>
      <trkpt lat="44.34981" lon="3.73743">
        <ele>1103.25</ele>
        <time>2022-08-07T05:29:26Z</time>
      </trkpt>
      <trkpt lat="44.34965" lon="3.73733">
        <ele>1104.21</ele>
        <time>2022-08-07T05:29:43Z</time>
      </trkpt>
      <trkpt lat="44.34945" lon="3.73724">
        <ele>1104.21</ele>
        <time>2022-08-07T05:30:00Z</time>
      </trkpt>
      <trkpt lat="44.34924" lon="3.73719">
        <ele>1104.21</ele>
        <time>2022-08-07T05:30:17Z</time>
      </trkpt>
      <trkpt lat="44.34906" lon="3.7371">
        <ele>1103.73</ele>
        <time>2022-08-07T05:30:33Z</time>
      </trkpt>
      <trkpt lat="44.34895" lon="3.73705">
        <ele>1101.81</ele>
        <time>2022-08-07T05:30:44Z</time>
      </trkpt>
      <trkpt lat="44.34879" lon="3.73695">
        <ele>1101.81</ele>
        <time>2022-08-07T05:31:00Z</time>
      </trkpt>
      <trkpt lat="44.34866" lon="3.73686">
        <ele>1101.81</ele>
        <time>2022-08-07T05:31:14Z</time>
      </trkpt>
      <trkpt lat="44.34852" lon="3.73681">
        <ele>1101.81</ele>
        <time>2022-08-07T05:31:28Z</time>
      </trkpt>
      <trkpt lat="44.3484" lon="3.73682">
        <ele>1103.25</ele>
        <time>2022-08-07T05:31:42Z</time>
      </trkpt>
      <trkpt lat="44.34838" lon="3.73683">
        <ele>1103.25</ele>
        <time>2022-08-07T05:31:44Z</time>
      </trkpt>
      <trkpt lat="44.3482" lon="3.73684">
        <ele>1103.73</ele>
        <time>2022-08-07T05:32:00Z</time>
      </trkpt>
      <trkpt lat="44.34805" lon="3.73687">
        <ele>1104.21</ele>
        <time>2022-08-07T05:32:15Z</time>
      </trkpt>
      <trkpt lat="44.34787" lon="3.73686">
        <ele>1103.25</ele>
        <time>2022-08-07T05:32:31Z</time>
      </trkpt>
      <trkpt lat="44.34772" lon="3.73681">
        <ele>1102.29</ele>
        <time>2022-08-07T05:32:45Z</time>
      </trkpt>
      <trkpt lat="44.34753" lon="3.73681">
        <ele>1101.81</ele>
        <time>2022-08-07T05:33:01Z</time>
      </trkpt>
      <trkpt lat="44.34734" lon="3.7368">
        <ele>1101.33</ele>
        <time>2022-08-07T05:33:18Z</time>
      </trkpt>
      <trkpt lat="44.34715" lon="3.73681">
        <ele>1103.73</ele>
        <time>2022-08-07T05:33:36Z</time>
      </trkpt>
      <trkpt lat="44.34703" lon="3.73691">
        <ele>1103.25</ele>
        <time>2022-08-07T05:33:48Z</time>
      </trkpt>
      <trkpt lat="44.34685" lon="3.73708">
        <ele>1104.69</ele>
        <time>2022-08-07T05:34:07Z</time>
      </trkpt>
      <trkpt lat="44.34672" lon="3.73725">
        <ele>1105.17</ele>
        <time>2022-08-07T05:34:24Z</time>
      </trkpt>
      <trkpt lat="44.3467" lon="3.73727">
        <ele>1105.17</ele>
        <time>2022-08-07T05:34:26Z</time>
      </trkpt>
      <trkpt lat="44.34657" lon="3.73744">
        <ele>1102.29</ele>
        <time>2022-08-07T05:34:42Z</time>
      </trkpt>
      <trkpt lat="44.34643" lon="3.73755">
        <ele>1102.29</ele>
        <time>2022-08-07T05:34:57Z</time>
      </trkpt>
      <trkpt lat="44.34634" lon="3.73764">
        <ele>1100.85</ele>
        <time>2022-08-07T05:35:06Z</time>
      </trkpt>
      <trkpt lat="44.34617" lon="3.73774">
        <ele>1099.4</ele>
        <time>2022-08-07T05:35:22Z</time>
      </trkpt>
      <trkpt lat="44.34612" lon="3.73775">
        <ele>1099.4</ele>
        <time>2022-08-07T05:35:26Z</time>
      </trkpt>
      <trkpt lat="44.34605" lon="3.73774">
        <ele>1098.92</ele>
        <time>2022-08-07T05:35:32Z</time>
      </trkpt>
      <trkpt lat="44.34582" lon="3.73771">
        <ele>1097.96</ele>
        <time>2022-08-07T05:35:52Z</time>
      </trkpt>
      <trkpt lat="44.34565" lon="3.73757">
        <ele>1097.96</ele>
        <time>2022-08-07T05:36:09Z</time>
      </trkpt>
      <trkpt lat="44.34551" lon="3.73752">
        <ele>1098.44</ele>
        <time>2022-08-07T05:36:23Z</time>
      </trkpt>
      <trkpt lat="44.34537" lon="3.73748">
        <ele>1099.89</ele>
        <time>2022-08-07T05:36:38Z</time>
      </trkpt>
      <trkpt lat="44.34519" lon="3.73748">
        <ele>1103.25</ele>
        <time>2022-08-07T05:36:58Z</time>
      </trkpt>
      <trkpt lat="44.34502" lon="3.7375">
        <ele>1104.21</ele>
        <time>2022-08-07T05:37:16Z</time>
      </trkpt>
      <trkpt lat="44.34485" lon="3.73754">
        <ele>1104.21</ele>
        <time>2022-08-07T05:37:33Z</time>
      </trkpt>
      <trkpt lat="44.3447" lon="3.7376">
        <ele>1103.73</ele>
        <time>2022-08-07T05:37:48Z</time>
      </trkpt>
      <trkpt lat="44.34455" lon="3.73769">
        <ele>1103.73</ele>
        <time>2022-08-07T05:38:03Z</time>
      </trkpt>
      <trkpt lat="44.3444" lon="3.73777">
        <ele>1105.17</ele>
        <time>2022-08-07T05:38:18Z</time>
      </trkpt>
      <trkpt lat="44.34433" lon="3.73778">
        <ele>1107.58</ele>
        <time>2022-08-07T05:38:35Z</time>
      </trkpt>
      <trkpt lat="44.34427" lon="3.7378">
        <ele>1109.02</ele>
        <time>2022-08-07T05:38:47Z</time>
      </trkpt>
      <trkpt lat="44.34423" lon="3.73781">
        <ele>1109.5</ele>
        <time>2022-08-07T05:38:52Z</time>
      </trkpt>
      <trkpt lat="44.34404" lon="3.73784">
        <ele>1111.42</ele>
        <time>2022-08-07T05:39:11Z</time>
      </trkpt>
      <trkpt lat="44.34386" lon="3.73783">
        <ele>1110.94</ele>
        <time>2022-08-07T05:39:28Z</time>
      </trkpt>
      <trkpt lat="44.34371" lon="3.73784">
        <ele>1109.5</ele>
        <time>2022-08-07T05:39:43Z</time>
      </trkpt>
      <trkpt lat="44.34353" lon="3.73787">
        <ele>1109.98</ele>
        <time>2022-08-07T05:40:01Z</time>
      </trkpt>
      <trkpt lat="44.34336" lon="3.73786">
        <ele>1108.06</ele>
        <time>2022-08-07T05:40:17Z</time>
      </trkpt>
      <trkpt lat="44.34331" lon="3.73786">
        <ele>1107.58</ele>
        <time>2022-08-07T05:40:23Z</time>
      </trkpt>
      <trkpt lat="44.34312" lon="3.73782">
        <ele>1105.17</ele>
        <time>2022-08-07T05:40:40Z</time>
      </trkpt>
      <trkpt lat="44.34297" lon="3.73777">
        <ele>1101.33</ele>
        <time>2022-08-07T05:40:55Z</time>
      </trkpt>
      <trkpt lat="44.34281" lon="3.73779">
        <ele>1100.37</ele>
        <time>2022-08-07T05:41:10Z</time>
      </trkpt>
      <trkpt lat="44.34278" lon="3.73778">
        <ele>1100.37</ele>
        <time>2022-08-07T05:41:12Z</time>
      </trkpt>
      <trkpt lat="44.34263" lon="3.73767">
        <ele>1098.92</ele>
        <time>2022-08-07T05:41:28Z</time>
      </trkpt>
      <trkpt lat="44.34253" lon="3.73752">
        <ele>1095.08</ele>
        <time>2022-08-07T05:41:42Z</time>
      </trkpt>
      <trkpt lat="44.34239" lon="3.73738">
        <ele>1094.6</ele>
        <time>2022-08-07T05:42:00Z</time>
      </trkpt>
      <trkpt lat="44.34237" lon="3.73737">
        <ele>1094.12</ele>
        <time>2022-08-07T05:42:15Z</time>
      </trkpt>
      <trkpt lat="44.34234" lon="3.73744">
        <ele>1094.6</ele>
        <time>2022-08-07T05:42:33Z</time>
      </trkpt>
      <trkpt lat="44.3423" lon="3.73746">
        <ele>1094.6</ele>
        <time>2022-08-07T05:42:38Z</time>
      </trkpt>
      <trkpt lat="44.34225" lon="3.73748">
        <ele>1095.08</ele>
        <time>2022-08-07T05:42:43Z</time>
      </trkpt>
      <trkpt lat="44.34209" lon="3.73766">
        <ele>1095.56</ele>
        <time>2022-08-07T05:43:02Z</time>
      </trkpt>
      <trkpt lat="44.34198" lon="3.73779">
        <ele>1095.56</ele>
        <time>2022-08-07T05:43:16Z</time>
      </trkpt>
      <trkpt lat="44.34196" lon="3.73792">
        <ele>1095.08</ele>
        <time>2022-08-07T05:43:24Z</time>
      </trkpt>
      <trkpt lat="44.34197" lon="3.73802">
        <ele>1094.12</ele>
        <time>2022-08-07T05:43:38Z</time>
      </trkpt>
      <trkpt lat="44.34198" lon="3.73811">
        <ele>1092.68</ele>
        <time>2022-08-07T05:43:52Z</time>
      </trkpt>
      <trkpt lat="44.342" lon="3.7381">
        <ele>1094.6</ele>
        <time>2022-08-07T05:44:22Z</time>
      </trkpt>
      <trkpt lat="44.34198" lon="3.73808">
        <ele>1095.08</ele>
        <time>2022-08-07T05:44:56Z</time>
      </trkpt>
      <trkpt lat="44.34197" lon="3.73823">
        <ele>1093.64</ele>
        <time>2022-08-07T05:45:09Z</time>
      </trkpt>
      <trkpt lat="44.34197" lon="3.73845">
        <ele>1091.23</ele>
        <time>2022-08-07T05:45:24Z</time>
      </trkpt>
      <trkpt lat="44.34195" lon="3.73857">
        <ele>1089.31</ele>
        <time>2022-08-07T05:45:32Z</time>
      </trkpt>
      <trkpt lat="44.34188" lon="3.73883">
        <ele>1084.02</ele>
        <time>2022-08-07T05:45:50Z</time>
      </trkpt>
      <trkpt lat="44.34181" lon="3.73899">
        <ele>1084.02</ele>
        <time>2022-08-07T05:46:03Z</time>
      </trkpt>
      <trkpt lat="44.34177" lon="3.73906">
        <ele>1084.5</ele>
        <time>2022-08-07T05:46:15Z</time>
      </trkpt>
      <trkpt lat="44.34174" lon="3.73912">
        <ele>1087.39</ele>
        <time>2022-08-07T05:46:31Z</time>
      </trkpt>
      <trkpt lat="44.34173" lon="3.73913">
        <ele>1088.35</ele>
        <time>2022-08-07T05:46:58Z</time>
      </trkpt>
      <trkpt lat="44.34168" lon="3.73927">
        <ele>1086.91</ele>
        <time>2022-08-07T05:47:10Z</time>
      </trkpt>
      <trkpt lat="44.34158" lon="3.7395">
        <ele>1084.5</ele>
        <time>2022-08-07T05:47:27Z</time>
      </trkpt>
      <trkpt lat="44.34154" lon="3.73963">
        <ele>1081.62</ele>
        <time>2022-08-07T05:47:36Z</time>
      </trkpt>
      <trkpt lat="44.34141" lon="3.73981">
        <ele>1079.7</ele>
        <time>2022-08-07T05:47:53Z</time>
      </trkpt>
      <trkpt lat="44.34129" lon="3.73998">
        <ele>1076.81</ele>
        <time>2022-08-07T05:48:10Z</time>
      </trkpt>
      <trkpt lat="44.34126" lon="3.74002">
        <ele>1075.37</ele>
        <time>2022-08-07T05:48:15Z</time>
      </trkpt>
      <trkpt lat="44.34111" lon="3.74016">
        <ele>1074.41</ele>
        <time>2022-08-07T05:48:30Z</time>
      </trkpt>
      <trkpt lat="44.34101" lon="3.7403">
        <ele>1072.01</ele>
        <time>2022-08-07T05:48:44Z</time>
      </trkpt>
      <trkpt lat="44.34092" lon="3.74043">
        <ele>1072.49</ele>
        <time>2022-08-07T05:48:58Z</time>
      </trkpt>
      <trkpt lat="44.34083" lon="3.74062">
        <ele>1071.05</ele>
        <time>2022-08-07T05:49:13Z</time>
      </trkpt>
      <trkpt lat="44.34074" lon="3.74083">
        <ele>1069.6</ele>
        <time>2022-08-07T05:49:29Z</time>
      </trkpt>
      <trkpt lat="44.34067" lon="3.741">
        <ele>1068.16</ele>
        <time>2022-08-07T05:49:43Z</time>
      </trkpt>
      <trkpt lat="44.34059" lon="3.74111">
        <ele>1066.72</ele>
        <time>2022-08-07T05:49:58Z</time>
      </trkpt>
      <trkpt lat="44.34056" lon="3.74119">
        <ele>1067.2</ele>
        <time>2022-08-07T05:50:15Z</time>
      </trkpt>
      <trkpt lat="44.34054" lon="3.74123">
        <ele>1066.72</ele>
        <time>2022-08-07T05:50:18Z</time>
      </trkpt>
      <trkpt lat="44.34051" lon="3.74144">
        <ele>1065.28</ele>
        <time>2022-08-07T05:50:32Z</time>
      </trkpt>
      <trkpt lat="44.34044" lon="3.74172">
        <ele>1065.76</ele>
        <time>2022-08-07T05:50:46Z</time>
      </trkpt>
      <trkpt lat="44.34042" lon="3.74189">
        <ele>1066.72</ele>
        <time>2022-08-07T05:50:59Z</time>
      </trkpt>
      <trkpt lat="44.34041" lon="3.74211">
        <ele>1066.72</ele>
        <time>2022-08-07T05:51:14Z</time>
      </trkpt>
      <trkpt lat="44.34037" lon="3.74233">
        <ele>1064.32</ele>
        <time>2022-08-07T05:51:29Z</time>
      </trkpt>
      <trkpt lat="44.34034" lon="3.74208">
        <ele>1059.51</ele>
        <time>2022-08-07T05:51:48Z</time>
      </trkpt>
      <trkpt lat="44.34024" lon="3.74187">
        <ele>1056.63</ele>
        <time>2022-08-07T05:52:04Z</time>
      </trkpt>
      <trkpt lat="44.34012" lon="3.74175">
        <ele>1054.22</ele>
        <time>2022-08-07T05:52:18Z</time>
      </trkpt>
      <trkpt lat="44.34002" lon="3.74179">
        <ele>1047.49</ele>
        <time>2022-08-07T05:52:33Z</time>
      </trkpt>
      <trkpt lat="44.33986" lon="3.74161">
        <ele>1046.05</ele>
        <time>2022-08-07T05:52:51Z</time>
      </trkpt>
      <trkpt lat="44.33973" lon="3.74143">
        <ele>1048.94</ele>
        <time>2022-08-07T05:53:08Z</time>
      </trkpt>
      <trkpt lat="44.33963" lon="3.74131">
        <ele>1046.05</ele>
        <time>2022-08-07T05:53:25Z</time>
      </trkpt>
      <trkpt lat="44.33955" lon="3.74146">
        <ele>1039.32</ele>
        <time>2022-08-07T05:53:43Z</time>
      </trkpt>
      <trkpt lat="44.33947" lon="3.74158">
        <ele>1035.96</ele>
        <time>2022-08-07T05:53:56Z</time>
      </trkpt>
      <trkpt lat="44.33936" lon="3.74177">
        <ele>1035.96</ele>
        <time>2022-08-07T05:54:13Z</time>
      </trkpt>
      <trkpt lat="44.33933" lon="3.74206">
        <ele>1035.48</ele>
        <time>2022-08-07T05:54:32Z</time>
      </trkpt>
      <trkpt lat="44.33933" lon="3.74231">
        <ele>1032.11</ele>
        <time>2022-08-07T05:54:49Z</time>
      </trkpt>
      <trkpt lat="44.33923" lon="3.74263">
        <ele>1030.67</ele>
        <time>2022-08-07T05:55:08Z</time>
      </trkpt>
      <trkpt lat="44.33905" lon="3.74279">
        <ele>1029.23</ele>
        <time>2022-08-07T05:55:24Z</time>
      </trkpt>
      <trkpt lat="44.33895" lon="3.74295">
        <ele>1027.31</ele>
        <time>2022-08-07T05:55:40Z</time>
      </trkpt>
      <trkpt lat="44.33883" lon="3.743">
        <ele>1025.86</ele>
        <time>2022-08-07T05:55:52Z</time>
      </trkpt>
      <trkpt lat="44.33867" lon="3.74301">
        <ele>1026.34</ele>
        <time>2022-08-07T05:56:05Z</time>
      </trkpt>
      <trkpt lat="44.33846" lon="3.74315">
        <ele>1023.46</ele>
        <time>2022-08-07T05:56:24Z</time>
      </trkpt>
      <trkpt lat="44.33835" lon="3.74319">
        <ele>1018.65</ele>
        <time>2022-08-07T05:56:38Z</time>
      </trkpt>
      <trkpt lat="44.33821" lon="3.74316">
        <ele>1020.58</ele>
        <time>2022-08-07T05:56:56Z</time>
      </trkpt>
      <trkpt lat="44.33812" lon="3.74334">
        <ele>1019.62</ele>
        <time>2022-08-07T05:57:12Z</time>
      </trkpt>
      <trkpt lat="44.3381" lon="3.74353">
        <ele>1016.73</ele>
        <time>2022-08-07T05:57:25Z</time>
      </trkpt>
      <trkpt lat="44.33805" lon="3.74378">
        <ele>1013.37</ele>
        <time>2022-08-07T05:57:42Z</time>
      </trkpt>
      <trkpt lat="44.33798" lon="3.74396">
        <ele>1009.52</ele>
        <time>2022-08-07T05:57:53Z</time>
      </trkpt>
      <trkpt lat="44.33789" lon="3.7442">
        <ele>1007.6</ele>
        <time>2022-08-07T05:58:09Z</time>
      </trkpt>
      <trkpt lat="44.3378" lon="3.74434">
        <ele>1006.64</ele>
        <time>2022-08-07T05:58:22Z</time>
      </trkpt>
      <trkpt lat="44.33779" lon="3.74435">
        <ele>1006.64</ele>
        <time>2022-08-07T05:58:23Z</time>
      </trkpt>
      <trkpt lat="44.33772" lon="3.74444">
        <ele>1005.68</ele>
        <time>2022-08-07T05:58:31Z</time>
      </trkpt>
      <trkpt lat="44.3377" lon="3.7446">
        <ele>1005.2</ele>
        <time>2022-08-07T05:58:39Z</time>
      </trkpt>
      <trkpt lat="44.33772" lon="3.74464">
        <ele>1004.23</ele>
        <time>2022-08-07T05:58:42Z</time>
      </trkpt>
      <trkpt lat="44.33774" lon="3.74468">
        <ele>1002.31</ele>
        <time>2022-08-07T05:58:54Z</time>
      </trkpt>
      <trkpt lat="44.33792" lon="3.74466">
        <ele>1002.31</ele>
        <time>2022-08-07T05:59:10Z</time>
      </trkpt>
      <trkpt lat="44.33808" lon="3.7446">
        <ele>1003.27</ele>
        <time>2022-08-07T05:59:26Z</time>
      </trkpt>
      <trkpt lat="44.33821" lon="3.74447">
        <ele>1002.31</ele>
        <time>2022-08-07T05:59:41Z</time>
      </trkpt>
      <trkpt lat="44.33837" lon="3.74445">
        <ele>1002.31</ele>
        <time>2022-08-07T05:59:57Z</time>
      </trkpt>
      <trkpt lat="44.33855" lon="3.74444">
        <ele>1003.75</ele>
        <time>2022-08-07T06:00:10Z</time>
      </trkpt>
      <trkpt lat="44.33876" lon="3.74441">
        <ele>1006.16</ele>
        <time>2022-08-07T06:00:26Z</time>
      </trkpt>
      <trkpt lat="44.3389" lon="3.74434">
        <ele>1006.16</ele>
        <time>2022-08-07T06:00:40Z</time>
      </trkpt>
      <trkpt lat="44.3391" lon="3.74423">
        <ele>1009.04</ele>
        <time>2022-08-07T06:00:56Z</time>
      </trkpt>
      <trkpt lat="44.33925" lon="3.74419">
        <ele>1007.6</ele>
        <time>2022-08-07T06:01:10Z</time>
      </trkpt>
      <trkpt lat="44.33938" lon="3.74432">
        <ele>1004.72</ele>
        <time>2022-08-07T06:01:24Z</time>
      </trkpt>
      <trkpt lat="44.33946" lon="3.74448">
        <ele>1000.87</ele>
        <time>2022-08-07T06:01:39Z</time>
      </trkpt>
      <trkpt lat="44.33946" lon="3.74454">
        <ele>1000.39</ele>
        <time>2022-08-07T06:01:53Z</time>
      </trkpt>
      <trkpt lat="44.33949" lon="3.74451">
        <ele>999.43</ele>
        <time>2022-08-07T06:02:08Z</time>
      </trkpt>
      <trkpt lat="44.33954" lon="3.7446">
        <ele>997.99</ele>
        <time>2022-08-07T06:02:18Z</time>
      </trkpt>
      <trkpt lat="44.33955" lon="3.74489">
        <ele>998.47</ele>
        <time>2022-08-07T06:02:37Z</time>
      </trkpt>
      <trkpt lat="44.33955" lon="3.745">
        <ele>998.95</ele>
        <time>2022-08-07T06:02:42Z</time>
      </trkpt>
      <trkpt lat="44.33954" lon="3.74524">
        <ele>999.43</ele>
        <time>2022-08-07T06:02:58Z</time>
      </trkpt>
      <trkpt lat="44.3395" lon="3.74552">
        <ele>998.47</ele>
        <time>2022-08-07T06:03:15Z</time>
      </trkpt>
      <trkpt lat="44.33948" lon="3.74569">
        <ele>999.43</ele>
        <time>2022-08-07T06:03:31Z</time>
      </trkpt>
      <trkpt lat="44.33945" lon="3.74592">
        <ele>999.91</ele>
        <time>2022-08-07T06:03:47Z</time>
      </trkpt>
      <trkpt lat="44.33937" lon="3.74613">
        <ele>998.47</ele>
        <time>2022-08-07T06:04:00Z</time>
      </trkpt>
      <trkpt lat="44.33932" lon="3.74634">
        <ele>997.02</ele>
        <time>2022-08-07T06:04:15Z</time>
      </trkpt>
      <trkpt lat="44.33929" lon="3.74648">
        <ele>996.54</ele>
        <time>2022-08-07T06:04:31Z</time>
      </trkpt>
      <trkpt lat="44.33929" lon="3.74664">
        <ele>996.06</ele>
        <time>2022-08-07T06:04:46Z</time>
      </trkpt>
      <trkpt lat="44.33939" lon="3.74701">
        <ele>995.1</ele>
        <time>2022-08-07T06:05:05Z</time>
      </trkpt>
      <trkpt lat="44.3394" lon="3.74707">
        <ele>994.14</ele>
        <time>2022-08-07T06:05:10Z</time>
      </trkpt>
      <trkpt lat="44.33937" lon="3.74735">
        <ele>993.18</ele>
        <time>2022-08-07T06:05:26Z</time>
      </trkpt>
      <trkpt lat="44.33931" lon="3.7476">
        <ele>995.1</ele>
        <time>2022-08-07T06:05:43Z</time>
      </trkpt>
      <trkpt lat="44.33928" lon="3.74783">
        <ele>994.14</ele>
        <time>2022-08-07T06:05:56Z</time>
      </trkpt>
      <trkpt lat="44.33926" lon="3.74803">
        <ele>994.14</ele>
        <time>2022-08-07T06:06:09Z</time>
      </trkpt>
      <trkpt lat="44.33928" lon="3.7482">
        <ele>997.51</ele>
        <time>2022-08-07T06:06:22Z</time>
      </trkpt>
      <trkpt lat="44.33929" lon="3.74835">
        <ele>999.43</ele>
        <time>2022-08-07T06:06:34Z</time>
      </trkpt>
      <trkpt lat="44.33926" lon="3.74852">
        <ele>999.43</ele>
        <time>2022-08-07T06:06:48Z</time>
      </trkpt>
      <trkpt lat="44.33921" lon="3.74865">
        <ele>1000.39</ele>
        <time>2022-08-07T06:07:00Z</time>
      </trkpt>
      <trkpt lat="44.33919" lon="3.74885">
        <ele>1002.31</ele>
        <time>2022-08-07T06:07:15Z</time>
      </trkpt>
      <trkpt lat="44.33916" lon="3.74902">
        <ele>1002.79</ele>
        <time>2022-08-07T06:07:28Z</time>
      </trkpt>
      <trkpt lat="44.3391" lon="3.74917">
        <ele>1003.75</ele>
        <time>2022-08-07T06:07:42Z</time>
      </trkpt>
      <trkpt lat="44.33899" lon="3.74929">
        <ele>1005.68</ele>
        <time>2022-08-07T06:07:57Z</time>
      </trkpt>
      <trkpt lat="44.33888" lon="3.74935">
        <ele>1007.12</ele>
        <time>2022-08-07T06:08:11Z</time>
      </trkpt>
      <trkpt lat="44.33886" lon="3.74937">
        <ele>1007.12</ele>
        <time>2022-08-07T06:08:14Z</time>
      </trkpt>
      <trkpt lat="44.33876" lon="3.74943">
        <ele>1007.12</ele>
        <time>2022-08-07T06:08:30Z</time>
      </trkpt>
      <trkpt lat="44.33864" lon="3.74951">
        <ele>1008.08</ele>
        <time>2022-08-07T06:08:46Z</time>
      </trkpt>
      <trkpt lat="44.33852" lon="3.74956">
        <ele>1008.08</ele>
        <time>2022-08-07T06:09:01Z</time>
      </trkpt>
      <trkpt lat="44.33841" lon="3.74956">
        <ele>1008.08</ele>
        <time>2022-08-07T06:09:14Z</time>
      </trkpt>
      <trkpt lat="44.33827" lon="3.74954">
        <ele>1010.48</ele>
        <time>2022-08-07T06:09:31Z</time>
      </trkpt>
      <trkpt lat="44.33825" lon="3.74951">
        <ele>1011.93</ele>
        <time>2022-08-07T06:09:34Z</time>
      </trkpt>
      <trkpt lat="44.33811" lon="3.74946">
        <ele>1017.21</ele>
        <time>2022-08-07T06:09:50Z</time>
      </trkpt>
      <trkpt lat="44.33798" lon="3.74953">
        <ele>1017.69</ele>
        <time>2022-08-07T06:10:04Z</time>
      </trkpt>
      <trkpt lat="44.33781" lon="3.74963">
        <ele>1017.69</ele>
        <time>2022-08-07T06:10:20Z</time>
      </trkpt>
      <trkpt lat="44.33773" lon="3.74968">
        <ele>1018.65</ele>
        <time>2022-08-07T06:10:34Z</time>
      </trkpt>
      <trkpt lat="44.33762" lon="3.7497">
        <ele>1021.06</ele>
        <time>2022-08-07T06:10:48Z</time>
      </trkpt>
      <trkpt lat="44.33746" lon="3.74977">
        <ele>1021.06</ele>
        <time>2022-08-07T06:11:05Z</time>
      </trkpt>
      <trkpt lat="44.33735" lon="3.74984">
        <ele>1021.54</ele>
        <time>2022-08-07T06:11:21Z</time>
      </trkpt>
      <trkpt lat="44.33721" lon="3.74988">
        <ele>1022.98</ele>
        <time>2022-08-07T06:11:38Z</time>
      </trkpt>
      <trkpt lat="44.33711" lon="3.7499">
        <ele>1026.34</ele>
        <time>2022-08-07T06:11:55Z</time>
      </trkpt>
      <trkpt lat="44.33698" lon="3.74989">
        <ele>1030.67</ele>
        <time>2022-08-07T06:12:07Z</time>
      </trkpt>
      <trkpt lat="44.33688" lon="3.74994">
        <ele>1034.04</ele>
        <time>2022-08-07T06:12:20Z</time>
      </trkpt>
      <trkpt lat="44.33675" lon="3.74999">
        <ele>1035.48</ele>
        <time>2022-08-07T06:12:34Z</time>
      </trkpt>
      <trkpt lat="44.33663" lon="3.75006">
        <ele>1035</ele>
        <time>2022-08-07T06:12:50Z</time>
      </trkpt>
      <trkpt lat="44.33654" lon="3.75013">
        <ele>1038.36</ele>
        <time>2022-08-07T06:13:03Z</time>
      </trkpt>
      <trkpt lat="44.33641" lon="3.75021">
        <ele>1040.76</ele>
        <time>2022-08-07T06:13:19Z</time>
      </trkpt>
      <trkpt lat="44.33625" lon="3.75029">
        <ele>1043.17</ele>
        <time>2022-08-07T06:13:36Z</time>
      </trkpt>
      <trkpt lat="44.33615" lon="3.75036">
        <ele>1043.65</ele>
        <time>2022-08-07T06:13:51Z</time>
      </trkpt>
      <trkpt lat="44.33603" lon="3.75044">
        <ele>1043.65</ele>
        <time>2022-08-07T06:14:07Z</time>
      </trkpt>
      <trkpt lat="44.33592" lon="3.75053">
        <ele>1042.69</ele>
        <time>2022-08-07T06:14:24Z</time>
      </trkpt>
      <trkpt lat="44.33584" lon="3.75062">
        <ele>1042.69</ele>
        <time>2022-08-07T06:14:39Z</time>
      </trkpt>
      <trkpt lat="44.33582" lon="3.75064">
        <ele>1042.21</ele>
        <time>2022-08-07T06:14:43Z</time>
      </trkpt>
      <trkpt lat="44.33573" lon="3.75072">
        <ele>1042.21</ele>
        <time>2022-08-07T06:14:57Z</time>
      </trkpt>
      <trkpt lat="44.33564" lon="3.75079">
        <ele>1042.69</ele>
        <time>2022-08-07T06:15:11Z</time>
      </trkpt>
      <trkpt lat="44.33555" lon="3.75087">
        <ele>1042.69</ele>
        <time>2022-08-07T06:15:25Z</time>
      </trkpt>
      <trkpt lat="44.33545" lon="3.75094">
        <ele>1044.13</ele>
        <time>2022-08-07T06:15:40Z</time>
      </trkpt>
      <trkpt lat="44.33535" lon="3.751">
        <ele>1047.01</ele>
        <time>2022-08-07T06:15:58Z</time>
      </trkpt>
      <trkpt lat="44.33519" lon="3.75108">
        <ele>1053.26</ele>
        <time>2022-08-07T06:16:16Z</time>
      </trkpt>
      <trkpt lat="44.33506" lon="3.75114">
        <ele>1058.07</ele>
        <time>2022-08-07T06:16:31Z</time>
      </trkpt>
      <trkpt lat="44.33491" lon="3.75124">
        <ele>1058.55</ele>
        <time>2022-08-07T06:16:50Z</time>
      </trkpt>
      <trkpt lat="44.33476" lon="3.75136">
        <ele>1059.99</ele>
        <time>2022-08-07T06:17:10Z</time>
      </trkpt>
      <trkpt lat="44.33462" lon="3.75141">
        <ele>1063.84</ele>
        <time>2022-08-07T06:17:27Z</time>
      </trkpt>
      <trkpt lat="44.33451" lon="3.75151">
        <ele>1063.84</ele>
        <time>2022-08-07T06:17:43Z</time>
      </trkpt>
      <trkpt lat="44.33438" lon="3.75168">
        <ele>1067.2</ele>
        <time>2022-08-07T06:17:59Z</time>
      </trkpt>
      <trkpt lat="44.3343" lon="3.75179">
        <ele>1070.08</ele>
        <time>2022-08-07T06:18:11Z</time>
      </trkpt>
      <trkpt lat="44.33421" lon="3.75193">
        <ele>1072.01</ele>
        <time>2022-08-07T06:18:25Z</time>
      </trkpt>
      <trkpt lat="44.33412" lon="3.75203">
        <ele>1073.45</ele>
        <time>2022-08-07T06:18:38Z</time>
      </trkpt>
      <trkpt lat="44.33402" lon="3.75215">
        <ele>1075.85</ele>
        <time>2022-08-07T06:18:51Z</time>
      </trkpt>
      <trkpt lat="44.33389" lon="3.75225">
        <ele>1077.29</ele>
        <time>2022-08-07T06:19:06Z</time>
      </trkpt>
      <trkpt lat="44.33376" lon="3.7524">
        <ele>1080.18</ele>
        <time>2022-08-07T06:19:22Z</time>
      </trkpt>
      <trkpt lat="44.33364" lon="3.75254">
        <ele>1081.14</ele>
        <time>2022-08-07T06:19:38Z</time>
      </trkpt>
      <trkpt lat="44.33353" lon="3.75266">
        <ele>1083.54</ele>
        <time>2022-08-07T06:19:53Z</time>
      </trkpt>
      <trkpt lat="44.33338" lon="3.75288">
        <ele>1085.47</ele>
        <time>2022-08-07T06:20:11Z</time>
      </trkpt>
      <trkpt lat="44.33325" lon="3.75302">
        <ele>1084.5</ele>
        <time>2022-08-07T06:20:27Z</time>
      </trkpt>
      <trkpt lat="44.33312" lon="3.75314">
        <ele>1083.54</ele>
        <time>2022-08-07T06:20:45Z</time>
      </trkpt>
      <trkpt lat="44.333" lon="3.75325">
        <ele>1083.06</ele>
        <time>2022-08-07T06:21:01Z</time>
      </trkpt>
      <trkpt lat="44.33286" lon="3.75332">
        <ele>1079.7</ele>
        <time>2022-08-07T06:21:15Z</time>
      </trkpt>
      <trkpt lat="44.33278" lon="3.75336">
        <ele>1078.74</ele>
        <time>2022-08-07T06:21:24Z</time>
      </trkpt>
      <trkpt lat="44.33262" lon="3.75344">
        <ele>1079.7</ele>
        <time>2022-08-07T06:21:40Z</time>
      </trkpt>
      <trkpt lat="44.33245" lon="3.75346">
        <ele>1082.58</ele>
        <time>2022-08-07T06:21:55Z</time>
      </trkpt>
      <trkpt lat="44.33232" lon="3.7535">
        <ele>1083.06</ele>
        <time>2022-08-07T06:22:09Z</time>
      </trkpt>
      <trkpt lat="44.33215" lon="3.75354">
        <ele>1083.06</ele>
        <time>2022-08-07T06:22:26Z</time>
      </trkpt>
      <trkpt lat="44.33203" lon="3.75365">
        <ele>1082.58</ele>
        <time>2022-08-07T06:22:39Z</time>
      </trkpt>
      <trkpt lat="44.33194" lon="3.75368">
        <ele>1083.54</ele>
        <time>2022-08-07T06:22:49Z</time>
      </trkpt>
      <trkpt lat="44.33178" lon="3.7537">
        <ele>1087.39</ele>
        <time>2022-08-07T06:23:04Z</time>
      </trkpt>
      <trkpt lat="44.33167" lon="3.75364">
        <ele>1090.27</ele>
        <time>2022-08-07T06:23:18Z</time>
      </trkpt>
      <trkpt lat="44.33167" lon="3.7536">
        <ele>1090.27</ele>
        <time>2022-08-07T06:23:33Z</time>
      </trkpt>
      <trkpt lat="44.33167" lon="3.75363">
        <ele>1091.23</ele>
        <time>2022-08-07T06:23:39Z</time>
      </trkpt>
      <trkpt lat="44.33165" lon="3.75373">
        <ele>1091.23</ele>
        <time>2022-08-07T06:23:47Z</time>
      </trkpt>
      <trkpt lat="44.33152" lon="3.75387">
        <ele>1094.12</ele>
        <time>2022-08-07T06:24:03Z</time>
      </trkpt>
      <trkpt lat="44.33151" lon="3.75389">
        <ele>1094.6</ele>
        <time>2022-08-07T06:24:05Z</time>
      </trkpt>
      <trkpt lat="44.33136" lon="3.75401">
        <ele>1097.48</ele>
        <time>2022-08-07T06:24:21Z</time>
      </trkpt>
      <trkpt lat="44.33125" lon="3.75408">
        <ele>1097.48</ele>
        <time>2022-08-07T06:24:34Z</time>
      </trkpt>
      <trkpt lat="44.33113" lon="3.75418">
        <ele>1098.44</ele>
        <time>2022-08-07T06:24:51Z</time>
      </trkpt>
      <trkpt lat="44.33102" lon="3.75427">
        <ele>1100.85</ele>
        <time>2022-08-07T06:25:08Z</time>
      </trkpt>
      <trkpt lat="44.33091" lon="3.75434">
        <ele>1101.33</ele>
        <time>2022-08-07T06:25:25Z</time>
      </trkpt>
      <trkpt lat="44.3308" lon="3.75435">
        <ele>1100.85</ele>
        <time>2022-08-07T06:25:39Z</time>
      </trkpt>
      <trkpt lat="44.33068" lon="3.75433">
        <ele>1101.81</ele>
        <time>2022-08-07T06:25:53Z</time>
      </trkpt>
      <trkpt lat="44.33057" lon="3.75429">
        <ele>1103.25</ele>
        <time>2022-08-07T06:26:08Z</time>
      </trkpt>
      <trkpt lat="44.33048" lon="3.75425">
        <ele>1105.65</ele>
        <time>2022-08-07T06:26:20Z</time>
      </trkpt>
      <trkpt lat="44.33038" lon="3.75424">
        <ele>1107.58</ele>
        <time>2022-08-07T06:26:36Z</time>
      </trkpt>
      <trkpt lat="44.33029" lon="3.75425">
        <ele>1109.02</ele>
        <time>2022-08-07T06:26:50Z</time>
      </trkpt>
      <trkpt lat="44.3302" lon="3.75422">
        <ele>1110.46</ele>
        <time>2022-08-07T06:27:05Z</time>
      </trkpt>
      <trkpt lat="44.3301" lon="3.75418">
        <ele>1111.9</ele>
        <time>2022-08-07T06:27:22Z</time>
      </trkpt>
      <trkpt lat="44.32997" lon="3.75412">
        <ele>1115.75</ele>
        <time>2022-08-07T06:27:42Z</time>
      </trkpt>
      <trkpt lat="44.32986" lon="3.75405">
        <ele>1118.63</ele>
        <time>2022-08-07T06:27:59Z</time>
      </trkpt>
      <trkpt lat="44.32971" lon="3.754">
        <ele>1127.28</ele>
        <time>2022-08-07T06:28:15Z</time>
      </trkpt>
      <trkpt lat="44.32962" lon="3.75394">
        <ele>1130.17</ele>
        <time>2022-08-07T06:28:31Z</time>
      </trkpt>
      <trkpt lat="44.32954" lon="3.75386">
        <ele>1132.09</ele>
        <time>2022-08-07T06:28:46Z</time>
      </trkpt>
      <trkpt lat="44.32953" lon="3.75377">
        <ele>1135.45</ele>
        <time>2022-08-07T06:29:00Z</time>
      </trkpt>
      <trkpt lat="44.32949" lon="3.75367">
        <ele>1137.86</ele>
        <time>2022-08-07T06:29:16Z</time>
      </trkpt>
      <trkpt lat="44.32947" lon="3.75358">
        <ele>1139.3</ele>
        <time>2022-08-07T06:29:28Z</time>
      </trkpt>
      <trkpt lat="44.32943" lon="3.75347">
        <ele>1139.78</ele>
        <time>2022-08-07T06:29:42Z</time>
      </trkpt>
      <trkpt lat="44.32942" lon="3.75328">
        <ele>1137.38</ele>
        <time>2022-08-07T06:29:58Z</time>
      </trkpt>
      <trkpt lat="44.32934" lon="3.75313">
        <ele>1133.53</ele>
        <time>2022-08-07T06:30:14Z</time>
      </trkpt>
      <trkpt lat="44.32925" lon="3.75298">
        <ele>1129.69</ele>
        <time>2022-08-07T06:30:30Z</time>
      </trkpt>
      <trkpt lat="44.32915" lon="3.75282">
        <ele>1129.21</ele>
        <time>2022-08-07T06:30:47Z</time>
      </trkpt>
      <trkpt lat="44.32902" lon="3.7527">
        <ele>1131.13</ele>
        <time>2022-08-07T06:31:03Z</time>
      </trkpt>
      <trkpt lat="44.32892" lon="3.75263">
        <ele>1132.09</ele>
        <time>2022-08-07T06:31:15Z</time>
      </trkpt>
      <trkpt lat="44.32873" lon="3.75245">
        <ele>1135.45</ele>
        <time>2022-08-07T06:31:29Z</time>
      </trkpt>
      <trkpt lat="44.32869" lon="3.75244">
        <ele>1136.42</ele>
        <time>2022-08-07T06:31:32Z</time>
      </trkpt>
      <trkpt lat="44.32854" lon="3.75234">
        <ele>1138.34</ele>
        <time>2022-08-07T06:31:46Z</time>
      </trkpt>
      <trkpt lat="44.32838" lon="3.75227">
        <ele>1142.66</ele>
        <time>2022-08-07T06:31:59Z</time>
      </trkpt>
      <trkpt lat="44.32823" lon="3.7523">
        <ele>1145.55</ele>
        <time>2022-08-07T06:32:14Z</time>
      </trkpt>
      <trkpt lat="44.32809" lon="3.75224">
        <ele>1148.91</ele>
        <time>2022-08-07T06:32:26Z</time>
      </trkpt>
      <trkpt lat="44.32795" lon="3.75224">
        <ele>1149.39</ele>
        <time>2022-08-07T06:32:39Z</time>
      </trkpt>
      <trkpt lat="44.32775" lon="3.75219">
        <ele>1149.39</ele>
        <time>2022-08-07T06:32:53Z</time>
      </trkpt>
      <trkpt lat="44.32759" lon="3.75214">
        <ele>1152.28</ele>
        <time>2022-08-07T06:33:07Z</time>
      </trkpt>
      <trkpt lat="44.32743" lon="3.75203">
        <ele>1153.72</ele>
        <time>2022-08-07T06:33:20Z</time>
      </trkpt>
      <trkpt lat="44.32731" lon="3.75196">
        <ele>1156.12</ele>
        <time>2022-08-07T06:33:31Z</time>
      </trkpt>
      <trkpt lat="44.32725" lon="3.75191">
        <ele>1157.08</ele>
        <time>2022-08-07T06:33:37Z</time>
      </trkpt>
      <trkpt lat="44.32723" lon="3.75181">
        <ele>1157.08</ele>
        <time>2022-08-07T06:33:52Z</time>
      </trkpt>
      <trkpt lat="44.32722" lon="3.75175">
        <ele>1157.08</ele>
        <time>2022-08-07T06:33:57Z</time>
      </trkpt>
      <trkpt lat="44.32715" lon="3.75157">
        <ele>1156.6</ele>
        <time>2022-08-07T06:34:13Z</time>
      </trkpt>
      <trkpt lat="44.32709" lon="3.75138">
        <ele>1155.64</ele>
        <time>2022-08-07T06:34:29Z</time>
      </trkpt>
      <trkpt lat="44.32704" lon="3.75122">
        <ele>1155.64</ele>
        <time>2022-08-07T06:34:42Z</time>
      </trkpt>
      <trkpt lat="44.32699" lon="3.75114">
        <ele>1157.56</ele>
        <time>2022-08-07T06:34:48Z</time>
      </trkpt>
      <trkpt lat="44.32696" lon="3.75106">
        <ele>1158.53</ele>
        <time>2022-08-07T06:34:55Z</time>
      </trkpt>
      <trkpt lat="44.3269" lon="3.75091">
        <ele>1159.49</ele>
        <time>2022-08-07T06:35:10Z</time>
      </trkpt>
      <trkpt lat="44.32677" lon="3.75075">
        <ele>1160.93</ele>
        <time>2022-08-07T06:35:27Z</time>
      </trkpt>
      <trkpt lat="44.32676" lon="3.75073">
        <ele>1161.41</ele>
        <time>2022-08-07T06:35:28Z</time>
      </trkpt>
      <trkpt lat="44.32664" lon="3.75058">
        <ele>1160.45</ele>
        <time>2022-08-07T06:35:44Z</time>
      </trkpt>
      <trkpt lat="44.32654" lon="3.7505">
        <ele>1161.41</ele>
        <time>2022-08-07T06:35:57Z</time>
      </trkpt>
      <trkpt lat="44.32643" lon="3.75036">
        <ele>1164.77</ele>
        <time>2022-08-07T06:36:11Z</time>
      </trkpt>
      <trkpt lat="44.32631" lon="3.75025">
        <ele>1168.62</ele>
        <time>2022-08-07T06:36:24Z</time>
      </trkpt>
      <trkpt lat="44.32621" lon="3.75017">
        <ele>1170.06</ele>
        <time>2022-08-07T06:36:37Z</time>
      </trkpt>
      <trkpt lat="44.32613" lon="3.75009">
        <ele>1171.98</ele>
        <time>2022-08-07T06:36:51Z</time>
      </trkpt>
      <trkpt lat="44.32602" lon="3.7499">
        <ele>1173.91</ele>
        <time>2022-08-07T06:37:09Z</time>
      </trkpt>
      <trkpt lat="44.32592" lon="3.74976">
        <ele>1175.83</ele>
        <time>2022-08-07T06:37:25Z</time>
      </trkpt>
      <trkpt lat="44.32579" lon="3.74963">
        <ele>1177.27</ele>
        <time>2022-08-07T06:37:42Z</time>
      </trkpt>
      <trkpt lat="44.32568" lon="3.7495">
        <ele>1177.75</ele>
        <time>2022-08-07T06:37:56Z</time>
      </trkpt>
      <trkpt lat="44.32557" lon="3.74935">
        <ele>1180.16</ele>
        <time>2022-08-07T06:38:12Z</time>
      </trkpt>
      <trkpt lat="44.32548" lon="3.74923">
        <ele>1181.6</ele>
        <time>2022-08-07T06:38:28Z</time>
      </trkpt>
      <trkpt lat="44.32538" lon="3.74911">
        <ele>1181.12</ele>
        <time>2022-08-07T06:38:44Z</time>
      </trkpt>
      <trkpt lat="44.32529" lon="3.74899">
        <ele>1181.12</ele>
        <time>2022-08-07T06:39:01Z</time>
      </trkpt>
      <trkpt lat="44.32515" lon="3.74887">
        <ele>1182.08</ele>
        <time>2022-08-07T06:39:19Z</time>
      </trkpt>
      <trkpt lat="44.32504" lon="3.74879">
        <ele>1182.56</ele>
        <time>2022-08-07T06:39:33Z</time>
      </trkpt>
      <trkpt lat="44.32496" lon="3.74867">
        <ele>1184.48</ele>
        <time>2022-08-07T06:39:49Z</time>
      </trkpt>
      <trkpt lat="44.32482" lon="3.74853">
        <ele>1187.85</ele>
        <time>2022-08-07T06:40:05Z</time>
      </trkpt>
      <trkpt lat="44.32473" lon="3.74839">
        <ele>1189.29</ele>
        <time>2022-08-07T06:40:20Z</time>
      </trkpt>
      <trkpt lat="44.32464" lon="3.74831">
        <ele>1191.69</ele>
        <time>2022-08-07T06:40:36Z</time>
      </trkpt>
      <trkpt lat="44.32452" lon="3.74823">
        <ele>1193.13</ele>
        <time>2022-08-07T06:40:50Z</time>
      </trkpt>
      <trkpt lat="44.32442" lon="3.74812">
        <ele>1193.61</ele>
        <time>2022-08-07T06:41:04Z</time>
      </trkpt>
      <trkpt lat="44.32426" lon="3.74803">
        <ele>1192.17</ele>
        <time>2022-08-07T06:41:25Z</time>
      </trkpt>
      <trkpt lat="44.32411" lon="3.74791">
        <ele>1190.73</ele>
        <time>2022-08-07T06:41:41Z</time>
      </trkpt>
      <trkpt lat="44.324" lon="3.74779">
        <ele>1189.77</ele>
        <time>2022-08-07T06:41:57Z</time>
      </trkpt>
      <trkpt lat="44.32389" lon="3.74769">
        <ele>1193.61</ele>
        <time>2022-08-07T06:42:11Z</time>
      </trkpt>
      <trkpt lat="44.32378" lon="3.74761">
        <ele>1194.09</ele>
        <time>2022-08-07T06:42:25Z</time>
      </trkpt>
      <trkpt lat="44.32366" lon="3.74751">
        <ele>1196.02</ele>
        <time>2022-08-07T06:42:41Z</time>
      </trkpt>
      <trkpt lat="44.32354" lon="3.74742">
        <ele>1198.42</ele>
        <time>2022-08-07T06:42:57Z</time>
      </trkpt>
      <trkpt lat="44.32341" lon="3.74733">
        <ele>1200.34</ele>
        <time>2022-08-07T06:43:13Z</time>
      </trkpt>
      <trkpt lat="44.3233" lon="3.74726">
        <ele>1202.75</ele>
        <time>2022-08-07T06:43:29Z</time>
      </trkpt>
      <trkpt lat="44.32315" lon="3.7472">
        <ele>1200.82</ele>
        <time>2022-08-07T06:43:46Z</time>
      </trkpt>
      <trkpt lat="44.32295" lon="3.7472">
        <ele>1200.82</ele>
        <time>2022-08-07T06:44:04Z</time>
      </trkpt>
      <trkpt lat="44.32283" lon="3.74723">
        <ele>1204.19</ele>
        <time>2022-08-07T06:44:19Z</time>
      </trkpt>
      <trkpt lat="44.32266" lon="3.74721">
        <ele>1209</ele>
        <time>2022-08-07T06:44:35Z</time>
      </trkpt>
      <trkpt lat="44.32254" lon="3.74723">
        <ele>1207.55</ele>
        <time>2022-08-07T06:44:48Z</time>
      </trkpt>
      <trkpt lat="44.32241" lon="3.74729">
        <ele>1210.44</ele>
        <time>2022-08-07T06:45:03Z</time>
      </trkpt>
      <trkpt lat="44.32222" lon="3.7473">
        <ele>1209.48</ele>
        <time>2022-08-07T06:45:20Z</time>
      </trkpt>
      <trkpt lat="44.32207" lon="3.74741">
        <ele>1211.4</ele>
        <time>2022-08-07T06:45:38Z</time>
      </trkpt>
      <trkpt lat="44.32194" lon="3.74747">
        <ele>1210.44</ele>
        <time>2022-08-07T06:45:54Z</time>
      </trkpt>
      <trkpt lat="44.32184" lon="3.74757">
        <ele>1209</ele>
        <time>2022-08-07T06:46:09Z</time>
      </trkpt>
      <trkpt lat="44.32172" lon="3.74771">
        <ele>1207.07</ele>
        <time>2022-08-07T06:46:26Z</time>
      </trkpt>
      <trkpt lat="44.32163" lon="3.74785">
        <ele>1208.51</ele>
        <time>2022-08-07T06:46:40Z</time>
      </trkpt>
      <trkpt lat="44.32155" lon="3.74797">
        <ele>1213.8</ele>
        <time>2022-08-07T06:46:52Z</time>
      </trkpt>
      <trkpt lat="44.32149" lon="3.7481">
        <ele>1216.21</ele>
        <time>2022-08-07T06:47:05Z</time>
      </trkpt>
      <trkpt lat="44.32135" lon="3.74813">
        <ele>1216.21</ele>
        <time>2022-08-07T06:47:21Z</time>
      </trkpt>
      <trkpt lat="44.32124" lon="3.74824">
        <ele>1218.13</ele>
        <time>2022-08-07T06:47:38Z</time>
      </trkpt>
      <trkpt lat="44.3211" lon="3.74835">
        <ele>1221.97</ele>
        <time>2022-08-07T06:47:55Z</time>
      </trkpt>
      <trkpt lat="44.32102" lon="3.74844">
        <ele>1224.38</ele>
        <time>2022-08-07T06:48:10Z</time>
      </trkpt>
      <trkpt lat="44.32093" lon="3.74856">
        <ele>1228.7</ele>
        <time>2022-08-07T06:48:26Z</time>
      </trkpt>
      <trkpt lat="44.32081" lon="3.74872">
        <ele>1234.47</ele>
        <time>2022-08-07T06:48:43Z</time>
      </trkpt>
      <trkpt lat="44.32074" lon="3.74883">
        <ele>1237.35</ele>
        <time>2022-08-07T06:48:58Z</time>
      </trkpt>
      <trkpt lat="44.32069" lon="3.74895">
        <ele>1239.28</ele>
        <time>2022-08-07T06:49:12Z</time>
      </trkpt>
      <trkpt lat="44.32058" lon="3.74907">
        <ele>1242.64</ele>
        <time>2022-08-07T06:49:31Z</time>
      </trkpt>
      <trkpt lat="44.32052" lon="3.74918">
        <ele>1242.64</ele>
        <time>2022-08-07T06:49:43Z</time>
      </trkpt>
      <trkpt lat="44.32046" lon="3.74925">
        <ele>1244.08</ele>
        <time>2022-08-07T06:49:57Z</time>
      </trkpt>
      <trkpt lat="44.32034" lon="3.74927">
        <ele>1246.49</ele>
        <time>2022-08-07T06:50:12Z</time>
      </trkpt>
      <trkpt lat="44.32021" lon="3.74922">
        <ele>1250.33</ele>
        <time>2022-08-07T06:50:29Z</time>
      </trkpt>
      <trkpt lat="44.32009" lon="3.7492">
        <ele>1251.29</ele>
        <time>2022-08-07T06:50:47Z</time>
      </trkpt>
      <trkpt lat="44.32002" lon="3.74916">
        <ele>1254.66</ele>
        <time>2022-08-07T06:51:02Z</time>
      </trkpt>
      <trkpt lat="44.31993" lon="3.74908">
        <ele>1261.39</ele>
        <time>2022-08-07T06:51:18Z</time>
      </trkpt>
      <trkpt lat="44.31979" lon="3.749">
        <ele>1265.71</ele>
        <time>2022-08-07T06:51:37Z</time>
      </trkpt>
      <trkpt lat="44.31976" lon="3.74893">
        <ele>1268.12</ele>
        <time>2022-08-07T06:51:52Z</time>
      </trkpt>
      <trkpt lat="44.31976" lon="3.74892">
        <ele>1268.12</ele>
        <time>2022-08-07T06:51:53Z</time>
      </trkpt>
      <trkpt lat="44.31966" lon="3.7488">
        <ele>1268.6</ele>
        <time>2022-08-07T06:52:08Z</time>
      </trkpt>
      <trkpt lat="44.31951" lon="3.74864">
        <ele>1268.12</ele>
        <time>2022-08-07T06:52:24Z</time>
      </trkpt>
      <trkpt lat="44.31932" lon="3.74852">
        <ele>1268.12</ele>
        <time>2022-08-07T06:52:38Z</time>
      </trkpt>
      <trkpt lat="44.31921" lon="3.74837">
        <ele>1271</ele>
        <time>2022-08-07T06:52:54Z</time>
      </trkpt>
      <trkpt lat="44.31919" lon="3.74824">
        <ele>1272.92</ele>
        <time>2022-08-07T06:53:11Z</time>
      </trkpt>
      <trkpt lat="44.31911" lon="3.74813">
        <ele>1272.44</ele>
        <time>2022-08-07T06:53:26Z</time>
      </trkpt>
      <trkpt lat="44.31902" lon="3.748">
        <ele>1272.44</ele>
        <time>2022-08-07T06:53:44Z</time>
      </trkpt>
      <trkpt lat="44.31891" lon="3.74787">
        <ele>1273.4</ele>
        <time>2022-08-07T06:54:01Z</time>
      </trkpt>
      <trkpt lat="44.31877" lon="3.7477">
        <ele>1275.33</ele>
        <time>2022-08-07T06:54:18Z</time>
      </trkpt>
      <trkpt lat="44.31865" lon="3.74757">
        <ele>1277.73</ele>
        <time>2022-08-07T06:54:34Z</time>
      </trkpt>
      <trkpt lat="44.31855" lon="3.74747">
        <ele>1277.25</ele>
        <time>2022-08-07T06:54:51Z</time>
      </trkpt>
      <trkpt lat="44.31845" lon="3.74736">
        <ele>1279.17</ele>
        <time>2022-08-07T06:55:05Z</time>
      </trkpt>
      <trkpt lat="44.31832" lon="3.74723">
        <ele>1276.77</ele>
        <time>2022-08-07T06:55:23Z</time>
      </trkpt>
      <trkpt lat="44.31818" lon="3.74706">
        <ele>1283.5</ele>
        <time>2022-08-07T06:55:45Z</time>
      </trkpt>
      <trkpt lat="44.31808" lon="3.74697">
        <ele>1286.38</ele>
        <time>2022-08-07T06:56:03Z</time>
      </trkpt>
      <trkpt lat="44.31801" lon="3.74689">
        <ele>1291.67</ele>
        <time>2022-08-07T06:56:19Z</time>
      </trkpt>
      <trkpt lat="44.31788" lon="3.74684">
        <ele>1295.51</ele>
        <time>2022-08-07T06:56:37Z</time>
      </trkpt>
      <trkpt lat="44.31777" lon="3.74679">
        <ele>1297.92</ele>
        <time>2022-08-07T06:56:51Z</time>
      </trkpt>
      <trkpt lat="44.31765" lon="3.74674">
        <ele>1299.36</ele>
        <time>2022-08-07T06:57:09Z</time>
      </trkpt>
      <trkpt lat="44.31756" lon="3.74666">
        <ele>1303.69</ele>
        <time>2022-08-07T06:57:27Z</time>
      </trkpt>
      <trkpt lat="44.31743" lon="3.74653">
        <ele>1305.13</ele>
        <time>2022-08-07T06:57:46Z</time>
      </trkpt>
      <trkpt lat="44.31742" lon="3.7465">
        <ele>1306.57</ele>
        <time>2022-08-07T06:57:51Z</time>
      </trkpt>
      <trkpt lat="44.3173" lon="3.74638">
        <ele>1308.49</ele>
        <time>2022-08-07T06:58:09Z</time>
      </trkpt>
      <trkpt lat="44.31719" lon="3.74622">
        <ele>1310.41</ele>
        <time>2022-08-07T06:58:26Z</time>
      </trkpt>
      <trkpt lat="44.31708" lon="3.74612">
        <ele>1312.34</ele>
        <time>2022-08-07T06:58:41Z</time>
      </trkpt>
      <trkpt lat="44.31695" lon="3.74599">
        <ele>1313.78</ele>
        <time>2022-08-07T06:58:56Z</time>
      </trkpt>
      <trkpt lat="44.31684" lon="3.74589">
        <ele>1314.26</ele>
        <time>2022-08-07T06:59:10Z</time>
      </trkpt>
      <trkpt lat="44.31685" lon="3.74593">
        <ele>1320.03</ele>
        <time>2022-08-07T06:59:32Z</time>
      </trkpt>
      <trkpt lat="44.31683" lon="3.74592">
        <ele>1317.14</ele>
        <time>2022-08-07T06:59:59Z</time>
      </trkpt>
      <trkpt lat="44.31686" lon="3.7458">
        <ele>1317.14</ele>
        <time>2022-08-07T07:00:14Z</time>
      </trkpt>
      <trkpt lat="44.31686" lon="3.74578">
        <ele>1317.14</ele>
        <time>2022-08-07T07:00:16Z</time>
      </trkpt>
      <trkpt lat="44.31688" lon="3.74565">
        <ele>1316.18</ele>
        <time>2022-08-07T07:00:31Z</time>
      </trkpt>
      <trkpt lat="44.31685" lon="3.74549">
        <ele>1317.14</ele>
        <time>2022-08-07T07:00:47Z</time>
      </trkpt>
      <trkpt lat="44.31682" lon="3.74538">
        <ele>1317.62</ele>
        <time>2022-08-07T07:00:55Z</time>
      </trkpt>
      <trkpt lat="44.31679" lon="3.74515">
        <ele>1318.59</ele>
        <time>2022-08-07T07:01:06Z</time>
      </trkpt>
      <trkpt lat="44.31674" lon="3.74493">
        <ele>1321.47</ele>
        <time>2022-08-07T07:01:23Z</time>
      </trkpt>
      <trkpt lat="44.31666" lon="3.74475">
        <ele>1323.39</ele>
        <time>2022-08-07T07:01:37Z</time>
      </trkpt>
      <trkpt lat="44.31657" lon="3.7446">
        <ele>1324.35</ele>
        <time>2022-08-07T07:01:52Z</time>
      </trkpt>
      <trkpt lat="44.31647" lon="3.74443">
        <ele>1325.8</ele>
        <time>2022-08-07T07:02:06Z</time>
      </trkpt>
      <trkpt lat="44.3164" lon="3.74422">
        <ele>1326.76</ele>
        <time>2022-08-07T07:02:22Z</time>
      </trkpt>
      <trkpt lat="44.31633" lon="3.74401">
        <ele>1327.24</ele>
        <time>2022-08-07T07:02:40Z</time>
      </trkpt>
      <trkpt lat="44.31628" lon="3.74382">
        <ele>1327.72</ele>
        <time>2022-08-07T07:02:55Z</time>
      </trkpt>
      <trkpt lat="44.31624" lon="3.74363">
        <ele>1328.2</ele>
        <time>2022-08-07T07:03:10Z</time>
      </trkpt>
      <trkpt lat="44.31617" lon="3.74344">
        <ele>1327.72</ele>
        <time>2022-08-07T07:03:28Z</time>
      </trkpt>
      <trkpt lat="44.31612" lon="3.74322">
        <ele>1330.6</ele>
        <time>2022-08-07T07:03:45Z</time>
      </trkpt>
      <trkpt lat="44.31608" lon="3.743">
        <ele>1331.08</ele>
        <time>2022-08-07T07:04:02Z</time>
      </trkpt>
      <trkpt lat="44.31606" lon="3.74276">
        <ele>1332.52</ele>
        <time>2022-08-07T07:04:20Z</time>
      </trkpt>
      <trkpt lat="44.31603" lon="3.74254">
        <ele>1333.97</ele>
        <time>2022-08-07T07:04:35Z</time>
      </trkpt>
      <trkpt lat="44.31596" lon="3.74228">
        <ele>1334.45</ele>
        <time>2022-08-07T07:04:54Z</time>
      </trkpt>
      <trkpt lat="44.31591" lon="3.74204">
        <ele>1335.41</ele>
        <time>2022-08-07T07:05:12Z</time>
      </trkpt>
      <trkpt lat="44.31581" lon="3.74178">
        <ele>1341.18</ele>
        <time>2022-08-07T07:05:27Z</time>
      </trkpt>
      <trkpt lat="44.31578" lon="3.74162">
        <ele>1343.58</ele>
        <time>2022-08-07T07:05:41Z</time>
      </trkpt>
      <trkpt lat="44.31571" lon="3.74145">
        <ele>1345.5</ele>
        <time>2022-08-07T07:05:55Z</time>
      </trkpt>
      <trkpt lat="44.3156" lon="3.74134">
        <ele>1345.02</ele>
        <time>2022-08-07T07:06:08Z</time>
      </trkpt>
      <trkpt lat="44.31554" lon="3.74119">
        <ele>1344.06</ele>
        <time>2022-08-07T07:06:20Z</time>
      </trkpt>
      <trkpt lat="44.31559" lon="3.74108">
        <ele>1344.06</ele>
        <time>2022-08-07T07:06:33Z</time>
      </trkpt>
      <trkpt lat="44.31561" lon="3.74098">
        <ele>1344.06</ele>
        <time>2022-08-07T07:06:46Z</time>
      </trkpt>
      <trkpt lat="44.31559" lon="3.74084">
        <ele>1344.54</ele>
        <time>2022-08-07T07:07:03Z</time>
      </trkpt>
      <trkpt lat="44.31557" lon="3.7407">
        <ele>1345.98</ele>
        <time>2022-08-07T07:07:20Z</time>
      </trkpt>
      <trkpt lat="44.31556" lon="3.74059">
        <ele>1345.5</ele>
        <time>2022-08-07T07:07:36Z</time>
      </trkpt>
      <trkpt lat="44.31555" lon="3.74049">
        <ele>1344.54</ele>
        <time>2022-08-07T07:07:52Z</time>
      </trkpt>
      <trkpt lat="44.31553" lon="3.74038">
        <ele>1345.98</ele>
        <time>2022-08-07T07:08:11Z</time>
      </trkpt>
      <trkpt lat="44.31551" lon="3.74023">
        <ele>1346.94</ele>
        <time>2022-08-07T07:08:30Z</time>
      </trkpt>
      <trkpt lat="44.31548" lon="3.74009">
        <ele>1348.87</ele>
        <time>2022-08-07T07:08:46Z</time>
      </trkpt>
      <trkpt lat="44.31547" lon="3.73998">
        <ele>1350.79</ele>
        <time>2022-08-07T07:09:04Z</time>
      </trkpt>
      <trkpt lat="44.31544" lon="3.73984">
        <ele>1353.19</ele>
        <time>2022-08-07T07:09:24Z</time>
      </trkpt>
      <trkpt lat="44.31544" lon="3.73973">
        <ele>1357.52</ele>
        <time>2022-08-07T07:09:41Z</time>
      </trkpt>
      <trkpt lat="44.31542" lon="3.73957">
        <ele>1360.4</ele>
        <time>2022-08-07T07:09:58Z</time>
      </trkpt>
      <trkpt lat="44.3154" lon="3.73948">
        <ele>1363.77</ele>
        <time>2022-08-07T07:10:12Z</time>
      </trkpt>
      <trkpt lat="44.31539" lon="3.73935">
        <ele>1368.09</ele>
        <time>2022-08-07T07:10:26Z</time>
      </trkpt>
      <trkpt lat="44.31534" lon="3.73923">
        <ele>1370.98</ele>
        <time>2022-08-07T07:10:42Z</time>
      </trkpt>
      <trkpt lat="44.31533" lon="3.73904">
        <ele>1372.9</ele>
        <time>2022-08-07T07:11:02Z</time>
      </trkpt>
      <trkpt lat="44.3153" lon="3.73888">
        <ele>1374.82</ele>
        <time>2022-08-07T07:11:21Z</time>
      </trkpt>
      <trkpt lat="44.31527" lon="3.7387">
        <ele>1378.19</ele>
        <time>2022-08-07T07:11:40Z</time>
      </trkpt>
      <trkpt lat="44.31524" lon="3.73854">
        <ele>1379.63</ele>
        <time>2022-08-07T07:11:56Z</time>
      </trkpt>
      <trkpt lat="44.31522" lon="3.73838">
        <ele>1382.99</ele>
        <time>2022-08-07T07:12:14Z</time>
      </trkpt>
      <trkpt lat="44.31521" lon="3.73819">
        <ele>1384.44</ele>
        <time>2022-08-07T07:12:32Z</time>
      </trkpt>
      <trkpt lat="44.31518" lon="3.73804">
        <ele>1384.44</ele>
        <time>2022-08-07T07:12:47Z</time>
      </trkpt>
      <trkpt lat="44.31516" lon="3.73789">
        <ele>1385.4</ele>
        <time>2022-08-07T07:13:02Z</time>
      </trkpt>
      <trkpt lat="44.31514" lon="3.73776">
        <ele>1385.88</ele>
        <time>2022-08-07T07:13:16Z</time>
      </trkpt>
      <trkpt lat="44.31513" lon="3.73762">
        <ele>1389.72</ele>
        <time>2022-08-07T07:13:31Z</time>
      </trkpt>
      <trkpt lat="44.31509" lon="3.73748">
        <ele>1394.05</ele>
        <time>2022-08-07T07:13:50Z</time>
      </trkpt>
      <trkpt lat="44.31505" lon="3.7373">
        <ele>1398.86</ele>
        <time>2022-08-07T07:14:06Z</time>
      </trkpt>
      <trkpt lat="44.31503" lon="3.73712">
        <ele>1403.18</ele>
        <time>2022-08-07T07:14:24Z</time>
      </trkpt>
      <trkpt lat="44.315" lon="3.73698">
        <ele>1404.62</ele>
        <time>2022-08-07T07:14:40Z</time>
      </trkpt>
      <trkpt lat="44.315" lon="3.73682">
        <ele>1406.07</ele>
        <time>2022-08-07T07:14:56Z</time>
      </trkpt>
      <trkpt lat="44.31499" lon="3.73671">
        <ele>1406.55</ele>
        <time>2022-08-07T07:15:10Z</time>
      </trkpt>
      <trkpt lat="44.31495" lon="3.73672">
        <ele>1406.55</ele>
        <time>2022-08-07T07:15:15Z</time>
      </trkpt>
      <trkpt lat="44.31487" lon="3.73671">
        <ele>1406.55</ele>
        <time>2022-08-07T07:15:27Z</time>
      </trkpt>
      <trkpt lat="44.31491" lon="3.73671">
        <ele>1405.1</ele>
        <time>2022-08-07T07:15:39Z</time>
      </trkpt>
      <trkpt lat="44.31497" lon="3.7367">
        <ele>1405.1</ele>
        <time>2022-08-07T07:15:57Z</time>
      </trkpt>
      <trkpt lat="44.31504" lon="3.73662">
        <ele>1398.86</ele>
        <time>2022-08-07T07:16:10Z</time>
      </trkpt>
      <trkpt lat="44.31508" lon="3.7366">
        <ele>1396.93</ele>
        <time>2022-08-07T07:16:23Z</time>
      </trkpt>
      <trkpt lat="44.31505" lon="3.73658">
        <ele>1396.45</ele>
        <time>2022-08-07T07:16:41Z</time>
      </trkpt>
      <trkpt lat="44.31508" lon="3.73661">
        <ele>1402.22</ele>
        <time>2022-08-07T07:17:16Z</time>
      </trkpt>
      <trkpt lat="44.31507" lon="3.73658">
        <ele>1409.43</ele>
        <time>2022-08-07T07:17:52Z</time>
      </trkpt>
      <trkpt lat="44.31505" lon="3.73662">
        <ele>1409.91</ele>
        <time>2022-08-07T07:18:29Z</time>
      </trkpt>
      <trkpt lat="44.31509" lon="3.73667">
        <ele>1415.2</ele>
        <time>2022-08-07T07:19:06Z</time>
      </trkpt>
      <trkpt lat="44.31506" lon="3.73661">
        <ele>1414.72</ele>
        <time>2022-08-07T07:19:54Z</time>
      </trkpt>
      <trkpt lat="44.31508" lon="3.73663">
        <ele>1412.79</ele>
        <time>2022-08-07T07:20:27Z</time>
      </trkpt>
      <trkpt lat="44.3151" lon="3.73668">
        <ele>1412.31</ele>
        <time>2022-08-07T07:21:11Z</time>
      </trkpt>
      <trkpt lat="44.31509" lon="3.73667">
        <ele>1412.79</ele>
        <time>2022-08-07T07:22:00Z</time>
      </trkpt>
      <trkpt lat="44.31507" lon="3.73659">
        <ele>1411.83</ele>
        <time>2022-08-07T07:22:52Z</time>
      </trkpt>
      <trkpt lat="44.31507" lon="3.73661">
        <ele>1410.39</ele>
        <time>2022-08-07T07:23:34Z</time>
      </trkpt>
      <trkpt lat="44.31508" lon="3.73659">
        <ele>1405.58</ele>
        <time>2022-08-07T07:24:12Z</time>
      </trkpt>
      <trkpt lat="44.31507" lon="3.73659">
        <ele>1402.7</ele>
        <time>2022-08-07T07:24:52Z</time>
      </trkpt>
      <trkpt lat="44.31505" lon="3.73653">
        <ele>1407.03</ele>
        <time>2022-08-07T07:25:36Z</time>
      </trkpt>
      <trkpt lat="44.31506" lon="3.73658">
        <ele>1400.78</ele>
        <time>2022-08-07T07:26:14Z</time>
      </trkpt>
      <trkpt lat="44.31504" lon="3.73656">
        <ele>1400.78</ele>
        <time>2022-08-07T07:26:54Z</time>
      </trkpt>
      <trkpt lat="44.31506" lon="3.73657">
        <ele>1401.26</ele>
        <time>2022-08-07T07:27:33Z</time>
      </trkpt>
      <trkpt lat="44.31506" lon="3.73659">
        <ele>1399.82</ele>
        <time>2022-08-07T07:28:15Z</time>
      </trkpt>
      <trkpt lat="44.31506" lon="3.73654">
        <ele>1398.37</ele>
        <time>2022-08-07T07:28:26Z</time>
      </trkpt>
      <trkpt lat="44.31505" lon="3.73654">
        <ele>1396.93</ele>
        <time>2022-08-07T07:28:45Z</time>
      </trkpt>
      <trkpt lat="44.31504" lon="3.73658">
        <ele>1398.86</ele>
        <time>2022-08-07T07:29:06Z</time>
      </trkpt>
      <trkpt lat="44.31506" lon="3.73658">
        <ele>1399.82</ele>
        <time>2022-08-07T07:29:24Z</time>
      </trkpt>
      <trkpt lat="44.3151" lon="3.73653">
        <ele>1397.41</ele>
        <time>2022-08-07T07:29:38Z</time>
      </trkpt>
      <trkpt lat="44.31522" lon="3.73644">
        <ele>1391.17</ele>
        <time>2022-08-07T07:29:52Z</time>
      </trkpt>
      <trkpt lat="44.31533" lon="3.73632">
        <ele>1390.2</ele>
        <time>2022-08-07T07:30:07Z</time>
      </trkpt>
      <trkpt lat="44.31541" lon="3.73623">
        <ele>1388.76</ele>
        <time>2022-08-07T07:30:18Z</time>
      </trkpt>
      <trkpt lat="44.31552" lon="3.73612">
        <ele>1390.68</ele>
        <time>2022-08-07T07:30:31Z</time>
      </trkpt>
      <trkpt lat="44.31559" lon="3.736">
        <ele>1390.2</ele>
        <time>2022-08-07T07:30:43Z</time>
      </trkpt>
      <trkpt lat="44.31569" lon="3.7359">
        <ele>1389.24</ele>
        <time>2022-08-07T07:30:57Z</time>
      </trkpt>
      <trkpt lat="44.31577" lon="3.73579">
        <ele>1386.84</ele>
        <time>2022-08-07T07:31:12Z</time>
      </trkpt>
      <trkpt lat="44.31583" lon="3.73571">
        <ele>1385.88</ele>
        <time>2022-08-07T07:31:23Z</time>
      </trkpt>
      <trkpt lat="44.31592" lon="3.73561">
        <ele>1383.47</ele>
        <time>2022-08-07T07:31:38Z</time>
      </trkpt>
      <trkpt lat="44.31603" lon="3.73547">
        <ele>1380.59</ele>
        <time>2022-08-07T07:31:55Z</time>
      </trkpt>
      <trkpt lat="44.31609" lon="3.73536">
        <ele>1379.15</ele>
        <time>2022-08-07T07:32:07Z</time>
      </trkpt>
      <trkpt lat="44.31616" lon="3.73523">
        <ele>1379.15</ele>
        <time>2022-08-07T07:32:19Z</time>
      </trkpt>
      <trkpt lat="44.31627" lon="3.73511">
        <ele>1380.59</ele>
        <time>2022-08-07T07:32:33Z</time>
      </trkpt>
      <trkpt lat="44.31636" lon="3.73497">
        <ele>1377.71</ele>
        <time>2022-08-07T07:32:46Z</time>
      </trkpt>
      <trkpt lat="44.3164" lon="3.73484">
        <ele>1372.9</ele>
        <time>2022-08-07T07:33:00Z</time>
      </trkpt>
      <trkpt lat="44.31645" lon="3.73463">
        <ele>1370.02</ele>
        <time>2022-08-07T07:33:15Z</time>
      </trkpt>
      <trkpt lat="44.31643" lon="3.73455">
        <ele>1369.54</ele>
        <time>2022-08-07T07:33:29Z</time>
      </trkpt>
      <trkpt lat="44.31642" lon="3.73453">
        <ele>1370.5</ele>
        <time>2022-08-07T07:33:52Z</time>
      </trkpt>
      <trkpt lat="44.31646" lon="3.73439">
        <ele>1370.98</ele>
        <time>2022-08-07T07:34:05Z</time>
      </trkpt>
      <trkpt lat="44.31649" lon="3.73419">
        <ele>1370.5</ele>
        <time>2022-08-07T07:34:19Z</time>
      </trkpt>
      <trkpt lat="44.3165" lon="3.73411">
        <ele>1370.5</ele>
        <time>2022-08-07T07:34:25Z</time>
      </trkpt>
      <trkpt lat="44.31655" lon="3.73386">
        <ele>1370.02</ele>
        <time>2022-08-07T07:34:42Z</time>
      </trkpt>
      <trkpt lat="44.31658" lon="3.73365">
        <ele>1370.02</ele>
        <time>2022-08-07T07:34:57Z</time>
      </trkpt>
      <trkpt lat="44.31661" lon="3.7334">
        <ele>1369.05</ele>
        <time>2022-08-07T07:35:13Z</time>
      </trkpt>
      <trkpt lat="44.31664" lon="3.73316">
        <ele>1369.05</ele>
        <time>2022-08-07T07:35:29Z</time>
      </trkpt>
      <trkpt lat="44.31667" lon="3.73297">
        <ele>1368.57</ele>
        <time>2022-08-07T07:35:41Z</time>
      </trkpt>
      <trkpt lat="44.31668" lon="3.73295">
        <ele>1368.57</ele>
        <time>2022-08-07T07:35:43Z</time>
      </trkpt>
      <trkpt lat="44.3167" lon="3.7328">
        <ele>1370.02</ele>
        <time>2022-08-07T07:35:53Z</time>
      </trkpt>
      <trkpt lat="44.31673" lon="3.73257">
        <ele>1371.46</ele>
        <time>2022-08-07T07:36:09Z</time>
      </trkpt>
      <trkpt lat="44.31677" lon="3.73235">
        <ele>1370.98</ele>
        <time>2022-08-07T07:36:24Z</time>
      </trkpt>
      <trkpt lat="44.3168" lon="3.73211">
        <ele>1372.42</ele>
        <time>2022-08-07T07:36:40Z</time>
      </trkpt>
      <trkpt lat="44.31684" lon="3.73189">
        <ele>1373.38</ele>
        <time>2022-08-07T07:36:55Z</time>
      </trkpt>
      <trkpt lat="44.31689" lon="3.73166">
        <ele>1374.34</ele>
        <time>2022-08-07T07:37:11Z</time>
      </trkpt>
      <trkpt lat="44.31692" lon="3.73142">
        <ele>1375.3</ele>
        <time>2022-08-07T07:37:27Z</time>
      </trkpt>
      <trkpt lat="44.31694" lon="3.73119">
        <ele>1376.26</ele>
        <time>2022-08-07T07:37:43Z</time>
      </trkpt>
      <trkpt lat="44.31689" lon="3.73097">
        <ele>1376.75</ele>
        <time>2022-08-07T07:37:57Z</time>
      </trkpt>
      <trkpt lat="44.31687" lon="3.73088">
        <ele>1376.75</ele>
        <time>2022-08-07T07:38:03Z</time>
      </trkpt>
      <trkpt lat="44.3169" lon="3.73063">
        <ele>1377.23</ele>
        <time>2022-08-07T07:38:22Z</time>
      </trkpt>
      <trkpt lat="44.31692" lon="3.73045">
        <ele>1378.67</ele>
        <time>2022-08-07T07:38:39Z</time>
      </trkpt>
      <trkpt lat="44.31694" lon="3.73028">
        <ele>1380.59</ele>
        <time>2022-08-07T07:38:56Z</time>
      </trkpt>
      <trkpt lat="44.31696" lon="3.73014">
        <ele>1382.03</ele>
        <time>2022-08-07T07:39:14Z</time>
      </trkpt>
      <trkpt lat="44.317" lon="3.73001">
        <ele>1384.44</ele>
        <time>2022-08-07T07:39:34Z</time>
      </trkpt>
      <trkpt lat="44.31703" lon="3.72989">
        <ele>1386.36</ele>
        <time>2022-08-07T07:39:51Z</time>
      </trkpt>
      <trkpt lat="44.31706" lon="3.72976">
        <ele>1388.76</ele>
        <time>2022-08-07T07:40:08Z</time>
      </trkpt>
      <trkpt lat="44.31709" lon="3.72959">
        <ele>1390.68</ele>
        <time>2022-08-07T07:40:25Z</time>
      </trkpt>
      <trkpt lat="44.31711" lon="3.72953">
        <ele>1392.13</ele>
        <time>2022-08-07T07:40:32Z</time>
      </trkpt>
      <trkpt lat="44.31714" lon="3.72936">
        <ele>1395.01</ele>
        <time>2022-08-07T07:40:49Z</time>
      </trkpt>
      <trkpt lat="44.3172" lon="3.72918">
        <ele>1396.45</ele>
        <time>2022-08-07T07:41:07Z</time>
      </trkpt>
      <trkpt lat="44.31726" lon="3.72901">
        <ele>1398.37</ele>
        <time>2022-08-07T07:41:24Z</time>
      </trkpt>
      <trkpt lat="44.31731" lon="3.72886">
        <ele>1399.82</ele>
        <time>2022-08-07T07:41:39Z</time>
      </trkpt>
      <trkpt lat="44.31738" lon="3.72868">
        <ele>1401.74</ele>
        <time>2022-08-07T07:41:57Z</time>
      </trkpt>
      <trkpt lat="44.31744" lon="3.72852">
        <ele>1404.14</ele>
        <time>2022-08-07T07:42:12Z</time>
      </trkpt>
      <trkpt lat="44.31749" lon="3.72835">
        <ele>1405.1</ele>
        <time>2022-08-07T07:42:27Z</time>
      </trkpt>
      <trkpt lat="44.31754" lon="3.72812">
        <ele>1406.55</ele>
        <time>2022-08-07T07:42:47Z</time>
      </trkpt>
      <trkpt lat="44.31757" lon="3.72789">
        <ele>1407.51</ele>
        <time>2022-08-07T07:43:06Z</time>
      </trkpt>
      <trkpt lat="44.31755" lon="3.7278">
        <ele>1407.99</ele>
        <time>2022-08-07T07:43:14Z</time>
      </trkpt>
      <trkpt lat="44.31743" lon="3.72771">
        <ele>1410.87</ele>
        <time>2022-08-07T07:43:30Z</time>
      </trkpt>
      <trkpt lat="44.31734" lon="3.72761">
        <ele>1413.76</ele>
        <time>2022-08-07T07:43:46Z</time>
      </trkpt>
      <trkpt lat="44.31731" lon="3.72758">
        <ele>1414.24</ele>
        <time>2022-08-07T07:43:50Z</time>
      </trkpt>
      <trkpt lat="44.31722" lon="3.72752">
        <ele>1415.2</ele>
        <time>2022-08-07T07:44:04Z</time>
      </trkpt>
      <trkpt lat="44.31716" lon="3.72752">
        <ele>1417.12</ele>
        <time>2022-08-07T07:44:16Z</time>
      </trkpt>
      <trkpt lat="44.31713" lon="3.72754">
        <ele>1417.12</ele>
        <time>2022-08-07T07:44:32Z</time>
      </trkpt>
      <trkpt lat="44.31715" lon="3.72755">
        <ele>1418.56</ele>
        <time>2022-08-07T07:45:01Z</time>
      </trkpt>
      <trkpt lat="44.31715" lon="3.72753">
        <ele>1419.04</ele>
        <time>2022-08-07T07:45:19Z</time>
      </trkpt>
      <trkpt lat="44.31714" lon="3.72755">
        <ele>1419.52</ele>
        <time>2022-08-07T07:45:39Z</time>
      </trkpt>
      <trkpt lat="44.31715" lon="3.72753">
        <ele>1422.41</ele>
        <time>2022-08-07T07:46:02Z</time>
      </trkpt>
      <trkpt lat="44.3172" lon="3.72751">
        <ele>1422.41</ele>
        <time>2022-08-07T07:46:16Z</time>
      </trkpt>
      <trkpt lat="44.31721" lon="3.7275">
        <ele>1423.37</ele>
        <time>2022-08-07T07:46:29Z</time>
      </trkpt>
      <trkpt lat="44.3172" lon="3.72752">
        <ele>1422.89</ele>
        <time>2022-08-07T07:46:40Z</time>
      </trkpt>
      <trkpt lat="44.31719" lon="3.72746">
        <ele>1421.45</ele>
        <time>2022-08-07T07:46:54Z</time>
      </trkpt>
      <trkpt lat="44.31719" lon="3.72747">
        <ele>1421.93</ele>
        <time>2022-08-07T07:47:13Z</time>
      </trkpt>
      <trkpt lat="44.31721" lon="3.7275">
        <ele>1421.93</ele>
        <time>2022-08-07T07:47:25Z</time>
      </trkpt>
      <trkpt lat="44.3172" lon="3.72748">
        <ele>1421.93</ele>
        <time>2022-08-07T07:47:45Z</time>
      </trkpt>
      <trkpt lat="44.31721" lon="3.72747">
        <ele>1423.37</ele>
        <time>2022-08-07T07:48:05Z</time>
      </trkpt>
      <trkpt lat="44.31726" lon="3.72739">
        <ele>1423.37</ele>
        <time>2022-08-07T07:48:23Z</time>
      </trkpt>
      <trkpt lat="44.31728" lon="3.72729">
        <ele>1421.93</ele>
        <time>2022-08-07T07:48:35Z</time>
      </trkpt>
      <trkpt lat="44.31728" lon="3.72726">
        <ele>1422.41</ele>
        <time>2022-08-07T07:48:37Z</time>
      </trkpt>
      <trkpt lat="44.31728" lon="3.72723">
        <ele>1422.41</ele>
        <time>2022-08-07T07:48:40Z</time>
      </trkpt>
      <trkpt lat="44.31729" lon="3.72712">
        <ele>1421.45</ele>
        <time>2022-08-07T07:48:53Z</time>
      </trkpt>
      <trkpt lat="44.3173" lon="3.72695">
        <ele>1421.93</ele>
        <time>2022-08-07T07:49:07Z</time>
      </trkpt>
      <trkpt lat="44.31731" lon="3.72672">
        <ele>1420.97</ele>
        <time>2022-08-07T07:49:25Z</time>
      </trkpt>
      <trkpt lat="44.31731" lon="3.72653">
        <ele>1420.97</ele>
        <time>2022-08-07T07:49:39Z</time>
      </trkpt>
      <trkpt lat="44.31729" lon="3.7263">
        <ele>1421.45</ele>
        <time>2022-08-07T07:49:55Z</time>
      </trkpt>
      <trkpt lat="44.3173" lon="3.72609">
        <ele>1420.49</ele>
        <time>2022-08-07T07:50:12Z</time>
      </trkpt>
      <trkpt lat="44.31736" lon="3.72598">
        <ele>1420.97</ele>
        <time>2022-08-07T07:50:27Z</time>
      </trkpt>
      <trkpt lat="44.31735" lon="3.72597">
        <ele>1420.97</ele>
        <time>2022-08-07T07:50:47Z</time>
      </trkpt>
      <trkpt lat="44.31734" lon="3.72586">
        <ele>1420.49</ele>
        <time>2022-08-07T07:50:55Z</time>
      </trkpt>
      <trkpt lat="44.31733" lon="3.72562">
        <ele>1418.56</ele>
        <time>2022-08-07T07:51:11Z</time>
      </trkpt>
      <trkpt lat="44.31731" lon="3.72553">
        <ele>1418.08</ele>
        <time>2022-08-07T07:51:17Z</time>
      </trkpt>
      <trkpt lat="44.31728" lon="3.72529">
        <ele>1416.16</ele>
        <time>2022-08-07T07:51:33Z</time>
      </trkpt>
      <trkpt lat="44.31726" lon="3.72509">
        <ele>1413.76</ele>
        <time>2022-08-07T07:51:47Z</time>
      </trkpt>
      <trkpt lat="44.31721" lon="3.72492">
        <ele>1410.87</ele>
        <time>2022-08-07T07:52:01Z</time>
      </trkpt>
      <trkpt lat="44.31721" lon="3.72489">
        <ele>1410.39</ele>
        <time>2022-08-07T07:52:03Z</time>
      </trkpt>
      <trkpt lat="44.31713" lon="3.72463">
        <ele>1410.87</ele>
        <time>2022-08-07T07:52:20Z</time>
      </trkpt>
      <trkpt lat="44.31708" lon="3.7244">
        <ele>1409.43</ele>
        <time>2022-08-07T07:52:36Z</time>
      </trkpt>
      <trkpt lat="44.31704" lon="3.72417">
        <ele>1406.55</ele>
        <time>2022-08-07T07:52:52Z</time>
      </trkpt>
      <trkpt lat="44.31698" lon="3.72395">
        <ele>1404.62</ele>
        <time>2022-08-07T07:53:06Z</time>
      </trkpt>
      <trkpt lat="44.31693" lon="3.72375">
        <ele>1402.22</ele>
        <time>2022-08-07T07:53:20Z</time>
      </trkpt>
      <trkpt lat="44.31688" lon="3.72354">
        <ele>1400.78</ele>
        <time>2022-08-07T07:53:34Z</time>
      </trkpt>
      <trkpt lat="44.31684" lon="3.72332">
        <ele>1398.86</ele>
        <time>2022-08-07T07:53:49Z</time>
      </trkpt>
      <trkpt lat="44.31676" lon="3.72312">
        <ele>1399.34</ele>
        <time>2022-08-07T07:54:04Z</time>
      </trkpt>
      <trkpt lat="44.31671" lon="3.72289">
        <ele>1399.82</ele>
        <time>2022-08-07T07:54:18Z</time>
      </trkpt>
      <trkpt lat="44.31671" lon="3.72271">
        <ele>1398.37</ele>
        <time>2022-08-07T07:54:30Z</time>
      </trkpt>
      <trkpt lat="44.31669" lon="3.7225">
        <ele>1396.93</ele>
        <time>2022-08-07T07:54:45Z</time>
      </trkpt>
      <trkpt lat="44.31668" lon="3.72226">
        <ele>1394.05</ele>
        <time>2022-08-07T07:55:02Z</time>
      </trkpt>
      <trkpt lat="44.31666" lon="3.72203">
        <ele>1389.72</ele>
        <time>2022-08-07T07:55:18Z</time>
      </trkpt>
      <trkpt lat="44.31664" lon="3.72183">
        <ele>1385.4</ele>
        <time>2022-08-07T07:55:33Z</time>
      </trkpt>
      <trkpt lat="44.31665" lon="3.72164">
        <ele>1382.51</ele>
        <time>2022-08-07T07:55:46Z</time>
      </trkpt>
      <trkpt lat="44.31667" lon="3.72143">
        <ele>1379.15</ele>
        <time>2022-08-07T07:56:02Z</time>
      </trkpt>
      <trkpt lat="44.31668" lon="3.7212">
        <ele>1378.67</ele>
        <time>2022-08-07T07:56:16Z</time>
      </trkpt>
      <trkpt lat="44.31669" lon="3.72112">
        <ele>1379.15</ele>
        <time>2022-08-07T07:56:21Z</time>
      </trkpt>
      <trkpt lat="44.31669" lon="3.72097">
        <ele>1378.19</ele>
        <time>2022-08-07T07:56:31Z</time>
      </trkpt>
      <trkpt lat="44.3167" lon="3.7208">
        <ele>1377.71</ele>
        <time>2022-08-07T07:56:42Z</time>
      </trkpt>
      <trkpt lat="44.3167" lon="3.72074">
        <ele>1378.19</ele>
        <time>2022-08-07T07:56:45Z</time>
      </trkpt>
      <trkpt lat="44.31672" lon="3.72057">
        <ele>1379.15</ele>
        <time>2022-08-07T07:56:56Z</time>
      </trkpt>
      <trkpt lat="44.31675" lon="3.72053">
        <ele>1378.67</ele>
        <time>2022-08-07T07:56:59Z</time>
      </trkpt>
      <trkpt lat="44.3168" lon="3.72034">
        <ele>1377.23</ele>
        <time>2022-08-07T07:57:14Z</time>
      </trkpt>
      <trkpt lat="44.31689" lon="3.72017">
        <ele>1377.71</ele>
        <time>2022-08-07T07:57:28Z</time>
      </trkpt>
      <trkpt lat="44.31698" lon="3.71996">
        <ele>1375.3</ele>
        <time>2022-08-07T07:57:44Z</time>
      </trkpt>
      <trkpt lat="44.31708" lon="3.71984">
        <ele>1372.42</ele>
        <time>2022-08-07T07:57:56Z</time>
      </trkpt>
      <trkpt lat="44.31718" lon="3.71964">
        <ele>1371.46</ele>
        <time>2022-08-07T07:58:13Z</time>
      </trkpt>
      <trkpt lat="44.31723" lon="3.71951">
        <ele>1368.57</ele>
        <time>2022-08-07T07:58:25Z</time>
      </trkpt>
      <trkpt lat="44.31733" lon="3.71936">
        <ele>1366.65</ele>
        <time>2022-08-07T07:58:41Z</time>
      </trkpt>
      <trkpt lat="44.31736" lon="3.71929">
        <ele>1365.69</ele>
        <time>2022-08-07T07:58:48Z</time>
      </trkpt>
      <trkpt lat="44.31738" lon="3.71927">
        <ele>1365.21</ele>
        <time>2022-08-07T07:58:50Z</time>
      </trkpt>
      <trkpt lat="44.31739" lon="3.71924">
        <ele>1365.21</ele>
        <time>2022-08-07T07:58:52Z</time>
      </trkpt>
      <trkpt lat="44.31747" lon="3.71906">
        <ele>1364.25</ele>
        <time>2022-08-07T07:59:08Z</time>
      </trkpt>
      <trkpt lat="44.31758" lon="3.71892">
        <ele>1363.29</ele>
        <time>2022-08-07T07:59:23Z</time>
      </trkpt>
      <trkpt lat="44.31764" lon="3.7188">
        <ele>1359.92</ele>
        <time>2022-08-07T07:59:38Z</time>
      </trkpt>
      <trkpt lat="44.31771" lon="3.71868">
        <ele>1357.04</ele>
        <time>2022-08-07T07:59:51Z</time>
      </trkpt>
      <trkpt lat="44.31775" lon="3.7186">
        <ele>1353.67</ele>
        <time>2022-08-07T08:00:03Z</time>
      </trkpt>
      <trkpt lat="44.31783" lon="3.7185">
        <ele>1349.35</ele>
        <time>2022-08-07T08:00:17Z</time>
      </trkpt>
      <trkpt lat="44.31791" lon="3.7184">
        <ele>1345.5</ele>
        <time>2022-08-07T08:00:31Z</time>
      </trkpt>
      <trkpt lat="44.31799" lon="3.71827">
        <ele>1340.22</ele>
        <time>2022-08-07T08:00:46Z</time>
      </trkpt>
      <trkpt lat="44.31807" lon="3.7181">
        <ele>1338.29</ele>
        <time>2022-08-07T08:01:00Z</time>
      </trkpt>
      <trkpt lat="44.31818" lon="3.71798">
        <ele>1335.89</ele>
        <time>2022-08-07T08:01:16Z</time>
      </trkpt>
      <trkpt lat="44.31827" lon="3.7179">
        <ele>1334.45</ele>
        <time>2022-08-07T08:01:31Z</time>
      </trkpt>
      <trkpt lat="44.31838" lon="3.71775">
        <ele>1332.52</ele>
        <time>2022-08-07T08:01:49Z</time>
      </trkpt>
      <trkpt lat="44.31847" lon="3.71769">
        <ele>1329.16</ele>
        <time>2022-08-07T08:02:04Z</time>
      </trkpt>
      <trkpt lat="44.31858" lon="3.71759">
        <ele>1326.76</ele>
        <time>2022-08-07T08:02:20Z</time>
      </trkpt>
      <trkpt lat="44.31867" lon="3.71751">
        <ele>1325.8</ele>
        <time>2022-08-07T08:02:33Z</time>
      </trkpt>
      <trkpt lat="44.31874" lon="3.71741">
        <ele>1324.35</ele>
        <time>2022-08-07T08:02:47Z</time>
      </trkpt>
      <trkpt lat="44.31884" lon="3.71731">
        <ele>1322.43</ele>
        <time>2022-08-07T08:03:04Z</time>
      </trkpt>
      <trkpt lat="44.31894" lon="3.71722">
        <ele>1320.99</ele>
        <time>2022-08-07T08:03:18Z</time>
      </trkpt>
      <trkpt lat="44.31903" lon="3.71716">
        <ele>1319.07</ele>
        <time>2022-08-07T08:03:31Z</time>
      </trkpt>
      <trkpt lat="44.31913" lon="3.71704">
        <ele>1315.7</ele>
        <time>2022-08-07T08:03:48Z</time>
      </trkpt>
      <trkpt lat="44.31923" lon="3.71694">
        <ele>1313.3</ele>
        <time>2022-08-07T08:04:03Z</time>
      </trkpt>
      <trkpt lat="44.31933" lon="3.71685">
        <ele>1311.38</ele>
        <time>2022-08-07T08:04:18Z</time>
      </trkpt>
      <trkpt lat="44.31941" lon="3.71677">
        <ele>1309.93</ele>
        <time>2022-08-07T08:04:31Z</time>
      </trkpt>
      <trkpt lat="44.31952" lon="3.71666">
        <ele>1305.61</ele>
        <time>2022-08-07T08:04:47Z</time>
      </trkpt>
      <trkpt lat="44.31964" lon="3.71658">
        <ele>1302.72</ele>
        <time>2022-08-07T08:05:02Z</time>
      </trkpt>
      <trkpt lat="44.31976" lon="3.71647">
        <ele>1299.36</ele>
        <time>2022-08-07T08:05:19Z</time>
      </trkpt>
      <trkpt lat="44.31987" lon="3.71635">
        <ele>1297.44</ele>
        <time>2022-08-07T08:05:35Z</time>
      </trkpt>
      <trkpt lat="44.31992" lon="3.71621">
        <ele>1291.67</ele>
        <time>2022-08-07T08:05:50Z</time>
      </trkpt>
      <trkpt lat="44.31988" lon="3.71615">
        <ele>1286.86</ele>
        <time>2022-08-07T08:06:07Z</time>
      </trkpt>
      <trkpt lat="44.31982" lon="3.71605">
        <ele>1287.34</ele>
        <time>2022-08-07T08:06:42Z</time>
      </trkpt>
      <trkpt lat="44.31982" lon="3.71596">
        <ele>1291.67</ele>
        <time>2022-08-07T08:07:00Z</time>
      </trkpt>
      <trkpt lat="44.31975" lon="3.71588">
        <ele>1290.71</ele>
        <time>2022-08-07T08:07:15Z</time>
      </trkpt>
      <trkpt lat="44.31968" lon="3.71576">
        <ele>1290.23</ele>
        <time>2022-08-07T08:07:31Z</time>
      </trkpt>
      <trkpt lat="44.31957" lon="3.71562">
        <ele>1291.19</ele>
        <time>2022-08-07T08:07:44Z</time>
      </trkpt>
      <trkpt lat="44.31949" lon="3.71551">
        <ele>1291.67</ele>
        <time>2022-08-07T08:07:54Z</time>
      </trkpt>
      <trkpt lat="44.31939" lon="3.71533">
        <ele>1292.63</ele>
        <time>2022-08-07T08:08:08Z</time>
      </trkpt>
      <trkpt lat="44.31929" lon="3.7151">
        <ele>1291.19</ele>
        <time>2022-08-07T08:08:24Z</time>
      </trkpt>
      <trkpt lat="44.3192" lon="3.71495">
        <ele>1286.86</ele>
        <time>2022-08-07T08:08:38Z</time>
      </trkpt>
      <trkpt lat="44.31915" lon="3.71472">
        <ele>1284.46</ele>
        <time>2022-08-07T08:08:54Z</time>
      </trkpt>
      <trkpt lat="44.31914" lon="3.71447">
        <ele>1279.17</ele>
        <time>2022-08-07T08:09:10Z</time>
      </trkpt>
      <trkpt lat="44.31912" lon="3.7143">
        <ele>1274.85</ele>
        <time>2022-08-07T08:09:24Z</time>
      </trkpt>
      <trkpt lat="44.31905" lon="3.7142">
        <ele>1273.4</ele>
        <time>2022-08-07T08:09:35Z</time>
      </trkpt>
      <trkpt lat="44.319" lon="3.71404">
        <ele>1271.96</ele>
        <time>2022-08-07T08:09:49Z</time>
      </trkpt>
      <trkpt lat="44.31898" lon="3.71381">
        <ele>1268.6</ele>
        <time>2022-08-07T08:10:04Z</time>
      </trkpt>
      <trkpt lat="44.31888" lon="3.71358">
        <ele>1266.67</ele>
        <time>2022-08-07T08:10:21Z</time>
      </trkpt>
      <trkpt lat="44.31885" lon="3.71341">
        <ele>1261.87</ele>
        <time>2022-08-07T08:10:34Z</time>
      </trkpt>
      <trkpt lat="44.31883" lon="3.71322">
        <ele>1259.46</ele>
        <time>2022-08-07T08:10:49Z</time>
      </trkpt>
      <trkpt lat="44.31879" lon="3.71305">
        <ele>1258.5</ele>
        <time>2022-08-07T08:11:01Z</time>
      </trkpt>
      <trkpt lat="44.31878" lon="3.71296">
        <ele>1258.98</ele>
        <time>2022-08-07T08:11:07Z</time>
      </trkpt>
      <trkpt lat="44.31874" lon="3.71272">
        <ele>1257.06</ele>
        <time>2022-08-07T08:11:23Z</time>
      </trkpt>
      <trkpt lat="44.31874" lon="3.71256">
        <ele>1254.18</ele>
        <time>2022-08-07T08:11:38Z</time>
      </trkpt>
      <trkpt lat="44.31875" lon="3.71237">
        <ele>1249.37</ele>
        <time>2022-08-07T08:11:53Z</time>
      </trkpt>
      <trkpt lat="44.31874" lon="3.71219">
        <ele>1246.01</ele>
        <time>2022-08-07T08:12:07Z</time>
      </trkpt>
      <trkpt lat="44.3187" lon="3.71203">
        <ele>1245.04</ele>
        <time>2022-08-07T08:12:20Z</time>
      </trkpt>
      <trkpt lat="44.31866" lon="3.71186">
        <ele>1241.68</ele>
        <time>2022-08-07T08:12:34Z</time>
      </trkpt>
      <trkpt lat="44.31858" lon="3.71169">
        <ele>1239.28</ele>
        <time>2022-08-07T08:12:50Z</time>
      </trkpt>
      <trkpt lat="44.31863" lon="3.71151">
        <ele>1235.43</ele>
        <time>2022-08-07T08:13:07Z</time>
      </trkpt>
      <trkpt lat="44.31867" lon="3.71136">
        <ele>1232.07</ele>
        <time>2022-08-07T08:13:22Z</time>
      </trkpt>
      <trkpt lat="44.3187" lon="3.71119">
        <ele>1228.7</ele>
        <time>2022-08-07T08:13:37Z</time>
      </trkpt>
      <trkpt lat="44.31871" lon="3.71106">
        <ele>1227.74</ele>
        <time>2022-08-07T08:13:50Z</time>
      </trkpt>
      <trkpt lat="44.31867" lon="3.71099">
        <ele>1230.14</ele>
        <time>2022-08-07T08:14:03Z</time>
      </trkpt>
      <trkpt lat="44.31864" lon="3.71098">
        <ele>1230.14</ele>
        <time>2022-08-07T08:14:20Z</time>
      </trkpt>
      <trkpt lat="44.31866" lon="3.71094">
        <ele>1228.22</ele>
        <time>2022-08-07T08:14:34Z</time>
      </trkpt>
      <trkpt lat="44.31874" lon="3.71073">
        <ele>1223.9</ele>
        <time>2022-08-07T08:14:52Z</time>
      </trkpt>
      <trkpt lat="44.31882" lon="3.71055">
        <ele>1220.53</ele>
        <time>2022-08-07T08:15:08Z</time>
      </trkpt>
      <trkpt lat="44.31888" lon="3.71041">
        <ele>1219.57</ele>
        <time>2022-08-07T08:15:20Z</time>
      </trkpt>
      <trkpt lat="44.31895" lon="3.71025">
        <ele>1218.13</ele>
        <time>2022-08-07T08:15:33Z</time>
      </trkpt>
      <trkpt lat="44.31903" lon="3.71006">
        <ele>1216.21</ele>
        <time>2022-08-07T08:15:49Z</time>
      </trkpt>
      <trkpt lat="44.31905" lon="3.71001">
        <ele>1215.24</ele>
        <time>2022-08-07T08:15:53Z</time>
      </trkpt>
      <trkpt lat="44.31913" lon="3.70987">
        <ele>1212.84</ele>
        <time>2022-08-07T08:16:07Z</time>
      </trkpt>
      <trkpt lat="44.31921" lon="3.70968">
        <ele>1209.48</ele>
        <time>2022-08-07T08:16:24Z</time>
      </trkpt>
      <trkpt lat="44.3193" lon="3.70948">
        <ele>1207.07</ele>
        <time>2022-08-07T08:16:40Z</time>
      </trkpt>
      <trkpt lat="44.31939" lon="3.70932">
        <ele>1206.11</ele>
        <time>2022-08-07T08:16:55Z</time>
      </trkpt>
      <trkpt lat="44.31947" lon="3.70914">
        <ele>1205.63</ele>
        <time>2022-08-07T08:17:10Z</time>
      </trkpt>
      <trkpt lat="44.31949" lon="3.70909">
        <ele>1204.67</ele>
        <time>2022-08-07T08:17:14Z</time>
      </trkpt>
      <trkpt lat="44.31956" lon="3.70893">
        <ele>1203.23</ele>
        <time>2022-08-07T08:17:28Z</time>
      </trkpt>
      <trkpt lat="44.31958" lon="3.70887">
        <ele>1202.75</ele>
        <time>2022-08-07T08:17:32Z</time>
      </trkpt>
      <trkpt lat="44.31959" lon="3.70884">
        <ele>1202.27</ele>
        <time>2022-08-07T08:17:35Z</time>
      </trkpt>
      <trkpt lat="44.31967" lon="3.70865">
        <ele>1200.34</ele>
        <time>2022-08-07T08:17:50Z</time>
      </trkpt>
      <trkpt lat="44.31972" lon="3.70858">
        <ele>1200.34</ele>
        <time>2022-08-07T08:17:56Z</time>
      </trkpt>
      <trkpt lat="44.31985" lon="3.70851">
        <ele>1199.86</ele>
        <time>2022-08-07T08:18:10Z</time>
      </trkpt>
      <trkpt lat="44.31986" lon="3.7085">
        <ele>1199.86</ele>
        <time>2022-08-07T08:18:11Z</time>
      </trkpt>
      <trkpt lat="44.32001" lon="3.70845">
        <ele>1200.34</ele>
        <time>2022-08-07T08:18:25Z</time>
      </trkpt>
      <trkpt lat="44.32014" lon="3.70832">
        <ele>1198.9</ele>
        <time>2022-08-07T08:18:38Z</time>
      </trkpt>
      <trkpt lat="44.32026" lon="3.70813">
        <ele>1199.86</ele>
        <time>2022-08-07T08:18:54Z</time>
      </trkpt>
      <trkpt lat="44.3204" lon="3.70802">
        <ele>1197.46</ele>
        <time>2022-08-07T08:19:09Z</time>
      </trkpt>
      <trkpt lat="44.32043" lon="3.70798">
        <ele>1196.98</ele>
        <time>2022-08-07T08:19:14Z</time>
      </trkpt>
      <trkpt lat="44.32053" lon="3.70779">
        <ele>1193.13</ele>
        <time>2022-08-07T08:19:30Z</time>
      </trkpt>
      <trkpt lat="44.3206" lon="3.70761">
        <ele>1192.17</ele>
        <time>2022-08-07T08:19:43Z</time>
      </trkpt>
      <trkpt lat="44.32064" lon="3.7075">
        <ele>1192.17</ele>
        <time>2022-08-07T08:19:50Z</time>
      </trkpt>
      <trkpt lat="44.32068" lon="3.70732">
        <ele>1189.77</ele>
        <time>2022-08-07T08:20:04Z</time>
      </trkpt>
      <trkpt lat="44.32073" lon="3.70718">
        <ele>1187.85</ele>
        <time>2022-08-07T08:20:16Z</time>
      </trkpt>
      <trkpt lat="44.32083" lon="3.707">
        <ele>1185.44</ele>
        <time>2022-08-07T08:20:32Z</time>
      </trkpt>
      <trkpt lat="44.32095" lon="3.70688">
        <ele>1186.4</ele>
        <time>2022-08-07T08:20:46Z</time>
      </trkpt>
      <trkpt lat="44.32099" lon="3.70682">
        <ele>1188.33</ele>
        <time>2022-08-07T08:21:00Z</time>
      </trkpt>
      <trkpt lat="44.32096" lon="3.70687">
        <ele>1188.81</ele>
        <time>2022-08-07T08:21:12Z</time>
      </trkpt>
      <trkpt lat="44.32092" lon="3.7069">
        <ele>1188.33</ele>
        <time>2022-08-07T08:21:27Z</time>
      </trkpt>
      <trkpt lat="44.32095" lon="3.70691">
        <ele>1188.81</ele>
        <time>2022-08-07T08:21:42Z</time>
      </trkpt>
      <trkpt lat="44.32097" lon="3.70691">
        <ele>1188.33</ele>
        <time>2022-08-07T08:21:59Z</time>
      </trkpt>
      <trkpt lat="44.32097" lon="3.70695">
        <ele>1188.81</ele>
        <time>2022-08-07T08:22:34Z</time>
      </trkpt>
      <trkpt lat="44.32099" lon="3.70688">
        <ele>1187.37</ele>
        <time>2022-08-07T08:22:54Z</time>
      </trkpt>
      <trkpt lat="44.32097" lon="3.70684">
        <ele>1186.4</ele>
        <time>2022-08-07T08:23:07Z</time>
      </trkpt>
      <trkpt lat="44.32097" lon="3.70682">
        <ele>1187.85</ele>
        <time>2022-08-07T08:23:20Z</time>
      </trkpt>
      <trkpt lat="44.32098" lon="3.70678">
        <ele>1188.33</ele>
        <time>2022-08-07T08:23:35Z</time>
      </trkpt>
      <trkpt lat="44.32106" lon="3.70669">
        <ele>1187.37</ele>
        <time>2022-08-07T08:23:50Z</time>
      </trkpt>
      <trkpt lat="44.3211" lon="3.70658">
        <ele>1187.37</ele>
        <time>2022-08-07T08:24:02Z</time>
      </trkpt>
      <trkpt lat="44.32116" lon="3.70647">
        <ele>1185.92</ele>
        <time>2022-08-07T08:24:16Z</time>
      </trkpt>
      <trkpt lat="44.32119" lon="3.70637">
        <ele>1184.96</ele>
        <time>2022-08-07T08:24:32Z</time>
      </trkpt>
      <trkpt lat="44.32123" lon="3.70624">
        <ele>1182.56</ele>
        <time>2022-08-07T08:24:45Z</time>
      </trkpt>
      <trkpt lat="44.3213" lon="3.70607">
        <ele>1178.71</ele>
        <time>2022-08-07T08:24:59Z</time>
      </trkpt>
      <trkpt lat="44.32141" lon="3.70593">
        <ele>1177.27</ele>
        <time>2022-08-07T08:25:16Z</time>
      </trkpt>
      <trkpt lat="44.32148" lon="3.70585">
        <ele>1175.83</ele>
        <time>2022-08-07T08:25:29Z</time>
      </trkpt>
      <trkpt lat="44.32156" lon="3.70573">
        <ele>1174.87</ele>
        <time>2022-08-07T08:25:42Z</time>
      </trkpt>
      <trkpt lat="44.32162" lon="3.70562">
        <ele>1172.47</ele>
        <time>2022-08-07T08:25:54Z</time>
      </trkpt>
      <trkpt lat="44.3217" lon="3.70548">
        <ele>1172.95</ele>
        <time>2022-08-07T08:26:04Z</time>
      </trkpt>
      <trkpt lat="44.32179" lon="3.70529">
        <ele>1174.39</ele>
        <time>2022-08-07T08:26:20Z</time>
      </trkpt>
      <trkpt lat="44.32179" lon="3.70528">
        <ele>1174.39</ele>
        <time>2022-08-07T08:26:21Z</time>
      </trkpt>
      <trkpt lat="44.32183" lon="3.70512">
        <ele>1173.91</ele>
        <time>2022-08-07T08:26:31Z</time>
      </trkpt>
      <trkpt lat="44.32187" lon="3.70495">
        <ele>1173.91</ele>
        <time>2022-08-07T08:26:44Z</time>
      </trkpt>
      <trkpt lat="44.32196" lon="3.70477">
        <ele>1174.87</ele>
        <time>2022-08-07T08:26:58Z</time>
      </trkpt>
      <trkpt lat="44.32202" lon="3.70462">
        <ele>1171.5</ele>
        <time>2022-08-07T08:27:11Z</time>
      </trkpt>
      <trkpt lat="44.32207" lon="3.70448">
        <ele>1173.91</ele>
        <time>2022-08-07T08:27:24Z</time>
      </trkpt>
      <trkpt lat="44.32213" lon="3.70433">
        <ele>1176.31</ele>
        <time>2022-08-07T08:27:39Z</time>
      </trkpt>
      <trkpt lat="44.32216" lon="3.70417">
        <ele>1176.31</ele>
        <time>2022-08-07T08:27:52Z</time>
      </trkpt>
      <trkpt lat="44.32219" lon="3.70403">
        <ele>1179.19</ele>
        <time>2022-08-07T08:28:06Z</time>
      </trkpt>
      <trkpt lat="44.32221" lon="3.70395">
        <ele>1180.64</ele>
        <time>2022-08-07T08:28:13Z</time>
      </trkpt>
      <trkpt lat="44.32221" lon="3.70375">
        <ele>1180.64</ele>
        <time>2022-08-07T08:28:30Z</time>
      </trkpt>
      <trkpt lat="44.32222" lon="3.70364">
        <ele>1179.19</ele>
        <time>2022-08-07T08:28:42Z</time>
      </trkpt>
      <trkpt lat="44.32223" lon="3.70362">
        <ele>1179.19</ele>
        <time>2022-08-07T08:28:44Z</time>
      </trkpt>
      <trkpt lat="44.32232" lon="3.70355">
        <ele>1178.23</ele>
        <time>2022-08-07T08:28:56Z</time>
      </trkpt>
      <trkpt lat="44.32237" lon="3.70345">
        <ele>1178.23</ele>
        <time>2022-08-07T08:29:07Z</time>
      </trkpt>
      <trkpt lat="44.32247" lon="3.70336">
        <ele>1179.19</ele>
        <time>2022-08-07T08:29:20Z</time>
      </trkpt>
      <trkpt lat="44.32253" lon="3.70329">
        <ele>1178.71</ele>
        <time>2022-08-07T08:29:31Z</time>
      </trkpt>
      <trkpt lat="44.3226" lon="3.70321">
        <ele>1176.31</ele>
        <time>2022-08-07T08:29:45Z</time>
      </trkpt>
      <trkpt lat="44.32267" lon="3.7031">
        <ele>1176.31</ele>
        <time>2022-08-07T08:29:57Z</time>
      </trkpt>
      <trkpt lat="44.32278" lon="3.70294">
        <ele>1175.83</ele>
        <time>2022-08-07T08:30:10Z</time>
      </trkpt>
      <trkpt lat="44.32287" lon="3.70279">
        <ele>1176.79</ele>
        <time>2022-08-07T08:30:22Z</time>
      </trkpt>
      <trkpt lat="44.32299" lon="3.70262">
        <ele>1173.43</ele>
        <time>2022-08-07T08:30:37Z</time>
      </trkpt>
      <trkpt lat="44.32304" lon="3.70253">
        <ele>1170.54</ele>
        <time>2022-08-07T08:30:46Z</time>
      </trkpt>
      <trkpt lat="44.32304" lon="3.70236">
        <ele>1166.22</ele>
        <time>2022-08-07T08:31:01Z</time>
      </trkpt>
      <trkpt lat="44.32307" lon="3.70223">
        <ele>1165.26</ele>
        <time>2022-08-07T08:31:15Z</time>
      </trkpt>
      <trkpt lat="44.32317" lon="3.70203">
        <ele>1163.81</ele>
        <time>2022-08-07T08:31:32Z</time>
      </trkpt>
      <trkpt lat="44.32322" lon="3.70193">
        <ele>1161.41</ele>
        <time>2022-08-07T08:31:44Z</time>
      </trkpt>
      <trkpt lat="44.32328" lon="3.70178">
        <ele>1160.45</ele>
        <time>2022-08-07T08:31:57Z</time>
      </trkpt>
      <trkpt lat="44.32334" lon="3.70162">
        <ele>1160.45</ele>
        <time>2022-08-07T08:32:10Z</time>
      </trkpt>
      <trkpt lat="44.32338" lon="3.70142">
        <ele>1159.49</ele>
        <time>2022-08-07T08:32:24Z</time>
      </trkpt>
      <trkpt lat="44.32339" lon="3.70122">
        <ele>1158.53</ele>
        <time>2022-08-07T08:32:36Z</time>
      </trkpt>
      <trkpt lat="44.32338" lon="3.701">
        <ele>1159.01</ele>
        <time>2022-08-07T08:32:50Z</time>
      </trkpt>
      <trkpt lat="44.32338" lon="3.70099">
        <ele>1159.49</ele>
        <time>2022-08-07T08:32:51Z</time>
      </trkpt>
      <trkpt lat="44.3234" lon="3.7008">
        <ele>1160.45</ele>
        <time>2022-08-07T08:33:06Z</time>
      </trkpt>
      <trkpt lat="44.32343" lon="3.70061">
        <ele>1160.45</ele>
        <time>2022-08-07T08:33:19Z</time>
      </trkpt>
      <trkpt lat="44.32355" lon="3.70043">
        <ele>1159.97</ele>
        <time>2022-08-07T08:33:34Z</time>
      </trkpt>
      <trkpt lat="44.32359" lon="3.70026">
        <ele>1158.05</ele>
        <time>2022-08-07T08:33:48Z</time>
      </trkpt>
      <trkpt lat="44.32366" lon="3.70011">
        <ele>1159.49</ele>
        <time>2022-08-07T08:33:59Z</time>
      </trkpt>
      <trkpt lat="44.32372" lon="3.69995">
        <ele>1158.05</ele>
        <time>2022-08-07T08:34:11Z</time>
      </trkpt>
      <trkpt lat="44.32379" lon="3.6998">
        <ele>1156.12</ele>
        <time>2022-08-07T08:34:24Z</time>
      </trkpt>
      <trkpt lat="44.32381" lon="3.69973">
        <ele>1156.12</ele>
        <time>2022-08-07T08:34:31Z</time>
      </trkpt>
      <trkpt lat="44.3239" lon="3.69958">
        <ele>1154.68</ele>
        <time>2022-08-07T08:34:44Z</time>
      </trkpt>
      <trkpt lat="44.32391" lon="3.69944">
        <ele>1150.84</ele>
        <time>2022-08-07T08:34:56Z</time>
      </trkpt>
      <trkpt lat="44.32396" lon="3.69937">
        <ele>1150.35</ele>
        <time>2022-08-07T08:35:07Z</time>
      </trkpt>
      <trkpt lat="44.32408" lon="3.69922">
        <ele>1150.35</ele>
        <time>2022-08-07T08:35:23Z</time>
      </trkpt>
      <trkpt lat="44.32417" lon="3.69901">
        <ele>1150.35</ele>
        <time>2022-08-07T08:35:37Z</time>
      </trkpt>
      <trkpt lat="44.32425" lon="3.69883">
        <ele>1148.91</ele>
        <time>2022-08-07T08:35:50Z</time>
      </trkpt>
      <trkpt lat="44.3243" lon="3.69867">
        <ele>1148.43</ele>
        <time>2022-08-07T08:36:06Z</time>
      </trkpt>
      <trkpt lat="44.32436" lon="3.69852">
        <ele>1146.99</ele>
        <time>2022-08-07T08:36:19Z</time>
      </trkpt>
      <trkpt lat="44.3244" lon="3.69843">
        <ele>1146.51</ele>
        <time>2022-08-07T08:36:25Z</time>
      </trkpt>
      <trkpt lat="44.32449" lon="3.69821">
        <ele>1144.11</ele>
        <time>2022-08-07T08:36:40Z</time>
      </trkpt>
      <trkpt lat="44.3245" lon="3.69816">
        <ele>1143.63</ele>
        <time>2022-08-07T08:36:45Z</time>
      </trkpt>
      <trkpt lat="44.32461" lon="3.69802">
        <ele>1141.7</ele>
        <time>2022-08-07T08:36:59Z</time>
      </trkpt>
      <trkpt lat="44.32471" lon="3.69789">
        <ele>1141.22</ele>
        <time>2022-08-07T08:37:13Z</time>
      </trkpt>
      <trkpt lat="44.32477" lon="3.69775">
        <ele>1140.26</ele>
        <time>2022-08-07T08:37:26Z</time>
      </trkpt>
      <trkpt lat="44.32484" lon="3.69765">
        <ele>1140.26</ele>
        <time>2022-08-07T08:37:38Z</time>
      </trkpt>
      <trkpt lat="44.32489" lon="3.69755">
        <ele>1139.78</ele>
        <time>2022-08-07T08:37:46Z</time>
      </trkpt>
      <trkpt lat="44.3249" lon="3.69739">
        <ele>1138.82</ele>
        <time>2022-08-07T08:38:02Z</time>
      </trkpt>
      <trkpt lat="44.32487" lon="3.69724">
        <ele>1138.82</ele>
        <time>2022-08-07T08:38:19Z</time>
      </trkpt>
      <trkpt lat="44.32484" lon="3.69728">
        <ele>1139.78</ele>
        <time>2022-08-07T08:38:32Z</time>
      </trkpt>
      <trkpt lat="44.32484" lon="3.69725">
        <ele>1142.18</ele>
        <time>2022-08-07T08:38:55Z</time>
      </trkpt>
      <trkpt lat="44.32484" lon="3.69725">
        <ele>1142.66</ele>
        <time>2022-08-07T08:39:16Z</time>
      </trkpt>
      <trkpt lat="44.32484" lon="3.69727">
        <ele>1143.14</ele>
        <time>2022-08-07T08:39:35Z</time>
      </trkpt>
      <trkpt lat="44.32485" lon="3.69726">
        <ele>1140.26</ele>
        <time>2022-08-07T08:40:00Z</time>
      </trkpt>
      <trkpt lat="44.3248" lon="3.69733">
        <ele>1140.26</ele>
        <time>2022-08-07T08:40:23Z</time>
      </trkpt>
      <trkpt lat="44.32471" lon="3.6974">
        <ele>1138.82</ele>
        <time>2022-08-07T08:40:37Z</time>
      </trkpt>
      <trkpt lat="44.32466" lon="3.69746">
        <ele>1138.34</ele>
        <time>2022-08-07T08:40:43Z</time>
      </trkpt>
      <trkpt lat="44.32457" lon="3.69752">
        <ele>1137.38</ele>
        <time>2022-08-07T08:40:57Z</time>
      </trkpt>
      <trkpt lat="44.32446" lon="3.69758">
        <ele>1137.38</ele>
        <time>2022-08-07T08:41:12Z</time>
      </trkpt>
      <trkpt lat="44.3244" lon="3.6976">
        <ele>1138.34</ele>
        <time>2022-08-07T08:41:19Z</time>
      </trkpt>
      <trkpt lat="44.32438" lon="3.69754">
        <ele>1135.45</ele>
        <time>2022-08-07T08:41:33Z</time>
      </trkpt>
      <trkpt lat="44.32444" lon="3.69742">
        <ele>1134.01</ele>
        <time>2022-08-07T08:41:46Z</time>
      </trkpt>
      <trkpt lat="44.3245" lon="3.69729">
        <ele>1132.09</ele>
        <time>2022-08-07T08:41:59Z</time>
      </trkpt>
      <trkpt lat="44.32455" lon="3.69713">
        <ele>1131.61</ele>
        <time>2022-08-07T08:42:10Z</time>
      </trkpt>
      <trkpt lat="44.32462" lon="3.69689">
        <ele>1129.69</ele>
        <time>2022-08-07T08:42:27Z</time>
      </trkpt>
      <trkpt lat="44.32466" lon="3.69671">
        <ele>1128.24</ele>
        <time>2022-08-07T08:42:43Z</time>
      </trkpt>
      <trkpt lat="44.3247" lon="3.69657">
        <ele>1125.84</ele>
        <time>2022-08-07T08:42:57Z</time>
      </trkpt>
      <trkpt lat="44.32472" lon="3.69645">
        <ele>1123.92</ele>
        <time>2022-08-07T08:43:10Z</time>
      </trkpt>
      <trkpt lat="44.32478" lon="3.69628">
        <ele>1121.03</ele>
        <time>2022-08-07T08:43:25Z</time>
      </trkpt>
      <trkpt lat="44.32479" lon="3.69627">
        <ele>1121.03</ele>
        <time>2022-08-07T08:43:26Z</time>
      </trkpt>
      <trkpt lat="44.32484" lon="3.69609">
        <ele>1120.07</ele>
        <time>2022-08-07T08:43:39Z</time>
      </trkpt>
      <trkpt lat="44.3249" lon="3.69594">
        <ele>1117.67</ele>
        <time>2022-08-07T08:43:53Z</time>
      </trkpt>
      <trkpt lat="44.32491" lon="3.69584">
        <ele>1115.75</ele>
        <time>2022-08-07T08:44:01Z</time>
      </trkpt>
      <trkpt lat="44.32497" lon="3.69563">
        <ele>1112.86</ele>
        <time>2022-08-07T08:44:16Z</time>
      </trkpt>
      <trkpt lat="44.32498" lon="3.6956">
        <ele>1112.38</ele>
        <time>2022-08-07T08:44:18Z</time>
      </trkpt>
      <trkpt lat="44.32501" lon="3.69541">
        <ele>1111.9</ele>
        <time>2022-08-07T08:44:32Z</time>
      </trkpt>
      <trkpt lat="44.32505" lon="3.69522">
        <ele>1109.5</ele>
        <time>2022-08-07T08:44:46Z</time>
      </trkpt>
      <trkpt lat="44.32508" lon="3.69505">
        <ele>1105.65</ele>
        <time>2022-08-07T08:44:58Z</time>
      </trkpt>
      <trkpt lat="44.32511" lon="3.69487">
        <ele>1102.29</ele>
        <time>2022-08-07T08:45:11Z</time>
      </trkpt>
      <trkpt lat="44.32513" lon="3.69471">
        <ele>1099.4</ele>
        <time>2022-08-07T08:45:23Z</time>
      </trkpt>
      <trkpt lat="44.32515" lon="3.69453">
        <ele>1097</ele>
        <time>2022-08-07T08:45:37Z</time>
      </trkpt>
      <trkpt lat="44.32513" lon="3.69435">
        <ele>1095.56</ele>
        <time>2022-08-07T08:45:50Z</time>
      </trkpt>
      <trkpt lat="44.32514" lon="3.69419">
        <ele>1094.6</ele>
        <time>2022-08-07T08:46:01Z</time>
      </trkpt>
      <trkpt lat="44.32515" lon="3.69399">
        <ele>1094.6</ele>
        <time>2022-08-07T08:46:15Z</time>
      </trkpt>
      <trkpt lat="44.32517" lon="3.6937">
        <ele>1095.08</ele>
        <time>2022-08-07T08:46:32Z</time>
      </trkpt>
      <trkpt lat="44.32519" lon="3.69352">
        <ele>1094.6</ele>
        <time>2022-08-07T08:46:44Z</time>
      </trkpt>
      <trkpt lat="44.3252" lon="3.69332">
        <ele>1094.12</ele>
        <time>2022-08-07T08:46:59Z</time>
      </trkpt>
      <trkpt lat="44.32523" lon="3.69313">
        <ele>1094.6</ele>
        <time>2022-08-07T08:47:13Z</time>
      </trkpt>
      <trkpt lat="44.32526" lon="3.69293">
        <ele>1097.48</ele>
        <time>2022-08-07T08:47:25Z</time>
      </trkpt>
      <trkpt lat="44.32526" lon="3.69276">
        <ele>1097</ele>
        <time>2022-08-07T08:47:38Z</time>
      </trkpt>
      <trkpt lat="44.32528" lon="3.6927">
        <ele>1097</ele>
        <time>2022-08-07T08:47:43Z</time>
      </trkpt>
      <trkpt lat="44.32534" lon="3.6925">
        <ele>1095.56</ele>
        <time>2022-08-07T08:48:00Z</time>
      </trkpt>
      <trkpt lat="44.32534" lon="3.69239">
        <ele>1095.56</ele>
        <time>2022-08-07T08:48:06Z</time>
      </trkpt>
      <trkpt lat="44.32535" lon="3.69215">
        <ele>1097.48</ele>
        <time>2022-08-07T08:48:21Z</time>
      </trkpt>
      <trkpt lat="44.32537" lon="3.69194">
        <ele>1099.89</ele>
        <time>2022-08-07T08:48:34Z</time>
      </trkpt>
      <trkpt lat="44.32536" lon="3.69169">
        <ele>1102.29</ele>
        <time>2022-08-07T08:48:49Z</time>
      </trkpt>
      <trkpt lat="44.32541" lon="3.69148">
        <ele>1102.77</ele>
        <time>2022-08-07T08:49:04Z</time>
      </trkpt>
      <trkpt lat="44.32542" lon="3.69146">
        <ele>1102.77</ele>
        <time>2022-08-07T08:49:05Z</time>
      </trkpt>
      <trkpt lat="44.32546" lon="3.69124">
        <ele>1100.85</ele>
        <time>2022-08-07T08:49:20Z</time>
      </trkpt>
      <trkpt lat="44.3255" lon="3.69107">
        <ele>1100.85</ele>
        <time>2022-08-07T08:49:35Z</time>
      </trkpt>
      <trkpt lat="44.3255" lon="3.69087">
        <ele>1099.89</ele>
        <time>2022-08-07T08:49:51Z</time>
      </trkpt>
      <trkpt lat="44.3255" lon="3.69081">
        <ele>1098.44</ele>
        <time>2022-08-07T08:49:55Z</time>
      </trkpt>
      <trkpt lat="44.32544" lon="3.69052">
        <ele>1095.08</ele>
        <time>2022-08-07T08:50:13Z</time>
      </trkpt>
      <trkpt lat="44.32537" lon="3.69029">
        <ele>1091.23</ele>
        <time>2022-08-07T08:50:29Z</time>
      </trkpt>
      <trkpt lat="44.3253" lon="3.69016">
        <ele>1091.71</ele>
        <time>2022-08-07T08:50:43Z</time>
      </trkpt>
      <trkpt lat="44.32526" lon="3.69004">
        <ele>1091.23</ele>
        <time>2022-08-07T08:50:54Z</time>
      </trkpt>
      <trkpt lat="44.32521" lon="3.68989">
        <ele>1091.23</ele>
        <time>2022-08-07T08:51:07Z</time>
      </trkpt>
      <trkpt lat="44.32516" lon="3.6897">
        <ele>1088.35</ele>
        <time>2022-08-07T08:51:22Z</time>
      </trkpt>
      <trkpt lat="44.32512" lon="3.68947">
        <ele>1086.91</ele>
        <time>2022-08-07T08:51:38Z</time>
      </trkpt>
      <trkpt lat="44.3251" lon="3.68932">
        <ele>1084.5</ele>
        <time>2022-08-07T08:51:51Z</time>
      </trkpt>
      <trkpt lat="44.32508" lon="3.68915">
        <ele>1082.58</ele>
        <time>2022-08-07T08:52:04Z</time>
      </trkpt>
      <trkpt lat="44.32507" lon="3.6891">
        <ele>1082.58</ele>
        <time>2022-08-07T08:52:08Z</time>
      </trkpt>
      <trkpt lat="44.32502" lon="3.68892">
        <ele>1081.62</ele>
        <time>2022-08-07T08:52:22Z</time>
      </trkpt>
      <trkpt lat="44.32499" lon="3.68871">
        <ele>1082.58</ele>
        <time>2022-08-07T08:52:37Z</time>
      </trkpt>
      <trkpt lat="44.325" lon="3.68845">
        <ele>1082.58</ele>
        <time>2022-08-07T08:52:52Z</time>
      </trkpt>
      <trkpt lat="44.32502" lon="3.68823">
        <ele>1081.62</ele>
        <time>2022-08-07T08:53:06Z</time>
      </trkpt>
      <trkpt lat="44.32502" lon="3.68813">
        <ele>1080.66</ele>
        <time>2022-08-07T08:53:12Z</time>
      </trkpt>
      <trkpt lat="44.32504" lon="3.68791">
        <ele>1078.74</ele>
        <time>2022-08-07T08:53:27Z</time>
      </trkpt>
      <trkpt lat="44.32506" lon="3.6877">
        <ele>1076.81</ele>
        <time>2022-08-07T08:53:41Z</time>
      </trkpt>
      <trkpt lat="44.32502" lon="3.68751">
        <ele>1076.81</ele>
        <time>2022-08-07T08:53:55Z</time>
      </trkpt>
      <trkpt lat="44.32503" lon="3.68732">
        <ele>1074.89</ele>
        <time>2022-08-07T08:54:09Z</time>
      </trkpt>
      <trkpt lat="44.32505" lon="3.68715">
        <ele>1073.93</ele>
        <time>2022-08-07T08:54:22Z</time>
      </trkpt>
      <trkpt lat="44.32509" lon="3.68697">
        <ele>1073.45</ele>
        <time>2022-08-07T08:54:36Z</time>
      </trkpt>
      <trkpt lat="44.32516" lon="3.68678">
        <ele>1074.41</ele>
        <time>2022-08-07T08:54:50Z</time>
      </trkpt>
      <trkpt lat="44.32524" lon="3.68658">
        <ele>1070.08</ele>
        <time>2022-08-07T08:55:06Z</time>
      </trkpt>
      <trkpt lat="44.32529" lon="3.68638">
        <ele>1070.08</ele>
        <time>2022-08-07T08:55:20Z</time>
      </trkpt>
      <trkpt lat="44.32533" lon="3.68613">
        <ele>1071.53</ele>
        <time>2022-08-07T08:55:35Z</time>
      </trkpt>
      <trkpt lat="44.32529" lon="3.68605">
        <ele>1072.97</ele>
        <time>2022-08-07T08:55:48Z</time>
      </trkpt>
      <trkpt lat="44.32531" lon="3.686">
        <ele>1074.41</ele>
        <time>2022-08-07T08:56:03Z</time>
      </trkpt>
      <trkpt lat="44.32529" lon="3.68604">
        <ele>1075.37</ele>
        <time>2022-08-07T08:56:24Z</time>
      </trkpt>
      <trkpt lat="44.32529" lon="3.68601">
        <ele>1077.78</ele>
        <time>2022-08-07T08:56:45Z</time>
      </trkpt>
      <trkpt lat="44.32531" lon="3.686">
        <ele>1076.81</ele>
        <time>2022-08-07T08:57:06Z</time>
      </trkpt>
      <trkpt lat="44.32533" lon="3.68599">
        <ele>1075.85</ele>
        <time>2022-08-07T08:57:20Z</time>
      </trkpt>
      <trkpt lat="44.32534" lon="3.68598">
        <ele>1073.93</ele>
        <time>2022-08-07T08:57:38Z</time>
      </trkpt>
      <trkpt lat="44.32535" lon="3.68599">
        <ele>1069.6</ele>
        <time>2022-08-07T08:58:04Z</time>
      </trkpt>
      <trkpt lat="44.32536" lon="3.68596">
        <ele>1069.6</ele>
        <time>2022-08-07T08:58:24Z</time>
      </trkpt>
      <trkpt lat="44.32541" lon="3.68586">
        <ele>1071.05</ele>
        <time>2022-08-07T08:58:37Z</time>
      </trkpt>
      <trkpt lat="44.32541" lon="3.68567">
        <ele>1072.49</ele>
        <time>2022-08-07T08:58:54Z</time>
      </trkpt>
      <trkpt lat="44.32544" lon="3.68562">
        <ele>1073.45</ele>
        <time>2022-08-07T08:59:06Z</time>
      </trkpt>
      <trkpt lat="44.32547" lon="3.68552">
        <ele>1075.37</ele>
        <time>2022-08-07T08:59:18Z</time>
      </trkpt>
      <trkpt lat="44.3255" lon="3.6854">
        <ele>1075.85</ele>
        <time>2022-08-07T08:59:36Z</time>
      </trkpt>
      <trkpt lat="44.32554" lon="3.68525">
        <ele>1075.85</ele>
        <time>2022-08-07T08:59:47Z</time>
      </trkpt>
      <trkpt lat="44.32557" lon="3.68504">
        <ele>1073.93</ele>
        <time>2022-08-07T09:00:02Z</time>
      </trkpt>
      <trkpt lat="44.32561" lon="3.68482">
        <ele>1073.93</ele>
        <time>2022-08-07T09:00:17Z</time>
      </trkpt>
      <trkpt lat="44.32563" lon="3.68468">
        <ele>1073.93</ele>
        <time>2022-08-07T09:00:27Z</time>
      </trkpt>
      <trkpt lat="44.32568" lon="3.68446">
        <ele>1072.97</ele>
        <time>2022-08-07T09:00:42Z</time>
      </trkpt>
      <trkpt lat="44.32571" lon="3.68437">
        <ele>1072.97</ele>
        <time>2022-08-07T09:00:48Z</time>
      </trkpt>
      <trkpt lat="44.32576" lon="3.68411">
        <ele>1071.53</ele>
        <time>2022-08-07T09:01:05Z</time>
      </trkpt>
      <trkpt lat="44.32577" lon="3.68403">
        <ele>1071.53</ele>
        <time>2022-08-07T09:01:10Z</time>
      </trkpt>
      <trkpt lat="44.32579" lon="3.68385">
        <ele>1072.49</ele>
        <time>2022-08-07T09:01:23Z</time>
      </trkpt>
      <trkpt lat="44.32581" lon="3.68376">
        <ele>1073.45</ele>
        <time>2022-08-07T09:01:29Z</time>
      </trkpt>
      <trkpt lat="44.32583" lon="3.68371">
        <ele>1073.45</ele>
        <time>2022-08-07T09:01:32Z</time>
      </trkpt>
      <trkpt lat="44.32592" lon="3.6835">
        <ele>1074.41</ele>
        <time>2022-08-07T09:01:46Z</time>
      </trkpt>
      <trkpt lat="44.32598" lon="3.68329">
        <ele>1074.89</ele>
        <time>2022-08-07T09:02:01Z</time>
      </trkpt>
      <trkpt lat="44.32603" lon="3.6831">
        <ele>1074.89</ele>
        <time>2022-08-07T09:02:13Z</time>
      </trkpt>
      <trkpt lat="44.3261" lon="3.68291">
        <ele>1073.93</ele>
        <time>2022-08-07T09:02:26Z</time>
      </trkpt>
      <trkpt lat="44.32616" lon="3.68272">
        <ele>1069.6</ele>
        <time>2022-08-07T09:02:39Z</time>
      </trkpt>
      <trkpt lat="44.32624" lon="3.68253">
        <ele>1068.64</ele>
        <time>2022-08-07T09:02:51Z</time>
      </trkpt>
      <trkpt lat="44.32625" lon="3.6823">
        <ele>1068.64</ele>
        <time>2022-08-07T09:03:04Z</time>
      </trkpt>
      <trkpt lat="44.32624" lon="3.68221">
        <ele>1068.64</ele>
        <time>2022-08-07T09:03:09Z</time>
      </trkpt>
      <trkpt lat="44.32624" lon="3.68216">
        <ele>1068.64</ele>
        <time>2022-08-07T09:03:12Z</time>
      </trkpt>
      <trkpt lat="44.32625" lon="3.68189">
        <ele>1069.12</ele>
        <time>2022-08-07T09:03:27Z</time>
      </trkpt>
      <trkpt lat="44.32626" lon="3.68158">
        <ele>1070.57</ele>
        <time>2022-08-07T09:03:43Z</time>
      </trkpt>
      <trkpt lat="44.32629" lon="3.68134">
        <ele>1072.49</ele>
        <time>2022-08-07T09:03:57Z</time>
      </trkpt>
      <trkpt lat="44.3263" lon="3.68111">
        <ele>1071.53</ele>
        <time>2022-08-07T09:04:11Z</time>
      </trkpt>
      <trkpt lat="44.3263" lon="3.68103">
        <ele>1070.08</ele>
        <time>2022-08-07T09:04:17Z</time>
      </trkpt>
      <trkpt lat="44.32626" lon="3.68085">
        <ele>1063.84</ele>
        <time>2022-08-07T09:04:32Z</time>
      </trkpt>
      <trkpt lat="44.32624" lon="3.68068">
        <ele>1060.95</ele>
        <time>2022-08-07T09:04:43Z</time>
      </trkpt>
      <trkpt lat="44.32624" lon="3.68042">
        <ele>1061.91</ele>
        <time>2022-08-07T09:04:56Z</time>
      </trkpt>
      <trkpt lat="44.32626" lon="3.68007">
        <ele>1067.68</ele>
        <time>2022-08-07T09:05:12Z</time>
      </trkpt>
      <trkpt lat="44.32626" lon="3.67987">
        <ele>1067.68</ele>
        <time>2022-08-07T09:05:25Z</time>
      </trkpt>
      <trkpt lat="44.32627" lon="3.67965">
        <ele>1067.2</ele>
        <time>2022-08-07T09:05:38Z</time>
      </trkpt>
      <trkpt lat="44.32626" lon="3.67948">
        <ele>1064.32</ele>
        <time>2022-08-07T09:05:50Z</time>
      </trkpt>
      <trkpt lat="44.32625" lon="3.67924">
        <ele>1064.32</ele>
        <time>2022-08-07T09:06:04Z</time>
      </trkpt>
      <trkpt lat="44.32621" lon="3.67903">
        <ele>1064.32</ele>
        <time>2022-08-07T09:06:19Z</time>
      </trkpt>
      <trkpt lat="44.32622" lon="3.67871">
        <ele>1064.8</ele>
        <time>2022-08-07T09:06:35Z</time>
      </trkpt>
      <trkpt lat="44.32622" lon="3.67857">
        <ele>1061.91</ele>
        <time>2022-08-07T09:06:47Z</time>
      </trkpt>
      <trkpt lat="44.32622" lon="3.67843">
        <ele>1060.47</ele>
        <time>2022-08-07T09:06:57Z</time>
      </trkpt>
      <trkpt lat="44.32623" lon="3.67827">
        <ele>1058.07</ele>
        <time>2022-08-07T09:07:08Z</time>
      </trkpt>
      <trkpt lat="44.32629" lon="3.67805">
        <ele>1059.03</ele>
        <time>2022-08-07T09:07:20Z</time>
      </trkpt>
      <trkpt lat="44.32634" lon="3.67785">
        <ele>1056.63</ele>
        <time>2022-08-07T09:07:31Z</time>
      </trkpt>
      <trkpt lat="44.32639" lon="3.67767">
        <ele>1056.63</ele>
        <time>2022-08-07T09:07:43Z</time>
      </trkpt>
      <trkpt lat="44.3264" lon="3.6775">
        <ele>1054.22</ele>
        <time>2022-08-07T09:07:54Z</time>
      </trkpt>
      <trkpt lat="44.32645" lon="3.67729">
        <ele>1055.18</ele>
        <time>2022-08-07T09:08:07Z</time>
      </trkpt>
      <trkpt lat="44.32649" lon="3.67711">
        <ele>1055.67</ele>
        <time>2022-08-07T09:08:18Z</time>
      </trkpt>
      <trkpt lat="44.32653" lon="3.67693">
        <ele>1053.74</ele>
        <time>2022-08-07T09:08:29Z</time>
      </trkpt>
      <trkpt lat="44.32657" lon="3.67672">
        <ele>1051.34</ele>
        <time>2022-08-07T09:08:41Z</time>
      </trkpt>
      <trkpt lat="44.32657" lon="3.67665">
        <ele>1051.34</ele>
        <time>2022-08-07T09:08:45Z</time>
      </trkpt>
      <trkpt lat="44.32659" lon="3.67654">
        <ele>1051.82</ele>
        <time>2022-08-07T09:08:51Z</time>
      </trkpt>
      <trkpt lat="44.32656" lon="3.67643">
        <ele>1051.82</ele>
        <time>2022-08-07T09:08:58Z</time>
      </trkpt>
      <trkpt lat="44.32659" lon="3.67617">
        <ele>1052.78</ele>
        <time>2022-08-07T09:09:12Z</time>
      </trkpt>
      <trkpt lat="44.32662" lon="3.67595">
        <ele>1052.78</ele>
        <time>2022-08-07T09:09:24Z</time>
      </trkpt>
      <trkpt lat="44.32661" lon="3.67571">
        <ele>1052.3</ele>
        <time>2022-08-07T09:09:38Z</time>
      </trkpt>
      <trkpt lat="44.32661" lon="3.67568">
        <ele>1052.3</ele>
        <time>2022-08-07T09:09:40Z</time>
      </trkpt>
      <trkpt lat="44.32661" lon="3.67559">
        <ele>1052.3</ele>
        <time>2022-08-07T09:09:45Z</time>
      </trkpt>
      <trkpt lat="44.32657" lon="3.67537">
        <ele>1050.86</ele>
        <time>2022-08-07T09:09:59Z</time>
      </trkpt>
      <trkpt lat="44.32654" lon="3.67516">
        <ele>1049.9</ele>
        <time>2022-08-07T09:10:12Z</time>
      </trkpt>
      <trkpt lat="44.32653" lon="3.67488">
        <ele>1049.9</ele>
        <time>2022-08-07T09:10:26Z</time>
      </trkpt>
      <trkpt lat="44.32649" lon="3.67464">
        <ele>1051.34</ele>
        <time>2022-08-07T09:10:39Z</time>
      </trkpt>
      <trkpt lat="44.32642" lon="3.67443">
        <ele>1052.3</ele>
        <time>2022-08-07T09:10:53Z</time>
      </trkpt>
      <trkpt lat="44.32632" lon="3.67425">
        <ele>1051.82</ele>
        <time>2022-08-07T09:11:07Z</time>
      </trkpt>
      <trkpt lat="44.32626" lon="3.67407">
        <ele>1050.86</ele>
        <time>2022-08-07T09:11:19Z</time>
      </trkpt>
      <trkpt lat="44.32625" lon="3.67404">
        <ele>1051.34</ele>
        <time>2022-08-07T09:11:20Z</time>
      </trkpt>
      <trkpt lat="44.32611" lon="3.67379">
        <ele>1056.15</ele>
        <time>2022-08-07T09:11:34Z</time>
      </trkpt>
      <trkpt lat="44.32599" lon="3.67363">
        <ele>1055.18</ele>
        <time>2022-08-07T09:11:49Z</time>
      </trkpt>
      <trkpt lat="44.32594" lon="3.67358">
        <ele>1055.18</ele>
        <time>2022-08-07T09:11:53Z</time>
      </trkpt>
      <trkpt lat="44.32586" lon="3.67342">
        <ele>1054.7</ele>
        <time>2022-08-07T09:12:05Z</time>
      </trkpt>
      <trkpt lat="44.32582" lon="3.67338">
        <ele>1054.7</ele>
        <time>2022-08-07T09:12:08Z</time>
      </trkpt>
      <trkpt lat="44.32563" lon="3.67324">
        <ele>1052.78</ele>
        <time>2022-08-07T09:12:22Z</time>
      </trkpt>
      <trkpt lat="44.32548" lon="3.67308">
        <ele>1051.82</ele>
        <time>2022-08-07T09:12:38Z</time>
      </trkpt>
      <trkpt lat="44.32533" lon="3.67291">
        <ele>1051.34</ele>
        <time>2022-08-07T09:12:53Z</time>
      </trkpt>
      <trkpt lat="44.3252" lon="3.6727">
        <ele>1051.34</ele>
        <time>2022-08-07T09:13:09Z</time>
      </trkpt>
      <trkpt lat="44.32516" lon="3.67265">
        <ele>1051.82</ele>
        <time>2022-08-07T09:13:21Z</time>
      </trkpt>
      <trkpt lat="44.3251" lon="3.67247">
        <ele>1051.34</ele>
        <time>2022-08-07T09:13:35Z</time>
      </trkpt>
      <trkpt lat="44.325" lon="3.67224">
        <ele>1048.94</ele>
        <time>2022-08-07T09:13:52Z</time>
      </trkpt>
      <trkpt lat="44.3249" lon="3.67196">
        <ele>1047.01</ele>
        <time>2022-08-07T09:14:09Z</time>
      </trkpt>
      <trkpt lat="44.32488" lon="3.67188">
        <ele>1047.01</ele>
        <time>2022-08-07T09:14:14Z</time>
      </trkpt>
      <trkpt lat="44.32481" lon="3.6716">
        <ele>1045.57</ele>
        <time>2022-08-07T09:14:30Z</time>
      </trkpt>
      <trkpt lat="44.3248" lon="3.67142">
        <ele>1046.53</ele>
        <time>2022-08-07T09:14:40Z</time>
      </trkpt>
      <trkpt lat="44.32482" lon="3.67135">
        <ele>1046.53</ele>
        <time>2022-08-07T09:14:44Z</time>
      </trkpt>
      <trkpt lat="44.32484" lon="3.67126">
        <ele>1047.01</ele>
        <time>2022-08-07T09:14:51Z</time>
      </trkpt>
      <trkpt lat="44.32484" lon="3.67122">
        <ele>1047.01</ele>
        <time>2022-08-07T09:14:53Z</time>
      </trkpt>
      <trkpt lat="44.32488" lon="3.671">
        <ele>1044.13</ele>
        <time>2022-08-07T09:15:07Z</time>
      </trkpt>
      <trkpt lat="44.32489" lon="3.67093">
        <ele>1043.65</ele>
        <time>2022-08-07T09:15:11Z</time>
      </trkpt>
      <trkpt lat="44.32489" lon="3.67083">
        <ele>1043.17</ele>
        <time>2022-08-07T09:15:17Z</time>
      </trkpt>
      <trkpt lat="44.3249" lon="3.67073">
        <ele>1043.17</ele>
        <time>2022-08-07T09:15:23Z</time>
      </trkpt>
      <trkpt lat="44.32489" lon="3.67046">
        <ele>1043.65</ele>
        <time>2022-08-07T09:15:39Z</time>
      </trkpt>
      <trkpt lat="44.32477" lon="3.6703">
        <ele>1043.17</ele>
        <time>2022-08-07T09:15:53Z</time>
      </trkpt>
      <trkpt lat="44.32471" lon="3.67019">
        <ele>1043.65</ele>
        <time>2022-08-07T09:16:01Z</time>
      </trkpt>
      <trkpt lat="44.32467" lon="3.67">
        <ele>1043.65</ele>
        <time>2022-08-07T09:16:12Z</time>
      </trkpt>
      <trkpt lat="44.3246" lon="3.66971">
        <ele>1040.76</ele>
        <time>2022-08-07T09:16:30Z</time>
      </trkpt>
      <trkpt lat="44.32461" lon="3.66947">
        <ele>1041.25</ele>
        <time>2022-08-07T09:16:44Z</time>
      </trkpt>
      <trkpt lat="44.32465" lon="3.66922">
        <ele>1042.21</ele>
        <time>2022-08-07T09:16:59Z</time>
      </trkpt>
      <trkpt lat="44.32465" lon="3.66899">
        <ele>1043.65</ele>
        <time>2022-08-07T09:17:14Z</time>
      </trkpt>
      <trkpt lat="44.32469" lon="3.66875">
        <ele>1041.73</ele>
        <time>2022-08-07T09:17:29Z</time>
      </trkpt>
      <trkpt lat="44.32472" lon="3.66852">
        <ele>1042.69</ele>
        <time>2022-08-07T09:17:43Z</time>
      </trkpt>
      <trkpt lat="44.3248" lon="3.66824">
        <ele>1042.21</ele>
        <time>2022-08-07T09:17:58Z</time>
      </trkpt>
      <trkpt lat="44.3248" lon="3.66822">
        <ele>1041.73</ele>
        <time>2022-08-07T09:17:59Z</time>
      </trkpt>
      <trkpt lat="44.32479" lon="3.6682">
        <ele>1041.25</ele>
        <time>2022-08-07T09:18:01Z</time>
      </trkpt>
      <trkpt lat="44.32478" lon="3.66807">
        <ele>1040.28</ele>
        <time>2022-08-07T09:18:09Z</time>
      </trkpt>
      <trkpt lat="44.32478" lon="3.66795">
        <ele>1038.84</ele>
        <time>2022-08-07T09:18:16Z</time>
      </trkpt>
      <trkpt lat="44.32478" lon="3.66783">
        <ele>1037.88</ele>
        <time>2022-08-07T09:18:23Z</time>
      </trkpt>
      <trkpt lat="44.32478" lon="3.66765">
        <ele>1037.4</ele>
        <time>2022-08-07T09:18:34Z</time>
      </trkpt>
      <trkpt lat="44.32478" lon="3.66744">
        <ele>1036.44</ele>
        <time>2022-08-07T09:18:47Z</time>
      </trkpt>
      <trkpt lat="44.32481" lon="3.66729">
        <ele>1036.44</ele>
        <time>2022-08-07T09:18:55Z</time>
      </trkpt>
      <trkpt lat="44.32489" lon="3.66708">
        <ele>1036.44</ele>
        <time>2022-08-07T09:19:08Z</time>
      </trkpt>
      <trkpt lat="44.3249" lon="3.66704">
        <ele>1035.96</ele>
        <time>2022-08-07T09:19:11Z</time>
      </trkpt>
      <trkpt lat="44.32493" lon="3.66696">
        <ele>1036.44</ele>
        <time>2022-08-07T09:19:15Z</time>
      </trkpt>
      <trkpt lat="44.32498" lon="3.66684">
        <ele>1037.4</ele>
        <time>2022-08-07T09:19:24Z</time>
      </trkpt>
      <trkpt lat="44.32507" lon="3.66665">
        <ele>1040.28</ele>
        <time>2022-08-07T09:19:40Z</time>
      </trkpt>
      <trkpt lat="44.32511" lon="3.66653">
        <ele>1039.8</ele>
        <time>2022-08-07T09:19:50Z</time>
      </trkpt>
      <trkpt lat="44.32514" lon="3.66648">
        <ele>1039.8</ele>
        <time>2022-08-07T09:19:54Z</time>
      </trkpt>
      <trkpt lat="44.32523" lon="3.66626">
        <ele>1041.25</ele>
        <time>2022-08-07T09:20:10Z</time>
      </trkpt>
      <trkpt lat="44.32534" lon="3.66606">
        <ele>1042.21</ele>
        <time>2022-08-07T09:20:24Z</time>
      </trkpt>
      <trkpt lat="44.32542" lon="3.66594">
        <ele>1041.73</ele>
        <time>2022-08-07T09:20:35Z</time>
      </trkpt>
      <trkpt lat="44.32549" lon="3.66579">
        <ele>1041.25</ele>
        <time>2022-08-07T09:20:46Z</time>
      </trkpt>
      <trkpt lat="44.32563" lon="3.66558">
        <ele>1042.69</ele>
        <time>2022-08-07T09:21:01Z</time>
      </trkpt>
      <trkpt lat="44.32569" lon="3.66545">
        <ele>1042.69</ele>
        <time>2022-08-07T09:21:12Z</time>
      </trkpt>
      <trkpt lat="44.32576" lon="3.6653">
        <ele>1042.69</ele>
        <time>2022-08-07T09:21:25Z</time>
      </trkpt>
      <trkpt lat="44.32586" lon="3.66512">
        <ele>1042.69</ele>
        <time>2022-08-07T09:21:37Z</time>
      </trkpt>
      <trkpt lat="44.32599" lon="3.66496">
        <ele>1045.09</ele>
        <time>2022-08-07T09:21:48Z</time>
      </trkpt>
      <trkpt lat="44.32611" lon="3.66478">
        <ele>1047.97</ele>
        <time>2022-08-07T09:22:01Z</time>
      </trkpt>
      <trkpt lat="44.32622" lon="3.66462">
        <ele>1047.01</ele>
        <time>2022-08-07T09:22:14Z</time>
      </trkpt>
      <trkpt lat="44.3263" lon="3.66447">
        <ele>1047.01</ele>
        <time>2022-08-07T09:22:27Z</time>
      </trkpt>
      <trkpt lat="44.3264" lon="3.66427">
        <ele>1047.01</ele>
        <time>2022-08-07T09:22:41Z</time>
      </trkpt>
      <trkpt lat="44.32641" lon="3.66424">
        <ele>1046.53</ele>
        <time>2022-08-07T09:22:43Z</time>
      </trkpt>
      <trkpt lat="44.32647" lon="3.66413">
        <ele>1047.01</ele>
        <time>2022-08-07T09:22:50Z</time>
      </trkpt>
      <trkpt lat="44.32656" lon="3.66393">
        <ele>1046.53</ele>
        <time>2022-08-07T09:23:04Z</time>
      </trkpt>
      <trkpt lat="44.32667" lon="3.66373">
        <ele>1046.05</ele>
        <time>2022-08-07T09:23:19Z</time>
      </trkpt>
      <trkpt lat="44.32683" lon="3.66352">
        <ele>1045.09</ele>
        <time>2022-08-07T09:23:32Z</time>
      </trkpt>
      <trkpt lat="44.32695" lon="3.66338">
        <ele>1043.65</ele>
        <time>2022-08-07T09:23:47Z</time>
      </trkpt>
      <trkpt lat="44.32735" lon="3.66326">
        <ele>1040.76</ele>
        <time>2022-08-07T09:24:24Z</time>
      </trkpt>
      <trkpt lat="44.32758" lon="3.66333">
        <ele>1044.61</ele>
        <time>2022-08-07T09:24:40Z</time>
      </trkpt>
      <trkpt lat="44.32776" lon="3.66333">
        <ele>1044.13</ele>
        <time>2022-08-07T09:24:59Z</time>
      </trkpt>
      <trkpt lat="44.3279" lon="3.66314">
        <ele>1040.28</ele>
        <time>2022-08-07T09:25:15Z</time>
      </trkpt>
      <trkpt lat="44.328" lon="3.6629">
        <ele>1036.44</ele>
        <time>2022-08-07T09:25:28Z</time>
      </trkpt>
      <trkpt lat="44.32802" lon="3.6628">
        <ele>1034.04</ele>
        <time>2022-08-07T09:25:34Z</time>
      </trkpt>
      <trkpt lat="44.32804" lon="3.66272">
        <ele>1032.59</ele>
        <time>2022-08-07T09:25:38Z</time>
      </trkpt>
      <trkpt lat="44.32805" lon="3.66264">
        <ele>1032.11</ele>
        <time>2022-08-07T09:25:42Z</time>
      </trkpt>
      <trkpt lat="44.32809" lon="3.66245">
        <ele>1031.15</ele>
        <time>2022-08-07T09:25:55Z</time>
      </trkpt>
      <trkpt lat="44.32816" lon="3.66229">
        <ele>1030.67</ele>
        <time>2022-08-07T09:26:06Z</time>
      </trkpt>
      <trkpt lat="44.32823" lon="3.66224">
        <ele>1031.15</ele>
        <time>2022-08-07T09:26:21Z</time>
      </trkpt>
      <trkpt lat="44.32824" lon="3.6622">
        <ele>1032.59</ele>
        <time>2022-08-07T09:26:44Z</time>
      </trkpt>
      <trkpt lat="44.32823" lon="3.66219">
        <ele>1032.11</ele>
        <time>2022-08-07T09:26:59Z</time>
      </trkpt>
      <trkpt lat="44.32821" lon="3.66219">
        <ele>1030.67</ele>
        <time>2022-08-07T09:27:20Z</time>
      </trkpt>
      <trkpt lat="44.3282" lon="3.66221">
        <ele>1029.71</ele>
        <time>2022-08-07T09:27:45Z</time>
      </trkpt>
      <trkpt lat="44.32819" lon="3.66223">
        <ele>1029.71</ele>
        <time>2022-08-07T09:28:06Z</time>
      </trkpt>
      <trkpt lat="44.3282" lon="3.66201">
        <ele>1030.67</ele>
        <time>2022-08-07T09:28:19Z</time>
      </trkpt>
      <trkpt lat="44.32819" lon="3.66198">
        <ele>1030.67</ele>
        <time>2022-08-07T09:28:22Z</time>
      </trkpt>
      <trkpt lat="44.32817" lon="3.66187">
        <ele>1031.15</ele>
        <time>2022-08-07T09:28:29Z</time>
      </trkpt>
      <trkpt lat="44.32813" lon="3.66169">
        <ele>1029.71</ele>
        <time>2022-08-07T09:28:40Z</time>
      </trkpt>
      <trkpt lat="44.32813" lon="3.66154">
        <ele>1030.19</ele>
        <time>2022-08-07T09:28:48Z</time>
      </trkpt>
      <trkpt lat="44.32812" lon="3.66149">
        <ele>1030.67</ele>
        <time>2022-08-07T09:28:51Z</time>
      </trkpt>
      <trkpt lat="44.32813" lon="3.66139">
        <ele>1031.15</ele>
        <time>2022-08-07T09:28:57Z</time>
      </trkpt>
      <trkpt lat="44.32812" lon="3.66129">
        <ele>1031.63</ele>
        <time>2022-08-07T09:29:03Z</time>
      </trkpt>
      <trkpt lat="44.32813" lon="3.66107">
        <ele>1032.11</ele>
        <time>2022-08-07T09:29:17Z</time>
      </trkpt>
      <trkpt lat="44.32814" lon="3.66088">
        <ele>1032.11</ele>
        <time>2022-08-07T09:29:30Z</time>
      </trkpt>
      <trkpt lat="44.32819" lon="3.66079">
        <ele>1031.63</ele>
        <time>2022-08-07T09:29:41Z</time>
      </trkpt>
      <trkpt lat="44.32823" lon="3.66074">
        <ele>1031.63</ele>
        <time>2022-08-07T09:29:46Z</time>
      </trkpt>
      <trkpt lat="44.32833" lon="3.66063">
        <ele>1032.11</ele>
        <time>2022-08-07T09:29:56Z</time>
      </trkpt>
      <trkpt lat="44.32837" lon="3.66057">
        <ele>1033.07</ele>
        <time>2022-08-07T09:30:06Z</time>
      </trkpt>
      <trkpt lat="44.32845" lon="3.66037">
        <ele>1030.67</ele>
        <time>2022-08-07T09:30:21Z</time>
      </trkpt>
      <trkpt lat="44.32847" lon="3.66033">
        <ele>1029.23</ele>
        <time>2022-08-07T09:30:25Z</time>
      </trkpt>
      <trkpt lat="44.32855" lon="3.66015">
        <ele>1027.79</ele>
        <time>2022-08-07T09:30:38Z</time>
      </trkpt>
      <trkpt lat="44.32862" lon="3.65991">
        <ele>1026.34</ele>
        <time>2022-08-07T09:30:53Z</time>
      </trkpt>
      <trkpt lat="44.32865" lon="3.65979">
        <ele>1026.34</ele>
        <time>2022-08-07T09:31:01Z</time>
      </trkpt>
      <trkpt lat="44.32867" lon="3.65975">
        <ele>1026.34</ele>
        <time>2022-08-07T09:31:04Z</time>
      </trkpt>
      <trkpt lat="44.32876" lon="3.65956">
        <ele>1026.83</ele>
        <time>2022-08-07T09:31:17Z</time>
      </trkpt>
      <trkpt lat="44.32881" lon="3.65947">
        <ele>1027.79</ele>
        <time>2022-08-07T09:31:24Z</time>
      </trkpt>
      <trkpt lat="44.32889" lon="3.65925">
        <ele>1026.34</ele>
        <time>2022-08-07T09:31:38Z</time>
      </trkpt>
      <trkpt lat="44.32899" lon="3.65902">
        <ele>1026.34</ele>
        <time>2022-08-07T09:31:53Z</time>
      </trkpt>
      <trkpt lat="44.32901" lon="3.65873">
        <ele>1025.38</ele>
        <time>2022-08-07T09:32:09Z</time>
      </trkpt>
      <trkpt lat="44.329" lon="3.65864">
        <ele>1025.38</ele>
        <time>2022-08-07T09:32:14Z</time>
      </trkpt>
      <trkpt lat="44.32897" lon="3.65845">
        <ele>1024.9</ele>
        <time>2022-08-07T09:32:25Z</time>
      </trkpt>
      <trkpt lat="44.32896" lon="3.65821">
        <ele>1025.38</ele>
        <time>2022-08-07T09:32:39Z</time>
      </trkpt>
      <trkpt lat="44.32897" lon="3.65818">
        <ele>1024.9</ele>
        <time>2022-08-07T09:32:41Z</time>
      </trkpt>
      <trkpt lat="44.32898" lon="3.65815">
        <ele>1024.9</ele>
        <time>2022-08-07T09:32:43Z</time>
      </trkpt>
      <trkpt lat="44.32902" lon="3.65806">
        <ele>1024.9</ele>
        <time>2022-08-07T09:32:50Z</time>
      </trkpt>
      <trkpt lat="44.32915" lon="3.65787">
        <ele>1024.9</ele>
        <time>2022-08-07T09:33:03Z</time>
      </trkpt>
      <trkpt lat="44.32917" lon="3.65781">
        <ele>1025.38</ele>
        <time>2022-08-07T09:33:07Z</time>
      </trkpt>
      <trkpt lat="44.3292" lon="3.65754">
        <ele>1025.86</ele>
        <time>2022-08-07T09:33:23Z</time>
      </trkpt>
      <trkpt lat="44.32926" lon="3.65729">
        <ele>1026.34</ele>
        <time>2022-08-07T09:33:38Z</time>
      </trkpt>
      <trkpt lat="44.32933" lon="3.65707">
        <ele>1022.5</ele>
        <time>2022-08-07T09:33:52Z</time>
      </trkpt>
      <trkpt lat="44.32931" lon="3.65683">
        <ele>1020.58</ele>
        <time>2022-08-07T09:34:06Z</time>
      </trkpt>
      <trkpt lat="44.32927" lon="3.65656">
        <ele>1019.62</ele>
        <time>2022-08-07T09:34:22Z</time>
      </trkpt>
      <trkpt lat="44.32921" lon="3.65632">
        <ele>1019.62</ele>
        <time>2022-08-07T09:34:37Z</time>
      </trkpt>
      <trkpt lat="44.32915" lon="3.6561">
        <ele>1018.17</ele>
        <time>2022-08-07T09:34:52Z</time>
      </trkpt>
      <trkpt lat="44.32906" lon="3.65586">
        <ele>1013.85</ele>
        <time>2022-08-07T09:35:07Z</time>
      </trkpt>
      <trkpt lat="44.32901" lon="3.65577">
        <ele>1012.41</ele>
        <time>2022-08-07T09:35:14Z</time>
      </trkpt>
      <trkpt lat="44.32886" lon="3.65561">
        <ele>1012.41</ele>
        <time>2022-08-07T09:35:30Z</time>
      </trkpt>
      <trkpt lat="44.32882" lon="3.65557">
        <ele>1012.41</ele>
        <time>2022-08-07T09:35:34Z</time>
      </trkpt>
      <trkpt lat="44.32869" lon="3.65533">
        <ele>1012.89</ele>
        <time>2022-08-07T09:35:49Z</time>
      </trkpt>
      <trkpt lat="44.32864" lon="3.65511">
        <ele>1012.89</ele>
        <time>2022-08-07T09:36:02Z</time>
      </trkpt>
      <trkpt lat="44.32863" lon="3.65492">
        <ele>1011.44</ele>
        <time>2022-08-07T09:36:14Z</time>
      </trkpt>
      <trkpt lat="44.32857" lon="3.65471">
        <ele>1010.48</ele>
        <time>2022-08-07T09:36:27Z</time>
      </trkpt>
      <trkpt lat="44.32851" lon="3.65448">
        <ele>1009.52</ele>
        <time>2022-08-07T09:36:42Z</time>
      </trkpt>
      <trkpt lat="44.32848" lon="3.6543">
        <ele>1005.68</ele>
        <time>2022-08-07T09:36:54Z</time>
      </trkpt>
      <trkpt lat="44.32844" lon="3.65413">
        <ele>1003.27</ele>
        <time>2022-08-07T09:37:04Z</time>
      </trkpt>
      <trkpt lat="44.32837" lon="3.65389">
        <ele>1002.79</ele>
        <time>2022-08-07T09:37:19Z</time>
      </trkpt>
      <trkpt lat="44.32835" lon="3.65365">
        <ele>1003.27</ele>
        <time>2022-08-07T09:37:33Z</time>
      </trkpt>
      <trkpt lat="44.32835" lon="3.65358">
        <ele>1003.75</ele>
        <time>2022-08-07T09:37:37Z</time>
      </trkpt>
      <trkpt lat="44.32836" lon="3.65352">
        <ele>1003.75</ele>
        <time>2022-08-07T09:37:41Z</time>
      </trkpt>
      <trkpt lat="44.32845" lon="3.65333">
        <ele>1001.83</ele>
        <time>2022-08-07T09:37:55Z</time>
      </trkpt>
      <trkpt lat="44.32862" lon="3.65319">
        <ele>1001.35</ele>
        <time>2022-08-07T09:38:11Z</time>
      </trkpt>
      <trkpt lat="44.32875" lon="3.65306">
        <ele>1001.35</ele>
        <time>2022-08-07T09:38:25Z</time>
      </trkpt>
      <trkpt lat="44.32889" lon="3.6529">
        <ele>1000.87</ele>
        <time>2022-08-07T09:38:43Z</time>
      </trkpt>
      <trkpt lat="44.32901" lon="3.6528">
        <ele>1002.31</ele>
        <time>2022-08-07T09:38:56Z</time>
      </trkpt>
      <trkpt lat="44.32918" lon="3.65267">
        <ele>1004.23</ele>
        <time>2022-08-07T09:39:10Z</time>
      </trkpt>
      <trkpt lat="44.32932" lon="3.65256">
        <ele>1005.2</ele>
        <time>2022-08-07T09:39:24Z</time>
      </trkpt>
      <trkpt lat="44.32942" lon="3.6524">
        <ele>1004.23</ele>
        <time>2022-08-07T09:39:35Z</time>
      </trkpt>
      <trkpt lat="44.32952" lon="3.65221">
        <ele>1001.83</ele>
        <time>2022-08-07T09:39:47Z</time>
      </trkpt>
      <trkpt lat="44.32966" lon="3.65204">
        <ele>1001.83</ele>
        <time>2022-08-07T09:40:00Z</time>
      </trkpt>
      <trkpt lat="44.32976" lon="3.65183">
        <ele>1000.87</ele>
        <time>2022-08-07T09:40:15Z</time>
      </trkpt>
      <trkpt lat="44.32981" lon="3.65176">
        <ele>999.91</ele>
        <time>2022-08-07T09:40:21Z</time>
      </trkpt>
      <trkpt lat="44.32993" lon="3.65151">
        <ele>997.99</ele>
        <time>2022-08-07T09:40:37Z</time>
      </trkpt>
      <trkpt lat="44.32993" lon="3.65135">
        <ele>995.58</ele>
        <time>2022-08-07T09:40:46Z</time>
      </trkpt>
      <trkpt lat="44.32992" lon="3.65109">
        <ele>996.06</ele>
        <time>2022-08-07T09:41:00Z</time>
      </trkpt>
      <trkpt lat="44.3299" lon="3.65082">
        <ele>994.14</ele>
        <time>2022-08-07T09:41:16Z</time>
      </trkpt>
      <trkpt lat="44.3299" lon="3.65078">
        <ele>994.14</ele>
        <time>2022-08-07T09:41:18Z</time>
      </trkpt>
      <trkpt lat="44.32983" lon="3.65056">
        <ele>989.81</ele>
        <time>2022-08-07T09:41:36Z</time>
      </trkpt>
      <trkpt lat="44.32971" lon="3.65044">
        <ele>981.64</ele>
        <time>2022-08-07T09:41:52Z</time>
      </trkpt>
      <trkpt lat="44.32952" lon="3.65024">
        <ele>981.64</ele>
        <time>2022-08-07T09:42:08Z</time>
      </trkpt>
      <trkpt lat="44.32936" lon="3.65004">
        <ele>977.8</ele>
        <time>2022-08-07T09:42:25Z</time>
      </trkpt>
      <trkpt lat="44.3292" lon="3.64988">
        <ele>972.51</ele>
        <time>2022-08-07T09:42:42Z</time>
      </trkpt>
      <trkpt lat="44.32908" lon="3.64971">
        <ele>967.7</ele>
        <time>2022-08-07T09:42:57Z</time>
      </trkpt>
      <trkpt lat="44.32893" lon="3.64951">
        <ele>965.3</ele>
        <time>2022-08-07T09:43:14Z</time>
      </trkpt>
      <trkpt lat="44.3288" lon="3.64927">
        <ele>970.11</ele>
        <time>2022-08-07T09:43:28Z</time>
      </trkpt>
      <trkpt lat="44.32872" lon="3.64907">
        <ele>973.47</ele>
        <time>2022-08-07T09:43:43Z</time>
      </trkpt>
      <trkpt lat="44.32871" lon="3.64881">
        <ele>967.7</ele>
        <time>2022-08-07T09:44:00Z</time>
      </trkpt>
      <trkpt lat="44.32873" lon="3.64859">
        <ele>961.46</ele>
        <time>2022-08-07T09:44:14Z</time>
      </trkpt>
      <trkpt lat="44.32877" lon="3.6484">
        <ele>956.17</ele>
        <time>2022-08-07T09:44:27Z</time>
      </trkpt>
      <trkpt lat="44.32875" lon="3.64835">
        <ele>956.65</ele>
        <time>2022-08-07T09:44:29Z</time>
      </trkpt>
      <trkpt lat="44.32869" lon="3.64798">
        <ele>963.38</ele>
        <time>2022-08-07T09:44:46Z</time>
      </trkpt>
      <trkpt lat="44.3287" lon="3.64777">
        <ele>965.78</ele>
        <time>2022-08-07T09:44:57Z</time>
      </trkpt>
      <trkpt lat="44.32877" lon="3.64755">
        <ele>966.26</ele>
        <time>2022-08-07T09:45:12Z</time>
      </trkpt>
      <trkpt lat="44.32883" lon="3.64732">
        <ele>967.7</ele>
        <time>2022-08-07T09:45:26Z</time>
      </trkpt>
      <trkpt lat="44.32888" lon="3.64712">
        <ele>967.22</ele>
        <time>2022-08-07T09:45:39Z</time>
      </trkpt>
      <trkpt lat="44.32903" lon="3.64692">
        <ele>965.3</ele>
        <time>2022-08-07T09:45:55Z</time>
      </trkpt>
      <trkpt lat="44.32916" lon="3.64674">
        <ele>963.86</ele>
        <time>2022-08-07T09:46:10Z</time>
      </trkpt>
      <trkpt lat="44.32933" lon="3.64657">
        <ele>965.78</ele>
        <time>2022-08-07T09:46:27Z</time>
      </trkpt>
      <trkpt lat="44.32948" lon="3.64637">
        <ele>966.74</ele>
        <time>2022-08-07T09:46:43Z</time>
      </trkpt>
      <trkpt lat="44.32962" lon="3.64615">
        <ele>967.22</ele>
        <time>2022-08-07T09:46:59Z</time>
      </trkpt>
      <trkpt lat="44.32972" lon="3.64599">
        <ele>966.74</ele>
        <time>2022-08-07T09:47:11Z</time>
      </trkpt>
      <trkpt lat="44.32976" lon="3.64592">
        <ele>965.78</ele>
        <time>2022-08-07T09:47:15Z</time>
      </trkpt>
      <trkpt lat="44.3298" lon="3.64579">
        <ele>963.86</ele>
        <time>2022-08-07T09:47:23Z</time>
      </trkpt>
      <trkpt lat="44.3298" lon="3.64574">
        <ele>963.38</ele>
        <time>2022-08-07T09:47:26Z</time>
      </trkpt>
      <trkpt lat="44.32985" lon="3.64553">
        <ele>960.01</ele>
        <time>2022-08-07T09:47:38Z</time>
      </trkpt>
      <trkpt lat="44.32988" lon="3.64526">
        <ele>957.13</ele>
        <time>2022-08-07T09:47:54Z</time>
      </trkpt>
      <trkpt lat="44.3299" lon="3.64514">
        <ele>955.21</ele>
        <time>2022-08-07T09:48:01Z</time>
      </trkpt>
      <trkpt lat="44.32989" lon="3.64506">
        <ele>954.73</ele>
        <time>2022-08-07T09:48:05Z</time>
      </trkpt>
      <trkpt lat="44.32989" lon="3.645">
        <ele>954.25</ele>
        <time>2022-08-07T09:48:09Z</time>
      </trkpt>
      <trkpt lat="44.32986" lon="3.64474">
        <ele>951.36</ele>
        <time>2022-08-07T09:48:25Z</time>
      </trkpt>
      <trkpt lat="44.32983" lon="3.64452">
        <ele>948</ele>
        <time>2022-08-07T09:48:38Z</time>
      </trkpt>
      <trkpt lat="44.32978" lon="3.64426">
        <ele>948.96</ele>
        <time>2022-08-07T09:48:52Z</time>
      </trkpt>
      <trkpt lat="44.32974" lon="3.64402">
        <ele>949.92</ele>
        <time>2022-08-07T09:49:05Z</time>
      </trkpt>
      <trkpt lat="44.32968" lon="3.64374">
        <ele>949.44</ele>
        <time>2022-08-07T09:49:21Z</time>
      </trkpt>
      <trkpt lat="44.32968" lon="3.64369">
        <ele>949.44</ele>
        <time>2022-08-07T09:49:24Z</time>
      </trkpt>
      <trkpt lat="44.3296" lon="3.64344">
        <ele>949.44</ele>
        <time>2022-08-07T09:49:39Z</time>
      </trkpt>
      <trkpt lat="44.32952" lon="3.6432">
        <ele>948.96</ele>
        <time>2022-08-07T09:49:54Z</time>
      </trkpt>
      <trkpt lat="44.32939" lon="3.64292">
        <ele>949.44</ele>
        <time>2022-08-07T09:50:11Z</time>
      </trkpt>
      <trkpt lat="44.32929" lon="3.64265">
        <ele>948</ele>
        <time>2022-08-07T09:50:27Z</time>
      </trkpt>
      <trkpt lat="44.32921" lon="3.64247">
        <ele>947.52</ele>
        <time>2022-08-07T09:50:40Z</time>
      </trkpt>
      <trkpt lat="44.32914" lon="3.64226">
        <ele>949.44</ele>
        <time>2022-08-07T09:50:55Z</time>
      </trkpt>
      <trkpt lat="44.32905" lon="3.64206">
        <ele>948.48</ele>
        <time>2022-08-07T09:51:08Z</time>
      </trkpt>
      <trkpt lat="44.32902" lon="3.6418">
        <ele>947.52</ele>
        <time>2022-08-07T09:51:23Z</time>
      </trkpt>
      <trkpt lat="44.32902" lon="3.64167">
        <ele>946.56</ele>
        <time>2022-08-07T09:51:29Z</time>
      </trkpt>
      <trkpt lat="44.32903" lon="3.6414">
        <ele>948.96</ele>
        <time>2022-08-07T09:51:45Z</time>
      </trkpt>
      <trkpt lat="44.32908" lon="3.64118">
        <ele>948</ele>
        <time>2022-08-07T09:51:58Z</time>
      </trkpt>
      <trkpt lat="44.32906" lon="3.64108">
        <ele>947.52</ele>
        <time>2022-08-07T09:52:11Z</time>
      </trkpt>
      <trkpt lat="44.32906" lon="3.6409">
        <ele>946.07</ele>
        <time>2022-08-07T09:52:23Z</time>
      </trkpt>
      <trkpt lat="44.32907" lon="3.64078">
        <ele>945.59</ele>
        <time>2022-08-07T09:52:30Z</time>
      </trkpt>
      <trkpt lat="44.32905" lon="3.64071">
        <ele>945.59</ele>
        <time>2022-08-07T09:52:34Z</time>
      </trkpt>
      <trkpt lat="44.32908" lon="3.64052">
        <ele>944.15</ele>
        <time>2022-08-07T09:52:43Z</time>
      </trkpt>
      <trkpt lat="44.32908" lon="3.64048">
        <ele>944.15</ele>
        <time>2022-08-07T09:52:45Z</time>
      </trkpt>
      <trkpt lat="44.32908" lon="3.64034">
        <ele>943.19</ele>
        <time>2022-08-07T09:52:53Z</time>
      </trkpt>
      <trkpt lat="44.32909" lon="3.64029">
        <ele>943.19</ele>
        <time>2022-08-07T09:52:56Z</time>
      </trkpt>
      <trkpt lat="44.32909" lon="3.64026">
        <ele>942.71</ele>
        <time>2022-08-07T09:52:58Z</time>
      </trkpt>
      <trkpt lat="44.3291" lon="3.64021">
        <ele>942.71</ele>
        <time>2022-08-07T09:53:01Z</time>
      </trkpt>
      <trkpt lat="44.3291" lon="3.64004">
        <ele>941.75</ele>
        <time>2022-08-07T09:53:11Z</time>
      </trkpt>
      <trkpt lat="44.32911" lon="3.64">
        <ele>941.27</ele>
        <time>2022-08-07T09:53:13Z</time>
      </trkpt>
      <trkpt lat="44.32912" lon="3.63977">
        <ele>940.31</ele>
        <time>2022-08-07T09:53:27Z</time>
      </trkpt>
      <trkpt lat="44.32912" lon="3.63976">
        <ele>940.31</ele>
        <time>2022-08-07T09:53:28Z</time>
      </trkpt>
      <trkpt lat="44.32914" lon="3.63952">
        <ele>938.86</ele>
        <time>2022-08-07T09:53:43Z</time>
      </trkpt>
      <trkpt lat="44.32912" lon="3.63925">
        <ele>936.46</ele>
        <time>2022-08-07T09:53:58Z</time>
      </trkpt>
      <trkpt lat="44.32911" lon="3.6391">
        <ele>935.98</ele>
        <time>2022-08-07T09:54:07Z</time>
      </trkpt>
      <trkpt lat="44.32911" lon="3.63888">
        <ele>934.54</ele>
        <time>2022-08-07T09:54:19Z</time>
      </trkpt>
      <trkpt lat="44.32912" lon="3.63866">
        <ele>933.58</ele>
        <time>2022-08-07T09:54:31Z</time>
      </trkpt>
      <trkpt lat="44.32914" lon="3.63845">
        <ele>932.62</ele>
        <time>2022-08-07T09:54:43Z</time>
      </trkpt>
      <trkpt lat="44.32917" lon="3.63822">
        <ele>927.81</ele>
        <time>2022-08-07T09:54:57Z</time>
      </trkpt>
      <trkpt lat="44.32918" lon="3.63805">
        <ele>926.37</ele>
        <time>2022-08-07T09:55:11Z</time>
      </trkpt>
      <trkpt lat="44.32919" lon="3.63806">
        <ele>927.33</ele>
        <time>2022-08-07T09:55:29Z</time>
      </trkpt>
      <trkpt lat="44.32919" lon="3.63804">
        <ele>926.85</ele>
        <time>2022-08-07T09:55:50Z</time>
      </trkpt>
      <trkpt lat="44.32919" lon="3.63801">
        <ele>926.37</ele>
        <time>2022-08-07T09:56:30Z</time>
      </trkpt>
      <trkpt lat="44.32922" lon="3.63798">
        <ele>924.45</ele>
        <time>2022-08-07T09:57:13Z</time>
      </trkpt>
      <trkpt lat="44.32921" lon="3.63798">
        <ele>923.96</ele>
        <time>2022-08-07T09:57:57Z</time>
      </trkpt>
      <trkpt lat="44.32912" lon="3.63797">
        <ele>928.29</ele>
        <time>2022-08-07T09:58:43Z</time>
      </trkpt>
      <trkpt lat="44.32916" lon="3.63791">
        <ele>929.73</ele>
        <time>2022-08-07T09:59:30Z</time>
      </trkpt>
      <trkpt lat="44.32913" lon="3.63795">
        <ele>930.21</ele>
        <time>2022-08-07T10:00:12Z</time>
      </trkpt>
      <trkpt lat="44.32917" lon="3.63796">
        <ele>933.58</ele>
        <time>2022-08-07T10:00:48Z</time>
      </trkpt>
      <trkpt lat="44.32913" lon="3.63797">
        <ele>936.46</ele>
        <time>2022-08-07T10:01:26Z</time>
      </trkpt>
      <trkpt lat="44.32911" lon="3.63799">
        <ele>934.54</ele>
        <time>2022-08-07T10:02:14Z</time>
      </trkpt>
      <trkpt lat="44.32905" lon="3.63791">
        <ele>927.33</ele>
        <time>2022-08-07T10:03:00Z</time>
      </trkpt>
      <trkpt lat="44.32915" lon="3.638">
        <ele>923.48</ele>
        <time>2022-08-07T10:03:44Z</time>
      </trkpt>
      <trkpt lat="44.32926" lon="3.63788">
        <ele>934.06</ele>
        <time>2022-08-07T10:04:24Z</time>
      </trkpt>
      <trkpt lat="44.32924" lon="3.63788">
        <ele>936.94</ele>
        <time>2022-08-07T10:05:07Z</time>
      </trkpt>
      <trkpt lat="44.32927" lon="3.63791">
        <ele>935.02</ele>
        <time>2022-08-07T10:05:45Z</time>
      </trkpt>
      <trkpt lat="44.3292" lon="3.6379">
        <ele>937.9</ele>
        <time>2022-08-07T10:06:18Z</time>
      </trkpt>
      <trkpt lat="44.32922" lon="3.63791">
        <ele>939.35</ele>
        <time>2022-08-07T10:06:52Z</time>
      </trkpt>
      <trkpt lat="44.32927" lon="3.63794">
        <ele>938.38</ele>
        <time>2022-08-07T10:07:36Z</time>
      </trkpt>
      <trkpt lat="44.32934" lon="3.63789">
        <ele>938.86</ele>
        <time>2022-08-07T10:08:12Z</time>
      </trkpt>
      <trkpt lat="44.32928" lon="3.63797">
        <ele>929.25</ele>
        <time>2022-08-07T10:08:49Z</time>
      </trkpt>
      <trkpt lat="44.32911" lon="3.63792">
        <ele>927.33</ele>
        <time>2022-08-07T10:09:28Z</time>
      </trkpt>
      <trkpt lat="44.32916" lon="3.63804">
        <ele>930.21</ele>
        <time>2022-08-07T10:09:44Z</time>
      </trkpt>
      <trkpt lat="44.32919" lon="3.63804">
        <ele>928.77</ele>
        <time>2022-08-07T10:10:02Z</time>
      </trkpt>
      <trkpt lat="44.32923" lon="3.63802">
        <ele>929.25</ele>
        <time>2022-08-07T10:10:21Z</time>
      </trkpt>
      <trkpt lat="44.32924" lon="3.63791">
        <ele>927.33</ele>
        <time>2022-08-07T10:10:32Z</time>
      </trkpt>
      <trkpt lat="44.32931" lon="3.63772">
        <ele>928.77</ele>
        <time>2022-08-07T10:10:46Z</time>
      </trkpt>
      <trkpt lat="44.3294" lon="3.63752">
        <ele>928.77</ele>
        <time>2022-08-07T10:11:02Z</time>
      </trkpt>
      <trkpt lat="44.32949" lon="3.63735">
        <ele>924.93</ele>
        <time>2022-08-07T10:11:16Z</time>
      </trkpt>
      <trkpt lat="44.32951" lon="3.63733">
        <ele>924.93</ele>
        <time>2022-08-07T10:11:18Z</time>
      </trkpt>
      <trkpt lat="44.32959" lon="3.63715">
        <ele>922.52</ele>
        <time>2022-08-07T10:11:30Z</time>
      </trkpt>
      <trkpt lat="44.3296" lon="3.63711">
        <ele>921.08</ele>
        <time>2022-08-07T10:11:34Z</time>
      </trkpt>
      <trkpt lat="44.32964" lon="3.63687">
        <ele>918.2</ele>
        <time>2022-08-07T10:11:49Z</time>
      </trkpt>
      <trkpt lat="44.32967" lon="3.63676">
        <ele>918.2</ele>
        <time>2022-08-07T10:11:56Z</time>
      </trkpt>
      <trkpt lat="44.32968" lon="3.63663">
        <ele>917.72</ele>
        <time>2022-08-07T10:12:04Z</time>
      </trkpt>
      <trkpt lat="44.3297" lon="3.6365">
        <ele>916.75</ele>
        <time>2022-08-07T10:12:11Z</time>
      </trkpt>
      <trkpt lat="44.3297" lon="3.63646">
        <ele>916.75</ele>
        <time>2022-08-07T10:12:14Z</time>
      </trkpt>
      <trkpt lat="44.32961" lon="3.63624">
        <ele>916.75</ele>
        <time>2022-08-07T10:12:27Z</time>
      </trkpt>
      <trkpt lat="44.32957" lon="3.6362">
        <ele>916.75</ele>
        <time>2022-08-07T10:12:31Z</time>
      </trkpt>
      <trkpt lat="44.32952" lon="3.63615">
        <ele>916.75</ele>
        <time>2022-08-07T10:12:36Z</time>
      </trkpt>
      <trkpt lat="44.32943" lon="3.63617">
        <ele>916.27</ele>
        <time>2022-08-07T10:12:48Z</time>
      </trkpt>
      <trkpt lat="44.32934" lon="3.63615">
        <ele>914.83</ele>
        <time>2022-08-07T10:13:08Z</time>
      </trkpt>
      <trkpt lat="44.32925" lon="3.63616">
        <ele>917.72</ele>
        <time>2022-08-07T10:13:35Z</time>
      </trkpt>
      <trkpt lat="44.32929" lon="3.63611">
        <ele>920.12</ele>
        <time>2022-08-07T10:13:58Z</time>
      </trkpt>
      <trkpt lat="44.32928" lon="3.63603">
        <ele>920.6</ele>
        <time>2022-08-07T10:14:30Z</time>
      </trkpt>
      <trkpt lat="44.32929" lon="3.636">
        <ele>928.29</ele>
        <time>2022-08-07T10:15:03Z</time>
      </trkpt>
      <trkpt lat="44.32924" lon="3.63604">
        <ele>927.81</ele>
        <time>2022-08-07T10:15:22Z</time>
      </trkpt>
      <trkpt lat="44.32923" lon="3.63603">
        <ele>926.37</ele>
        <time>2022-08-07T10:15:45Z</time>
      </trkpt>
      <trkpt lat="44.32917" lon="3.63594">
        <ele>923.48</ele>
        <time>2022-08-07T10:15:59Z</time>
      </trkpt>
      <trkpt lat="44.3291" lon="3.63576">
        <ele>923.96</ele>
        <time>2022-08-07T10:16:13Z</time>
      </trkpt>
      <trkpt lat="44.32905" lon="3.63563">
        <ele>922.04</ele>
        <time>2022-08-07T10:16:25Z</time>
      </trkpt>
      <trkpt lat="44.32891" lon="3.63544">
        <ele>914.83</ele>
        <time>2022-08-07T10:16:42Z</time>
      </trkpt>
      <trkpt lat="44.32887" lon="3.63542">
        <ele>910.99</ele>
        <time>2022-08-07T10:16:59Z</time>
      </trkpt>
      <trkpt lat="44.3289" lon="3.6354">
        <ele>912.43</ele>
        <time>2022-08-07T10:17:27Z</time>
      </trkpt>
      <trkpt lat="44.3288" lon="3.63523">
        <ele>910.51</ele>
        <time>2022-08-07T10:17:40Z</time>
      </trkpt>
      <trkpt lat="44.32872" lon="3.63508">
        <ele>908.1</ele>
        <time>2022-08-07T10:17:51Z</time>
      </trkpt>
      <trkpt lat="44.32868" lon="3.635">
        <ele>906.18</ele>
        <time>2022-08-07T10:17:57Z</time>
      </trkpt>
      <trkpt lat="44.32868" lon="3.63494">
        <ele>906.18</ele>
        <time>2022-08-07T10:18:00Z</time>
      </trkpt>
      <trkpt lat="44.32866" lon="3.63473">
        <ele>903.3</ele>
        <time>2022-08-07T10:18:13Z</time>
      </trkpt>
      <trkpt lat="44.32867" lon="3.63464">
        <ele>903.3</ele>
        <time>2022-08-07T10:18:18Z</time>
      </trkpt>
      <trkpt lat="44.32868" lon="3.63461">
        <ele>902.82</ele>
        <time>2022-08-07T10:18:20Z</time>
      </trkpt>
      <trkpt lat="44.32868" lon="3.63454">
        <ele>902.33</ele>
        <time>2022-08-07T10:18:24Z</time>
      </trkpt>
      <trkpt lat="44.32869" lon="3.63451">
        <ele>901.85</ele>
        <time>2022-08-07T10:18:26Z</time>
      </trkpt>
      <trkpt lat="44.3287" lon="3.63445">
        <ele>901.85</ele>
        <time>2022-08-07T10:18:30Z</time>
      </trkpt>
      <trkpt lat="44.32869" lon="3.63441">
        <ele>901.85</ele>
        <time>2022-08-07T10:18:32Z</time>
      </trkpt>
      <trkpt lat="44.3287" lon="3.6343">
        <ele>901.37</ele>
        <time>2022-08-07T10:18:39Z</time>
      </trkpt>
      <trkpt lat="44.32874" lon="3.63412">
        <ele>898.97</ele>
        <time>2022-08-07T10:18:50Z</time>
      </trkpt>
      <trkpt lat="44.32875" lon="3.63406">
        <ele>898.97</ele>
        <time>2022-08-07T10:18:53Z</time>
      </trkpt>
      <trkpt lat="44.32878" lon="3.63398">
        <ele>898.49</ele>
        <time>2022-08-07T10:18:58Z</time>
      </trkpt>
      <trkpt lat="44.3288" lon="3.63384">
        <ele>898.97</ele>
        <time>2022-08-07T10:19:06Z</time>
      </trkpt>
      <trkpt lat="44.3288" lon="3.63378">
        <ele>898.49</ele>
        <time>2022-08-07T10:19:09Z</time>
      </trkpt>
      <trkpt lat="44.32883" lon="3.63363">
        <ele>898.01</ele>
        <time>2022-08-07T10:19:18Z</time>
      </trkpt>
      <trkpt lat="44.32883" lon="3.63358">
        <ele>897.53</ele>
        <time>2022-08-07T10:19:21Z</time>
      </trkpt>
      <trkpt lat="44.32886" lon="3.63343">
        <ele>897.53</ele>
        <time>2022-08-07T10:19:30Z</time>
      </trkpt>
      <trkpt lat="44.32889" lon="3.63328">
        <ele>895.61</ele>
        <time>2022-08-07T10:19:39Z</time>
      </trkpt>
      <trkpt lat="44.32894" lon="3.63305">
        <ele>895.61</ele>
        <time>2022-08-07T10:19:52Z</time>
      </trkpt>
      <trkpt lat="44.32898" lon="3.63296">
        <ele>894.16</ele>
        <time>2022-08-07T10:19:58Z</time>
      </trkpt>
      <trkpt lat="44.32904" lon="3.63287">
        <ele>893.68</ele>
        <time>2022-08-07T10:20:05Z</time>
      </trkpt>
      <trkpt lat="44.32919" lon="3.63264">
        <ele>894.16</ele>
        <time>2022-08-07T10:20:21Z</time>
      </trkpt>
      <trkpt lat="44.32926" lon="3.63255">
        <ele>893.2</ele>
        <time>2022-08-07T10:20:29Z</time>
      </trkpt>
      <trkpt lat="44.32937" lon="3.63232">
        <ele>888.88</ele>
        <time>2022-08-07T10:20:45Z</time>
      </trkpt>
      <trkpt lat="44.32941" lon="3.63217">
        <ele>889.36</ele>
        <time>2022-08-07T10:20:56Z</time>
      </trkpt>
      <trkpt lat="44.32951" lon="3.63194">
        <ele>888.4</ele>
        <time>2022-08-07T10:21:11Z</time>
      </trkpt>
      <trkpt lat="44.32955" lon="3.63184">
        <ele>888.4</ele>
        <time>2022-08-07T10:21:18Z</time>
      </trkpt>
      <trkpt lat="44.32958" lon="3.63172">
        <ele>888.4</ele>
        <time>2022-08-07T10:21:25Z</time>
      </trkpt>
      <trkpt lat="44.32958" lon="3.63155">
        <ele>888.4</ele>
        <time>2022-08-07T10:21:36Z</time>
      </trkpt>
      <trkpt lat="44.32963" lon="3.63131">
        <ele>887.91</ele>
        <time>2022-08-07T10:21:52Z</time>
      </trkpt>
      <trkpt lat="44.32972" lon="3.6311">
        <ele>886.47</ele>
        <time>2022-08-07T10:22:05Z</time>
      </trkpt>
      <trkpt lat="44.32975" lon="3.63104">
        <ele>886.47</ele>
        <time>2022-08-07T10:22:09Z</time>
      </trkpt>
      <trkpt lat="44.32976" lon="3.63101">
        <ele>885.99</ele>
        <time>2022-08-07T10:22:11Z</time>
      </trkpt>
      <trkpt lat="44.32982" lon="3.63083">
        <ele>885.03</ele>
        <time>2022-08-07T10:22:23Z</time>
      </trkpt>
      <trkpt lat="44.32984" lon="3.6306">
        <ele>885.51</ele>
        <time>2022-08-07T10:22:37Z</time>
      </trkpt>
      <trkpt lat="44.3299" lon="3.63043">
        <ele>884.07</ele>
        <time>2022-08-07T10:22:49Z</time>
      </trkpt>
      <trkpt lat="44.33002" lon="3.63026">
        <ele>884.07</ele>
        <time>2022-08-07T10:23:04Z</time>
      </trkpt>
      <trkpt lat="44.33011" lon="3.63017">
        <ele>885.51</ele>
        <time>2022-08-07T10:23:15Z</time>
      </trkpt>
      <trkpt lat="44.33017" lon="3.63012">
        <ele>885.99</ele>
        <time>2022-08-07T10:23:21Z</time>
      </trkpt>
      <trkpt lat="44.3303" lon="3.63003">
        <ele>887.43</ele>
        <time>2022-08-07T10:23:34Z</time>
      </trkpt>
      <trkpt lat="44.33039" lon="3.62997">
        <ele>886.95</ele>
        <time>2022-08-07T10:23:45Z</time>
      </trkpt>
      <trkpt lat="44.33053" lon="3.62996">
        <ele>885.51</ele>
        <time>2022-08-07T10:23:57Z</time>
      </trkpt>
      <trkpt lat="44.33065" lon="3.62994">
        <ele>883.11</ele>
        <time>2022-08-07T10:24:10Z</time>
      </trkpt>
      <trkpt lat="44.33078" lon="3.62997">
        <ele>881.67</ele>
        <time>2022-08-07T10:24:18Z</time>
      </trkpt>
      <trkpt lat="44.33094" lon="3.62997">
        <ele>880.71</ele>
        <time>2022-08-07T10:24:31Z</time>
      </trkpt>
      <trkpt lat="44.33109" lon="3.62983">
        <ele>877.34</ele>
        <time>2022-08-07T10:24:45Z</time>
      </trkpt>
      <trkpt lat="44.3311" lon="3.62981">
        <ele>877.34</ele>
        <time>2022-08-07T10:24:46Z</time>
      </trkpt>
      <trkpt lat="44.33117" lon="3.6297">
        <ele>875.42</ele>
        <time>2022-08-07T10:24:54Z</time>
      </trkpt>
      <trkpt lat="44.33122" lon="3.62961">
        <ele>874.46</ele>
        <time>2022-08-07T10:25:00Z</time>
      </trkpt>
      <trkpt lat="44.33127" lon="3.62941">
        <ele>873.98</ele>
        <time>2022-08-07T10:25:12Z</time>
      </trkpt>
      <trkpt lat="44.33127" lon="3.62938">
        <ele>873.5</ele>
        <time>2022-08-07T10:25:14Z</time>
      </trkpt>
      <trkpt lat="44.3313" lon="3.62926">
        <ele>873.98</ele>
        <time>2022-08-07T10:25:21Z</time>
      </trkpt>
      <trkpt lat="44.33131" lon="3.62917">
        <ele>874.46</ele>
        <time>2022-08-07T10:25:26Z</time>
      </trkpt>
      <trkpt lat="44.33133" lon="3.62894">
        <ele>875.42</ele>
        <time>2022-08-07T10:25:40Z</time>
      </trkpt>
      <trkpt lat="44.33132" lon="3.62889">
        <ele>875.42</ele>
        <time>2022-08-07T10:25:44Z</time>
      </trkpt>
      <trkpt lat="44.33129" lon="3.62873">
        <ele>876.86</ele>
        <time>2022-08-07T10:25:54Z</time>
      </trkpt>
      <trkpt lat="44.33126" lon="3.62853">
        <ele>876.86</ele>
        <time>2022-08-07T10:26:07Z</time>
      </trkpt>
      <trkpt lat="44.33123" lon="3.62843">
        <ele>877.82</ele>
        <time>2022-08-07T10:26:13Z</time>
      </trkpt>
      <trkpt lat="44.33116" lon="3.62822">
        <ele>878.3</ele>
        <time>2022-08-07T10:26:26Z</time>
      </trkpt>
      <trkpt lat="44.33109" lon="3.62806">
        <ele>877.82</ele>
        <time>2022-08-07T10:26:39Z</time>
      </trkpt>
      <trkpt lat="44.33104" lon="3.62788">
        <ele>876.86</ele>
        <time>2022-08-07T10:26:51Z</time>
      </trkpt>
      <trkpt lat="44.33099" lon="3.62767">
        <ele>876.38</ele>
        <time>2022-08-07T10:27:05Z</time>
      </trkpt>
      <trkpt lat="44.33098" lon="3.62762">
        <ele>876.38</ele>
        <time>2022-08-07T10:27:08Z</time>
      </trkpt>
      <trkpt lat="44.33095" lon="3.62739">
        <ele>876.38</ele>
        <time>2022-08-07T10:27:20Z</time>
      </trkpt>
      <trkpt lat="44.3309" lon="3.62718">
        <ele>876.86</ele>
        <time>2022-08-07T10:27:34Z</time>
      </trkpt>
      <trkpt lat="44.33089" lon="3.62705">
        <ele>876.38</ele>
        <time>2022-08-07T10:27:44Z</time>
      </trkpt>
      <trkpt lat="44.33089" lon="3.62695">
        <ele>875.9</ele>
        <time>2022-08-07T10:27:51Z</time>
      </trkpt>
      <trkpt lat="44.33089" lon="3.62692">
        <ele>875.9</ele>
        <time>2022-08-07T10:27:53Z</time>
      </trkpt>
      <trkpt lat="44.33091" lon="3.62677">
        <ele>875.42</ele>
        <time>2022-08-07T10:28:05Z</time>
      </trkpt>
      <trkpt lat="44.33093" lon="3.62661">
        <ele>874.46</ele>
        <time>2022-08-07T10:28:17Z</time>
      </trkpt>
      <trkpt lat="44.33097" lon="3.62645">
        <ele>874.46</ele>
        <time>2022-08-07T10:28:29Z</time>
      </trkpt>
      <trkpt lat="44.33104" lon="3.62629">
        <ele>873.01</ele>
        <time>2022-08-07T10:28:38Z</time>
      </trkpt>
      <trkpt lat="44.33107" lon="3.62625">
        <ele>872.53</ele>
        <time>2022-08-07T10:28:40Z</time>
      </trkpt>
      <trkpt lat="44.33108" lon="3.62622">
        <ele>872.53</ele>
        <time>2022-08-07T10:28:42Z</time>
      </trkpt>
      <trkpt lat="44.33109" lon="3.62612">
        <ele>871.57</ele>
        <time>2022-08-07T10:28:50Z</time>
      </trkpt>
      <trkpt lat="44.3311" lon="3.62606">
        <ele>870.61</ele>
        <time>2022-08-07T10:28:54Z</time>
      </trkpt>
      <trkpt lat="44.33114" lon="3.62585">
        <ele>870.61</ele>
        <time>2022-08-07T10:29:06Z</time>
      </trkpt>
      <trkpt lat="44.33116" lon="3.62562">
        <ele>870.13</ele>
        <time>2022-08-07T10:29:20Z</time>
      </trkpt>
      <trkpt lat="44.33115" lon="3.62544">
        <ele>869.17</ele>
        <time>2022-08-07T10:29:33Z</time>
      </trkpt>
      <trkpt lat="44.33119" lon="3.62538">
        <ele>869.17</ele>
        <time>2022-08-07T10:29:47Z</time>
      </trkpt>
      <trkpt lat="44.33119" lon="3.62541">
        <ele>869.65</ele>
        <time>2022-08-07T10:30:02Z</time>
      </trkpt>
      <trkpt lat="44.33122" lon="3.6254">
        <ele>869.65</ele>
        <time>2022-08-07T10:30:15Z</time>
      </trkpt>
      <trkpt lat="44.33123" lon="3.62533">
        <ele>870.13</ele>
        <time>2022-08-07T10:30:25Z</time>
      </trkpt>
      <trkpt lat="44.33123" lon="3.62532">
        <ele>871.09</ele>
        <time>2022-08-07T10:30:41Z</time>
      </trkpt>
      <trkpt lat="44.33124" lon="3.62531">
        <ele>871.57</ele>
        <time>2022-08-07T10:31:12Z</time>
      </trkpt>
      <trkpt lat="44.33126" lon="3.62533">
        <ele>870.61</ele>
        <time>2022-08-07T10:31:43Z</time>
      </trkpt>
      <trkpt lat="44.33128" lon="3.62532">
        <ele>867.73</ele>
        <time>2022-08-07T10:32:09Z</time>
      </trkpt>
      <trkpt lat="44.33126" lon="3.6253">
        <ele>865.32</ele>
        <time>2022-08-07T10:32:38Z</time>
      </trkpt>
      <trkpt lat="44.33123" lon="3.62527">
        <ele>863.88</ele>
        <time>2022-08-07T10:33:11Z</time>
      </trkpt>
      <trkpt lat="44.33123" lon="3.62525">
        <ele>860.52</ele>
        <time>2022-08-07T10:33:38Z</time>
      </trkpt>
      <trkpt lat="44.33124" lon="3.62528">
        <ele>862.92</ele>
        <time>2022-08-07T10:34:13Z</time>
      </trkpt>
      <trkpt lat="44.33122" lon="3.62525">
        <ele>861</ele>
        <time>2022-08-07T10:34:38Z</time>
      </trkpt>
      <trkpt lat="44.33125" lon="3.62525">
        <ele>854.27</ele>
        <time>2022-08-07T10:35:06Z</time>
      </trkpt>
      <trkpt lat="44.33123" lon="3.62525">
        <ele>858.11</ele>
        <time>2022-08-07T10:35:45Z</time>
      </trkpt>
      <trkpt lat="44.33125" lon="3.62528">
        <ele>860.04</ele>
        <time>2022-08-07T10:36:14Z</time>
      </trkpt>
      <trkpt lat="44.33123" lon="3.62527">
        <ele>861.96</ele>
        <time>2022-08-07T10:36:51Z</time>
      </trkpt>
      <trkpt lat="44.33122" lon="3.62527">
        <ele>868.21</ele>
        <time>2022-08-07T10:37:27Z</time>
      </trkpt>
      <trkpt lat="44.33126" lon="3.62529">
        <ele>871.57</ele>
        <time>2022-08-07T10:37:56Z</time>
      </trkpt>
      <trkpt lat="44.33124" lon="3.62531">
        <ele>872.05</ele>
        <time>2022-08-07T10:38:32Z</time>
      </trkpt>
      <trkpt lat="44.33126" lon="3.62535">
        <ele>877.82</ele>
        <time>2022-08-07T10:39:04Z</time>
      </trkpt>
      <trkpt lat="44.33124" lon="3.62531">
        <ele>874.46</ele>
        <time>2022-08-07T10:39:25Z</time>
      </trkpt>
      <trkpt lat="44.33124" lon="3.62536">
        <ele>882.15</ele>
        <time>2022-08-07T10:39:57Z</time>
      </trkpt>
      <trkpt lat="44.33123" lon="3.62533">
        <ele>883.11</ele>
        <time>2022-08-07T10:40:29Z</time>
      </trkpt>
      <trkpt lat="44.33122" lon="3.62537">
        <ele>885.03</ele>
        <time>2022-08-07T10:41:02Z</time>
      </trkpt>
      <trkpt lat="44.33122" lon="3.62532">
        <ele>876.86</ele>
        <time>2022-08-07T10:41:33Z</time>
      </trkpt>
      <trkpt lat="44.3312" lon="3.62533">
        <ele>885.51</ele>
        <time>2022-08-07T10:42:09Z</time>
      </trkpt>
      <trkpt lat="44.33124" lon="3.62539">
        <ele>885.03</ele>
        <time>2022-08-07T10:42:47Z</time>
      </trkpt>
      <trkpt lat="44.33125" lon="3.62537">
        <ele>883.11</ele>
        <time>2022-08-07T10:43:16Z</time>
      </trkpt>
      <trkpt lat="44.33126" lon="3.62537">
        <ele>882.15</ele>
        <time>2022-08-07T10:43:47Z</time>
      </trkpt>
      <trkpt lat="44.33122" lon="3.62537">
        <ele>884.07</ele>
        <time>2022-08-07T10:44:18Z</time>
      </trkpt>
      <trkpt lat="44.33126" lon="3.62543">
        <ele>887.91</ele>
        <time>2022-08-07T10:44:57Z</time>
      </trkpt>
      <trkpt lat="44.33126" lon="3.62542">
        <ele>888.4</ele>
        <time>2022-08-07T10:45:40Z</time>
      </trkpt>
      <trkpt lat="44.33127" lon="3.62537">
        <ele>880.22</ele>
        <time>2022-08-07T10:46:18Z</time>
      </trkpt>
      <trkpt lat="44.33123" lon="3.62531">
        <ele>876.86</ele>
        <time>2022-08-07T10:46:54Z</time>
      </trkpt>
      <trkpt lat="44.33124" lon="3.62536">
        <ele>881.67</ele>
        <time>2022-08-07T10:47:27Z</time>
      </trkpt>
      <trkpt lat="44.33125" lon="3.62538">
        <ele>883.59</ele>
        <time>2022-08-07T10:48:02Z</time>
      </trkpt>
      <trkpt lat="44.33123" lon="3.62536">
        <ele>884.07</ele>
        <time>2022-08-07T10:48:31Z</time>
      </trkpt>
      <trkpt lat="44.33125" lon="3.62535">
        <ele>883.11</ele>
        <time>2022-08-07T10:48:58Z</time>
      </trkpt>
      <trkpt lat="44.33122" lon="3.62536">
        <ele>884.55</ele>
        <time>2022-08-07T10:49:23Z</time>
      </trkpt>
      <trkpt lat="44.33123" lon="3.62543">
        <ele>891.76</ele>
        <time>2022-08-07T10:50:00Z</time>
      </trkpt>
      <trkpt lat="44.33124" lon="3.6254">
        <ele>890.32</ele>
        <time>2022-08-07T10:50:28Z</time>
      </trkpt>
      <trkpt lat="44.33126" lon="3.62534">
        <ele>882.15</ele>
        <time>2022-08-07T10:50:56Z</time>
      </trkpt>
      <trkpt lat="44.33123" lon="3.62527">
        <ele>871.57</ele>
        <time>2022-08-07T10:51:32Z</time>
      </trkpt>
      <trkpt lat="44.33124" lon="3.6253">
        <ele>869.17</ele>
        <time>2022-08-07T10:52:05Z</time>
      </trkpt>
      <trkpt lat="44.33127" lon="3.62531">
        <ele>872.05</ele>
        <time>2022-08-07T10:52:37Z</time>
      </trkpt>
      <trkpt lat="44.33122" lon="3.62537">
        <ele>881.19</ele>
        <time>2022-08-07T10:53:03Z</time>
      </trkpt>
      <trkpt lat="44.33124" lon="3.62541">
        <ele>887.43</ele>
        <time>2022-08-07T10:53:42Z</time>
      </trkpt>
      <trkpt lat="44.33124" lon="3.62539">
        <ele>887.43</ele>
        <time>2022-08-07T10:54:15Z</time>
      </trkpt>
      <trkpt lat="44.33128" lon="3.6254">
        <ele>889.36</ele>
        <time>2022-08-07T10:54:46Z</time>
      </trkpt>
      <trkpt lat="44.33124" lon="3.6254">
        <ele>885.99</ele>
        <time>2022-08-07T10:55:14Z</time>
      </trkpt>
      <trkpt lat="44.33127" lon="3.62534">
        <ele>882.63</ele>
        <time>2022-08-07T10:55:50Z</time>
      </trkpt>
      <trkpt lat="44.33127" lon="3.62534">
        <ele>876.86</ele>
        <time>2022-08-07T10:56:22Z</time>
      </trkpt>
      <trkpt lat="44.33126" lon="3.62536">
        <ele>882.15</ele>
        <time>2022-08-07T10:56:52Z</time>
      </trkpt>
      <trkpt lat="44.33124" lon="3.62535">
        <ele>883.11</ele>
        <time>2022-08-07T10:57:20Z</time>
      </trkpt>
      <trkpt lat="44.3312" lon="3.62527">
        <ele>874.94</ele>
        <time>2022-08-07T10:57:55Z</time>
      </trkpt>
      <trkpt lat="44.33118" lon="3.6253">
        <ele>878.3</ele>
        <time>2022-08-07T10:58:20Z</time>
      </trkpt>
      <trkpt lat="44.33128" lon="3.62538">
        <ele>881.19</ele>
        <time>2022-08-07T10:58:54Z</time>
      </trkpt>
      <trkpt lat="44.33122" lon="3.62529">
        <ele>881.19</ele>
        <time>2022-08-07T10:59:25Z</time>
      </trkpt>
      <trkpt lat="44.33125" lon="3.62531">
        <ele>871.57</ele>
        <time>2022-08-07T11:00:09Z</time>
      </trkpt>
      <trkpt lat="44.33126" lon="3.62523">
        <ele>866.29</ele>
        <time>2022-08-07T11:00:43Z</time>
      </trkpt>
      <trkpt lat="44.33122" lon="3.6252">
        <ele>862.44</ele>
        <time>2022-08-07T11:01:17Z</time>
      </trkpt>
      <trkpt lat="44.33125" lon="3.62524">
        <ele>867.25</ele>
        <time>2022-08-07T11:01:50Z</time>
      </trkpt>
      <trkpt lat="44.33123" lon="3.62523">
        <ele>866.77</ele>
        <time>2022-08-07T11:02:22Z</time>
      </trkpt>
      <trkpt lat="44.33128" lon="3.62527">
        <ele>869.17</ele>
        <time>2022-08-07T11:02:53Z</time>
      </trkpt>
      <trkpt lat="44.33128" lon="3.62525">
        <ele>869.65</ele>
        <time>2022-08-07T11:03:22Z</time>
      </trkpt>
      <trkpt lat="44.33128" lon="3.62529">
        <ele>869.65</ele>
        <time>2022-08-07T11:03:57Z</time>
      </trkpt>
      <trkpt lat="44.33124" lon="3.62532">
        <ele>871.57</ele>
        <time>2022-08-07T11:04:35Z</time>
      </trkpt>
      <trkpt lat="44.33127" lon="3.62538">
        <ele>874.46</ele>
        <time>2022-08-07T11:05:08Z</time>
      </trkpt>
      <trkpt lat="44.33124" lon="3.62539">
        <ele>875.9</ele>
        <time>2022-08-07T11:05:41Z</time>
      </trkpt>
      <trkpt lat="44.33127" lon="3.62533">
        <ele>876.38</ele>
        <time>2022-08-07T11:06:13Z</time>
      </trkpt>
      <trkpt lat="44.33128" lon="3.62542">
        <ele>882.15</ele>
        <time>2022-08-07T11:06:46Z</time>
      </trkpt>
      <trkpt lat="44.33126" lon="3.62535">
        <ele>879.26</ele>
        <time>2022-08-07T11:07:15Z</time>
      </trkpt>
      <trkpt lat="44.33125" lon="3.62536">
        <ele>880.71</ele>
        <time>2022-08-07T11:07:42Z</time>
      </trkpt>
      <trkpt lat="44.33129" lon="3.62532">
        <ele>875.9</ele>
        <time>2022-08-07T11:08:18Z</time>
      </trkpt>
      <trkpt lat="44.33126" lon="3.62531">
        <ele>876.86</ele>
        <time>2022-08-07T11:08:46Z</time>
      </trkpt>
      <trkpt lat="44.33123" lon="3.62534">
        <ele>876.86</ele>
        <time>2022-08-07T11:09:13Z</time>
      </trkpt>
      <trkpt lat="44.33124" lon="3.62536">
        <ele>876.86</ele>
        <time>2022-08-07T11:09:46Z</time>
      </trkpt>
      <trkpt lat="44.33127" lon="3.62534">
        <ele>875.9</ele>
        <time>2022-08-07T11:10:23Z</time>
      </trkpt>
      <trkpt lat="44.33127" lon="3.6252">
        <ele>868.69</ele>
        <time>2022-08-07T11:11:03Z</time>
      </trkpt>
      <trkpt lat="44.33127" lon="3.62527">
        <ele>872.53</ele>
        <time>2022-08-07T11:11:34Z</time>
      </trkpt>
      <trkpt lat="44.33127" lon="3.6253">
        <ele>878.78</ele>
        <time>2022-08-07T11:12:06Z</time>
      </trkpt>
      <trkpt lat="44.33124" lon="3.62529">
        <ele>878.78</ele>
        <time>2022-08-07T11:12:42Z</time>
      </trkpt>
      <trkpt lat="44.33127" lon="3.62536">
        <ele>878.3</ele>
        <time>2022-08-07T11:13:11Z</time>
      </trkpt>
      <trkpt lat="44.33132" lon="3.62531">
        <ele>878.3</ele>
        <time>2022-08-07T11:13:25Z</time>
      </trkpt>
      <trkpt lat="44.33127" lon="3.62532">
        <ele>877.34</ele>
        <time>2022-08-07T11:13:42Z</time>
      </trkpt>
      <trkpt lat="44.33127" lon="3.62534">
        <ele>878.3</ele>
        <time>2022-08-07T11:13:59Z</time>
      </trkpt>
      <trkpt lat="44.33123" lon="3.62537">
        <ele>878.3</ele>
        <time>2022-08-07T11:14:26Z</time>
      </trkpt>
      <trkpt lat="44.33119" lon="3.6254">
        <ele>874.94</ele>
        <time>2022-08-07T11:14:52Z</time>
      </trkpt>
      <trkpt lat="44.33127" lon="3.62538">
        <ele>872.53</ele>
        <time>2022-08-07T11:14:57Z</time>
      </trkpt>
      <trkpt lat="44.33139" lon="3.62524">
        <ele>870.13</ele>
        <time>2022-08-07T11:15:09Z</time>
      </trkpt>
      <trkpt lat="44.33141" lon="3.62519">
        <ele>870.13</ele>
        <time>2022-08-07T11:15:12Z</time>
      </trkpt>
      <trkpt lat="44.3315" lon="3.62507">
        <ele>870.61</ele>
        <time>2022-08-07T11:15:23Z</time>
      </trkpt>
      <trkpt lat="44.33161" lon="3.62491">
        <ele>868.69</ele>
        <time>2022-08-07T11:15:37Z</time>
      </trkpt>
      <trkpt lat="44.3317" lon="3.6247">
        <ele>866.29</ele>
        <time>2022-08-07T11:15:51Z</time>
      </trkpt>
      <trkpt lat="44.33172" lon="3.62463">
        <ele>865.8</ele>
        <time>2022-08-07T11:15:55Z</time>
      </trkpt>
      <trkpt lat="44.33179" lon="3.62447">
        <ele>865.8</ele>
        <time>2022-08-07T11:16:06Z</time>
      </trkpt>
      <trkpt lat="44.33189" lon="3.62441">
        <ele>866.29</ele>
        <time>2022-08-07T11:16:13Z</time>
      </trkpt>
      <trkpt lat="44.33193" lon="3.6244">
        <ele>866.77</ele>
        <time>2022-08-07T11:16:16Z</time>
      </trkpt>
      <trkpt lat="44.33212" lon="3.62437">
        <ele>866.29</ele>
        <time>2022-08-07T11:16:31Z</time>
      </trkpt>
      <trkpt lat="44.33217" lon="3.62438">
        <ele>865.32</ele>
        <time>2022-08-07T11:16:35Z</time>
      </trkpt>
      <trkpt lat="44.33229" lon="3.62442">
        <ele>863.4</ele>
        <time>2022-08-07T11:16:48Z</time>
      </trkpt>
      <trkpt lat="44.33245" lon="3.62449">
        <ele>863.4</ele>
        <time>2022-08-07T11:17:02Z</time>
      </trkpt>
      <trkpt lat="44.33259" lon="3.62456">
        <ele>864.84</ele>
        <time>2022-08-07T11:17:14Z</time>
      </trkpt>
      <trkpt lat="44.33272" lon="3.6246">
        <ele>863.88</ele>
        <time>2022-08-07T11:17:26Z</time>
      </trkpt>
      <trkpt lat="44.33286" lon="3.62466">
        <ele>862.92</ele>
        <time>2022-08-07T11:17:37Z</time>
      </trkpt>
      <trkpt lat="44.33304" lon="3.62473">
        <ele>862.44</ele>
        <time>2022-08-07T11:17:51Z</time>
      </trkpt>
      <trkpt lat="44.33323" lon="3.62479">
        <ele>860.04</ele>
        <time>2022-08-07T11:18:04Z</time>
      </trkpt>
      <trkpt lat="44.33334" lon="3.62478">
        <ele>859.08</ele>
        <time>2022-08-07T11:18:14Z</time>
      </trkpt>
      <trkpt lat="44.33348" lon="3.62476">
        <ele>861</ele>
        <time>2022-08-07T11:18:26Z</time>
      </trkpt>
      <trkpt lat="44.33364" lon="3.62475">
        <ele>861</ele>
        <time>2022-08-07T11:18:39Z</time>
      </trkpt>
      <trkpt lat="44.33369" lon="3.62472">
        <ele>861</ele>
        <time>2022-08-07T11:18:43Z</time>
      </trkpt>
      <trkpt lat="44.33375" lon="3.62463">
        <ele>859.56</ele>
        <time>2022-08-07T11:18:54Z</time>
      </trkpt>
      <trkpt lat="44.33393" lon="3.62457">
        <ele>860.52</ele>
        <time>2022-08-07T11:19:08Z</time>
      </trkpt>
      <trkpt lat="44.33403" lon="3.6245">
        <ele>861.48</ele>
        <time>2022-08-07T11:19:20Z</time>
      </trkpt>
      <trkpt lat="44.33415" lon="3.62434">
        <ele>862.44</ele>
        <time>2022-08-07T11:19:34Z</time>
      </trkpt>
      <trkpt lat="44.33425" lon="3.62424">
        <ele>861</ele>
        <time>2022-08-07T11:19:45Z</time>
      </trkpt>
      <trkpt lat="44.33437" lon="3.62412">
        <ele>859.56</ele>
        <time>2022-08-07T11:19:58Z</time>
      </trkpt>
      <trkpt lat="44.33453" lon="3.62404">
        <ele>857.63</ele>
        <time>2022-08-07T11:20:11Z</time>
      </trkpt>
      <trkpt lat="44.33472" lon="3.62395">
        <ele>858.59</ele>
        <time>2022-08-07T11:20:26Z</time>
      </trkpt>
      <trkpt lat="44.33485" lon="3.62386">
        <ele>857.63</ele>
        <time>2022-08-07T11:20:37Z</time>
      </trkpt>
      <trkpt lat="44.335" lon="3.62369">
        <ele>856.67</ele>
        <time>2022-08-07T11:20:51Z</time>
      </trkpt>
      <trkpt lat="44.33506" lon="3.62359">
        <ele>855.71</ele>
        <time>2022-08-07T11:21:04Z</time>
      </trkpt>
      <trkpt lat="44.33508" lon="3.62362">
        <ele>855.71</ele>
        <time>2022-08-07T11:21:23Z</time>
      </trkpt>
      <trkpt lat="44.3351" lon="3.62362">
        <ele>854.27</ele>
        <time>2022-08-07T11:21:41Z</time>
      </trkpt>
      <trkpt lat="44.33508" lon="3.62372">
        <ele>852.83</ele>
        <time>2022-08-07T11:21:55Z</time>
      </trkpt>
      <trkpt lat="44.33508" lon="3.62376">
        <ele>851.87</ele>
        <time>2022-08-07T11:22:07Z</time>
      </trkpt>
      <trkpt lat="44.33507" lon="3.62374">
        <ele>851.38</ele>
        <time>2022-08-07T11:22:21Z</time>
      </trkpt>
      <trkpt lat="44.33494" lon="3.6239">
        <ele>849.94</ele>
        <time>2022-08-07T11:22:37Z</time>
      </trkpt>
      <trkpt lat="44.33478" lon="3.62408">
        <ele>845.14</ele>
        <time>2022-08-07T11:22:55Z</time>
      </trkpt>
      <trkpt lat="44.33467" lon="3.62425">
        <ele>843.21</ele>
        <time>2022-08-07T11:23:09Z</time>
      </trkpt>
      <trkpt lat="44.33458" lon="3.62441">
        <ele>842.73</ele>
        <time>2022-08-07T11:23:23Z</time>
      </trkpt>
      <trkpt lat="44.33445" lon="3.62463">
        <ele>840.81</ele>
        <time>2022-08-07T11:23:39Z</time>
      </trkpt>
      <trkpt lat="44.33433" lon="3.62483">
        <ele>840.33</ele>
        <time>2022-08-07T11:23:54Z</time>
      </trkpt>
      <trkpt lat="44.33419" lon="3.62497">
        <ele>839.85</ele>
        <time>2022-08-07T11:24:09Z</time>
      </trkpt>
      <trkpt lat="44.33401" lon="3.62512">
        <ele>838.89</ele>
        <time>2022-08-07T11:24:25Z</time>
      </trkpt>
      <trkpt lat="44.33387" lon="3.62527">
        <ele>838.41</ele>
        <time>2022-08-07T11:24:39Z</time>
      </trkpt>
      <trkpt lat="44.33371" lon="3.6254">
        <ele>838.41</ele>
        <time>2022-08-07T11:24:53Z</time>
      </trkpt>
      <trkpt lat="44.33356" lon="3.62548">
        <ele>839.37</ele>
        <time>2022-08-07T11:25:06Z</time>
      </trkpt>
      <trkpt lat="44.33337" lon="3.62553">
        <ele>838.89</ele>
        <time>2022-08-07T11:25:21Z</time>
      </trkpt>
      <trkpt lat="44.33318" lon="3.62554">
        <ele>836.48</ele>
        <time>2022-08-07T11:25:37Z</time>
      </trkpt>
      <trkpt lat="44.33302" lon="3.62555">
        <ele>832.16</ele>
        <time>2022-08-07T11:25:51Z</time>
      </trkpt>
      <trkpt lat="44.33292" lon="3.62554">
        <ele>828.79</ele>
        <time>2022-08-07T11:25:59Z</time>
      </trkpt>
      <trkpt lat="44.33279" lon="3.62552">
        <ele>823.99</ele>
        <time>2022-08-07T11:26:10Z</time>
      </trkpt>
      <trkpt lat="44.33262" lon="3.62545">
        <ele>816.3</ele>
        <time>2022-08-07T11:26:25Z</time>
      </trkpt>
      <trkpt lat="44.33245" lon="3.62537">
        <ele>806.2</ele>
        <time>2022-08-07T11:26:40Z</time>
      </trkpt>
      <trkpt lat="44.33229" lon="3.62535">
        <ele>802.36</ele>
        <time>2022-08-07T11:26:54Z</time>
      </trkpt>
      <trkpt lat="44.33227" lon="3.62536">
        <ele>802.84</ele>
        <time>2022-08-07T11:26:56Z</time>
      </trkpt>
      <trkpt lat="44.33212" lon="3.6256">
        <ele>810.05</ele>
        <time>2022-08-07T11:27:14Z</time>
      </trkpt>
      <trkpt lat="44.33202" lon="3.62577">
        <ele>811.97</ele>
        <time>2022-08-07T11:27:27Z</time>
      </trkpt>
      <trkpt lat="44.33193" lon="3.62589">
        <ele>812.45</ele>
        <time>2022-08-07T11:27:41Z</time>
      </trkpt>
      <trkpt lat="44.33183" lon="3.62614">
        <ele>812.45</ele>
        <time>2022-08-07T11:27:55Z</time>
      </trkpt>
      <trkpt lat="44.33189" lon="3.62641">
        <ele>812.45</ele>
        <time>2022-08-07T11:28:11Z</time>
      </trkpt>
      <trkpt lat="44.3319" lon="3.62644">
        <ele>812.45</ele>
        <time>2022-08-07T11:28:13Z</time>
      </trkpt>
      <trkpt lat="44.33197" lon="3.62664">
        <ele>811.49</ele>
        <time>2022-08-07T11:28:27Z</time>
      </trkpt>
      <trkpt lat="44.33196" lon="3.62672">
        <ele>811.01</ele>
        <time>2022-08-07T11:28:31Z</time>
      </trkpt>
      <trkpt lat="44.33186" lon="3.62695">
        <ele>810.53</ele>
        <time>2022-08-07T11:28:47Z</time>
      </trkpt>
      <trkpt lat="44.33183" lon="3.62723">
        <ele>809.57</ele>
        <time>2022-08-07T11:29:04Z</time>
      </trkpt>
      <trkpt lat="44.33189" lon="3.62746">
        <ele>807.64</ele>
        <time>2022-08-07T11:29:19Z</time>
      </trkpt>
      <trkpt lat="44.33204" lon="3.62759">
        <ele>807.16</ele>
        <time>2022-08-07T11:29:34Z</time>
      </trkpt>
      <trkpt lat="44.33218" lon="3.6277">
        <ele>806.68</ele>
        <time>2022-08-07T11:29:48Z</time>
      </trkpt>
      <trkpt lat="44.33234" lon="3.62786">
        <ele>804.28</ele>
        <time>2022-08-07T11:30:04Z</time>
      </trkpt>
      <trkpt lat="44.33247" lon="3.62802">
        <ele>801.4</ele>
        <time>2022-08-07T11:30:18Z</time>
      </trkpt>
      <trkpt lat="44.33258" lon="3.62823">
        <ele>800.92</ele>
        <time>2022-08-07T11:30:34Z</time>
      </trkpt>
      <trkpt lat="44.33271" lon="3.62839">
        <ele>800.44</ele>
        <time>2022-08-07T11:30:48Z</time>
      </trkpt>
      <trkpt lat="44.33282" lon="3.62855">
        <ele>797.07</ele>
        <time>2022-08-07T11:31:01Z</time>
      </trkpt>
      <trkpt lat="44.33284" lon="3.62859">
        <ele>796.59</ele>
        <time>2022-08-07T11:31:04Z</time>
      </trkpt>
      <trkpt lat="44.3329" lon="3.62872">
        <ele>795.63</ele>
        <time>2022-08-07T11:31:13Z</time>
      </trkpt>
      <trkpt lat="44.33295" lon="3.6288">
        <ele>794.67</ele>
        <time>2022-08-07T11:31:19Z</time>
      </trkpt>
      <trkpt lat="44.33299" lon="3.62887">
        <ele>793.71</ele>
        <time>2022-08-07T11:31:24Z</time>
      </trkpt>
      <trkpt lat="44.333" lon="3.6289">
        <ele>793.71</ele>
        <time>2022-08-07T11:31:26Z</time>
      </trkpt>
      <trkpt lat="44.33303" lon="3.62896">
        <ele>793.22</ele>
        <time>2022-08-07T11:31:30Z</time>
      </trkpt>
      <trkpt lat="44.33305" lon="3.62902">
        <ele>792.26</ele>
        <time>2022-08-07T11:31:34Z</time>
      </trkpt>
      <trkpt lat="44.3331" lon="3.62908">
        <ele>791.78</ele>
        <time>2022-08-07T11:31:39Z</time>
      </trkpt>
      <trkpt lat="44.33316" lon="3.62916">
        <ele>791.3</ele>
        <time>2022-08-07T11:31:46Z</time>
      </trkpt>
      <trkpt lat="44.33317" lon="3.62919">
        <ele>791.3</ele>
        <time>2022-08-07T11:31:48Z</time>
      </trkpt>
      <trkpt lat="44.33324" lon="3.62926">
        <ele>790.82</ele>
        <time>2022-08-07T11:31:55Z</time>
      </trkpt>
      <trkpt lat="44.33335" lon="3.62944">
        <ele>788.9</ele>
        <time>2022-08-07T11:32:10Z</time>
      </trkpt>
      <trkpt lat="44.33349" lon="3.62957">
        <ele>789.38</ele>
        <time>2022-08-07T11:32:24Z</time>
      </trkpt>
      <trkpt lat="44.33356" lon="3.62968">
        <ele>789.86</ele>
        <time>2022-08-07T11:32:32Z</time>
      </trkpt>
      <trkpt lat="44.33359" lon="3.62979">
        <ele>790.82</ele>
        <time>2022-08-07T11:32:39Z</time>
      </trkpt>
      <trkpt lat="44.33358" lon="3.63006">
        <ele>790.34</ele>
        <time>2022-08-07T11:32:53Z</time>
      </trkpt>
      <trkpt lat="44.33357" lon="3.63015">
        <ele>789.38</ele>
        <time>2022-08-07T11:33:00Z</time>
      </trkpt>
      <trkpt lat="44.33348" lon="3.63035">
        <ele>788.9</ele>
        <time>2022-08-07T11:33:15Z</time>
      </trkpt>
      <trkpt lat="44.33338" lon="3.63056">
        <ele>790.82</ele>
        <time>2022-08-07T11:33:26Z</time>
      </trkpt>
      <trkpt lat="44.33335" lon="3.63064">
        <ele>791.3</ele>
        <time>2022-08-07T11:33:30Z</time>
      </trkpt>
      <trkpt lat="44.33332" lon="3.6309">
        <ele>790.82</ele>
        <time>2022-08-07T11:33:44Z</time>
      </trkpt>
      <trkpt lat="44.33327" lon="3.63121">
        <ele>789.86</ele>
        <time>2022-08-07T11:34:01Z</time>
      </trkpt>
      <trkpt lat="44.33322" lon="3.63144">
        <ele>787.46</ele>
        <time>2022-08-07T11:34:15Z</time>
      </trkpt>
      <trkpt lat="44.33316" lon="3.63169">
        <ele>785.53</ele>
        <time>2022-08-07T11:34:29Z</time>
      </trkpt>
      <trkpt lat="44.33315" lon="3.63171">
        <ele>785.53</ele>
        <time>2022-08-07T11:34:30Z</time>
      </trkpt>
      <trkpt lat="44.33316" lon="3.63186">
        <ele>782.65</ele>
        <time>2022-08-07T11:34:43Z</time>
      </trkpt>
      <trkpt lat="44.33315" lon="3.6319">
        <ele>782.17</ele>
        <time>2022-08-07T11:34:46Z</time>
      </trkpt>
      <trkpt lat="44.33309" lon="3.63219">
        <ele>780.25</ele>
        <time>2022-08-07T11:35:02Z</time>
      </trkpt>
      <trkpt lat="44.33297" lon="3.63236">
        <ele>779.77</ele>
        <time>2022-08-07T11:35:15Z</time>
      </trkpt>
      <trkpt lat="44.33279" lon="3.63246">
        <ele>778.32</ele>
        <time>2022-08-07T11:35:29Z</time>
      </trkpt>
      <trkpt lat="44.33257" lon="3.6325">
        <ele>776.4</ele>
        <time>2022-08-07T11:35:45Z</time>
      </trkpt>
      <trkpt lat="44.33234" lon="3.63256">
        <ele>776.4</ele>
        <time>2022-08-07T11:36:00Z</time>
      </trkpt>
      <trkpt lat="44.33217" lon="3.63259">
        <ele>777.36</ele>
        <time>2022-08-07T11:36:13Z</time>
      </trkpt>
      <trkpt lat="44.33206" lon="3.6327">
        <ele>777.36</ele>
        <time>2022-08-07T11:36:27Z</time>
      </trkpt>
      <trkpt lat="44.33204" lon="3.63278">
        <ele>776.88</ele>
        <time>2022-08-07T11:36:31Z</time>
      </trkpt>
      <trkpt lat="44.33212" lon="3.633">
        <ele>774.96</ele>
        <time>2022-08-07T11:36:47Z</time>
      </trkpt>
      <trkpt lat="44.33223" lon="3.63312">
        <ele>771.6</ele>
        <time>2022-08-07T11:37:01Z</time>
      </trkpt>
      <trkpt lat="44.33237" lon="3.63327">
        <ele>769.67</ele>
        <time>2022-08-07T11:37:15Z</time>
      </trkpt>
      <trkpt lat="44.33251" lon="3.63344">
        <ele>765.35</ele>
        <time>2022-08-07T11:37:29Z</time>
      </trkpt>
      <trkpt lat="44.33275" lon="3.63371">
        <ele>758.14</ele>
        <time>2022-08-07T11:37:47Z</time>
      </trkpt>
      <trkpt lat="44.33287" lon="3.63394">
        <ele>758.62</ele>
        <time>2022-08-07T11:38:02Z</time>
      </trkpt>
      <trkpt lat="44.33298" lon="3.63416">
        <ele>753.33</ele>
        <time>2022-08-07T11:38:18Z</time>
      </trkpt>
      <trkpt lat="44.33306" lon="3.63427">
        <ele>751.89</ele>
        <time>2022-08-07T11:38:29Z</time>
      </trkpt>
      <trkpt lat="44.33313" lon="3.63453">
        <ele>750.93</ele>
        <time>2022-08-07T11:38:44Z</time>
      </trkpt>
      <trkpt lat="44.33313" lon="3.63466">
        <ele>751.41</ele>
        <time>2022-08-07T11:38:51Z</time>
      </trkpt>
      <trkpt lat="44.33317" lon="3.63483">
        <ele>751.89</ele>
        <time>2022-08-07T11:39:02Z</time>
      </trkpt>
      <trkpt lat="44.33319" lon="3.63492">
        <ele>751.89</ele>
        <time>2022-08-07T11:39:08Z</time>
      </trkpt>
      <trkpt lat="44.33322" lon="3.63512">
        <ele>750.93</ele>
        <time>2022-08-07T11:39:19Z</time>
      </trkpt>
      <trkpt lat="44.33316" lon="3.63535">
        <ele>751.41</ele>
        <time>2022-08-07T11:39:30Z</time>
      </trkpt>
      <trkpt lat="44.33318" lon="3.63556">
        <ele>750.93</ele>
        <time>2022-08-07T11:39:44Z</time>
      </trkpt>
      <trkpt lat="44.33322" lon="3.63576">
        <ele>749.97</ele>
        <time>2022-08-07T11:39:56Z</time>
      </trkpt>
      <trkpt lat="44.33326" lon="3.63581">
        <ele>749.49</ele>
        <time>2022-08-07T11:39:59Z</time>
      </trkpt>
      <trkpt lat="44.33337" lon="3.63594">
        <ele>749</ele>
        <time>2022-08-07T11:40:10Z</time>
      </trkpt>
      <trkpt lat="44.33348" lon="3.63613">
        <ele>749</ele>
        <time>2022-08-07T11:40:24Z</time>
      </trkpt>
      <trkpt lat="44.33358" lon="3.63619">
        <ele>749.97</ele>
        <time>2022-08-07T11:40:35Z</time>
      </trkpt>
      <trkpt lat="44.33367" lon="3.63613">
        <ele>752.37</ele>
        <time>2022-08-07T11:40:50Z</time>
      </trkpt>
      <trkpt lat="44.3337" lon="3.63608">
        <ele>750.45</ele>
        <time>2022-08-07T11:40:53Z</time>
      </trkpt>
      <trkpt lat="44.33377" lon="3.636">
        <ele>748.52</ele>
        <time>2022-08-07T11:41:07Z</time>
      </trkpt>
      <trkpt lat="44.33372" lon="3.63612">
        <ele>747.08</ele>
        <time>2022-08-07T11:41:23Z</time>
      </trkpt>
      <trkpt lat="44.3337" lon="3.6362">
        <ele>747.56</ele>
        <time>2022-08-07T11:41:38Z</time>
      </trkpt>
      <trkpt lat="44.33373" lon="3.63613">
        <ele>750.93</ele>
        <time>2022-08-07T11:41:55Z</time>
      </trkpt>
      <trkpt lat="44.33381" lon="3.63596">
        <ele>753.33</ele>
        <time>2022-08-07T11:42:11Z</time>
      </trkpt>
      <trkpt lat="44.3339" lon="3.63581">
        <ele>751.41</ele>
        <time>2022-08-07T11:42:23Z</time>
      </trkpt>
      <trkpt lat="44.334" lon="3.63567">
        <ele>749.49</ele>
        <time>2022-08-07T11:42:35Z</time>
      </trkpt>
      <trkpt lat="44.33401" lon="3.63567">
        <ele>749.49</ele>
        <time>2022-08-07T11:42:36Z</time>
      </trkpt>
      <trkpt lat="44.33403" lon="3.63566">
        <ele>749.97</ele>
        <time>2022-08-07T11:42:37Z</time>
      </trkpt>
      <trkpt lat="44.33416" lon="3.63556">
        <ele>749.97</ele>
        <time>2022-08-07T11:42:50Z</time>
      </trkpt>
      <trkpt lat="44.33418" lon="3.63548">
        <ele>748.04</ele>
        <time>2022-08-07T11:42:53Z</time>
      </trkpt>
      <trkpt lat="44.33418" lon="3.63543">
        <ele>747.08</ele>
        <time>2022-08-07T11:42:55Z</time>
      </trkpt>
      <trkpt lat="44.33415" lon="3.63532">
        <ele>743.24</ele>
        <time>2022-08-07T11:43:02Z</time>
      </trkpt>
      <trkpt lat="44.33403" lon="3.63517">
        <ele>742.28</ele>
        <time>2022-08-07T11:43:15Z</time>
      </trkpt>
      <trkpt lat="44.33401" lon="3.63507">
        <ele>742.28</ele>
        <time>2022-08-07T11:43:21Z</time>
      </trkpt>
      <trkpt lat="44.33401" lon="3.63505">
        <ele>741.79</ele>
        <time>2022-08-07T11:43:22Z</time>
      </trkpt>
      <trkpt lat="44.33405" lon="3.63497">
        <ele>740.83</ele>
        <time>2022-08-07T11:43:30Z</time>
      </trkpt>
      <trkpt lat="44.33406" lon="3.63496">
        <ele>740.83</ele>
        <time>2022-08-07T11:43:31Z</time>
      </trkpt>
      <trkpt lat="44.33408" lon="3.63496">
        <ele>740.35</ele>
        <time>2022-08-07T11:43:32Z</time>
      </trkpt>
      <trkpt lat="44.3342" lon="3.63495">
        <ele>737.95</ele>
        <time>2022-08-07T11:43:43Z</time>
      </trkpt>
      <trkpt lat="44.33421" lon="3.63495">
        <ele>737.95</ele>
        <time>2022-08-07T11:43:44Z</time>
      </trkpt>
      <trkpt lat="44.33422" lon="3.63495">
        <ele>737.95</ele>
        <time>2022-08-07T11:43:45Z</time>
      </trkpt>
      <trkpt lat="44.33422" lon="3.63496">
        <ele>737.95</ele>
        <time>2022-08-07T11:43:46Z</time>
      </trkpt>
      <trkpt lat="44.33423" lon="3.63496">
        <ele>737.95</ele>
        <time>2022-08-07T11:43:47Z</time>
      </trkpt>
      <trkpt lat="44.33433" lon="3.63496">
        <ele>737.47</ele>
        <time>2022-08-07T11:43:59Z</time>
      </trkpt>
      <trkpt lat="44.33445" lon="3.63494">
        <ele>738.91</ele>
        <time>2022-08-07T11:44:13Z</time>
      </trkpt>
      <trkpt lat="44.33448" lon="3.6349">
        <ele>738.91</ele>
        <time>2022-08-07T11:44:16Z</time>
      </trkpt>
      <trkpt lat="44.33456" lon="3.63467">
        <ele>736.51</ele>
        <time>2022-08-07T11:44:26Z</time>
      </trkpt>
      <trkpt lat="44.33456" lon="3.63465">
        <ele>736.03</ele>
        <time>2022-08-07T11:44:27Z</time>
      </trkpt>
      <trkpt lat="44.33457" lon="3.63462">
        <ele>736.03</ele>
        <time>2022-08-07T11:44:28Z</time>
      </trkpt>
      <trkpt lat="44.33458" lon="3.63459">
        <ele>735.55</ele>
        <time>2022-08-07T11:44:29Z</time>
      </trkpt>
      <trkpt lat="44.33458" lon="3.63457">
        <ele>735.07</ele>
        <time>2022-08-07T11:44:30Z</time>
      </trkpt>
      <trkpt lat="44.33459" lon="3.63455">
        <ele>735.07</ele>
        <time>2022-08-07T11:44:31Z</time>
      </trkpt>
      <trkpt lat="44.33463" lon="3.63424">
        <ele>733.14</ele>
        <time>2022-08-07T11:44:46Z</time>
      </trkpt>
      <trkpt lat="44.33465" lon="3.63408">
        <ele>732.66</ele>
        <time>2022-08-07T11:44:59Z</time>
      </trkpt>
      <trkpt lat="44.3347" lon="3.63392">
        <ele>730.26</ele>
        <time>2022-08-07T11:45:11Z</time>
      </trkpt>
      <trkpt lat="44.33475" lon="3.63376">
        <ele>728.34</ele>
        <time>2022-08-07T11:45:24Z</time>
      </trkpt>
      <trkpt lat="44.33484" lon="3.63357">
        <ele>724.49</ele>
        <time>2022-08-07T11:45:38Z</time>
      </trkpt>
      <trkpt lat="44.33494" lon="3.63338">
        <ele>721.61</ele>
        <time>2022-08-07T11:45:50Z</time>
      </trkpt>
      <trkpt lat="44.33497" lon="3.63334">
        <ele>721.13</ele>
        <time>2022-08-07T11:45:53Z</time>
      </trkpt>
      <trkpt lat="44.33498" lon="3.63333">
        <ele>721.13</ele>
        <time>2022-08-07T11:45:54Z</time>
      </trkpt>
      <trkpt lat="44.33501" lon="3.63326">
        <ele>719.68</ele>
        <time>2022-08-07T11:46:00Z</time>
      </trkpt>
      <trkpt lat="44.33517" lon="3.63309">
        <ele>715.36</ele>
        <time>2022-08-07T11:46:17Z</time>
      </trkpt>
      <trkpt lat="44.3353" lon="3.63294">
        <ele>713.44</ele>
        <time>2022-08-07T11:46:33Z</time>
      </trkpt>
      <trkpt lat="44.33543" lon="3.63282">
        <ele>710.55</ele>
        <time>2022-08-07T11:46:47Z</time>
      </trkpt>
      <trkpt lat="44.33558" lon="3.6327">
        <ele>707.67</ele>
        <time>2022-08-07T11:47:02Z</time>
      </trkpt>
      <trkpt lat="44.3356" lon="3.63266">
        <ele>706.71</ele>
        <time>2022-08-07T11:47:05Z</time>
      </trkpt>
      <trkpt lat="44.33573" lon="3.63249">
        <ele>703.34</ele>
        <time>2022-08-07T11:47:19Z</time>
      </trkpt>
      <trkpt lat="44.33587" lon="3.63233">
        <ele>701.9</ele>
        <time>2022-08-07T11:47:34Z</time>
      </trkpt>
      <trkpt lat="44.33603" lon="3.63225">
        <ele>702.38</ele>
        <time>2022-08-07T11:47:49Z</time>
      </trkpt>
      <trkpt lat="44.33618" lon="3.63209">
        <ele>701.42</ele>
        <time>2022-08-07T11:48:05Z</time>
      </trkpt>
      <trkpt lat="44.33619" lon="3.63208">
        <ele>701.42</ele>
        <time>2022-08-07T11:48:06Z</time>
      </trkpt>
      <trkpt lat="44.33621" lon="3.63207">
        <ele>701.42</ele>
        <time>2022-08-07T11:48:07Z</time>
      </trkpt>
      <trkpt lat="44.3363" lon="3.63192">
        <ele>698.05</ele>
        <time>2022-08-07T11:48:21Z</time>
      </trkpt>
      <trkpt lat="44.33646" lon="3.63176">
        <ele>696.13</ele>
        <time>2022-08-07T11:48:37Z</time>
      </trkpt>
      <trkpt lat="44.3366" lon="3.63167">
        <ele>695.17</ele>
        <time>2022-08-07T11:48:50Z</time>
      </trkpt>
      <trkpt lat="44.33673" lon="3.63157">
        <ele>694.21</ele>
        <time>2022-08-07T11:49:04Z</time>
      </trkpt>
      <trkpt lat="44.33682" lon="3.63145">
        <ele>693.25</ele>
        <time>2022-08-07T11:49:14Z</time>
      </trkpt>
      <trkpt lat="44.33683" lon="3.63144">
        <ele>692.77</ele>
        <time>2022-08-07T11:49:15Z</time>
      </trkpt>
      <trkpt lat="44.33683" lon="3.63142">
        <ele>692.29</ele>
        <time>2022-08-07T11:49:16Z</time>
      </trkpt>
      <trkpt lat="44.33684" lon="3.63141">
        <ele>692.29</ele>
        <time>2022-08-07T11:49:17Z</time>
      </trkpt>
      <trkpt lat="44.33684" lon="3.63138">
        <ele>691.33</ele>
        <time>2022-08-07T11:49:18Z</time>
      </trkpt>
      <trkpt lat="44.33685" lon="3.63137">
        <ele>691.33</ele>
        <time>2022-08-07T11:49:19Z</time>
      </trkpt>
      <trkpt lat="44.33686" lon="3.63136">
        <ele>690.84</ele>
        <time>2022-08-07T11:49:20Z</time>
      </trkpt>
      <trkpt lat="44.33697" lon="3.6312">
        <ele>686.04</ele>
        <time>2022-08-07T11:49:33Z</time>
      </trkpt>
      <trkpt lat="44.33704" lon="3.63103">
        <ele>682.67</ele>
        <time>2022-08-07T11:49:45Z</time>
      </trkpt>
      <trkpt lat="44.33708" lon="3.63097">
        <ele>680.75</ele>
        <time>2022-08-07T11:49:49Z</time>
      </trkpt>
      <trkpt lat="44.33709" lon="3.63095">
        <ele>680.27</ele>
        <time>2022-08-07T11:49:50Z</time>
      </trkpt>
      <trkpt lat="44.33727" lon="3.63081">
        <ele>679.31</ele>
        <time>2022-08-07T11:50:04Z</time>
      </trkpt>
      <trkpt lat="44.33745" lon="3.63072">
        <ele>675.94</ele>
        <time>2022-08-07T11:50:21Z</time>
      </trkpt>
      <trkpt lat="44.33761" lon="3.63062">
        <ele>673.06</ele>
        <time>2022-08-07T11:50:35Z</time>
      </trkpt>
      <trkpt lat="44.33771" lon="3.63057">
        <ele>670.18</ele>
        <time>2022-08-07T11:50:44Z</time>
      </trkpt>
      <trkpt lat="44.33773" lon="3.63056">
        <ele>670.18</ele>
        <time>2022-08-07T11:50:45Z</time>
      </trkpt>
      <trkpt lat="44.33786" lon="3.63049">
        <ele>665.37</ele>
        <time>2022-08-07T11:50:59Z</time>
      </trkpt>
      <trkpt lat="44.33802" lon="3.63043">
        <ele>664.41</ele>
        <time>2022-08-07T11:51:14Z</time>
      </trkpt>
      <trkpt lat="44.33815" lon="3.63039">
        <ele>664.41</ele>
        <time>2022-08-07T11:51:27Z</time>
      </trkpt>
      <trkpt lat="44.33837" lon="3.63033">
        <ele>664.41</ele>
        <time>2022-08-07T11:51:43Z</time>
      </trkpt>
      <trkpt lat="44.33855" lon="3.63037">
        <ele>662.01</ele>
        <time>2022-08-07T11:51:59Z</time>
      </trkpt>
      <trkpt lat="44.33868" lon="3.6304">
        <ele>661.52</ele>
        <time>2022-08-07T11:52:12Z</time>
      </trkpt>
      <trkpt lat="44.33874" lon="3.63036">
        <ele>662.01</ele>
        <time>2022-08-07T11:52:17Z</time>
      </trkpt>
      <trkpt lat="44.33893" lon="3.63024">
        <ele>658.16</ele>
        <time>2022-08-07T11:52:32Z</time>
      </trkpt>
      <trkpt lat="44.33905" lon="3.63004">
        <ele>657.68</ele>
        <time>2022-08-07T11:52:47Z</time>
      </trkpt>
      <trkpt lat="44.33921" lon="3.62993">
        <ele>655.76</ele>
        <time>2022-08-07T11:53:02Z</time>
      </trkpt>
      <trkpt lat="44.33941" lon="3.62985">
        <ele>653.83</ele>
        <time>2022-08-07T11:53:19Z</time>
      </trkpt>
      <trkpt lat="44.3396" lon="3.62979">
        <ele>651.43</ele>
        <time>2022-08-07T11:53:35Z</time>
      </trkpt>
      <trkpt lat="44.33973" lon="3.62981">
        <ele>651.91</ele>
        <time>2022-08-07T11:53:49Z</time>
      </trkpt>
      <trkpt lat="44.33986" lon="3.62985">
        <ele>650.47</ele>
        <time>2022-08-07T11:54:05Z</time>
      </trkpt>
      <trkpt lat="44.34003" lon="3.62989">
        <ele>648.55</ele>
        <time>2022-08-07T11:54:20Z</time>
      </trkpt>
      <trkpt lat="44.34021" lon="3.62995">
        <ele>648.07</ele>
        <time>2022-08-07T11:54:37Z</time>
      </trkpt>
      <trkpt lat="44.34044" lon="3.62995">
        <ele>648.07</ele>
        <time>2022-08-07T11:54:53Z</time>
      </trkpt>
      <trkpt lat="44.34065" lon="3.62993">
        <ele>647.1</ele>
        <time>2022-08-07T11:55:09Z</time>
      </trkpt>
      <trkpt lat="44.34085" lon="3.62988">
        <ele>646.62</ele>
        <time>2022-08-07T11:55:23Z</time>
      </trkpt>
      <trkpt lat="44.34105" lon="3.62985">
        <ele>644.22</ele>
        <time>2022-08-07T11:55:36Z</time>
      </trkpt>
      <trkpt lat="44.34126" lon="3.62982">
        <ele>639.41</ele>
        <time>2022-08-07T11:55:52Z</time>
      </trkpt>
      <trkpt lat="44.34145" lon="3.62985">
        <ele>638.45</ele>
        <time>2022-08-07T11:56:07Z</time>
      </trkpt>
      <trkpt lat="44.3415" lon="3.62983">
        <ele>638.45</ele>
        <time>2022-08-07T11:56:10Z</time>
      </trkpt>
      <trkpt lat="44.3417" lon="3.62983">
        <ele>637.01</ele>
        <time>2022-08-07T11:56:24Z</time>
      </trkpt>
      <trkpt lat="44.34186" lon="3.62986">
        <ele>637.01</ele>
        <time>2022-08-07T11:56:38Z</time>
      </trkpt>
      <trkpt lat="44.342" lon="3.62978">
        <ele>633.17</ele>
        <time>2022-08-07T11:56:52Z</time>
      </trkpt>
      <trkpt lat="44.34217" lon="3.62969">
        <ele>631.24</ele>
        <time>2022-08-07T11:57:10Z</time>
      </trkpt>
      <trkpt lat="44.34234" lon="3.62962">
        <ele>628.36</ele>
        <time>2022-08-07T11:57:25Z</time>
      </trkpt>
      <trkpt lat="44.34241" lon="3.62961">
        <ele>627.4</ele>
        <time>2022-08-07T11:57:31Z</time>
      </trkpt>
      <trkpt lat="44.34255" lon="3.62958">
        <ele>625.96</ele>
        <time>2022-08-07T11:57:44Z</time>
      </trkpt>
      <trkpt lat="44.3426" lon="3.62955">
        <ele>625.47</ele>
        <time>2022-08-07T11:57:48Z</time>
      </trkpt>
      <trkpt lat="44.34263" lon="3.62954">
        <ele>624.99</ele>
        <time>2022-08-07T11:57:50Z</time>
      </trkpt>
      <trkpt lat="44.34275" lon="3.62946">
        <ele>623.07</ele>
        <time>2022-08-07T11:58:03Z</time>
      </trkpt>
      <trkpt lat="44.34291" lon="3.62932">
        <ele>621.63</ele>
        <time>2022-08-07T11:58:16Z</time>
      </trkpt>
      <trkpt lat="44.34304" lon="3.62923">
        <ele>620.67</ele>
        <time>2022-08-07T11:58:29Z</time>
      </trkpt>
      <trkpt lat="44.34313" lon="3.62917">
        <ele>617.78</ele>
        <time>2022-08-07T11:58:36Z</time>
      </trkpt>
      <trkpt lat="44.34331" lon="3.62913">
        <ele>612.02</ele>
        <time>2022-08-07T11:58:48Z</time>
      </trkpt>
      <trkpt lat="44.34346" lon="3.62901">
        <ele>612.5</ele>
        <time>2022-08-07T11:59:00Z</time>
      </trkpt>
      <trkpt lat="44.34347" lon="3.629">
        <ele>612.5</ele>
        <time>2022-08-07T11:59:01Z</time>
      </trkpt>
      <trkpt lat="44.34348" lon="3.62898">
        <ele>612.5</ele>
        <time>2022-08-07T11:59:02Z</time>
      </trkpt>
      <trkpt lat="44.34348" lon="3.62896">
        <ele>612.5</ele>
        <time>2022-08-07T11:59:03Z</time>
      </trkpt>
      <trkpt lat="44.34353" lon="3.62889">
        <ele>612.98</ele>
        <time>2022-08-07T11:59:08Z</time>
      </trkpt>
      <trkpt lat="44.34354" lon="3.62888">
        <ele>612.98</ele>
        <time>2022-08-07T11:59:09Z</time>
      </trkpt>
      <trkpt lat="44.34356" lon="3.62886">
        <ele>613.46</ele>
        <time>2022-08-07T11:59:11Z</time>
      </trkpt>
      <trkpt lat="44.34356" lon="3.62885">
        <ele>613.46</ele>
        <time>2022-08-07T11:59:12Z</time>
      </trkpt>
      <trkpt lat="44.34357" lon="3.62884">
        <ele>613.46</ele>
        <time>2022-08-07T11:59:13Z</time>
      </trkpt>
      <trkpt lat="44.34358" lon="3.62882">
        <ele>613.46</ele>
        <time>2022-08-07T11:59:14Z</time>
      </trkpt>
      <trkpt lat="44.34359" lon="3.62881">
        <ele>613.46</ele>
        <time>2022-08-07T11:59:15Z</time>
      </trkpt>
      <trkpt lat="44.34359" lon="3.6288">
        <ele>612.98</ele>
        <time>2022-08-07T11:59:16Z</time>
      </trkpt>
      <trkpt lat="44.34366" lon="3.62862">
        <ele>608.65</ele>
        <time>2022-08-07T11:59:29Z</time>
      </trkpt>
      <trkpt lat="44.34379" lon="3.62841">
        <ele>608.65</ele>
        <time>2022-08-07T11:59:45Z</time>
      </trkpt>
      <trkpt lat="44.34389" lon="3.62821">
        <ele>608.65</ele>
        <time>2022-08-07T12:00:00Z</time>
      </trkpt>
      <trkpt lat="44.34398" lon="3.62803">
        <ele>608.65</ele>
        <time>2022-08-07T12:00:13Z</time>
      </trkpt>
      <trkpt lat="44.34408" lon="3.62791">
        <ele>608.17</ele>
        <time>2022-08-07T12:00:28Z</time>
      </trkpt>
      <trkpt lat="44.34421" lon="3.62786">
        <ele>606.73</ele>
        <time>2022-08-07T12:00:42Z</time>
      </trkpt>
      <trkpt lat="44.34435" lon="3.62782">
        <ele>604.33</ele>
        <time>2022-08-07T12:00:53Z</time>
      </trkpt>
      <trkpt lat="44.34456" lon="3.62775">
        <ele>603.36</ele>
        <time>2022-08-07T12:01:08Z</time>
      </trkpt>
      <trkpt lat="44.34469" lon="3.62768">
        <ele>602.88</ele>
        <time>2022-08-07T12:01:20Z</time>
      </trkpt>
      <trkpt lat="44.34474" lon="3.62764">
        <ele>602.88</ele>
        <time>2022-08-07T12:01:25Z</time>
      </trkpt>
      <trkpt lat="44.34489" lon="3.62753">
        <ele>601.44</ele>
        <time>2022-08-07T12:01:38Z</time>
      </trkpt>
      <trkpt lat="44.34497" lon="3.62745">
        <ele>600.48</ele>
        <time>2022-08-07T12:01:46Z</time>
      </trkpt>
      <trkpt lat="44.34509" lon="3.6273">
        <ele>600.48</ele>
        <time>2022-08-07T12:01:58Z</time>
      </trkpt>
      <trkpt lat="44.34513" lon="3.62724">
        <ele>600.48</ele>
        <time>2022-08-07T12:02:02Z</time>
      </trkpt>
      <trkpt lat="44.34528" lon="3.62706">
        <ele>599.52</ele>
        <time>2022-08-07T12:02:15Z</time>
      </trkpt>
      <trkpt lat="44.34529" lon="3.62702">
        <ele>599.04</ele>
        <time>2022-08-07T12:02:18Z</time>
      </trkpt>
      <trkpt lat="44.34529" lon="3.627">
        <ele>598.56</ele>
        <time>2022-08-07T12:02:19Z</time>
      </trkpt>
      <trkpt lat="44.34529" lon="3.62698">
        <ele>598.08</ele>
        <time>2022-08-07T12:02:20Z</time>
      </trkpt>
      <trkpt lat="44.3453" lon="3.62696">
        <ele>598.08</ele>
        <time>2022-08-07T12:02:21Z</time>
      </trkpt>
      <trkpt lat="44.34531" lon="3.62679">
        <ele>596.15</ele>
        <time>2022-08-07T12:02:32Z</time>
      </trkpt>
      <trkpt lat="44.34533" lon="3.62662">
        <ele>597.6</ele>
        <time>2022-08-07T12:02:43Z</time>
      </trkpt>
      <trkpt lat="44.34533" lon="3.62643">
        <ele>598.08</ele>
        <time>2022-08-07T12:02:56Z</time>
      </trkpt>
      <trkpt lat="44.34534" lon="3.6262">
        <ele>598.08</ele>
        <time>2022-08-07T12:03:09Z</time>
      </trkpt>
      <trkpt lat="44.34535" lon="3.62618">
        <ele>598.08</ele>
        <time>2022-08-07T12:03:10Z</time>
      </trkpt>
      <trkpt lat="44.34544" lon="3.62595">
        <ele>597.6</ele>
        <time>2022-08-07T12:03:22Z</time>
      </trkpt>
      <trkpt lat="44.34551" lon="3.62583">
        <ele>597.12</ele>
        <time>2022-08-07T12:03:30Z</time>
      </trkpt>
      <trkpt lat="44.34553" lon="3.62582">
        <ele>597.12</ele>
        <time>2022-08-07T12:03:31Z</time>
      </trkpt>
      <trkpt lat="44.34553" lon="3.62581">
        <ele>597.12</ele>
        <time>2022-08-07T12:03:32Z</time>
      </trkpt>
      <trkpt lat="44.34565" lon="3.62563">
        <ele>597.12</ele>
        <time>2022-08-07T12:03:47Z</time>
      </trkpt>
      <trkpt lat="44.34571" lon="3.62553">
        <ele>596.64</ele>
        <time>2022-08-07T12:03:54Z</time>
      </trkpt>
      <trkpt lat="44.34575" lon="3.62534">
        <ele>595.19</ele>
        <time>2022-08-07T12:04:07Z</time>
      </trkpt>
      <trkpt lat="44.34575" lon="3.62532">
        <ele>595.19</ele>
        <time>2022-08-07T12:04:08Z</time>
      </trkpt>
      <trkpt lat="44.34576" lon="3.62513">
        <ele>594.71</ele>
        <time>2022-08-07T12:04:21Z</time>
      </trkpt>
      <trkpt lat="44.34577" lon="3.625">
        <ele>594.71</ele>
        <time>2022-08-07T12:04:30Z</time>
      </trkpt>
      <trkpt lat="44.34584" lon="3.62487">
        <ele>593.75</ele>
        <time>2022-08-07T12:04:43Z</time>
      </trkpt>
      <trkpt lat="44.34584" lon="3.62482">
        <ele>591.83</ele>
        <time>2022-08-07T12:04:56Z</time>
      </trkpt>
      <trkpt lat="44.34582" lon="3.62484">
        <ele>591.83</ele>
        <time>2022-08-07T12:05:22Z</time>
      </trkpt>
      <trkpt lat="44.34582" lon="3.62486">
        <ele>591.35</ele>
        <time>2022-08-07T12:05:51Z</time>
      </trkpt>
      <trkpt lat="44.34583" lon="3.62484">
        <ele>589.91</ele>
        <time>2022-08-07T12:06:13Z</time>
      </trkpt>
      <trkpt lat="44.3458" lon="3.62482">
        <ele>587.98</ele>
        <time>2022-08-07T12:06:27Z</time>
      </trkpt>
      <trkpt lat="44.34577" lon="3.62469">
        <ele>587.02</ele>
        <time>2022-08-07T12:06:36Z</time>
      </trkpt>
      <trkpt lat="44.34576" lon="3.62468">
        <ele>587.02</ele>
        <time>2022-08-07T12:06:37Z</time>
      </trkpt>
      <trkpt lat="44.34573" lon="3.6245">
        <ele>586.54</ele>
        <time>2022-08-07T12:06:49Z</time>
      </trkpt>
      <trkpt lat="44.34572" lon="3.62447">
        <ele>586.54</ele>
        <time>2022-08-07T12:06:51Z</time>
      </trkpt>
      <trkpt lat="44.34573" lon="3.62443">
        <ele>587.02</ele>
        <time>2022-08-07T12:06:53Z</time>
      </trkpt>
      <trkpt lat="44.34574" lon="3.62439">
        <ele>587.5</ele>
        <time>2022-08-07T12:06:55Z</time>
      </trkpt>
      <trkpt lat="44.34574" lon="3.62436">
        <ele>588.46</ele>
        <time>2022-08-07T12:06:57Z</time>
      </trkpt>
      <trkpt lat="44.34575" lon="3.62435">
        <ele>588.95</ele>
        <time>2022-08-07T12:06:58Z</time>
      </trkpt>
      <trkpt lat="44.34578" lon="3.62409">
        <ele>591.83</ele>
        <time>2022-08-07T12:07:14Z</time>
      </trkpt>
      <trkpt lat="44.34587" lon="3.62386">
        <ele>591.83</ele>
        <time>2022-08-07T12:07:29Z</time>
      </trkpt>
      <trkpt lat="44.34596" lon="3.62368">
        <ele>590.87</ele>
        <time>2022-08-07T12:07:44Z</time>
      </trkpt>
      <trkpt lat="44.34597" lon="3.62365">
        <ele>588.95</ele>
        <time>2022-08-07T12:07:51Z</time>
      </trkpt>
      <trkpt lat="44.34597" lon="3.62363">
        <ele>588.95</ele>
        <time>2022-08-07T12:07:53Z</time>
      </trkpt>
      <trkpt lat="44.34599" lon="3.62349">
        <ele>586.06</ele>
        <time>2022-08-07T12:08:03Z</time>
      </trkpt>
      <trkpt lat="44.34606" lon="3.62347">
        <ele>586.06</ele>
        <time>2022-08-07T12:08:18Z</time>
      </trkpt>
      <trkpt lat="44.34605" lon="3.62346">
        <ele>585.58</ele>
        <time>2022-08-07T12:08:34Z</time>
      </trkpt>
      <trkpt lat="44.34599" lon="3.62349">
        <ele>584.62</ele>
        <time>2022-08-07T12:09:03Z</time>
      </trkpt>
      <trkpt lat="44.34602" lon="3.62343">
        <ele>581.73</ele>
        <time>2022-08-07T12:09:31Z</time>
      </trkpt>
      <trkpt lat="44.34599" lon="3.62328">
        <ele>579.81</ele>
        <time>2022-08-07T12:09:44Z</time>
      </trkpt>
      <trkpt lat="44.34597" lon="3.62319">
        <ele>578.85</ele>
        <time>2022-08-07T12:09:50Z</time>
      </trkpt>
      <trkpt lat="44.34595" lon="3.62313">
        <ele>580.29</ele>
        <time>2022-08-07T12:09:54Z</time>
      </trkpt>
      <trkpt lat="44.34593" lon="3.62307">
        <ele>581.25</ele>
        <time>2022-08-07T12:09:58Z</time>
      </trkpt>
      <trkpt lat="44.34592" lon="3.623">
        <ele>582.22</ele>
        <time>2022-08-07T12:10:02Z</time>
      </trkpt>
      <trkpt lat="44.34587" lon="3.62279">
        <ele>583.18</ele>
        <time>2022-08-07T12:10:17Z</time>
      </trkpt>
      <trkpt lat="44.34585" lon="3.62263">
        <ele>581.73</ele>
        <time>2022-08-07T12:10:28Z</time>
      </trkpt>
      <trkpt lat="44.34582" lon="3.62245">
        <ele>581.73</ele>
        <time>2022-08-07T12:10:39Z</time>
      </trkpt>
      <trkpt lat="44.34578" lon="3.6222">
        <ele>585.58</ele>
        <time>2022-08-07T12:10:53Z</time>
      </trkpt>
      <trkpt lat="44.34571" lon="3.62196">
        <ele>587.5</ele>
        <time>2022-08-07T12:11:08Z</time>
      </trkpt>
      <trkpt lat="44.34562" lon="3.62175">
        <ele>587.02</ele>
        <time>2022-08-07T12:11:23Z</time>
      </trkpt>
      <trkpt lat="44.3456" lon="3.6216">
        <ele>585.58</ele>
        <time>2022-08-07T12:11:32Z</time>
      </trkpt>
      <trkpt lat="44.34559" lon="3.62157">
        <ele>585.58</ele>
        <time>2022-08-07T12:11:34Z</time>
      </trkpt>
      <trkpt lat="44.34556" lon="3.62143">
        <ele>585.58</ele>
        <time>2022-08-07T12:11:43Z</time>
      </trkpt>
      <trkpt lat="44.3455" lon="3.62124">
        <ele>585.1</ele>
        <time>2022-08-07T12:11:55Z</time>
      </trkpt>
      <trkpt lat="44.34549" lon="3.62121">
        <ele>584.14</ele>
        <time>2022-08-07T12:11:57Z</time>
      </trkpt>
      <trkpt lat="44.3454" lon="3.62091">
        <ele>579.81</ele>
        <time>2022-08-07T12:12:13Z</time>
      </trkpt>
      <trkpt lat="44.34534" lon="3.6207">
        <ele>579.33</ele>
        <time>2022-08-07T12:12:26Z</time>
      </trkpt>
      <trkpt lat="44.34526" lon="3.62047">
        <ele>581.73</ele>
        <time>2022-08-07T12:12:41Z</time>
      </trkpt>
      <trkpt lat="44.3452" lon="3.62033">
        <ele>582.22</ele>
        <time>2022-08-07T12:12:53Z</time>
      </trkpt>
      <trkpt lat="44.34511" lon="3.62003">
        <ele>582.22</ele>
        <time>2022-08-07T12:13:08Z</time>
      </trkpt>
      <trkpt lat="44.34504" lon="3.61988">
        <ele>583.18</ele>
        <time>2022-08-07T12:13:17Z</time>
      </trkpt>
      <trkpt lat="44.34494" lon="3.61967">
        <ele>584.14</ele>
        <time>2022-08-07T12:13:30Z</time>
      </trkpt>
      <trkpt lat="44.34481" lon="3.61945">
        <ele>584.62</ele>
        <time>2022-08-07T12:13:46Z</time>
      </trkpt>
      <trkpt lat="44.34476" lon="3.61928">
        <ele>583.66</ele>
        <time>2022-08-07T12:13:57Z</time>
      </trkpt>
      <trkpt lat="44.34473" lon="3.6192">
        <ele>584.14</ele>
        <time>2022-08-07T12:14:02Z</time>
      </trkpt>
      <trkpt lat="44.34463" lon="3.61904">
        <ele>584.14</ele>
        <time>2022-08-07T12:14:15Z</time>
      </trkpt>
      <trkpt lat="44.34462" lon="3.61902">
        <ele>584.62</ele>
        <time>2022-08-07T12:14:17Z</time>
      </trkpt>
      <trkpt lat="44.34448" lon="3.61875">
        <ele>582.7</ele>
        <time>2022-08-07T12:14:35Z</time>
      </trkpt>
      <trkpt lat="44.34443" lon="3.61866">
        <ele>582.7</ele>
        <time>2022-08-07T12:14:42Z</time>
      </trkpt>
      <trkpt lat="44.34437" lon="3.61847">
        <ele>583.66</ele>
        <time>2022-08-07T12:14:55Z</time>
      </trkpt>
      <trkpt lat="44.34433" lon="3.6184">
        <ele>584.14</ele>
        <time>2022-08-07T12:15:00Z</time>
      </trkpt>
      <trkpt lat="44.34427" lon="3.61828">
        <ele>584.62</ele>
        <time>2022-08-07T12:15:07Z</time>
      </trkpt>
      <trkpt lat="44.34417" lon="3.61802">
        <ele>583.66</ele>
        <time>2022-08-07T12:15:23Z</time>
      </trkpt>
      <trkpt lat="44.34407" lon="3.61786">
        <ele>583.66</ele>
        <time>2022-08-07T12:15:33Z</time>
      </trkpt>
      <trkpt lat="44.34394" lon="3.61755">
        <ele>581.25</ele>
        <time>2022-08-07T12:15:51Z</time>
      </trkpt>
      <trkpt lat="44.34395" lon="3.61746">
        <ele>579.81</ele>
        <time>2022-08-07T12:15:57Z</time>
      </trkpt>
      <trkpt lat="44.34397" lon="3.61739">
        <ele>579.33</ele>
        <time>2022-08-07T12:16:01Z</time>
      </trkpt>
      <trkpt lat="44.34399" lon="3.61734">
        <ele>578.85</ele>
        <time>2022-08-07T12:16:04Z</time>
      </trkpt>
      <trkpt lat="44.34403" lon="3.61724">
        <ele>578.85</ele>
        <time>2022-08-07T12:16:11Z</time>
      </trkpt>
      <trkpt lat="44.34402" lon="3.61695">
        <ele>576.45</ele>
        <time>2022-08-07T12:16:28Z</time>
      </trkpt>
      <trkpt lat="44.34394" lon="3.61669">
        <ele>575.97</ele>
        <time>2022-08-07T12:16:45Z</time>
      </trkpt>
      <trkpt lat="44.34386" lon="3.61645">
        <ele>574.53</ele>
        <time>2022-08-07T12:17:00Z</time>
      </trkpt>
      <trkpt lat="44.34377" lon="3.61623">
        <ele>574.53</ele>
        <time>2022-08-07T12:17:15Z</time>
      </trkpt>
      <trkpt lat="44.34372" lon="3.61611">
        <ele>575.49</ele>
        <time>2022-08-07T12:17:23Z</time>
      </trkpt>
      <trkpt lat="44.34367" lon="3.61594">
        <ele>579.33</ele>
        <time>2022-08-07T12:17:38Z</time>
      </trkpt>
      <trkpt lat="44.34354" lon="3.61569">
        <ele>577.41</ele>
        <time>2022-08-07T12:17:52Z</time>
      </trkpt>
      <trkpt lat="44.34348" lon="3.61542">
        <ele>572.6</ele>
        <time>2022-08-07T12:18:09Z</time>
      </trkpt>
      <trkpt lat="44.34348" lon="3.61521">
        <ele>573.08</ele>
        <time>2022-08-07T12:18:22Z</time>
      </trkpt>
      <trkpt lat="44.34344" lon="3.61493">
        <ele>574.53</ele>
        <time>2022-08-07T12:18:39Z</time>
      </trkpt>
      <trkpt lat="44.34339" lon="3.61474">
        <ele>574.04</ele>
        <time>2022-08-07T12:18:52Z</time>
      </trkpt>
      <trkpt lat="44.34339" lon="3.61471">
        <ele>574.04</ele>
        <time>2022-08-07T12:18:54Z</time>
      </trkpt>
      <trkpt lat="44.34338" lon="3.61458">
        <ele>575.49</ele>
        <time>2022-08-07T12:19:02Z</time>
      </trkpt>
      <trkpt lat="44.34337" lon="3.61452">
        <ele>575.49</ele>
        <time>2022-08-07T12:19:06Z</time>
      </trkpt>
      <trkpt lat="44.34332" lon="3.61425">
        <ele>574.53</ele>
        <time>2022-08-07T12:19:22Z</time>
      </trkpt>
      <trkpt lat="44.34332" lon="3.61422">
        <ele>574.53</ele>
        <time>2022-08-07T12:19:24Z</time>
      </trkpt>
      <trkpt lat="44.34331" lon="3.61417">
        <ele>574.04</ele>
        <time>2022-08-07T12:19:27Z</time>
      </trkpt>
      <trkpt lat="44.34331" lon="3.61413">
        <ele>573.56</ele>
        <time>2022-08-07T12:19:30Z</time>
      </trkpt>
      <trkpt lat="44.34328" lon="3.61392">
        <ele>574.04</ele>
        <time>2022-08-07T12:19:43Z</time>
      </trkpt>
      <trkpt lat="44.34327" lon="3.61367">
        <ele>572.6</ele>
        <time>2022-08-07T12:19:57Z</time>
      </trkpt>
      <trkpt lat="44.34326" lon="3.6136">
        <ele>572.12</ele>
        <time>2022-08-07T12:20:02Z</time>
      </trkpt>
      <trkpt lat="44.34325" lon="3.61353">
        <ele>571.64</ele>
        <time>2022-08-07T12:20:06Z</time>
      </trkpt>
      <trkpt lat="44.34325" lon="3.6133">
        <ele>570.68</ele>
        <time>2022-08-07T12:20:20Z</time>
      </trkpt>
      <trkpt lat="44.34328" lon="3.61305">
        <ele>570.68</ele>
        <time>2022-08-07T12:20:34Z</time>
      </trkpt>
      <trkpt lat="44.34328" lon="3.61278">
        <ele>569.24</ele>
        <time>2022-08-07T12:20:48Z</time>
      </trkpt>
      <trkpt lat="44.34328" lon="3.61277">
        <ele>569.24</ele>
        <time>2022-08-07T12:20:49Z</time>
      </trkpt>
      <trkpt lat="44.3433" lon="3.61268">
        <ele>569.24</ele>
        <time>2022-08-07T12:20:54Z</time>
      </trkpt>
      <trkpt lat="44.34333" lon="3.61257">
        <ele>570.68</ele>
        <time>2022-08-07T12:21:01Z</time>
      </trkpt>
      <trkpt lat="44.34332" lon="3.61252">
        <ele>570.68</ele>
        <time>2022-08-07T12:21:04Z</time>
      </trkpt>
      <trkpt lat="44.34331" lon="3.61236">
        <ele>570.2</ele>
        <time>2022-08-07T12:21:14Z</time>
      </trkpt>
      <trkpt lat="44.34331" lon="3.61216">
        <ele>570.68</ele>
        <time>2022-08-07T12:21:26Z</time>
      </trkpt>
      <trkpt lat="44.34332" lon="3.61195">
        <ele>570.68</ele>
        <time>2022-08-07T12:21:40Z</time>
      </trkpt>
      <trkpt lat="44.34332" lon="3.61193">
        <ele>570.68</ele>
        <time>2022-08-07T12:21:41Z</time>
      </trkpt>
      <trkpt lat="44.34336" lon="3.61186">
        <ele>573.08</ele>
        <time>2022-08-07T12:21:45Z</time>
      </trkpt>
      <trkpt lat="44.34351" lon="3.61164">
        <ele>582.7</ele>
        <time>2022-08-07T12:22:00Z</time>
      </trkpt>
      <trkpt lat="44.34361" lon="3.61147">
        <ele>587.02</ele>
        <time>2022-08-07T12:22:12Z</time>
      </trkpt>
      <trkpt lat="44.34363" lon="3.6114">
        <ele>587.5</ele>
        <time>2022-08-07T12:22:17Z</time>
      </trkpt>
      <trkpt lat="44.34372" lon="3.6112">
        <ele>588.46</ele>
        <time>2022-08-07T12:22:32Z</time>
      </trkpt>
      <trkpt lat="44.34378" lon="3.61102">
        <ele>589.43</ele>
        <time>2022-08-07T12:22:45Z</time>
      </trkpt>
      <trkpt lat="44.3438" lon="3.61082">
        <ele>588.95</ele>
        <time>2022-08-07T12:22:59Z</time>
      </trkpt>
      <trkpt lat="44.34385" lon="3.61069">
        <ele>588.46</ele>
        <time>2022-08-07T12:23:11Z</time>
      </trkpt>
      <trkpt lat="44.34389" lon="3.61062">
        <ele>587.98</ele>
        <time>2022-08-07T12:23:18Z</time>
      </trkpt>
      <trkpt lat="44.34395" lon="3.61046">
        <ele>587.98</ele>
        <time>2022-08-07T12:23:31Z</time>
      </trkpt>
      <trkpt lat="44.34403" lon="3.6103">
        <ele>588.46</ele>
        <time>2022-08-07T12:23:43Z</time>
      </trkpt>
      <trkpt lat="44.34409" lon="3.61011">
        <ele>587.98</ele>
        <time>2022-08-07T12:23:55Z</time>
      </trkpt>
      <trkpt lat="44.34417" lon="3.60989">
        <ele>588.95</ele>
        <time>2022-08-07T12:24:11Z</time>
      </trkpt>
      <trkpt lat="44.34419" lon="3.60973">
        <ele>588.95</ele>
        <time>2022-08-07T12:24:27Z</time>
      </trkpt>
      <trkpt lat="44.34419" lon="3.60955">
        <ele>586.54</ele>
        <time>2022-08-07T12:24:40Z</time>
      </trkpt>
      <trkpt lat="44.34419" lon="3.60935">
        <ele>583.18</ele>
        <time>2022-08-07T12:24:54Z</time>
      </trkpt>
      <trkpt lat="44.3442" lon="3.60919">
        <ele>583.18</ele>
        <time>2022-08-07T12:25:08Z</time>
      </trkpt>
      <trkpt lat="44.34421" lon="3.60915">
        <ele>585.1</ele>
        <time>2022-08-07T12:25:33Z</time>
      </trkpt>
      <trkpt lat="44.3442" lon="3.60913">
        <ele>585.58</ele>
        <time>2022-08-07T12:25:51Z</time>
      </trkpt>
      <trkpt lat="44.34425" lon="3.60906">
        <ele>585.58</ele>
        <time>2022-08-07T12:26:14Z</time>
      </trkpt>
      <trkpt lat="44.34427" lon="3.6089">
        <ele>584.62</ele>
        <time>2022-08-07T12:26:24Z</time>
      </trkpt>
      <trkpt lat="44.34423" lon="3.60867">
        <ele>583.66</ele>
        <time>2022-08-07T12:26:40Z</time>
      </trkpt>
      <trkpt lat="44.34417" lon="3.60858">
        <ele>583.18</ele>
        <time>2022-08-07T12:26:50Z</time>
      </trkpt>
      <trkpt lat="44.34398" lon="3.60858">
        <ele>583.66</ele>
        <time>2022-08-07T12:27:06Z</time>
      </trkpt>
      <trkpt lat="44.34384" lon="3.60863">
        <ele>581.73</ele>
        <time>2022-08-07T12:27:19Z</time>
      </trkpt>
      <trkpt lat="44.34367" lon="3.60862">
        <ele>581.73</ele>
        <time>2022-08-07T12:27:34Z</time>
      </trkpt>
      <trkpt lat="44.3435" lon="3.60856">
        <ele>580.77</ele>
        <time>2022-08-07T12:27:48Z</time>
      </trkpt>
      <trkpt lat="44.34345" lon="3.60853">
        <ele>580.77</ele>
        <time>2022-08-07T12:27:52Z</time>
      </trkpt>
      <trkpt lat="44.34326" lon="3.60836">
        <ele>581.25</ele>
        <time>2022-08-07T12:28:10Z</time>
      </trkpt>
      <trkpt lat="44.34311" lon="3.60823">
        <ele>580.29</ele>
        <time>2022-08-07T12:28:25Z</time>
      </trkpt>
      <trkpt lat="44.34294" lon="3.60811">
        <ele>579.81</ele>
        <time>2022-08-07T12:28:41Z</time>
      </trkpt>
      <trkpt lat="44.34284" lon="3.60799">
        <ele>577.89</ele>
        <time>2022-08-07T12:28:52Z</time>
      </trkpt>
      <trkpt lat="44.3427" lon="3.60782">
        <ele>578.37</ele>
        <time>2022-08-07T12:29:08Z</time>
      </trkpt>
      <trkpt lat="44.34257" lon="3.60768">
        <ele>580.29</ele>
        <time>2022-08-07T12:29:22Z</time>
      </trkpt>
      <trkpt lat="44.34243" lon="3.6075">
        <ele>581.25</ele>
        <time>2022-08-07T12:29:38Z</time>
      </trkpt>
      <trkpt lat="44.34233" lon="3.60739">
        <ele>581.73</ele>
        <time>2022-08-07T12:29:53Z</time>
      </trkpt>
      <trkpt lat="44.34216" lon="3.60729">
        <ele>582.22</ele>
        <time>2022-08-07T12:30:05Z</time>
      </trkpt>
      <trkpt lat="44.342" lon="3.60704">
        <ele>581.25</ele>
        <time>2022-08-07T12:30:24Z</time>
      </trkpt>
      <trkpt lat="44.34197" lon="3.60693">
        <ele>580.77</ele>
        <time>2022-08-07T12:30:31Z</time>
      </trkpt>
      <trkpt lat="44.34187" lon="3.60669">
        <ele>580.77</ele>
        <time>2022-08-07T12:30:48Z</time>
      </trkpt>
      <trkpt lat="44.34173" lon="3.60647">
        <ele>580.29</ele>
        <time>2022-08-07T12:31:05Z</time>
      </trkpt>
      <trkpt lat="44.34161" lon="3.6063">
        <ele>579.81</ele>
        <time>2022-08-07T12:31:20Z</time>
      </trkpt>
      <trkpt lat="44.34146" lon="3.60612">
        <ele>579.33</ele>
        <time>2022-08-07T12:31:37Z</time>
      </trkpt>
      <trkpt lat="44.34142" lon="3.60607">
        <ele>578.37</ele>
        <time>2022-08-07T12:31:41Z</time>
      </trkpt>
      <trkpt lat="44.3413" lon="3.6059">
        <ele>578.85</ele>
        <time>2022-08-07T12:31:58Z</time>
      </trkpt>
      <trkpt lat="44.34129" lon="3.60589">
        <ele>580.29</ele>
        <time>2022-08-07T12:32:09Z</time>
      </trkpt>
      <trkpt lat="44.34128" lon="3.60596">
        <ele>579.33</ele>
        <time>2022-08-07T12:32:15Z</time>
      </trkpt>
      <trkpt lat="44.34126" lon="3.60598">
        <ele>579.33</ele>
        <time>2022-08-07T12:32:16Z</time>
      </trkpt>
      <trkpt lat="44.34126" lon="3.606">
        <ele>581.25</ele>
        <time>2022-08-07T12:32:29Z</time>
      </trkpt>
      <trkpt lat="44.34125" lon="3.60598">
        <ele>582.7</ele>
        <time>2022-08-07T12:32:49Z</time>
      </trkpt>
      <trkpt lat="44.34126" lon="3.60596">
        <ele>582.7</ele>
        <time>2022-08-07T12:33:02Z</time>
      </trkpt>
      <trkpt lat="44.34127" lon="3.60597">
        <ele>585.1</ele>
        <time>2022-08-07T12:33:24Z</time>
      </trkpt>
      <trkpt lat="44.34128" lon="3.60597">
        <ele>584.62</ele>
        <time>2022-08-07T12:33:46Z</time>
      </trkpt>
      <trkpt lat="44.34126" lon="3.60594">
        <ele>583.18</ele>
        <time>2022-08-07T12:34:24Z</time>
      </trkpt>
      <trkpt lat="44.34123" lon="3.60594">
        <ele>582.7</ele>
        <time>2022-08-07T12:34:59Z</time>
      </trkpt>
      <trkpt lat="44.34125" lon="3.60595">
        <ele>581.73</ele>
        <time>2022-08-07T12:35:26Z</time>
      </trkpt>
      <trkpt lat="44.34124" lon="3.60593">
        <ele>581.73</ele>
        <time>2022-08-07T12:35:40Z</time>
      </trkpt>
      <trkpt lat="44.34125" lon="3.60594">
        <ele>581.25</ele>
        <time>2022-08-07T12:36:02Z</time>
      </trkpt>
      <trkpt lat="44.34123" lon="3.60586">
        <ele>582.22</ele>
        <time>2022-08-07T12:36:23Z</time>
      </trkpt>
      <trkpt lat="44.34116" lon="3.60576">
        <ele>582.7</ele>
        <time>2022-08-07T12:36:37Z</time>
      </trkpt>
      <trkpt lat="44.34108" lon="3.60563">
        <ele>581.73</ele>
        <time>2022-08-07T12:36:52Z</time>
      </trkpt>
      <trkpt lat="44.34106" lon="3.6056">
        <ele>581.25</ele>
        <time>2022-08-07T12:36:55Z</time>
      </trkpt>
      <trkpt lat="44.34093" lon="3.6054">
        <ele>581.73</ele>
        <time>2022-08-07T12:37:13Z</time>
      </trkpt>
      <trkpt lat="44.34078" lon="3.60531">
        <ele>583.66</ele>
        <time>2022-08-07T12:37:28Z</time>
      </trkpt>
      <trkpt lat="44.34075" lon="3.60531">
        <ele>583.66</ele>
        <time>2022-08-07T12:37:31Z</time>
      </trkpt>
      <trkpt lat="44.34069" lon="3.60522">
        <ele>583.66</ele>
        <time>2022-08-07T12:37:47Z</time>
      </trkpt>
      <trkpt lat="44.34072" lon="3.60502">
        <ele>580.77</ele>
        <time>2022-08-07T12:38:05Z</time>
      </trkpt>
      <trkpt lat="44.3407" lon="3.6048">
        <ele>579.33</ele>
        <time>2022-08-07T12:38:20Z</time>
      </trkpt>
      <trkpt lat="44.34068" lon="3.6046">
        <ele>581.73</ele>
        <time>2022-08-07T12:38:36Z</time>
      </trkpt>
      <trkpt lat="44.34065" lon="3.60445">
        <ele>583.18</ele>
        <time>2022-08-07T12:38:50Z</time>
      </trkpt>
      <trkpt lat="44.34061" lon="3.6043">
        <ele>584.14</ele>
        <time>2022-08-07T12:39:06Z</time>
      </trkpt>
      <trkpt lat="44.34058" lon="3.60421">
        <ele>585.1</ele>
        <time>2022-08-07T12:39:13Z</time>
      </trkpt>
      <trkpt lat="44.34059" lon="3.60414">
        <ele>586.06</ele>
        <time>2022-08-07T12:39:17Z</time>
      </trkpt>
      <trkpt lat="44.34064" lon="3.60411">
        <ele>585.58</ele>
        <time>2022-08-07T12:39:23Z</time>
      </trkpt>
      <trkpt lat="44.34074" lon="3.604">
        <ele>585.58</ele>
        <time>2022-08-07T12:39:37Z</time>
      </trkpt>
      <trkpt lat="44.34084" lon="3.60399">
        <ele>586.06</ele>
        <time>2022-08-07T12:39:48Z</time>
      </trkpt>
      <trkpt lat="44.34109" lon="3.60407">
        <ele>586.06</ele>
        <time>2022-08-07T12:40:05Z</time>
      </trkpt>
      <trkpt lat="44.34126" lon="3.60411">
        <ele>585.58</ele>
        <time>2022-08-07T12:40:19Z</time>
      </trkpt>
      <trkpt lat="44.34144" lon="3.6041">
        <ele>582.22</ele>
        <time>2022-08-07T12:40:35Z</time>
      </trkpt>
      <trkpt lat="44.34154" lon="3.60408">
        <ele>580.29</ele>
        <time>2022-08-07T12:40:45Z</time>
      </trkpt>
      <trkpt lat="44.34172" lon="3.60402">
        <ele>579.33</ele>
        <time>2022-08-07T12:41:00Z</time>
      </trkpt>
      <trkpt lat="44.34176" lon="3.604">
        <ele>578.85</ele>
        <time>2022-08-07T12:41:04Z</time>
      </trkpt>
      <trkpt lat="44.34194" lon="3.60396">
        <ele>578.85</ele>
        <time>2022-08-07T12:41:20Z</time>
      </trkpt>
      <trkpt lat="44.34208" lon="3.60392">
        <ele>577.41</ele>
        <time>2022-08-07T12:41:33Z</time>
      </trkpt>
      <trkpt lat="44.34221" lon="3.60388">
        <ele>575.97</ele>
        <time>2022-08-07T12:41:46Z</time>
      </trkpt>
      <trkpt lat="44.34235" lon="3.60385">
        <ele>575.49</ele>
        <time>2022-08-07T12:41:59Z</time>
      </trkpt>
      <trkpt lat="44.34252" lon="3.60381">
        <ele>574.53</ele>
        <time>2022-08-07T12:42:14Z</time>
      </trkpt>
      <trkpt lat="44.34268" lon="3.60379">
        <ele>573.08</ele>
        <time>2022-08-07T12:42:30Z</time>
      </trkpt>
      <trkpt lat="44.34271" lon="3.60381">
        <ele>572.12</ele>
        <time>2022-08-07T12:42:42Z</time>
      </trkpt>
      <trkpt lat="44.34272" lon="3.60379">
        <ele>572.12</ele>
        <time>2022-08-07T12:42:44Z</time>
      </trkpt>
      <trkpt lat="44.34293" lon="3.60371">
        <ele>570.2</ele>
        <time>2022-08-07T12:43:02Z</time>
      </trkpt>
      <trkpt lat="44.34311" lon="3.60373">
        <ele>572.12</ele>
        <time>2022-08-07T12:43:15Z</time>
      </trkpt>
      <trkpt lat="44.34329" lon="3.60367">
        <ele>572.12</ele>
        <time>2022-08-07T12:43:31Z</time>
      </trkpt>
      <trkpt lat="44.34332" lon="3.60365">
        <ele>571.64</ele>
        <time>2022-08-07T12:43:33Z</time>
      </trkpt>
      <trkpt lat="44.34333" lon="3.60361">
        <ele>571.16</ele>
        <time>2022-08-07T12:43:36Z</time>
      </trkpt>
      <trkpt lat="44.34337" lon="3.60352">
        <ele>569.72</ele>
        <time>2022-08-07T12:43:43Z</time>
      </trkpt>
      <trkpt lat="44.34332" lon="3.60329">
        <ele>566.83</ele>
        <time>2022-08-07T12:43:57Z</time>
      </trkpt>
      <trkpt lat="44.34322" lon="3.60312">
        <ele>561.55</ele>
        <time>2022-08-07T12:44:08Z</time>
      </trkpt>
      <trkpt lat="44.34321" lon="3.6031">
        <ele>561.07</ele>
        <time>2022-08-07T12:44:09Z</time>
      </trkpt>
      <trkpt lat="44.34324" lon="3.60303">
        <ele>565.39</ele>
        <time>2022-08-07T12:44:15Z</time>
      </trkpt>
      <trkpt lat="44.3432" lon="3.60282">
        <ele>565.39</ele>
        <time>2022-08-07T12:44:29Z</time>
      </trkpt>
      <trkpt lat="44.34319" lon="3.60278">
        <ele>565.87</ele>
        <time>2022-08-07T12:44:32Z</time>
      </trkpt>
      <trkpt lat="44.34318" lon="3.60275">
        <ele>565.87</ele>
        <time>2022-08-07T12:44:34Z</time>
      </trkpt>
      <trkpt lat="44.34317" lon="3.60272">
        <ele>565.87</ele>
        <time>2022-08-07T12:44:36Z</time>
      </trkpt>
      <trkpt lat="44.34314" lon="3.60249">
        <ele>565.39</ele>
        <time>2022-08-07T12:44:51Z</time>
      </trkpt>
      <trkpt lat="44.3432" lon="3.60233">
        <ele>568.28</ele>
        <time>2022-08-07T12:45:02Z</time>
      </trkpt>
      <trkpt lat="44.34331" lon="3.60223">
        <ele>572.6</ele>
        <time>2022-08-07T12:45:13Z</time>
      </trkpt>
      <trkpt lat="44.34345" lon="3.60218">
        <ele>574.04</ele>
        <time>2022-08-07T12:45:28Z</time>
      </trkpt>
      <trkpt lat="44.34358" lon="3.60216">
        <ele>573.08</ele>
        <time>2022-08-07T12:45:41Z</time>
      </trkpt>
      <trkpt lat="44.34368" lon="3.60207">
        <ele>572.6</ele>
        <time>2022-08-07T12:45:52Z</time>
      </trkpt>
      <trkpt lat="44.34371" lon="3.602">
        <ele>572.12</ele>
        <time>2022-08-07T12:45:57Z</time>
      </trkpt>
      <trkpt lat="44.34376" lon="3.60179">
        <ele>571.16</ele>
        <time>2022-08-07T12:46:11Z</time>
      </trkpt>
      <trkpt lat="44.34382" lon="3.60162">
        <ele>568.76</ele>
        <time>2022-08-07T12:46:23Z</time>
      </trkpt>
      <trkpt lat="44.34393" lon="3.60145">
        <ele>567.32</ele>
        <time>2022-08-07T12:46:39Z</time>
      </trkpt>
      <trkpt lat="44.34403" lon="3.60137">
        <ele>567.32</ele>
        <time>2022-08-07T12:46:50Z</time>
      </trkpt>
      <trkpt lat="44.34409" lon="3.60134">
        <ele>565.87</ele>
        <time>2022-08-07T12:46:55Z</time>
      </trkpt>
      <trkpt lat="44.34428" lon="3.6013">
        <ele>566.35</ele>
        <time>2022-08-07T12:47:11Z</time>
      </trkpt>
      <trkpt lat="44.34444" lon="3.60129">
        <ele>564.43</ele>
        <time>2022-08-07T12:47:26Z</time>
      </trkpt>
      <trkpt lat="44.34457" lon="3.60127">
        <ele>562.51</ele>
        <time>2022-08-07T12:47:40Z</time>
      </trkpt>
      <trkpt lat="44.34474" lon="3.60126">
        <ele>563.95</ele>
        <time>2022-08-07T12:47:54Z</time>
      </trkpt>
      <trkpt lat="44.34495" lon="3.60124">
        <ele>561.55</ele>
        <time>2022-08-07T12:48:10Z</time>
      </trkpt>
      <trkpt lat="44.345" lon="3.60107">
        <ele>561.55</ele>
        <time>2022-08-07T12:48:21Z</time>
      </trkpt>
      <trkpt lat="44.34496" lon="3.60082">
        <ele>562.03</ele>
        <time>2022-08-07T12:48:37Z</time>
      </trkpt>
      <trkpt lat="44.3449" lon="3.60061">
        <ele>561.07</ele>
        <time>2022-08-07T12:48:49Z</time>
      </trkpt>
      <trkpt lat="44.34486" lon="3.6004">
        <ele>559.14</ele>
        <time>2022-08-07T12:49:03Z</time>
      </trkpt>
      <trkpt lat="44.34483" lon="3.60018">
        <ele>560.11</ele>
        <time>2022-08-07T12:49:18Z</time>
      </trkpt>
      <trkpt lat="44.34477" lon="3.59994">
        <ele>560.59</ele>
        <time>2022-08-07T12:49:34Z</time>
      </trkpt>
      <trkpt lat="44.34473" lon="3.59974">
        <ele>561.55</ele>
        <time>2022-08-07T12:49:48Z</time>
      </trkpt>
      <trkpt lat="44.34468" lon="3.59956">
        <ele>561.07</ele>
        <time>2022-08-07T12:49:59Z</time>
      </trkpt>
      <trkpt lat="44.34466" lon="3.59931">
        <ele>559.14</ele>
        <time>2022-08-07T12:50:13Z</time>
      </trkpt>
      <trkpt lat="44.34466" lon="3.59924">
        <ele>559.14</ele>
        <time>2022-08-07T12:50:17Z</time>
      </trkpt>
      <trkpt lat="44.34466" lon="3.59914">
        <ele>559.14</ele>
        <time>2022-08-07T12:50:24Z</time>
      </trkpt>
      <trkpt lat="44.34468" lon="3.59907">
        <ele>559.62</ele>
        <time>2022-08-07T12:50:29Z</time>
      </trkpt>
      <trkpt lat="44.34468" lon="3.59895">
        <ele>559.62</ele>
        <time>2022-08-07T12:50:36Z</time>
      </trkpt>
      <trkpt lat="44.3447" lon="3.59872">
        <ele>559.14</ele>
        <time>2022-08-07T12:50:50Z</time>
      </trkpt>
      <trkpt lat="44.3447" lon="3.59866">
        <ele>559.14</ele>
        <time>2022-08-07T12:50:54Z</time>
      </trkpt>
      <trkpt lat="44.34471" lon="3.59863">
        <ele>558.66</ele>
        <time>2022-08-07T12:50:56Z</time>
      </trkpt>
      <trkpt lat="44.34473" lon="3.59846">
        <ele>557.7</ele>
        <time>2022-08-07T12:51:08Z</time>
      </trkpt>
      <trkpt lat="44.34473" lon="3.59841">
        <ele>557.22</ele>
        <time>2022-08-07T12:51:11Z</time>
      </trkpt>
      <trkpt lat="44.34477" lon="3.59817">
        <ele>557.7</ele>
        <time>2022-08-07T12:51:27Z</time>
      </trkpt>
      <trkpt lat="44.34477" lon="3.59816">
        <ele>557.7</ele>
        <time>2022-08-07T12:51:28Z</time>
      </trkpt>
      <trkpt lat="44.34482" lon="3.59792">
        <ele>556.26</ele>
        <time>2022-08-07T12:51:41Z</time>
      </trkpt>
      <trkpt lat="44.3448" lon="3.5977">
        <ele>554.34</ele>
        <time>2022-08-07T12:51:54Z</time>
      </trkpt>
      <trkpt lat="44.34476" lon="3.5975">
        <ele>552.9</ele>
        <time>2022-08-07T12:52:07Z</time>
      </trkpt>
      <trkpt lat="44.34478" lon="3.59726">
        <ele>555.78</ele>
        <time>2022-08-07T12:52:20Z</time>
      </trkpt>
      <trkpt lat="44.34478" lon="3.59718">
        <ele>556.26</ele>
        <time>2022-08-07T12:52:25Z</time>
      </trkpt>
      <trkpt lat="44.34476" lon="3.59696">
        <ele>556.74</ele>
        <time>2022-08-07T12:52:39Z</time>
      </trkpt>
      <trkpt lat="44.34471" lon="3.59673">
        <ele>555.78</ele>
        <time>2022-08-07T12:52:52Z</time>
      </trkpt>
      <trkpt lat="44.34466" lon="3.59649">
        <ele>554.82</ele>
        <time>2022-08-07T12:53:08Z</time>
      </trkpt>
      <trkpt lat="44.34463" lon="3.59623">
        <ele>553.86</ele>
        <time>2022-08-07T12:53:23Z</time>
      </trkpt>
      <trkpt lat="44.34463" lon="3.59614">
        <ele>552.9</ele>
        <time>2022-08-07T12:53:29Z</time>
      </trkpt>
      <trkpt lat="44.34465" lon="3.59587">
        <ele>552.41</ele>
        <time>2022-08-07T12:53:45Z</time>
      </trkpt>
      <trkpt lat="44.3447" lon="3.59563">
        <ele>553.38</ele>
        <time>2022-08-07T12:54:01Z</time>
      </trkpt>
      <trkpt lat="44.34472" lon="3.59559">
        <ele>553.86</ele>
        <time>2022-08-07T12:54:04Z</time>
      </trkpt>
      <trkpt lat="44.34473" lon="3.59546">
        <ele>554.34</ele>
        <time>2022-08-07T12:54:12Z</time>
      </trkpt>
      <trkpt lat="44.34476" lon="3.59536">
        <ele>554.34</ele>
        <time>2022-08-07T12:54:18Z</time>
      </trkpt>
      <trkpt lat="44.34479" lon="3.59514">
        <ele>552.41</ele>
        <time>2022-08-07T12:54:32Z</time>
      </trkpt>
      <trkpt lat="44.34479" lon="3.59506">
        <ele>551.45</ele>
        <time>2022-08-07T12:54:37Z</time>
      </trkpt>
      <trkpt lat="44.34485" lon="3.59483">
        <ele>552.41</ele>
        <time>2022-08-07T12:54:51Z</time>
      </trkpt>
      <trkpt lat="44.34487" lon="3.59473">
        <ele>552.41</ele>
        <time>2022-08-07T12:54:57Z</time>
      </trkpt>
      <trkpt lat="44.3449" lon="3.59463">
        <ele>552.41</ele>
        <time>2022-08-07T12:55:04Z</time>
      </trkpt>
      <trkpt lat="44.34495" lon="3.59447">
        <ele>552.41</ele>
        <time>2022-08-07T12:55:14Z</time>
      </trkpt>
      <trkpt lat="44.34496" lon="3.59442">
        <ele>552.41</ele>
        <time>2022-08-07T12:55:17Z</time>
      </trkpt>
      <trkpt lat="44.34501" lon="3.5942">
        <ele>550.49</ele>
        <time>2022-08-07T12:55:31Z</time>
      </trkpt>
      <trkpt lat="44.34503" lon="3.59416">
        <ele>550.97</ele>
        <time>2022-08-07T12:55:34Z</time>
      </trkpt>
      <trkpt lat="44.34505" lon="3.59408">
        <ele>550.49</ele>
        <time>2022-08-07T12:55:38Z</time>
      </trkpt>
      <trkpt lat="44.34511" lon="3.59384">
        <ele>551.93</ele>
        <time>2022-08-07T12:55:52Z</time>
      </trkpt>
      <trkpt lat="44.34517" lon="3.59359">
        <ele>552.9</ele>
        <time>2022-08-07T12:56:07Z</time>
      </trkpt>
      <trkpt lat="44.3452" lon="3.59348">
        <ele>552.9</ele>
        <time>2022-08-07T12:56:14Z</time>
      </trkpt>
      <trkpt lat="44.34521" lon="3.59342">
        <ele>552.9</ele>
        <time>2022-08-07T12:56:18Z</time>
      </trkpt>
      <trkpt lat="44.34528" lon="3.59318">
        <ele>553.38</ele>
        <time>2022-08-07T12:56:33Z</time>
      </trkpt>
      <trkpt lat="44.34535" lon="3.59298">
        <ele>553.38</ele>
        <time>2022-08-07T12:56:46Z</time>
      </trkpt>
      <trkpt lat="44.34545" lon="3.59273">
        <ele>553.38</ele>
        <time>2022-08-07T12:57:02Z</time>
      </trkpt>
      <trkpt lat="44.34554" lon="3.5925">
        <ele>552.41</ele>
        <time>2022-08-07T12:57:17Z</time>
      </trkpt>
      <trkpt lat="44.34561" lon="3.59237">
        <ele>553.38</ele>
        <time>2022-08-07T12:57:26Z</time>
      </trkpt>
      <trkpt lat="44.34561" lon="3.59227">
        <ele>553.38</ele>
        <time>2022-08-07T12:57:32Z</time>
      </trkpt>
      <trkpt lat="44.34561" lon="3.59223">
        <ele>553.38</ele>
        <time>2022-08-07T12:57:35Z</time>
      </trkpt>
      <trkpt lat="44.34571" lon="3.59202">
        <ele>552.9</ele>
        <time>2022-08-07T12:57:50Z</time>
      </trkpt>
      <trkpt lat="44.34581" lon="3.59188">
        <ele>552.41</ele>
        <time>2022-08-07T12:58:02Z</time>
      </trkpt>
      <trkpt lat="44.34595" lon="3.59171">
        <ele>552.41</ele>
        <time>2022-08-07T12:58:17Z</time>
      </trkpt>
      <trkpt lat="44.34607" lon="3.59158">
        <ele>552.9</ele>
        <time>2022-08-07T12:58:31Z</time>
      </trkpt>
      <trkpt lat="44.34619" lon="3.59149">
        <ele>553.38</ele>
        <time>2022-08-07T12:58:45Z</time>
      </trkpt>
      <trkpt lat="44.34634" lon="3.59142">
        <ele>554.34</ele>
        <time>2022-08-07T12:59:02Z</time>
      </trkpt>
      <trkpt lat="44.34641" lon="3.59143">
        <ele>554.34</ele>
        <time>2022-08-07T12:59:11Z</time>
      </trkpt>
      <trkpt lat="44.34646" lon="3.5913">
        <ele>554.34</ele>
        <time>2022-08-07T12:59:25Z</time>
      </trkpt>
      <trkpt lat="44.34649" lon="3.5911">
        <ele>553.86</ele>
        <time>2022-08-07T12:59:41Z</time>
      </trkpt>
      <trkpt lat="44.34648" lon="3.59092">
        <ele>553.86</ele>
        <time>2022-08-07T12:59:54Z</time>
      </trkpt>
      <trkpt lat="44.34643" lon="3.59072">
        <ele>554.34</ele>
        <time>2022-08-07T13:00:12Z</time>
      </trkpt>
      <trkpt lat="44.34638" lon="3.59051">
        <ele>555.78</ele>
        <time>2022-08-07T13:00:28Z</time>
      </trkpt>
      <trkpt lat="44.34634" lon="3.59035">
        <ele>555.3</ele>
        <time>2022-08-07T13:00:43Z</time>
      </trkpt>
      <trkpt lat="44.34626" lon="3.59019">
        <ele>556.26</ele>
        <time>2022-08-07T13:00:56Z</time>
      </trkpt>
      <trkpt lat="44.34615" lon="3.59">
        <ele>556.74</ele>
        <time>2022-08-07T13:01:10Z</time>
      </trkpt>
      <trkpt lat="44.34605" lon="3.58986">
        <ele>556.74</ele>
        <time>2022-08-07T13:01:25Z</time>
      </trkpt>
      <trkpt lat="44.346" lon="3.58966">
        <ele>559.14</ele>
        <time>2022-08-07T13:01:40Z</time>
      </trkpt>
      <trkpt lat="44.34596" lon="3.58947">
        <ele>561.55</ele>
        <time>2022-08-07T13:01:55Z</time>
      </trkpt>
      <trkpt lat="44.346" lon="3.58933">
        <ele>563.47</ele>
        <time>2022-08-07T13:02:09Z</time>
      </trkpt>
      <trkpt lat="44.3459" lon="3.58922">
        <ele>563.47</ele>
        <time>2022-08-07T13:02:25Z</time>
      </trkpt>
      <trkpt lat="44.34574" lon="3.5892">
        <ele>566.35</ele>
        <time>2022-08-07T13:02:39Z</time>
      </trkpt>
      <trkpt lat="44.3456" lon="3.58919">
        <ele>566.35</ele>
        <time>2022-08-07T13:02:52Z</time>
      </trkpt>
      <trkpt lat="44.34545" lon="3.58912">
        <ele>567.32</ele>
        <time>2022-08-07T13:03:06Z</time>
      </trkpt>
      <trkpt lat="44.34529" lon="3.58906">
        <ele>568.76</ele>
        <time>2022-08-07T13:03:21Z</time>
      </trkpt>
      <trkpt lat="44.34511" lon="3.58901">
        <ele>569.24</ele>
        <time>2022-08-07T13:03:35Z</time>
      </trkpt>
      <trkpt lat="44.34495" lon="3.58894">
        <ele>569.72</ele>
        <time>2022-08-07T13:03:49Z</time>
      </trkpt>
      <trkpt lat="44.3448" lon="3.58893">
        <ele>571.16</ele>
        <time>2022-08-07T13:04:03Z</time>
      </trkpt>
      <trkpt lat="44.34464" lon="3.58891">
        <ele>571.16</ele>
        <time>2022-08-07T13:04:18Z</time>
      </trkpt>
      <trkpt lat="44.3445" lon="3.58888">
        <ele>571.64</ele>
        <time>2022-08-07T13:04:32Z</time>
      </trkpt>
      <trkpt lat="44.34437" lon="3.58882">
        <ele>573.08</ele>
        <time>2022-08-07T13:04:44Z</time>
      </trkpt>
      <trkpt lat="44.34423" lon="3.58879">
        <ele>573.08</ele>
        <time>2022-08-07T13:04:57Z</time>
      </trkpt>
      <trkpt lat="44.3441" lon="3.58879">
        <ele>574.53</ele>
        <time>2022-08-07T13:05:09Z</time>
      </trkpt>
      <trkpt lat="44.34398" lon="3.58873">
        <ele>574.04</ele>
        <time>2022-08-07T13:05:22Z</time>
      </trkpt>
      <trkpt lat="44.34384" lon="3.58862">
        <ele>574.53</ele>
        <time>2022-08-07T13:05:36Z</time>
      </trkpt>
      <trkpt lat="44.3437" lon="3.58856">
        <ele>575.49</ele>
        <time>2022-08-07T13:05:50Z</time>
      </trkpt>
      <trkpt lat="44.34361" lon="3.58853">
        <ele>576.93</ele>
        <time>2022-08-07T13:05:57Z</time>
      </trkpt>
      <trkpt lat="44.34342" lon="3.58852">
        <ele>581.73</ele>
        <time>2022-08-07T13:06:11Z</time>
      </trkpt>
      <trkpt lat="44.34327" lon="3.5886">
        <ele>580.77</ele>
        <time>2022-08-07T13:06:26Z</time>
      </trkpt>
      <trkpt lat="44.3431" lon="3.58872">
        <ele>581.25</ele>
        <time>2022-08-07T13:06:40Z</time>
      </trkpt>
      <trkpt lat="44.34296" lon="3.58878">
        <ele>580.29</ele>
        <time>2022-08-07T13:06:53Z</time>
      </trkpt>
      <trkpt lat="44.3428" lon="3.58881">
        <ele>579.81</ele>
        <time>2022-08-07T13:07:07Z</time>
      </trkpt>
      <trkpt lat="44.34271" lon="3.58886">
        <ele>579.33</ele>
        <time>2022-08-07T13:07:15Z</time>
      </trkpt>
      <trkpt lat="44.3426" lon="3.58895">
        <ele>580.77</ele>
        <time>2022-08-07T13:07:25Z</time>
      </trkpt>
      <trkpt lat="44.34244" lon="3.58897">
        <ele>579.33</ele>
        <time>2022-08-07T13:07:38Z</time>
      </trkpt>
      <trkpt lat="44.34236" lon="3.58898">
        <ele>578.85</ele>
        <time>2022-08-07T13:07:45Z</time>
      </trkpt>
      <trkpt lat="44.34221" lon="3.58897">
        <ele>578.85</ele>
        <time>2022-08-07T13:07:58Z</time>
      </trkpt>
      <trkpt lat="44.34207" lon="3.58901">
        <ele>578.37</ele>
        <time>2022-08-07T13:08:10Z</time>
      </trkpt>
      <trkpt lat="44.34193" lon="3.5891">
        <ele>578.85</ele>
        <time>2022-08-07T13:08:23Z</time>
      </trkpt>
      <trkpt lat="44.34178" lon="3.58919">
        <ele>577.41</ele>
        <time>2022-08-07T13:08:37Z</time>
      </trkpt>
      <trkpt lat="44.34166" lon="3.58927">
        <ele>577.41</ele>
        <time>2022-08-07T13:08:50Z</time>
      </trkpt>
      <trkpt lat="44.34163" lon="3.58929">
        <ele>577.89</ele>
        <time>2022-08-07T13:08:53Z</time>
      </trkpt>
      <trkpt lat="44.3415" lon="3.58938">
        <ele>580.29</ele>
        <time>2022-08-07T13:09:05Z</time>
      </trkpt>
      <trkpt lat="44.34137" lon="3.58953">
        <ele>583.18</ele>
        <time>2022-08-07T13:09:21Z</time>
      </trkpt>
      <trkpt lat="44.34125" lon="3.58961">
        <ele>584.62</ele>
        <time>2022-08-07T13:09:35Z</time>
      </trkpt>
      <trkpt lat="44.34112" lon="3.58969">
        <ele>585.1</ele>
        <time>2022-08-07T13:09:48Z</time>
      </trkpt>
      <trkpt lat="44.34097" lon="3.58977">
        <ele>586.06</ele>
        <time>2022-08-07T13:10:03Z</time>
      </trkpt>
      <trkpt lat="44.34083" lon="3.58982">
        <ele>586.54</ele>
        <time>2022-08-07T13:10:18Z</time>
      </trkpt>
      <trkpt lat="44.34082" lon="3.58982">
        <ele>586.54</ele>
        <time>2022-08-07T13:10:19Z</time>
      </trkpt>
      <trkpt lat="44.34066" lon="3.58982">
        <ele>585.58</ele>
        <time>2022-08-07T13:10:33Z</time>
      </trkpt>
      <trkpt lat="44.34045" lon="3.58972">
        <ele>581.25</ele>
        <time>2022-08-07T13:10:51Z</time>
      </trkpt>
      <trkpt lat="44.34039" lon="3.58965">
        <ele>580.29</ele>
        <time>2022-08-07T13:11:04Z</time>
      </trkpt>
      <trkpt lat="44.34038" lon="3.58966">
        <ele>580.29</ele>
        <time>2022-08-07T13:11:05Z</time>
      </trkpt>
      <trkpt lat="44.34031" lon="3.5897">
        <ele>578.85</ele>
        <time>2022-08-07T13:11:20Z</time>
      </trkpt>
      <trkpt lat="44.34024" lon="3.58967">
        <ele>577.89</ele>
        <time>2022-08-07T13:11:32Z</time>
      </trkpt>
      <trkpt lat="44.34007" lon="3.58947">
        <ele>576.45</ele>
        <time>2022-08-07T13:11:51Z</time>
      </trkpt>
      <trkpt lat="44.33997" lon="3.58932">
        <ele>576.45</ele>
        <time>2022-08-07T13:12:06Z</time>
      </trkpt>
      <trkpt lat="44.33987" lon="3.58917">
        <ele>579.81</ele>
        <time>2022-08-07T13:12:22Z</time>
      </trkpt>
      <trkpt lat="44.33975" lon="3.58901">
        <ele>583.18</ele>
        <time>2022-08-07T13:12:38Z</time>
      </trkpt>
      <trkpt lat="44.33961" lon="3.58881">
        <ele>580.29</ele>
        <time>2022-08-07T13:12:53Z</time>
      </trkpt>
      <trkpt lat="44.33947" lon="3.58862">
        <ele>571.64</ele>
        <time>2022-08-07T13:13:09Z</time>
      </trkpt>
      <trkpt lat="44.33931" lon="3.58841">
        <ele>567.8</ele>
        <time>2022-08-07T13:13:27Z</time>
      </trkpt>
      <trkpt lat="44.33918" lon="3.58826">
        <ele>563.95</ele>
        <time>2022-08-07T13:13:42Z</time>
      </trkpt>
      <trkpt lat="44.33903" lon="3.58814">
        <ele>562.03</ele>
        <time>2022-08-07T13:13:57Z</time>
      </trkpt>
      <trkpt lat="44.3389" lon="3.58802">
        <ele>561.07</ele>
        <time>2022-08-07T13:14:10Z</time>
      </trkpt>
      <trkpt lat="44.33873" lon="3.58789">
        <ele>561.07</ele>
        <time>2022-08-07T13:14:26Z</time>
      </trkpt>
      <trkpt lat="44.3386" lon="3.58777">
        <ele>559.14</ele>
        <time>2022-08-07T13:14:40Z</time>
      </trkpt>
      <trkpt lat="44.33847" lon="3.58764">
        <ele>558.18</ele>
        <time>2022-08-07T13:14:53Z</time>
      </trkpt>
      <trkpt lat="44.33831" lon="3.58752">
        <ele>558.66</ele>
        <time>2022-08-07T13:15:09Z</time>
      </trkpt>
      <trkpt lat="44.33812" lon="3.58737">
        <ele>558.18</ele>
        <time>2022-08-07T13:15:28Z</time>
      </trkpt>
      <trkpt lat="44.33798" lon="3.58726">
        <ele>557.7</ele>
        <time>2022-08-07T13:15:42Z</time>
      </trkpt>
      <trkpt lat="44.33783" lon="3.58714">
        <ele>557.22</ele>
        <time>2022-08-07T13:15:56Z</time>
      </trkpt>
      <trkpt lat="44.3378" lon="3.58713">
        <ele>556.74</ele>
        <time>2022-08-07T13:15:59Z</time>
      </trkpt>
      <trkpt lat="44.33762" lon="3.58719">
        <ele>555.78</ele>
        <time>2022-08-07T13:16:16Z</time>
      </trkpt>
      <trkpt lat="44.33741" lon="3.58725">
        <ele>555.3</ele>
        <time>2022-08-07T13:16:33Z</time>
      </trkpt>
      <trkpt lat="44.33724" lon="3.58731">
        <ele>554.34</ele>
        <time>2022-08-07T13:16:48Z</time>
      </trkpt>
      <trkpt lat="44.33707" lon="3.58737">
        <ele>550.97</ele>
        <time>2022-08-07T13:17:03Z</time>
      </trkpt>
      <trkpt lat="44.33691" lon="3.5874">
        <ele>549.53</ele>
        <time>2022-08-07T13:17:19Z</time>
      </trkpt>
      <trkpt lat="44.33689" lon="3.58744">
        <ele>548.57</ele>
        <time>2022-08-07T13:17:36Z</time>
      </trkpt>
      <trkpt lat="44.33684" lon="3.5874">
        <ele>545.2</ele>
        <time>2022-08-07T13:17:54Z</time>
      </trkpt>
      <trkpt lat="44.3367" lon="3.58743">
        <ele>546.17</ele>
        <time>2022-08-07T13:18:08Z</time>
      </trkpt>
      <trkpt lat="44.33656" lon="3.58749">
        <ele>546.65</ele>
        <time>2022-08-07T13:18:23Z</time>
      </trkpt>
      <trkpt lat="44.33654" lon="3.58751">
        <ele>544.24</ele>
        <time>2022-08-07T13:18:39Z</time>
      </trkpt>
      <trkpt lat="44.33656" lon="3.58748">
        <ele>544.24</ele>
        <time>2022-08-07T13:19:03Z</time>
      </trkpt>
      <trkpt lat="44.33655" lon="3.58746">
        <ele>548.09</ele>
        <time>2022-08-07T13:19:34Z</time>
      </trkpt>
      <trkpt lat="44.33656" lon="3.58746">
        <ele>545.69</ele>
        <time>2022-08-07T13:20:09Z</time>
      </trkpt>
      <trkpt lat="44.33651" lon="3.58744">
        <ele>544.24</ele>
        <time>2022-08-07T13:20:25Z</time>
      </trkpt>
      <trkpt lat="44.33634" lon="3.58727">
        <ele>544.72</ele>
        <time>2022-08-07T13:20:41Z</time>
      </trkpt>
      <trkpt lat="44.3362" lon="3.58715">
        <ele>544.72</ele>
        <time>2022-08-07T13:20:56Z</time>
      </trkpt>
      <trkpt lat="44.33611" lon="3.58709">
        <ele>545.2</ele>
        <time>2022-08-07T13:21:06Z</time>
      </trkpt>
      <trkpt lat="44.33602" lon="3.58729">
        <ele>544.24</ele>
        <time>2022-08-07T13:21:21Z</time>
      </trkpt>
      <trkpt lat="44.33597" lon="3.58744">
        <ele>541.84</ele>
        <time>2022-08-07T13:21:32Z</time>
      </trkpt>
      <trkpt lat="44.33594" lon="3.58766">
        <ele>540.4</ele>
        <time>2022-08-07T13:21:46Z</time>
      </trkpt>
      <trkpt lat="44.33594" lon="3.58768">
        <ele>540.88</ele>
        <time>2022-08-07T13:21:47Z</time>
      </trkpt>
      <trkpt lat="44.33592" lon="3.58786">
        <ele>543.28</ele>
        <time>2022-08-07T13:21:56Z</time>
      </trkpt>
      <trkpt lat="44.33591" lon="3.5879">
        <ele>543.28</ele>
        <time>2022-08-07T13:21:58Z</time>
      </trkpt>
      <trkpt lat="44.33594" lon="3.58796">
        <ele>543.76</ele>
        <time>2022-08-07T13:22:03Z</time>
      </trkpt>
      <trkpt lat="44.33607" lon="3.58796">
        <ele>546.17</ele>
        <time>2022-08-07T13:22:16Z</time>
      </trkpt>
      <trkpt lat="44.33613" lon="3.58779">
        <ele>543.76</ele>
        <time>2022-08-07T13:22:29Z</time>
      </trkpt>
      <trkpt lat="44.33622" lon="3.58778">
        <ele>544.72</ele>
        <time>2022-08-07T13:22:43Z</time>
      </trkpt>
      <trkpt lat="44.33624" lon="3.58772">
        <ele>544.72</ele>
        <time>2022-08-07T13:22:57Z</time>
      </trkpt>
      <trkpt lat="44.33633" lon="3.58777">
        <ele>543.28</ele>
        <time>2022-08-07T13:23:12Z</time>
      </trkpt>
      <trkpt lat="44.3363" lon="3.58768">
        <ele>540.4</ele>
        <time>2022-08-07T13:23:33Z</time>
      </trkpt>
      <trkpt lat="44.33631" lon="3.5877">
        <ele>546.65</ele>
        <time>2022-08-07T13:23:58Z</time>
      </trkpt>
      <trkpt lat="44.33633" lon="3.58773">
        <ele>548.09</ele>
        <time>2022-08-07T13:24:08Z</time>
      </trkpt>
      <trkpt lat="44.33634" lon="3.58775">
        <ele>552.41</ele>
        <time>2022-08-07T13:24:37Z</time>
      </trkpt>
      <trkpt lat="44.33635" lon="3.58774">
        <ele>550.49</ele>
        <time>2022-08-07T13:25:09Z</time>
      </trkpt>
      <trkpt lat="44.33632" lon="3.58772">
        <ele>552.41</ele>
        <time>2022-08-07T13:25:27Z</time>
      </trkpt>
      <trkpt lat="44.33634" lon="3.58773">
        <ele>551.45</ele>
        <time>2022-08-07T13:25:55Z</time>
      </trkpt>
      <trkpt lat="44.33634" lon="3.58771">
        <ele>546.65</ele>
        <time>2022-08-07T13:26:30Z</time>
      </trkpt>
      <trkpt lat="44.33635" lon="3.5877">
        <ele>546.17</ele>
        <time>2022-08-07T13:27:03Z</time>
      </trkpt>
      <trkpt lat="44.33635" lon="3.58771">
        <ele>545.69</ele>
        <time>2022-08-07T13:27:06Z</time>
      </trkpt>
      <trkpt lat="44.33568" lon="3.58885">
        <ele>571.16</ele>
        <time>2022-08-08T05:25:39Z</time>
      </trkpt>
      <trkpt lat="44.33567" lon="3.58862">
        <ele>562.99</ele>
        <time>2022-08-08T05:25:52Z</time>
      </trkpt>
      <trkpt lat="44.33571" lon="3.58839">
        <ele>559.14</ele>
        <time>2022-08-08T05:26:06Z</time>
      </trkpt>
      <trkpt lat="44.33577" lon="3.58819">
        <ele>557.22</ele>
        <time>2022-08-08T05:26:19Z</time>
      </trkpt>
      <trkpt lat="44.33586" lon="3.58788">
        <ele>557.22</ele>
        <time>2022-08-08T05:26:32Z</time>
      </trkpt>
      <trkpt lat="44.33588" lon="3.58766">
        <ele>556.74</ele>
        <time>2022-08-08T05:26:46Z</time>
      </trkpt>
      <trkpt lat="44.33588" lon="3.58745">
        <ele>553.86</ele>
        <time>2022-08-08T05:27:00Z</time>
      </trkpt>
      <trkpt lat="44.33589" lon="3.58721">
        <ele>551.93</ele>
        <time>2022-08-08T05:27:16Z</time>
      </trkpt>
      <trkpt lat="44.33592" lon="3.58692">
        <ele>547.61</ele>
        <time>2022-08-08T05:27:32Z</time>
      </trkpt>
      <trkpt lat="44.33593" lon="3.58668">
        <ele>544.24</ele>
        <time>2022-08-08T05:27:47Z</time>
      </trkpt>
      <trkpt lat="44.33596" lon="3.58644">
        <ele>542.8</ele>
        <time>2022-08-08T05:28:05Z</time>
      </trkpt>
      <trkpt lat="44.33596" lon="3.5864">
        <ele>542.8</ele>
        <time>2022-08-08T05:28:19Z</time>
      </trkpt>
      <trkpt lat="44.33594" lon="3.5864">
        <ele>543.76</ele>
        <time>2022-08-08T05:28:41Z</time>
      </trkpt>
      <trkpt lat="44.33605" lon="3.58636">
        <ele>552.41</ele>
        <time>2022-08-08T05:29:09Z</time>
      </trkpt>
      <trkpt lat="44.33603" lon="3.58637">
        <ele>553.86</ele>
        <time>2022-08-08T05:29:37Z</time>
      </trkpt>
      <trkpt lat="44.33603" lon="3.58636">
        <ele>550.97</ele>
        <time>2022-08-08T05:30:10Z</time>
      </trkpt>
      <trkpt lat="44.33603" lon="3.58638">
        <ele>550.49</ele>
        <time>2022-08-08T05:30:41Z</time>
      </trkpt>
      <trkpt lat="44.33604" lon="3.58636">
        <ele>550.01</ele>
        <time>2022-08-08T05:30:52Z</time>
      </trkpt>
      <trkpt lat="44.33613" lon="3.58632">
        <ele>548.09</ele>
        <time>2022-08-08T05:31:06Z</time>
      </trkpt>
      <trkpt lat="44.33613" lon="3.58632">
        <ele>548.09</ele>
        <time>2022-08-08T05:31:07Z</time>
      </trkpt>
      <trkpt lat="44.33616" lon="3.5862">
        <ele>546.65</ele>
        <time>2022-08-08T05:31:14Z</time>
      </trkpt>
      <trkpt lat="44.33613" lon="3.58613">
        <ele>545.69</ele>
        <time>2022-08-08T05:31:19Z</time>
      </trkpt>
      <trkpt lat="44.33607" lon="3.58604">
        <ele>545.2</ele>
        <time>2022-08-08T05:31:26Z</time>
      </trkpt>
      <trkpt lat="44.33598" lon="3.58595">
        <ele>545.2</ele>
        <time>2022-08-08T05:31:35Z</time>
      </trkpt>
      <trkpt lat="44.3359" lon="3.58594">
        <ele>544.72</ele>
        <time>2022-08-08T05:31:42Z</time>
      </trkpt>
      <trkpt lat="44.33585" lon="3.58591">
        <ele>544.24</ele>
        <time>2022-08-08T05:31:46Z</time>
      </trkpt>
      <trkpt lat="44.33567" lon="3.58605">
        <ele>543.28</ele>
        <time>2022-08-08T05:32:03Z</time>
      </trkpt>
      <trkpt lat="44.33549" lon="3.58603">
        <ele>541.84</ele>
        <time>2022-08-08T05:32:18Z</time>
      </trkpt>
      <trkpt lat="44.33533" lon="3.58602">
        <ele>542.8</ele>
        <time>2022-08-08T05:32:32Z</time>
      </trkpt>
      <trkpt lat="44.33513" lon="3.58607">
        <ele>542.32</ele>
        <time>2022-08-08T05:32:48Z</time>
      </trkpt>
      <trkpt lat="44.335" lon="3.58609">
        <ele>541.84</ele>
        <time>2022-08-08T05:33:00Z</time>
      </trkpt>
      <trkpt lat="44.33486" lon="3.58612">
        <ele>540.88</ele>
        <time>2022-08-08T05:33:12Z</time>
      </trkpt>
      <trkpt lat="44.33474" lon="3.58616">
        <ele>540.4</ele>
        <time>2022-08-08T05:33:22Z</time>
      </trkpt>
      <trkpt lat="44.33449" lon="3.58627">
        <ele>538.48</ele>
        <time>2022-08-08T05:33:42Z</time>
      </trkpt>
      <trkpt lat="44.33433" lon="3.58635">
        <ele>537.99</ele>
        <time>2022-08-08T05:33:56Z</time>
      </trkpt>
      <trkpt lat="44.3343" lon="3.58637">
        <ele>537.51</ele>
        <time>2022-08-08T05:33:59Z</time>
      </trkpt>
      <trkpt lat="44.33412" lon="3.58646">
        <ele>539.44</ele>
        <time>2022-08-08T05:34:16Z</time>
      </trkpt>
      <trkpt lat="44.33404" lon="3.58653">
        <ele>538.48</ele>
        <time>2022-08-08T05:34:24Z</time>
      </trkpt>
      <trkpt lat="44.33384" lon="3.58668">
        <ele>541.36</ele>
        <time>2022-08-08T05:34:42Z</time>
      </trkpt>
      <trkpt lat="44.33376" lon="3.58675">
        <ele>540.88</ele>
        <time>2022-08-08T05:34:50Z</time>
      </trkpt>
      <trkpt lat="44.33361" lon="3.58689">
        <ele>538.96</ele>
        <time>2022-08-08T05:35:06Z</time>
      </trkpt>
      <trkpt lat="44.33345" lon="3.58711">
        <ele>541.84</ele>
        <time>2022-08-08T05:35:23Z</time>
      </trkpt>
      <trkpt lat="44.33333" lon="3.58735">
        <ele>539.92</ele>
        <time>2022-08-08T05:35:42Z</time>
      </trkpt>
      <trkpt lat="44.33324" lon="3.58752">
        <ele>538.96</ele>
        <time>2022-08-08T05:35:56Z</time>
      </trkpt>
      <trkpt lat="44.33309" lon="3.58776">
        <ele>541.84</ele>
        <time>2022-08-08T05:36:12Z</time>
      </trkpt>
      <trkpt lat="44.33309" lon="3.58777">
        <ele>542.32</ele>
        <time>2022-08-08T05:36:13Z</time>
      </trkpt>
      <trkpt lat="44.33306" lon="3.58781">
        <ele>543.76</ele>
        <time>2022-08-08T05:36:15Z</time>
      </trkpt>
      <trkpt lat="44.33302" lon="3.58787">
        <ele>545.2</ele>
        <time>2022-08-08T05:36:19Z</time>
      </trkpt>
      <trkpt lat="44.33299" lon="3.58792">
        <ele>546.17</ele>
        <time>2022-08-08T05:36:23Z</time>
      </trkpt>
      <trkpt lat="44.33295" lon="3.58801">
        <ele>548.57</ele>
        <time>2022-08-08T05:36:29Z</time>
      </trkpt>
      <trkpt lat="44.3329" lon="3.5881">
        <ele>549.05</ele>
        <time>2022-08-08T05:36:36Z</time>
      </trkpt>
      <trkpt lat="44.3328" lon="3.58831">
        <ele>550.01</ele>
        <time>2022-08-08T05:36:50Z</time>
      </trkpt>
      <trkpt lat="44.33268" lon="3.58851">
        <ele>548.57</ele>
        <time>2022-08-08T05:37:04Z</time>
      </trkpt>
      <trkpt lat="44.33267" lon="3.58855">
        <ele>549.53</ele>
        <time>2022-08-08T05:37:07Z</time>
      </trkpt>
      <trkpt lat="44.33262" lon="3.5887">
        <ele>549.53</ele>
        <time>2022-08-08T05:37:16Z</time>
      </trkpt>
      <trkpt lat="44.33261" lon="3.58875">
        <ele>550.01</ele>
        <time>2022-08-08T05:37:19Z</time>
      </trkpt>
      <trkpt lat="44.3325" lon="3.58903">
        <ele>550.01</ele>
        <time>2022-08-08T05:37:38Z</time>
      </trkpt>
      <trkpt lat="44.3324" lon="3.58928">
        <ele>549.05</ele>
        <time>2022-08-08T05:37:55Z</time>
      </trkpt>
      <trkpt lat="44.33229" lon="3.58955">
        <ele>550.01</ele>
        <time>2022-08-08T05:38:13Z</time>
      </trkpt>
      <trkpt lat="44.33229" lon="3.58957">
        <ele>550.01</ele>
        <time>2022-08-08T05:38:14Z</time>
      </trkpt>
      <trkpt lat="44.33219" lon="3.5898">
        <ele>547.61</ele>
        <time>2022-08-08T05:38:31Z</time>
      </trkpt>
      <trkpt lat="44.33218" lon="3.58983">
        <ele>547.13</ele>
        <time>2022-08-08T05:38:33Z</time>
      </trkpt>
      <trkpt lat="44.33211" lon="3.59007">
        <ele>545.69</ele>
        <time>2022-08-08T05:38:49Z</time>
      </trkpt>
      <trkpt lat="44.33208" lon="3.59013">
        <ele>544.72</ele>
        <time>2022-08-08T05:38:53Z</time>
      </trkpt>
      <trkpt lat="44.332" lon="3.59036">
        <ele>542.32</ele>
        <time>2022-08-08T05:39:09Z</time>
      </trkpt>
      <trkpt lat="44.33191" lon="3.59057">
        <ele>539.44</ele>
        <time>2022-08-08T05:39:24Z</time>
      </trkpt>
      <trkpt lat="44.33191" lon="3.59058">
        <ele>539.44</ele>
        <time>2022-08-08T05:39:25Z</time>
      </trkpt>
      <trkpt lat="44.33187" lon="3.59067">
        <ele>539.44</ele>
        <time>2022-08-08T05:39:30Z</time>
      </trkpt>
      <trkpt lat="44.33179" lon="3.59084">
        <ele>539.92</ele>
        <time>2022-08-08T05:39:41Z</time>
      </trkpt>
      <trkpt lat="44.33169" lon="3.59104">
        <ele>540.4</ele>
        <time>2022-08-08T05:39:55Z</time>
      </trkpt>
      <trkpt lat="44.33148" lon="3.59106">
        <ele>541.84</ele>
        <time>2022-08-08T05:40:10Z</time>
      </trkpt>
      <trkpt lat="44.33131" lon="3.59087">
        <ele>545.2</ele>
        <time>2022-08-08T05:40:26Z</time>
      </trkpt>
      <trkpt lat="44.33112" lon="3.59059">
        <ele>547.61</ele>
        <time>2022-08-08T05:40:47Z</time>
      </trkpt>
      <trkpt lat="44.33097" lon="3.5905">
        <ele>546.17</ele>
        <time>2022-08-08T05:41:02Z</time>
      </trkpt>
      <trkpt lat="44.33088" lon="3.59045">
        <ele>545.69</ele>
        <time>2022-08-08T05:41:10Z</time>
      </trkpt>
      <trkpt lat="44.33068" lon="3.59044">
        <ele>546.17</ele>
        <time>2022-08-08T05:41:25Z</time>
      </trkpt>
      <trkpt lat="44.33053" lon="3.59048">
        <ele>545.69</ele>
        <time>2022-08-08T05:41:38Z</time>
      </trkpt>
      <trkpt lat="44.33035" lon="3.59061">
        <ele>546.17</ele>
        <time>2022-08-08T05:41:53Z</time>
      </trkpt>
      <trkpt lat="44.33019" lon="3.59073">
        <ele>544.72</ele>
        <time>2022-08-08T05:42:09Z</time>
      </trkpt>
      <trkpt lat="44.33013" lon="3.59077">
        <ele>544.72</ele>
        <time>2022-08-08T05:42:15Z</time>
      </trkpt>
      <trkpt lat="44.33007" lon="3.59081">
        <ele>544.24</ele>
        <time>2022-08-08T05:42:20Z</time>
      </trkpt>
      <trkpt lat="44.32991" lon="3.59095">
        <ele>543.28</ele>
        <time>2022-08-08T05:42:36Z</time>
      </trkpt>
      <trkpt lat="44.32972" lon="3.59111">
        <ele>541.84</ele>
        <time>2022-08-08T05:42:54Z</time>
      </trkpt>
      <trkpt lat="44.32961" lon="3.59115">
        <ele>541.84</ele>
        <time>2022-08-08T05:43:07Z</time>
      </trkpt>
      <trkpt lat="44.32958" lon="3.59112">
        <ele>541.36</ele>
        <time>2022-08-08T05:43:12Z</time>
      </trkpt>
      <trkpt lat="44.32953" lon="3.59112">
        <ele>542.32</ele>
        <time>2022-08-08T05:43:26Z</time>
      </trkpt>
      <trkpt lat="44.32953" lon="3.59118">
        <ele>541.84</ele>
        <time>2022-08-08T05:43:30Z</time>
      </trkpt>
      <trkpt lat="44.32947" lon="3.59125">
        <ele>542.32</ele>
        <time>2022-08-08T05:43:37Z</time>
      </trkpt>
      <trkpt lat="44.32936" lon="3.59136">
        <ele>541.84</ele>
        <time>2022-08-08T05:43:50Z</time>
      </trkpt>
      <trkpt lat="44.32923" lon="3.59146">
        <ele>538.48</ele>
        <time>2022-08-08T05:44:04Z</time>
      </trkpt>
      <trkpt lat="44.32907" lon="3.59155">
        <ele>536.07</ele>
        <time>2022-08-08T05:44:19Z</time>
      </trkpt>
      <trkpt lat="44.32888" lon="3.59151">
        <ele>536.55</ele>
        <time>2022-08-08T05:44:37Z</time>
      </trkpt>
      <trkpt lat="44.32884" lon="3.5915">
        <ele>537.99</ele>
        <time>2022-08-08T05:44:53Z</time>
      </trkpt>
      <trkpt lat="44.32867" lon="3.5916">
        <ele>541.36</ele>
        <time>2022-08-08T05:45:08Z</time>
      </trkpt>
      <trkpt lat="44.32867" lon="3.59161">
        <ele>541.84</ele>
        <time>2022-08-08T05:45:09Z</time>
      </trkpt>
      <trkpt lat="44.32867" lon="3.59171">
        <ele>542.32</ele>
        <time>2022-08-08T05:45:14Z</time>
      </trkpt>
      <trkpt lat="44.32864" lon="3.59193">
        <ele>542.8</ele>
        <time>2022-08-08T05:45:27Z</time>
      </trkpt>
      <trkpt lat="44.32847" lon="3.59209">
        <ele>541.84</ele>
        <time>2022-08-08T05:45:44Z</time>
      </trkpt>
      <trkpt lat="44.32828" lon="3.5922">
        <ele>541.84</ele>
        <time>2022-08-08T05:46:01Z</time>
      </trkpt>
      <trkpt lat="44.32816" lon="3.59239">
        <ele>544.72</ele>
        <time>2022-08-08T05:46:16Z</time>
      </trkpt>
      <trkpt lat="44.32813" lon="3.59244">
        <ele>544.24</ele>
        <time>2022-08-08T05:46:19Z</time>
      </trkpt>
      <trkpt lat="44.32803" lon="3.59258">
        <ele>543.28</ele>
        <time>2022-08-08T05:46:32Z</time>
      </trkpt>
      <trkpt lat="44.32804" lon="3.59266">
        <ele>542.32</ele>
        <time>2022-08-08T05:46:47Z</time>
      </trkpt>
      <trkpt lat="44.32803" lon="3.59256">
        <ele>544.24</ele>
        <time>2022-08-08T05:47:12Z</time>
      </trkpt>
      <trkpt lat="44.32801" lon="3.59251">
        <ele>546.17</ele>
        <time>2022-08-08T05:47:26Z</time>
      </trkpt>
      <trkpt lat="44.32803" lon="3.59252">
        <ele>547.61</ele>
        <time>2022-08-08T05:47:44Z</time>
      </trkpt>
      <trkpt lat="44.32802" lon="3.59249">
        <ele>548.09</ele>
        <time>2022-08-08T05:48:16Z</time>
      </trkpt>
      <trkpt lat="44.32797" lon="3.59247">
        <ele>553.38</ele>
        <time>2022-08-08T05:48:36Z</time>
      </trkpt>
      <trkpt lat="44.32796" lon="3.59244">
        <ele>557.22</ele>
        <time>2022-08-08T05:48:57Z</time>
      </trkpt>
      <trkpt lat="44.32798" lon="3.59243">
        <ele>557.7</ele>
        <time>2022-08-08T05:48:59Z</time>
      </trkpt>
      <trkpt lat="44.32808" lon="3.59243">
        <ele>550.49</ele>
        <time>2022-08-08T05:49:08Z</time>
      </trkpt>
      <trkpt lat="44.32827" lon="3.59237">
        <ele>545.69</ele>
        <time>2022-08-08T05:49:23Z</time>
      </trkpt>
      <trkpt lat="44.3284" lon="3.59224">
        <ele>546.17</ele>
        <time>2022-08-08T05:49:37Z</time>
      </trkpt>
      <trkpt lat="44.32852" lon="3.59213">
        <ele>547.13</ele>
        <time>2022-08-08T05:49:49Z</time>
      </trkpt>
      <trkpt lat="44.32867" lon="3.59201">
        <ele>546.65</ele>
        <time>2022-08-08T05:50:04Z</time>
      </trkpt>
      <trkpt lat="44.32884" lon="3.59189">
        <ele>545.69</ele>
        <time>2022-08-08T05:50:20Z</time>
      </trkpt>
      <trkpt lat="44.32899" lon="3.59178">
        <ele>545.2</ele>
        <time>2022-08-08T05:50:35Z</time>
      </trkpt>
      <trkpt lat="44.32909" lon="3.5917">
        <ele>545.2</ele>
        <time>2022-08-08T05:50:45Z</time>
      </trkpt>
      <trkpt lat="44.32921" lon="3.5916">
        <ele>544.72</ele>
        <time>2022-08-08T05:50:56Z</time>
      </trkpt>
      <trkpt lat="44.32937" lon="3.59147">
        <ele>544.24</ele>
        <time>2022-08-08T05:51:11Z</time>
      </trkpt>
      <trkpt lat="44.32942" lon="3.59141">
        <ele>544.72</ele>
        <time>2022-08-08T05:51:26Z</time>
      </trkpt>
      <trkpt lat="44.32942" lon="3.59141">
        <ele>544.72</ele>
        <time>2022-08-08T05:51:27Z</time>
      </trkpt>
      <trkpt lat="44.32936" lon="3.59113">
        <ele>546.65</ele>
        <time>2022-08-08T05:51:44Z</time>
      </trkpt>
      <trkpt lat="44.32933" lon="3.59104">
        <ele>546.65</ele>
        <time>2022-08-08T05:51:50Z</time>
      </trkpt>
      <trkpt lat="44.3293" lon="3.59091">
        <ele>547.61</ele>
        <time>2022-08-08T05:52:05Z</time>
      </trkpt>
      <trkpt lat="44.32931" lon="3.59098">
        <ele>547.61</ele>
        <time>2022-08-08T05:52:26Z</time>
      </trkpt>
      <trkpt lat="44.32935" lon="3.59099">
        <ele>547.61</ele>
        <time>2022-08-08T05:52:30Z</time>
      </trkpt>
      <trkpt lat="44.32935" lon="3.59096">
        <ele>550.01</ele>
        <time>2022-08-08T05:52:48Z</time>
      </trkpt>
      <trkpt lat="44.32924" lon="3.59083">
        <ele>550.97</ele>
        <time>2022-08-08T05:53:14Z</time>
      </trkpt>
      <trkpt lat="44.32932" lon="3.59108">
        <ele>554.34</ele>
        <time>2022-08-08T06:09:06Z</time>
      </trkpt>
      <trkpt lat="44.32932" lon="3.59107">
        <ele>552.9</ele>
        <time>2022-08-08T06:09:07Z</time>
      </trkpt>
      <trkpt lat="44.32931" lon="3.59104">
        <ele>544.72</ele>
        <time>2022-08-08T06:09:12Z</time>
      </trkpt>
      <trkpt lat="44.32935" lon="3.59129">
        <ele>547.13</ele>
        <time>2022-08-08T06:09:29Z</time>
      </trkpt>
      <trkpt lat="44.3293" lon="3.5914">
        <ele>547.13</ele>
        <time>2022-08-08T06:09:42Z</time>
      </trkpt>
      <trkpt lat="44.32914" lon="3.59151">
        <ele>548.09</ele>
        <time>2022-08-08T06:09:58Z</time>
      </trkpt>
      <trkpt lat="44.32906" lon="3.59157">
        <ele>546.17</ele>
        <time>2022-08-08T06:10:07Z</time>
      </trkpt>
      <trkpt lat="44.32905" lon="3.59161">
        <ele>545.2</ele>
        <time>2022-08-08T06:10:10Z</time>
      </trkpt>
      <trkpt lat="44.32903" lon="3.59175">
        <ele>543.76</ele>
        <time>2022-08-08T06:10:20Z</time>
      </trkpt>
      <trkpt lat="44.32899" lon="3.5918">
        <ele>543.76</ele>
        <time>2022-08-08T06:10:24Z</time>
      </trkpt>
      <trkpt lat="44.32882" lon="3.59192">
        <ele>544.72</ele>
        <time>2022-08-08T06:10:40Z</time>
      </trkpt>
      <trkpt lat="44.32876" lon="3.59198">
        <ele>544.24</ele>
        <time>2022-08-08T06:10:47Z</time>
      </trkpt>
      <trkpt lat="44.32862" lon="3.5921">
        <ele>542.32</ele>
        <time>2022-08-08T06:11:02Z</time>
      </trkpt>
      <trkpt lat="44.32847" lon="3.59221">
        <ele>537.99</ele>
        <time>2022-08-08T06:11:19Z</time>
      </trkpt>
      <trkpt lat="44.3283" lon="3.59236">
        <ele>535.59</ele>
        <time>2022-08-08T06:11:36Z</time>
      </trkpt>
      <trkpt lat="44.32816" lon="3.59247">
        <ele>537.03</ele>
        <time>2022-08-08T06:11:50Z</time>
      </trkpt>
      <trkpt lat="44.32812" lon="3.59249">
        <ele>537.51</ele>
        <time>2022-08-08T06:11:53Z</time>
      </trkpt>
      <trkpt lat="44.3281" lon="3.59253">
        <ele>537.99</ele>
        <time>2022-08-08T06:11:56Z</time>
      </trkpt>
      <trkpt lat="44.32808" lon="3.59255">
        <ele>537.99</ele>
        <time>2022-08-08T06:11:58Z</time>
      </trkpt>
      <trkpt lat="44.32807" lon="3.59258">
        <ele>537.99</ele>
        <time>2022-08-08T06:12:00Z</time>
      </trkpt>
      <trkpt lat="44.32788" lon="3.59268">
        <ele>540.4</ele>
        <time>2022-08-08T06:12:16Z</time>
      </trkpt>
      <trkpt lat="44.32767" lon="3.59276">
        <ele>544.24</ele>
        <time>2022-08-08T06:12:33Z</time>
      </trkpt>
      <trkpt lat="44.32744" lon="3.59281">
        <ele>548.57</ele>
        <time>2022-08-08T06:12:50Z</time>
      </trkpt>
      <trkpt lat="44.32727" lon="3.59292">
        <ele>550.97</ele>
        <time>2022-08-08T06:13:05Z</time>
      </trkpt>
      <trkpt lat="44.3272" lon="3.59304">
        <ele>549.05</ele>
        <time>2022-08-08T06:13:15Z</time>
      </trkpt>
      <trkpt lat="44.32711" lon="3.5931">
        <ele>545.2</ele>
        <time>2022-08-08T06:13:26Z</time>
      </trkpt>
      <trkpt lat="44.32693" lon="3.59321">
        <ele>543.76</ele>
        <time>2022-08-08T06:13:42Z</time>
      </trkpt>
      <trkpt lat="44.32673" lon="3.5933">
        <ele>545.69</ele>
        <time>2022-08-08T06:13:57Z</time>
      </trkpt>
      <trkpt lat="44.32658" lon="3.59338">
        <ele>544.24</ele>
        <time>2022-08-08T06:14:12Z</time>
      </trkpt>
      <trkpt lat="44.32643" lon="3.59357">
        <ele>544.24</ele>
        <time>2022-08-08T06:14:29Z</time>
      </trkpt>
      <trkpt lat="44.32642" lon="3.59365">
        <ele>543.76</ele>
        <time>2022-08-08T06:14:33Z</time>
      </trkpt>
      <trkpt lat="44.32641" lon="3.59366">
        <ele>543.28</ele>
        <time>2022-08-08T06:14:36Z</time>
      </trkpt>
      <trkpt lat="44.32624" lon="3.59383">
        <ele>544.24</ele>
        <time>2022-08-08T06:14:54Z</time>
      </trkpt>
      <trkpt lat="44.3262" lon="3.59385">
        <ele>544.24</ele>
        <time>2022-08-08T06:14:58Z</time>
      </trkpt>
      <trkpt lat="44.32602" lon="3.59392">
        <ele>543.76</ele>
        <time>2022-08-08T06:15:14Z</time>
      </trkpt>
      <trkpt lat="44.32585" lon="3.594">
        <ele>542.32</ele>
        <time>2022-08-08T06:15:29Z</time>
      </trkpt>
      <trkpt lat="44.32575" lon="3.59423">
        <ele>541.36</ele>
        <time>2022-08-08T06:15:46Z</time>
      </trkpt>
      <trkpt lat="44.32573" lon="3.59427">
        <ele>547.13</ele>
        <time>2022-08-08T06:15:59Z</time>
      </trkpt>
      <trkpt lat="44.32571" lon="3.59428">
        <ele>552.9</ele>
        <time>2022-08-08T06:16:20Z</time>
      </trkpt>
      <trkpt lat="44.32568" lon="3.59422">
        <ele>558.66</ele>
        <time>2022-08-08T06:16:54Z</time>
      </trkpt>
      <trkpt lat="44.32567" lon="3.59427">
        <ele>560.59</ele>
        <time>2022-08-08T06:17:27Z</time>
      </trkpt>
      <trkpt lat="44.32569" lon="3.59427">
        <ele>559.14</ele>
        <time>2022-08-08T06:17:46Z</time>
      </trkpt>
      <trkpt lat="44.32572" lon="3.59429">
        <ele>560.11</ele>
        <time>2022-08-08T06:18:09Z</time>
      </trkpt>
      <trkpt lat="44.32573" lon="3.59431">
        <ele>558.66</ele>
        <time>2022-08-08T06:18:29Z</time>
      </trkpt>
      <trkpt lat="44.32578" lon="3.59435">
        <ele>558.66</ele>
        <time>2022-08-08T06:18:50Z</time>
      </trkpt>
      <trkpt lat="44.32579" lon="3.59435">
        <ele>558.18</ele>
        <time>2022-08-08T06:19:16Z</time>
      </trkpt>
      <trkpt lat="44.32577" lon="3.59438">
        <ele>559.14</ele>
        <time>2022-08-08T06:19:47Z</time>
      </trkpt>
      <trkpt lat="44.32579" lon="3.59431">
        <ele>557.7</ele>
        <time>2022-08-08T06:20:13Z</time>
      </trkpt>
      <trkpt lat="44.32576" lon="3.59426">
        <ele>554.82</ele>
        <time>2022-08-08T06:20:45Z</time>
      </trkpt>
      <trkpt lat="44.32577" lon="3.59425">
        <ele>550.97</ele>
        <time>2022-08-08T06:21:08Z</time>
      </trkpt>
      <trkpt lat="44.32575" lon="3.59424">
        <ele>553.86</ele>
        <time>2022-08-08T06:21:31Z</time>
      </trkpt>
      <trkpt lat="44.32577" lon="3.59425">
        <ele>554.82</ele>
        <time>2022-08-08T06:21:58Z</time>
      </trkpt>
      <trkpt lat="44.3258" lon="3.59431">
        <ele>556.26</ele>
        <time>2022-08-08T06:22:25Z</time>
      </trkpt>
      <trkpt lat="44.32577" lon="3.59435">
        <ele>557.22</ele>
        <time>2022-08-08T06:22:48Z</time>
      </trkpt>
      <trkpt lat="44.32574" lon="3.59446">
        <ele>557.22</ele>
        <time>2022-08-08T06:23:12Z</time>
      </trkpt>
      <trkpt lat="44.32576" lon="3.59433">
        <ele>557.22</ele>
        <time>2022-08-08T06:23:47Z</time>
      </trkpt>
      <trkpt lat="44.32566" lon="3.59413">
        <ele>569.24</ele>
        <time>2022-08-08T06:25:44Z</time>
      </trkpt>
      <trkpt lat="44.32575" lon="3.59416">
        <ele>554.34</ele>
        <time>2022-08-08T06:26:02Z</time>
      </trkpt>
      <trkpt lat="44.32565" lon="3.59423">
        <ele>553.86</ele>
        <time>2022-08-08T06:26:19Z</time>
      </trkpt>
      <trkpt lat="44.32558" lon="3.59432">
        <ele>550.49</ele>
        <time>2022-08-08T06:26:33Z</time>
      </trkpt>
      <trkpt lat="44.32553" lon="3.59432">
        <ele>549.53</ele>
        <time>2022-08-08T06:26:36Z</time>
      </trkpt>
      <trkpt lat="44.32545" lon="3.59439">
        <ele>550.01</ele>
        <time>2022-08-08T06:26:47Z</time>
      </trkpt>
      <trkpt lat="44.32543" lon="3.5944">
        <ele>550.01</ele>
        <time>2022-08-08T06:26:49Z</time>
      </trkpt>
      <trkpt lat="44.32538" lon="3.59446">
        <ele>549.53</ele>
        <time>2022-08-08T06:27:04Z</time>
      </trkpt>
      <trkpt lat="44.32538" lon="3.59449">
        <ele>552.41</ele>
        <time>2022-08-08T06:27:22Z</time>
      </trkpt>
      <trkpt lat="44.32534" lon="3.59451">
        <ele>552.41</ele>
        <time>2022-08-08T06:27:27Z</time>
      </trkpt>
      <trkpt lat="44.32516" lon="3.59459">
        <ele>552.9</ele>
        <time>2022-08-08T06:27:44Z</time>
      </trkpt>
      <trkpt lat="44.32506" lon="3.59467">
        <ele>552.41</ele>
        <time>2022-08-08T06:27:54Z</time>
      </trkpt>
      <trkpt lat="44.3249" lon="3.59475">
        <ele>554.34</ele>
        <time>2022-08-08T06:28:09Z</time>
      </trkpt>
      <trkpt lat="44.32477" lon="3.59489">
        <ele>553.38</ele>
        <time>2022-08-08T06:28:24Z</time>
      </trkpt>
      <trkpt lat="44.32462" lon="3.59494">
        <ele>554.34</ele>
        <time>2022-08-08T06:28:36Z</time>
      </trkpt>
      <trkpt lat="44.32456" lon="3.59502">
        <ele>554.34</ele>
        <time>2022-08-08T06:28:43Z</time>
      </trkpt>
      <trkpt lat="44.32446" lon="3.59515">
        <ele>553.38</ele>
        <time>2022-08-08T06:28:56Z</time>
      </trkpt>
      <trkpt lat="44.32431" lon="3.59526">
        <ele>552.41</ele>
        <time>2022-08-08T06:29:11Z</time>
      </trkpt>
      <trkpt lat="44.32429" lon="3.59528">
        <ele>552.41</ele>
        <time>2022-08-08T06:29:13Z</time>
      </trkpt>
      <trkpt lat="44.32428" lon="3.59534">
        <ele>552.41</ele>
        <time>2022-08-08T06:29:16Z</time>
      </trkpt>
      <trkpt lat="44.32423" lon="3.59539">
        <ele>550.97</ele>
        <time>2022-08-08T06:29:23Z</time>
      </trkpt>
      <trkpt lat="44.3241" lon="3.59551">
        <ele>549.05</ele>
        <time>2022-08-08T06:29:37Z</time>
      </trkpt>
      <trkpt lat="44.32402" lon="3.59555">
        <ele>548.57</ele>
        <time>2022-08-08T06:29:45Z</time>
      </trkpt>
      <trkpt lat="44.32386" lon="3.59571">
        <ele>549.53</ele>
        <time>2022-08-08T06:30:03Z</time>
      </trkpt>
      <trkpt lat="44.32375" lon="3.5958">
        <ele>548.57</ele>
        <time>2022-08-08T06:30:16Z</time>
      </trkpt>
      <trkpt lat="44.32366" lon="3.59582">
        <ele>546.65</ele>
        <time>2022-08-08T06:30:25Z</time>
      </trkpt>
      <trkpt lat="44.32351" lon="3.59588">
        <ele>545.2</ele>
        <time>2022-08-08T06:30:39Z</time>
      </trkpt>
      <trkpt lat="44.32337" lon="3.59602">
        <ele>543.76</ele>
        <time>2022-08-08T06:30:54Z</time>
      </trkpt>
      <trkpt lat="44.32336" lon="3.59602">
        <ele>543.76</ele>
        <time>2022-08-08T06:30:55Z</time>
      </trkpt>
      <trkpt lat="44.32326" lon="3.59613">
        <ele>545.69</ele>
        <time>2022-08-08T06:31:06Z</time>
      </trkpt>
      <trkpt lat="44.32321" lon="3.59616">
        <ele>546.17</ele>
        <time>2022-08-08T06:31:10Z</time>
      </trkpt>
      <trkpt lat="44.32304" lon="3.59619">
        <ele>551.45</ele>
        <time>2022-08-08T06:31:25Z</time>
      </trkpt>
      <trkpt lat="44.32293" lon="3.5962">
        <ele>554.82</ele>
        <time>2022-08-08T06:31:36Z</time>
      </trkpt>
      <trkpt lat="44.32277" lon="3.59625">
        <ele>556.26</ele>
        <time>2022-08-08T06:31:51Z</time>
      </trkpt>
      <trkpt lat="44.32263" lon="3.59625">
        <ele>557.7</ele>
        <time>2022-08-08T06:32:02Z</time>
      </trkpt>
      <trkpt lat="44.32252" lon="3.59631">
        <ele>558.18</ele>
        <time>2022-08-08T06:32:16Z</time>
      </trkpt>
      <trkpt lat="44.32242" lon="3.59631">
        <ele>557.7</ele>
        <time>2022-08-08T06:32:21Z</time>
      </trkpt>
      <trkpt lat="44.32233" lon="3.59634">
        <ele>557.7</ele>
        <time>2022-08-08T06:32:37Z</time>
      </trkpt>
      <trkpt lat="44.32234" lon="3.59632">
        <ele>558.18</ele>
        <time>2022-08-08T06:33:03Z</time>
      </trkpt>
      <trkpt lat="44.32235" lon="3.59632">
        <ele>557.7</ele>
        <time>2022-08-08T06:33:32Z</time>
      </trkpt>
      <trkpt lat="44.32216" lon="3.59639">
        <ele>556.74</ele>
        <time>2022-08-08T06:33:48Z</time>
      </trkpt>
      <trkpt lat="44.322" lon="3.59638">
        <ele>562.51</ele>
        <time>2022-08-08T06:34:02Z</time>
      </trkpt>
      <trkpt lat="44.32186" lon="3.59642">
        <ele>564.91</ele>
        <time>2022-08-08T06:34:15Z</time>
      </trkpt>
      <trkpt lat="44.32168" lon="3.59636">
        <ele>570.68</ele>
        <time>2022-08-08T06:34:29Z</time>
      </trkpt>
      <trkpt lat="44.32151" lon="3.59636">
        <ele>573.08</ele>
        <time>2022-08-08T06:34:40Z</time>
      </trkpt>
      <trkpt lat="44.32148" lon="3.59639">
        <ele>574.04</ele>
        <time>2022-08-08T06:34:45Z</time>
      </trkpt>
      <trkpt lat="44.32139" lon="3.59645">
        <ele>572.6</ele>
        <time>2022-08-08T06:34:56Z</time>
      </trkpt>
      <trkpt lat="44.32133" lon="3.59649">
        <ele>570.68</ele>
        <time>2022-08-08T06:35:00Z</time>
      </trkpt>
      <trkpt lat="44.3213" lon="3.59652">
        <ele>569.24</ele>
        <time>2022-08-08T06:35:03Z</time>
      </trkpt>
      <trkpt lat="44.32131" lon="3.59657">
        <ele>568.76</ele>
        <time>2022-08-08T06:35:05Z</time>
      </trkpt>
      <trkpt lat="44.32136" lon="3.59669">
        <ele>565.87</ele>
        <time>2022-08-08T06:35:17Z</time>
      </trkpt>
      <trkpt lat="44.32137" lon="3.59666">
        <ele>565.87</ele>
        <time>2022-08-08T06:35:27Z</time>
      </trkpt>
      <trkpt lat="44.32136" lon="3.59652">
        <ele>558.66</ele>
        <time>2022-08-08T06:35:42Z</time>
      </trkpt>
      <trkpt lat="44.32134" lon="3.59652">
        <ele>554.34</ele>
        <time>2022-08-08T06:35:59Z</time>
      </trkpt>
      <trkpt lat="44.32135" lon="3.59665">
        <ele>552.9</ele>
        <time>2022-08-08T06:36:27Z</time>
      </trkpt>
      <trkpt lat="44.32135" lon="3.59665">
        <ele>552.9</ele>
        <time>2022-08-08T06:36:43Z</time>
      </trkpt>
      <trkpt lat="44.32132" lon="3.59666">
        <ele>553.86</ele>
        <time>2022-08-08T06:37:10Z</time>
      </trkpt>
      <trkpt lat="44.32134" lon="3.59665">
        <ele>552.41</ele>
        <time>2022-08-08T06:37:29Z</time>
      </trkpt>
      <trkpt lat="44.32136" lon="3.59661">
        <ele>550.01</ele>
        <time>2022-08-08T06:37:46Z</time>
      </trkpt>
      <trkpt lat="44.32138" lon="3.59665">
        <ele>549.05</ele>
        <time>2022-08-08T06:38:09Z</time>
      </trkpt>
      <trkpt lat="44.3214" lon="3.59663">
        <ele>550.01</ele>
        <time>2022-08-08T06:38:29Z</time>
      </trkpt>
      <trkpt lat="44.32136" lon="3.5966">
        <ele>549.53</ele>
        <time>2022-08-08T06:38:50Z</time>
      </trkpt>
      <trkpt lat="44.32135" lon="3.59664">
        <ele>548.09</ele>
        <time>2022-08-08T06:39:10Z</time>
      </trkpt>
      <trkpt lat="44.32133" lon="3.59665">
        <ele>545.69</ele>
        <time>2022-08-08T06:39:30Z</time>
      </trkpt>
      <trkpt lat="44.32135" lon="3.59662">
        <ele>546.17</ele>
        <time>2022-08-08T06:39:58Z</time>
      </trkpt>
      <trkpt lat="44.32131" lon="3.59657">
        <ele>554.34</ele>
        <time>2022-08-08T06:40:17Z</time>
      </trkpt>
      <trkpt lat="44.32133" lon="3.59658">
        <ele>555.3</ele>
        <time>2022-08-08T06:40:37Z</time>
      </trkpt>
      <trkpt lat="44.32138" lon="3.59661">
        <ele>555.78</ele>
        <time>2022-08-08T06:40:58Z</time>
      </trkpt>
      <trkpt lat="44.32137" lon="3.5966">
        <ele>556.74</ele>
        <time>2022-08-08T06:41:15Z</time>
      </trkpt>
      <trkpt lat="44.32134" lon="3.59664">
        <ele>556.26</ele>
        <time>2022-08-08T06:41:35Z</time>
      </trkpt>
      <trkpt lat="44.32128" lon="3.59663">
        <ele>556.26</ele>
        <time>2022-08-08T06:41:58Z</time>
      </trkpt>
      <trkpt lat="44.32128" lon="3.59665">
        <ele>556.74</ele>
        <time>2022-08-08T06:42:10Z</time>
      </trkpt>
      <trkpt lat="44.32121" lon="3.59667">
        <ele>555.3</ele>
        <time>2022-08-08T06:42:23Z</time>
      </trkpt>
      <trkpt lat="44.32116" lon="3.59669">
        <ele>556.74</ele>
        <time>2022-08-08T06:42:28Z</time>
      </trkpt>
      <trkpt lat="44.32111" lon="3.5967">
        <ele>557.22</ele>
        <time>2022-08-08T06:42:32Z</time>
      </trkpt>
      <trkpt lat="44.32097" lon="3.59676">
        <ele>555.78</ele>
        <time>2022-08-08T06:42:45Z</time>
      </trkpt>
      <trkpt lat="44.32083" lon="3.59686">
        <ele>554.82</ele>
        <time>2022-08-08T06:42:59Z</time>
      </trkpt>
      <trkpt lat="44.32063" lon="3.59692">
        <ele>553.38</ele>
        <time>2022-08-08T06:43:14Z</time>
      </trkpt>
      <trkpt lat="44.32049" lon="3.59705">
        <ele>552.9</ele>
        <time>2022-08-08T06:43:28Z</time>
      </trkpt>
      <trkpt lat="44.32046" lon="3.59706">
        <ele>552.9</ele>
        <time>2022-08-08T06:43:30Z</time>
      </trkpt>
      <trkpt lat="44.3203" lon="3.5972">
        <ele>553.38</ele>
        <time>2022-08-08T06:43:46Z</time>
      </trkpt>
      <trkpt lat="44.32016" lon="3.59731">
        <ele>553.38</ele>
        <time>2022-08-08T06:44:01Z</time>
      </trkpt>
      <trkpt lat="44.31997" lon="3.59741">
        <ele>553.38</ele>
        <time>2022-08-08T06:44:18Z</time>
      </trkpt>
      <trkpt lat="44.31981" lon="3.5975">
        <ele>552.9</ele>
        <time>2022-08-08T06:44:33Z</time>
      </trkpt>
      <trkpt lat="44.31966" lon="3.59755">
        <ele>552.9</ele>
        <time>2022-08-08T06:44:47Z</time>
      </trkpt>
      <trkpt lat="44.3195" lon="3.59759">
        <ele>551.93</ele>
        <time>2022-08-08T06:45:01Z</time>
      </trkpt>
      <trkpt lat="44.31948" lon="3.59759">
        <ele>551.45</ele>
        <time>2022-08-08T06:45:03Z</time>
      </trkpt>
      <trkpt lat="44.31942" lon="3.59761">
        <ele>551.45</ele>
        <time>2022-08-08T06:45:08Z</time>
      </trkpt>
      <trkpt lat="44.31923" lon="3.59766">
        <ele>551.45</ele>
        <time>2022-08-08T06:45:24Z</time>
      </trkpt>
      <trkpt lat="44.31909" lon="3.59773">
        <ele>553.38</ele>
        <time>2022-08-08T06:45:39Z</time>
      </trkpt>
      <trkpt lat="44.31905" lon="3.59778">
        <ele>553.86</ele>
        <time>2022-08-08T06:45:45Z</time>
      </trkpt>
      <trkpt lat="44.31902" lon="3.59775">
        <ele>553.86</ele>
        <time>2022-08-08T06:45:50Z</time>
      </trkpt>
      <trkpt lat="44.31898" lon="3.59772">
        <ele>553.38</ele>
        <time>2022-08-08T06:45:54Z</time>
      </trkpt>
      <trkpt lat="44.31894" lon="3.59768">
        <ele>553.38</ele>
        <time>2022-08-08T06:46:05Z</time>
      </trkpt>
      <trkpt lat="44.31889" lon="3.59769">
        <ele>553.38</ele>
        <time>2022-08-08T06:46:09Z</time>
      </trkpt>
      <trkpt lat="44.31871" lon="3.59774">
        <ele>550.97</ele>
        <time>2022-08-08T06:46:24Z</time>
      </trkpt>
      <trkpt lat="44.31857" lon="3.59778">
        <ele>548.09</ele>
        <time>2022-08-08T06:46:37Z</time>
      </trkpt>
      <trkpt lat="44.31842" lon="3.59782">
        <ele>547.61</ele>
        <time>2022-08-08T06:46:51Z</time>
      </trkpt>
      <trkpt lat="44.31834" lon="3.5979">
        <ele>548.09</ele>
        <time>2022-08-08T06:46:58Z</time>
      </trkpt>
      <trkpt lat="44.31825" lon="3.59799">
        <ele>549.05</ele>
        <time>2022-08-08T06:47:07Z</time>
      </trkpt>
      <trkpt lat="44.31803" lon="3.59805">
        <ele>550.01</ele>
        <time>2022-08-08T06:47:27Z</time>
      </trkpt>
      <trkpt lat="44.31785" lon="3.59807">
        <ele>549.53</ele>
        <time>2022-08-08T06:47:43Z</time>
      </trkpt>
      <trkpt lat="44.3178" lon="3.59806">
        <ele>550.01</ele>
        <time>2022-08-08T06:48:00Z</time>
      </trkpt>
      <trkpt lat="44.31773" lon="3.59812">
        <ele>559.62</ele>
        <time>2022-08-08T06:48:19Z</time>
      </trkpt>
      <trkpt lat="44.3177" lon="3.5982">
        <ele>562.51</ele>
        <time>2022-08-08T06:48:49Z</time>
      </trkpt>
      <trkpt lat="44.31773" lon="3.59812">
        <ele>561.07</ele>
        <time>2022-08-08T06:49:18Z</time>
      </trkpt>
      <trkpt lat="44.31766" lon="3.59811">
        <ele>559.14</ele>
        <time>2022-08-08T06:49:33Z</time>
      </trkpt>
      <trkpt lat="44.3175" lon="3.59812">
        <ele>561.07</ele>
        <time>2022-08-08T06:49:48Z</time>
      </trkpt>
      <trkpt lat="44.31733" lon="3.59813">
        <ele>561.55</ele>
        <time>2022-08-08T06:50:02Z</time>
      </trkpt>
      <trkpt lat="44.31713" lon="3.59815">
        <ele>560.59</ele>
        <time>2022-08-08T06:50:17Z</time>
      </trkpt>
      <trkpt lat="44.31694" lon="3.59815">
        <ele>559.14</ele>
        <time>2022-08-08T06:50:32Z</time>
      </trkpt>
      <trkpt lat="44.31683" lon="3.59812">
        <ele>559.62</ele>
        <time>2022-08-08T06:50:45Z</time>
      </trkpt>
      <trkpt lat="44.31662" lon="3.59811">
        <ele>558.18</ele>
        <time>2022-08-08T06:51:01Z</time>
      </trkpt>
      <trkpt lat="44.31647" lon="3.5981">
        <ele>561.07</ele>
        <time>2022-08-08T06:51:15Z</time>
      </trkpt>
      <trkpt lat="44.3163" lon="3.59806">
        <ele>563.47</ele>
        <time>2022-08-08T06:51:27Z</time>
      </trkpt>
      <trkpt lat="44.31609" lon="3.59804">
        <ele>562.99</ele>
        <time>2022-08-08T06:51:41Z</time>
      </trkpt>
      <trkpt lat="44.31593" lon="3.59802">
        <ele>563.47</ele>
        <time>2022-08-08T06:51:54Z</time>
      </trkpt>
      <trkpt lat="44.31574" lon="3.59803">
        <ele>565.87</ele>
        <time>2022-08-08T06:52:10Z</time>
      </trkpt>
      <trkpt lat="44.31556" lon="3.59794">
        <ele>565.39</ele>
        <time>2022-08-08T06:52:26Z</time>
      </trkpt>
      <trkpt lat="44.31534" lon="3.59783">
        <ele>563.95</ele>
        <time>2022-08-08T06:52:45Z</time>
      </trkpt>
      <trkpt lat="44.31511" lon="3.59777">
        <ele>562.99</ele>
        <time>2022-08-08T06:53:03Z</time>
      </trkpt>
      <trkpt lat="44.31492" lon="3.59776">
        <ele>564.91</ele>
        <time>2022-08-08T06:53:19Z</time>
      </trkpt>
      <trkpt lat="44.31474" lon="3.59774">
        <ele>566.83</ele>
        <time>2022-08-08T06:53:35Z</time>
      </trkpt>
      <trkpt lat="44.31459" lon="3.59772">
        <ele>570.2</ele>
        <time>2022-08-08T06:53:49Z</time>
      </trkpt>
      <trkpt lat="44.31439" lon="3.59771">
        <ele>573.56</ele>
        <time>2022-08-08T06:54:04Z</time>
      </trkpt>
      <trkpt lat="44.31417" lon="3.59771">
        <ele>573.08</ele>
        <time>2022-08-08T06:54:18Z</time>
      </trkpt>
      <trkpt lat="44.31404" lon="3.59776">
        <ele>569.24</ele>
        <time>2022-08-08T06:54:30Z</time>
      </trkpt>
      <trkpt lat="44.31388" lon="3.5978">
        <ele>569.72</ele>
        <time>2022-08-08T06:54:45Z</time>
      </trkpt>
      <trkpt lat="44.3137" lon="3.59777">
        <ele>571.16</ele>
        <time>2022-08-08T06:54:57Z</time>
      </trkpt>
      <trkpt lat="44.31355" lon="3.5978">
        <ele>570.68</ele>
        <time>2022-08-08T06:55:09Z</time>
      </trkpt>
      <trkpt lat="44.31342" lon="3.5979">
        <ele>570.2</ele>
        <time>2022-08-08T06:55:22Z</time>
      </trkpt>
      <trkpt lat="44.31329" lon="3.59795">
        <ele>570.68</ele>
        <time>2022-08-08T06:55:33Z</time>
      </trkpt>
      <trkpt lat="44.31309" lon="3.59804">
        <ele>572.6</ele>
        <time>2022-08-08T06:55:50Z</time>
      </trkpt>
      <trkpt lat="44.31292" lon="3.59814">
        <ele>573.56</ele>
        <time>2022-08-08T06:56:04Z</time>
      </trkpt>
      <trkpt lat="44.31277" lon="3.59822">
        <ele>570.68</ele>
        <time>2022-08-08T06:56:17Z</time>
      </trkpt>
      <trkpt lat="44.3127" lon="3.59824">
        <ele>569.24</ele>
        <time>2022-08-08T06:56:24Z</time>
      </trkpt>
      <trkpt lat="44.31269" lon="3.59827">
        <ele>567.8</ele>
        <time>2022-08-08T06:56:36Z</time>
      </trkpt>
      <trkpt lat="44.31264" lon="3.59839">
        <ele>565.39</ele>
        <time>2022-08-08T06:56:49Z</time>
      </trkpt>
      <trkpt lat="44.31265" lon="3.59859">
        <ele>566.83</ele>
        <time>2022-08-08T06:57:03Z</time>
      </trkpt>
      <trkpt lat="44.31274" lon="3.59877">
        <ele>563.47</ele>
        <time>2022-08-08T06:57:19Z</time>
      </trkpt>
      <trkpt lat="44.31285" lon="3.59881">
        <ele>562.03</ele>
        <time>2022-08-08T06:57:35Z</time>
      </trkpt>
      <trkpt lat="44.31294" lon="3.59881">
        <ele>562.99</ele>
        <time>2022-08-08T06:57:50Z</time>
      </trkpt>
      <trkpt lat="44.31303" lon="3.59878">
        <ele>563.47</ele>
        <time>2022-08-08T06:58:07Z</time>
      </trkpt>
      <trkpt lat="44.31316" lon="3.59888">
        <ele>563.47</ele>
        <time>2022-08-08T06:58:27Z</time>
      </trkpt>
      <trkpt lat="44.31329" lon="3.59887">
        <ele>562.99</ele>
        <time>2022-08-08T06:58:46Z</time>
      </trkpt>
      <trkpt lat="44.31339" lon="3.59886">
        <ele>561.55</ele>
        <time>2022-08-08T06:59:02Z</time>
      </trkpt>
      <trkpt lat="44.31348" lon="3.59883">
        <ele>564.43</ele>
        <time>2022-08-08T06:59:17Z</time>
      </trkpt>
      <trkpt lat="44.31356" lon="3.59882">
        <ele>564.91</ele>
        <time>2022-08-08T06:59:30Z</time>
      </trkpt>
      <trkpt lat="44.31367" lon="3.59886">
        <ele>570.2</ele>
        <time>2022-08-08T06:59:49Z</time>
      </trkpt>
      <trkpt lat="44.31378" lon="3.59886">
        <ele>572.12</ele>
        <time>2022-08-08T07:00:05Z</time>
      </trkpt>
      <trkpt lat="44.3139" lon="3.59887">
        <ele>576.45</ele>
        <time>2022-08-08T07:00:21Z</time>
      </trkpt>
      <trkpt lat="44.31403" lon="3.5989">
        <ele>579.33</ele>
        <time>2022-08-08T07:00:37Z</time>
      </trkpt>
      <trkpt lat="44.31416" lon="3.5989">
        <ele>582.7</ele>
        <time>2022-08-08T07:00:52Z</time>
      </trkpt>
      <trkpt lat="44.31431" lon="3.59902">
        <ele>583.66</ele>
        <time>2022-08-08T07:01:10Z</time>
      </trkpt>
      <trkpt lat="44.31448" lon="3.59913">
        <ele>583.18</ele>
        <time>2022-08-08T07:01:28Z</time>
      </trkpt>
      <trkpt lat="44.31464" lon="3.59921">
        <ele>580.77</ele>
        <time>2022-08-08T07:01:45Z</time>
      </trkpt>
      <trkpt lat="44.31478" lon="3.59936">
        <ele>578.85</ele>
        <time>2022-08-08T07:02:02Z</time>
      </trkpt>
      <trkpt lat="44.31476" lon="3.59932">
        <ele>578.85</ele>
        <time>2022-08-08T07:02:20Z</time>
      </trkpt>
      <trkpt lat="44.31487" lon="3.5994">
        <ele>576.93</ele>
        <time>2022-08-08T07:02:35Z</time>
      </trkpt>
      <trkpt lat="44.31504" lon="3.59951">
        <ele>573.56</ele>
        <time>2022-08-08T07:02:53Z</time>
      </trkpt>
      <trkpt lat="44.31518" lon="3.59962">
        <ele>569.72</ele>
        <time>2022-08-08T07:03:11Z</time>
      </trkpt>
      <trkpt lat="44.31527" lon="3.5997">
        <ele>568.28</ele>
        <time>2022-08-08T07:03:24Z</time>
      </trkpt>
      <trkpt lat="44.31538" lon="3.59983">
        <ele>568.76</ele>
        <time>2022-08-08T07:03:39Z</time>
      </trkpt>
      <trkpt lat="44.31548" lon="3.59998">
        <ele>570.2</ele>
        <time>2022-08-08T07:03:55Z</time>
      </trkpt>
      <trkpt lat="44.31555" lon="3.60007">
        <ele>569.72</ele>
        <time>2022-08-08T07:04:11Z</time>
      </trkpt>
      <trkpt lat="44.31562" lon="3.60022">
        <ele>566.83</ele>
        <time>2022-08-08T07:04:28Z</time>
      </trkpt>
      <trkpt lat="44.31565" lon="3.60054">
        <ele>566.83</ele>
        <time>2022-08-08T07:04:45Z</time>
      </trkpt>
      <trkpt lat="44.31564" lon="3.60081">
        <ele>565.87</ele>
        <time>2022-08-08T07:05:02Z</time>
      </trkpt>
      <trkpt lat="44.3156" lon="3.60098">
        <ele>562.99</ele>
        <time>2022-08-08T07:05:17Z</time>
      </trkpt>
      <trkpt lat="44.31556" lon="3.60114">
        <ele>558.18</ele>
        <time>2022-08-08T07:05:31Z</time>
      </trkpt>
      <trkpt lat="44.31551" lon="3.60132">
        <ele>553.86</ele>
        <time>2022-08-08T07:05:44Z</time>
      </trkpt>
      <trkpt lat="44.31545" lon="3.60152">
        <ele>550.49</ele>
        <time>2022-08-08T07:05:58Z</time>
      </trkpt>
      <trkpt lat="44.31538" lon="3.60178">
        <ele>552.9</ele>
        <time>2022-08-08T07:06:15Z</time>
      </trkpt>
      <trkpt lat="44.31533" lon="3.60201">
        <ele>553.38</ele>
        <time>2022-08-08T07:06:30Z</time>
      </trkpt>
      <trkpt lat="44.31526" lon="3.60226">
        <ele>554.34</ele>
        <time>2022-08-08T07:06:45Z</time>
      </trkpt>
      <trkpt lat="44.31523" lon="3.60235">
        <ele>553.86</ele>
        <time>2022-08-08T07:06:55Z</time>
      </trkpt>
      <trkpt lat="44.31521" lon="3.60258">
        <ele>559.14</ele>
        <time>2022-08-08T07:07:11Z</time>
      </trkpt>
      <trkpt lat="44.31522" lon="3.60279">
        <ele>564.43</ele>
        <time>2022-08-08T07:07:26Z</time>
      </trkpt>
      <trkpt lat="44.31518" lon="3.60303">
        <ele>565.39</ele>
        <time>2022-08-08T07:07:42Z</time>
      </trkpt>
      <trkpt lat="44.31515" lon="3.60333">
        <ele>566.83</ele>
        <time>2022-08-08T07:07:57Z</time>
      </trkpt>
      <trkpt lat="44.31516" lon="3.60355">
        <ele>568.28</ele>
        <time>2022-08-08T07:08:13Z</time>
      </trkpt>
      <trkpt lat="44.31518" lon="3.60382">
        <ele>568.28</ele>
        <time>2022-08-08T07:08:32Z</time>
      </trkpt>
      <trkpt lat="44.31524" lon="3.60409">
        <ele>569.72</ele>
        <time>2022-08-08T07:08:47Z</time>
      </trkpt>
      <trkpt lat="44.31532" lon="3.60441">
        <ele>572.6</ele>
        <time>2022-08-08T07:09:07Z</time>
      </trkpt>
      <trkpt lat="44.31535" lon="3.60463">
        <ele>573.08</ele>
        <time>2022-08-08T07:09:21Z</time>
      </trkpt>
      <trkpt lat="44.31544" lon="3.60483">
        <ele>572.6</ele>
        <time>2022-08-08T07:09:38Z</time>
      </trkpt>
      <trkpt lat="44.31556" lon="3.60515">
        <ele>573.08</ele>
        <time>2022-08-08T07:09:58Z</time>
      </trkpt>
      <trkpt lat="44.31569" lon="3.60537">
        <ele>574.04</ele>
        <time>2022-08-08T07:10:14Z</time>
      </trkpt>
      <trkpt lat="44.31572" lon="3.6056">
        <ele>573.56</ele>
        <time>2022-08-08T07:10:30Z</time>
      </trkpt>
      <trkpt lat="44.31566" lon="3.60582">
        <ele>574.04</ele>
        <time>2022-08-08T07:10:45Z</time>
      </trkpt>
      <trkpt lat="44.31552" lon="3.606">
        <ele>573.08</ele>
        <time>2022-08-08T07:11:01Z</time>
      </trkpt>
      <trkpt lat="44.31551" lon="3.60602">
        <ele>573.08</ele>
        <time>2022-08-08T07:11:02Z</time>
      </trkpt>
      <trkpt lat="44.31541" lon="3.60618">
        <ele>572.6</ele>
        <time>2022-08-08T07:11:15Z</time>
      </trkpt>
      <trkpt lat="44.31548" lon="3.60643">
        <ele>572.6</ele>
        <time>2022-08-08T07:11:28Z</time>
      </trkpt>
      <trkpt lat="44.31562" lon="3.60649">
        <ele>572.12</ele>
        <time>2022-08-08T07:11:43Z</time>
      </trkpt>
      <trkpt lat="44.31583" lon="3.60641">
        <ele>572.12</ele>
        <time>2022-08-08T07:12:00Z</time>
      </trkpt>
      <trkpt lat="44.31592" lon="3.60633">
        <ele>571.16</ele>
        <time>2022-08-08T07:12:10Z</time>
      </trkpt>
      <trkpt lat="44.31598" lon="3.60631">
        <ele>571.16</ele>
        <time>2022-08-08T07:12:15Z</time>
      </trkpt>
      <trkpt lat="44.31615" lon="3.6063">
        <ele>571.16</ele>
        <time>2022-08-08T07:12:31Z</time>
      </trkpt>
      <trkpt lat="44.31628" lon="3.60637">
        <ele>569.72</ele>
        <time>2022-08-08T07:12:46Z</time>
      </trkpt>
      <trkpt lat="44.3164" lon="3.60648">
        <ele>568.76</ele>
        <time>2022-08-08T07:13:02Z</time>
      </trkpt>
      <trkpt lat="44.31657" lon="3.60666">
        <ele>567.32</ele>
        <time>2022-08-08T07:13:21Z</time>
      </trkpt>
      <trkpt lat="44.31667" lon="3.60674">
        <ele>568.28</ele>
        <time>2022-08-08T07:13:31Z</time>
      </trkpt>
      <trkpt lat="44.3168" lon="3.60681">
        <ele>568.76</ele>
        <time>2022-08-08T07:13:48Z</time>
      </trkpt>
      <trkpt lat="44.3169" lon="3.60687">
        <ele>570.2</ele>
        <time>2022-08-08T07:14:03Z</time>
      </trkpt>
      <trkpt lat="44.317" lon="3.60703">
        <ele>572.6</ele>
        <time>2022-08-08T07:14:20Z</time>
      </trkpt>
      <trkpt lat="44.31712" lon="3.60716">
        <ele>572.6</ele>
        <time>2022-08-08T07:14:40Z</time>
      </trkpt>
      <trkpt lat="44.31723" lon="3.6073">
        <ele>569.24</ele>
        <time>2022-08-08T07:14:56Z</time>
      </trkpt>
      <trkpt lat="44.31732" lon="3.60744">
        <ele>566.35</ele>
        <time>2022-08-08T07:15:11Z</time>
      </trkpt>
      <trkpt lat="44.31744" lon="3.60759">
        <ele>566.83</ele>
        <time>2022-08-08T07:15:24Z</time>
      </trkpt>
      <trkpt lat="44.31754" lon="3.60772">
        <ele>572.6</ele>
        <time>2022-08-08T07:15:39Z</time>
      </trkpt>
      <trkpt lat="44.31763" lon="3.60786">
        <ele>576.93</ele>
        <time>2022-08-08T07:15:55Z</time>
      </trkpt>
      <trkpt lat="44.3177" lon="3.60794">
        <ele>577.41</ele>
        <time>2022-08-08T07:16:05Z</time>
      </trkpt>
      <trkpt lat="44.31779" lon="3.60809">
        <ele>580.77</ele>
        <time>2022-08-08T07:16:20Z</time>
      </trkpt>
      <trkpt lat="44.31786" lon="3.60824">
        <ele>583.18</ele>
        <time>2022-08-08T07:16:34Z</time>
      </trkpt>
      <trkpt lat="44.31788" lon="3.60833">
        <ele>583.18</ele>
        <time>2022-08-08T07:16:42Z</time>
      </trkpt>
      <trkpt lat="44.31788" lon="3.60852">
        <ele>586.06</ele>
        <time>2022-08-08T07:16:57Z</time>
      </trkpt>
      <trkpt lat="44.31788" lon="3.60871">
        <ele>586.06</ele>
        <time>2022-08-08T07:17:12Z</time>
      </trkpt>
      <trkpt lat="44.31788" lon="3.60884">
        <ele>586.54</ele>
        <time>2022-08-08T07:17:23Z</time>
      </trkpt>
      <trkpt lat="44.31787" lon="3.60904">
        <ele>586.54</ele>
        <time>2022-08-08T07:17:39Z</time>
      </trkpt>
      <trkpt lat="44.31786" lon="3.60916">
        <ele>587.98</ele>
        <time>2022-08-08T07:17:49Z</time>
      </trkpt>
      <trkpt lat="44.31776" lon="3.60929">
        <ele>587.5</ele>
        <time>2022-08-08T07:18:05Z</time>
      </trkpt>
      <trkpt lat="44.3177" lon="3.6094">
        <ele>585.58</ele>
        <time>2022-08-08T07:18:16Z</time>
      </trkpt>
      <trkpt lat="44.31769" lon="3.60941">
        <ele>585.58</ele>
        <time>2022-08-08T07:18:18Z</time>
      </trkpt>
      <trkpt lat="44.31761" lon="3.60955">
        <ele>584.14</ele>
        <time>2022-08-08T07:18:31Z</time>
      </trkpt>
      <trkpt lat="44.31752" lon="3.60965">
        <ele>583.18</ele>
        <time>2022-08-08T07:18:44Z</time>
      </trkpt>
      <trkpt lat="44.31744" lon="3.6098">
        <ele>582.22</ele>
        <time>2022-08-08T07:18:57Z</time>
      </trkpt>
      <trkpt lat="44.31737" lon="3.60994">
        <ele>581.25</ele>
        <time>2022-08-08T07:19:10Z</time>
      </trkpt>
      <trkpt lat="44.31728" lon="3.61008">
        <ele>581.73</ele>
        <time>2022-08-08T07:19:24Z</time>
      </trkpt>
      <trkpt lat="44.31722" lon="3.61019">
        <ele>583.18</ele>
        <time>2022-08-08T07:19:34Z</time>
      </trkpt>
      <trkpt lat="44.31718" lon="3.61029">
        <ele>583.66</ele>
        <time>2022-08-08T07:19:42Z</time>
      </trkpt>
      <trkpt lat="44.31708" lon="3.61043">
        <ele>583.66</ele>
        <time>2022-08-08T07:19:57Z</time>
      </trkpt>
      <trkpt lat="44.31705" lon="3.61046">
        <ele>583.18</ele>
        <time>2022-08-08T07:20:02Z</time>
      </trkpt>
      <trkpt lat="44.31695" lon="3.61063">
        <ele>580.77</ele>
        <time>2022-08-08T07:20:18Z</time>
      </trkpt>
      <trkpt lat="44.31686" lon="3.61077">
        <ele>581.25</ele>
        <time>2022-08-08T07:20:32Z</time>
      </trkpt>
      <trkpt lat="44.31677" lon="3.61094">
        <ele>587.98</ele>
        <time>2022-08-08T07:20:47Z</time>
      </trkpt>
      <trkpt lat="44.31666" lon="3.61106">
        <ele>593.27</ele>
        <time>2022-08-08T07:21:02Z</time>
      </trkpt>
      <trkpt lat="44.31653" lon="3.61114">
        <ele>594.71</ele>
        <time>2022-08-08T07:21:16Z</time>
      </trkpt>
      <trkpt lat="44.31637" lon="3.61115">
        <ele>596.64</ele>
        <time>2022-08-08T07:21:31Z</time>
      </trkpt>
      <trkpt lat="44.31623" lon="3.6112">
        <ele>599.52</ele>
        <time>2022-08-08T07:21:46Z</time>
      </trkpt>
      <trkpt lat="44.31611" lon="3.61124">
        <ele>601.44</ele>
        <time>2022-08-08T07:21:59Z</time>
      </trkpt>
      <trkpt lat="44.31599" lon="3.61132">
        <ele>604.81</ele>
        <time>2022-08-08T07:22:14Z</time>
      </trkpt>
      <trkpt lat="44.31583" lon="3.61132">
        <ele>607.69</ele>
        <time>2022-08-08T07:22:31Z</time>
      </trkpt>
      <trkpt lat="44.31568" lon="3.61131">
        <ele>609.13</ele>
        <time>2022-08-08T07:22:46Z</time>
      </trkpt>
      <trkpt lat="44.31567" lon="3.61132">
        <ele>609.61</ele>
        <time>2022-08-08T07:22:48Z</time>
      </trkpt>
      <trkpt lat="44.31552" lon="3.61132">
        <ele>610.57</ele>
        <time>2022-08-08T07:23:02Z</time>
      </trkpt>
      <trkpt lat="44.31537" lon="3.61137">
        <ele>612.5</ele>
        <time>2022-08-08T07:23:17Z</time>
      </trkpt>
      <trkpt lat="44.31523" lon="3.61138">
        <ele>612.98</ele>
        <time>2022-08-08T07:23:30Z</time>
      </trkpt>
      <trkpt lat="44.31511" lon="3.61146">
        <ele>612.02</ele>
        <time>2022-08-08T07:23:45Z</time>
      </trkpt>
      <trkpt lat="44.315" lon="3.61154">
        <ele>613.94</ele>
        <time>2022-08-08T07:23:58Z</time>
      </trkpt>
      <trkpt lat="44.31485" lon="3.61161">
        <ele>614.42</ele>
        <time>2022-08-08T07:24:14Z</time>
      </trkpt>
      <trkpt lat="44.31473" lon="3.61166">
        <ele>615.86</ele>
        <time>2022-08-08T07:24:27Z</time>
      </trkpt>
      <trkpt lat="44.31457" lon="3.6117">
        <ele>616.34</ele>
        <time>2022-08-08T07:24:42Z</time>
      </trkpt>
      <trkpt lat="44.31443" lon="3.61172">
        <ele>613.94</ele>
        <time>2022-08-08T07:24:56Z</time>
      </trkpt>
      <trkpt lat="44.3144" lon="3.61173">
        <ele>613.94</ele>
        <time>2022-08-08T07:24:58Z</time>
      </trkpt>
      <trkpt lat="44.31433" lon="3.61178">
        <ele>613.94</ele>
        <time>2022-08-08T07:25:06Z</time>
      </trkpt>
      <trkpt lat="44.31422" lon="3.6119">
        <ele>611.06</ele>
        <time>2022-08-08T07:25:20Z</time>
      </trkpt>
      <trkpt lat="44.31413" lon="3.61203">
        <ele>613.94</ele>
        <time>2022-08-08T07:25:33Z</time>
      </trkpt>
      <trkpt lat="44.314" lon="3.61213">
        <ele>612.98</ele>
        <time>2022-08-08T07:25:46Z</time>
      </trkpt>
      <trkpt lat="44.31398" lon="3.61218">
        <ele>613.94</ele>
        <time>2022-08-08T07:25:50Z</time>
      </trkpt>
      <trkpt lat="44.31386" lon="3.61233">
        <ele>615.86</ele>
        <time>2022-08-08T07:26:04Z</time>
      </trkpt>
      <trkpt lat="44.31382" lon="3.61241">
        <ele>618.26</ele>
        <time>2022-08-08T07:26:10Z</time>
      </trkpt>
      <trkpt lat="44.31371" lon="3.61257">
        <ele>619.23</ele>
        <time>2022-08-08T07:26:24Z</time>
      </trkpt>
      <trkpt lat="44.31362" lon="3.61276">
        <ele>616.82</ele>
        <time>2022-08-08T07:26:38Z</time>
      </trkpt>
      <trkpt lat="44.31354" lon="3.61293">
        <ele>609.13</ele>
        <time>2022-08-08T07:26:52Z</time>
      </trkpt>
      <trkpt lat="44.31346" lon="3.61318">
        <ele>608.17</ele>
        <time>2022-08-08T07:27:09Z</time>
      </trkpt>
      <trkpt lat="44.31341" lon="3.61339">
        <ele>612.98</ele>
        <time>2022-08-08T07:27:22Z</time>
      </trkpt>
      <trkpt lat="44.31334" lon="3.61357">
        <ele>614.42</ele>
        <time>2022-08-08T07:27:37Z</time>
      </trkpt>
      <trkpt lat="44.31319" lon="3.61381">
        <ele>612.98</ele>
        <time>2022-08-08T07:27:56Z</time>
      </trkpt>
      <trkpt lat="44.31318" lon="3.61409">
        <ele>609.61</ele>
        <time>2022-08-08T07:28:10Z</time>
      </trkpt>
      <trkpt lat="44.31314" lon="3.61433">
        <ele>609.13</ele>
        <time>2022-08-08T07:28:24Z</time>
      </trkpt>
      <trkpt lat="44.31311" lon="3.6146">
        <ele>613.94</ele>
        <time>2022-08-08T07:28:38Z</time>
      </trkpt>
      <trkpt lat="44.31308" lon="3.61485">
        <ele>613.46</ele>
        <time>2022-08-08T07:28:54Z</time>
      </trkpt>
      <trkpt lat="44.31304" lon="3.61511">
        <ele>612.98</ele>
        <time>2022-08-08T07:29:10Z</time>
      </trkpt>
      <trkpt lat="44.313" lon="3.61538">
        <ele>612.5</ele>
        <time>2022-08-08T07:29:27Z</time>
      </trkpt>
      <trkpt lat="44.31299" lon="3.6154">
        <ele>612.98</ele>
        <time>2022-08-08T07:29:28Z</time>
      </trkpt>
      <trkpt lat="44.31297" lon="3.61566">
        <ele>612.5</ele>
        <time>2022-08-08T07:29:44Z</time>
      </trkpt>
      <trkpt lat="44.31294" lon="3.61589">
        <ele>612.02</ele>
        <time>2022-08-08T07:29:58Z</time>
      </trkpt>
      <trkpt lat="44.31289" lon="3.61615">
        <ele>609.13</ele>
        <time>2022-08-08T07:30:13Z</time>
      </trkpt>
      <trkpt lat="44.31279" lon="3.61671">
        <ele>607.69</ele>
        <time>2022-08-08T07:30:46Z</time>
      </trkpt>
      <trkpt lat="44.31276" lon="3.617">
        <ele>609.61</ele>
        <time>2022-08-08T07:31:03Z</time>
      </trkpt>
      <trkpt lat="44.31274" lon="3.61714">
        <ele>609.61</ele>
        <time>2022-08-08T07:31:12Z</time>
      </trkpt>
      <trkpt lat="44.31271" lon="3.61722">
        <ele>610.09</ele>
        <time>2022-08-08T07:31:17Z</time>
      </trkpt>
      <trkpt lat="44.31261" lon="3.61743">
        <ele>610.57</ele>
        <time>2022-08-08T07:31:32Z</time>
      </trkpt>
      <trkpt lat="44.31246" lon="3.61757">
        <ele>608.17</ele>
        <time>2022-08-08T07:31:46Z</time>
      </trkpt>
      <trkpt lat="44.31227" lon="3.61766">
        <ele>607.21</ele>
        <time>2022-08-08T07:32:02Z</time>
      </trkpt>
      <trkpt lat="44.31224" lon="3.61768">
        <ele>607.69</ele>
        <time>2022-08-08T07:32:05Z</time>
      </trkpt>
      <trkpt lat="44.31208" lon="3.61786">
        <ele>605.77</ele>
        <time>2022-08-08T07:32:21Z</time>
      </trkpt>
      <trkpt lat="44.31193" lon="3.61803">
        <ele>602.4</ele>
        <time>2022-08-08T07:32:36Z</time>
      </trkpt>
      <trkpt lat="44.31191" lon="3.61804">
        <ele>601.44</ele>
        <time>2022-08-08T07:32:38Z</time>
      </trkpt>
      <trkpt lat="44.31185" lon="3.61809">
        <ele>600.48</ele>
        <time>2022-08-08T07:32:43Z</time>
      </trkpt>
      <trkpt lat="44.31172" lon="3.61822">
        <ele>597.12</ele>
        <time>2022-08-08T07:32:56Z</time>
      </trkpt>
      <trkpt lat="44.31156" lon="3.6183">
        <ele>593.27</ele>
        <time>2022-08-08T07:33:09Z</time>
      </trkpt>
      <trkpt lat="44.3114" lon="3.61842">
        <ele>589.91</ele>
        <time>2022-08-08T07:33:25Z</time>
      </trkpt>
      <trkpt lat="44.3114" lon="3.61867">
        <ele>587.98</ele>
        <time>2022-08-08T07:33:38Z</time>
      </trkpt>
      <trkpt lat="44.31162" lon="3.61881">
        <ele>591.83</ele>
        <time>2022-08-08T07:33:56Z</time>
      </trkpt>
      <trkpt lat="44.31182" lon="3.6189">
        <ele>594.71</ele>
        <time>2022-08-08T07:34:14Z</time>
      </trkpt>
      <trkpt lat="44.31204" lon="3.61892">
        <ele>596.15</ele>
        <time>2022-08-08T07:34:31Z</time>
      </trkpt>
      <trkpt lat="44.31217" lon="3.61885">
        <ele>595.67</ele>
        <time>2022-08-08T07:34:44Z</time>
      </trkpt>
      <trkpt lat="44.31238" lon="3.61882">
        <ele>593.75</ele>
        <time>2022-08-08T07:35:01Z</time>
      </trkpt>
      <trkpt lat="44.31253" lon="3.61881">
        <ele>592.31</ele>
        <time>2022-08-08T07:35:15Z</time>
      </trkpt>
      <trkpt lat="44.31269" lon="3.61882">
        <ele>593.27</ele>
        <time>2022-08-08T07:35:30Z</time>
      </trkpt>
      <trkpt lat="44.31286" lon="3.61883">
        <ele>594.23</ele>
        <time>2022-08-08T07:35:46Z</time>
      </trkpt>
      <trkpt lat="44.31298" lon="3.61888">
        <ele>594.23</ele>
        <time>2022-08-08T07:35:57Z</time>
      </trkpt>
      <trkpt lat="44.31303" lon="3.61904">
        <ele>597.6</ele>
        <time>2022-08-08T07:36:10Z</time>
      </trkpt>
      <trkpt lat="44.31297" lon="3.61913">
        <ele>600</ele>
        <time>2022-08-08T07:36:19Z</time>
      </trkpt>
      <trkpt lat="44.31283" lon="3.61923">
        <ele>602.4</ele>
        <time>2022-08-08T07:36:33Z</time>
      </trkpt>
      <trkpt lat="44.31275" lon="3.61928">
        <ele>602.88</ele>
        <time>2022-08-08T07:36:41Z</time>
      </trkpt>
      <trkpt lat="44.3126" lon="3.61936">
        <ele>602.88</ele>
        <time>2022-08-08T07:36:56Z</time>
      </trkpt>
      <trkpt lat="44.31249" lon="3.61952">
        <ele>603.85</ele>
        <time>2022-08-08T07:37:10Z</time>
      </trkpt>
      <trkpt lat="44.31244" lon="3.61972">
        <ele>602.4</ele>
        <time>2022-08-08T07:37:23Z</time>
      </trkpt>
      <trkpt lat="44.31245" lon="3.61994">
        <ele>600.48</ele>
        <time>2022-08-08T07:37:37Z</time>
      </trkpt>
      <trkpt lat="44.31246" lon="3.62019">
        <ele>601.44</ele>
        <time>2022-08-08T07:37:52Z</time>
      </trkpt>
      <trkpt lat="44.31247" lon="3.62027">
        <ele>601.44</ele>
        <time>2022-08-08T07:37:57Z</time>
      </trkpt>
      <trkpt lat="44.3124" lon="3.62042">
        <ele>605.77</ele>
        <time>2022-08-08T07:38:12Z</time>
      </trkpt>
      <trkpt lat="44.31241" lon="3.62066">
        <ele>609.61</ele>
        <time>2022-08-08T07:38:30Z</time>
      </trkpt>
      <trkpt lat="44.31241" lon="3.62083">
        <ele>612.5</ele>
        <time>2022-08-08T07:38:44Z</time>
      </trkpt>
      <trkpt lat="44.31243" lon="3.62104">
        <ele>618.26</ele>
        <time>2022-08-08T07:39:00Z</time>
      </trkpt>
      <trkpt lat="44.3125" lon="3.62123">
        <ele>622.59</ele>
        <time>2022-08-08T07:39:17Z</time>
      </trkpt>
      <trkpt lat="44.31255" lon="3.62141">
        <ele>624.99</ele>
        <time>2022-08-08T07:39:32Z</time>
      </trkpt>
      <trkpt lat="44.31263" lon="3.62158">
        <ele>625.47</ele>
        <time>2022-08-08T07:39:51Z</time>
      </trkpt>
      <trkpt lat="44.31268" lon="3.62172">
        <ele>625.47</ele>
        <time>2022-08-08T07:40:06Z</time>
      </trkpt>
      <trkpt lat="44.31275" lon="3.62185">
        <ele>624.51</ele>
        <time>2022-08-08T07:40:19Z</time>
      </trkpt>
      <trkpt lat="44.31282" lon="3.62198">
        <ele>623.07</ele>
        <time>2022-08-08T07:40:34Z</time>
      </trkpt>
      <trkpt lat="44.31289" lon="3.62215">
        <ele>625.96</ele>
        <time>2022-08-08T07:40:49Z</time>
      </trkpt>
      <trkpt lat="44.31296" lon="3.62231">
        <ele>627.88</ele>
        <time>2022-08-08T07:41:04Z</time>
      </trkpt>
      <trkpt lat="44.31304" lon="3.62247">
        <ele>627.4</ele>
        <time>2022-08-08T07:41:19Z</time>
      </trkpt>
      <trkpt lat="44.31312" lon="3.62265">
        <ele>628.36</ele>
        <time>2022-08-08T07:41:35Z</time>
      </trkpt>
      <trkpt lat="44.31319" lon="3.62279">
        <ele>628.84</ele>
        <time>2022-08-08T07:41:49Z</time>
      </trkpt>
      <trkpt lat="44.31329" lon="3.62301">
        <ele>629.8</ele>
        <time>2022-08-08T07:42:08Z</time>
      </trkpt>
      <trkpt lat="44.31338" lon="3.62316">
        <ele>630.28</ele>
        <time>2022-08-08T07:42:24Z</time>
      </trkpt>
      <trkpt lat="44.31346" lon="3.6233">
        <ele>629.8</ele>
        <time>2022-08-08T07:42:40Z</time>
      </trkpt>
      <trkpt lat="44.31354" lon="3.62345">
        <ele>630.28</ele>
        <time>2022-08-08T07:42:56Z</time>
      </trkpt>
      <trkpt lat="44.31361" lon="3.6236">
        <ele>632.68</ele>
        <time>2022-08-08T07:43:12Z</time>
      </trkpt>
      <trkpt lat="44.3137" lon="3.62375">
        <ele>635.09</ele>
        <time>2022-08-08T07:43:28Z</time>
      </trkpt>
      <trkpt lat="44.31377" lon="3.62388">
        <ele>637.01</ele>
        <time>2022-08-08T07:43:44Z</time>
      </trkpt>
      <trkpt lat="44.31384" lon="3.62401">
        <ele>638.45</ele>
        <time>2022-08-08T07:44:00Z</time>
      </trkpt>
      <trkpt lat="44.31391" lon="3.62414">
        <ele>639.89</ele>
        <time>2022-08-08T07:44:17Z</time>
      </trkpt>
      <trkpt lat="44.31396" lon="3.62426">
        <ele>643.26</ele>
        <time>2022-08-08T07:44:30Z</time>
      </trkpt>
      <trkpt lat="44.31404" lon="3.62441">
        <ele>647.1</ele>
        <time>2022-08-08T07:44:47Z</time>
      </trkpt>
      <trkpt lat="44.31411" lon="3.62455">
        <ele>647.1</ele>
        <time>2022-08-08T07:45:03Z</time>
      </trkpt>
      <trkpt lat="44.3142" lon="3.62473">
        <ele>649.51</ele>
        <time>2022-08-08T07:45:23Z</time>
      </trkpt>
      <trkpt lat="44.31427" lon="3.62489">
        <ele>652.39</ele>
        <time>2022-08-08T07:45:41Z</time>
      </trkpt>
      <trkpt lat="44.31432" lon="3.62509">
        <ele>655.76</ele>
        <time>2022-08-08T07:45:59Z</time>
      </trkpt>
      <trkpt lat="44.31433" lon="3.62524">
        <ele>656.24</ele>
        <time>2022-08-08T07:46:12Z</time>
      </trkpt>
      <trkpt lat="44.31432" lon="3.6253">
        <ele>656.72</ele>
        <time>2022-08-08T07:46:17Z</time>
      </trkpt>
      <trkpt lat="44.31426" lon="3.62541">
        <ele>657.68</ele>
        <time>2022-08-08T07:46:29Z</time>
      </trkpt>
      <trkpt lat="44.31414" lon="3.62552">
        <ele>660.08</ele>
        <time>2022-08-08T07:46:44Z</time>
      </trkpt>
      <trkpt lat="44.31403" lon="3.62564">
        <ele>661.52</ele>
        <time>2022-08-08T07:46:59Z</time>
      </trkpt>
      <trkpt lat="44.31399" lon="3.62566">
        <ele>662.01</ele>
        <time>2022-08-08T07:47:04Z</time>
      </trkpt>
      <trkpt lat="44.31395" lon="3.62568">
        <ele>662.49</ele>
        <time>2022-08-08T07:47:08Z</time>
      </trkpt>
      <trkpt lat="44.31382" lon="3.62572">
        <ele>663.93</ele>
        <time>2022-08-08T07:47:21Z</time>
      </trkpt>
      <trkpt lat="44.31369" lon="3.62579">
        <ele>662.49</ele>
        <time>2022-08-08T07:47:35Z</time>
      </trkpt>
      <trkpt lat="44.31367" lon="3.62581">
        <ele>662.01</ele>
        <time>2022-08-08T07:47:37Z</time>
      </trkpt>
      <trkpt lat="44.31355" lon="3.62594">
        <ele>660.56</ele>
        <time>2022-08-08T07:47:53Z</time>
      </trkpt>
      <trkpt lat="44.31341" lon="3.62611">
        <ele>665.37</ele>
        <time>2022-08-08T07:48:11Z</time>
      </trkpt>
      <trkpt lat="44.31339" lon="3.62614">
        <ele>666.33</ele>
        <time>2022-08-08T07:48:14Z</time>
      </trkpt>
      <trkpt lat="44.31335" lon="3.62619">
        <ele>668.25</ele>
        <time>2022-08-08T07:48:20Z</time>
      </trkpt>
      <trkpt lat="44.31323" lon="3.6263">
        <ele>668.73</ele>
        <time>2022-08-08T07:48:34Z</time>
      </trkpt>
      <trkpt lat="44.31313" lon="3.62643">
        <ele>669.7</ele>
        <time>2022-08-08T07:48:47Z</time>
      </trkpt>
      <trkpt lat="44.31302" lon="3.62657">
        <ele>667.77</ele>
        <time>2022-08-08T07:49:00Z</time>
      </trkpt>
      <trkpt lat="44.3129" lon="3.62675">
        <ele>665.37</ele>
        <time>2022-08-08T07:49:15Z</time>
      </trkpt>
      <trkpt lat="44.31281" lon="3.6269">
        <ele>663.93</ele>
        <time>2022-08-08T07:49:27Z</time>
      </trkpt>
      <trkpt lat="44.31273" lon="3.62706">
        <ele>662.97</ele>
        <time>2022-08-08T07:49:40Z</time>
      </trkpt>
      <trkpt lat="44.31259" lon="3.62728">
        <ele>665.37</ele>
        <time>2022-08-08T07:49:56Z</time>
      </trkpt>
      <trkpt lat="44.31251" lon="3.62742">
        <ele>662.97</ele>
        <time>2022-08-08T07:50:08Z</time>
      </trkpt>
      <trkpt lat="44.31246" lon="3.6275">
        <ele>661.52</ele>
        <time>2022-08-08T07:50:15Z</time>
      </trkpt>
      <trkpt lat="44.31235" lon="3.62766">
        <ele>661.04</ele>
        <time>2022-08-08T07:50:29Z</time>
      </trkpt>
      <trkpt lat="44.31225" lon="3.6278">
        <ele>659.12</ele>
        <time>2022-08-08T07:50:42Z</time>
      </trkpt>
      <trkpt lat="44.31214" lon="3.6279">
        <ele>659.6</ele>
        <time>2022-08-08T07:50:53Z</time>
      </trkpt>
      <trkpt lat="44.31209" lon="3.62798">
        <ele>661.52</ele>
        <time>2022-08-08T07:51:00Z</time>
      </trkpt>
      <trkpt lat="44.31201" lon="3.62825">
        <ele>661.04</ele>
        <time>2022-08-08T07:51:17Z</time>
      </trkpt>
      <trkpt lat="44.31198" lon="3.62847">
        <ele>661.04</ele>
        <time>2022-08-08T07:51:30Z</time>
      </trkpt>
      <trkpt lat="44.31193" lon="3.62871">
        <ele>661.04</ele>
        <time>2022-08-08T07:51:45Z</time>
      </trkpt>
      <trkpt lat="44.31192" lon="3.62873">
        <ele>661.04</ele>
        <time>2022-08-08T07:51:47Z</time>
      </trkpt>
      <trkpt lat="44.31182" lon="3.62889">
        <ele>658.64</ele>
        <time>2022-08-08T07:52:01Z</time>
      </trkpt>
      <trkpt lat="44.31173" lon="3.62909">
        <ele>656.72</ele>
        <time>2022-08-08T07:52:15Z</time>
      </trkpt>
      <trkpt lat="44.31172" lon="3.62912">
        <ele>656.24</ele>
        <time>2022-08-08T07:52:18Z</time>
      </trkpt>
      <trkpt lat="44.31161" lon="3.62929">
        <ele>657.2</ele>
        <time>2022-08-08T07:52:32Z</time>
      </trkpt>
      <trkpt lat="44.31156" lon="3.62953">
        <ele>655.28</ele>
        <time>2022-08-08T07:52:47Z</time>
      </trkpt>
      <trkpt lat="44.31156" lon="3.62977">
        <ele>654.31</ele>
        <time>2022-08-08T07:53:01Z</time>
      </trkpt>
      <trkpt lat="44.31154" lon="3.62993">
        <ele>654.8</ele>
        <time>2022-08-08T07:53:10Z</time>
      </trkpt>
      <trkpt lat="44.31152" lon="3.63018">
        <ele>653.35</ele>
        <time>2022-08-08T07:53:25Z</time>
      </trkpt>
      <trkpt lat="44.31151" lon="3.63041">
        <ele>650.95</ele>
        <time>2022-08-08T07:53:39Z</time>
      </trkpt>
      <trkpt lat="44.31147" lon="3.63054">
        <ele>651.43</ele>
        <time>2022-08-08T07:53:47Z</time>
      </trkpt>
      <trkpt lat="44.31139" lon="3.63075">
        <ele>651.91</ele>
        <time>2022-08-08T07:54:01Z</time>
      </trkpt>
      <trkpt lat="44.31137" lon="3.63082">
        <ele>651.91</ele>
        <time>2022-08-08T07:54:06Z</time>
      </trkpt>
      <trkpt lat="44.31127" lon="3.63101">
        <ele>652.87</ele>
        <time>2022-08-08T07:54:21Z</time>
      </trkpt>
      <trkpt lat="44.31117" lon="3.63119">
        <ele>653.35</ele>
        <time>2022-08-08T07:54:34Z</time>
      </trkpt>
      <trkpt lat="44.31105" lon="3.63139">
        <ele>655.76</ele>
        <time>2022-08-08T07:54:49Z</time>
      </trkpt>
      <trkpt lat="44.31092" lon="3.63155">
        <ele>655.76</ele>
        <time>2022-08-08T07:55:05Z</time>
      </trkpt>
      <trkpt lat="44.3108" lon="3.6316">
        <ele>654.8</ele>
        <time>2022-08-08T07:55:16Z</time>
      </trkpt>
      <trkpt lat="44.31064" lon="3.63168">
        <ele>652.87</ele>
        <time>2022-08-08T07:55:30Z</time>
      </trkpt>
      <trkpt lat="44.31049" lon="3.63168">
        <ele>649.51</ele>
        <time>2022-08-08T07:55:43Z</time>
      </trkpt>
      <trkpt lat="44.31037" lon="3.63163">
        <ele>646.14</ele>
        <time>2022-08-08T07:55:55Z</time>
      </trkpt>
      <trkpt lat="44.31025" lon="3.63148">
        <ele>644.22</ele>
        <time>2022-08-08T07:56:11Z</time>
      </trkpt>
      <trkpt lat="44.31013" lon="3.63148">
        <ele>644.7</ele>
        <time>2022-08-08T07:56:26Z</time>
      </trkpt>
      <trkpt lat="44.31005" lon="3.63143">
        <ele>643.74</ele>
        <time>2022-08-08T07:56:40Z</time>
      </trkpt>
      <trkpt lat="44.30999" lon="3.63134">
        <ele>643.26</ele>
        <time>2022-08-08T07:56:54Z</time>
      </trkpt>
      <trkpt lat="44.30991" lon="3.63127">
        <ele>641.82</ele>
        <time>2022-08-08T07:57:07Z</time>
      </trkpt>
      <trkpt lat="44.30982" lon="3.6312">
        <ele>641.34</ele>
        <time>2022-08-08T07:57:22Z</time>
      </trkpt>
      <trkpt lat="44.30973" lon="3.63108">
        <ele>648.07</ele>
        <time>2022-08-08T07:57:36Z</time>
      </trkpt>
      <trkpt lat="44.30966" lon="3.63102">
        <ele>650.47</ele>
        <time>2022-08-08T07:57:49Z</time>
      </trkpt>
      <trkpt lat="44.30961" lon="3.63097">
        <ele>654.31</ele>
        <time>2022-08-08T07:58:04Z</time>
      </trkpt>
      <trkpt lat="44.30957" lon="3.63098">
        <ele>657.68</ele>
        <time>2022-08-08T07:58:18Z</time>
      </trkpt>
      <trkpt lat="44.30951" lon="3.63098">
        <ele>662.01</ele>
        <time>2022-08-08T07:58:35Z</time>
      </trkpt>
      <trkpt lat="44.30943" lon="3.6309">
        <ele>660.08</ele>
        <time>2022-08-08T07:58:52Z</time>
      </trkpt>
      <trkpt lat="44.30934" lon="3.63084">
        <ele>664.41</ele>
        <time>2022-08-08T07:59:08Z</time>
      </trkpt>
      <trkpt lat="44.30922" lon="3.63081">
        <ele>668.25</ele>
        <time>2022-08-08T07:59:23Z</time>
      </trkpt>
      <trkpt lat="44.30911" lon="3.63073">
        <ele>671.62</ele>
        <time>2022-08-08T07:59:37Z</time>
      </trkpt>
      <trkpt lat="44.30904" lon="3.63068">
        <ele>671.62</ele>
        <time>2022-08-08T07:59:46Z</time>
      </trkpt>
      <trkpt lat="44.30892" lon="3.63063">
        <ele>674.02</ele>
        <time>2022-08-08T08:00:00Z</time>
      </trkpt>
      <trkpt lat="44.30879" lon="3.63055">
        <ele>676.42</ele>
        <time>2022-08-08T08:00:14Z</time>
      </trkpt>
      <trkpt lat="44.30872" lon="3.63051">
        <ele>676.91</ele>
        <time>2022-08-08T08:00:22Z</time>
      </trkpt>
      <trkpt lat="44.30858" lon="3.63044">
        <ele>676.42</ele>
        <time>2022-08-08T08:00:35Z</time>
      </trkpt>
      <trkpt lat="44.30847" lon="3.63058">
        <ele>679.31</ele>
        <time>2022-08-08T08:00:49Z</time>
      </trkpt>
      <trkpt lat="44.30856" lon="3.63071">
        <ele>680.27</ele>
        <time>2022-08-08T08:01:05Z</time>
      </trkpt>
      <trkpt lat="44.30863" lon="3.63084">
        <ele>684.12</ele>
        <time>2022-08-08T08:01:18Z</time>
      </trkpt>
      <trkpt lat="44.30872" lon="3.63096">
        <ele>686.52</ele>
        <time>2022-08-08T08:01:34Z</time>
      </trkpt>
      <trkpt lat="44.3088" lon="3.63107">
        <ele>687.48</ele>
        <time>2022-08-08T08:01:49Z</time>
      </trkpt>
      <trkpt lat="44.3089" lon="3.63117">
        <ele>685.56</ele>
        <time>2022-08-08T08:02:04Z</time>
      </trkpt>
      <trkpt lat="44.30895" lon="3.63128">
        <ele>682.19</ele>
        <time>2022-08-08T08:02:16Z</time>
      </trkpt>
      <trkpt lat="44.30901" lon="3.63143">
        <ele>677.87</ele>
        <time>2022-08-08T08:02:31Z</time>
      </trkpt>
      <trkpt lat="44.30906" lon="3.63161">
        <ele>677.87</ele>
        <time>2022-08-08T08:02:46Z</time>
      </trkpt>
      <trkpt lat="44.30912" lon="3.63173">
        <ele>677.87</ele>
        <time>2022-08-08T08:02:59Z</time>
      </trkpt>
      <trkpt lat="44.3092" lon="3.63192">
        <ele>681.23</ele>
        <time>2022-08-08T08:03:15Z</time>
      </trkpt>
      <trkpt lat="44.30927" lon="3.63208">
        <ele>682.19</ele>
        <time>2022-08-08T08:03:30Z</time>
      </trkpt>
      <trkpt lat="44.3093" lon="3.63224">
        <ele>685.08</ele>
        <time>2022-08-08T08:03:44Z</time>
      </trkpt>
      <trkpt lat="44.30931" lon="3.63247">
        <ele>690.36</ele>
        <time>2022-08-08T08:04:00Z</time>
      </trkpt>
      <trkpt lat="44.30934" lon="3.6326">
        <ele>691.33</ele>
        <time>2022-08-08T08:04:12Z</time>
      </trkpt>
      <trkpt lat="44.30939" lon="3.63277">
        <ele>695.65</ele>
        <time>2022-08-08T08:04:28Z</time>
      </trkpt>
      <trkpt lat="44.3094" lon="3.6329">
        <ele>694.21</ele>
        <time>2022-08-08T08:04:41Z</time>
      </trkpt>
      <trkpt lat="44.3094" lon="3.63309">
        <ele>694.21</ele>
        <time>2022-08-08T08:04:55Z</time>
      </trkpt>
      <trkpt lat="44.30943" lon="3.63329">
        <ele>699.5</ele>
        <time>2022-08-08T08:05:09Z</time>
      </trkpt>
      <trkpt lat="44.30948" lon="3.63344">
        <ele>701.9</ele>
        <time>2022-08-08T08:05:25Z</time>
      </trkpt>
      <trkpt lat="44.30953" lon="3.63356">
        <ele>699.98</ele>
        <time>2022-08-08T08:05:37Z</time>
      </trkpt>
      <trkpt lat="44.30956" lon="3.63369">
        <ele>699.02</ele>
        <time>2022-08-08T08:05:50Z</time>
      </trkpt>
      <trkpt lat="44.30969" lon="3.63367">
        <ele>699.02</ele>
        <time>2022-08-08T08:06:03Z</time>
      </trkpt>
      <trkpt lat="44.30978" lon="3.63369">
        <ele>698.53</ele>
        <time>2022-08-08T08:06:18Z</time>
      </trkpt>
      <trkpt lat="44.30979" lon="3.63369">
        <ele>698.53</ele>
        <time>2022-08-08T08:06:19Z</time>
      </trkpt>
      <trkpt lat="44.30984" lon="3.63361">
        <ele>698.53</ele>
        <time>2022-08-08T08:06:32Z</time>
      </trkpt>
      <trkpt lat="44.30981" lon="3.63357">
        <ele>702.86</ele>
        <time>2022-08-08T08:06:46Z</time>
      </trkpt>
      <trkpt lat="44.30981" lon="3.63357">
        <ele>701.9</ele>
        <time>2022-08-08T08:07:02Z</time>
      </trkpt>
      <trkpt lat="44.30981" lon="3.63359">
        <ele>700.94</ele>
        <time>2022-08-08T08:07:27Z</time>
      </trkpt>
      <trkpt lat="44.30981" lon="3.63359">
        <ele>702.86</ele>
        <time>2022-08-08T08:07:49Z</time>
      </trkpt>
      <trkpt lat="44.30979" lon="3.63358">
        <ele>705.26</ele>
        <time>2022-08-08T08:08:12Z</time>
      </trkpt>
      <trkpt lat="44.30978" lon="3.6336">
        <ele>703.34</ele>
        <time>2022-08-08T08:08:40Z</time>
      </trkpt>
      <trkpt lat="44.3098" lon="3.63359">
        <ele>702.86</ele>
        <time>2022-08-08T08:09:00Z</time>
      </trkpt>
      <trkpt lat="44.30979" lon="3.63357">
        <ele>704.3</ele>
        <time>2022-08-08T08:09:28Z</time>
      </trkpt>
      <trkpt lat="44.30982" lon="3.63364">
        <ele>700.94</ele>
        <time>2022-08-08T08:09:40Z</time>
      </trkpt>
      <trkpt lat="44.30984" lon="3.6337">
        <ele>700.46</ele>
        <time>2022-08-08T08:09:53Z</time>
      </trkpt>
      <trkpt lat="44.30984" lon="3.63368">
        <ele>700.46</ele>
        <time>2022-08-08T08:10:25Z</time>
      </trkpt>
      <trkpt lat="44.30984" lon="3.63367">
        <ele>697.09</ele>
        <time>2022-08-08T08:10:47Z</time>
      </trkpt>
      <trkpt lat="44.30986" lon="3.63368">
        <ele>698.05</ele>
        <time>2022-08-08T08:11:09Z</time>
      </trkpt>
      <trkpt lat="44.3098" lon="3.63373">
        <ele>697.09</ele>
        <time>2022-08-08T08:11:23Z</time>
      </trkpt>
      <trkpt lat="44.30971" lon="3.63384">
        <ele>698.53</ele>
        <time>2022-08-08T08:11:35Z</time>
      </trkpt>
      <trkpt lat="44.30961" lon="3.63396">
        <ele>698.05</ele>
        <time>2022-08-08T08:11:49Z</time>
      </trkpt>
      <trkpt lat="44.30951" lon="3.63413">
        <ele>698.53</ele>
        <time>2022-08-08T08:12:02Z</time>
      </trkpt>
      <trkpt lat="44.30943" lon="3.6343">
        <ele>697.57</ele>
        <time>2022-08-08T08:12:16Z</time>
      </trkpt>
      <trkpt lat="44.30935" lon="3.63443">
        <ele>695.65</ele>
        <time>2022-08-08T08:12:27Z</time>
      </trkpt>
      <trkpt lat="44.30926" lon="3.63462">
        <ele>693.25</ele>
        <time>2022-08-08T08:12:41Z</time>
      </trkpt>
      <trkpt lat="44.30924" lon="3.63466">
        <ele>692.77</ele>
        <time>2022-08-08T08:12:44Z</time>
      </trkpt>
      <trkpt lat="44.3092" lon="3.63477">
        <ele>691.81</ele>
        <time>2022-08-08T08:12:51Z</time>
      </trkpt>
      <trkpt lat="44.30915" lon="3.63494">
        <ele>688.44</ele>
        <time>2022-08-08T08:13:03Z</time>
      </trkpt>
      <trkpt lat="44.30909" lon="3.63513">
        <ele>685.56</ele>
        <time>2022-08-08T08:13:16Z</time>
      </trkpt>
      <trkpt lat="44.30905" lon="3.63527">
        <ele>684.6</ele>
        <time>2022-08-08T08:13:24Z</time>
      </trkpt>
      <trkpt lat="44.30897" lon="3.63551">
        <ele>683.15</ele>
        <time>2022-08-08T08:13:39Z</time>
      </trkpt>
      <trkpt lat="44.3089" lon="3.63574">
        <ele>684.6</ele>
        <time>2022-08-08T08:13:52Z</time>
      </trkpt>
      <trkpt lat="44.30881" lon="3.63592">
        <ele>685.08</ele>
        <time>2022-08-08T08:14:07Z</time>
      </trkpt>
      <trkpt lat="44.30868" lon="3.63608">
        <ele>684.6</ele>
        <time>2022-08-08T08:14:21Z</time>
      </trkpt>
      <trkpt lat="44.30859" lon="3.63617">
        <ele>681.23</ele>
        <time>2022-08-08T08:14:32Z</time>
      </trkpt>
      <trkpt lat="44.30846" lon="3.63629">
        <ele>674.98</ele>
        <time>2022-08-08T08:14:48Z</time>
      </trkpt>
      <trkpt lat="44.30833" lon="3.63642">
        <ele>669.7</ele>
        <time>2022-08-08T08:15:03Z</time>
      </trkpt>
      <trkpt lat="44.30816" lon="3.63661">
        <ele>668.73</ele>
        <time>2022-08-08T08:15:18Z</time>
      </trkpt>
      <trkpt lat="44.308" lon="3.63678">
        <ele>674.5</ele>
        <time>2022-08-08T08:15:33Z</time>
      </trkpt>
      <trkpt lat="44.30788" lon="3.63694">
        <ele>677.87</ele>
        <time>2022-08-08T08:15:45Z</time>
      </trkpt>
      <trkpt lat="44.30779" lon="3.63713">
        <ele>677.39</ele>
        <time>2022-08-08T08:15:59Z</time>
      </trkpt>
      <trkpt lat="44.30771" lon="3.63734">
        <ele>677.87</ele>
        <time>2022-08-08T08:16:14Z</time>
      </trkpt>
      <trkpt lat="44.30769" lon="3.63737">
        <ele>677.87</ele>
        <time>2022-08-08T08:16:16Z</time>
      </trkpt>
      <trkpt lat="44.30763" lon="3.63758">
        <ele>677.39</ele>
        <time>2022-08-08T08:16:28Z</time>
      </trkpt>
      <trkpt lat="44.30756" lon="3.63784">
        <ele>676.91</ele>
        <time>2022-08-08T08:16:42Z</time>
      </trkpt>
      <trkpt lat="44.30746" lon="3.63805">
        <ele>675.94</ele>
        <time>2022-08-08T08:16:57Z</time>
      </trkpt>
      <trkpt lat="44.30739" lon="3.63824">
        <ele>674.5</ele>
        <time>2022-08-08T08:17:11Z</time>
      </trkpt>
      <trkpt lat="44.30731" lon="3.63846">
        <ele>673.06</ele>
        <time>2022-08-08T08:17:25Z</time>
      </trkpt>
      <trkpt lat="44.30721" lon="3.63865">
        <ele>671.62</ele>
        <time>2022-08-08T08:17:39Z</time>
      </trkpt>
      <trkpt lat="44.30711" lon="3.63882">
        <ele>668.25</ele>
        <time>2022-08-08T08:17:51Z</time>
      </trkpt>
      <trkpt lat="44.307" lon="3.63898">
        <ele>667.77</ele>
        <time>2022-08-08T08:18:06Z</time>
      </trkpt>
      <trkpt lat="44.30688" lon="3.63918">
        <ele>666.81</ele>
        <time>2022-08-08T08:18:20Z</time>
      </trkpt>
      <trkpt lat="44.30678" lon="3.63941">
        <ele>666.81</ele>
        <time>2022-08-08T08:18:35Z</time>
      </trkpt>
      <trkpt lat="44.30664" lon="3.63957">
        <ele>666.33</ele>
        <time>2022-08-08T08:18:49Z</time>
      </trkpt>
      <trkpt lat="44.30663" lon="3.63958">
        <ele>666.33</ele>
        <time>2022-08-08T08:18:50Z</time>
      </trkpt>
      <trkpt lat="44.30651" lon="3.63967">
        <ele>662.49</ele>
        <time>2022-08-08T08:19:03Z</time>
      </trkpt>
      <trkpt lat="44.30641" lon="3.63979">
        <ele>660.08</ele>
        <time>2022-08-08T08:19:14Z</time>
      </trkpt>
      <trkpt lat="44.30631" lon="3.63999">
        <ele>659.6</ele>
        <time>2022-08-08T08:19:27Z</time>
      </trkpt>
      <trkpt lat="44.30633" lon="3.64014">
        <ele>657.2</ele>
        <time>2022-08-08T08:19:39Z</time>
      </trkpt>
      <trkpt lat="44.30637" lon="3.64034">
        <ele>658.16</ele>
        <time>2022-08-08T08:19:51Z</time>
      </trkpt>
      <trkpt lat="44.30637" lon="3.64048">
        <ele>657.2</ele>
        <time>2022-08-08T08:19:59Z</time>
      </trkpt>
      <trkpt lat="44.3064" lon="3.64065">
        <ele>656.72</ele>
        <time>2022-08-08T08:20:09Z</time>
      </trkpt>
      <trkpt lat="44.3064" lon="3.6407">
        <ele>656.72</ele>
        <time>2022-08-08T08:20:12Z</time>
      </trkpt>
      <trkpt lat="44.30643" lon="3.64095">
        <ele>657.2</ele>
        <time>2022-08-08T08:20:26Z</time>
      </trkpt>
      <trkpt lat="44.3064" lon="3.64122">
        <ele>659.6</ele>
        <time>2022-08-08T08:20:39Z</time>
      </trkpt>
      <trkpt lat="44.30639" lon="3.64129">
        <ele>659.12</ele>
        <time>2022-08-08T08:20:44Z</time>
      </trkpt>
      <trkpt lat="44.30628" lon="3.64144">
        <ele>658.64</ele>
        <time>2022-08-08T08:20:58Z</time>
      </trkpt>
      <trkpt lat="44.30617" lon="3.64144">
        <ele>656.72</ele>
        <time>2022-08-08T08:21:12Z</time>
      </trkpt>
      <trkpt lat="44.30615" lon="3.64161">
        <ele>653.83</ele>
        <time>2022-08-08T08:21:26Z</time>
      </trkpt>
      <trkpt lat="44.30609" lon="3.64179">
        <ele>651.43</ele>
        <time>2022-08-08T08:21:42Z</time>
      </trkpt>
      <trkpt lat="44.30609" lon="3.64193">
        <ele>651.43</ele>
        <time>2022-08-08T08:21:56Z</time>
      </trkpt>
      <trkpt lat="44.30614" lon="3.6421">
        <ele>654.31</ele>
        <time>2022-08-08T08:22:10Z</time>
      </trkpt>
      <trkpt lat="44.30617" lon="3.64222">
        <ele>658.64</ele>
        <time>2022-08-08T08:22:24Z</time>
      </trkpt>
      <trkpt lat="44.30619" lon="3.64233">
        <ele>661.52</ele>
        <time>2022-08-08T08:22:36Z</time>
      </trkpt>
      <trkpt lat="44.30616" lon="3.64246">
        <ele>663.93</ele>
        <time>2022-08-08T08:22:51Z</time>
      </trkpt>
      <trkpt lat="44.30616" lon="3.6426">
        <ele>663.93</ele>
        <time>2022-08-08T08:23:06Z</time>
      </trkpt>
      <trkpt lat="44.30616" lon="3.64278">
        <ele>665.37</ele>
        <time>2022-08-08T08:23:20Z</time>
      </trkpt>
      <trkpt lat="44.30616" lon="3.64295">
        <ele>666.33</ele>
        <time>2022-08-08T08:23:33Z</time>
      </trkpt>
      <trkpt lat="44.30619" lon="3.64314">
        <ele>667.29</ele>
        <time>2022-08-08T08:23:48Z</time>
      </trkpt>
      <trkpt lat="44.30626" lon="3.6433">
        <ele>668.73</ele>
        <time>2022-08-08T08:24:02Z</time>
      </trkpt>
      <trkpt lat="44.3063" lon="3.64343">
        <ele>670.66</ele>
        <time>2022-08-08T08:24:14Z</time>
      </trkpt>
      <trkpt lat="44.30635" lon="3.64359">
        <ele>670.66</ele>
        <time>2022-08-08T08:24:29Z</time>
      </trkpt>
      <trkpt lat="44.3064" lon="3.64376">
        <ele>669.7</ele>
        <time>2022-08-08T08:24:43Z</time>
      </trkpt>
      <trkpt lat="44.30641" lon="3.64386">
        <ele>670.66</ele>
        <time>2022-08-08T08:24:52Z</time>
      </trkpt>
      <trkpt lat="44.30638" lon="3.64404">
        <ele>672.1</ele>
        <time>2022-08-08T08:25:06Z</time>
      </trkpt>
      <trkpt lat="44.30633" lon="3.64425">
        <ele>670.66</ele>
        <time>2022-08-08T08:25:21Z</time>
      </trkpt>
      <trkpt lat="44.30626" lon="3.6444">
        <ele>669.7</ele>
        <time>2022-08-08T08:25:34Z</time>
      </trkpt>
      <trkpt lat="44.30619" lon="3.64459">
        <ele>670.66</ele>
        <time>2022-08-08T08:25:48Z</time>
      </trkpt>
      <trkpt lat="44.30616" lon="3.64478">
        <ele>669.7</ele>
        <time>2022-08-08T08:26:02Z</time>
      </trkpt>
      <trkpt lat="44.30609" lon="3.64497">
        <ele>670.66</ele>
        <time>2022-08-08T08:26:15Z</time>
      </trkpt>
      <trkpt lat="44.30604" lon="3.64513">
        <ele>673.54</ele>
        <time>2022-08-08T08:26:27Z</time>
      </trkpt>
      <trkpt lat="44.30599" lon="3.64537">
        <ele>673.54</ele>
        <time>2022-08-08T08:26:42Z</time>
      </trkpt>
      <trkpt lat="44.30596" lon="3.64558">
        <ele>674.5</ele>
        <time>2022-08-08T08:26:56Z</time>
      </trkpt>
      <trkpt lat="44.3059" lon="3.64574">
        <ele>673.06</ele>
        <time>2022-08-08T08:27:08Z</time>
      </trkpt>
      <trkpt lat="44.30577" lon="3.6459">
        <ele>673.06</ele>
        <time>2022-08-08T08:27:23Z</time>
      </trkpt>
      <trkpt lat="44.30569" lon="3.64605">
        <ele>673.06</ele>
        <time>2022-08-08T08:27:36Z</time>
      </trkpt>
      <trkpt lat="44.30561" lon="3.64621">
        <ele>674.02</ele>
        <time>2022-08-08T08:27:50Z</time>
      </trkpt>
      <trkpt lat="44.30556" lon="3.64627">
        <ele>675.46</ele>
        <time>2022-08-08T08:27:55Z</time>
      </trkpt>
      <trkpt lat="44.30546" lon="3.64644">
        <ele>676.91</ele>
        <time>2022-08-08T08:28:09Z</time>
      </trkpt>
      <trkpt lat="44.30533" lon="3.64654">
        <ele>677.39</ele>
        <time>2022-08-08T08:28:22Z</time>
      </trkpt>
      <trkpt lat="44.3052" lon="3.64663">
        <ele>677.39</ele>
        <time>2022-08-08T08:28:37Z</time>
      </trkpt>
      <trkpt lat="44.3051" lon="3.64664">
        <ele>676.91</ele>
        <time>2022-08-08T08:28:50Z</time>
      </trkpt>
      <trkpt lat="44.30501" lon="3.64679">
        <ele>679.31</ele>
        <time>2022-08-08T08:29:04Z</time>
      </trkpt>
      <trkpt lat="44.30502" lon="3.64697">
        <ele>681.23</ele>
        <time>2022-08-08T08:29:17Z</time>
      </trkpt>
      <trkpt lat="44.30503" lon="3.64713">
        <ele>680.75</ele>
        <time>2022-08-08T08:29:29Z</time>
      </trkpt>
      <trkpt lat="44.30506" lon="3.64735">
        <ele>684.12</ele>
        <time>2022-08-08T08:29:44Z</time>
      </trkpt>
      <trkpt lat="44.3051" lon="3.64752">
        <ele>684.12</ele>
        <time>2022-08-08T08:29:58Z</time>
      </trkpt>
      <trkpt lat="44.30511" lon="3.64763">
        <ele>684.6</ele>
        <time>2022-08-08T08:30:07Z</time>
      </trkpt>
      <trkpt lat="44.30512" lon="3.64779">
        <ele>686.52</ele>
        <time>2022-08-08T08:30:18Z</time>
      </trkpt>
      <trkpt lat="44.30512" lon="3.64797">
        <ele>687.96</ele>
        <time>2022-08-08T08:30:32Z</time>
      </trkpt>
      <trkpt lat="44.30512" lon="3.64798">
        <ele>687.96</ele>
        <time>2022-08-08T08:30:33Z</time>
      </trkpt>
      <trkpt lat="44.30509" lon="3.64815">
        <ele>687.96</ele>
        <time>2022-08-08T08:30:48Z</time>
      </trkpt>
      <trkpt lat="44.30504" lon="3.64828">
        <ele>689.4</ele>
        <time>2022-08-08T08:30:59Z</time>
      </trkpt>
      <trkpt lat="44.30501" lon="3.64844">
        <ele>692.29</ele>
        <time>2022-08-08T08:31:12Z</time>
      </trkpt>
      <trkpt lat="44.30498" lon="3.64859">
        <ele>694.69</ele>
        <time>2022-08-08T08:31:25Z</time>
      </trkpt>
      <trkpt lat="44.3049" lon="3.64877">
        <ele>696.13</ele>
        <time>2022-08-08T08:31:40Z</time>
      </trkpt>
      <trkpt lat="44.30485" lon="3.64892">
        <ele>697.57</ele>
        <time>2022-08-08T08:31:54Z</time>
      </trkpt>
      <trkpt lat="44.3048" lon="3.64906">
        <ele>699.02</ele>
        <time>2022-08-08T08:32:07Z</time>
      </trkpt>
      <trkpt lat="44.30473" lon="3.64921">
        <ele>700.46</ele>
        <time>2022-08-08T08:32:20Z</time>
      </trkpt>
      <trkpt lat="44.30468" lon="3.64936">
        <ele>702.86</ele>
        <time>2022-08-08T08:32:34Z</time>
      </trkpt>
      <trkpt lat="44.30458" lon="3.64953">
        <ele>705.75</ele>
        <time>2022-08-08T08:32:50Z</time>
      </trkpt>
      <trkpt lat="44.30447" lon="3.64969">
        <ele>705.26</ele>
        <time>2022-08-08T08:33:03Z</time>
      </trkpt>
      <trkpt lat="44.30438" lon="3.64986">
        <ele>704.78</ele>
        <time>2022-08-08T08:33:16Z</time>
      </trkpt>
      <trkpt lat="44.30428" lon="3.65002">
        <ele>702.86</ele>
        <time>2022-08-08T08:33:29Z</time>
      </trkpt>
      <trkpt lat="44.30419" lon="3.65015">
        <ele>700.46</ele>
        <time>2022-08-08T08:33:40Z</time>
      </trkpt>
      <trkpt lat="44.30416" lon="3.65019">
        <ele>699.98</ele>
        <time>2022-08-08T08:33:44Z</time>
      </trkpt>
      <trkpt lat="44.30402" lon="3.65033">
        <ele>699.02</ele>
        <time>2022-08-08T08:33:59Z</time>
      </trkpt>
      <trkpt lat="44.30386" lon="3.6504">
        <ele>696.13</ele>
        <time>2022-08-08T08:34:14Z</time>
      </trkpt>
      <trkpt lat="44.30368" lon="3.6505">
        <ele>694.21</ele>
        <time>2022-08-08T08:34:30Z</time>
      </trkpt>
      <trkpt lat="44.30356" lon="3.65058">
        <ele>695.65</ele>
        <time>2022-08-08T08:34:43Z</time>
      </trkpt>
      <trkpt lat="44.30344" lon="3.65068">
        <ele>698.53</ele>
        <time>2022-08-08T08:34:57Z</time>
      </trkpt>
      <trkpt lat="44.30331" lon="3.65079">
        <ele>699.02</ele>
        <time>2022-08-08T08:35:11Z</time>
      </trkpt>
      <trkpt lat="44.30322" lon="3.65096">
        <ele>700.46</ele>
        <time>2022-08-08T08:35:24Z</time>
      </trkpt>
      <trkpt lat="44.30312" lon="3.65111">
        <ele>701.9</ele>
        <time>2022-08-08T08:35:37Z</time>
      </trkpt>
      <trkpt lat="44.303" lon="3.65129">
        <ele>702.86</ele>
        <time>2022-08-08T08:35:52Z</time>
      </trkpt>
      <trkpt lat="44.30287" lon="3.65146">
        <ele>702.38</ele>
        <time>2022-08-08T08:36:09Z</time>
      </trkpt>
      <trkpt lat="44.30266" lon="3.65154">
        <ele>702.38</ele>
        <time>2022-08-08T08:36:27Z</time>
      </trkpt>
      <trkpt lat="44.30267" lon="3.65173">
        <ele>697.09</ele>
        <time>2022-08-08T08:36:42Z</time>
      </trkpt>
      <trkpt lat="44.30267" lon="3.65191">
        <ele>700.46</ele>
        <time>2022-08-08T08:36:55Z</time>
      </trkpt>
      <trkpt lat="44.30272" lon="3.65205">
        <ele>703.34</ele>
        <time>2022-08-08T08:37:08Z</time>
      </trkpt>
      <trkpt lat="44.30266" lon="3.65228">
        <ele>704.3</ele>
        <time>2022-08-08T08:37:24Z</time>
      </trkpt>
      <trkpt lat="44.30267" lon="3.65248">
        <ele>706.71</ele>
        <time>2022-08-08T08:37:38Z</time>
      </trkpt>
      <trkpt lat="44.30269" lon="3.65267">
        <ele>708.15</ele>
        <time>2022-08-08T08:37:55Z</time>
      </trkpt>
      <trkpt lat="44.3027" lon="3.65283">
        <ele>708.15</ele>
        <time>2022-08-08T08:38:12Z</time>
      </trkpt>
      <trkpt lat="44.30268" lon="3.65298">
        <ele>713.44</ele>
        <time>2022-08-08T08:38:27Z</time>
      </trkpt>
      <trkpt lat="44.30268" lon="3.65312">
        <ele>716.8</ele>
        <time>2022-08-08T08:38:41Z</time>
      </trkpt>
      <trkpt lat="44.30271" lon="3.65314">
        <ele>720.16</ele>
        <time>2022-08-08T08:38:58Z</time>
      </trkpt>
      <trkpt lat="44.3028" lon="3.65315">
        <ele>719.2</ele>
        <time>2022-08-08T08:39:25Z</time>
      </trkpt>
      <trkpt lat="44.30277" lon="3.65308">
        <ele>719.2</ele>
        <time>2022-08-08T08:39:48Z</time>
      </trkpt>
      <trkpt lat="44.30269" lon="3.65312">
        <ele>719.68</ele>
        <time>2022-08-08T08:40:08Z</time>
      </trkpt>
      <trkpt lat="44.30267" lon="3.65311">
        <ele>720.16</ele>
        <time>2022-08-08T08:40:40Z</time>
      </trkpt>
      <trkpt lat="44.30268" lon="3.65313">
        <ele>720.65</ele>
        <time>2022-08-08T08:41:11Z</time>
      </trkpt>
      <trkpt lat="44.30274" lon="3.65313">
        <ele>724.49</ele>
        <time>2022-08-08T08:41:31Z</time>
      </trkpt>
      <trkpt lat="44.3028" lon="3.6532">
        <ele>723.53</ele>
        <time>2022-08-08T08:41:54Z</time>
      </trkpt>
      <trkpt lat="44.30281" lon="3.65324">
        <ele>724.49</ele>
        <time>2022-08-08T08:42:11Z</time>
      </trkpt>
      <trkpt lat="44.30283" lon="3.65329">
        <ele>724.01</ele>
        <time>2022-08-08T08:42:19Z</time>
      </trkpt>
      <trkpt lat="44.30288" lon="3.65337">
        <ele>720.65</ele>
        <time>2022-08-08T08:42:31Z</time>
      </trkpt>
      <trkpt lat="44.30302" lon="3.65348">
        <ele>717.76</ele>
        <time>2022-08-08T08:42:44Z</time>
      </trkpt>
      <trkpt lat="44.30312" lon="3.65355">
        <ele>714.4</ele>
        <time>2022-08-08T08:42:53Z</time>
      </trkpt>
      <trkpt lat="44.30319" lon="3.6537">
        <ele>706.23</ele>
        <time>2022-08-08T08:43:08Z</time>
      </trkpt>
      <trkpt lat="44.30328" lon="3.65386">
        <ele>700.94</ele>
        <time>2022-08-08T08:43:19Z</time>
      </trkpt>
      <trkpt lat="44.30339" lon="3.65398">
        <ele>694.69</ele>
        <time>2022-08-08T08:43:32Z</time>
      </trkpt>
      <trkpt lat="44.30341" lon="3.65404">
        <ele>692.77</ele>
        <time>2022-08-08T08:43:37Z</time>
      </trkpt>
      <trkpt lat="44.30351" lon="3.65415">
        <ele>687.48</ele>
        <time>2022-08-08T08:43:52Z</time>
      </trkpt>
      <trkpt lat="44.30355" lon="3.65435">
        <ele>691.33</ele>
        <time>2022-08-08T08:44:03Z</time>
      </trkpt>
      <trkpt lat="44.30361" lon="3.65454">
        <ele>693.25</ele>
        <time>2022-08-08T08:44:15Z</time>
      </trkpt>
      <trkpt lat="44.3037" lon="3.65474">
        <ele>696.13</ele>
        <time>2022-08-08T08:44:29Z</time>
      </trkpt>
      <trkpt lat="44.30377" lon="3.65494">
        <ele>694.69</ele>
        <time>2022-08-08T08:44:42Z</time>
      </trkpt>
      <trkpt lat="44.30386" lon="3.65514">
        <ele>690.84</ele>
        <time>2022-08-08T08:44:56Z</time>
      </trkpt>
      <trkpt lat="44.30397" lon="3.65531">
        <ele>689.4</ele>
        <time>2022-08-08T08:45:10Z</time>
      </trkpt>
      <trkpt lat="44.30403" lon="3.65539">
        <ele>688.92</ele>
        <time>2022-08-08T08:45:17Z</time>
      </trkpt>
      <trkpt lat="44.30405" lon="3.65544">
        <ele>688.44</ele>
        <time>2022-08-08T08:45:21Z</time>
      </trkpt>
      <trkpt lat="44.30416" lon="3.6556">
        <ele>688.44</ele>
        <time>2022-08-08T08:45:34Z</time>
      </trkpt>
      <trkpt lat="44.30424" lon="3.65572">
        <ele>687.48</ele>
        <time>2022-08-08T08:45:45Z</time>
      </trkpt>
      <trkpt lat="44.30428" lon="3.65577">
        <ele>687.48</ele>
        <time>2022-08-08T08:45:50Z</time>
      </trkpt>
      <trkpt lat="44.30437" lon="3.65587">
        <ele>686.52</ele>
        <time>2022-08-08T08:45:59Z</time>
      </trkpt>
      <trkpt lat="44.3045" lon="3.65607">
        <ele>687</ele>
        <time>2022-08-08T08:46:15Z</time>
      </trkpt>
      <trkpt lat="44.30456" lon="3.65624">
        <ele>686.04</ele>
        <time>2022-08-08T08:46:28Z</time>
      </trkpt>
      <trkpt lat="44.30457" lon="3.65643">
        <ele>683.63</ele>
        <time>2022-08-08T08:46:41Z</time>
      </trkpt>
      <trkpt lat="44.30458" lon="3.65651">
        <ele>683.15</ele>
        <time>2022-08-08T08:46:48Z</time>
      </trkpt>
      <trkpt lat="44.30459" lon="3.65656">
        <ele>682.67</ele>
        <time>2022-08-08T08:46:51Z</time>
      </trkpt>
      <trkpt lat="44.30461" lon="3.65673">
        <ele>682.19</ele>
        <time>2022-08-08T08:47:01Z</time>
      </trkpt>
      <trkpt lat="44.30465" lon="3.65698">
        <ele>682.67</ele>
        <time>2022-08-08T08:47:16Z</time>
      </trkpt>
      <trkpt lat="44.30463" lon="3.65719">
        <ele>682.67</ele>
        <time>2022-08-08T08:47:29Z</time>
      </trkpt>
      <trkpt lat="44.3046" lon="3.65741">
        <ele>681.71</ele>
        <time>2022-08-08T08:47:43Z</time>
      </trkpt>
      <trkpt lat="44.30455" lon="3.65762">
        <ele>680.75</ele>
        <time>2022-08-08T08:47:56Z</time>
      </trkpt>
      <trkpt lat="44.30447" lon="3.65778">
        <ele>679.79</ele>
        <time>2022-08-08T08:48:08Z</time>
      </trkpt>
      <trkpt lat="44.30439" lon="3.65797">
        <ele>677.87</ele>
        <time>2022-08-08T08:48:21Z</time>
      </trkpt>
      <trkpt lat="44.30437" lon="3.658">
        <ele>677.39</ele>
        <time>2022-08-08T08:48:24Z</time>
      </trkpt>
      <trkpt lat="44.3042" lon="3.65815">
        <ele>676.91</ele>
        <time>2022-08-08T08:48:40Z</time>
      </trkpt>
      <trkpt lat="44.30409" lon="3.65829">
        <ele>675.94</ele>
        <time>2022-08-08T08:48:54Z</time>
      </trkpt>
      <trkpt lat="44.30399" lon="3.6585">
        <ele>672.1</ele>
        <time>2022-08-08T08:49:09Z</time>
      </trkpt>
      <trkpt lat="44.30394" lon="3.65867">
        <ele>672.58</ele>
        <time>2022-08-08T08:49:21Z</time>
      </trkpt>
      <trkpt lat="44.30382" lon="3.6589">
        <ele>668.25</ele>
        <time>2022-08-08T08:49:37Z</time>
      </trkpt>
      <trkpt lat="44.30373" lon="3.65906">
        <ele>665.37</ele>
        <time>2022-08-08T08:49:51Z</time>
      </trkpt>
      <trkpt lat="44.30362" lon="3.65928">
        <ele>665.85</ele>
        <time>2022-08-08T08:50:08Z</time>
      </trkpt>
      <trkpt lat="44.30356" lon="3.65952">
        <ele>662.49</ele>
        <time>2022-08-08T08:50:25Z</time>
      </trkpt>
      <trkpt lat="44.30349" lon="3.65971">
        <ele>660.08</ele>
        <time>2022-08-08T08:50:38Z</time>
      </trkpt>
      <trkpt lat="44.30344" lon="3.65988">
        <ele>656.24</ele>
        <time>2022-08-08T08:50:50Z</time>
      </trkpt>
      <trkpt lat="44.30339" lon="3.66011">
        <ele>652.87</ele>
        <time>2022-08-08T08:51:04Z</time>
      </trkpt>
      <trkpt lat="44.30334" lon="3.66027">
        <ele>649.99</ele>
        <time>2022-08-08T08:51:16Z</time>
      </trkpt>
      <trkpt lat="44.30326" lon="3.66048">
        <ele>645.18</ele>
        <time>2022-08-08T08:51:31Z</time>
      </trkpt>
      <trkpt lat="44.30318" lon="3.66064">
        <ele>642.78</ele>
        <time>2022-08-08T08:51:43Z</time>
      </trkpt>
      <trkpt lat="44.30308" lon="3.66086">
        <ele>642.3</ele>
        <time>2022-08-08T08:51:59Z</time>
      </trkpt>
      <trkpt lat="44.30299" lon="3.66106">
        <ele>641.82</ele>
        <time>2022-08-08T08:52:14Z</time>
      </trkpt>
      <trkpt lat="44.30289" lon="3.66128">
        <ele>637.01</ele>
        <time>2022-08-08T08:52:29Z</time>
      </trkpt>
      <trkpt lat="44.30281" lon="3.66146">
        <ele>635.09</ele>
        <time>2022-08-08T08:52:44Z</time>
      </trkpt>
      <trkpt lat="44.30275" lon="3.66167">
        <ele>636.05</ele>
        <time>2022-08-08T08:53:00Z</time>
      </trkpt>
      <trkpt lat="44.30266" lon="3.66189">
        <ele>634.61</ele>
        <time>2022-08-08T08:53:13Z</time>
      </trkpt>
      <trkpt lat="44.30259" lon="3.66206">
        <ele>631.24</ele>
        <time>2022-08-08T08:53:27Z</time>
      </trkpt>
      <trkpt lat="44.30252" lon="3.66221">
        <ele>628.36</ele>
        <time>2022-08-08T08:53:41Z</time>
      </trkpt>
      <trkpt lat="44.30239" lon="3.66237">
        <ele>624.03</ele>
        <time>2022-08-08T08:53:56Z</time>
      </trkpt>
      <trkpt lat="44.30227" lon="3.66259">
        <ele>617.3</ele>
        <time>2022-08-08T08:54:14Z</time>
      </trkpt>
      <trkpt lat="44.30215" lon="3.6628">
        <ele>616.82</ele>
        <time>2022-08-08T08:54:29Z</time>
      </trkpt>
      <trkpt lat="44.30208" lon="3.663">
        <ele>616.34</ele>
        <time>2022-08-08T08:54:45Z</time>
      </trkpt>
      <trkpt lat="44.30208" lon="3.66303">
        <ele>616.34</ele>
        <time>2022-08-08T08:54:46Z</time>
      </trkpt>
      <trkpt lat="44.30212" lon="3.66307">
        <ele>614.9</ele>
        <time>2022-08-08T08:54:51Z</time>
      </trkpt>
      <trkpt lat="44.30219" lon="3.66307">
        <ele>614.42</ele>
        <time>2022-08-08T08:55:02Z</time>
      </trkpt>
      <trkpt lat="44.30234" lon="3.66304">
        <ele>613.94</ele>
        <time>2022-08-08T08:55:17Z</time>
      </trkpt>
      <trkpt lat="44.30236" lon="3.66301">
        <ele>613.94</ele>
        <time>2022-08-08T08:55:37Z</time>
      </trkpt>
      <trkpt lat="44.30232" lon="3.66305">
        <ele>609.13</ele>
        <time>2022-08-08T08:56:00Z</time>
      </trkpt>
      <trkpt lat="44.30236" lon="3.66296">
        <ele>609.13</ele>
        <time>2022-08-08T08:56:15Z</time>
      </trkpt>
      <trkpt lat="44.30242" lon="3.66291">
        <ele>609.13</ele>
        <time>2022-08-08T08:56:22Z</time>
      </trkpt>
      <trkpt lat="44.30247" lon="3.66286">
        <ele>609.13</ele>
        <time>2022-08-08T08:56:28Z</time>
      </trkpt>
      <trkpt lat="44.30251" lon="3.6629">
        <ele>609.61</ele>
        <time>2022-08-08T08:56:39Z</time>
      </trkpt>
      <trkpt lat="44.30238" lon="3.66307">
        <ele>609.61</ele>
        <time>2022-08-08T08:56:54Z</time>
      </trkpt>
      <trkpt lat="44.30232" lon="3.66322">
        <ele>613.94</ele>
        <time>2022-08-08T08:57:05Z</time>
      </trkpt>
      <trkpt lat="44.30231" lon="3.66329">
        <ele>614.9</ele>
        <time>2022-08-08T08:57:09Z</time>
      </trkpt>
      <trkpt lat="44.30216" lon="3.66343">
        <ele>616.82</ele>
        <time>2022-08-08T08:57:24Z</time>
      </trkpt>
      <trkpt lat="44.302" lon="3.66351">
        <ele>617.3</ele>
        <time>2022-08-08T08:57:38Z</time>
      </trkpt>
      <trkpt lat="44.30196" lon="3.66352">
        <ele>617.78</ele>
        <time>2022-08-08T08:57:42Z</time>
      </trkpt>
      <trkpt lat="44.30179" lon="3.66351">
        <ele>618.75</ele>
        <time>2022-08-08T08:57:56Z</time>
      </trkpt>
      <trkpt lat="44.30167" lon="3.66349">
        <ele>619.23</ele>
        <time>2022-08-08T08:58:08Z</time>
      </trkpt>
      <trkpt lat="44.30161" lon="3.66347">
        <ele>619.23</ele>
        <time>2022-08-08T08:58:13Z</time>
      </trkpt>
      <trkpt lat="44.30146" lon="3.66341">
        <ele>619.23</ele>
        <time>2022-08-08T08:58:27Z</time>
      </trkpt>
      <trkpt lat="44.30139" lon="3.66336">
        <ele>619.23</ele>
        <time>2022-08-08T08:58:34Z</time>
      </trkpt>
      <trkpt lat="44.30132" lon="3.66337">
        <ele>619.71</ele>
        <time>2022-08-08T08:58:40Z</time>
      </trkpt>
      <trkpt lat="44.30124" lon="3.66349">
        <ele>619.23</ele>
        <time>2022-08-08T08:58:54Z</time>
      </trkpt>
      <trkpt lat="44.30121" lon="3.66354">
        <ele>618.26</ele>
        <time>2022-08-08T08:59:13Z</time>
      </trkpt>
      <trkpt lat="44.30113" lon="3.66372">
        <ele>616.34</ele>
        <time>2022-08-08T08:59:28Z</time>
      </trkpt>
      <trkpt lat="44.30106" lon="3.66383">
        <ele>614.9</ele>
        <time>2022-08-08T08:59:38Z</time>
      </trkpt>
      <trkpt lat="44.30098" lon="3.66388">
        <ele>613.94</ele>
        <time>2022-08-08T08:59:48Z</time>
      </trkpt>
      <trkpt lat="44.30083" lon="3.6638">
        <ele>614.42</ele>
        <time>2022-08-08T09:00:04Z</time>
      </trkpt>
      <trkpt lat="44.30071" lon="3.66374">
        <ele>613.46</ele>
        <time>2022-08-08T09:00:18Z</time>
      </trkpt>
      <trkpt lat="44.30056" lon="3.66371">
        <ele>611.54</ele>
        <time>2022-08-08T09:00:32Z</time>
      </trkpt>
      <trkpt lat="44.30045" lon="3.66375">
        <ele>609.61</ele>
        <time>2022-08-08T09:00:44Z</time>
      </trkpt>
      <trkpt lat="44.30041" lon="3.66376">
        <ele>610.09</ele>
        <time>2022-08-08T09:00:47Z</time>
      </trkpt>
      <trkpt lat="44.30036" lon="3.66382">
        <ele>609.61</ele>
        <time>2022-08-08T09:01:02Z</time>
      </trkpt>
      <trkpt lat="44.30038" lon="3.66386">
        <ele>608.65</ele>
        <time>2022-08-08T09:01:22Z</time>
      </trkpt>
      <trkpt lat="44.30042" lon="3.66388">
        <ele>610.57</ele>
        <time>2022-08-08T09:01:47Z</time>
      </trkpt>
      <trkpt lat="44.30038" lon="3.66391">
        <ele>612.02</ele>
        <time>2022-08-08T09:02:21Z</time>
      </trkpt>
      <trkpt lat="44.30045" lon="3.66391">
        <ele>612.98</ele>
        <time>2022-08-08T09:02:48Z</time>
      </trkpt>
      <trkpt lat="44.30043" lon="3.66386">
        <ele>612.98</ele>
        <time>2022-08-08T09:03:08Z</time>
      </trkpt>
      <trkpt lat="44.30045" lon="3.6638">
        <ele>612.02</ele>
        <time>2022-08-08T09:03:29Z</time>
      </trkpt>
      <trkpt lat="44.3004" lon="3.66381">
        <ele>612.98</ele>
        <time>2022-08-08T09:03:53Z</time>
      </trkpt>
      <trkpt lat="44.30032" lon="3.66397">
        <ele>621.63</ele>
        <time>2022-08-08T09:04:15Z</time>
      </trkpt>
      <trkpt lat="44.30034" lon="3.6639">
        <ele>618.75</ele>
        <time>2022-08-08T09:04:49Z</time>
      </trkpt>
      <trkpt lat="44.30037" lon="3.66386">
        <ele>621.15</ele>
        <time>2022-08-08T09:05:23Z</time>
      </trkpt>
      <trkpt lat="44.30028" lon="3.66388">
        <ele>620.19</ele>
        <time>2022-08-08T09:05:30Z</time>
      </trkpt>
      <trkpt lat="44.30024" lon="3.66389">
        <ele>619.71</ele>
        <time>2022-08-08T09:05:33Z</time>
      </trkpt>
      <trkpt lat="44.3002" lon="3.6639">
        <ele>619.23</ele>
        <time>2022-08-08T09:05:36Z</time>
      </trkpt>
      <trkpt lat="44.29994" lon="3.66389">
        <ele>629.32</ele>
        <time>2022-08-08T09:05:53Z</time>
      </trkpt>
      <trkpt lat="44.29978" lon="3.66401">
        <ele>628.36</ele>
        <time>2022-08-08T09:06:09Z</time>
      </trkpt>
      <trkpt lat="44.29974" lon="3.66405">
        <ele>628.36</ele>
        <time>2022-08-08T09:06:13Z</time>
      </trkpt>
      <trkpt lat="44.29969" lon="3.6641">
        <ele>627.4</ele>
        <time>2022-08-08T09:06:20Z</time>
      </trkpt>
      <trkpt lat="44.29967" lon="3.66411">
        <ele>626.44</ele>
        <time>2022-08-08T09:06:22Z</time>
      </trkpt>
      <trkpt lat="44.29961" lon="3.66417">
        <ele>624.51</ele>
        <time>2022-08-08T09:06:29Z</time>
      </trkpt>
      <trkpt lat="44.29953" lon="3.66422">
        <ele>622.59</ele>
        <time>2022-08-08T09:06:36Z</time>
      </trkpt>
      <trkpt lat="44.29942" lon="3.66432">
        <ele>622.11</ele>
        <time>2022-08-08T09:06:47Z</time>
      </trkpt>
      <trkpt lat="44.29938" lon="3.66435">
        <ele>622.59</ele>
        <time>2022-08-08T09:06:51Z</time>
      </trkpt>
      <trkpt lat="44.29925" lon="3.66442">
        <ele>622.11</ele>
        <time>2022-08-08T09:07:03Z</time>
      </trkpt>
      <trkpt lat="44.29914" lon="3.66453">
        <ele>620.19</ele>
        <time>2022-08-08T09:07:17Z</time>
      </trkpt>
      <trkpt lat="44.29902" lon="3.66462">
        <ele>616.82</ele>
        <time>2022-08-08T09:07:31Z</time>
      </trkpt>
      <trkpt lat="44.29884" lon="3.66472">
        <ele>614.42</ele>
        <time>2022-08-08T09:07:45Z</time>
      </trkpt>
      <trkpt lat="44.29881" lon="3.66473">
        <ele>613.94</ele>
        <time>2022-08-08T09:07:54Z</time>
      </trkpt>
      <trkpt lat="44.29868" lon="3.66476">
        <ele>614.42</ele>
        <time>2022-08-08T09:08:08Z</time>
      </trkpt>
      <trkpt lat="44.29854" lon="3.66483">
        <ele>621.63</ele>
        <time>2022-08-08T09:08:23Z</time>
      </trkpt>
      <trkpt lat="44.29851" lon="3.66487">
        <ele>621.63</ele>
        <time>2022-08-08T09:08:39Z</time>
      </trkpt>
      <trkpt lat="44.29843" lon="3.6649">
        <ele>622.11</ele>
        <time>2022-08-08T09:08:45Z</time>
      </trkpt>
      <trkpt lat="44.29824" lon="3.66502">
        <ele>624.03</ele>
        <time>2022-08-08T09:09:01Z</time>
      </trkpt>
      <trkpt lat="44.29808" lon="3.66518">
        <ele>624.99</ele>
        <time>2022-08-08T09:09:16Z</time>
      </trkpt>
      <trkpt lat="44.29798" lon="3.66534">
        <ele>624.51</ele>
        <time>2022-08-08T09:09:29Z</time>
      </trkpt>
      <trkpt lat="44.29794" lon="3.66544">
        <ele>623.55</ele>
        <time>2022-08-08T09:09:36Z</time>
      </trkpt>
      <trkpt lat="44.29793" lon="3.66549">
        <ele>622.59</ele>
        <time>2022-08-08T09:09:39Z</time>
      </trkpt>
      <trkpt lat="44.29783" lon="3.66576">
        <ele>622.59</ele>
        <time>2022-08-08T09:09:56Z</time>
      </trkpt>
      <trkpt lat="44.29781" lon="3.66583">
        <ele>623.07</ele>
        <time>2022-08-08T09:10:00Z</time>
      </trkpt>
      <trkpt lat="44.29776" lon="3.66609">
        <ele>624.51</ele>
        <time>2022-08-08T09:10:16Z</time>
      </trkpt>
      <trkpt lat="44.29775" lon="3.66637">
        <ele>619.23</ele>
        <time>2022-08-08T09:10:31Z</time>
      </trkpt>
      <trkpt lat="44.29775" lon="3.66651">
        <ele>619.23</ele>
        <time>2022-08-08T09:10:44Z</time>
      </trkpt>
      <trkpt lat="44.29773" lon="3.66657">
        <ele>619.23</ele>
        <time>2022-08-08T09:10:50Z</time>
      </trkpt>
      <trkpt lat="44.29772" lon="3.66678">
        <ele>617.78</ele>
        <time>2022-08-08T09:11:05Z</time>
      </trkpt>
      <trkpt lat="44.29769" lon="3.667">
        <ele>618.26</ele>
        <time>2022-08-08T09:11:19Z</time>
      </trkpt>
      <trkpt lat="44.29766" lon="3.66728">
        <ele>619.23</ele>
        <time>2022-08-08T09:11:36Z</time>
      </trkpt>
      <trkpt lat="44.29765" lon="3.6674">
        <ele>621.15</ele>
        <time>2022-08-08T09:11:43Z</time>
      </trkpt>
      <trkpt lat="44.29763" lon="3.66748">
        <ele>621.15</ele>
        <time>2022-08-08T09:11:48Z</time>
      </trkpt>
      <trkpt lat="44.29762" lon="3.66771">
        <ele>619.23</ele>
        <time>2022-08-08T09:12:01Z</time>
      </trkpt>
      <trkpt lat="44.29759" lon="3.66791">
        <ele>619.23</ele>
        <time>2022-08-08T09:12:14Z</time>
      </trkpt>
      <trkpt lat="44.29758" lon="3.6682">
        <ele>617.78</ele>
        <time>2022-08-08T09:12:29Z</time>
      </trkpt>
      <trkpt lat="44.29758" lon="3.66845">
        <ele>617.3</ele>
        <time>2022-08-08T09:12:44Z</time>
      </trkpt>
      <trkpt lat="44.29758" lon="3.66873">
        <ele>616.34</ele>
        <time>2022-08-08T09:13:01Z</time>
      </trkpt>
      <trkpt lat="44.29759" lon="3.66896">
        <ele>613.46</ele>
        <time>2022-08-08T09:13:16Z</time>
      </trkpt>
      <trkpt lat="44.29761" lon="3.66922">
        <ele>611.06</ele>
        <time>2022-08-08T09:13:33Z</time>
      </trkpt>
      <trkpt lat="44.29762" lon="3.66944">
        <ele>613.46</ele>
        <time>2022-08-08T09:13:46Z</time>
      </trkpt>
      <trkpt lat="44.29763" lon="3.66967">
        <ele>619.71</ele>
        <time>2022-08-08T09:13:59Z</time>
      </trkpt>
      <trkpt lat="44.29767" lon="3.66988">
        <ele>625.47</ele>
        <time>2022-08-08T09:14:13Z</time>
      </trkpt>
      <trkpt lat="44.2977" lon="3.66999">
        <ele>629.32</ele>
        <time>2022-08-08T09:14:20Z</time>
      </trkpt>
      <trkpt lat="44.29779" lon="3.67024">
        <ele>634.61</ele>
        <time>2022-08-08T09:14:36Z</time>
      </trkpt>
      <trkpt lat="44.29783" lon="3.67042">
        <ele>633.65</ele>
        <time>2022-08-08T09:14:49Z</time>
      </trkpt>
      <trkpt lat="44.29784" lon="3.67046">
        <ele>633.17</ele>
        <time>2022-08-08T09:14:51Z</time>
      </trkpt>
      <trkpt lat="44.29789" lon="3.6707">
        <ele>632.2</ele>
        <time>2022-08-08T09:15:06Z</time>
      </trkpt>
      <trkpt lat="44.29794" lon="3.67086">
        <ele>632.68</ele>
        <time>2022-08-08T09:15:18Z</time>
      </trkpt>
      <trkpt lat="44.29803" lon="3.67108">
        <ele>629.32</ele>
        <time>2022-08-08T09:15:31Z</time>
      </trkpt>
      <trkpt lat="44.29817" lon="3.6713">
        <ele>621.15</ele>
        <time>2022-08-08T09:15:48Z</time>
      </trkpt>
      <trkpt lat="44.29826" lon="3.67146">
        <ele>618.26</ele>
        <time>2022-08-08T09:16:02Z</time>
      </trkpt>
      <trkpt lat="44.29838" lon="3.67159">
        <ele>620.19</ele>
        <time>2022-08-08T09:16:16Z</time>
      </trkpt>
      <trkpt lat="44.29852" lon="3.67167">
        <ele>623.07</ele>
        <time>2022-08-08T09:16:31Z</time>
      </trkpt>
      <trkpt lat="44.29853" lon="3.67169">
        <ele>623.07</ele>
        <time>2022-08-08T09:16:33Z</time>
      </trkpt>
      <trkpt lat="44.29863" lon="3.67184">
        <ele>622.59</ele>
        <time>2022-08-08T09:16:45Z</time>
      </trkpt>
      <trkpt lat="44.2988" lon="3.672">
        <ele>624.51</ele>
        <time>2022-08-08T09:17:01Z</time>
      </trkpt>
      <trkpt lat="44.2989" lon="3.67211">
        <ele>627.88</ele>
        <time>2022-08-08T09:17:14Z</time>
      </trkpt>
      <trkpt lat="44.29902" lon="3.67226">
        <ele>629.8</ele>
        <time>2022-08-08T09:17:29Z</time>
      </trkpt>
      <trkpt lat="44.29909" lon="3.67246">
        <ele>632.2</ele>
        <time>2022-08-08T09:17:42Z</time>
      </trkpt>
      <trkpt lat="44.29912" lon="3.67253">
        <ele>632.68</ele>
        <time>2022-08-08T09:17:47Z</time>
      </trkpt>
      <trkpt lat="44.2992" lon="3.67274">
        <ele>635.09</ele>
        <time>2022-08-08T09:18:02Z</time>
      </trkpt>
      <trkpt lat="44.29925" lon="3.67297">
        <ele>638.93</ele>
        <time>2022-08-08T09:18:18Z</time>
      </trkpt>
      <trkpt lat="44.29926" lon="3.67299">
        <ele>639.41</ele>
        <time>2022-08-08T09:18:20Z</time>
      </trkpt>
      <trkpt lat="44.29928" lon="3.67304">
        <ele>639.41</ele>
        <time>2022-08-08T09:18:25Z</time>
      </trkpt>
      <trkpt lat="44.29932" lon="3.67319">
        <ele>636.53</ele>
        <time>2022-08-08T09:18:40Z</time>
      </trkpt>
      <trkpt lat="44.29929" lon="3.67337">
        <ele>635.57</ele>
        <time>2022-08-08T09:18:54Z</time>
      </trkpt>
      <trkpt lat="44.29929" lon="3.67348">
        <ele>637.49</ele>
        <time>2022-08-08T09:19:02Z</time>
      </trkpt>
      <trkpt lat="44.29926" lon="3.67365">
        <ele>641.82</ele>
        <time>2022-08-08T09:19:15Z</time>
      </trkpt>
      <trkpt lat="44.29924" lon="3.67379">
        <ele>648.55</ele>
        <time>2022-08-08T09:19:25Z</time>
      </trkpt>
      <trkpt lat="44.29915" lon="3.67397">
        <ele>655.76</ele>
        <time>2022-08-08T09:19:39Z</time>
      </trkpt>
      <trkpt lat="44.29914" lon="3.67418">
        <ele>659.6</ele>
        <time>2022-08-08T09:19:53Z</time>
      </trkpt>
      <trkpt lat="44.29915" lon="3.67427">
        <ele>659.6</ele>
        <time>2022-08-08T09:19:58Z</time>
      </trkpt>
      <trkpt lat="44.29919" lon="3.6745">
        <ele>658.64</ele>
        <time>2022-08-08T09:20:12Z</time>
      </trkpt>
      <trkpt lat="44.29924" lon="3.67474">
        <ele>657.68</ele>
        <time>2022-08-08T09:20:26Z</time>
      </trkpt>
      <trkpt lat="44.2992" lon="3.67508">
        <ele>641.82</ele>
        <time>2022-08-08T09:20:39Z</time>
      </trkpt>
      <trkpt lat="44.29924" lon="3.67518">
        <ele>639.41</ele>
        <time>2022-08-08T09:20:45Z</time>
      </trkpt>
      <trkpt lat="44.29928" lon="3.67535">
        <ele>635.57</ele>
        <time>2022-08-08T09:20:54Z</time>
      </trkpt>
      <trkpt lat="44.29932" lon="3.67547">
        <ele>633.65</ele>
        <time>2022-08-08T09:21:01Z</time>
      </trkpt>
      <trkpt lat="44.29933" lon="3.67551">
        <ele>633.65</ele>
        <time>2022-08-08T09:21:04Z</time>
      </trkpt>
      <trkpt lat="44.2994" lon="3.67574">
        <ele>633.65</ele>
        <time>2022-08-08T09:21:18Z</time>
      </trkpt>
      <trkpt lat="44.29947" lon="3.67596">
        <ele>632.68</ele>
        <time>2022-08-08T09:21:33Z</time>
      </trkpt>
      <trkpt lat="44.29954" lon="3.67617">
        <ele>631.72</ele>
        <time>2022-08-08T09:21:46Z</time>
      </trkpt>
      <trkpt lat="44.29963" lon="3.67638">
        <ele>630.28</ele>
        <time>2022-08-08T09:22:01Z</time>
      </trkpt>
      <trkpt lat="44.29964" lon="3.6764">
        <ele>630.28</ele>
        <time>2022-08-08T09:22:03Z</time>
      </trkpt>
      <trkpt lat="44.29972" lon="3.67655">
        <ele>629.8</ele>
        <time>2022-08-08T09:22:15Z</time>
      </trkpt>
      <trkpt lat="44.29978" lon="3.67664">
        <ele>630.28</ele>
        <time>2022-08-08T09:22:22Z</time>
      </trkpt>
      <trkpt lat="44.2999" lon="3.67682">
        <ele>631.24</ele>
        <time>2022-08-08T09:22:36Z</time>
      </trkpt>
      <trkpt lat="44.30001" lon="3.67698">
        <ele>632.2</ele>
        <time>2022-08-08T09:22:49Z</time>
      </trkpt>
      <trkpt lat="44.30009" lon="3.67717">
        <ele>631.72</ele>
        <time>2022-08-08T09:23:02Z</time>
      </trkpt>
      <trkpt lat="44.30009" lon="3.6772">
        <ele>631.72</ele>
        <time>2022-08-08T09:23:04Z</time>
      </trkpt>
      <trkpt lat="44.30015" lon="3.67738">
        <ele>629.8</ele>
        <time>2022-08-08T09:23:18Z</time>
      </trkpt>
      <trkpt lat="44.30015" lon="3.67741">
        <ele>629.8</ele>
        <time>2022-08-08T09:23:20Z</time>
      </trkpt>
      <trkpt lat="44.30015" lon="3.67758">
        <ele>630.76</ele>
        <time>2022-08-08T09:23:33Z</time>
      </trkpt>
      <trkpt lat="44.30019" lon="3.67779">
        <ele>633.65</ele>
        <time>2022-08-08T09:23:45Z</time>
      </trkpt>
      <trkpt lat="44.30022" lon="3.67803">
        <ele>632.2</ele>
        <time>2022-08-08T09:24:01Z</time>
      </trkpt>
      <trkpt lat="44.30019" lon="3.67827">
        <ele>632.2</ele>
        <time>2022-08-08T09:24:17Z</time>
      </trkpt>
      <trkpt lat="44.30013" lon="3.67849">
        <ele>636.05</ele>
        <time>2022-08-08T09:24:33Z</time>
      </trkpt>
      <trkpt lat="44.30004" lon="3.67864">
        <ele>637.49</ele>
        <time>2022-08-08T09:24:44Z</time>
      </trkpt>
      <trkpt lat="44.29996" lon="3.67881">
        <ele>637.97</ele>
        <time>2022-08-08T09:24:58Z</time>
      </trkpt>
      <trkpt lat="44.29995" lon="3.67883">
        <ele>637.97</ele>
        <time>2022-08-08T09:25:00Z</time>
      </trkpt>
      <trkpt lat="44.29989" lon="3.67894">
        <ele>637.97</ele>
        <time>2022-08-08T09:25:08Z</time>
      </trkpt>
      <trkpt lat="44.2998" lon="3.67913">
        <ele>638.45</ele>
        <time>2022-08-08T09:25:23Z</time>
      </trkpt>
      <trkpt lat="44.29967" lon="3.67928">
        <ele>642.3</ele>
        <time>2022-08-08T09:25:37Z</time>
      </trkpt>
      <trkpt lat="44.29957" lon="3.67946">
        <ele>643.26</ele>
        <time>2022-08-08T09:25:50Z</time>
      </trkpt>
      <trkpt lat="44.29955" lon="3.67953">
        <ele>641.82</ele>
        <time>2022-08-08T09:25:57Z</time>
      </trkpt>
      <trkpt lat="44.29939" lon="3.67975">
        <ele>642.3</ele>
        <time>2022-08-08T09:26:13Z</time>
      </trkpt>
      <trkpt lat="44.29934" lon="3.67983">
        <ele>642.3</ele>
        <time>2022-08-08T09:26:19Z</time>
      </trkpt>
      <trkpt lat="44.29934" lon="3.67985">
        <ele>642.3</ele>
        <time>2022-08-08T09:26:21Z</time>
      </trkpt>
      <trkpt lat="44.29922" lon="3.67996">
        <ele>644.7</ele>
        <time>2022-08-08T09:26:32Z</time>
      </trkpt>
      <trkpt lat="44.29915" lon="3.6801">
        <ele>647.59</ele>
        <time>2022-08-08T09:26:43Z</time>
      </trkpt>
      <trkpt lat="44.29915" lon="3.68015">
        <ele>648.55</ele>
        <time>2022-08-08T09:26:50Z</time>
      </trkpt>
      <trkpt lat="44.2991" lon="3.68078">
        <ele>648.07</ele>
        <time>2022-08-08T09:27:16Z</time>
      </trkpt>
      <trkpt lat="44.29905" lon="3.68088">
        <ele>647.59</ele>
        <time>2022-08-08T09:27:20Z</time>
      </trkpt>
      <trkpt lat="44.29896" lon="3.68092">
        <ele>644.7</ele>
        <time>2022-08-08T09:27:33Z</time>
      </trkpt>
      <trkpt lat="44.29888" lon="3.68106">
        <ele>640.38</ele>
        <time>2022-08-08T09:27:45Z</time>
      </trkpt>
      <trkpt lat="44.29881" lon="3.68121">
        <ele>637.49</ele>
        <time>2022-08-08T09:27:56Z</time>
      </trkpt>
      <trkpt lat="44.29881" lon="3.68129">
        <ele>637.97</ele>
        <time>2022-08-08T09:28:01Z</time>
      </trkpt>
      <trkpt lat="44.29884" lon="3.68143">
        <ele>637.49</ele>
        <time>2022-08-08T09:28:09Z</time>
      </trkpt>
      <trkpt lat="44.29876" lon="3.68165">
        <ele>637.01</ele>
        <time>2022-08-08T09:28:26Z</time>
      </trkpt>
      <trkpt lat="44.29869" lon="3.68184">
        <ele>637.49</ele>
        <time>2022-08-08T09:28:41Z</time>
      </trkpt>
      <trkpt lat="44.29868" lon="3.68189">
        <ele>638.45</ele>
        <time>2022-08-08T09:28:44Z</time>
      </trkpt>
      <trkpt lat="44.29856" lon="3.68203">
        <ele>647.59</ele>
        <time>2022-08-08T09:28:59Z</time>
      </trkpt>
      <trkpt lat="44.2985" lon="3.6821">
        <ele>651.91</ele>
        <time>2022-08-08T09:29:06Z</time>
      </trkpt>
      <trkpt lat="44.2984" lon="3.68214">
        <ele>650.95</ele>
        <time>2022-08-08T09:29:21Z</time>
      </trkpt>
      <trkpt lat="44.29855" lon="3.68236">
        <ele>646.62</ele>
        <time>2022-08-08T09:29:49Z</time>
      </trkpt>
      <trkpt lat="44.29853" lon="3.68241">
        <ele>646.14</ele>
        <time>2022-08-08T09:29:59Z</time>
      </trkpt>
      <trkpt lat="44.29845" lon="3.68256">
        <ele>648.55</ele>
        <time>2022-08-08T09:30:13Z</time>
      </trkpt>
      <trkpt lat="44.29835" lon="3.68268">
        <ele>651.91</ele>
        <time>2022-08-08T09:30:26Z</time>
      </trkpt>
      <trkpt lat="44.29825" lon="3.68284">
        <ele>656.24</ele>
        <time>2022-08-08T09:30:41Z</time>
      </trkpt>
      <trkpt lat="44.29807" lon="3.683">
        <ele>665.37</ele>
        <time>2022-08-08T09:30:57Z</time>
      </trkpt>
      <trkpt lat="44.29805" lon="3.68301">
        <ele>666.81</ele>
        <time>2022-08-08T09:30:59Z</time>
      </trkpt>
      <trkpt lat="44.29799" lon="3.68304">
        <ele>669.7</ele>
        <time>2022-08-08T09:31:04Z</time>
      </trkpt>
      <trkpt lat="44.29787" lon="3.68319">
        <ele>670.18</ele>
        <time>2022-08-08T09:31:18Z</time>
      </trkpt>
      <trkpt lat="44.2977" lon="3.68328">
        <ele>675.46</ele>
        <time>2022-08-08T09:31:32Z</time>
      </trkpt>
      <trkpt lat="44.29761" lon="3.68344">
        <ele>669.7</ele>
        <time>2022-08-08T09:31:47Z</time>
      </trkpt>
      <trkpt lat="44.29754" lon="3.6835">
        <ele>666.33</ele>
        <time>2022-08-08T09:32:00Z</time>
      </trkpt>
      <trkpt lat="44.29751" lon="3.6835">
        <ele>666.33</ele>
        <time>2022-08-08T09:32:02Z</time>
      </trkpt>
      <trkpt lat="44.29737" lon="3.68352">
        <ele>665.37</ele>
        <time>2022-08-08T09:32:16Z</time>
      </trkpt>
      <trkpt lat="44.29715" lon="3.68349">
        <ele>665.37</ele>
        <time>2022-08-08T09:32:31Z</time>
      </trkpt>
      <trkpt lat="44.29702" lon="3.68355">
        <ele>666.81</ele>
        <time>2022-08-08T09:32:42Z</time>
      </trkpt>
      <trkpt lat="44.29683" lon="3.68356">
        <ele>665.37</ele>
        <time>2022-08-08T09:32:57Z</time>
      </trkpt>
      <trkpt lat="44.29671" lon="3.6836">
        <ele>666.33</ele>
        <time>2022-08-08T09:33:10Z</time>
      </trkpt>
      <trkpt lat="44.29662" lon="3.68367">
        <ele>666.81</ele>
        <time>2022-08-08T09:33:24Z</time>
      </trkpt>
      <trkpt lat="44.29651" lon="3.68373">
        <ele>665.85</ele>
        <time>2022-08-08T09:33:37Z</time>
      </trkpt>
      <trkpt lat="44.29639" lon="3.68379">
        <ele>665.85</ele>
        <time>2022-08-08T09:33:50Z</time>
      </trkpt>
      <trkpt lat="44.29625" lon="3.68385">
        <ele>666.81</ele>
        <time>2022-08-08T09:34:02Z</time>
      </trkpt>
      <trkpt lat="44.29609" lon="3.68389">
        <ele>665.85</ele>
        <time>2022-08-08T09:34:14Z</time>
      </trkpt>
      <trkpt lat="44.29595" lon="3.68384">
        <ele>662.49</ele>
        <time>2022-08-08T09:34:30Z</time>
      </trkpt>
      <trkpt lat="44.29583" lon="3.68372">
        <ele>660.56</ele>
        <time>2022-08-08T09:34:44Z</time>
      </trkpt>
      <trkpt lat="44.29583" lon="3.68371">
        <ele>660.56</ele>
        <time>2022-08-08T09:34:45Z</time>
      </trkpt>
      <trkpt lat="44.29558" lon="3.68355">
        <ele>664.89</ele>
        <time>2022-08-08T09:35:02Z</time>
      </trkpt>
      <trkpt lat="44.29548" lon="3.68346">
        <ele>662.97</ele>
        <time>2022-08-08T09:35:16Z</time>
      </trkpt>
      <trkpt lat="44.29545" lon="3.68338">
        <ele>660.56</ele>
        <time>2022-08-08T09:35:29Z</time>
      </trkpt>
      <trkpt lat="44.29444" lon="3.68374">
        <ele>656.24</ele>
        <time>2022-08-08T09:36:41Z</time>
      </trkpt>
      <trkpt lat="44.29444" lon="3.68375">
        <ele>652.39</ele>
        <time>2022-08-08T09:36:42Z</time>
      </trkpt>
      <trkpt lat="44.29375" lon="3.68349">
        <ele>717.28</ele>
        <time>2022-08-08T09:36:59Z</time>
      </trkpt>
      <trkpt lat="44.29355" lon="3.68359">
        <ele>732.18</ele>
        <time>2022-08-08T09:37:14Z</time>
      </trkpt>
      <trkpt lat="44.29353" lon="3.6836">
        <ele>732.18</ele>
        <time>2022-08-08T09:37:16Z</time>
      </trkpt>
      <trkpt lat="44.29351" lon="3.68365">
        <ele>732.18</ele>
        <time>2022-08-08T09:37:19Z</time>
      </trkpt>
      <trkpt lat="44.29341" lon="3.68379">
        <ele>733.14</ele>
        <time>2022-08-08T09:37:32Z</time>
      </trkpt>
      <trkpt lat="44.29335" lon="3.68388">
        <ele>731.7</ele>
        <time>2022-08-08T09:37:42Z</time>
      </trkpt>
      <trkpt lat="44.29317" lon="3.68397">
        <ele>733.14</ele>
        <time>2022-08-08T09:37:56Z</time>
      </trkpt>
      <trkpt lat="44.29306" lon="3.68409">
        <ele>726.89</ele>
        <time>2022-08-08T09:38:10Z</time>
      </trkpt>
      <trkpt lat="44.29302" lon="3.68418">
        <ele>718.72</ele>
        <time>2022-08-08T09:38:19Z</time>
      </trkpt>
      <trkpt lat="44.29297" lon="3.6843">
        <ele>710.07</ele>
        <time>2022-08-08T09:38:32Z</time>
      </trkpt>
      <trkpt lat="44.29291" lon="3.6844">
        <ele>701.9</ele>
        <time>2022-08-08T09:38:44Z</time>
      </trkpt>
      <trkpt lat="44.29288" lon="3.68452">
        <ele>691.33</ele>
        <time>2022-08-08T09:38:57Z</time>
      </trkpt>
      <trkpt lat="44.29281" lon="3.6846">
        <ele>683.63</ele>
        <time>2022-08-08T09:39:11Z</time>
      </trkpt>
      <trkpt lat="44.29267" lon="3.6847">
        <ele>675.94</ele>
        <time>2022-08-08T09:39:24Z</time>
      </trkpt>
      <trkpt lat="44.29264" lon="3.68471">
        <ele>675.46</ele>
        <time>2022-08-08T09:39:26Z</time>
      </trkpt>
      <trkpt lat="44.2925" lon="3.68483">
        <ele>671.62</ele>
        <time>2022-08-08T09:39:38Z</time>
      </trkpt>
      <trkpt lat="44.29242" lon="3.68499">
        <ele>663.45</ele>
        <time>2022-08-08T09:39:47Z</time>
      </trkpt>
      <trkpt lat="44.29235" lon="3.68522">
        <ele>656.24</ele>
        <time>2022-08-08T09:40:03Z</time>
      </trkpt>
      <trkpt lat="44.29234" lon="3.68529">
        <ele>654.31</ele>
        <time>2022-08-08T09:40:08Z</time>
      </trkpt>
      <trkpt lat="44.29231" lon="3.68555">
        <ele>649.99</ele>
        <time>2022-08-08T09:40:23Z</time>
      </trkpt>
      <trkpt lat="44.29226" lon="3.68578">
        <ele>648.55</ele>
        <time>2022-08-08T09:40:38Z</time>
      </trkpt>
      <trkpt lat="44.29225" lon="3.68586">
        <ele>648.55</ele>
        <time>2022-08-08T09:40:43Z</time>
      </trkpt>
      <trkpt lat="44.29226" lon="3.68595">
        <ele>649.51</ele>
        <time>2022-08-08T09:40:48Z</time>
      </trkpt>
      <trkpt lat="44.29229" lon="3.68604">
        <ele>650.95</ele>
        <time>2022-08-08T09:40:53Z</time>
      </trkpt>
      <trkpt lat="44.29229" lon="3.68626">
        <ele>650.95</ele>
        <time>2022-08-08T09:41:07Z</time>
      </trkpt>
      <trkpt lat="44.29229" lon="3.68628">
        <ele>651.43</ele>
        <time>2022-08-08T09:41:08Z</time>
      </trkpt>
      <trkpt lat="44.29227" lon="3.68637">
        <ele>651.43</ele>
        <time>2022-08-08T09:41:14Z</time>
      </trkpt>
      <trkpt lat="44.29222" lon="3.68657">
        <ele>652.39</ele>
        <time>2022-08-08T09:41:27Z</time>
      </trkpt>
      <trkpt lat="44.29221" lon="3.68662">
        <ele>652.87</ele>
        <time>2022-08-08T09:41:31Z</time>
      </trkpt>
      <trkpt lat="44.29215" lon="3.68673">
        <ele>654.8</ele>
        <time>2022-08-08T09:41:39Z</time>
      </trkpt>
      <trkpt lat="44.29205" lon="3.68701">
        <ele>654.8</ele>
        <time>2022-08-08T09:41:59Z</time>
      </trkpt>
      <trkpt lat="44.29204" lon="3.68703">
        <ele>654.8</ele>
        <time>2022-08-08T09:42:01Z</time>
      </trkpt>
      <trkpt lat="44.29195" lon="3.68718">
        <ele>654.8</ele>
        <time>2022-08-08T09:42:14Z</time>
      </trkpt>
      <trkpt lat="44.29186" lon="3.68729">
        <ele>653.83</ele>
        <time>2022-08-08T09:42:28Z</time>
      </trkpt>
      <trkpt lat="44.29178" lon="3.68742">
        <ele>653.35</ele>
        <time>2022-08-08T09:42:42Z</time>
      </trkpt>
      <trkpt lat="44.2917" lon="3.68753">
        <ele>653.35</ele>
        <time>2022-08-08T09:42:52Z</time>
      </trkpt>
      <trkpt lat="44.29162" lon="3.68765">
        <ele>652.87</ele>
        <time>2022-08-08T09:43:04Z</time>
      </trkpt>
      <trkpt lat="44.29146" lon="3.68772">
        <ele>652.87</ele>
        <time>2022-08-08T09:43:18Z</time>
      </trkpt>
      <trkpt lat="44.29132" lon="3.6878">
        <ele>652.39</ele>
        <time>2022-08-08T09:43:32Z</time>
      </trkpt>
      <trkpt lat="44.29121" lon="3.68787">
        <ele>651.43</ele>
        <time>2022-08-08T09:43:45Z</time>
      </trkpt>
      <trkpt lat="44.2911" lon="3.68794">
        <ele>650.95</ele>
        <time>2022-08-08T09:43:58Z</time>
      </trkpt>
      <trkpt lat="44.291" lon="3.688">
        <ele>649.99</ele>
        <time>2022-08-08T09:44:10Z</time>
      </trkpt>
      <trkpt lat="44.29088" lon="3.68811">
        <ele>648.07</ele>
        <time>2022-08-08T09:44:24Z</time>
      </trkpt>
      <trkpt lat="44.29076" lon="3.68817">
        <ele>646.62</ele>
        <time>2022-08-08T09:44:37Z</time>
      </trkpt>
      <trkpt lat="44.29059" lon="3.68822">
        <ele>646.14</ele>
        <time>2022-08-08T09:44:49Z</time>
      </trkpt>
      <trkpt lat="44.29038" lon="3.68836">
        <ele>645.18</ele>
        <time>2022-08-08T09:45:03Z</time>
      </trkpt>
      <trkpt lat="44.29029" lon="3.68852">
        <ele>647.1</ele>
        <time>2022-08-08T09:45:15Z</time>
      </trkpt>
      <trkpt lat="44.29016" lon="3.68865">
        <ele>650.47</ele>
        <time>2022-08-08T09:45:28Z</time>
      </trkpt>
      <trkpt lat="44.29007" lon="3.68869">
        <ele>651.91</ele>
        <time>2022-08-08T09:45:32Z</time>
      </trkpt>
      <trkpt lat="44.28991" lon="3.68885">
        <ele>655.76</ele>
        <time>2022-08-08T09:45:44Z</time>
      </trkpt>
      <trkpt lat="44.28973" lon="3.68901">
        <ele>656.72</ele>
        <time>2022-08-08T09:45:58Z</time>
      </trkpt>
      <trkpt lat="44.28949" lon="3.68912">
        <ele>658.64</ele>
        <time>2022-08-08T09:46:12Z</time>
      </trkpt>
      <trkpt lat="44.28934" lon="3.68929">
        <ele>661.04</ele>
        <time>2022-08-08T09:46:26Z</time>
      </trkpt>
      <trkpt lat="44.28923" lon="3.68941">
        <ele>662.01</ele>
        <time>2022-08-08T09:46:38Z</time>
      </trkpt>
      <trkpt lat="44.28911" lon="3.68954">
        <ele>662.49</ele>
        <time>2022-08-08T09:46:55Z</time>
      </trkpt>
      <trkpt lat="44.28902" lon="3.6896">
        <ele>660.56</ele>
        <time>2022-08-08T09:47:09Z</time>
      </trkpt>
      <trkpt lat="44.28893" lon="3.68964">
        <ele>659.6</ele>
        <time>2022-08-08T09:47:23Z</time>
      </trkpt>
      <trkpt lat="44.28883" lon="3.68962">
        <ele>660.56</ele>
        <time>2022-08-08T09:47:35Z</time>
      </trkpt>
      <trkpt lat="44.28867" lon="3.68955">
        <ele>661.04</ele>
        <time>2022-08-08T09:47:49Z</time>
      </trkpt>
      <trkpt lat="44.28865" lon="3.68952">
        <ele>661.52</ele>
        <time>2022-08-08T09:47:52Z</time>
      </trkpt>
      <trkpt lat="44.28861" lon="3.68949">
        <ele>661.52</ele>
        <time>2022-08-08T09:47:59Z</time>
      </trkpt>
      <trkpt lat="44.28842" lon="3.68935">
        <ele>662.49</ele>
        <time>2022-08-08T09:48:14Z</time>
      </trkpt>
      <trkpt lat="44.28836" lon="3.68933">
        <ele>662.97</ele>
        <time>2022-08-08T09:48:18Z</time>
      </trkpt>
      <trkpt lat="44.28821" lon="3.68926">
        <ele>662.97</ele>
        <time>2022-08-08T09:48:30Z</time>
      </trkpt>
      <trkpt lat="44.28806" lon="3.68918">
        <ele>663.45</ele>
        <time>2022-08-08T09:48:41Z</time>
      </trkpt>
      <trkpt lat="44.28782" lon="3.68921">
        <ele>661.52</ele>
        <time>2022-08-08T09:48:55Z</time>
      </trkpt>
      <trkpt lat="44.28762" lon="3.6893">
        <ele>659.6</ele>
        <time>2022-08-08T09:49:10Z</time>
      </trkpt>
      <trkpt lat="44.2875" lon="3.68935">
        <ele>659.6</ele>
        <time>2022-08-08T09:49:19Z</time>
      </trkpt>
      <trkpt lat="44.28731" lon="3.68943">
        <ele>658.64</ele>
        <time>2022-08-08T09:49:34Z</time>
      </trkpt>
      <trkpt lat="44.28716" lon="3.68952">
        <ele>658.64</ele>
        <time>2022-08-08T09:49:46Z</time>
      </trkpt>
      <trkpt lat="44.287" lon="3.68962">
        <ele>658.64</ele>
        <time>2022-08-08T09:49:59Z</time>
      </trkpt>
      <trkpt lat="44.28699" lon="3.68963">
        <ele>658.64</ele>
        <time>2022-08-08T09:50:00Z</time>
      </trkpt>
      <trkpt lat="44.28696" lon="3.68966">
        <ele>658.64</ele>
        <time>2022-08-08T09:50:04Z</time>
      </trkpt>
      <trkpt lat="44.28674" lon="3.68977">
        <ele>658.16</ele>
        <time>2022-08-08T09:50:20Z</time>
      </trkpt>
      <trkpt lat="44.28662" lon="3.68984">
        <ele>658.16</ele>
        <time>2022-08-08T09:50:29Z</time>
      </trkpt>
      <trkpt lat="44.28649" lon="3.68995">
        <ele>657.68</ele>
        <time>2022-08-08T09:50:42Z</time>
      </trkpt>
      <trkpt lat="44.28639" lon="3.69006">
        <ele>657.2</ele>
        <time>2022-08-08T09:50:53Z</time>
      </trkpt>
      <trkpt lat="44.28633" lon="3.69009">
        <ele>657.2</ele>
        <time>2022-08-08T09:50:58Z</time>
      </trkpt>
      <trkpt lat="44.2862" lon="3.69027">
        <ele>656.24</ele>
        <time>2022-08-08T09:51:15Z</time>
      </trkpt>
      <trkpt lat="44.28617" lon="3.69032">
        <ele>656.24</ele>
        <time>2022-08-08T09:51:19Z</time>
      </trkpt>
      <trkpt lat="44.28613" lon="3.69036">
        <ele>655.76</ele>
        <time>2022-08-08T09:51:24Z</time>
      </trkpt>
      <trkpt lat="44.28601" lon="3.69047">
        <ele>655.76</ele>
        <time>2022-08-08T09:51:36Z</time>
      </trkpt>
      <trkpt lat="44.28587" lon="3.69063">
        <ele>656.24</ele>
        <time>2022-08-08T09:51:51Z</time>
      </trkpt>
      <trkpt lat="44.28582" lon="3.69068">
        <ele>656.72</ele>
        <time>2022-08-08T09:51:56Z</time>
      </trkpt>
      <trkpt lat="44.28573" lon="3.69079">
        <ele>658.16</ele>
        <time>2022-08-08T09:52:06Z</time>
      </trkpt>
      <trkpt lat="44.28567" lon="3.69086">
        <ele>659.12</ele>
        <time>2022-08-08T09:52:12Z</time>
      </trkpt>
      <trkpt lat="44.28556" lon="3.69103">
        <ele>657.68</ele>
        <time>2022-08-08T09:52:26Z</time>
      </trkpt>
      <trkpt lat="44.28553" lon="3.69107">
        <ele>657.2</ele>
        <time>2022-08-08T09:52:29Z</time>
      </trkpt>
      <trkpt lat="44.28542" lon="3.69125">
        <ele>657.2</ele>
        <time>2022-08-08T09:52:41Z</time>
      </trkpt>
      <trkpt lat="44.28537" lon="3.69142">
        <ele>656.72</ele>
        <time>2022-08-08T09:52:51Z</time>
      </trkpt>
      <trkpt lat="44.28534" lon="3.69158">
        <ele>656.72</ele>
        <time>2022-08-08T09:53:00Z</time>
      </trkpt>
      <trkpt lat="44.2853" lon="3.69163">
        <ele>656.72</ele>
        <time>2022-08-08T09:53:04Z</time>
      </trkpt>
      <trkpt lat="44.28524" lon="3.69173">
        <ele>657.2</ele>
        <time>2022-08-08T09:53:12Z</time>
      </trkpt>
      <trkpt lat="44.28518" lon="3.6918">
        <ele>657.68</ele>
        <time>2022-08-08T09:53:18Z</time>
      </trkpt>
      <trkpt lat="44.28518" lon="3.69183">
        <ele>657.68</ele>
        <time>2022-08-08T09:53:20Z</time>
      </trkpt>
      <trkpt lat="44.28499" lon="3.69201">
        <ele>662.49</ele>
        <time>2022-08-08T09:53:34Z</time>
      </trkpt>
      <trkpt lat="44.28458" lon="3.69195">
        <ele>686.04</ele>
        <time>2022-08-08T09:53:48Z</time>
      </trkpt>
      <trkpt lat="44.28454" lon="3.69209">
        <ele>687</ele>
        <time>2022-08-08T09:54:00Z</time>
      </trkpt>
      <trkpt lat="44.28449" lon="3.69221">
        <ele>685.08</ele>
        <time>2022-08-08T09:54:11Z</time>
      </trkpt>
      <trkpt lat="44.28442" lon="3.69242">
        <ele>682.67</ele>
        <time>2022-08-08T09:54:25Z</time>
      </trkpt>
      <trkpt lat="44.28438" lon="3.69248">
        <ele>681.71</ele>
        <time>2022-08-08T09:54:29Z</time>
      </trkpt>
      <trkpt lat="44.28435" lon="3.69258">
        <ele>680.75</ele>
        <time>2022-08-08T09:54:35Z</time>
      </trkpt>
      <trkpt lat="44.28425" lon="3.69275">
        <ele>680.75</ele>
        <time>2022-08-08T09:54:48Z</time>
      </trkpt>
      <trkpt lat="44.28417" lon="3.69286">
        <ele>681.23</ele>
        <time>2022-08-08T09:54:59Z</time>
      </trkpt>
      <trkpt lat="44.28404" lon="3.69294">
        <ele>682.67</ele>
        <time>2022-08-08T09:55:10Z</time>
      </trkpt>
      <trkpt lat="44.284" lon="3.69299">
        <ele>683.15</ele>
        <time>2022-08-08T09:55:14Z</time>
      </trkpt>
      <trkpt lat="44.28397" lon="3.69303">
        <ele>682.19</ele>
        <time>2022-08-08T09:55:17Z</time>
      </trkpt>
      <trkpt lat="44.28382" lon="3.69319">
        <ele>682.19</ele>
        <time>2022-08-08T09:55:31Z</time>
      </trkpt>
      <trkpt lat="44.28369" lon="3.69325">
        <ele>682.67</ele>
        <time>2022-08-08T09:55:39Z</time>
      </trkpt>
      <trkpt lat="44.28352" lon="3.69345">
        <ele>680.27</ele>
        <time>2022-08-08T09:55:55Z</time>
      </trkpt>
      <trkpt lat="44.28337" lon="3.69357">
        <ele>680.27</ele>
        <time>2022-08-08T09:56:09Z</time>
      </trkpt>
      <trkpt lat="44.28336" lon="3.69358">
        <ele>680.27</ele>
        <time>2022-08-08T09:56:10Z</time>
      </trkpt>
      <trkpt lat="44.28331" lon="3.69362">
        <ele>680.27</ele>
        <time>2022-08-08T09:56:14Z</time>
      </trkpt>
      <trkpt lat="44.28323" lon="3.69364">
        <ele>680.75</ele>
        <time>2022-08-08T09:56:19Z</time>
      </trkpt>
      <trkpt lat="44.28309" lon="3.69377">
        <ele>682.19</ele>
        <time>2022-08-08T09:56:34Z</time>
      </trkpt>
      <trkpt lat="44.28296" lon="3.6939">
        <ele>682.19</ele>
        <time>2022-08-08T09:56:48Z</time>
      </trkpt>
      <trkpt lat="44.28289" lon="3.69404">
        <ele>681.23</ele>
        <time>2022-08-08T09:56:59Z</time>
      </trkpt>
      <trkpt lat="44.28283" lon="3.69424">
        <ele>679.79</ele>
        <time>2022-08-08T09:57:13Z</time>
      </trkpt>
      <trkpt lat="44.28276" lon="3.69438">
        <ele>678.35</ele>
        <time>2022-08-08T09:57:25Z</time>
      </trkpt>
      <trkpt lat="44.28264" lon="3.69452">
        <ele>676.42</ele>
        <time>2022-08-08T09:57:39Z</time>
      </trkpt>
      <trkpt lat="44.28256" lon="3.6946">
        <ele>674.98</ele>
        <time>2022-08-08T09:57:46Z</time>
      </trkpt>
      <trkpt lat="44.28244" lon="3.69476">
        <ele>671.62</ele>
        <time>2022-08-08T09:57:58Z</time>
      </trkpt>
      <trkpt lat="44.2824" lon="3.69507">
        <ele>669.7</ele>
        <time>2022-08-08T09:58:14Z</time>
      </trkpt>
      <trkpt lat="44.28239" lon="3.69534">
        <ele>669.22</ele>
        <time>2022-08-08T09:58:28Z</time>
      </trkpt>
      <trkpt lat="44.28237" lon="3.69546">
        <ele>668.25</ele>
        <time>2022-08-08T09:58:35Z</time>
      </trkpt>
      <trkpt lat="44.28229" lon="3.69574">
        <ele>667.77</ele>
        <time>2022-08-08T09:58:52Z</time>
      </trkpt>
      <trkpt lat="44.28227" lon="3.69581">
        <ele>667.77</ele>
        <time>2022-08-08T09:58:56Z</time>
      </trkpt>
      <trkpt lat="44.28226" lon="3.69589">
        <ele>667.29</ele>
        <time>2022-08-08T09:59:01Z</time>
      </trkpt>
      <trkpt lat="44.28217" lon="3.69609">
        <ele>666.81</ele>
        <time>2022-08-08T09:59:16Z</time>
      </trkpt>
      <trkpt lat="44.28214" lon="3.69613">
        <ele>665.85</ele>
        <time>2022-08-08T09:59:20Z</time>
      </trkpt>
      <trkpt lat="44.28207" lon="3.69617">
        <ele>664.41</ele>
        <time>2022-08-08T09:59:25Z</time>
      </trkpt>
      <trkpt lat="44.28196" lon="3.69629">
        <ele>663.45</ele>
        <time>2022-08-08T09:59:36Z</time>
      </trkpt>
      <trkpt lat="44.28181" lon="3.69636">
        <ele>663.45</ele>
        <time>2022-08-08T09:59:48Z</time>
      </trkpt>
      <trkpt lat="44.28171" lon="3.69644">
        <ele>663.45</ele>
        <time>2022-08-08T10:00:03Z</time>
      </trkpt>
      <trkpt lat="44.28158" lon="3.69649">
        <ele>665.37</ele>
        <time>2022-08-08T10:00:17Z</time>
      </trkpt>
      <trkpt lat="44.2814" lon="3.6965">
        <ele>666.33</ele>
        <time>2022-08-08T10:00:31Z</time>
      </trkpt>
      <trkpt lat="44.28138" lon="3.69651">
        <ele>666.81</ele>
        <time>2022-08-08T10:00:33Z</time>
      </trkpt>
      <trkpt lat="44.28123" lon="3.69659">
        <ele>665.85</ele>
        <time>2022-08-08T10:00:50Z</time>
      </trkpt>
      <trkpt lat="44.28127" lon="3.69663">
        <ele>664.41</ele>
        <time>2022-08-08T10:01:01Z</time>
      </trkpt>
      <trkpt lat="44.28129" lon="3.69664">
        <ele>663.93</ele>
        <time>2022-08-08T10:01:13Z</time>
      </trkpt>
      <trkpt lat="44.28126" lon="3.69663">
        <ele>662.97</ele>
        <time>2022-08-08T10:01:19Z</time>
      </trkpt>
      <trkpt lat="44.28108" lon="3.6966">
        <ele>662.97</ele>
        <time>2022-08-08T10:01:34Z</time>
      </trkpt>
      <trkpt lat="44.28096" lon="3.69667">
        <ele>662.01</ele>
        <time>2022-08-08T10:01:48Z</time>
      </trkpt>
      <trkpt lat="44.28095" lon="3.69665">
        <ele>662.01</ele>
        <time>2022-08-08T10:01:55Z</time>
      </trkpt>
      <trkpt lat="44.28087" lon="3.69656">
        <ele>661.04</ele>
        <time>2022-08-08T10:02:06Z</time>
      </trkpt>
      <trkpt lat="44.28081" lon="3.69661">
        <ele>661.04</ele>
        <time>2022-08-08T10:02:12Z</time>
      </trkpt>
      <trkpt lat="44.28074" lon="3.69663">
        <ele>661.04</ele>
        <time>2022-08-08T10:02:17Z</time>
      </trkpt>
      <trkpt lat="44.28056" lon="3.69669">
        <ele>660.08</ele>
        <time>2022-08-08T10:02:31Z</time>
      </trkpt>
      <trkpt lat="44.28036" lon="3.69674">
        <ele>659.6</ele>
        <time>2022-08-08T10:02:48Z</time>
      </trkpt>
      <trkpt lat="44.28026" lon="3.69679">
        <ele>659.6</ele>
        <time>2022-08-08T10:02:56Z</time>
      </trkpt>
      <trkpt lat="44.28011" lon="3.69696">
        <ele>659.12</ele>
        <time>2022-08-08T10:03:12Z</time>
      </trkpt>
      <trkpt lat="44.28" lon="3.69709">
        <ele>659.12</ele>
        <time>2022-08-08T10:03:24Z</time>
      </trkpt>
      <trkpt lat="44.27998" lon="3.69711">
        <ele>658.64</ele>
        <time>2022-08-08T10:03:26Z</time>
      </trkpt>
      <trkpt lat="44.28002" lon="3.69717">
        <ele>657.68</ele>
        <time>2022-08-08T10:03:42Z</time>
      </trkpt>
      <trkpt lat="44.28003" lon="3.69718">
        <ele>658.16</ele>
        <time>2022-08-08T10:04:08Z</time>
      </trkpt>
      <trkpt lat="44.28001" lon="3.69718">
        <ele>661.52</ele>
        <time>2022-08-08T10:04:34Z</time>
      </trkpt>
      <trkpt lat="44.28" lon="3.69722">
        <ele>661.52</ele>
        <time>2022-08-08T10:04:45Z</time>
      </trkpt>
      <trkpt lat="44.27994" lon="3.69743">
        <ele>663.45</ele>
        <time>2022-08-08T10:05:00Z</time>
      </trkpt>
      <trkpt lat="44.27987" lon="3.69762">
        <ele>660.08</ele>
        <time>2022-08-08T10:05:14Z</time>
      </trkpt>
      <trkpt lat="44.27986" lon="3.69785">
        <ele>658.16</ele>
        <time>2022-08-08T10:05:29Z</time>
      </trkpt>
      <trkpt lat="44.27987" lon="3.69806">
        <ele>658.16</ele>
        <time>2022-08-08T10:05:42Z</time>
      </trkpt>
      <trkpt lat="44.27989" lon="3.6983">
        <ele>657.68</ele>
        <time>2022-08-08T10:05:57Z</time>
      </trkpt>
      <trkpt lat="44.27991" lon="3.69853">
        <ele>657.68</ele>
        <time>2022-08-08T10:06:12Z</time>
      </trkpt>
      <trkpt lat="44.27994" lon="3.69874">
        <ele>660.08</ele>
        <time>2022-08-08T10:06:26Z</time>
      </trkpt>
      <trkpt lat="44.27993" lon="3.69896">
        <ele>662.01</ele>
        <time>2022-08-08T10:06:39Z</time>
      </trkpt>
      <trkpt lat="44.27991" lon="3.69915">
        <ele>662.97</ele>
        <time>2022-08-08T10:06:50Z</time>
      </trkpt>
      <trkpt lat="44.27988" lon="3.69941">
        <ele>664.89</ele>
        <time>2022-08-08T10:07:06Z</time>
      </trkpt>
      <trkpt lat="44.27984" lon="3.69961">
        <ele>665.37</ele>
        <time>2022-08-08T10:07:20Z</time>
      </trkpt>
      <trkpt lat="44.27983" lon="3.69981">
        <ele>663.45</ele>
        <time>2022-08-08T10:07:33Z</time>
      </trkpt>
      <trkpt lat="44.27984" lon="3.70001">
        <ele>664.41</ele>
        <time>2022-08-08T10:07:47Z</time>
      </trkpt>
      <trkpt lat="44.27985" lon="3.70004">
        <ele>664.41</ele>
        <time>2022-08-08T10:07:49Z</time>
      </trkpt>
      <trkpt lat="44.27984" lon="3.70029">
        <ele>663.93</ele>
        <time>2022-08-08T10:08:05Z</time>
      </trkpt>
      <trkpt lat="44.27986" lon="3.70055">
        <ele>663.93</ele>
        <time>2022-08-08T10:08:19Z</time>
      </trkpt>
      <trkpt lat="44.27986" lon="3.70075">
        <ele>664.89</ele>
        <time>2022-08-08T10:08:31Z</time>
      </trkpt>
      <trkpt lat="44.27988" lon="3.701">
        <ele>666.33</ele>
        <time>2022-08-08T10:08:46Z</time>
      </trkpt>
      <trkpt lat="44.27989" lon="3.70119">
        <ele>665.85</ele>
        <time>2022-08-08T10:09:00Z</time>
      </trkpt>
      <trkpt lat="44.27991" lon="3.70132">
        <ele>664.41</ele>
        <time>2022-08-08T10:09:08Z</time>
      </trkpt>
      <trkpt lat="44.27988" lon="3.70147">
        <ele>663.45</ele>
        <time>2022-08-08T10:09:22Z</time>
      </trkpt>
      <trkpt lat="44.27984" lon="3.70149">
        <ele>663.45</ele>
        <time>2022-08-08T10:09:40Z</time>
      </trkpt>
      <trkpt lat="44.27982" lon="3.70155">
        <ele>666.33</ele>
        <time>2022-08-08T10:10:18Z</time>
      </trkpt>
      <trkpt lat="44.2798" lon="3.7016">
        <ele>660.56</ele>
        <time>2022-08-08T10:10:38Z</time>
      </trkpt>
      <trkpt lat="44.27979" lon="3.70168">
        <ele>661.52</ele>
        <time>2022-08-08T10:10:45Z</time>
      </trkpt>
      <trkpt lat="44.2798" lon="3.70182">
        <ele>660.56</ele>
        <time>2022-08-08T10:10:55Z</time>
      </trkpt>
      <trkpt lat="44.27977" lon="3.70195">
        <ele>659.6</ele>
        <time>2022-08-08T10:11:04Z</time>
      </trkpt>
      <trkpt lat="44.27972" lon="3.70215">
        <ele>657.68</ele>
        <time>2022-08-08T10:11:18Z</time>
      </trkpt>
      <trkpt lat="44.27967" lon="3.70232">
        <ele>657.68</ele>
        <time>2022-08-08T10:11:30Z</time>
      </trkpt>
      <trkpt lat="44.27957" lon="3.70246">
        <ele>661.52</ele>
        <time>2022-08-08T10:11:39Z</time>
      </trkpt>
      <trkpt lat="44.27949" lon="3.70257">
        <ele>662.01</ele>
        <time>2022-08-08T10:11:52Z</time>
      </trkpt>
      <trkpt lat="44.27945" lon="3.70254">
        <ele>661.52</ele>
        <time>2022-08-08T10:12:03Z</time>
      </trkpt>
      <trkpt lat="44.27933" lon="3.70239">
        <ele>659.6</ele>
        <time>2022-08-08T10:12:19Z</time>
      </trkpt>
      <trkpt lat="44.27926" lon="3.70221">
        <ele>660.56</ele>
        <time>2022-08-08T10:12:32Z</time>
      </trkpt>
      <trkpt lat="44.27924" lon="3.70206">
        <ele>658.16</ele>
        <time>2022-08-08T10:12:44Z</time>
      </trkpt>
      <trkpt lat="44.27925" lon="3.70194">
        <ele>657.2</ele>
        <time>2022-08-08T10:12:52Z</time>
      </trkpt>
      <trkpt lat="44.27927" lon="3.70179">
        <ele>654.8</ele>
        <time>2022-08-08T10:13:06Z</time>
      </trkpt>
      <trkpt lat="44.27927" lon="3.70168">
        <ele>653.83</ele>
        <time>2022-08-08T10:13:26Z</time>
      </trkpt>
      <trkpt lat="44.27926" lon="3.70169">
        <ele>657.2</ele>
        <time>2022-08-08T10:13:50Z</time>
      </trkpt>
      <trkpt lat="44.27925" lon="3.70171">
        <ele>659.12</ele>
        <time>2022-08-08T10:14:14Z</time>
      </trkpt>
      <trkpt lat="44.27933" lon="3.70167">
        <ele>659.12</ele>
        <time>2022-08-08T10:14:34Z</time>
      </trkpt>
      <trkpt lat="44.27936" lon="3.70163">
        <ele>657.68</ele>
        <time>2022-08-08T10:14:51Z</time>
      </trkpt>
      <trkpt lat="44.27939" lon="3.70163">
        <ele>656.72</ele>
        <time>2022-08-08T10:15:10Z</time>
      </trkpt>
      <trkpt lat="44.27942" lon="3.70156">
        <ele>656.72</ele>
        <time>2022-08-08T10:15:24Z</time>
      </trkpt>
      <trkpt lat="44.27942" lon="3.70148">
        <ele>656.72</ele>
        <time>2022-08-08T10:15:40Z</time>
      </trkpt>
      <trkpt lat="44.27943" lon="3.70149">
        <ele>655.76</ele>
        <time>2022-08-08T10:16:04Z</time>
      </trkpt>
      <trkpt lat="44.27943" lon="3.70151">
        <ele>656.24</ele>
        <time>2022-08-08T10:16:21Z</time>
      </trkpt>
      <trkpt lat="44.27944" lon="3.70149">
        <ele>659.6</ele>
        <time>2022-08-08T10:16:35Z</time>
      </trkpt>
      <trkpt lat="44.27945" lon="3.70152">
        <ele>662.01</ele>
        <time>2022-08-08T10:16:54Z</time>
      </trkpt>
      <trkpt lat="44.27948" lon="3.70155">
        <ele>662.97</ele>
        <time>2022-08-08T10:17:23Z</time>
      </trkpt>
      <trkpt lat="44.27948" lon="3.70153">
        <ele>662.97</ele>
        <time>2022-08-08T10:17:58Z</time>
      </trkpt>
      <trkpt lat="44.27945" lon="3.70154">
        <ele>660.56</ele>
        <time>2022-08-08T10:18:40Z</time>
      </trkpt>
      <trkpt lat="44.27948" lon="3.70156">
        <ele>665.37</ele>
        <time>2022-08-08T10:19:12Z</time>
      </trkpt>
      <trkpt lat="44.27943" lon="3.70155">
        <ele>666.33</ele>
        <time>2022-08-08T10:19:50Z</time>
      </trkpt>
      <trkpt lat="44.27947" lon="3.70161">
        <ele>666.81</ele>
        <time>2022-08-08T10:20:22Z</time>
      </trkpt>
      <trkpt lat="44.27945" lon="3.70157">
        <ele>666.33</ele>
        <time>2022-08-08T10:20:57Z</time>
      </trkpt>
      <trkpt lat="44.27941" lon="3.70153">
        <ele>663.93</ele>
        <time>2022-08-08T10:21:32Z</time>
      </trkpt>
      <trkpt lat="44.27941" lon="3.70159">
        <ele>663.45</ele>
        <time>2022-08-08T10:22:05Z</time>
      </trkpt>
      <trkpt lat="44.27941" lon="3.70157">
        <ele>665.37</ele>
        <time>2022-08-08T10:22:41Z</time>
      </trkpt>
      <trkpt lat="44.27938" lon="3.70151">
        <ele>672.58</ele>
        <time>2022-08-08T10:23:15Z</time>
      </trkpt>
      <trkpt lat="44.2794" lon="3.70156">
        <ele>675.46</ele>
        <time>2022-08-08T10:23:41Z</time>
      </trkpt>
      <trkpt lat="44.27939" lon="3.70158">
        <ele>670.18</ele>
        <time>2022-08-08T10:24:13Z</time>
      </trkpt>
      <trkpt lat="44.27941" lon="3.70155">
        <ele>672.1</ele>
        <time>2022-08-08T10:24:39Z</time>
      </trkpt>
      <trkpt lat="44.27936" lon="3.70145">
        <ele>675.46</ele>
        <time>2022-08-08T10:25:12Z</time>
      </trkpt>
      <trkpt lat="44.27941" lon="3.7015">
        <ele>672.58</ele>
        <time>2022-08-08T10:25:58Z</time>
      </trkpt>
      <trkpt lat="44.27942" lon="3.70148">
        <ele>666.33</ele>
        <time>2022-08-08T10:26:39Z</time>
      </trkpt>
      <trkpt lat="44.2794" lon="3.70152">
        <ele>665.85</ele>
        <time>2022-08-08T10:27:11Z</time>
      </trkpt>
      <trkpt lat="44.27939" lon="3.70152">
        <ele>665.85</ele>
        <time>2022-08-08T10:27:40Z</time>
      </trkpt>
      <trkpt lat="44.27941" lon="3.70152">
        <ele>668.25</ele>
        <time>2022-08-08T10:28:18Z</time>
      </trkpt>
      <trkpt lat="44.27938" lon="3.70154">
        <ele>676.91</ele>
        <time>2022-08-08T10:29:03Z</time>
      </trkpt>
      <trkpt lat="44.27939" lon="3.70144">
        <ele>676.91</ele>
        <time>2022-08-08T10:29:38Z</time>
      </trkpt>
      <trkpt lat="44.27941" lon="3.70148">
        <ele>677.39</ele>
        <time>2022-08-08T10:30:09Z</time>
      </trkpt>
      <trkpt lat="44.2794" lon="3.70147">
        <ele>675.94</ele>
        <time>2022-08-08T10:30:38Z</time>
      </trkpt>
      <trkpt lat="44.27939" lon="3.70147">
        <ele>679.79</ele>
        <time>2022-08-08T10:31:21Z</time>
      </trkpt>
      <trkpt lat="44.27941" lon="3.7014">
        <ele>679.31</ele>
        <time>2022-08-08T10:31:59Z</time>
      </trkpt>
      <trkpt lat="44.27936" lon="3.70143">
        <ele>673.54</ele>
        <time>2022-08-08T10:32:38Z</time>
      </trkpt>
      <trkpt lat="44.27944" lon="3.7015">
        <ele>668.25</ele>
        <time>2022-08-08T10:33:14Z</time>
      </trkpt>
      <trkpt lat="44.27943" lon="3.70154">
        <ele>660.08</ele>
        <time>2022-08-08T10:33:55Z</time>
      </trkpt>
      <trkpt lat="44.27944" lon="3.70154">
        <ele>660.08</ele>
        <time>2022-08-08T10:34:28Z</time>
      </trkpt>
      <trkpt lat="44.27944" lon="3.7015">
        <ele>661.04</ele>
        <time>2022-08-08T10:35:07Z</time>
      </trkpt>
      <trkpt lat="44.27942" lon="3.70151">
        <ele>661.04</ele>
        <time>2022-08-08T10:35:49Z</time>
      </trkpt>
      <trkpt lat="44.27942" lon="3.70151">
        <ele>666.33</ele>
        <time>2022-08-08T10:36:38Z</time>
      </trkpt>
      <trkpt lat="44.27943" lon="3.70153">
        <ele>672.58</ele>
        <time>2022-08-08T10:37:18Z</time>
      </trkpt>
      <trkpt lat="44.27946" lon="3.70149">
        <ele>670.66</ele>
        <time>2022-08-08T10:37:56Z</time>
      </trkpt>
      <trkpt lat="44.27946" lon="3.70155">
        <ele>666.81</ele>
        <time>2022-08-08T10:38:37Z</time>
      </trkpt>
      <trkpt lat="44.27949" lon="3.70158">
        <ele>662.01</ele>
        <time>2022-08-08T10:39:13Z</time>
      </trkpt>
      <trkpt lat="44.27949" lon="3.70157">
        <ele>660.08</ele>
        <time>2022-08-08T10:39:47Z</time>
      </trkpt>
      <trkpt lat="44.27943" lon="3.70153">
        <ele>662.01</ele>
        <time>2022-08-08T10:40:31Z</time>
      </trkpt>
      <trkpt lat="44.27946" lon="3.70152">
        <ele>661.52</ele>
        <time>2022-08-08T10:41:09Z</time>
      </trkpt>
      <trkpt lat="44.27947" lon="3.7015">
        <ele>661.04</ele>
        <time>2022-08-08T10:41:41Z</time>
      </trkpt>
      <trkpt lat="44.27947" lon="3.70155">
        <ele>662.49</ele>
        <time>2022-08-08T10:42:12Z</time>
      </trkpt>
      <trkpt lat="44.27948" lon="3.70154">
        <ele>661.04</ele>
        <time>2022-08-08T10:42:45Z</time>
      </trkpt>
      <trkpt lat="44.27945" lon="3.70157">
        <ele>662.01</ele>
        <time>2022-08-08T10:43:22Z</time>
      </trkpt>
      <trkpt lat="44.27943" lon="3.70157">
        <ele>656.72</ele>
        <time>2022-08-08T10:43:57Z</time>
      </trkpt>
      <trkpt lat="44.27947" lon="3.70159">
        <ele>659.6</ele>
        <time>2022-08-08T10:44:27Z</time>
      </trkpt>
      <trkpt lat="44.27944" lon="3.70159">
        <ele>661.04</ele>
        <time>2022-08-08T10:44:59Z</time>
      </trkpt>
      <trkpt lat="44.27947" lon="3.70157">
        <ele>662.49</ele>
        <time>2022-08-08T10:45:27Z</time>
      </trkpt>
      <trkpt lat="44.27948" lon="3.70149">
        <ele>663.45</ele>
        <time>2022-08-08T10:45:52Z</time>
      </trkpt>
      <trkpt lat="44.27955" lon="3.70151">
        <ele>665.85</ele>
        <time>2022-08-08T10:46:23Z</time>
      </trkpt>
      <trkpt lat="44.27947" lon="3.7015">
        <ele>660.56</ele>
        <time>2022-08-08T10:46:48Z</time>
      </trkpt>
      <trkpt lat="44.27948" lon="3.70147">
        <ele>664.89</ele>
        <time>2022-08-08T10:47:26Z</time>
      </trkpt>
      <trkpt lat="44.27946" lon="3.70145">
        <ele>667.29</ele>
        <time>2022-08-08T10:48:04Z</time>
      </trkpt>
      <trkpt lat="44.27945" lon="3.70147">
        <ele>674.98</ele>
        <time>2022-08-08T10:48:41Z</time>
      </trkpt>
      <trkpt lat="44.27946" lon="3.7015">
        <ele>672.1</ele>
        <time>2022-08-08T10:49:15Z</time>
      </trkpt>
      <trkpt lat="44.27947" lon="3.7015">
        <ele>670.66</ele>
        <time>2022-08-08T10:49:49Z</time>
      </trkpt>
      <trkpt lat="44.27949" lon="3.70149">
        <ele>668.73</ele>
        <time>2022-08-08T10:50:21Z</time>
      </trkpt>
      <trkpt lat="44.2795" lon="3.70153">
        <ele>669.22</ele>
        <time>2022-08-08T10:51:02Z</time>
      </trkpt>
      <trkpt lat="44.27948" lon="3.70151">
        <ele>666.33</ele>
        <time>2022-08-08T10:51:44Z</time>
      </trkpt>
      <trkpt lat="44.27952" lon="3.70152">
        <ele>662.97</ele>
        <time>2022-08-08T10:52:22Z</time>
      </trkpt>
      <trkpt lat="44.27952" lon="3.70156">
        <ele>658.16</ele>
        <time>2022-08-08T10:52:58Z</time>
      </trkpt>
      <trkpt lat="44.27945" lon="3.70155">
        <ele>660.56</ele>
        <time>2022-08-08T10:53:29Z</time>
      </trkpt>
      <trkpt lat="44.27943" lon="3.70156">
        <ele>656.72</ele>
        <time>2022-08-08T10:53:55Z</time>
      </trkpt>
      <trkpt lat="44.27943" lon="3.70158">
        <ele>655.76</ele>
        <time>2022-08-08T10:54:23Z</time>
      </trkpt>
      <trkpt lat="44.27946" lon="3.70147">
        <ele>657.2</ele>
        <time>2022-08-08T10:54:51Z</time>
      </trkpt>
      <trkpt lat="44.27947" lon="3.7015">
        <ele>659.12</ele>
        <time>2022-08-08T10:55:15Z</time>
      </trkpt>
      <trkpt lat="44.27942" lon="3.70152">
        <ele>656.24</ele>
        <time>2022-08-08T10:55:38Z</time>
      </trkpt>
      <trkpt lat="44.27939" lon="3.70151">
        <ele>656.24</ele>
        <time>2022-08-08T10:56:06Z</time>
      </trkpt>
      <trkpt lat="44.27944" lon="3.70154">
        <ele>659.6</ele>
        <time>2022-08-08T10:56:37Z</time>
      </trkpt>
      <trkpt lat="44.27947" lon="3.70157">
        <ele>661.52</ele>
        <time>2022-08-08T10:57:05Z</time>
      </trkpt>
      <trkpt lat="44.27945" lon="3.70155">
        <ele>656.72</ele>
        <time>2022-08-08T10:57:29Z</time>
      </trkpt>
      <trkpt lat="44.27943" lon="3.70156">
        <ele>657.2</ele>
        <time>2022-08-08T10:57:55Z</time>
      </trkpt>
      <trkpt lat="44.27942" lon="3.70153">
        <ele>661.04</ele>
        <time>2022-08-08T10:58:19Z</time>
      </trkpt>
      <trkpt lat="44.27942" lon="3.70157">
        <ele>658.64</ele>
        <time>2022-08-08T10:58:47Z</time>
      </trkpt>
      <trkpt lat="44.27945" lon="3.70155">
        <ele>662.49</ele>
        <time>2022-08-08T10:59:17Z</time>
      </trkpt>
      <trkpt lat="44.27944" lon="3.70158">
        <ele>664.41</ele>
        <time>2022-08-08T10:59:42Z</time>
      </trkpt>
      <trkpt lat="44.27942" lon="3.70154">
        <ele>661.52</ele>
        <time>2022-08-08T11:00:13Z</time>
      </trkpt>
      <trkpt lat="44.2794" lon="3.70153">
        <ele>663.45</ele>
        <time>2022-08-08T11:00:36Z</time>
      </trkpt>
      <trkpt lat="44.27945" lon="3.70156">
        <ele>673.54</ele>
        <time>2022-08-08T11:01:02Z</time>
      </trkpt>
      <trkpt lat="44.27944" lon="3.70153">
        <ele>678.35</ele>
        <time>2022-08-08T11:01:25Z</time>
      </trkpt>
      <trkpt lat="44.27944" lon="3.70155">
        <ele>678.35</ele>
        <time>2022-08-08T11:01:52Z</time>
      </trkpt>
      <trkpt lat="44.27946" lon="3.70157">
        <ele>676.91</ele>
        <time>2022-08-08T11:02:23Z</time>
      </trkpt>
      <trkpt lat="44.27944" lon="3.70154">
        <ele>670.66</ele>
        <time>2022-08-08T11:02:47Z</time>
      </trkpt>
      <trkpt lat="44.27942" lon="3.7015">
        <ele>672.1</ele>
        <time>2022-08-08T11:03:21Z</time>
      </trkpt>
      <trkpt lat="44.2794" lon="3.70151">
        <ele>673.54</ele>
        <time>2022-08-08T11:03:51Z</time>
      </trkpt>
      <trkpt lat="44.27941" lon="3.70152">
        <ele>673.06</ele>
        <time>2022-08-08T11:04:17Z</time>
      </trkpt>
      <trkpt lat="44.27942" lon="3.7015">
        <ele>673.06</ele>
        <time>2022-08-08T11:04:49Z</time>
      </trkpt>
      <trkpt lat="44.27941" lon="3.70152">
        <ele>667.29</ele>
        <time>2022-08-08T11:05:15Z</time>
      </trkpt>
      <trkpt lat="44.27939" lon="3.70151">
        <ele>664.89</ele>
        <time>2022-08-08T11:05:45Z</time>
      </trkpt>
      <trkpt lat="44.27939" lon="3.7015">
        <ele>658.16</ele>
        <time>2022-08-08T11:06:12Z</time>
      </trkpt>
      <trkpt lat="44.2794" lon="3.70148">
        <ele>662.97</ele>
        <time>2022-08-08T11:06:46Z</time>
      </trkpt>
      <trkpt lat="44.27939" lon="3.70152">
        <ele>668.25</ele>
        <time>2022-08-08T11:07:19Z</time>
      </trkpt>
      <trkpt lat="44.27941" lon="3.7015">
        <ele>670.18</ele>
        <time>2022-08-08T11:07:47Z</time>
      </trkpt>
      <trkpt lat="44.2794" lon="3.70152">
        <ele>671.62</ele>
        <time>2022-08-08T11:08:19Z</time>
      </trkpt>
      <trkpt lat="44.27944" lon="3.70147">
        <ele>667.77</ele>
        <time>2022-08-08T11:08:32Z</time>
      </trkpt>
      <trkpt lat="44.27949" lon="3.70145">
        <ele>664.89</ele>
        <time>2022-08-08T11:08:51Z</time>
      </trkpt>
      <trkpt lat="44.27947" lon="3.70141">
        <ele>661.04</ele>
        <time>2022-08-08T11:09:26Z</time>
      </trkpt>
      <trkpt lat="44.2795" lon="3.70138">
        <ele>666.33</ele>
        <time>2022-08-08T11:10:03Z</time>
      </trkpt>
      <trkpt lat="44.27949" lon="3.70135">
        <ele>668.73</ele>
        <time>2022-08-08T11:10:41Z</time>
      </trkpt>
      <trkpt lat="44.27951" lon="3.70139">
        <ele>662.49</ele>
        <time>2022-08-08T11:11:26Z</time>
      </trkpt>
      <trkpt lat="44.27951" lon="3.70136">
        <ele>667.77</ele>
        <time>2022-08-08T11:12:04Z</time>
      </trkpt>
      <trkpt lat="44.27952" lon="3.70131">
        <ele>676.42</ele>
        <time>2022-08-08T11:12:51Z</time>
      </trkpt>
      <trkpt lat="44.27948" lon="3.70129">
        <ele>675.46</ele>
        <time>2022-08-08T11:13:37Z</time>
      </trkpt>
      <trkpt lat="44.27949" lon="3.70134">
        <ele>675.94</ele>
        <time>2022-08-08T11:14:22Z</time>
      </trkpt>
      <trkpt lat="44.27947" lon="3.70136">
        <ele>672.58</ele>
        <time>2022-08-08T11:15:05Z</time>
      </trkpt>
      <trkpt lat="44.27948" lon="3.70133">
        <ele>674.5</ele>
        <time>2022-08-08T11:15:39Z</time>
      </trkpt>
      <trkpt lat="44.27948" lon="3.70139">
        <ele>669.7</ele>
        <time>2022-08-08T11:16:23Z</time>
      </trkpt>
      <trkpt lat="44.27948" lon="3.70142">
        <ele>672.1</ele>
        <time>2022-08-08T11:17:09Z</time>
      </trkpt>
      <trkpt lat="44.27948" lon="3.70139">
        <ele>673.54</ele>
        <time>2022-08-08T11:17:47Z</time>
      </trkpt>
      <trkpt lat="44.27947" lon="3.70141">
        <ele>671.62</ele>
        <time>2022-08-08T11:18:18Z</time>
      </trkpt>
      <trkpt lat="44.27948" lon="3.70141">
        <ele>668.73</ele>
        <time>2022-08-08T11:18:59Z</time>
      </trkpt>
      <trkpt lat="44.27948" lon="3.7014">
        <ele>666.33</ele>
        <time>2022-08-08T11:19:30Z</time>
      </trkpt>
      <trkpt lat="44.27947" lon="3.70144">
        <ele>663.45</ele>
        <time>2022-08-08T11:20:04Z</time>
      </trkpt>
      <trkpt lat="44.2795" lon="3.70145">
        <ele>667.29</ele>
        <time>2022-08-08T11:20:40Z</time>
      </trkpt>
      <trkpt lat="44.2795" lon="3.70146">
        <ele>663.45</ele>
        <time>2022-08-08T11:21:14Z</time>
      </trkpt>
      <trkpt lat="44.27947" lon="3.70144">
        <ele>661.04</ele>
        <time>2022-08-08T11:21:48Z</time>
      </trkpt>
      <trkpt lat="44.27949" lon="3.70148">
        <ele>661.04</ele>
        <time>2022-08-08T11:22:20Z</time>
      </trkpt>
      <trkpt lat="44.27948" lon="3.70147">
        <ele>660.08</ele>
        <time>2022-08-08T11:23:03Z</time>
      </trkpt>
      <trkpt lat="44.27948" lon="3.70146">
        <ele>662.49</ele>
        <time>2022-08-08T11:23:30Z</time>
      </trkpt>
      <trkpt lat="44.27945" lon="3.70145">
        <ele>661.52</ele>
        <time>2022-08-08T11:23:41Z</time>
      </trkpt>
      <trkpt lat="44.27946" lon="3.70146">
        <ele>662.01</ele>
        <time>2022-08-08T11:23:55Z</time>
      </trkpt>
      <trkpt lat="44.27945" lon="3.70143">
        <ele>661.52</ele>
        <time>2022-08-08T11:24:21Z</time>
      </trkpt>
      <trkpt lat="44.27945" lon="3.70144">
        <ele>662.49</ele>
        <time>2022-08-08T11:24:48Z</time>
      </trkpt>
      <trkpt lat="44.27938" lon="3.70144">
        <ele>660.08</ele>
        <time>2022-08-08T11:24:59Z</time>
      </trkpt>
      <trkpt lat="44.27937" lon="3.70148">
        <ele>655.28</ele>
        <time>2022-08-08T11:25:19Z</time>
      </trkpt>
      <trkpt lat="44.27936" lon="3.70153">
        <ele>653.35</ele>
        <time>2022-08-08T11:25:33Z</time>
      </trkpt>
      <trkpt lat="44.27938" lon="3.70158">
        <ele>653.83</ele>
        <time>2022-08-08T11:25:49Z</time>
      </trkpt>
      <trkpt lat="44.27933" lon="3.70156">
        <ele>653.35</ele>
        <time>2022-08-08T11:26:02Z</time>
      </trkpt>
      <trkpt lat="44.27928" lon="3.70152">
        <ele>653.35</ele>
        <time>2022-08-08T11:26:16Z</time>
      </trkpt>
      <trkpt lat="44.27921" lon="3.70156">
        <ele>653.35</ele>
        <time>2022-08-08T11:26:30Z</time>
      </trkpt>
      <trkpt lat="44.2792" lon="3.70172">
        <ele>654.8</ele>
        <time>2022-08-08T11:26:45Z</time>
      </trkpt>
      <trkpt lat="44.27922" lon="3.70186">
        <ele>654.31</ele>
        <time>2022-08-08T11:26:58Z</time>
      </trkpt>
      <trkpt lat="44.27921" lon="3.70206">
        <ele>654.31</ele>
        <time>2022-08-08T11:27:14Z</time>
      </trkpt>
      <trkpt lat="44.27926" lon="3.70227">
        <ele>655.76</ele>
        <time>2022-08-08T11:27:28Z</time>
      </trkpt>
      <trkpt lat="44.27933" lon="3.70244">
        <ele>656.72</ele>
        <time>2022-08-08T11:27:43Z</time>
      </trkpt>
      <trkpt lat="44.27942" lon="3.7026">
        <ele>660.56</ele>
        <time>2022-08-08T11:27:57Z</time>
      </trkpt>
      <trkpt lat="44.27948" lon="3.70271">
        <ele>661.52</ele>
        <time>2022-08-08T11:28:11Z</time>
      </trkpt>
      <trkpt lat="44.27945" lon="3.70282">
        <ele>664.89</ele>
        <time>2022-08-08T11:28:25Z</time>
      </trkpt>
      <trkpt lat="44.27939" lon="3.70298">
        <ele>667.29</ele>
        <time>2022-08-08T11:28:41Z</time>
      </trkpt>
      <trkpt lat="44.27932" lon="3.70317">
        <ele>668.25</ele>
        <time>2022-08-08T11:28:58Z</time>
      </trkpt>
      <trkpt lat="44.27932" lon="3.70319">
        <ele>668.73</ele>
        <time>2022-08-08T11:28:59Z</time>
      </trkpt>
      <trkpt lat="44.27924" lon="3.7034">
        <ele>667.29</ele>
        <time>2022-08-08T11:29:16Z</time>
      </trkpt>
      <trkpt lat="44.27917" lon="3.7036">
        <ele>667.29</ele>
        <time>2022-08-08T11:29:33Z</time>
      </trkpt>
      <trkpt lat="44.27913" lon="3.70378">
        <ele>665.85</ele>
        <time>2022-08-08T11:29:47Z</time>
      </trkpt>
      <trkpt lat="44.27905" lon="3.70397">
        <ele>665.85</ele>
        <time>2022-08-08T11:30:04Z</time>
      </trkpt>
      <trkpt lat="44.27899" lon="3.70415">
        <ele>667.77</ele>
        <time>2022-08-08T11:30:17Z</time>
      </trkpt>
      <trkpt lat="44.27894" lon="3.70431">
        <ele>670.18</ele>
        <time>2022-08-08T11:30:29Z</time>
      </trkpt>
      <trkpt lat="44.27889" lon="3.70446">
        <ele>672.1</ele>
        <time>2022-08-08T11:30:41Z</time>
      </trkpt>
      <trkpt lat="44.27884" lon="3.70465">
        <ele>672.58</ele>
        <time>2022-08-08T11:30:54Z</time>
      </trkpt>
      <trkpt lat="44.27882" lon="3.70486">
        <ele>675.46</ele>
        <time>2022-08-08T11:31:09Z</time>
      </trkpt>
      <trkpt lat="44.2788" lon="3.70508">
        <ele>673.06</ele>
        <time>2022-08-08T11:31:24Z</time>
      </trkpt>
      <trkpt lat="44.27878" lon="3.7053">
        <ele>669.22</ele>
        <time>2022-08-08T11:31:39Z</time>
      </trkpt>
      <trkpt lat="44.27877" lon="3.70552">
        <ele>665.85</ele>
        <time>2022-08-08T11:31:54Z</time>
      </trkpt>
      <trkpt lat="44.27876" lon="3.70575">
        <ele>665.37</ele>
        <time>2022-08-08T11:32:10Z</time>
      </trkpt>
      <trkpt lat="44.27876" lon="3.70579">
        <ele>665.37</ele>
        <time>2022-08-08T11:32:13Z</time>
      </trkpt>
      <trkpt lat="44.27875" lon="3.70598">
        <ele>666.81</ele>
        <time>2022-08-08T11:32:25Z</time>
      </trkpt>
      <trkpt lat="44.27873" lon="3.70621">
        <ele>667.77</ele>
        <time>2022-08-08T11:32:40Z</time>
      </trkpt>
      <trkpt lat="44.27871" lon="3.70645">
        <ele>666.33</ele>
        <time>2022-08-08T11:32:58Z</time>
      </trkpt>
      <trkpt lat="44.27865" lon="3.70662">
        <ele>664.41</ele>
        <time>2022-08-08T11:33:12Z</time>
      </trkpt>
      <trkpt lat="44.27864" lon="3.70664">
        <ele>664.41</ele>
        <time>2022-08-08T11:33:14Z</time>
      </trkpt>
      <trkpt lat="44.27857" lon="3.70677">
        <ele>663.45</ele>
        <time>2022-08-08T11:33:25Z</time>
      </trkpt>
      <trkpt lat="44.27849" lon="3.7069">
        <ele>666.81</ele>
        <time>2022-08-08T11:33:34Z</time>
      </trkpt>
      <trkpt lat="44.27836" lon="3.70707">
        <ele>671.14</ele>
        <time>2022-08-08T11:33:51Z</time>
      </trkpt>
      <trkpt lat="44.27823" lon="3.70717">
        <ele>670.66</ele>
        <time>2022-08-08T11:34:04Z</time>
      </trkpt>
      <trkpt lat="44.2781" lon="3.70727">
        <ele>672.1</ele>
        <time>2022-08-08T11:34:17Z</time>
      </trkpt>
      <trkpt lat="44.27798" lon="3.70738">
        <ele>673.06</ele>
        <time>2022-08-08T11:34:29Z</time>
      </trkpt>
      <trkpt lat="44.27797" lon="3.70739">
        <ele>673.06</ele>
        <time>2022-08-08T11:34:30Z</time>
      </trkpt>
      <trkpt lat="44.27788" lon="3.70749">
        <ele>671.14</ele>
        <time>2022-08-08T11:34:42Z</time>
      </trkpt>
      <trkpt lat="44.27775" lon="3.7076">
        <ele>673.06</ele>
        <time>2022-08-08T11:34:55Z</time>
      </trkpt>
      <trkpt lat="44.27766" lon="3.70775">
        <ele>674.02</ele>
        <time>2022-08-08T11:35:08Z</time>
      </trkpt>
      <trkpt lat="44.2776" lon="3.70793">
        <ele>673.06</ele>
        <time>2022-08-08T11:35:22Z</time>
      </trkpt>
      <trkpt lat="44.27754" lon="3.70818">
        <ele>674.5</ele>
        <time>2022-08-08T11:35:37Z</time>
      </trkpt>
      <trkpt lat="44.27752" lon="3.70845">
        <ele>675.46</ele>
        <time>2022-08-08T11:35:52Z</time>
      </trkpt>
      <trkpt lat="44.27751" lon="3.70862">
        <ele>676.42</ele>
        <time>2022-08-08T11:36:02Z</time>
      </trkpt>
      <trkpt lat="44.27754" lon="3.70886">
        <ele>682.19</ele>
        <time>2022-08-08T11:36:17Z</time>
      </trkpt>
      <trkpt lat="44.27757" lon="3.70896">
        <ele>683.63</ele>
        <time>2022-08-08T11:36:23Z</time>
      </trkpt>
      <trkpt lat="44.2776" lon="3.70904">
        <ele>682.19</ele>
        <time>2022-08-08T11:36:28Z</time>
      </trkpt>
      <trkpt lat="44.27765" lon="3.70913">
        <ele>681.71</ele>
        <time>2022-08-08T11:36:35Z</time>
      </trkpt>
      <trkpt lat="44.27774" lon="3.70933">
        <ele>680.75</ele>
        <time>2022-08-08T11:36:49Z</time>
      </trkpt>
      <trkpt lat="44.27781" lon="3.70943">
        <ele>680.27</ele>
        <time>2022-08-08T11:36:58Z</time>
      </trkpt>
      <trkpt lat="44.27793" lon="3.70959">
        <ele>680.75</ele>
        <time>2022-08-08T11:37:12Z</time>
      </trkpt>
      <trkpt lat="44.27807" lon="3.70974">
        <ele>679.79</ele>
        <time>2022-08-08T11:37:27Z</time>
      </trkpt>
      <trkpt lat="44.27809" lon="3.70976">
        <ele>679.79</ele>
        <time>2022-08-08T11:37:29Z</time>
      </trkpt>
      <trkpt lat="44.27813" lon="3.70981">
        <ele>679.31</ele>
        <time>2022-08-08T11:37:34Z</time>
      </trkpt>
      <trkpt lat="44.27822" lon="3.70995">
        <ele>678.35</ele>
        <time>2022-08-08T11:37:47Z</time>
      </trkpt>
      <trkpt lat="44.27827" lon="3.71002">
        <ele>677.87</ele>
        <time>2022-08-08T11:37:54Z</time>
      </trkpt>
      <trkpt lat="44.27834" lon="3.71021">
        <ele>676.91</ele>
        <time>2022-08-08T11:38:08Z</time>
      </trkpt>
      <trkpt lat="44.27839" lon="3.71038">
        <ele>675.46</ele>
        <time>2022-08-08T11:38:20Z</time>
      </trkpt>
      <trkpt lat="44.27844" lon="3.71058">
        <ele>676.42</ele>
        <time>2022-08-08T11:38:37Z</time>
      </trkpt>
      <trkpt lat="44.27847" lon="3.71083">
        <ele>675.94</ele>
        <time>2022-08-08T11:38:53Z</time>
      </trkpt>
      <trkpt lat="44.27849" lon="3.71107">
        <ele>676.42</ele>
        <time>2022-08-08T11:39:07Z</time>
      </trkpt>
      <trkpt lat="44.27852" lon="3.71126">
        <ele>675.94</ele>
        <time>2022-08-08T11:39:19Z</time>
      </trkpt>
      <trkpt lat="44.27851" lon="3.71153">
        <ele>676.42</ele>
        <time>2022-08-08T11:39:33Z</time>
      </trkpt>
      <trkpt lat="44.27852" lon="3.71184">
        <ele>680.27</ele>
        <time>2022-08-08T11:39:48Z</time>
      </trkpt>
      <trkpt lat="44.27848" lon="3.71207">
        <ele>677.87</ele>
        <time>2022-08-08T11:40:02Z</time>
      </trkpt>
      <trkpt lat="44.27841" lon="3.71226">
        <ele>684.6</ele>
        <time>2022-08-08T11:40:14Z</time>
      </trkpt>
      <trkpt lat="44.27836" lon="3.71242">
        <ele>679.79</ele>
        <time>2022-08-08T11:40:28Z</time>
      </trkpt>
      <trkpt lat="44.27826" lon="3.71262">
        <ele>674.5</ele>
        <time>2022-08-08T11:40:42Z</time>
      </trkpt>
      <trkpt lat="44.27816" lon="3.71279">
        <ele>672.1</ele>
        <time>2022-08-08T11:40:56Z</time>
      </trkpt>
      <trkpt lat="44.27802" lon="3.71304">
        <ele>677.87</ele>
        <time>2022-08-08T11:41:12Z</time>
      </trkpt>
      <trkpt lat="44.27792" lon="3.71326">
        <ele>676.91</ele>
        <time>2022-08-08T11:41:27Z</time>
      </trkpt>
      <trkpt lat="44.27787" lon="3.71351">
        <ele>674.02</ele>
        <time>2022-08-08T11:41:42Z</time>
      </trkpt>
      <trkpt lat="44.27785" lon="3.71436">
        <ele>675.94</ele>
        <time>2022-08-08T11:42:36Z</time>
      </trkpt>
      <trkpt lat="44.278" lon="3.71458">
        <ele>682.19</ele>
        <time>2022-08-08T11:42:48Z</time>
      </trkpt>
      <trkpt lat="44.27805" lon="3.71482">
        <ele>681.71</ele>
        <time>2022-08-08T11:43:02Z</time>
      </trkpt>
      <trkpt lat="44.27813" lon="3.71505">
        <ele>682.19</ele>
        <time>2022-08-08T11:43:17Z</time>
      </trkpt>
      <trkpt lat="44.27818" lon="3.71528">
        <ele>679.79</ele>
        <time>2022-08-08T11:43:32Z</time>
      </trkpt>
      <trkpt lat="44.2782" lon="3.71546">
        <ele>678.35</ele>
        <time>2022-08-08T11:43:45Z</time>
      </trkpt>
      <trkpt lat="44.27819" lon="3.71567">
        <ele>674.5</ele>
        <time>2022-08-08T11:44:00Z</time>
      </trkpt>
      <trkpt lat="44.27819" lon="3.71569">
        <ele>674.02</ele>
        <time>2022-08-08T11:44:02Z</time>
      </trkpt>
      <trkpt lat="44.27816" lon="3.71591">
        <ele>673.54</ele>
        <time>2022-08-08T11:44:15Z</time>
      </trkpt>
      <trkpt lat="44.27809" lon="3.71614">
        <ele>674.98</ele>
        <time>2022-08-08T11:44:29Z</time>
      </trkpt>
      <trkpt lat="44.27804" lon="3.71636">
        <ele>673.54</ele>
        <time>2022-08-08T11:44:45Z</time>
      </trkpt>
      <trkpt lat="44.27802" lon="3.71659">
        <ele>670.66</ele>
        <time>2022-08-08T11:45:00Z</time>
      </trkpt>
      <trkpt lat="44.27802" lon="3.71675">
        <ele>670.18</ele>
        <time>2022-08-08T11:45:12Z</time>
      </trkpt>
      <trkpt lat="44.27801" lon="3.71695">
        <ele>674.02</ele>
        <time>2022-08-08T11:45:24Z</time>
      </trkpt>
      <trkpt lat="44.278" lon="3.71725">
        <ele>679.79</ele>
        <time>2022-08-08T11:45:39Z</time>
      </trkpt>
      <trkpt lat="44.278" lon="3.71747">
        <ele>680.27</ele>
        <time>2022-08-08T11:45:53Z</time>
      </trkpt>
      <trkpt lat="44.27801" lon="3.71766">
        <ele>680.75</ele>
        <time>2022-08-08T11:46:06Z</time>
      </trkpt>
      <trkpt lat="44.27802" lon="3.71792">
        <ele>681.71</ele>
        <time>2022-08-08T11:46:21Z</time>
      </trkpt>
      <trkpt lat="44.27801" lon="3.71814">
        <ele>682.67</ele>
        <time>2022-08-08T11:46:32Z</time>
      </trkpt>
      <trkpt lat="44.27801" lon="3.71834">
        <ele>680.75</ele>
        <time>2022-08-08T11:46:44Z</time>
      </trkpt>
      <trkpt lat="44.278" lon="3.71857">
        <ele>677.39</ele>
        <time>2022-08-08T11:46:58Z</time>
      </trkpt>
      <trkpt lat="44.27797" lon="3.71876">
        <ele>676.42</ele>
        <time>2022-08-08T11:47:09Z</time>
      </trkpt>
      <trkpt lat="44.27794" lon="3.71895">
        <ele>673.54</ele>
        <time>2022-08-08T11:47:22Z</time>
      </trkpt>
      <trkpt lat="44.27791" lon="3.71917">
        <ele>671.14</ele>
        <time>2022-08-08T11:47:34Z</time>
      </trkpt>
      <trkpt lat="44.27789" lon="3.71933">
        <ele>670.18</ele>
        <time>2022-08-08T11:47:46Z</time>
      </trkpt>
      <trkpt lat="44.27786" lon="3.71955">
        <ele>672.1</ele>
        <time>2022-08-08T11:47:59Z</time>
      </trkpt>
      <trkpt lat="44.27785" lon="3.71978">
        <ele>673.06</ele>
        <time>2022-08-08T11:48:14Z</time>
      </trkpt>
      <trkpt lat="44.27779" lon="3.72014">
        <ele>686.04</ele>
        <time>2022-08-08T11:48:27Z</time>
      </trkpt>
      <trkpt lat="44.27782" lon="3.72043">
        <ele>685.56</ele>
        <time>2022-08-08T11:48:43Z</time>
      </trkpt>
      <trkpt lat="44.27783" lon="3.72045">
        <ele>685.08</ele>
        <time>2022-08-08T11:48:44Z</time>
      </trkpt>
      <trkpt lat="44.27786" lon="3.72063">
        <ele>684.6</ele>
        <time>2022-08-08T11:48:58Z</time>
      </trkpt>
      <trkpt lat="44.27789" lon="3.72092">
        <ele>684.6</ele>
        <time>2022-08-08T11:49:12Z</time>
      </trkpt>
      <trkpt lat="44.27789" lon="3.721">
        <ele>684.6</ele>
        <time>2022-08-08T11:49:15Z</time>
      </trkpt>
      <trkpt lat="44.27792" lon="3.7213">
        <ele>686.52</ele>
        <time>2022-08-08T11:49:31Z</time>
      </trkpt>
      <trkpt lat="44.27794" lon="3.72152">
        <ele>689.88</ele>
        <time>2022-08-08T11:49:44Z</time>
      </trkpt>
      <trkpt lat="44.27796" lon="3.72161">
        <ele>689.88</ele>
        <time>2022-08-08T11:49:50Z</time>
      </trkpt>
      <trkpt lat="44.27802" lon="3.72186">
        <ele>687</ele>
        <time>2022-08-08T11:50:05Z</time>
      </trkpt>
      <trkpt lat="44.27804" lon="3.7221">
        <ele>686.04</ele>
        <time>2022-08-08T11:50:21Z</time>
      </trkpt>
      <trkpt lat="44.27807" lon="3.72238">
        <ele>683.15</ele>
        <time>2022-08-08T11:50:38Z</time>
      </trkpt>
      <trkpt lat="44.27807" lon="3.72259">
        <ele>680.75</ele>
        <time>2022-08-08T11:50:53Z</time>
      </trkpt>
      <trkpt lat="44.27806" lon="3.72271">
        <ele>680.75</ele>
        <time>2022-08-08T11:50:59Z</time>
      </trkpt>
      <trkpt lat="44.27801" lon="3.72293">
        <ele>682.19</ele>
        <time>2022-08-08T11:51:13Z</time>
      </trkpt>
      <trkpt lat="44.27796" lon="3.72312">
        <ele>681.71</ele>
        <time>2022-08-08T11:51:26Z</time>
      </trkpt>
      <trkpt lat="44.2779" lon="3.72334">
        <ele>684.12</ele>
        <time>2022-08-08T11:51:39Z</time>
      </trkpt>
      <trkpt lat="44.27784" lon="3.72353">
        <ele>685.08</ele>
        <time>2022-08-08T11:51:52Z</time>
      </trkpt>
      <trkpt lat="44.27771" lon="3.72376">
        <ele>687.48</ele>
        <time>2022-08-08T11:52:08Z</time>
      </trkpt>
      <trkpt lat="44.27759" lon="3.72392">
        <ele>685.08</ele>
        <time>2022-08-08T11:52:24Z</time>
      </trkpt>
      <trkpt lat="44.27743" lon="3.72405">
        <ele>684.12</ele>
        <time>2022-08-08T11:52:39Z</time>
      </trkpt>
      <trkpt lat="44.27733" lon="3.72417">
        <ele>680.75</ele>
        <time>2022-08-08T11:52:52Z</time>
      </trkpt>
      <trkpt lat="44.27721" lon="3.72425">
        <ele>674.02</ele>
        <time>2022-08-08T11:53:05Z</time>
      </trkpt>
      <trkpt lat="44.27712" lon="3.72429">
        <ele>668.73</ele>
        <time>2022-08-08T11:53:17Z</time>
      </trkpt>
      <trkpt lat="44.27699" lon="3.7244">
        <ele>667.29</ele>
        <time>2022-08-08T11:53:30Z</time>
      </trkpt>
      <trkpt lat="44.27688" lon="3.72454">
        <ele>664.89</ele>
        <time>2022-08-08T11:53:43Z</time>
      </trkpt>
      <trkpt lat="44.27683" lon="3.72457">
        <ele>664.89</ele>
        <time>2022-08-08T11:53:47Z</time>
      </trkpt>
      <trkpt lat="44.27669" lon="3.72471">
        <ele>667.77</ele>
        <time>2022-08-08T11:54:00Z</time>
      </trkpt>
      <trkpt lat="44.27668" lon="3.72472">
        <ele>668.25</ele>
        <time>2022-08-08T11:54:01Z</time>
      </trkpt>
      <trkpt lat="44.27655" lon="3.72476">
        <ele>674.5</ele>
        <time>2022-08-08T11:54:07Z</time>
      </trkpt>
      <trkpt lat="44.27653" lon="3.72478">
        <ele>674.98</ele>
        <time>2022-08-08T11:54:09Z</time>
      </trkpt>
      <trkpt lat="44.27636" lon="3.72495">
        <ele>683.15</ele>
        <time>2022-08-08T11:54:23Z</time>
      </trkpt>
      <trkpt lat="44.27617" lon="3.72513">
        <ele>690.36</ele>
        <time>2022-08-08T11:54:38Z</time>
      </trkpt>
      <trkpt lat="44.27616" lon="3.72514">
        <ele>690.36</ele>
        <time>2022-08-08T11:54:39Z</time>
      </trkpt>
      <trkpt lat="44.27603" lon="3.72532">
        <ele>687.96</ele>
        <time>2022-08-08T11:54:55Z</time>
      </trkpt>
      <trkpt lat="44.27589" lon="3.72549">
        <ele>688.92</ele>
        <time>2022-08-08T11:55:10Z</time>
      </trkpt>
      <trkpt lat="44.27578" lon="3.72562">
        <ele>687</ele>
        <time>2022-08-08T11:55:22Z</time>
      </trkpt>
      <trkpt lat="44.27566" lon="3.72576">
        <ele>688.44</ele>
        <time>2022-08-08T11:55:36Z</time>
      </trkpt>
      <trkpt lat="44.27554" lon="3.72596">
        <ele>691.33</ele>
        <time>2022-08-08T11:55:50Z</time>
      </trkpt>
      <trkpt lat="44.27543" lon="3.72617">
        <ele>692.29</ele>
        <time>2022-08-08T11:56:05Z</time>
      </trkpt>
      <trkpt lat="44.27534" lon="3.72637">
        <ele>692.77</ele>
        <time>2022-08-08T11:56:18Z</time>
      </trkpt>
      <trkpt lat="44.27527" lon="3.7266">
        <ele>692.29</ele>
        <time>2022-08-08T11:56:32Z</time>
      </trkpt>
      <trkpt lat="44.27519" lon="3.72683">
        <ele>691.81</ele>
        <time>2022-08-08T11:56:46Z</time>
      </trkpt>
      <trkpt lat="44.27511" lon="3.72699">
        <ele>692.29</ele>
        <time>2022-08-08T11:56:58Z</time>
      </trkpt>
      <trkpt lat="44.27502" lon="3.72723">
        <ele>691.33</ele>
        <time>2022-08-08T11:57:14Z</time>
      </trkpt>
      <trkpt lat="44.27494" lon="3.72747">
        <ele>690.84</ele>
        <time>2022-08-08T11:57:28Z</time>
      </trkpt>
      <trkpt lat="44.27488" lon="3.72773">
        <ele>692.29</ele>
        <time>2022-08-08T11:57:43Z</time>
      </trkpt>
      <trkpt lat="44.27486" lon="3.72805">
        <ele>692.77</ele>
        <time>2022-08-08T11:58:02Z</time>
      </trkpt>
      <trkpt lat="44.27485" lon="3.72828">
        <ele>692.29</ele>
        <time>2022-08-08T11:58:16Z</time>
      </trkpt>
      <trkpt lat="44.27484" lon="3.72843">
        <ele>693.25</ele>
        <time>2022-08-08T11:58:25Z</time>
      </trkpt>
      <trkpt lat="44.27483" lon="3.72846">
        <ele>693.25</ele>
        <time>2022-08-08T11:58:27Z</time>
      </trkpt>
      <trkpt lat="44.27481" lon="3.72874">
        <ele>692.29</ele>
        <time>2022-08-08T11:58:44Z</time>
      </trkpt>
      <trkpt lat="44.27476" lon="3.72897">
        <ele>692.77</ele>
        <time>2022-08-08T11:58:56Z</time>
      </trkpt>
      <trkpt lat="44.27474" lon="3.72915">
        <ele>692.77</ele>
        <time>2022-08-08T11:59:07Z</time>
      </trkpt>
      <trkpt lat="44.2747" lon="3.72924">
        <ele>694.21</ele>
        <time>2022-08-08T11:59:12Z</time>
      </trkpt>
      <trkpt lat="44.27458" lon="3.72945">
        <ele>696.61</ele>
        <time>2022-08-08T11:59:26Z</time>
      </trkpt>
      <trkpt lat="44.27452" lon="3.72954">
        <ele>696.61</ele>
        <time>2022-08-08T11:59:33Z</time>
      </trkpt>
      <trkpt lat="44.27449" lon="3.72956">
        <ele>697.09</ele>
        <time>2022-08-08T11:59:36Z</time>
      </trkpt>
      <trkpt lat="44.27447" lon="3.72958">
        <ele>696.61</ele>
        <time>2022-08-08T11:59:38Z</time>
      </trkpt>
      <trkpt lat="44.27434" lon="3.72971">
        <ele>692.77</ele>
        <time>2022-08-08T11:59:53Z</time>
      </trkpt>
      <trkpt lat="44.27419" lon="3.72978">
        <ele>692.77</ele>
        <time>2022-08-08T12:00:05Z</time>
      </trkpt>
      <trkpt lat="44.27418" lon="3.72978">
        <ele>692.77</ele>
        <time>2022-08-08T12:00:06Z</time>
      </trkpt>
      <trkpt lat="44.27401" lon="3.72981">
        <ele>690.36</ele>
        <time>2022-08-08T12:00:21Z</time>
      </trkpt>
      <trkpt lat="44.27385" lon="3.7298">
        <ele>687.96</ele>
        <time>2022-08-08T12:00:35Z</time>
      </trkpt>
      <trkpt lat="44.27373" lon="3.72981">
        <ele>685.56</ele>
        <time>2022-08-08T12:00:48Z</time>
      </trkpt>
      <trkpt lat="44.27359" lon="3.72977">
        <ele>685.08</ele>
        <time>2022-08-08T12:01:01Z</time>
      </trkpt>
      <trkpt lat="44.27338" lon="3.72972">
        <ele>686.52</ele>
        <time>2022-08-08T12:01:15Z</time>
      </trkpt>
      <trkpt lat="44.27314" lon="3.72966">
        <ele>686.52</ele>
        <time>2022-08-08T12:01:30Z</time>
      </trkpt>
      <trkpt lat="44.27302" lon="3.72965">
        <ele>685.56</ele>
        <time>2022-08-08T12:01:39Z</time>
      </trkpt>
      <trkpt lat="44.2729" lon="3.72963">
        <ele>685.08</ele>
        <time>2022-08-08T12:01:48Z</time>
      </trkpt>
      <trkpt lat="44.27287" lon="3.72963">
        <ele>684.6</ele>
        <time>2022-08-08T12:01:50Z</time>
      </trkpt>
      <trkpt lat="44.27273" lon="3.72963">
        <ele>682.19</ele>
        <time>2022-08-08T12:02:03Z</time>
      </trkpt>
      <trkpt lat="44.27259" lon="3.72962">
        <ele>677.39</ele>
        <time>2022-08-08T12:02:18Z</time>
      </trkpt>
      <trkpt lat="44.2724" lon="3.72966">
        <ele>674.02</ele>
        <time>2022-08-08T12:02:32Z</time>
      </trkpt>
      <trkpt lat="44.2723" lon="3.72974">
        <ele>678.35</ele>
        <time>2022-08-08T12:02:38Z</time>
      </trkpt>
      <trkpt lat="44.2721" lon="3.72987">
        <ele>683.63</ele>
        <time>2022-08-08T12:02:52Z</time>
      </trkpt>
      <trkpt lat="44.27204" lon="3.7299">
        <ele>683.63</ele>
        <time>2022-08-08T12:02:57Z</time>
      </trkpt>
      <trkpt lat="44.27185" lon="3.73004">
        <ele>688.44</ele>
        <time>2022-08-08T12:03:12Z</time>
      </trkpt>
      <trkpt lat="44.27175" lon="3.73013">
        <ele>689.4</ele>
        <time>2022-08-08T12:03:22Z</time>
      </trkpt>
      <trkpt lat="44.27161" lon="3.73025">
        <ele>689.4</ele>
        <time>2022-08-08T12:03:35Z</time>
      </trkpt>
      <trkpt lat="44.27148" lon="3.73036">
        <ele>689.88</ele>
        <time>2022-08-08T12:03:48Z</time>
      </trkpt>
      <trkpt lat="44.27145" lon="3.73039">
        <ele>690.36</ele>
        <time>2022-08-08T12:03:51Z</time>
      </trkpt>
      <trkpt lat="44.27142" lon="3.7304">
        <ele>690.36</ele>
        <time>2022-08-08T12:03:54Z</time>
      </trkpt>
      <trkpt lat="44.27137" lon="3.7305">
        <ele>691.33</ele>
        <time>2022-08-08T12:04:02Z</time>
      </trkpt>
      <trkpt lat="44.27136" lon="3.73061">
        <ele>692.77</ele>
        <time>2022-08-08T12:04:09Z</time>
      </trkpt>
      <trkpt lat="44.27139" lon="3.73068">
        <ele>692.29</ele>
        <time>2022-08-08T12:04:16Z</time>
      </trkpt>
      <trkpt lat="44.27144" lon="3.73075">
        <ele>689.4</ele>
        <time>2022-08-08T12:04:29Z</time>
      </trkpt>
      <trkpt lat="44.27153" lon="3.73066">
        <ele>687.96</ele>
        <time>2022-08-08T12:04:42Z</time>
      </trkpt>
      <trkpt lat="44.27164" lon="3.73053">
        <ele>689.4</ele>
        <time>2022-08-08T12:04:57Z</time>
      </trkpt>
      <trkpt lat="44.27166" lon="3.7305">
        <ele>692.29</ele>
        <time>2022-08-08T12:05:16Z</time>
      </trkpt>
      <trkpt lat="44.27169" lon="3.73052">
        <ele>692.77</ele>
        <time>2022-08-08T12:05:32Z</time>
      </trkpt>
      <trkpt lat="44.2717" lon="3.73041">
        <ele>693.73</ele>
        <time>2022-08-08T12:05:47Z</time>
      </trkpt>
      <trkpt lat="44.27165" lon="3.73031">
        <ele>695.65</ele>
        <time>2022-08-08T12:06:11Z</time>
      </trkpt>
      <trkpt lat="44.27163" lon="3.73028">
        <ele>694.69</ele>
        <time>2022-08-08T12:06:30Z</time>
      </trkpt>
      <trkpt lat="44.27167" lon="3.73036">
        <ele>694.69</ele>
        <time>2022-08-08T12:06:53Z</time>
      </trkpt>
      <trkpt lat="44.27172" lon="3.73043">
        <ele>692.29</ele>
        <time>2022-08-08T12:07:14Z</time>
      </trkpt>
      <trkpt lat="44.27171" lon="3.73046">
        <ele>684.6</ele>
        <time>2022-08-08T12:07:40Z</time>
      </trkpt>
      <trkpt lat="44.27167" lon="3.73032">
        <ele>675.94</ele>
        <time>2022-08-08T12:08:02Z</time>
      </trkpt>
      <trkpt lat="44.27168" lon="3.73037">
        <ele>678.35</ele>
        <time>2022-08-08T12:08:28Z</time>
      </trkpt>
      <trkpt lat="44.27169" lon="3.73032">
        <ele>676.42</ele>
        <time>2022-08-08T12:08:47Z</time>
      </trkpt>
      <trkpt lat="44.27162" lon="3.73011">
        <ele>668.25</ele>
        <time>2022-08-08T12:09:11Z</time>
      </trkpt>
      <trkpt lat="44.27157" lon="3.72998">
        <ele>668.73</ele>
        <time>2022-08-08T12:10:16Z</time>
      </trkpt>
      <trkpt lat="44.2715" lon="3.72976">
        <ele>668.73</ele>
        <time>2022-08-08T12:10:38Z</time>
      </trkpt>
      <trkpt lat="44.27168" lon="3.73023">
        <ele>692.77</ele>
        <time>2022-08-08T12:11:03Z</time>
      </trkpt>
      <trkpt lat="44.27177" lon="3.73044">
        <ele>702.38</ele>
        <time>2022-08-08T12:11:12Z</time>
      </trkpt>
      <trkpt lat="44.27176" lon="3.73044">
        <ele>702.86</ele>
        <time>2022-08-08T12:11:25Z</time>
      </trkpt>
      <trkpt lat="44.27177" lon="3.73048">
        <ele>705.75</ele>
        <time>2022-08-08T12:12:08Z</time>
      </trkpt>
      <trkpt lat="44.27179" lon="3.73044">
        <ele>705.75</ele>
        <time>2022-08-08T12:12:51Z</time>
      </trkpt>
      <trkpt lat="44.27182" lon="3.73048">
        <ele>697.09</ele>
        <time>2022-08-08T12:13:27Z</time>
      </trkpt>
      <trkpt lat="44.27179" lon="3.73027">
        <ele>691.33</ele>
        <time>2022-08-08T12:14:11Z</time>
      </trkpt>
      <trkpt lat="44.27181" lon="3.73033">
        <ele>690.84</ele>
        <time>2022-08-08T12:14:47Z</time>
      </trkpt>
      <trkpt lat="44.27181" lon="3.73032">
        <ele>692.77</ele>
        <time>2022-08-08T12:15:25Z</time>
      </trkpt>
      <trkpt lat="44.27175" lon="3.73026">
        <ele>691.81</ele>
        <time>2022-08-08T12:16:04Z</time>
      </trkpt>
      <trkpt lat="44.27175" lon="3.73027">
        <ele>694.21</ele>
        <time>2022-08-08T12:16:41Z</time>
      </trkpt>
      <trkpt lat="44.27178" lon="3.73031">
        <ele>696.13</ele>
        <time>2022-08-08T12:17:17Z</time>
      </trkpt>
      <trkpt lat="44.27178" lon="3.7303">
        <ele>694.69</ele>
        <time>2022-08-08T12:17:58Z</time>
      </trkpt>
      <trkpt lat="44.27174" lon="3.73021">
        <ele>691.81</ele>
        <time>2022-08-08T12:18:35Z</time>
      </trkpt>
      <trkpt lat="44.27176" lon="3.73017">
        <ele>688.92</ele>
        <time>2022-08-08T12:19:13Z</time>
      </trkpt>
      <trkpt lat="44.2718" lon="3.73036">
        <ele>686.52</ele>
        <time>2022-08-08T12:19:54Z</time>
      </trkpt>
      <trkpt lat="44.27176" lon="3.73026">
        <ele>693.25</ele>
        <time>2022-08-08T12:20:37Z</time>
      </trkpt>
      <trkpt lat="44.27179" lon="3.73034">
        <ele>696.13</ele>
        <time>2022-08-08T12:21:09Z</time>
      </trkpt>
      <trkpt lat="44.27181" lon="3.73035">
        <ele>694.21</ele>
        <time>2022-08-08T12:21:53Z</time>
      </trkpt>
      <trkpt lat="44.27181" lon="3.73037">
        <ele>696.61</ele>
        <time>2022-08-08T12:22:32Z</time>
      </trkpt>
      <trkpt lat="44.27176" lon="3.73028">
        <ele>700.94</ele>
        <time>2022-08-08T12:23:08Z</time>
      </trkpt>
      <trkpt lat="44.2718" lon="3.73029">
        <ele>699.5</ele>
        <time>2022-08-08T12:23:48Z</time>
      </trkpt>
      <trkpt lat="44.27183" lon="3.73034">
        <ele>700.46</ele>
        <time>2022-08-08T12:24:29Z</time>
      </trkpt>
      <trkpt lat="44.27176" lon="3.73026">
        <ele>704.78</ele>
        <time>2022-08-08T12:25:06Z</time>
      </trkpt>
      <trkpt lat="44.27178" lon="3.73029">
        <ele>699.5</ele>
        <time>2022-08-08T12:25:33Z</time>
      </trkpt>
      <trkpt lat="44.27178" lon="3.7303">
        <ele>702.38</ele>
        <time>2022-08-08T12:25:56Z</time>
      </trkpt>
      <trkpt lat="44.27186" lon="3.73031">
        <ele>704.78</ele>
        <time>2022-08-08T12:26:24Z</time>
      </trkpt>
      <trkpt lat="44.27186" lon="3.73039">
        <ele>700.46</ele>
        <time>2022-08-08T12:26:56Z</time>
      </trkpt>
      <trkpt lat="44.27181" lon="3.73038">
        <ele>699.5</ele>
        <time>2022-08-08T12:27:23Z</time>
      </trkpt>
      <trkpt lat="44.27177" lon="3.73033">
        <ele>700.94</ele>
        <time>2022-08-08T12:27:47Z</time>
      </trkpt>
      <trkpt lat="44.27174" lon="3.73035">
        <ele>700.46</ele>
        <time>2022-08-08T12:28:05Z</time>
      </trkpt>
      <trkpt lat="44.27174" lon="3.73042">
        <ele>703.34</ele>
        <time>2022-08-08T12:28:27Z</time>
      </trkpt>
      <trkpt lat="44.27168" lon="3.73034">
        <ele>700.94</ele>
        <time>2022-08-08T12:28:59Z</time>
      </trkpt>
      <trkpt lat="44.27164" lon="3.73033">
        <ele>699.5</ele>
        <time>2022-08-08T12:29:04Z</time>
      </trkpt>
      <trkpt lat="44.27157" lon="3.73046">
        <ele>700.46</ele>
        <time>2022-08-08T12:29:16Z</time>
      </trkpt>
      <trkpt lat="44.27152" lon="3.73057">
        <ele>702.38</ele>
        <time>2022-08-08T12:29:24Z</time>
      </trkpt>
      <trkpt lat="44.27139" lon="3.73062">
        <ele>700.46</ele>
        <time>2022-08-08T12:29:36Z</time>
      </trkpt>
      <trkpt lat="44.2713" lon="3.73057">
        <ele>699.02</ele>
        <time>2022-08-08T12:29:48Z</time>
      </trkpt>
      <trkpt lat="44.2712" lon="3.73046">
        <ele>698.05</ele>
        <time>2022-08-08T12:30:00Z</time>
      </trkpt>
      <trkpt lat="44.2711" lon="3.73037">
        <ele>699.5</ele>
        <time>2022-08-08T12:30:13Z</time>
      </trkpt>
      <trkpt lat="44.27107" lon="3.73035">
        <ele>699.02</ele>
        <time>2022-08-08T12:30:17Z</time>
      </trkpt>
      <trkpt lat="44.27097" lon="3.73024">
        <ele>695.65</ele>
        <time>2022-08-08T12:30:30Z</time>
      </trkpt>
      <trkpt lat="44.27086" lon="3.73013">
        <ele>691.81</ele>
        <time>2022-08-08T12:30:43Z</time>
      </trkpt>
      <trkpt lat="44.27081" lon="3.73007">
        <ele>691.33</ele>
        <time>2022-08-08T12:30:49Z</time>
      </trkpt>
      <trkpt lat="44.27068" lon="3.73003">
        <ele>693.25</ele>
        <time>2022-08-08T12:31:01Z</time>
      </trkpt>
      <trkpt lat="44.27058" lon="3.73012">
        <ele>693.25</ele>
        <time>2022-08-08T12:31:12Z</time>
      </trkpt>
      <trkpt lat="44.27046" lon="3.73031">
        <ele>694.21</ele>
        <time>2022-08-08T12:31:27Z</time>
      </trkpt>
      <trkpt lat="44.27045" lon="3.73033">
        <ele>694.21</ele>
        <time>2022-08-08T12:31:29Z</time>
      </trkpt>
      <trkpt lat="44.27043" lon="3.73036">
        <ele>694.21</ele>
        <time>2022-08-08T12:31:32Z</time>
      </trkpt>
      <trkpt lat="44.27031" lon="3.73057">
        <ele>693.73</ele>
        <time>2022-08-08T12:31:48Z</time>
      </trkpt>
      <trkpt lat="44.27016" lon="3.7307">
        <ele>694.69</ele>
        <time>2022-08-08T12:32:07Z</time>
      </trkpt>
      <trkpt lat="44.27003" lon="3.7308">
        <ele>696.13</ele>
        <time>2022-08-08T12:32:20Z</time>
      </trkpt>
      <trkpt lat="44.26985" lon="3.73081">
        <ele>697.09</ele>
        <time>2022-08-08T12:32:34Z</time>
      </trkpt>
      <trkpt lat="44.26971" lon="3.7308">
        <ele>691.81</ele>
        <time>2022-08-08T12:32:50Z</time>
      </trkpt>
      <trkpt lat="44.26956" lon="3.73072">
        <ele>685.56</ele>
        <time>2022-08-08T12:33:07Z</time>
      </trkpt>
      <trkpt lat="44.26942" lon="3.73068">
        <ele>686.04</ele>
        <time>2022-08-08T12:33:21Z</time>
      </trkpt>
      <trkpt lat="44.26929" lon="3.73067">
        <ele>687.48</ele>
        <time>2022-08-08T12:33:34Z</time>
      </trkpt>
      <trkpt lat="44.2692" lon="3.73064">
        <ele>689.88</ele>
        <time>2022-08-08T12:33:40Z</time>
      </trkpt>
      <trkpt lat="44.26907" lon="3.73064">
        <ele>691.81</ele>
        <time>2022-08-08T12:33:53Z</time>
      </trkpt>
      <trkpt lat="44.26891" lon="3.7307">
        <ele>695.65</ele>
        <time>2022-08-08T12:34:06Z</time>
      </trkpt>
      <trkpt lat="44.26881" lon="3.73096">
        <ele>699.98</ele>
        <time>2022-08-08T12:34:19Z</time>
      </trkpt>
      <trkpt lat="44.26876" lon="3.73104">
        <ele>702.86</ele>
        <time>2022-08-08T12:34:33Z</time>
      </trkpt>
      <trkpt lat="44.26901" lon="3.7312">
        <ele>706.23</ele>
        <time>2022-08-08T12:34:50Z</time>
      </trkpt>
      <trkpt lat="44.26921" lon="3.73136">
        <ele>708.63</ele>
        <time>2022-08-08T12:35:08Z</time>
      </trkpt>
      <trkpt lat="44.2694" lon="3.7315">
        <ele>711.03</ele>
        <time>2022-08-08T12:35:27Z</time>
      </trkpt>
      <trkpt lat="44.26956" lon="3.73164">
        <ele>708.63</ele>
        <time>2022-08-08T12:35:45Z</time>
      </trkpt>
      <trkpt lat="44.26977" lon="3.73178">
        <ele>708.63</ele>
        <time>2022-08-08T12:36:05Z</time>
      </trkpt>
      <trkpt lat="44.26989" lon="3.73192">
        <ele>703.82</ele>
        <time>2022-08-08T12:36:20Z</time>
      </trkpt>
      <trkpt lat="44.26996" lon="3.73207">
        <ele>700.46</ele>
        <time>2022-08-08T12:36:34Z</time>
      </trkpt>
      <trkpt lat="44.27001" lon="3.73224">
        <ele>698.05</ele>
        <time>2022-08-08T12:36:48Z</time>
      </trkpt>
      <trkpt lat="44.27001" lon="3.73245">
        <ele>699.02</ele>
        <time>2022-08-08T12:37:02Z</time>
      </trkpt>
      <trkpt lat="44.27002" lon="3.73254">
        <ele>699.5</ele>
        <time>2022-08-08T12:37:08Z</time>
      </trkpt>
      <trkpt lat="44.27003" lon="3.73274">
        <ele>699.98</ele>
        <time>2022-08-08T12:37:22Z</time>
      </trkpt>
      <trkpt lat="44.27004" lon="3.7329">
        <ele>699.02</ele>
        <time>2022-08-08T12:37:35Z</time>
      </trkpt>
      <trkpt lat="44.27002" lon="3.7331">
        <ele>699.98</ele>
        <time>2022-08-08T12:37:48Z</time>
      </trkpt>
      <trkpt lat="44.26994" lon="3.73331">
        <ele>702.38</ele>
        <time>2022-08-08T12:38:03Z</time>
      </trkpt>
      <trkpt lat="44.26986" lon="3.73346">
        <ele>704.3</ele>
        <time>2022-08-08T12:38:16Z</time>
      </trkpt>
      <trkpt lat="44.26973" lon="3.73365">
        <ele>706.23</ele>
        <time>2022-08-08T12:38:33Z</time>
      </trkpt>
      <trkpt lat="44.26961" lon="3.73381">
        <ele>706.71</ele>
        <time>2022-08-08T12:38:49Z</time>
      </trkpt>
      <trkpt lat="44.26949" lon="3.734">
        <ele>705.26</ele>
        <time>2022-08-08T12:39:08Z</time>
      </trkpt>
      <trkpt lat="44.26938" lon="3.73415">
        <ele>706.71</ele>
        <time>2022-08-08T12:39:24Z</time>
      </trkpt>
      <trkpt lat="44.26924" lon="3.73429">
        <ele>709.11</ele>
        <time>2022-08-08T12:39:41Z</time>
      </trkpt>
      <trkpt lat="44.26909" lon="3.73443">
        <ele>710.07</ele>
        <time>2022-08-08T12:39:58Z</time>
      </trkpt>
      <trkpt lat="44.26898" lon="3.73452">
        <ele>710.55</ele>
        <time>2022-08-08T12:40:13Z</time>
      </trkpt>
      <trkpt lat="44.26888" lon="3.73463">
        <ele>712.47</ele>
        <time>2022-08-08T12:40:27Z</time>
      </trkpt>
      <trkpt lat="44.26875" lon="3.73475">
        <ele>715.84</ele>
        <time>2022-08-08T12:40:43Z</time>
      </trkpt>
      <trkpt lat="44.26863" lon="3.73485">
        <ele>717.76</ele>
        <time>2022-08-08T12:40:59Z</time>
      </trkpt>
      <trkpt lat="44.26856" lon="3.7351">
        <ele>720.65</ele>
        <time>2022-08-08T12:41:18Z</time>
      </trkpt>
      <trkpt lat="44.26849" lon="3.73528">
        <ele>720.65</ele>
        <time>2022-08-08T12:41:33Z</time>
      </trkpt>
      <trkpt lat="44.26835" lon="3.73541">
        <ele>721.61</ele>
        <time>2022-08-08T12:41:51Z</time>
      </trkpt>
      <trkpt lat="44.26825" lon="3.73558">
        <ele>723.53</ele>
        <time>2022-08-08T12:42:07Z</time>
      </trkpt>
      <trkpt lat="44.26822" lon="3.7358">
        <ele>723.53</ele>
        <time>2022-08-08T12:42:24Z</time>
      </trkpt>
      <trkpt lat="44.26818" lon="3.73604">
        <ele>724.97</ele>
        <time>2022-08-08T12:42:40Z</time>
      </trkpt>
      <trkpt lat="44.26816" lon="3.73614">
        <ele>725.45</ele>
        <time>2022-08-08T12:42:50Z</time>
      </trkpt>
      <trkpt lat="44.26813" lon="3.73615">
        <ele>726.41</ele>
        <time>2022-08-08T12:42:54Z</time>
      </trkpt>
      <trkpt lat="44.26799" lon="3.73601">
        <ele>729.78</ele>
        <time>2022-08-08T12:43:11Z</time>
      </trkpt>
      <trkpt lat="44.26783" lon="3.73592">
        <ele>735.55</ele>
        <time>2022-08-08T12:43:29Z</time>
      </trkpt>
      <trkpt lat="44.26767" lon="3.73579">
        <ele>737.95</ele>
        <time>2022-08-08T12:43:50Z</time>
      </trkpt>
      <trkpt lat="44.26754" lon="3.73571">
        <ele>738.91</ele>
        <time>2022-08-08T12:44:06Z</time>
      </trkpt>
      <trkpt lat="44.26738" lon="3.7356">
        <ele>738.43</ele>
        <time>2022-08-08T12:44:25Z</time>
      </trkpt>
      <trkpt lat="44.26727" lon="3.73552">
        <ele>735.07</ele>
        <time>2022-08-08T12:44:39Z</time>
      </trkpt>
      <trkpt lat="44.26714" lon="3.73546">
        <ele>736.51</ele>
        <time>2022-08-08T12:44:53Z</time>
      </trkpt>
      <trkpt lat="44.26699" lon="3.73548">
        <ele>740.35</ele>
        <time>2022-08-08T12:45:07Z</time>
      </trkpt>
      <trkpt lat="44.26681" lon="3.73548">
        <ele>743.72</ele>
        <time>2022-08-08T12:45:26Z</time>
      </trkpt>
      <trkpt lat="44.26667" lon="3.73544">
        <ele>745.64</ele>
        <time>2022-08-08T12:45:44Z</time>
      </trkpt>
      <trkpt lat="44.26653" lon="3.73539">
        <ele>745.64</ele>
        <time>2022-08-08T12:45:58Z</time>
      </trkpt>
      <trkpt lat="44.26641" lon="3.73531">
        <ele>745.64</ele>
        <time>2022-08-08T12:46:15Z</time>
      </trkpt>
      <trkpt lat="44.26629" lon="3.73524">
        <ele>747.08</ele>
        <time>2022-08-08T12:46:32Z</time>
      </trkpt>
      <trkpt lat="44.26604" lon="3.73537">
        <ele>753.81</ele>
        <time>2022-08-08T12:46:51Z</time>
      </trkpt>
      <trkpt lat="44.26591" lon="3.73543">
        <ele>753.81</ele>
        <time>2022-08-08T12:47:07Z</time>
      </trkpt>
      <trkpt lat="44.26579" lon="3.7355">
        <ele>751.89</ele>
        <time>2022-08-08T12:47:23Z</time>
      </trkpt>
      <trkpt lat="44.26564" lon="3.73562">
        <ele>749.97</ele>
        <time>2022-08-08T12:47:41Z</time>
      </trkpt>
      <trkpt lat="44.26547" lon="3.73575">
        <ele>753.33</ele>
        <time>2022-08-08T12:47:57Z</time>
      </trkpt>
      <trkpt lat="44.2653" lon="3.73576">
        <ele>750.93</ele>
        <time>2022-08-08T12:48:15Z</time>
      </trkpt>
      <trkpt lat="44.26514" lon="3.73565">
        <ele>749.49</ele>
        <time>2022-08-08T12:48:34Z</time>
      </trkpt>
      <trkpt lat="44.26524" lon="3.73557">
        <ele>754.77</ele>
        <time>2022-08-08T12:48:49Z</time>
      </trkpt>
      <trkpt lat="44.26538" lon="3.73556">
        <ele>757.66</ele>
        <time>2022-08-08T12:49:06Z</time>
      </trkpt>
      <trkpt lat="44.26554" lon="3.73545">
        <ele>762.46</ele>
        <time>2022-08-08T12:49:21Z</time>
      </trkpt>
      <trkpt lat="44.26563" lon="3.73533">
        <ele>765.83</ele>
        <time>2022-08-08T12:49:34Z</time>
      </trkpt>
      <trkpt lat="44.26571" lon="3.73523">
        <ele>767.27</ele>
        <time>2022-08-08T12:49:48Z</time>
      </trkpt>
      <trkpt lat="44.26582" lon="3.73511">
        <ele>770.63</ele>
        <time>2022-08-08T12:50:02Z</time>
      </trkpt>
      <trkpt lat="44.26592" lon="3.73498">
        <ele>771.11</ele>
        <time>2022-08-08T12:50:16Z</time>
      </trkpt>
      <trkpt lat="44.26604" lon="3.73483">
        <ele>771.11</ele>
        <time>2022-08-08T12:50:32Z</time>
      </trkpt>
      <trkpt lat="44.26608" lon="3.73476">
        <ele>772.56</ele>
        <time>2022-08-08T12:50:40Z</time>
      </trkpt>
      <trkpt lat="44.26618" lon="3.73466">
        <ele>775.44</ele>
        <time>2022-08-08T12:50:55Z</time>
      </trkpt>
      <trkpt lat="44.26629" lon="3.73473">
        <ele>776.88</ele>
        <time>2022-08-08T12:51:06Z</time>
      </trkpt>
      <trkpt lat="44.26645" lon="3.73473">
        <ele>776.88</ele>
        <time>2022-08-08T12:51:21Z</time>
      </trkpt>
      <trkpt lat="44.2666" lon="3.73468">
        <ele>777.36</ele>
        <time>2022-08-08T12:51:37Z</time>
      </trkpt>
      <trkpt lat="44.26677" lon="3.73468">
        <ele>777.84</ele>
        <time>2022-08-08T12:51:53Z</time>
      </trkpt>
      <trkpt lat="44.26689" lon="3.73471">
        <ele>780.25</ele>
        <time>2022-08-08T12:52:09Z</time>
      </trkpt>
      <trkpt lat="44.26703" lon="3.73471">
        <ele>783.13</ele>
        <time>2022-08-08T12:52:23Z</time>
      </trkpt>
      <trkpt lat="44.26718" lon="3.73467">
        <ele>780.73</ele>
        <time>2022-08-08T12:52:38Z</time>
      </trkpt>
      <trkpt lat="44.26733" lon="3.73468">
        <ele>779.77</ele>
        <time>2022-08-08T12:52:54Z</time>
      </trkpt>
      <trkpt lat="44.2675" lon="3.73465">
        <ele>781.69</ele>
        <time>2022-08-08T12:53:10Z</time>
      </trkpt>
      <trkpt lat="44.26765" lon="3.73455">
        <ele>784.09</ele>
        <time>2022-08-08T12:53:26Z</time>
      </trkpt>
      <trkpt lat="44.2677" lon="3.73449">
        <ele>784.57</ele>
        <time>2022-08-08T12:53:32Z</time>
      </trkpt>
      <trkpt lat="44.26779" lon="3.73431">
        <ele>787.94</ele>
        <time>2022-08-08T12:53:49Z</time>
      </trkpt>
      <trkpt lat="44.26784" lon="3.73413">
        <ele>789.86</ele>
        <time>2022-08-08T12:54:05Z</time>
      </trkpt>
      <trkpt lat="44.2679" lon="3.7339">
        <ele>790.34</ele>
        <time>2022-08-08T12:54:23Z</time>
      </trkpt>
      <trkpt lat="44.26794" lon="3.73377">
        <ele>792.26</ele>
        <time>2022-08-08T12:54:35Z</time>
      </trkpt>
      <trkpt lat="44.268" lon="3.7336">
        <ele>796.11</ele>
        <time>2022-08-08T12:54:50Z</time>
      </trkpt>
      <trkpt lat="44.26807" lon="3.73348">
        <ele>797.55</ele>
        <time>2022-08-08T12:55:05Z</time>
      </trkpt>
      <trkpt lat="44.26814" lon="3.73335">
        <ele>799.95</ele>
        <time>2022-08-08T12:55:20Z</time>
      </trkpt>
      <trkpt lat="44.26824" lon="3.73313">
        <ele>800.44</ele>
        <time>2022-08-08T12:55:37Z</time>
      </trkpt>
      <trkpt lat="44.26827" lon="3.73294">
        <ele>802.36</ele>
        <time>2022-08-08T12:55:51Z</time>
      </trkpt>
      <trkpt lat="44.26828" lon="3.73293">
        <ele>802.36</ele>
        <time>2022-08-08T12:55:52Z</time>
      </trkpt>
      <trkpt lat="44.26826" lon="3.73276">
        <ele>801.88</ele>
        <time>2022-08-08T12:56:04Z</time>
      </trkpt>
      <trkpt lat="44.26815" lon="3.73261">
        <ele>803.8</ele>
        <time>2022-08-08T12:56:19Z</time>
      </trkpt>
      <trkpt lat="44.26801" lon="3.73248">
        <ele>803.8</ele>
        <time>2022-08-08T12:56:35Z</time>
      </trkpt>
      <trkpt lat="44.26792" lon="3.7325">
        <ele>803.32</ele>
        <time>2022-08-08T12:56:46Z</time>
      </trkpt>
      <trkpt lat="44.2678" lon="3.73256">
        <ele>804.76</ele>
        <time>2022-08-08T12:57:00Z</time>
      </trkpt>
      <trkpt lat="44.26763" lon="3.73257">
        <ele>805.24</ele>
        <time>2022-08-08T12:57:14Z</time>
      </trkpt>
      <trkpt lat="44.26749" lon="3.73255">
        <ele>804.28</ele>
        <time>2022-08-08T12:57:28Z</time>
      </trkpt>
      <trkpt lat="44.26736" lon="3.73256">
        <ele>805.24</ele>
        <time>2022-08-08T12:57:43Z</time>
      </trkpt>
      <trkpt lat="44.26723" lon="3.73255">
        <ele>807.16</ele>
        <time>2022-08-08T12:57:58Z</time>
      </trkpt>
      <trkpt lat="44.26711" lon="3.73257">
        <ele>808.13</ele>
        <time>2022-08-08T12:58:13Z</time>
      </trkpt>
      <trkpt lat="44.26705" lon="3.73256">
        <ele>809.09</ele>
        <time>2022-08-08T12:58:18Z</time>
      </trkpt>
      <trkpt lat="44.26687" lon="3.73256">
        <ele>811.01</ele>
        <time>2022-08-08T12:58:35Z</time>
      </trkpt>
      <trkpt lat="44.26675" lon="3.73258">
        <ele>811.97</ele>
        <time>2022-08-08T12:58:47Z</time>
      </trkpt>
      <trkpt lat="44.26669" lon="3.73262">
        <ele>812.93</ele>
        <time>2022-08-08T12:58:54Z</time>
      </trkpt>
      <trkpt lat="44.26666" lon="3.73263">
        <ele>812.93</ele>
        <time>2022-08-08T12:58:58Z</time>
      </trkpt>
      <trkpt lat="44.2666" lon="3.73268">
        <ele>813.41</ele>
        <time>2022-08-08T12:59:13Z</time>
      </trkpt>
      <trkpt lat="44.26653" lon="3.7327">
        <ele>812.93</ele>
        <time>2022-08-08T12:59:26Z</time>
      </trkpt>
      <trkpt lat="44.26646" lon="3.73268">
        <ele>813.89</ele>
        <time>2022-08-08T12:59:40Z</time>
      </trkpt>
      <trkpt lat="44.26653" lon="3.73272">
        <ele>812.45</ele>
        <time>2022-08-08T12:59:54Z</time>
      </trkpt>
      <trkpt lat="44.26658" lon="3.73273">
        <ele>811.97</ele>
        <time>2022-08-08T13:00:08Z</time>
      </trkpt>
      <trkpt lat="44.26659" lon="3.73269">
        <ele>813.89</ele>
        <time>2022-08-08T13:00:22Z</time>
      </trkpt>
      <trkpt lat="44.26662" lon="3.73266">
        <ele>816.78</ele>
        <time>2022-08-08T13:00:42Z</time>
      </trkpt>
      <trkpt lat="44.26663" lon="3.73266">
        <ele>816.78</ele>
        <time>2022-08-08T13:01:04Z</time>
      </trkpt>
      <trkpt lat="44.26658" lon="3.73267">
        <ele>821.1</ele>
        <time>2022-08-08T13:01:29Z</time>
      </trkpt>
      <trkpt lat="44.26649" lon="3.73267">
        <ele>821.58</ele>
        <time>2022-08-08T13:01:40Z</time>
      </trkpt>
      <trkpt lat="44.26637" lon="3.73263">
        <ele>820.62</ele>
        <time>2022-08-08T13:01:52Z</time>
      </trkpt>
      <trkpt lat="44.26635" lon="3.73263">
        <ele>820.62</ele>
        <time>2022-08-08T13:01:54Z</time>
      </trkpt>
      <trkpt lat="44.2662" lon="3.73262">
        <ele>821.58</ele>
        <time>2022-08-08T13:02:08Z</time>
      </trkpt>
      <trkpt lat="44.26606" lon="3.73262">
        <ele>822.06</ele>
        <time>2022-08-08T13:02:23Z</time>
      </trkpt>
      <trkpt lat="44.26592" lon="3.73263">
        <ele>821.1</ele>
        <time>2022-08-08T13:02:38Z</time>
      </trkpt>
      <trkpt lat="44.26575" lon="3.73261">
        <ele>822.06</ele>
        <time>2022-08-08T13:02:54Z</time>
      </trkpt>
      <trkpt lat="44.2656" lon="3.73261">
        <ele>823.03</ele>
        <time>2022-08-08T13:03:07Z</time>
      </trkpt>
      <trkpt lat="44.26542" lon="3.73257">
        <ele>822.55</ele>
        <time>2022-08-08T13:03:23Z</time>
      </trkpt>
      <trkpt lat="44.26526" lon="3.73256">
        <ele>822.55</ele>
        <time>2022-08-08T13:03:38Z</time>
      </trkpt>
      <trkpt lat="44.26523" lon="3.73256">
        <ele>823.03</ele>
        <time>2022-08-08T13:03:41Z</time>
      </trkpt>
      <trkpt lat="44.26506" lon="3.73256">
        <ele>825.91</ele>
        <time>2022-08-08T13:03:58Z</time>
      </trkpt>
      <trkpt lat="44.26494" lon="3.73256">
        <ele>829.27</ele>
        <time>2022-08-08T13:04:11Z</time>
      </trkpt>
      <trkpt lat="44.26477" lon="3.73256">
        <ele>832.16</ele>
        <time>2022-08-08T13:04:28Z</time>
      </trkpt>
      <trkpt lat="44.26464" lon="3.7325">
        <ele>833.6</ele>
        <time>2022-08-08T13:04:43Z</time>
      </trkpt>
      <trkpt lat="44.26451" lon="3.73239">
        <ele>834.56</ele>
        <time>2022-08-08T13:05:00Z</time>
      </trkpt>
      <trkpt lat="44.26439" lon="3.73225">
        <ele>834.08</ele>
        <time>2022-08-08T13:05:18Z</time>
      </trkpt>
      <trkpt lat="44.26432" lon="3.73212">
        <ele>834.56</ele>
        <time>2022-08-08T13:05:31Z</time>
      </trkpt>
      <trkpt lat="44.26428" lon="3.73192">
        <ele>837.93</ele>
        <time>2022-08-08T13:05:46Z</time>
      </trkpt>
      <trkpt lat="44.26428" lon="3.73175">
        <ele>840.81</ele>
        <time>2022-08-08T13:05:59Z</time>
      </trkpt>
      <trkpt lat="44.26422" lon="3.73151">
        <ele>841.29</ele>
        <time>2022-08-08T13:06:15Z</time>
      </trkpt>
      <trkpt lat="44.26415" lon="3.73132">
        <ele>840.81</ele>
        <time>2022-08-08T13:06:31Z</time>
      </trkpt>
      <trkpt lat="44.2641" lon="3.73119">
        <ele>840.81</ele>
        <time>2022-08-08T13:06:43Z</time>
      </trkpt>
      <trkpt lat="44.26399" lon="3.73105">
        <ele>841.77</ele>
        <time>2022-08-08T13:06:57Z</time>
      </trkpt>
      <trkpt lat="44.26389" lon="3.73091">
        <ele>843.69</ele>
        <time>2022-08-08T13:07:11Z</time>
      </trkpt>
      <trkpt lat="44.26378" lon="3.73078">
        <ele>844.66</ele>
        <time>2022-08-08T13:07:24Z</time>
      </trkpt>
      <trkpt lat="44.2637" lon="3.7307">
        <ele>844.66</ele>
        <time>2022-08-08T13:07:37Z</time>
      </trkpt>
      <trkpt lat="44.26363" lon="3.73055">
        <ele>844.18</ele>
        <time>2022-08-08T13:07:49Z</time>
      </trkpt>
      <trkpt lat="44.26353" lon="3.73036">
        <ele>844.18</ele>
        <time>2022-08-08T13:08:04Z</time>
      </trkpt>
      <trkpt lat="44.26341" lon="3.73017">
        <ele>847.06</ele>
        <time>2022-08-08T13:08:17Z</time>
      </trkpt>
      <trkpt lat="44.26331" lon="3.73">
        <ele>847.54</ele>
        <time>2022-08-08T13:08:32Z</time>
      </trkpt>
      <trkpt lat="44.26325" lon="3.72984">
        <ele>848.5</ele>
        <time>2022-08-08T13:08:45Z</time>
      </trkpt>
      <trkpt lat="44.26323" lon="3.72965">
        <ele>848.98</ele>
        <time>2022-08-08T13:08:57Z</time>
      </trkpt>
      <trkpt lat="44.26326" lon="3.72943">
        <ele>849.94</ele>
        <time>2022-08-08T13:09:12Z</time>
      </trkpt>
      <trkpt lat="44.26328" lon="3.72923">
        <ele>848.5</ele>
        <time>2022-08-08T13:09:24Z</time>
      </trkpt>
      <trkpt lat="44.26326" lon="3.72908">
        <ele>845.14</ele>
        <time>2022-08-08T13:09:37Z</time>
      </trkpt>
      <trkpt lat="44.26324" lon="3.72887">
        <ele>842.73</ele>
        <time>2022-08-08T13:09:52Z</time>
      </trkpt>
      <trkpt lat="44.26317" lon="3.72867">
        <ele>841.29</ele>
        <time>2022-08-08T13:10:05Z</time>
      </trkpt>
      <trkpt lat="44.26317" lon="3.72849">
        <ele>839.85</ele>
        <time>2022-08-08T13:10:19Z</time>
      </trkpt>
      <trkpt lat="44.26309" lon="3.72826">
        <ele>837.45</ele>
        <time>2022-08-08T13:10:34Z</time>
      </trkpt>
      <trkpt lat="44.263" lon="3.72804">
        <ele>834.56</ele>
        <time>2022-08-08T13:10:49Z</time>
      </trkpt>
      <trkpt lat="44.26292" lon="3.72783">
        <ele>833.6</ele>
        <time>2022-08-08T13:11:04Z</time>
      </trkpt>
      <trkpt lat="44.26291" lon="3.7278">
        <ele>834.08</ele>
        <time>2022-08-08T13:11:06Z</time>
      </trkpt>
      <trkpt lat="44.26287" lon="3.72757">
        <ele>836.48</ele>
        <time>2022-08-08T13:11:24Z</time>
      </trkpt>
      <trkpt lat="44.26283" lon="3.72731">
        <ele>838.89</ele>
        <time>2022-08-08T13:11:41Z</time>
      </trkpt>
      <trkpt lat="44.26268" lon="3.72704">
        <ele>839.85</ele>
        <time>2022-08-08T13:11:59Z</time>
      </trkpt>
      <trkpt lat="44.26257" lon="3.72691">
        <ele>838.41</ele>
        <time>2022-08-08T13:12:14Z</time>
      </trkpt>
      <trkpt lat="44.26241" lon="3.72686">
        <ele>838.41</ele>
        <time>2022-08-08T13:12:29Z</time>
      </trkpt>
      <trkpt lat="44.26224" lon="3.72681">
        <ele>841.77</ele>
        <time>2022-08-08T13:12:44Z</time>
      </trkpt>
      <trkpt lat="44.26211" lon="3.7268">
        <ele>843.21</ele>
        <time>2022-08-08T13:12:56Z</time>
      </trkpt>
      <trkpt lat="44.26191" lon="3.72684">
        <ele>843.69</ele>
        <time>2022-08-08T13:13:12Z</time>
      </trkpt>
      <trkpt lat="44.26184" lon="3.72687">
        <ele>844.18</ele>
        <time>2022-08-08T13:13:19Z</time>
      </trkpt>
      <trkpt lat="44.26168" lon="3.72699">
        <ele>845.14</ele>
        <time>2022-08-08T13:13:34Z</time>
      </trkpt>
      <trkpt lat="44.2616" lon="3.72709">
        <ele>846.1</ele>
        <time>2022-08-08T13:13:43Z</time>
      </trkpt>
      <trkpt lat="44.26154" lon="3.72717">
        <ele>846.1</ele>
        <time>2022-08-08T13:13:50Z</time>
      </trkpt>
      <trkpt lat="44.26141" lon="3.72729">
        <ele>846.58</ele>
        <time>2022-08-08T13:14:04Z</time>
      </trkpt>
      <trkpt lat="44.2613" lon="3.72744">
        <ele>849.94</ele>
        <time>2022-08-08T13:14:20Z</time>
      </trkpt>
      <trkpt lat="44.26119" lon="3.72756">
        <ele>851.87</ele>
        <time>2022-08-08T13:14:35Z</time>
      </trkpt>
      <trkpt lat="44.26103" lon="3.72762">
        <ele>854.27</ele>
        <time>2022-08-08T13:14:50Z</time>
      </trkpt>
      <trkpt lat="44.26088" lon="3.72768">
        <ele>856.19</ele>
        <time>2022-08-08T13:15:06Z</time>
      </trkpt>
      <trkpt lat="44.26074" lon="3.72775">
        <ele>856.67</ele>
        <time>2022-08-08T13:15:19Z</time>
      </trkpt>
      <trkpt lat="44.26061" lon="3.72781">
        <ele>856.19</ele>
        <time>2022-08-08T13:15:32Z</time>
      </trkpt>
      <trkpt lat="44.26043" lon="3.72783">
        <ele>856.67</ele>
        <time>2022-08-08T13:15:48Z</time>
      </trkpt>
      <trkpt lat="44.2604" lon="3.72783">
        <ele>856.67</ele>
        <time>2022-08-08T13:15:51Z</time>
      </trkpt>
      <trkpt lat="44.26025" lon="3.72775">
        <ele>856.67</ele>
        <time>2022-08-08T13:16:07Z</time>
      </trkpt>
      <trkpt lat="44.26013" lon="3.7277">
        <ele>857.63</ele>
        <time>2022-08-08T13:16:20Z</time>
      </trkpt>
      <trkpt lat="44.25998" lon="3.7276">
        <ele>860.04</ele>
        <time>2022-08-08T13:16:33Z</time>
      </trkpt>
      <trkpt lat="44.25981" lon="3.72756">
        <ele>862.44</ele>
        <time>2022-08-08T13:16:47Z</time>
      </trkpt>
      <trkpt lat="44.25963" lon="3.7275">
        <ele>862.92</ele>
        <time>2022-08-08T13:17:02Z</time>
      </trkpt>
      <trkpt lat="44.25945" lon="3.72747">
        <ele>864.84</ele>
        <time>2022-08-08T13:17:15Z</time>
      </trkpt>
      <trkpt lat="44.25933" lon="3.72747">
        <ele>864.84</ele>
        <time>2022-08-08T13:17:29Z</time>
      </trkpt>
      <trkpt lat="44.25931" lon="3.72743">
        <ele>865.8</ele>
        <time>2022-08-08T13:17:34Z</time>
      </trkpt>
      <trkpt lat="44.25923" lon="3.72722">
        <ele>869.17</ele>
        <time>2022-08-08T13:17:51Z</time>
      </trkpt>
      <trkpt lat="44.25923" lon="3.72717">
        <ele>869.65</ele>
        <time>2022-08-08T13:17:55Z</time>
      </trkpt>
      <trkpt lat="44.2592" lon="3.72709">
        <ele>871.09</ele>
        <time>2022-08-08T13:18:02Z</time>
      </trkpt>
      <trkpt lat="44.25915" lon="3.72697">
        <ele>873.98</ele>
        <time>2022-08-08T13:18:08Z</time>
      </trkpt>
      <trkpt lat="44.25914" lon="3.72692">
        <ele>874.46</ele>
        <time>2022-08-08T13:18:11Z</time>
      </trkpt>
      <trkpt lat="44.25912" lon="3.72679">
        <ele>875.9</ele>
        <time>2022-08-08T13:18:23Z</time>
      </trkpt>
      <trkpt lat="44.25903" lon="3.72662">
        <ele>876.86</ele>
        <time>2022-08-08T13:18:38Z</time>
      </trkpt>
      <trkpt lat="44.25893" lon="3.72645">
        <ele>876.86</ele>
        <time>2022-08-08T13:18:54Z</time>
      </trkpt>
      <trkpt lat="44.25887" lon="3.72627">
        <ele>875.9</ele>
        <time>2022-08-08T13:19:10Z</time>
      </trkpt>
      <trkpt lat="44.25885" lon="3.72609">
        <ele>873.98</ele>
        <time>2022-08-08T13:19:26Z</time>
      </trkpt>
      <trkpt lat="44.25885" lon="3.72593">
        <ele>874.46</ele>
        <time>2022-08-08T13:19:38Z</time>
      </trkpt>
      <trkpt lat="44.25888" lon="3.72584">
        <ele>874.46</ele>
        <time>2022-08-08T13:19:51Z</time>
      </trkpt>
      <trkpt lat="44.25891" lon="3.72582">
        <ele>873.98</ele>
        <time>2022-08-08T13:19:55Z</time>
      </trkpt>
      <trkpt lat="44.25897" lon="3.72575">
        <ele>872.53</ele>
        <time>2022-08-08T13:20:04Z</time>
      </trkpt>
      <trkpt lat="44.25904" lon="3.72568">
        <ele>870.13</ele>
        <time>2022-08-08T13:20:17Z</time>
      </trkpt>
      <trkpt lat="44.25896" lon="3.7257">
        <ele>869.17</ele>
        <time>2022-08-08T13:20:35Z</time>
      </trkpt>
      <trkpt lat="44.25886" lon="3.72579">
        <ele>870.13</ele>
        <time>2022-08-08T13:20:49Z</time>
      </trkpt>
      <trkpt lat="44.25878" lon="3.72576">
        <ele>870.61</ele>
        <time>2022-08-08T13:21:02Z</time>
      </trkpt>
      <trkpt lat="44.25874" lon="3.72576">
        <ele>872.05</ele>
        <time>2022-08-08T13:21:27Z</time>
      </trkpt>
      <trkpt lat="44.25871" lon="3.72582">
        <ele>873.98</ele>
        <time>2022-08-08T13:22:02Z</time>
      </trkpt>
      <trkpt lat="44.2587" lon="3.72583">
        <ele>874.46</ele>
        <time>2022-08-08T13:22:21Z</time>
      </trkpt>
      <trkpt lat="44.25867" lon="3.72585">
        <ele>871.09</ele>
        <time>2022-08-08T13:22:52Z</time>
      </trkpt>
      <trkpt lat="44.25868" lon="3.72579">
        <ele>871.09</ele>
        <time>2022-08-08T13:23:20Z</time>
      </trkpt>
      <trkpt lat="44.25863" lon="3.72567">
        <ele>870.61</ele>
        <time>2022-08-08T13:23:33Z</time>
      </trkpt>
      <trkpt lat="44.25852" lon="3.72554">
        <ele>872.05</ele>
        <time>2022-08-08T13:23:48Z</time>
      </trkpt>
      <trkpt lat="44.2584" lon="3.72539">
        <ele>872.05</ele>
        <time>2022-08-08T13:24:04Z</time>
      </trkpt>
      <trkpt lat="44.25829" lon="3.72532">
        <ele>870.13</ele>
        <time>2022-08-08T13:24:18Z</time>
      </trkpt>
      <trkpt lat="44.25819" lon="3.72525">
        <ele>868.69</ele>
        <time>2022-08-08T13:24:33Z</time>
      </trkpt>
      <trkpt lat="44.25807" lon="3.72522">
        <ele>864.84</ele>
        <time>2022-08-08T13:24:47Z</time>
      </trkpt>
      <trkpt lat="44.25795" lon="3.72517">
        <ele>863.88</ele>
        <time>2022-08-08T13:25:03Z</time>
      </trkpt>
      <trkpt lat="44.25776" lon="3.72502">
        <ele>864.84</ele>
        <time>2022-08-08T13:25:21Z</time>
      </trkpt>
      <trkpt lat="44.25764" lon="3.7249">
        <ele>864.36</ele>
        <time>2022-08-08T13:25:38Z</time>
      </trkpt>
      <trkpt lat="44.25751" lon="3.72479">
        <ele>866.29</ele>
        <time>2022-08-08T13:25:57Z</time>
      </trkpt>
      <trkpt lat="44.25742" lon="3.72468">
        <ele>870.13</ele>
        <time>2022-08-08T13:26:07Z</time>
      </trkpt>
      <trkpt lat="44.25733" lon="3.72466">
        <ele>870.13</ele>
        <time>2022-08-08T13:26:19Z</time>
      </trkpt>
      <trkpt lat="44.25722" lon="3.72454">
        <ele>874.94</ele>
        <time>2022-08-08T13:26:36Z</time>
      </trkpt>
      <trkpt lat="44.25711" lon="3.72447">
        <ele>880.71</ele>
        <time>2022-08-08T13:26:50Z</time>
      </trkpt>
      <trkpt lat="44.25696" lon="3.72448">
        <ele>882.15</ele>
        <time>2022-08-08T13:27:06Z</time>
      </trkpt>
      <trkpt lat="44.25679" lon="3.72451">
        <ele>882.63</ele>
        <time>2022-08-08T13:27:23Z</time>
      </trkpt>
      <trkpt lat="44.25664" lon="3.72454">
        <ele>884.55</ele>
        <time>2022-08-08T13:27:37Z</time>
      </trkpt>
      <trkpt lat="44.25648" lon="3.72452">
        <ele>886.47</ele>
        <time>2022-08-08T13:27:54Z</time>
      </trkpt>
      <trkpt lat="44.25645" lon="3.72451">
        <ele>886.95</ele>
        <time>2022-08-08T13:27:57Z</time>
      </trkpt>
      <trkpt lat="44.25628" lon="3.72446">
        <ele>889.36</ele>
        <time>2022-08-08T13:28:12Z</time>
      </trkpt>
      <trkpt lat="44.25613" lon="3.72441">
        <ele>888.4</ele>
        <time>2022-08-08T13:28:26Z</time>
      </trkpt>
      <trkpt lat="44.25605" lon="3.72437">
        <ele>887.43</ele>
        <time>2022-08-08T13:28:37Z</time>
      </trkpt>
      <trkpt lat="44.25593" lon="3.72431">
        <ele>887.43</ele>
        <time>2022-08-08T13:28:53Z</time>
      </trkpt>
      <trkpt lat="44.2558" lon="3.7242">
        <ele>891.76</ele>
        <time>2022-08-08T13:29:08Z</time>
      </trkpt>
      <trkpt lat="44.25567" lon="3.72411">
        <ele>895.61</ele>
        <time>2022-08-08T13:29:24Z</time>
      </trkpt>
      <trkpt lat="44.25554" lon="3.72403">
        <ele>895.12</ele>
        <time>2022-08-08T13:29:39Z</time>
      </trkpt>
      <trkpt lat="44.2554" lon="3.72392">
        <ele>897.53</ele>
        <time>2022-08-08T13:29:54Z</time>
      </trkpt>
      <trkpt lat="44.25529" lon="3.72387">
        <ele>899.93</ele>
        <time>2022-08-08T13:30:08Z</time>
      </trkpt>
      <trkpt lat="44.25515" lon="3.72387">
        <ele>904.26</ele>
        <time>2022-08-08T13:30:23Z</time>
      </trkpt>
      <trkpt lat="44.25502" lon="3.72384">
        <ele>907.62</ele>
        <time>2022-08-08T13:30:36Z</time>
      </trkpt>
      <trkpt lat="44.25488" lon="3.72385">
        <ele>909.06</ele>
        <time>2022-08-08T13:30:49Z</time>
      </trkpt>
      <trkpt lat="44.25475" lon="3.72389">
        <ele>911.47</ele>
        <time>2022-08-08T13:31:03Z</time>
      </trkpt>
      <trkpt lat="44.25461" lon="3.72395">
        <ele>913.87</ele>
        <time>2022-08-08T13:31:18Z</time>
      </trkpt>
      <trkpt lat="44.25452" lon="3.72402">
        <ele>916.75</ele>
        <time>2022-08-08T13:31:28Z</time>
      </trkpt>
      <trkpt lat="44.2544" lon="3.72414">
        <ele>916.75</ele>
        <time>2022-08-08T13:31:44Z</time>
      </trkpt>
      <trkpt lat="44.25428" lon="3.72421">
        <ele>916.27</ele>
        <time>2022-08-08T13:31:56Z</time>
      </trkpt>
      <trkpt lat="44.25419" lon="3.72422">
        <ele>914.35</ele>
        <time>2022-08-08T13:32:09Z</time>
      </trkpt>
      <trkpt lat="44.25406" lon="3.7242">
        <ele>913.39</ele>
        <time>2022-08-08T13:32:22Z</time>
      </trkpt>
      <trkpt lat="44.25391" lon="3.72425">
        <ele>911.95</ele>
        <time>2022-08-08T13:32:36Z</time>
      </trkpt>
      <trkpt lat="44.25389" lon="3.72424">
        <ele>911.95</ele>
        <time>2022-08-08T13:32:37Z</time>
      </trkpt>
      <trkpt lat="44.25387" lon="3.72425">
        <ele>911.95</ele>
        <time>2022-08-08T13:32:39Z</time>
      </trkpt>
      <trkpt lat="44.25371" lon="3.72426">
        <ele>913.87</ele>
        <time>2022-08-08T13:32:52Z</time>
      </trkpt>
      <trkpt lat="44.25357" lon="3.72429">
        <ele>915.79</ele>
        <time>2022-08-08T13:33:08Z</time>
      </trkpt>
      <trkpt lat="44.25346" lon="3.72428">
        <ele>916.75</ele>
        <time>2022-08-08T13:33:20Z</time>
      </trkpt>
      <trkpt lat="44.25335" lon="3.72419">
        <ele>919.16</ele>
        <time>2022-08-08T13:33:34Z</time>
      </trkpt>
      <trkpt lat="44.25329" lon="3.72409">
        <ele>918.68</ele>
        <time>2022-08-08T13:33:50Z</time>
      </trkpt>
      <trkpt lat="44.25318" lon="3.72384">
        <ele>916.27</ele>
        <time>2022-08-08T13:34:06Z</time>
      </trkpt>
      <trkpt lat="44.2531" lon="3.72366">
        <ele>915.79</ele>
        <time>2022-08-08T13:34:19Z</time>
      </trkpt>
      <trkpt lat="44.25293" lon="3.72354">
        <ele>922.52</ele>
        <time>2022-08-08T13:34:35Z</time>
      </trkpt>
      <trkpt lat="44.25274" lon="3.72359">
        <ele>923.48</ele>
        <time>2022-08-08T13:34:49Z</time>
      </trkpt>
      <trkpt lat="44.25259" lon="3.72375">
        <ele>922.52</ele>
        <time>2022-08-08T13:35:04Z</time>
      </trkpt>
      <trkpt lat="44.2525" lon="3.72386">
        <ele>922.52</ele>
        <time>2022-08-08T13:35:17Z</time>
      </trkpt>
      <trkpt lat="44.25239" lon="3.72398">
        <ele>923.96</ele>
        <time>2022-08-08T13:35:31Z</time>
      </trkpt>
      <trkpt lat="44.25228" lon="3.72409">
        <ele>924.45</ele>
        <time>2022-08-08T13:35:47Z</time>
      </trkpt>
      <trkpt lat="44.2521" lon="3.72407">
        <ele>925.41</ele>
        <time>2022-08-08T13:36:02Z</time>
      </trkpt>
      <trkpt lat="44.25195" lon="3.72405">
        <ele>928.77</ele>
        <time>2022-08-08T13:36:18Z</time>
      </trkpt>
      <trkpt lat="44.25183" lon="3.72408">
        <ele>928.77</ele>
        <time>2022-08-08T13:36:32Z</time>
      </trkpt>
      <trkpt lat="44.25172" lon="3.72406">
        <ele>930.21</ele>
        <time>2022-08-08T13:36:45Z</time>
      </trkpt>
      <trkpt lat="44.25161" lon="3.72404">
        <ele>930.69</ele>
        <time>2022-08-08T13:36:56Z</time>
      </trkpt>
      <trkpt lat="44.25147" lon="3.72396">
        <ele>934.06</ele>
        <time>2022-08-08T13:37:13Z</time>
      </trkpt>
      <trkpt lat="44.25131" lon="3.72391">
        <ele>935.02</ele>
        <time>2022-08-08T13:37:28Z</time>
      </trkpt>
      <trkpt lat="44.25121" lon="3.72389">
        <ele>935.5</ele>
        <time>2022-08-08T13:37:41Z</time>
      </trkpt>
      <trkpt lat="44.25114" lon="3.72387">
        <ele>935.5</ele>
        <time>2022-08-08T13:37:48Z</time>
      </trkpt>
      <trkpt lat="44.25097" lon="3.7239">
        <ele>935.98</ele>
        <time>2022-08-08T13:38:03Z</time>
      </trkpt>
      <trkpt lat="44.25084" lon="3.72393">
        <ele>935.98</ele>
        <time>2022-08-08T13:38:14Z</time>
      </trkpt>
      <trkpt lat="44.25069" lon="3.72401">
        <ele>935.02</ele>
        <time>2022-08-08T13:38:27Z</time>
      </trkpt>
      <trkpt lat="44.25056" lon="3.72408">
        <ele>931.65</ele>
        <time>2022-08-08T13:38:41Z</time>
      </trkpt>
      <trkpt lat="44.25038" lon="3.72419">
        <ele>932.14</ele>
        <time>2022-08-08T13:38:58Z</time>
      </trkpt>
      <trkpt lat="44.25025" lon="3.72427">
        <ele>928.29</ele>
        <time>2022-08-08T13:39:13Z</time>
      </trkpt>
      <trkpt lat="44.25011" lon="3.72431">
        <ele>927.33</ele>
        <time>2022-08-08T13:39:28Z</time>
      </trkpt>
      <trkpt lat="44.2499" lon="3.72422">
        <ele>925.89</ele>
        <time>2022-08-08T13:39:43Z</time>
      </trkpt>
      <trkpt lat="44.24975" lon="3.72414">
        <ele>922.52</ele>
        <time>2022-08-08T13:39:58Z</time>
      </trkpt>
      <trkpt lat="44.24972" lon="3.72412">
        <ele>923</ele>
        <time>2022-08-08T13:40:00Z</time>
      </trkpt>
      <trkpt lat="44.24964" lon="3.72407">
        <ele>924.45</ele>
        <time>2022-08-08T13:40:07Z</time>
      </trkpt>
      <trkpt lat="44.24946" lon="3.724">
        <ele>928.29</ele>
        <time>2022-08-08T13:40:24Z</time>
      </trkpt>
      <trkpt lat="44.24931" lon="3.72395">
        <ele>925.41</ele>
        <time>2022-08-08T13:40:38Z</time>
      </trkpt>
      <trkpt lat="44.24913" lon="3.72387">
        <ele>923.48</ele>
        <time>2022-08-08T13:40:54Z</time>
      </trkpt>
      <trkpt lat="44.24896" lon="3.72386">
        <ele>923</ele>
        <time>2022-08-08T13:41:09Z</time>
      </trkpt>
      <trkpt lat="44.24882" lon="3.72382">
        <ele>923.48</ele>
        <time>2022-08-08T13:41:22Z</time>
      </trkpt>
      <trkpt lat="44.24868" lon="3.72382">
        <ele>921.56</ele>
        <time>2022-08-08T13:41:36Z</time>
      </trkpt>
      <trkpt lat="44.24858" lon="3.72386">
        <ele>919.16</ele>
        <time>2022-08-08T13:41:48Z</time>
      </trkpt>
      <trkpt lat="44.24848" lon="3.72389">
        <ele>919.64</ele>
        <time>2022-08-08T13:41:58Z</time>
      </trkpt>
      <trkpt lat="44.24831" lon="3.72403">
        <ele>927.33</ele>
        <time>2022-08-08T13:42:13Z</time>
      </trkpt>
      <trkpt lat="44.24821" lon="3.72419">
        <ele>930.21</ele>
        <time>2022-08-08T13:42:28Z</time>
      </trkpt>
      <trkpt lat="44.24807" lon="3.72432">
        <ele>935.02</ele>
        <time>2022-08-08T13:42:41Z</time>
      </trkpt>
      <trkpt lat="44.24797" lon="3.72445">
        <ele>936.94</ele>
        <time>2022-08-08T13:42:55Z</time>
      </trkpt>
      <trkpt lat="44.24796" lon="3.72447">
        <ele>937.42</ele>
        <time>2022-08-08T13:42:57Z</time>
      </trkpt>
      <trkpt lat="44.2479" lon="3.72453">
        <ele>938.86</ele>
        <time>2022-08-08T13:43:04Z</time>
      </trkpt>
      <trkpt lat="44.24779" lon="3.72464">
        <ele>936.94</ele>
        <time>2022-08-08T13:43:18Z</time>
      </trkpt>
      <trkpt lat="44.24777" lon="3.72465">
        <ele>936.46</ele>
        <time>2022-08-08T13:43:20Z</time>
      </trkpt>
      <trkpt lat="44.24769" lon="3.7248">
        <ele>936.46</ele>
        <time>2022-08-08T13:43:34Z</time>
      </trkpt>
      <trkpt lat="44.24755" lon="3.72498">
        <ele>940.79</ele>
        <time>2022-08-08T13:43:48Z</time>
      </trkpt>
      <trkpt lat="44.24741" lon="3.72507">
        <ele>945.59</ele>
        <time>2022-08-08T13:44:01Z</time>
      </trkpt>
      <trkpt lat="44.24733" lon="3.72511">
        <ele>944.63</ele>
        <time>2022-08-08T13:44:12Z</time>
      </trkpt>
      <trkpt lat="44.24729" lon="3.72512">
        <ele>945.59</ele>
        <time>2022-08-08T13:44:17Z</time>
      </trkpt>
      <trkpt lat="44.24712" lon="3.7251">
        <ele>945.59</ele>
        <time>2022-08-08T13:44:32Z</time>
      </trkpt>
      <trkpt lat="44.24693" lon="3.72515">
        <ele>944.15</ele>
        <time>2022-08-08T13:44:48Z</time>
      </trkpt>
      <trkpt lat="44.24686" lon="3.72518">
        <ele>945.11</ele>
        <time>2022-08-08T13:44:55Z</time>
      </trkpt>
      <trkpt lat="44.24672" lon="3.72522">
        <ele>947.52</ele>
        <time>2022-08-08T13:45:08Z</time>
      </trkpt>
      <trkpt lat="44.24659" lon="3.72528">
        <ele>948.48</ele>
        <time>2022-08-08T13:45:21Z</time>
      </trkpt>
      <trkpt lat="44.24643" lon="3.72532">
        <ele>947.04</ele>
        <time>2022-08-08T13:45:34Z</time>
      </trkpt>
      <trkpt lat="44.24626" lon="3.72536">
        <ele>946.07</ele>
        <time>2022-08-08T13:45:47Z</time>
      </trkpt>
      <trkpt lat="44.24622" lon="3.72539">
        <ele>946.56</ele>
        <time>2022-08-08T13:45:51Z</time>
      </trkpt>
      <trkpt lat="44.24607" lon="3.72544">
        <ele>947.04</ele>
        <time>2022-08-08T13:46:06Z</time>
      </trkpt>
      <trkpt lat="44.24592" lon="3.72551">
        <ele>948.48</ele>
        <time>2022-08-08T13:46:21Z</time>
      </trkpt>
      <trkpt lat="44.24573" lon="3.72552">
        <ele>956.65</ele>
        <time>2022-08-08T13:46:35Z</time>
      </trkpt>
      <trkpt lat="44.24559" lon="3.72556">
        <ele>957.61</ele>
        <time>2022-08-08T13:46:47Z</time>
      </trkpt>
      <trkpt lat="44.24548" lon="3.72555">
        <ele>956.17</ele>
        <time>2022-08-08T13:46:57Z</time>
      </trkpt>
      <trkpt lat="44.2453" lon="3.72552">
        <ele>956.65</ele>
        <time>2022-08-08T13:47:09Z</time>
      </trkpt>
      <trkpt lat="44.24512" lon="3.72551">
        <ele>950.4</ele>
        <time>2022-08-08T13:47:24Z</time>
      </trkpt>
      <trkpt lat="44.24494" lon="3.72545">
        <ele>946.56</ele>
        <time>2022-08-08T13:47:40Z</time>
      </trkpt>
      <trkpt lat="44.24481" lon="3.72544">
        <ele>948</ele>
        <time>2022-08-08T13:47:54Z</time>
      </trkpt>
      <trkpt lat="44.24468" lon="3.72548">
        <ele>948</ele>
        <time>2022-08-08T13:48:08Z</time>
      </trkpt>
      <trkpt lat="44.24454" lon="3.72554">
        <ele>947.52</ele>
        <time>2022-08-08T13:48:20Z</time>
      </trkpt>
      <trkpt lat="44.24442" lon="3.72555">
        <ele>947.04</ele>
        <time>2022-08-08T13:48:32Z</time>
      </trkpt>
      <trkpt lat="44.24445" lon="3.72553">
        <ele>947.04</ele>
        <time>2022-08-08T13:48:46Z</time>
      </trkpt>
      <trkpt lat="44.24445" lon="3.72568">
        <ele>953.77</ele>
        <time>2022-08-08T13:49:16Z</time>
      </trkpt>
      <trkpt lat="44.24447" lon="3.72578">
        <ele>954.73</ele>
        <time>2022-08-08T13:49:47Z</time>
      </trkpt>
      <trkpt lat="44.24451" lon="3.72572">
        <ele>954.25</ele>
        <time>2022-08-08T13:50:12Z</time>
      </trkpt>
      <trkpt lat="44.24445" lon="3.72569">
        <ele>954.25</ele>
        <time>2022-08-08T13:50:46Z</time>
      </trkpt>
      <trkpt lat="44.24441" lon="3.72574">
        <ele>955.21</ele>
        <time>2022-08-08T13:51:12Z</time>
      </trkpt>
      <trkpt lat="44.24441" lon="3.72575">
        <ele>957.13</ele>
        <time>2022-08-08T13:51:44Z</time>
      </trkpt>
      <trkpt lat="44.24441" lon="3.72572">
        <ele>957.61</ele>
        <time>2022-08-08T13:52:22Z</time>
      </trkpt>
      <trkpt lat="44.24439" lon="3.72569">
        <ele>953.77</ele>
        <time>2022-08-08T13:52:50Z</time>
      </trkpt>
      <trkpt lat="44.24438" lon="3.72574">
        <ele>958.57</ele>
        <time>2022-08-08T13:53:21Z</time>
      </trkpt>
      <trkpt lat="44.24439" lon="3.72577">
        <ele>961.46</ele>
        <time>2022-08-08T13:53:55Z</time>
      </trkpt>
      <trkpt lat="44.24436" lon="3.72572">
        <ele>955.21</ele>
        <time>2022-08-08T13:54:31Z</time>
      </trkpt>
      <trkpt lat="44.24443" lon="3.72577">
        <ele>951.36</ele>
        <time>2022-08-08T13:55:09Z</time>
      </trkpt>
      <trkpt lat="44.2444" lon="3.72578">
        <ele>955.69</ele>
        <time>2022-08-08T13:55:33Z</time>
      </trkpt>
      <trkpt lat="44.24439" lon="3.72581">
        <ele>960.98</ele>
        <time>2022-08-08T13:55:59Z</time>
      </trkpt>
      <trkpt lat="44.24436" lon="3.7258">
        <ele>961.46</ele>
        <time>2022-08-08T13:56:29Z</time>
      </trkpt>
      <trkpt lat="44.24436" lon="3.72583">
        <ele>963.86</ele>
        <time>2022-08-08T13:57:00Z</time>
      </trkpt>
      <trkpt lat="44.24435" lon="3.72583">
        <ele>964.82</ele>
        <time>2022-08-08T13:57:34Z</time>
      </trkpt>
      <trkpt lat="44.2443" lon="3.72576">
        <ele>962.42</ele>
        <time>2022-08-08T13:58:08Z</time>
      </trkpt>
      <trkpt lat="44.24431" lon="3.72578">
        <ele>961.94</ele>
        <time>2022-08-08T13:58:33Z</time>
      </trkpt>
      <trkpt lat="44.24433" lon="3.72574">
        <ele>963.38</ele>
        <time>2022-08-08T13:58:59Z</time>
      </trkpt>
      <trkpt lat="44.24435" lon="3.7257">
        <ele>959.53</ele>
        <time>2022-08-08T13:59:25Z</time>
      </trkpt>
      <trkpt lat="44.24434" lon="3.72569">
        <ele>961.94</ele>
        <time>2022-08-08T13:59:51Z</time>
      </trkpt>
      <trkpt lat="44.24439" lon="3.72571">
        <ele>961.46</ele>
        <time>2022-08-08T14:00:26Z</time>
      </trkpt>
      <trkpt lat="44.24437" lon="3.72571">
        <ele>961.46</ele>
        <time>2022-08-08T14:00:59Z</time>
      </trkpt>
      <trkpt lat="44.2443" lon="3.7257">
        <ele>959.53</ele>
        <time>2022-08-08T14:01:26Z</time>
      </trkpt>
      <trkpt lat="44.24423" lon="3.72574">
        <ele>958.09</ele>
        <time>2022-08-08T14:01:36Z</time>
      </trkpt>
      <trkpt lat="44.24418" lon="3.72587">
        <ele>957.61</ele>
        <time>2022-08-08T14:01:50Z</time>
      </trkpt>
      <trkpt lat="44.24407" lon="3.72605">
        <ele>952.8</ele>
        <time>2022-08-08T14:02:04Z</time>
      </trkpt>
      <trkpt lat="44.24402" lon="3.72623">
        <ele>952.8</ele>
        <time>2022-08-08T14:02:20Z</time>
      </trkpt>
      <trkpt lat="44.24392" lon="3.72635">
        <ele>950.4</ele>
        <time>2022-08-08T14:02:34Z</time>
      </trkpt>
      <trkpt lat="44.24376" lon="3.72645">
        <ele>944.15</ele>
        <time>2022-08-08T14:02:52Z</time>
      </trkpt>
      <trkpt lat="44.24371" lon="3.72645">
        <ele>943.67</ele>
        <time>2022-08-08T14:02:56Z</time>
      </trkpt>
      <trkpt lat="44.24351" lon="3.72636">
        <ele>943.19</ele>
        <time>2022-08-08T14:03:12Z</time>
      </trkpt>
      <trkpt lat="44.24348" lon="3.72631">
        <ele>942.71</ele>
        <time>2022-08-08T14:03:17Z</time>
      </trkpt>
      <trkpt lat="44.24342" lon="3.72621">
        <ele>945.11</ele>
        <time>2022-08-08T14:03:37Z</time>
      </trkpt>
      <trkpt lat="44.24343" lon="3.72646">
        <ele>944.63</ele>
        <time>2022-08-08T14:03:54Z</time>
      </trkpt>
      <trkpt lat="44.24346" lon="3.72657">
        <ele>943.19</ele>
        <time>2022-08-08T14:04:02Z</time>
      </trkpt>
      <trkpt lat="44.24352" lon="3.7267">
        <ele>942.23</ele>
        <time>2022-08-08T14:04:15Z</time>
      </trkpt>
      <trkpt lat="44.2436" lon="3.72689">
        <ele>935.5</ele>
        <time>2022-08-08T14:04:29Z</time>
      </trkpt>
      <trkpt lat="44.24371" lon="3.72701">
        <ele>931.65</ele>
        <time>2022-08-08T14:04:44Z</time>
      </trkpt>
      <trkpt lat="44.24376" lon="3.72711">
        <ele>930.21</ele>
        <time>2022-08-08T14:04:50Z</time>
      </trkpt>
      <trkpt lat="44.24384" lon="3.72739">
        <ele>925.89</ele>
        <time>2022-08-08T14:05:07Z</time>
      </trkpt>
      <trkpt lat="44.24389" lon="3.72757">
        <ele>919.16</ele>
        <time>2022-08-08T14:05:21Z</time>
      </trkpt>
      <trkpt lat="44.24387" lon="3.7278">
        <ele>919.16</ele>
        <time>2022-08-08T14:05:36Z</time>
      </trkpt>
      <trkpt lat="44.24383" lon="3.72803">
        <ele>925.41</ele>
        <time>2022-08-08T14:05:50Z</time>
      </trkpt>
      <trkpt lat="44.24376" lon="3.7283">
        <ele>926.37</ele>
        <time>2022-08-08T14:06:07Z</time>
      </trkpt>
      <trkpt lat="44.24373" lon="3.72848">
        <ele>927.33</ele>
        <time>2022-08-08T14:06:20Z</time>
      </trkpt>
      <trkpt lat="44.24371" lon="3.72864">
        <ele>927.33</ele>
        <time>2022-08-08T14:06:31Z</time>
      </trkpt>
      <trkpt lat="44.24374" lon="3.72885">
        <ele>926.85</ele>
        <time>2022-08-08T14:06:45Z</time>
      </trkpt>
      <trkpt lat="44.24372" lon="3.72895">
        <ele>924.45</ele>
        <time>2022-08-08T14:06:51Z</time>
      </trkpt>
      <trkpt lat="44.24374" lon="3.72924">
        <ele>921.56</ele>
        <time>2022-08-08T14:07:04Z</time>
      </trkpt>
      <trkpt lat="44.24379" lon="3.72935">
        <ele>919.64</ele>
        <time>2022-08-08T14:07:12Z</time>
      </trkpt>
      <trkpt lat="44.24379" lon="3.72961">
        <ele>915.79</ele>
        <time>2022-08-08T14:07:27Z</time>
      </trkpt>
      <trkpt lat="44.24377" lon="3.72977">
        <ele>917.72</ele>
        <time>2022-08-08T14:07:38Z</time>
      </trkpt>
      <trkpt lat="44.24369" lon="3.72998">
        <ele>919.64</ele>
        <time>2022-08-08T14:07:52Z</time>
      </trkpt>
      <trkpt lat="44.24358" lon="3.73018">
        <ele>921.08</ele>
        <time>2022-08-08T14:08:05Z</time>
      </trkpt>
      <trkpt lat="44.24349" lon="3.73033">
        <ele>920.6</ele>
        <time>2022-08-08T14:08:18Z</time>
      </trkpt>
      <trkpt lat="44.24341" lon="3.73043">
        <ele>919.64</ele>
        <time>2022-08-08T14:08:30Z</time>
      </trkpt>
      <trkpt lat="44.24334" lon="3.73055">
        <ele>920.6</ele>
        <time>2022-08-08T14:08:45Z</time>
      </trkpt>
      <trkpt lat="44.24328" lon="3.73069">
        <ele>922.04</ele>
        <time>2022-08-08T14:08:59Z</time>
      </trkpt>
      <trkpt lat="44.24322" lon="3.73079">
        <ele>923.96</ele>
        <time>2022-08-08T14:09:12Z</time>
      </trkpt>
      <trkpt lat="44.24316" lon="3.73094">
        <ele>931.65</ele>
        <time>2022-08-08T14:09:27Z</time>
      </trkpt>
      <trkpt lat="44.24307" lon="3.73114">
        <ele>934.54</ele>
        <time>2022-08-08T14:09:43Z</time>
      </trkpt>
      <trkpt lat="44.24298" lon="3.73129">
        <ele>935.98</ele>
        <time>2022-08-08T14:09:57Z</time>
      </trkpt>
      <trkpt lat="44.24291" lon="3.73144">
        <ele>933.58</ele>
        <time>2022-08-08T14:10:07Z</time>
      </trkpt>
      <trkpt lat="44.24282" lon="3.73161">
        <ele>928.77</ele>
        <time>2022-08-08T14:10:23Z</time>
      </trkpt>
      <trkpt lat="44.24271" lon="3.73175">
        <ele>924.93</ele>
        <time>2022-08-08T14:10:38Z</time>
      </trkpt>
      <trkpt lat="44.24265" lon="3.73186">
        <ele>921.08</ele>
        <time>2022-08-08T14:10:50Z</time>
      </trkpt>
      <trkpt lat="44.2426" lon="3.73196">
        <ele>923</ele>
        <time>2022-08-08T14:11:01Z</time>
      </trkpt>
      <trkpt lat="44.24251" lon="3.73207">
        <ele>923.48</ele>
        <time>2022-08-08T14:11:13Z</time>
      </trkpt>
      <trkpt lat="44.24246" lon="3.73225">
        <ele>927.33</ele>
        <time>2022-08-08T14:11:26Z</time>
      </trkpt>
      <trkpt lat="44.24236" lon="3.73245">
        <ele>930.69</ele>
        <time>2022-08-08T14:11:41Z</time>
      </trkpt>
      <trkpt lat="44.24226" lon="3.73263">
        <ele>934.54</ele>
        <time>2022-08-08T14:11:55Z</time>
      </trkpt>
      <trkpt lat="44.24221" lon="3.73272">
        <ele>934.06</ele>
        <time>2022-08-08T14:12:02Z</time>
      </trkpt>
      <trkpt lat="44.24214" lon="3.73292">
        <ele>933.58</ele>
        <time>2022-08-08T14:12:17Z</time>
      </trkpt>
      <trkpt lat="44.24212" lon="3.73303">
        <ele>936.46</ele>
        <time>2022-08-08T14:12:38Z</time>
      </trkpt>
      <trkpt lat="44.2421" lon="3.73301">
        <ele>938.38</ele>
        <time>2022-08-08T14:13:02Z</time>
      </trkpt>
      <trkpt lat="44.2421" lon="3.73301">
        <ele>938.86</ele>
        <time>2022-08-08T14:13:04Z</time>
      </trkpt>
      <trkpt lat="44.24211" lon="3.73304">
        <ele>938.38</ele>
        <time>2022-08-08T14:13:16Z</time>
      </trkpt>
      <trkpt lat="44.24214" lon="3.73312">
        <ele>936.94</ele>
        <time>2022-08-08T14:13:27Z</time>
      </trkpt>
      <trkpt lat="44.24221" lon="3.73335">
        <ele>937.9</ele>
        <time>2022-08-08T14:13:43Z</time>
      </trkpt>
      <trkpt lat="44.24226" lon="3.73354">
        <ele>937.9</ele>
        <time>2022-08-08T14:13:57Z</time>
      </trkpt>
      <trkpt lat="44.2423" lon="3.73373">
        <ele>938.38</ele>
        <time>2022-08-08T14:14:10Z</time>
      </trkpt>
      <trkpt lat="44.24235" lon="3.7339">
        <ele>938.86</ele>
        <time>2022-08-08T14:14:22Z</time>
      </trkpt>
      <trkpt lat="44.24244" lon="3.73406">
        <ele>938.86</ele>
        <time>2022-08-08T14:14:36Z</time>
      </trkpt>
      <trkpt lat="44.24248" lon="3.7343">
        <ele>940.79</ele>
        <time>2022-08-08T14:14:52Z</time>
      </trkpt>
      <trkpt lat="44.24253" lon="3.73449">
        <ele>940.79</ele>
        <time>2022-08-08T14:15:06Z</time>
      </trkpt>
      <trkpt lat="44.24259" lon="3.73467">
        <ele>940.79</ele>
        <time>2022-08-08T14:15:21Z</time>
      </trkpt>
      <trkpt lat="44.2427" lon="3.73488">
        <ele>940.79</ele>
        <time>2022-08-08T14:15:39Z</time>
      </trkpt>
      <trkpt lat="44.24279" lon="3.73505">
        <ele>943.19</ele>
        <time>2022-08-08T14:15:53Z</time>
      </trkpt>
      <trkpt lat="44.24291" lon="3.73521">
        <ele>942.71</ele>
        <time>2022-08-08T14:16:08Z</time>
      </trkpt>
      <trkpt lat="44.24295" lon="3.73534">
        <ele>942.71</ele>
        <time>2022-08-08T14:16:18Z</time>
      </trkpt>
      <trkpt lat="44.24294" lon="3.73543">
        <ele>942.71</ele>
        <time>2022-08-08T14:16:24Z</time>
      </trkpt>
      <trkpt lat="44.24281" lon="3.73563">
        <ele>943.67</ele>
        <time>2022-08-08T14:16:42Z</time>
      </trkpt>
      <trkpt lat="44.24272" lon="3.73585">
        <ele>945.11</ele>
        <time>2022-08-08T14:16:58Z</time>
      </trkpt>
      <trkpt lat="44.24266" lon="3.73602">
        <ele>947.04</ele>
        <time>2022-08-08T14:17:11Z</time>
      </trkpt>
      <trkpt lat="44.24267" lon="3.73624">
        <ele>949.44</ele>
        <time>2022-08-08T14:17:26Z</time>
      </trkpt>
      <trkpt lat="44.24275" lon="3.73644">
        <ele>950.88</ele>
        <time>2022-08-08T14:17:42Z</time>
      </trkpt>
      <trkpt lat="44.24279" lon="3.73657">
        <ele>951.36</ele>
        <time>2022-08-08T14:17:50Z</time>
      </trkpt>
      <trkpt lat="44.24281" lon="3.73659">
        <ele>951.84</ele>
        <time>2022-08-08T14:17:52Z</time>
      </trkpt>
      <trkpt lat="44.2429" lon="3.73679">
        <ele>953.28</ele>
        <time>2022-08-08T14:18:08Z</time>
      </trkpt>
      <trkpt lat="44.2429" lon="3.7368">
        <ele>953.28</ele>
        <time>2022-08-08T14:18:09Z</time>
      </trkpt>
      <trkpt lat="44.2429" lon="3.73699">
        <ele>953.77</ele>
        <time>2022-08-08T14:18:24Z</time>
      </trkpt>
      <trkpt lat="44.24279" lon="3.73715">
        <ele>953.77</ele>
        <time>2022-08-08T14:18:37Z</time>
      </trkpt>
      <trkpt lat="44.24274" lon="3.73722">
        <ele>953.28</ele>
        <time>2022-08-08T14:18:44Z</time>
      </trkpt>
      <trkpt lat="44.2427" lon="3.73729">
        <ele>951.84</ele>
        <time>2022-08-08T14:18:50Z</time>
      </trkpt>
      <trkpt lat="44.24264" lon="3.73749">
        <ele>953.77</ele>
        <time>2022-08-08T14:19:06Z</time>
      </trkpt>
      <trkpt lat="44.24265" lon="3.73751">
        <ele>953.77</ele>
        <time>2022-08-08T14:19:08Z</time>
      </trkpt>
      <trkpt lat="44.2427" lon="3.73771">
        <ele>957.13</ele>
        <time>2022-08-08T14:19:23Z</time>
      </trkpt>
      <trkpt lat="44.24278" lon="3.73789">
        <ele>960.01</ele>
        <time>2022-08-08T14:19:37Z</time>
      </trkpt>
      <trkpt lat="44.24285" lon="3.73809">
        <ele>960.49</ele>
        <time>2022-08-08T14:19:53Z</time>
      </trkpt>
      <trkpt lat="44.24285" lon="3.73811">
        <ele>960.49</ele>
        <time>2022-08-08T14:19:54Z</time>
      </trkpt>
      <trkpt lat="44.24286" lon="3.73832">
        <ele>960.98</ele>
        <time>2022-08-08T14:20:09Z</time>
      </trkpt>
      <trkpt lat="44.24289" lon="3.73853">
        <ele>960.98</ele>
        <time>2022-08-08T14:20:24Z</time>
      </trkpt>
      <trkpt lat="44.24289" lon="3.73874">
        <ele>963.86</ele>
        <time>2022-08-08T14:20:39Z</time>
      </trkpt>
      <trkpt lat="44.24283" lon="3.73891">
        <ele>963.38</ele>
        <time>2022-08-08T14:20:54Z</time>
      </trkpt>
      <trkpt lat="44.24279" lon="3.73897">
        <ele>964.82</ele>
        <time>2022-08-08T14:21:00Z</time>
      </trkpt>
      <trkpt lat="44.24275" lon="3.73914">
        <ele>965.78</ele>
        <time>2022-08-08T14:21:14Z</time>
      </trkpt>
      <trkpt lat="44.2427" lon="3.73933">
        <ele>965.78</ele>
        <time>2022-08-08T14:21:28Z</time>
      </trkpt>
      <trkpt lat="44.24266" lon="3.73956">
        <ele>965.3</ele>
        <time>2022-08-08T14:21:44Z</time>
      </trkpt>
      <trkpt lat="44.24266" lon="3.73958">
        <ele>965.78</ele>
        <time>2022-08-08T14:21:46Z</time>
      </trkpt>
      <trkpt lat="44.24267" lon="3.73964">
        <ele>966.74</ele>
        <time>2022-08-08T14:21:50Z</time>
      </trkpt>
      <trkpt lat="44.24266" lon="3.73967">
        <ele>966.74</ele>
        <time>2022-08-08T14:21:52Z</time>
      </trkpt>
      <trkpt lat="44.24263" lon="3.73989">
        <ele>968.18</ele>
        <time>2022-08-08T14:22:09Z</time>
      </trkpt>
      <trkpt lat="44.2426" lon="3.74005">
        <ele>971.07</ele>
        <time>2022-08-08T14:22:24Z</time>
      </trkpt>
      <trkpt lat="44.24256" lon="3.74018">
        <ele>971.07</ele>
        <time>2022-08-08T14:22:35Z</time>
      </trkpt>
      <trkpt lat="44.24255" lon="3.74039">
        <ele>972.03</ele>
        <time>2022-08-08T14:22:51Z</time>
      </trkpt>
      <trkpt lat="44.24256" lon="3.74033">
        <ele>972.03</ele>
        <time>2022-08-08T14:23:07Z</time>
      </trkpt>
      <trkpt lat="44.2426" lon="3.74044">
        <ele>972.03</ele>
        <time>2022-08-08T14:23:41Z</time>
      </trkpt>
      <trkpt lat="44.24259" lon="3.74046">
        <ele>972.51</ele>
        <time>2022-08-08T14:24:05Z</time>
      </trkpt>
      <trkpt lat="44.24257" lon="3.74041">
        <ele>973.47</ele>
        <time>2022-08-08T14:24:35Z</time>
      </trkpt>
      <trkpt lat="44.24253" lon="3.74043">
        <ele>975.39</ele>
        <time>2022-08-08T14:24:59Z</time>
      </trkpt>
      <trkpt lat="44.24252" lon="3.74047">
        <ele>974.91</ele>
        <time>2022-08-08T14:25:02Z</time>
      </trkpt>
      <trkpt lat="44.24251" lon="3.74058">
        <ele>974.43</ele>
        <time>2022-08-08T14:25:11Z</time>
      </trkpt>
      <trkpt lat="44.24247" lon="3.74079">
        <ele>974.43</ele>
        <time>2022-08-08T14:25:26Z</time>
      </trkpt>
      <trkpt lat="44.24247" lon="3.74081">
        <ele>973.95</ele>
        <time>2022-08-08T14:25:27Z</time>
      </trkpt>
      <trkpt lat="44.24246" lon="3.74096">
        <ele>973.47</ele>
        <time>2022-08-08T14:25:39Z</time>
      </trkpt>
      <trkpt lat="44.24246" lon="3.74115">
        <ele>970.59</ele>
        <time>2022-08-08T14:25:52Z</time>
      </trkpt>
      <trkpt lat="44.24249" lon="3.74136">
        <ele>968.67</ele>
        <time>2022-08-08T14:26:06Z</time>
      </trkpt>
      <trkpt lat="44.24247" lon="3.74158">
        <ele>968.67</ele>
        <time>2022-08-08T14:26:22Z</time>
      </trkpt>
      <trkpt lat="44.24242" lon="3.74182">
        <ele>970.11</ele>
        <time>2022-08-08T14:26:38Z</time>
      </trkpt>
      <trkpt lat="44.24235" lon="3.74199">
        <ele>971.55</ele>
        <time>2022-08-08T14:26:53Z</time>
      </trkpt>
      <trkpt lat="44.2423" lon="3.74218">
        <ele>972.51</ele>
        <time>2022-08-08T14:27:08Z</time>
      </trkpt>
      <trkpt lat="44.24231" lon="3.74236">
        <ele>975.39</ele>
        <time>2022-08-08T14:27:20Z</time>
      </trkpt>
      <trkpt lat="44.24239" lon="3.74251">
        <ele>975.88</ele>
        <time>2022-08-08T14:27:36Z</time>
      </trkpt>
      <trkpt lat="44.24248" lon="3.74263">
        <ele>975.39</ele>
        <time>2022-08-08T14:27:50Z</time>
      </trkpt>
      <trkpt lat="44.24249" lon="3.74277">
        <ele>977.32</ele>
        <time>2022-08-08T14:28:01Z</time>
      </trkpt>
      <trkpt lat="44.2424" lon="3.74294">
        <ele>979.72</ele>
        <time>2022-08-08T14:28:17Z</time>
      </trkpt>
      <trkpt lat="44.24234" lon="3.74312">
        <ele>980.2</ele>
        <time>2022-08-08T14:28:33Z</time>
      </trkpt>
      <trkpt lat="44.2423" lon="3.7432">
        <ele>981.16</ele>
        <time>2022-08-08T14:28:41Z</time>
      </trkpt>
      <trkpt lat="44.24222" lon="3.7434">
        <ele>982.12</ele>
        <time>2022-08-08T14:28:57Z</time>
      </trkpt>
      <trkpt lat="44.24213" lon="3.74352">
        <ele>984.05</ele>
        <time>2022-08-08T14:29:11Z</time>
      </trkpt>
      <trkpt lat="44.24206" lon="3.74369">
        <ele>985.01</ele>
        <time>2022-08-08T14:29:28Z</time>
      </trkpt>
      <trkpt lat="44.24201" lon="3.74384">
        <ele>985.49</ele>
        <time>2022-08-08T14:29:42Z</time>
      </trkpt>
      <trkpt lat="44.24199" lon="3.74406">
        <ele>986.93</ele>
        <time>2022-08-08T14:29:58Z</time>
      </trkpt>
      <trkpt lat="44.24205" lon="3.74423">
        <ele>986.93</ele>
        <time>2022-08-08T14:30:11Z</time>
      </trkpt>
      <trkpt lat="44.24206" lon="3.74427">
        <ele>986.93</ele>
        <time>2022-08-08T14:30:15Z</time>
      </trkpt>
      <trkpt lat="44.2421" lon="3.74441">
        <ele>988.85</ele>
        <time>2022-08-08T14:30:26Z</time>
      </trkpt>
      <trkpt lat="44.24223" lon="3.74461">
        <ele>990.3</ele>
        <time>2022-08-08T14:30:44Z</time>
      </trkpt>
      <trkpt lat="44.24226" lon="3.74468">
        <ele>991.26</ele>
        <time>2022-08-08T14:30:50Z</time>
      </trkpt>
      <trkpt lat="44.24237" lon="3.74488">
        <ele>991.74</ele>
        <time>2022-08-08T14:31:07Z</time>
      </trkpt>
      <trkpt lat="44.24239" lon="3.74496">
        <ele>991.74</ele>
        <time>2022-08-08T14:31:13Z</time>
      </trkpt>
      <trkpt lat="44.24236" lon="3.74507">
        <ele>994.14</ele>
        <time>2022-08-08T14:31:21Z</time>
      </trkpt>
      <trkpt lat="44.24231" lon="3.74525">
        <ele>995.1</ele>
        <time>2022-08-08T14:31:35Z</time>
      </trkpt>
      <trkpt lat="44.2423" lon="3.74528">
        <ele>995.1</ele>
        <time>2022-08-08T14:31:38Z</time>
      </trkpt>
      <trkpt lat="44.24223" lon="3.74544">
        <ele>995.1</ele>
        <time>2022-08-08T14:31:52Z</time>
      </trkpt>
      <trkpt lat="44.2422" lon="3.74567">
        <ele>998.47</ele>
        <time>2022-08-08T14:32:09Z</time>
      </trkpt>
      <trkpt lat="44.24215" lon="3.74584">
        <ele>1001.35</ele>
        <time>2022-08-08T14:32:22Z</time>
      </trkpt>
      <trkpt lat="44.2421" lon="3.74607">
        <ele>1003.75</ele>
        <time>2022-08-08T14:32:38Z</time>
      </trkpt>
      <trkpt lat="44.24209" lon="3.74626">
        <ele>1003.27</ele>
        <time>2022-08-08T14:32:51Z</time>
      </trkpt>
      <trkpt lat="44.24208" lon="3.7463">
        <ele>1003.27</ele>
        <time>2022-08-08T14:32:54Z</time>
      </trkpt>
      <trkpt lat="44.24207" lon="3.74633">
        <ele>1002.79</ele>
        <time>2022-08-08T14:32:56Z</time>
      </trkpt>
      <trkpt lat="44.24207" lon="3.74636">
        <ele>1002.31</ele>
        <time>2022-08-08T14:32:58Z</time>
      </trkpt>
      <trkpt lat="44.24203" lon="3.74658">
        <ele>1004.72</ele>
        <time>2022-08-08T14:33:13Z</time>
      </trkpt>
      <trkpt lat="44.24198" lon="3.74676">
        <ele>1004.72</ele>
        <time>2022-08-08T14:33:27Z</time>
      </trkpt>
      <trkpt lat="44.24196" lon="3.74679">
        <ele>1009.04</ele>
        <time>2022-08-08T14:33:40Z</time>
      </trkpt>
      <trkpt lat="44.24195" lon="3.7468">
        <ele>1007.12</ele>
        <time>2022-08-08T14:33:54Z</time>
      </trkpt>
      <trkpt lat="44.24192" lon="3.74687">
        <ele>1006.64</ele>
        <time>2022-08-08T14:34:12Z</time>
      </trkpt>
      <trkpt lat="44.24186" lon="3.74701">
        <ele>1008.56</ele>
        <time>2022-08-08T14:34:25Z</time>
      </trkpt>
      <trkpt lat="44.24182" lon="3.74703">
        <ele>1008.08</ele>
        <time>2022-08-08T14:34:37Z</time>
      </trkpt>
      <trkpt lat="44.24182" lon="3.747">
        <ele>1009.52</ele>
        <time>2022-08-08T14:34:50Z</time>
      </trkpt>
      <trkpt lat="44.24183" lon="3.74698">
        <ele>1012.41</ele>
        <time>2022-08-08T14:35:07Z</time>
      </trkpt>
      <trkpt lat="44.24184" lon="3.74706">
        <ele>1009.52</ele>
        <time>2022-08-08T14:35:30Z</time>
      </trkpt>
      <trkpt lat="44.24182" lon="3.74709">
        <ele>1009.52</ele>
        <time>2022-08-08T14:35:33Z</time>
      </trkpt>
      <trkpt lat="44.24176" lon="3.74727">
        <ele>1010.96</ele>
        <time>2022-08-08T14:35:47Z</time>
      </trkpt>
      <trkpt lat="44.24173" lon="3.74741">
        <ele>1011.44</ele>
        <time>2022-08-08T14:36:02Z</time>
      </trkpt>
      <trkpt lat="44.24171" lon="3.74735">
        <ele>1011.44</ele>
        <time>2022-08-08T14:36:17Z</time>
      </trkpt>
      <trkpt lat="44.24164" lon="3.74739">
        <ele>1010</ele>
        <time>2022-08-08T14:36:30Z</time>
      </trkpt>
      <trkpt lat="44.24155" lon="3.74738">
        <ele>1007.6</ele>
        <time>2022-08-08T14:36:44Z</time>
      </trkpt>
      <trkpt lat="44.24151" lon="3.74736">
        <ele>1006.16</ele>
        <time>2022-08-08T14:36:50Z</time>
      </trkpt>
      <trkpt lat="44.24144" lon="3.74733">
        <ele>1004.72</ele>
        <time>2022-08-08T14:36:58Z</time>
      </trkpt>
      <trkpt lat="44.24134" lon="3.74733">
        <ele>1002.31</ele>
        <time>2022-08-08T14:37:10Z</time>
      </trkpt>
      <trkpt lat="44.24125" lon="3.74726">
        <ele>1000.39</ele>
        <time>2022-08-08T14:37:22Z</time>
      </trkpt>
      <trkpt lat="44.24113" lon="3.74732">
        <ele>997.99</ele>
        <time>2022-08-08T14:37:36Z</time>
      </trkpt>
      <trkpt lat="44.24107" lon="3.74734">
        <ele>994.14</ele>
        <time>2022-08-08T14:37:52Z</time>
      </trkpt>
      <trkpt lat="44.24107" lon="3.74734">
        <ele>994.14</ele>
        <time>2022-08-08T14:38:17Z</time>
      </trkpt>
      <trkpt lat="44.24106" lon="3.74734">
        <ele>995.58</ele>
        <time>2022-08-08T14:38:34Z</time>
      </trkpt>
      <trkpt lat="44.24107" lon="3.74734">
        <ele>996.06</ele>
        <time>2022-08-08T14:38:52Z</time>
      </trkpt>
      <trkpt lat="44.24113" lon="3.74734">
        <ele>994.62</ele>
        <time>2022-08-08T14:39:14Z</time>
      </trkpt>
      <trkpt lat="44.24115" lon="3.74736">
        <ele>995.1</ele>
        <time>2022-08-08T14:39:30Z</time>
      </trkpt>
      <trkpt lat="44.24119" lon="3.7474">
        <ele>995.58</ele>
        <time>2022-08-08T14:39:42Z</time>
      </trkpt>
      <trkpt lat="44.24121" lon="3.74743">
        <ele>997.02</ele>
        <time>2022-08-08T14:39:54Z</time>
      </trkpt>
      <trkpt lat="44.24121" lon="3.74742">
        <ele>998.47</ele>
        <time>2022-08-08T14:40:17Z</time>
      </trkpt>
      <trkpt lat="44.24123" lon="3.7474">
        <ele>997.99</ele>
        <time>2022-08-08T14:40:39Z</time>
      </trkpt>
      <trkpt lat="44.24129" lon="3.74737">
        <ele>997.51</ele>
        <time>2022-08-08T14:40:54Z</time>
      </trkpt>
      <trkpt lat="44.24118" lon="3.74737">
        <ele>996.54</ele>
        <time>2022-08-08T14:41:06Z</time>
      </trkpt>
      <trkpt lat="44.24121" lon="3.74739">
        <ele>997.02</ele>
        <time>2022-08-08T14:41:15Z</time>
      </trkpt>
      <trkpt lat="44.24129" lon="3.74743">
        <ele>996.54</ele>
        <time>2022-08-08T14:41:28Z</time>
      </trkpt>
      <trkpt lat="44.24133" lon="3.74739">
        <ele>996.06</ele>
        <time>2022-08-08T14:41:46Z</time>
      </trkpt>
      <trkpt lat="44.24134" lon="3.74738">
        <ele>997.99</ele>
        <time>2022-08-08T14:41:58Z</time>
      </trkpt>
      <trkpt lat="44.24141" lon="3.74736">
        <ele>997.51</ele>
        <time>2022-08-08T14:42:10Z</time>
      </trkpt>
      <trkpt lat="44.24152" lon="3.74738">
        <ele>997.02</ele>
        <time>2022-08-08T14:42:26Z</time>
      </trkpt>
      <trkpt lat="44.2416" lon="3.74744">
        <ele>1000.39</ele>
        <time>2022-08-08T14:42:40Z</time>
      </trkpt>
      <trkpt lat="44.24171" lon="3.74743">
        <ele>1003.27</ele>
        <time>2022-08-08T14:42:56Z</time>
      </trkpt>
      <trkpt lat="44.24176" lon="3.74743">
        <ele>1005.2</ele>
        <time>2022-08-08T14:43:11Z</time>
      </trkpt>
      <trkpt lat="44.24173" lon="3.74741">
        <ele>1009.52</ele>
        <time>2022-08-08T14:43:28Z</time>
      </trkpt>
      <trkpt lat="44.24173" lon="3.74741">
        <ele>1010.48</ele>
        <time>2022-08-08T14:43:33Z</time>
      </trkpt>
      <trkpt lat="44.24174" lon="3.74762">
        <ele>1012.41</ele>
        <time>2022-08-08T14:43:48Z</time>
      </trkpt>
      <trkpt lat="44.24176" lon="3.74779">
        <ele>1012.89</ele>
        <time>2022-08-08T14:43:59Z</time>
      </trkpt>
      <trkpt lat="44.24176" lon="3.7478">
        <ele>1012.89</ele>
        <time>2022-08-08T14:44:00Z</time>
      </trkpt>
      <trkpt lat="44.24181" lon="3.74799">
        <ele>1012.89</ele>
        <time>2022-08-08T14:44:13Z</time>
      </trkpt>
      <trkpt lat="44.24182" lon="3.74802">
        <ele>1013.37</ele>
        <time>2022-08-08T14:44:15Z</time>
      </trkpt>
      <trkpt lat="44.24191" lon="3.74819">
        <ele>1014.81</ele>
        <time>2022-08-08T14:44:30Z</time>
      </trkpt>
      <trkpt lat="44.24203" lon="3.74833">
        <ele>1014.33</ele>
        <time>2022-08-08T14:44:44Z</time>
      </trkpt>
      <trkpt lat="44.24208" lon="3.74839">
        <ele>1014.33</ele>
        <time>2022-08-08T14:45:00Z</time>
      </trkpt>
      <trkpt lat="44.24218" lon="3.74846">
        <ele>1013.85</ele>
        <time>2022-08-08T14:45:15Z</time>
      </trkpt>
      <trkpt lat="44.24229" lon="3.74856">
        <ele>1015.29</ele>
        <time>2022-08-08T14:45:29Z</time>
      </trkpt>
      <trkpt lat="44.24237" lon="3.74873">
        <ele>1019.62</ele>
        <time>2022-08-08T14:45:41Z</time>
      </trkpt>
      <trkpt lat="44.24252" lon="3.7489">
        <ele>1019.62</ele>
        <time>2022-08-08T14:45:57Z</time>
      </trkpt>
      <trkpt lat="44.24255" lon="3.74892">
        <ele>1018.65</ele>
        <time>2022-08-08T14:45:59Z</time>
      </trkpt>
      <trkpt lat="44.24263" lon="3.74908">
        <ele>1017.69</ele>
        <time>2022-08-08T14:46:10Z</time>
      </trkpt>
      <trkpt lat="44.24264" lon="3.74913">
        <ele>1017.69</ele>
        <time>2022-08-08T14:46:14Z</time>
      </trkpt>
      <trkpt lat="44.24268" lon="3.74933">
        <ele>1016.73</ele>
        <time>2022-08-08T14:46:28Z</time>
      </trkpt>
      <trkpt lat="44.24269" lon="3.74947">
        <ele>1014.81</ele>
        <time>2022-08-08T14:46:38Z</time>
      </trkpt>
      <trkpt lat="44.24269" lon="3.74956">
        <ele>1013.85</ele>
        <time>2022-08-08T14:46:50Z</time>
      </trkpt>
      <trkpt lat="44.24267" lon="3.74954">
        <ele>1011.93</ele>
        <time>2022-08-08T14:47:09Z</time>
      </trkpt>
      <trkpt lat="44.24264" lon="3.74954">
        <ele>1016.73</ele>
        <time>2022-08-08T14:47:37Z</time>
      </trkpt>
      <trkpt lat="44.24264" lon="3.74959">
        <ele>1016.25</ele>
        <time>2022-08-08T14:48:08Z</time>
      </trkpt>
      <trkpt lat="44.24258" lon="3.74959">
        <ele>1024.9</ele>
        <time>2022-08-08T14:48:44Z</time>
      </trkpt>
      <trkpt lat="44.24257" lon="3.74959">
        <ele>1025.38</ele>
        <time>2022-08-08T14:48:46Z</time>
      </trkpt>
      <trkpt lat="44.24253" lon="3.74962">
        <ele>1025.38</ele>
        <time>2022-08-08T14:48:50Z</time>
      </trkpt>
      <trkpt lat="44.24251" lon="3.74965">
        <ele>1025.38</ele>
        <time>2022-08-08T14:48:53Z</time>
      </trkpt>
      <trkpt lat="44.24255" lon="3.74986">
        <ele>1019.62</ele>
        <time>2022-08-08T14:49:08Z</time>
      </trkpt>
      <trkpt lat="44.24263" lon="3.75004">
        <ele>1013.85</ele>
        <time>2022-08-08T14:49:22Z</time>
      </trkpt>
      <trkpt lat="44.24275" lon="3.75024">
        <ele>1007.6</ele>
        <time>2022-08-08T14:49:38Z</time>
      </trkpt>
      <trkpt lat="44.24277" lon="3.75045">
        <ele>1006.64</ele>
        <time>2022-08-08T14:49:51Z</time>
      </trkpt>
      <trkpt lat="44.24278" lon="3.75068">
        <ele>1003.27</ele>
        <time>2022-08-08T14:50:05Z</time>
      </trkpt>
      <trkpt lat="44.24283" lon="3.75092">
        <ele>995.58</ele>
        <time>2022-08-08T14:50:20Z</time>
      </trkpt>
      <trkpt lat="44.24287" lon="3.75118">
        <ele>992.22</ele>
        <time>2022-08-08T14:50:35Z</time>
      </trkpt>
      <trkpt lat="44.24289" lon="3.75144">
        <ele>989.81</ele>
        <time>2022-08-08T14:50:53Z</time>
      </trkpt>
      <trkpt lat="44.24289" lon="3.75165">
        <ele>987.41</ele>
        <time>2022-08-08T14:51:08Z</time>
      </trkpt>
      <trkpt lat="44.24279" lon="3.75185">
        <ele>997.99</ele>
        <time>2022-08-08T14:51:22Z</time>
      </trkpt>
      <trkpt lat="44.24263" lon="3.752">
        <ele>1006.16</ele>
        <time>2022-08-08T14:51:38Z</time>
      </trkpt>
      <trkpt lat="44.24247" lon="3.75226">
        <ele>1007.12</ele>
        <time>2022-08-08T14:51:55Z</time>
      </trkpt>
      <trkpt lat="44.24238" lon="3.75246">
        <ele>1006.64</ele>
        <time>2022-08-08T14:52:10Z</time>
      </trkpt>
      <trkpt lat="44.24229" lon="3.75261">
        <ele>1007.6</ele>
        <time>2022-08-08T14:52:24Z</time>
      </trkpt>
      <trkpt lat="44.24212" lon="3.75274">
        <ele>1010.96</ele>
        <time>2022-08-08T14:52:40Z</time>
      </trkpt>
      <trkpt lat="44.24201" lon="3.75295">
        <ele>1008.56</ele>
        <time>2022-08-08T14:52:56Z</time>
      </trkpt>
      <trkpt lat="44.24199" lon="3.753">
        <ele>1008.08</ele>
        <time>2022-08-08T14:52:59Z</time>
      </trkpt>
      <trkpt lat="44.24183" lon="3.75318">
        <ele>1004.72</ele>
        <time>2022-08-08T14:53:15Z</time>
      </trkpt>
      <trkpt lat="44.24182" lon="3.7532">
        <ele>1002.79</ele>
        <time>2022-08-08T14:53:24Z</time>
      </trkpt>
      <trkpt lat="44.24167" lon="3.75331">
        <ele>1000.39</ele>
        <time>2022-08-08T14:53:39Z</time>
      </trkpt>
      <trkpt lat="44.24159" lon="3.75335">
        <ele>999.91</ele>
        <time>2022-08-08T14:53:54Z</time>
      </trkpt>
      <trkpt lat="44.24155" lon="3.75341">
        <ele>998.95</ele>
        <time>2022-08-08T14:54:14Z</time>
      </trkpt>
      <trkpt lat="44.24146" lon="3.75354">
        <ele>998.95</ele>
        <time>2022-08-08T14:54:26Z</time>
      </trkpt>
      <trkpt lat="44.2414" lon="3.75361">
        <ele>999.91</ele>
        <time>2022-08-08T14:54:33Z</time>
      </trkpt>
      <trkpt lat="44.24138" lon="3.75364">
        <ele>1000.39</ele>
        <time>2022-08-08T14:54:36Z</time>
      </trkpt>
      <trkpt lat="44.24132" lon="3.75369">
        <ele>1000.39</ele>
        <time>2022-08-08T14:54:42Z</time>
      </trkpt>
      <trkpt lat="44.24122" lon="3.75384">
        <ele>997.51</ele>
        <time>2022-08-08T14:54:55Z</time>
      </trkpt>
      <trkpt lat="44.24117" lon="3.75396">
        <ele>996.06</ele>
        <time>2022-08-08T14:55:02Z</time>
      </trkpt>
      <trkpt lat="44.24114" lon="3.75405">
        <ele>994.62</ele>
        <time>2022-08-08T14:55:08Z</time>
      </trkpt>
      <trkpt lat="44.24112" lon="3.75414">
        <ele>993.18</ele>
        <time>2022-08-08T14:55:14Z</time>
      </trkpt>
      <trkpt lat="44.24106" lon="3.75424">
        <ele>993.18</ele>
        <time>2022-08-08T14:55:21Z</time>
      </trkpt>
      <trkpt lat="44.24099" lon="3.75442">
        <ele>994.62</ele>
        <time>2022-08-08T14:55:34Z</time>
      </trkpt>
      <trkpt lat="44.24097" lon="3.75451">
        <ele>994.14</ele>
        <time>2022-08-08T14:55:41Z</time>
      </trkpt>
      <trkpt lat="44.24089" lon="3.75469">
        <ele>995.58</ele>
        <time>2022-08-08T14:55:55Z</time>
      </trkpt>
      <trkpt lat="44.24079" lon="3.75476">
        <ele>997.99</ele>
        <time>2022-08-08T14:56:06Z</time>
      </trkpt>
      <trkpt lat="44.24074" lon="3.7548">
        <ele>997.51</ele>
        <time>2022-08-08T14:56:15Z</time>
      </trkpt>
      <trkpt lat="44.24066" lon="3.75496">
        <ele>994.14</ele>
        <time>2022-08-08T14:56:31Z</time>
      </trkpt>
      <trkpt lat="44.24056" lon="3.75505">
        <ele>991.26</ele>
        <time>2022-08-08T14:56:54Z</time>
      </trkpt>
      <trkpt lat="44.2404" lon="3.75515">
        <ele>990.3</ele>
        <time>2022-08-08T14:57:08Z</time>
      </trkpt>
      <trkpt lat="44.24025" lon="3.75515">
        <ele>990.78</ele>
        <time>2022-08-08T14:57:22Z</time>
      </trkpt>
      <trkpt lat="44.24006" lon="3.75509">
        <ele>989.33</ele>
        <time>2022-08-08T14:57:37Z</time>
      </trkpt>
      <trkpt lat="44.23987" lon="3.75511">
        <ele>989.33</ele>
        <time>2022-08-08T14:57:50Z</time>
      </trkpt>
      <trkpt lat="44.23979" lon="3.75515">
        <ele>989.33</ele>
        <time>2022-08-08T14:57:56Z</time>
      </trkpt>
      <trkpt lat="44.23976" lon="3.75516">
        <ele>989.33</ele>
        <time>2022-08-08T14:57:58Z</time>
      </trkpt>
      <trkpt lat="44.2397" lon="3.75516">
        <ele>988.85</ele>
        <time>2022-08-08T14:58:02Z</time>
      </trkpt>
      <trkpt lat="44.23948" lon="3.75518">
        <ele>988.37</ele>
        <time>2022-08-08T14:58:19Z</time>
      </trkpt>
      <trkpt lat="44.23928" lon="3.75522">
        <ele>987.89</ele>
        <time>2022-08-08T14:58:35Z</time>
      </trkpt>
      <trkpt lat="44.23923" lon="3.75522">
        <ele>987.89</ele>
        <time>2022-08-08T14:58:39Z</time>
      </trkpt>
      <trkpt lat="44.23917" lon="3.75523">
        <ele>987.89</ele>
        <time>2022-08-08T14:58:44Z</time>
      </trkpt>
      <trkpt lat="44.23912" lon="3.75523">
        <ele>987.89</ele>
        <time>2022-08-08T14:58:48Z</time>
      </trkpt>
      <trkpt lat="44.23891" lon="3.75524">
        <ele>987.89</ele>
        <time>2022-08-08T14:59:05Z</time>
      </trkpt>
      <trkpt lat="44.23881" lon="3.75524">
        <ele>988.37</ele>
        <time>2022-08-08T14:59:13Z</time>
      </trkpt>
      <trkpt lat="44.23863" lon="3.75531">
        <ele>986.45</ele>
        <time>2022-08-08T14:59:29Z</time>
      </trkpt>
      <trkpt lat="44.23849" lon="3.75536">
        <ele>982.6</ele>
        <time>2022-08-08T14:59:43Z</time>
      </trkpt>
      <trkpt lat="44.23832" lon="3.75542">
        <ele>979.72</ele>
        <time>2022-08-08T14:59:58Z</time>
      </trkpt>
      <trkpt lat="44.23814" lon="3.75547">
        <ele>979.24</ele>
        <time>2022-08-08T15:00:12Z</time>
      </trkpt>
      <trkpt lat="44.23795" lon="3.75552">
        <ele>979.24</ele>
        <time>2022-08-08T15:00:27Z</time>
      </trkpt>
      <trkpt lat="44.23793" lon="3.75554">
        <ele>979.24</ele>
        <time>2022-08-08T15:00:29Z</time>
      </trkpt>
      <trkpt lat="44.23775" lon="3.75556">
        <ele>979.24</ele>
        <time>2022-08-08T15:00:44Z</time>
      </trkpt>
      <trkpt lat="44.2376" lon="3.75556">
        <ele>979.72</ele>
        <time>2022-08-08T15:00:57Z</time>
      </trkpt>
      <trkpt lat="44.2375" lon="3.75558">
        <ele>980.2</ele>
        <time>2022-08-08T15:01:08Z</time>
      </trkpt>
      <trkpt lat="44.23735" lon="3.75564">
        <ele>979.72</ele>
        <time>2022-08-08T15:01:22Z</time>
      </trkpt>
      <trkpt lat="44.23718" lon="3.75573">
        <ele>980.2</ele>
        <time>2022-08-08T15:01:35Z</time>
      </trkpt>
      <trkpt lat="44.23708" lon="3.75579">
        <ele>979.72</ele>
        <time>2022-08-08T15:01:43Z</time>
      </trkpt>
      <trkpt lat="44.2369" lon="3.7559">
        <ele>979.72</ele>
        <time>2022-08-08T15:01:57Z</time>
      </trkpt>
      <trkpt lat="44.23676" lon="3.75591">
        <ele>979.72</ele>
        <time>2022-08-08T15:02:07Z</time>
      </trkpt>
      <trkpt lat="44.23665" lon="3.75595">
        <ele>980.2</ele>
        <time>2022-08-08T15:02:18Z</time>
      </trkpt>
      <trkpt lat="44.23658" lon="3.756">
        <ele>980.68</ele>
        <time>2022-08-08T15:02:24Z</time>
      </trkpt>
      <trkpt lat="44.23636" lon="3.75611">
        <ele>980.2</ele>
        <time>2022-08-08T15:02:41Z</time>
      </trkpt>
      <trkpt lat="44.23621" lon="3.75615">
        <ele>981.16</ele>
        <time>2022-08-08T15:02:56Z</time>
      </trkpt>
      <trkpt lat="44.23609" lon="3.75613">
        <ele>983.57</ele>
        <time>2022-08-08T15:03:07Z</time>
      </trkpt>
      <trkpt lat="44.23597" lon="3.75609">
        <ele>984.53</ele>
        <time>2022-08-08T15:03:16Z</time>
      </trkpt>
      <trkpt lat="44.23578" lon="3.75612">
        <ele>982.6</ele>
        <time>2022-08-08T15:03:31Z</time>
      </trkpt>
      <trkpt lat="44.23566" lon="3.75617">
        <ele>981.64</ele>
        <time>2022-08-08T15:03:44Z</time>
      </trkpt>
      <trkpt lat="44.23551" lon="3.75626">
        <ele>977.32</ele>
        <time>2022-08-08T15:03:58Z</time>
      </trkpt>
      <trkpt lat="44.2354" lon="3.75638">
        <ele>975.88</ele>
        <time>2022-08-08T15:04:12Z</time>
      </trkpt>
      <trkpt lat="44.2353" lon="3.75653">
        <ele>973.95</ele>
        <time>2022-08-08T15:04:25Z</time>
      </trkpt>
      <trkpt lat="44.23522" lon="3.75667">
        <ele>970.59</ele>
        <time>2022-08-08T15:04:38Z</time>
      </trkpt>
      <trkpt lat="44.23514" lon="3.75682">
        <ele>968.67</ele>
        <time>2022-08-08T15:04:52Z</time>
      </trkpt>
      <trkpt lat="44.23503" lon="3.757">
        <ele>967.22</ele>
        <time>2022-08-08T15:05:07Z</time>
      </trkpt>
      <trkpt lat="44.23498" lon="3.75711">
        <ele>967.22</ele>
        <time>2022-08-08T15:05:21Z</time>
      </trkpt>
      <trkpt lat="44.23489" lon="3.75726">
        <ele>968.67</ele>
        <time>2022-08-08T15:05:33Z</time>
      </trkpt>
      <trkpt lat="44.2348" lon="3.75746">
        <ele>970.11</ele>
        <time>2022-08-08T15:05:48Z</time>
      </trkpt>
      <trkpt lat="44.23478" lon="3.75772">
        <ele>969.63</ele>
        <time>2022-08-08T15:06:05Z</time>
      </trkpt>
      <trkpt lat="44.23469" lon="3.75802">
        <ele>972.99</ele>
        <time>2022-08-08T15:06:22Z</time>
      </trkpt>
      <trkpt lat="44.23465" lon="3.75829">
        <ele>971.55</ele>
        <time>2022-08-08T15:06:37Z</time>
      </trkpt>
      <trkpt lat="44.23464" lon="3.75844">
        <ele>970.59</ele>
        <time>2022-08-08T15:06:48Z</time>
      </trkpt>
      <trkpt lat="44.23472" lon="3.75863">
        <ele>970.11</ele>
        <time>2022-08-08T15:07:02Z</time>
      </trkpt>
      <trkpt lat="44.23476" lon="3.75879">
        <ele>970.59</ele>
        <time>2022-08-08T15:07:12Z</time>
      </trkpt>
      <trkpt lat="44.23467" lon="3.75902">
        <ele>972.51</ele>
        <time>2022-08-08T15:07:27Z</time>
      </trkpt>
      <trkpt lat="44.23466" lon="3.75905">
        <ele>972.51</ele>
        <time>2022-08-08T15:07:29Z</time>
      </trkpt>
      <trkpt lat="44.23455" lon="3.75915">
        <ele>972.99</ele>
        <time>2022-08-08T15:07:42Z</time>
      </trkpt>
      <trkpt lat="44.23454" lon="3.75916">
        <ele>972.99</ele>
        <time>2022-08-08T15:07:43Z</time>
      </trkpt>
      <trkpt lat="44.2344" lon="3.75922">
        <ele>973.95</ele>
        <time>2022-08-08T15:07:57Z</time>
      </trkpt>
      <trkpt lat="44.23424" lon="3.75928">
        <ele>975.39</ele>
        <time>2022-08-08T15:08:13Z</time>
      </trkpt>
      <trkpt lat="44.23411" lon="3.75937">
        <ele>975.88</ele>
        <time>2022-08-08T15:08:26Z</time>
      </trkpt>
      <trkpt lat="44.23409" lon="3.75938">
        <ele>975.88</ele>
        <time>2022-08-08T15:08:28Z</time>
      </trkpt>
      <trkpt lat="44.23396" lon="3.75951">
        <ele>976.84</ele>
        <time>2022-08-08T15:08:43Z</time>
      </trkpt>
      <trkpt lat="44.23392" lon="3.75979">
        <ele>971.07</ele>
        <time>2022-08-08T15:08:56Z</time>
      </trkpt>
      <trkpt lat="44.23393" lon="3.76002">
        <ele>966.26</ele>
        <time>2022-08-08T15:09:11Z</time>
      </trkpt>
      <trkpt lat="44.23389" lon="3.76015">
        <ele>966.26</ele>
        <time>2022-08-08T15:09:20Z</time>
      </trkpt>
      <trkpt lat="44.23386" lon="3.76032">
        <ele>969.15</ele>
        <time>2022-08-08T15:09:30Z</time>
      </trkpt>
      <trkpt lat="44.23382" lon="3.76048">
        <ele>970.11</ele>
        <time>2022-08-08T15:09:45Z</time>
      </trkpt>
      <trkpt lat="44.23382" lon="3.76074">
        <ele>970.11</ele>
        <time>2022-08-08T15:10:00Z</time>
      </trkpt>
      <trkpt lat="44.23384" lon="3.76102">
        <ele>969.63</ele>
        <time>2022-08-08T15:10:15Z</time>
      </trkpt>
      <trkpt lat="44.23384" lon="3.76126">
        <ele>972.03</ele>
        <time>2022-08-08T15:10:29Z</time>
      </trkpt>
      <trkpt lat="44.23384" lon="3.76154">
        <ele>975.39</ele>
        <time>2022-08-08T15:10:45Z</time>
      </trkpt>
      <trkpt lat="44.2339" lon="3.76179">
        <ele>972.99</ele>
        <time>2022-08-08T15:11:01Z</time>
      </trkpt>
      <trkpt lat="44.23397" lon="3.762">
        <ele>968.18</ele>
        <time>2022-08-08T15:11:16Z</time>
      </trkpt>
      <trkpt lat="44.23398" lon="3.76218">
        <ele>968.18</ele>
        <time>2022-08-08T15:11:29Z</time>
      </trkpt>
      <trkpt lat="44.23402" lon="3.76239">
        <ele>966.26</ele>
        <time>2022-08-08T15:11:43Z</time>
      </trkpt>
      <trkpt lat="44.23407" lon="3.76257">
        <ele>963.86</ele>
        <time>2022-08-08T15:11:57Z</time>
      </trkpt>
      <trkpt lat="44.23412" lon="3.7628">
        <ele>959.53</ele>
        <time>2022-08-08T15:12:13Z</time>
      </trkpt>
      <trkpt lat="44.23412" lon="3.76283">
        <ele>959.53</ele>
        <time>2022-08-08T15:12:15Z</time>
      </trkpt>
      <trkpt lat="44.23415" lon="3.76313">
        <ele>957.13</ele>
        <time>2022-08-08T15:12:34Z</time>
      </trkpt>
      <trkpt lat="44.23423" lon="3.76329">
        <ele>954.25</ele>
        <time>2022-08-08T15:12:47Z</time>
      </trkpt>
      <trkpt lat="44.23432" lon="3.76347">
        <ele>955.21</ele>
        <time>2022-08-08T15:13:02Z</time>
      </trkpt>
      <trkpt lat="44.23441" lon="3.76363">
        <ele>955.21</ele>
        <time>2022-08-08T15:13:18Z</time>
      </trkpt>
      <trkpt lat="44.23447" lon="3.7638">
        <ele>956.17</ele>
        <time>2022-08-08T15:13:28Z</time>
      </trkpt>
      <trkpt lat="44.23453" lon="3.76407">
        <ele>958.09</ele>
        <time>2022-08-08T15:13:44Z</time>
      </trkpt>
      <trkpt lat="44.23459" lon="3.76424">
        <ele>956.17</ele>
        <time>2022-08-08T15:13:58Z</time>
      </trkpt>
      <trkpt lat="44.23464" lon="3.76443">
        <ele>952.32</ele>
        <time>2022-08-08T15:14:11Z</time>
      </trkpt>
      <trkpt lat="44.23471" lon="3.76464">
        <ele>948.96</ele>
        <time>2022-08-08T15:14:24Z</time>
      </trkpt>
      <trkpt lat="44.23482" lon="3.76486">
        <ele>946.56</ele>
        <time>2022-08-08T15:14:40Z</time>
      </trkpt>
      <trkpt lat="44.2349" lon="3.76508">
        <ele>946.56</ele>
        <time>2022-08-08T15:14:54Z</time>
      </trkpt>
      <trkpt lat="44.23492" lon="3.76535">
        <ele>944.15</ele>
        <time>2022-08-08T15:15:11Z</time>
      </trkpt>
      <trkpt lat="44.23492" lon="3.76557">
        <ele>945.59</ele>
        <time>2022-08-08T15:15:27Z</time>
      </trkpt>
      <trkpt lat="44.23498" lon="3.76572">
        <ele>945.59</ele>
        <time>2022-08-08T15:15:36Z</time>
      </trkpt>
      <trkpt lat="44.23513" lon="3.7658">
        <ele>944.15</ele>
        <time>2022-08-08T15:15:50Z</time>
      </trkpt>
      <trkpt lat="44.23524" lon="3.76589">
        <ele>944.15</ele>
        <time>2022-08-08T15:16:02Z</time>
      </trkpt>
      <trkpt lat="44.23537" lon="3.76595">
        <ele>943.19</ele>
        <time>2022-08-08T15:16:16Z</time>
      </trkpt>
      <trkpt lat="44.2354" lon="3.76607">
        <ele>944.63</ele>
        <time>2022-08-08T15:16:28Z</time>
      </trkpt>
      <trkpt lat="44.2353" lon="3.76602">
        <ele>942.71</ele>
        <time>2022-08-08T15:16:43Z</time>
      </trkpt>
      <trkpt lat="44.2354" lon="3.76607">
        <ele>940.31</ele>
        <time>2022-08-08T15:16:59Z</time>
      </trkpt>
      <trkpt lat="44.23552" lon="3.76606">
        <ele>938.86</ele>
        <time>2022-08-08T15:17:15Z</time>
      </trkpt>
      <trkpt lat="44.2355" lon="3.76604">
        <ele>940.31</ele>
        <time>2022-08-08T15:17:30Z</time>
      </trkpt>
      <trkpt lat="44.23542" lon="3.766">
        <ele>942.71</ele>
        <time>2022-08-08T15:17:50Z</time>
      </trkpt>
      <trkpt lat="44.23531" lon="3.76599">
        <ele>941.75</ele>
        <time>2022-08-08T15:18:04Z</time>
      </trkpt>
      <trkpt lat="44.23519" lon="3.76596">
        <ele>937.9</ele>
        <time>2022-08-08T15:18:20Z</time>
      </trkpt>
      <trkpt lat="44.23522" lon="3.7661">
        <ele>932.14</ele>
        <time>2022-08-08T15:18:33Z</time>
      </trkpt>
      <trkpt lat="44.23528" lon="3.76616">
        <ele>930.69</ele>
        <time>2022-08-08T15:18:38Z</time>
      </trkpt>
      <trkpt lat="44.23539" lon="3.76629">
        <ele>930.21</ele>
        <time>2022-08-08T15:18:52Z</time>
      </trkpt>
      <trkpt lat="44.23551" lon="3.7664">
        <ele>932.14</ele>
        <time>2022-08-08T15:19:04Z</time>
      </trkpt>
      <trkpt lat="44.23557" lon="3.76644">
        <ele>933.1</ele>
        <time>2022-08-08T15:19:11Z</time>
      </trkpt>
      <trkpt lat="44.23572" lon="3.76656">
        <ele>935.02</ele>
        <time>2022-08-08T15:19:26Z</time>
      </trkpt>
      <trkpt lat="44.23584" lon="3.76656">
        <ele>935.5</ele>
        <time>2022-08-08T15:19:39Z</time>
      </trkpt>
      <trkpt lat="44.23596" lon="3.76661">
        <ele>935.98</ele>
        <time>2022-08-08T15:19:51Z</time>
      </trkpt>
      <trkpt lat="44.23606" lon="3.76675">
        <ele>935.5</ele>
        <time>2022-08-08T15:20:04Z</time>
      </trkpt>
      <trkpt lat="44.23606" lon="3.76677">
        <ele>935.5</ele>
        <time>2022-08-08T15:20:05Z</time>
      </trkpt>
      <trkpt lat="44.23608" lon="3.76707">
        <ele>941.75</ele>
        <time>2022-08-08T15:20:20Z</time>
      </trkpt>
      <trkpt lat="44.23604" lon="3.76721">
        <ele>937.9</ele>
        <time>2022-08-08T15:20:36Z</time>
      </trkpt>
      <trkpt lat="44.23603" lon="3.76733">
        <ele>936.94</ele>
        <time>2022-08-08T15:20:47Z</time>
      </trkpt>
      <trkpt lat="44.23596" lon="3.76755">
        <ele>936.46</ele>
        <time>2022-08-08T15:21:02Z</time>
      </trkpt>
      <trkpt lat="44.23594" lon="3.76775">
        <ele>934.54</ele>
        <time>2022-08-08T15:21:16Z</time>
      </trkpt>
      <trkpt lat="44.2359" lon="3.76794">
        <ele>933.58</ele>
        <time>2022-08-08T15:21:29Z</time>
      </trkpt>
      <trkpt lat="44.23588" lon="3.76803">
        <ele>934.06</ele>
        <time>2022-08-08T15:21:34Z</time>
      </trkpt>
      <trkpt lat="44.23584" lon="3.76824">
        <ele>932.62</ele>
        <time>2022-08-08T15:21:48Z</time>
      </trkpt>
      <trkpt lat="44.23581" lon="3.76847">
        <ele>930.21</ele>
        <time>2022-08-08T15:22:02Z</time>
      </trkpt>
      <trkpt lat="44.23582" lon="3.76879">
        <ele>927.33</ele>
        <time>2022-08-08T15:22:19Z</time>
      </trkpt>
      <trkpt lat="44.23582" lon="3.76896">
        <ele>923.96</ele>
        <time>2022-08-08T15:22:33Z</time>
      </trkpt>
      <trkpt lat="44.23584" lon="3.76897">
        <ele>923.96</ele>
        <time>2022-08-08T15:22:52Z</time>
      </trkpt>
      <trkpt lat="44.23586" lon="3.76902">
        <ele>926.37</ele>
        <time>2022-08-08T15:23:20Z</time>
      </trkpt>
      <trkpt lat="44.23589" lon="3.76899">
        <ele>927.81</ele>
        <time>2022-08-08T15:23:41Z</time>
      </trkpt>
      <trkpt lat="44.23589" lon="3.769">
        <ele>927.81</ele>
        <time>2022-08-08T15:23:44Z</time>
      </trkpt>
      <trkpt lat="44.23573" lon="3.7691">
        <ele>926.85</ele>
        <time>2022-08-09T04:59:05Z</time>
      </trkpt>
      <trkpt lat="44.23581" lon="3.76912">
        <ele>929.73</ele>
        <time>2022-08-09T04:59:57Z</time>
      </trkpt>
      <trkpt lat="44.23581" lon="3.76914">
        <ele>930.69</ele>
        <time>2022-08-09T05:00:18Z</time>
      </trkpt>
      <trkpt lat="44.23583" lon="3.7691">
        <ele>934.06</ele>
        <time>2022-08-09T05:00:36Z</time>
      </trkpt>
      <trkpt lat="44.23581" lon="3.76909">
        <ele>934.54</ele>
        <time>2022-08-09T05:01:01Z</time>
      </trkpt>
      <trkpt lat="44.23581" lon="3.76913">
        <ele>936.94</ele>
        <time>2022-08-09T05:01:13Z</time>
      </trkpt>
      <trkpt lat="44.23583" lon="3.76926">
        <ele>935.98</ele>
        <time>2022-08-09T05:01:28Z</time>
      </trkpt>
      <trkpt lat="44.23587" lon="3.76942">
        <ele>933.58</ele>
        <time>2022-08-09T05:01:45Z</time>
      </trkpt>
      <trkpt lat="44.23588" lon="3.7696">
        <ele>929.73</ele>
        <time>2022-08-09T05:02:00Z</time>
      </trkpt>
      <trkpt lat="44.23589" lon="3.7698">
        <ele>925.89</ele>
        <time>2022-08-09T05:02:16Z</time>
      </trkpt>
      <trkpt lat="44.23591" lon="3.76994">
        <ele>923</ele>
        <time>2022-08-09T05:02:29Z</time>
      </trkpt>
      <trkpt lat="44.23595" lon="3.77018">
        <ele>928.29</ele>
        <time>2022-08-09T05:02:44Z</time>
      </trkpt>
      <trkpt lat="44.23598" lon="3.77037">
        <ele>929.25</ele>
        <time>2022-08-09T05:02:59Z</time>
      </trkpt>
      <trkpt lat="44.23603" lon="3.77056">
        <ele>927.33</ele>
        <time>2022-08-09T05:03:14Z</time>
      </trkpt>
      <trkpt lat="44.23605" lon="3.77076">
        <ele>925.89</ele>
        <time>2022-08-09T05:03:29Z</time>
      </trkpt>
      <trkpt lat="44.23608" lon="3.77095">
        <ele>923</ele>
        <time>2022-08-09T05:03:43Z</time>
      </trkpt>
      <trkpt lat="44.23608" lon="3.77114">
        <ele>918.2</ele>
        <time>2022-08-09T05:04:00Z</time>
      </trkpt>
      <trkpt lat="44.23619" lon="3.77134">
        <ele>910.03</ele>
        <time>2022-08-09T05:04:14Z</time>
      </trkpt>
      <trkpt lat="44.23625" lon="3.77152">
        <ele>907.14</ele>
        <time>2022-08-09T05:04:27Z</time>
      </trkpt>
      <trkpt lat="44.23625" lon="3.77155">
        <ele>906.18</ele>
        <time>2022-08-09T05:04:30Z</time>
      </trkpt>
      <trkpt lat="44.23625" lon="3.77158">
        <ele>905.7</ele>
        <time>2022-08-09T05:04:32Z</time>
      </trkpt>
      <trkpt lat="44.23632" lon="3.77183">
        <ele>901.85</ele>
        <time>2022-08-09T05:04:49Z</time>
      </trkpt>
      <trkpt lat="44.23637" lon="3.77203">
        <ele>899.45</ele>
        <time>2022-08-09T05:05:04Z</time>
      </trkpt>
      <trkpt lat="44.23625" lon="3.77208">
        <ele>895.61</ele>
        <time>2022-08-09T05:05:20Z</time>
      </trkpt>
      <trkpt lat="44.23611" lon="3.77201">
        <ele>892.72</ele>
        <time>2022-08-09T05:05:35Z</time>
      </trkpt>
      <trkpt lat="44.23613" lon="3.77218">
        <ele>888.88</ele>
        <time>2022-08-09T05:05:49Z</time>
      </trkpt>
      <trkpt lat="44.23621" lon="3.77235">
        <ele>887.91</ele>
        <time>2022-08-09T05:06:04Z</time>
      </trkpt>
      <trkpt lat="44.23629" lon="3.77249">
        <ele>886.95</ele>
        <time>2022-08-09T05:06:18Z</time>
      </trkpt>
      <trkpt lat="44.23639" lon="3.7726">
        <ele>886.47</ele>
        <time>2022-08-09T05:06:32Z</time>
      </trkpt>
      <trkpt lat="44.2365" lon="3.77276">
        <ele>886.47</ele>
        <time>2022-08-09T05:06:47Z</time>
      </trkpt>
      <trkpt lat="44.23649" lon="3.77288">
        <ele>887.43</ele>
        <time>2022-08-09T05:06:56Z</time>
      </trkpt>
      <trkpt lat="44.23641" lon="3.77299">
        <ele>887.43</ele>
        <time>2022-08-09T05:07:11Z</time>
      </trkpt>
      <trkpt lat="44.23639" lon="3.77299">
        <ele>887.43</ele>
        <time>2022-08-09T05:07:16Z</time>
      </trkpt>
      <trkpt lat="44.23639" lon="3.7731">
        <ele>887.43</ele>
        <time>2022-08-09T05:07:23Z</time>
      </trkpt>
      <trkpt lat="44.23635" lon="3.77315">
        <ele>886.95</ele>
        <time>2022-08-09T05:07:28Z</time>
      </trkpt>
      <trkpt lat="44.23622" lon="3.7732">
        <ele>888.4</ele>
        <time>2022-08-09T05:07:41Z</time>
      </trkpt>
      <trkpt lat="44.2361" lon="3.77329">
        <ele>889.84</ele>
        <time>2022-08-09T05:07:55Z</time>
      </trkpt>
      <trkpt lat="44.23589" lon="3.77331">
        <ele>892.24</ele>
        <time>2022-08-09T05:08:11Z</time>
      </trkpt>
      <trkpt lat="44.23579" lon="3.77332">
        <ele>893.2</ele>
        <time>2022-08-09T05:08:18Z</time>
      </trkpt>
      <trkpt lat="44.23559" lon="3.7733">
        <ele>893.2</ele>
        <time>2022-08-09T05:08:35Z</time>
      </trkpt>
      <trkpt lat="44.23543" lon="3.77332">
        <ele>895.12</ele>
        <time>2022-08-09T05:08:50Z</time>
      </trkpt>
      <trkpt lat="44.23527" lon="3.77337">
        <ele>895.61</ele>
        <time>2022-08-09T05:09:04Z</time>
      </trkpt>
      <trkpt lat="44.23515" lon="3.77341">
        <ele>894.64</ele>
        <time>2022-08-09T05:09:17Z</time>
      </trkpt>
      <trkpt lat="44.23502" lon="3.77351">
        <ele>894.64</ele>
        <time>2022-08-09T05:09:30Z</time>
      </trkpt>
      <trkpt lat="44.23485" lon="3.77367">
        <ele>897.53</ele>
        <time>2022-08-09T05:09:46Z</time>
      </trkpt>
      <trkpt lat="44.23477" lon="3.77379">
        <ele>899.45</ele>
        <time>2022-08-09T05:09:58Z</time>
      </trkpt>
      <trkpt lat="44.23471" lon="3.77388">
        <ele>902.82</ele>
        <time>2022-08-09T05:10:11Z</time>
      </trkpt>
      <trkpt lat="44.2347" lon="3.77389">
        <ele>903.3</ele>
        <time>2022-08-09T05:10:12Z</time>
      </trkpt>
      <trkpt lat="44.23458" lon="3.77404">
        <ele>904.74</ele>
        <time>2022-08-09T05:10:25Z</time>
      </trkpt>
      <trkpt lat="44.23446" lon="3.77416">
        <ele>904.26</ele>
        <time>2022-08-09T05:10:39Z</time>
      </trkpt>
      <trkpt lat="44.23434" lon="3.77441">
        <ele>899.45</ele>
        <time>2022-08-09T05:10:52Z</time>
      </trkpt>
      <trkpt lat="44.2342" lon="3.77462">
        <ele>894.16</ele>
        <time>2022-08-09T05:11:06Z</time>
      </trkpt>
      <trkpt lat="44.2341" lon="3.77483">
        <ele>889.36</ele>
        <time>2022-08-09T05:11:20Z</time>
      </trkpt>
      <trkpt lat="44.23401" lon="3.77503">
        <ele>885.51</ele>
        <time>2022-08-09T05:11:37Z</time>
      </trkpt>
      <trkpt lat="44.23387" lon="3.77523">
        <ele>887.43</ele>
        <time>2022-08-09T05:11:53Z</time>
      </trkpt>
      <trkpt lat="44.23383" lon="3.77527">
        <ele>887.91</ele>
        <time>2022-08-09T05:11:57Z</time>
      </trkpt>
      <trkpt lat="44.23372" lon="3.77538">
        <ele>889.36</ele>
        <time>2022-08-09T05:12:11Z</time>
      </trkpt>
      <trkpt lat="44.23356" lon="3.77553">
        <ele>891.76</ele>
        <time>2022-08-09T05:12:29Z</time>
      </trkpt>
      <trkpt lat="44.23339" lon="3.77568">
        <ele>890.32</ele>
        <time>2022-08-09T05:12:44Z</time>
      </trkpt>
      <trkpt lat="44.23328" lon="3.77579">
        <ele>888.88</ele>
        <time>2022-08-09T05:12:57Z</time>
      </trkpt>
      <trkpt lat="44.23313" lon="3.77596">
        <ele>886.47</ele>
        <time>2022-08-09T05:13:12Z</time>
      </trkpt>
      <trkpt lat="44.23301" lon="3.77611">
        <ele>885.03</ele>
        <time>2022-08-09T05:13:25Z</time>
      </trkpt>
      <trkpt lat="44.23295" lon="3.77619">
        <ele>882.63</ele>
        <time>2022-08-09T05:13:34Z</time>
      </trkpt>
      <trkpt lat="44.23284" lon="3.77633">
        <ele>883.59</ele>
        <time>2022-08-09T05:13:49Z</time>
      </trkpt>
      <trkpt lat="44.23273" lon="3.77646">
        <ele>884.07</ele>
        <time>2022-08-09T05:14:02Z</time>
      </trkpt>
      <trkpt lat="44.23262" lon="3.77661">
        <ele>885.03</ele>
        <time>2022-08-09T05:14:16Z</time>
      </trkpt>
      <trkpt lat="44.23249" lon="3.77672">
        <ele>885.03</ele>
        <time>2022-08-09T05:14:31Z</time>
      </trkpt>
      <trkpt lat="44.23239" lon="3.77687">
        <ele>884.55</ele>
        <time>2022-08-09T05:14:47Z</time>
      </trkpt>
      <trkpt lat="44.2323" lon="3.77698">
        <ele>885.03</ele>
        <time>2022-08-09T05:14:58Z</time>
      </trkpt>
      <trkpt lat="44.23222" lon="3.77709">
        <ele>885.99</ele>
        <time>2022-08-09T05:15:09Z</time>
      </trkpt>
      <trkpt lat="44.2322" lon="3.77711">
        <ele>885.99</ele>
        <time>2022-08-09T05:15:11Z</time>
      </trkpt>
      <trkpt lat="44.2321" lon="3.7773">
        <ele>887.43</ele>
        <time>2022-08-09T05:15:26Z</time>
      </trkpt>
      <trkpt lat="44.23211" lon="3.77746">
        <ele>885.99</ele>
        <time>2022-08-09T05:15:40Z</time>
      </trkpt>
      <trkpt lat="44.23208" lon="3.7775">
        <ele>884.55</ele>
        <time>2022-08-09T05:15:56Z</time>
      </trkpt>
      <trkpt lat="44.23206" lon="3.77766">
        <ele>880.22</ele>
        <time>2022-08-09T05:16:11Z</time>
      </trkpt>
      <trkpt lat="44.23208" lon="3.77785">
        <ele>874.46</ele>
        <time>2022-08-09T05:16:25Z</time>
      </trkpt>
      <trkpt lat="44.23208" lon="3.77804">
        <ele>870.61</ele>
        <time>2022-08-09T05:16:40Z</time>
      </trkpt>
      <trkpt lat="44.23196" lon="3.77821">
        <ele>870.13</ele>
        <time>2022-08-09T05:16:54Z</time>
      </trkpt>
      <trkpt lat="44.23185" lon="3.77835">
        <ele>867.25</ele>
        <time>2022-08-09T05:17:10Z</time>
      </trkpt>
      <trkpt lat="44.23179" lon="3.77861">
        <ele>867.73</ele>
        <time>2022-08-09T05:17:27Z</time>
      </trkpt>
      <trkpt lat="44.23165" lon="3.77882">
        <ele>865.32</ele>
        <time>2022-08-09T05:17:43Z</time>
      </trkpt>
      <trkpt lat="44.23155" lon="3.77895">
        <ele>863.88</ele>
        <time>2022-08-09T05:17:57Z</time>
      </trkpt>
      <trkpt lat="44.23144" lon="3.77914">
        <ele>863.88</ele>
        <time>2022-08-09T05:18:10Z</time>
      </trkpt>
      <trkpt lat="44.23136" lon="3.77931">
        <ele>865.32</ele>
        <time>2022-08-09T05:18:24Z</time>
      </trkpt>
      <trkpt lat="44.23125" lon="3.77952">
        <ele>863.88</ele>
        <time>2022-08-09T05:18:40Z</time>
      </trkpt>
      <trkpt lat="44.23116" lon="3.77976">
        <ele>863.4</ele>
        <time>2022-08-09T05:18:56Z</time>
      </trkpt>
      <trkpt lat="44.23113" lon="3.77981">
        <ele>863.88</ele>
        <time>2022-08-09T05:19:00Z</time>
      </trkpt>
      <trkpt lat="44.23106" lon="3.78001">
        <ele>864.84</ele>
        <time>2022-08-09T05:19:14Z</time>
      </trkpt>
      <trkpt lat="44.23099" lon="3.7803">
        <ele>866.77</ele>
        <time>2022-08-09T05:19:32Z</time>
      </trkpt>
      <trkpt lat="44.23099" lon="3.78032">
        <ele>866.77</ele>
        <time>2022-08-09T05:19:33Z</time>
      </trkpt>
      <trkpt lat="44.23096" lon="3.78057">
        <ele>867.73</ele>
        <time>2022-08-09T05:19:49Z</time>
      </trkpt>
      <trkpt lat="44.23093" lon="3.78083">
        <ele>870.13</ele>
        <time>2022-08-09T05:20:05Z</time>
      </trkpt>
      <trkpt lat="44.23089" lon="3.78111">
        <ele>873.01</ele>
        <time>2022-08-09T05:20:20Z</time>
      </trkpt>
      <trkpt lat="44.23086" lon="3.78118">
        <ele>874.46</ele>
        <time>2022-08-09T05:20:24Z</time>
      </trkpt>
      <trkpt lat="44.23076" lon="3.78146">
        <ele>874.46</ele>
        <time>2022-08-09T05:20:42Z</time>
      </trkpt>
      <trkpt lat="44.23069" lon="3.78169">
        <ele>872.05</ele>
        <time>2022-08-09T05:20:58Z</time>
      </trkpt>
      <trkpt lat="44.23069" lon="3.78176">
        <ele>871.09</ele>
        <time>2022-08-09T05:21:02Z</time>
      </trkpt>
      <trkpt lat="44.2306" lon="3.78201">
        <ele>867.25</ele>
        <time>2022-08-09T05:21:19Z</time>
      </trkpt>
      <trkpt lat="44.23052" lon="3.78221">
        <ele>863.88</ele>
        <time>2022-08-09T05:21:33Z</time>
      </trkpt>
      <trkpt lat="44.23042" lon="3.78239">
        <ele>861.96</ele>
        <time>2022-08-09T05:21:47Z</time>
      </trkpt>
      <trkpt lat="44.23036" lon="3.78249">
        <ele>861.48</ele>
        <time>2022-08-09T05:21:55Z</time>
      </trkpt>
      <trkpt lat="44.23022" lon="3.78275">
        <ele>861.96</ele>
        <time>2022-08-09T05:22:13Z</time>
      </trkpt>
      <trkpt lat="44.23018" lon="3.783">
        <ele>861.48</ele>
        <time>2022-08-09T05:22:29Z</time>
      </trkpt>
      <trkpt lat="44.2301" lon="3.78325">
        <ele>859.08</ele>
        <time>2022-08-09T05:22:47Z</time>
      </trkpt>
      <trkpt lat="44.23001" lon="3.78345">
        <ele>856.19</ele>
        <time>2022-08-09T05:23:03Z</time>
      </trkpt>
      <trkpt lat="44.22989" lon="3.78368">
        <ele>854.27</ele>
        <time>2022-08-09T05:23:20Z</time>
      </trkpt>
      <trkpt lat="44.22978" lon="3.78386">
        <ele>850.9</ele>
        <time>2022-08-09T05:23:34Z</time>
      </trkpt>
      <trkpt lat="44.22967" lon="3.78401">
        <ele>846.58</ele>
        <time>2022-08-09T05:23:47Z</time>
      </trkpt>
      <trkpt lat="44.22952" lon="3.78412">
        <ele>841.29</ele>
        <time>2022-08-09T05:24:01Z</time>
      </trkpt>
      <trkpt lat="44.22942" lon="3.78422">
        <ele>837.93</ele>
        <time>2022-08-09T05:24:12Z</time>
      </trkpt>
      <trkpt lat="44.22922" lon="3.78428">
        <ele>836.96</ele>
        <time>2022-08-09T05:24:27Z</time>
      </trkpt>
      <trkpt lat="44.2291" lon="3.78437">
        <ele>841.29</ele>
        <time>2022-08-09T05:24:42Z</time>
      </trkpt>
      <trkpt lat="44.22902" lon="3.78438">
        <ele>841.29</ele>
        <time>2022-08-09T05:24:49Z</time>
      </trkpt>
      <trkpt lat="44.22884" lon="3.7845">
        <ele>842.73</ele>
        <time>2022-08-09T05:25:06Z</time>
      </trkpt>
      <trkpt lat="44.2287" lon="3.78459">
        <ele>843.21</ele>
        <time>2022-08-09T05:25:20Z</time>
      </trkpt>
      <trkpt lat="44.22853" lon="3.78471">
        <ele>844.66</ele>
        <time>2022-08-09T05:25:36Z</time>
      </trkpt>
      <trkpt lat="44.22834" lon="3.7849">
        <ele>845.62</ele>
        <time>2022-08-09T05:25:52Z</time>
      </trkpt>
      <trkpt lat="44.22819" lon="3.78503">
        <ele>845.62</ele>
        <time>2022-08-09T05:26:08Z</time>
      </trkpt>
      <trkpt lat="44.22804" lon="3.78517">
        <ele>845.62</ele>
        <time>2022-08-09T05:26:22Z</time>
      </trkpt>
      <trkpt lat="44.22787" lon="3.78531">
        <ele>843.21</ele>
        <time>2022-08-09T05:26:39Z</time>
      </trkpt>
      <trkpt lat="44.2277" lon="3.78544">
        <ele>841.29</ele>
        <time>2022-08-09T05:26:57Z</time>
      </trkpt>
      <trkpt lat="44.22751" lon="3.78558">
        <ele>840.33</ele>
        <time>2022-08-09T05:27:15Z</time>
      </trkpt>
      <trkpt lat="44.22731" lon="3.78577">
        <ele>839.37</ele>
        <time>2022-08-09T05:27:33Z</time>
      </trkpt>
      <trkpt lat="44.22714" lon="3.78598">
        <ele>841.29</ele>
        <time>2022-08-09T05:27:50Z</time>
      </trkpt>
      <trkpt lat="44.22699" lon="3.78617">
        <ele>841.77</ele>
        <time>2022-08-09T05:28:05Z</time>
      </trkpt>
      <trkpt lat="44.22683" lon="3.78637">
        <ele>841.77</ele>
        <time>2022-08-09T05:28:22Z</time>
      </trkpt>
      <trkpt lat="44.22667" lon="3.78649">
        <ele>840.81</ele>
        <time>2022-08-09T05:28:36Z</time>
      </trkpt>
      <trkpt lat="44.22653" lon="3.78668">
        <ele>841.29</ele>
        <time>2022-08-09T05:28:52Z</time>
      </trkpt>
      <trkpt lat="44.22644" lon="3.78689">
        <ele>841.29</ele>
        <time>2022-08-09T05:29:04Z</time>
      </trkpt>
      <trkpt lat="44.22639" lon="3.787">
        <ele>842.25</ele>
        <time>2022-08-09T05:29:11Z</time>
      </trkpt>
      <trkpt lat="44.22633" lon="3.78727">
        <ele>842.25</ele>
        <time>2022-08-09T05:29:26Z</time>
      </trkpt>
      <trkpt lat="44.22624" lon="3.78753">
        <ele>839.85</ele>
        <time>2022-08-09T05:29:41Z</time>
      </trkpt>
      <trkpt lat="44.22623" lon="3.78761">
        <ele>839.37</ele>
        <time>2022-08-09T05:29:46Z</time>
      </trkpt>
      <trkpt lat="44.22618" lon="3.78783">
        <ele>838.89</ele>
        <time>2022-08-09T05:29:59Z</time>
      </trkpt>
      <trkpt lat="44.22608" lon="3.78806">
        <ele>837.45</ele>
        <time>2022-08-09T05:30:14Z</time>
      </trkpt>
      <trkpt lat="44.22608" lon="3.78807">
        <ele>837.45</ele>
        <time>2022-08-09T05:30:15Z</time>
      </trkpt>
      <trkpt lat="44.22606" lon="3.78822">
        <ele>836.96</ele>
        <time>2022-08-09T05:30:24Z</time>
      </trkpt>
      <trkpt lat="44.22603" lon="3.7885">
        <ele>837.45</ele>
        <time>2022-08-09T05:30:42Z</time>
      </trkpt>
      <trkpt lat="44.22597" lon="3.78873">
        <ele>836</ele>
        <time>2022-08-09T05:30:57Z</time>
      </trkpt>
      <trkpt lat="44.22587" lon="3.78898">
        <ele>834.08</ele>
        <time>2022-08-09T05:31:14Z</time>
      </trkpt>
      <trkpt lat="44.22581" lon="3.78916">
        <ele>831.2</ele>
        <time>2022-08-09T05:31:27Z</time>
      </trkpt>
      <trkpt lat="44.22576" lon="3.78941">
        <ele>827.83</ele>
        <time>2022-08-09T05:31:43Z</time>
      </trkpt>
      <trkpt lat="44.22572" lon="3.78966">
        <ele>826.39</ele>
        <time>2022-08-09T05:31:57Z</time>
      </trkpt>
      <trkpt lat="44.22559" lon="3.7898">
        <ele>825.91</ele>
        <time>2022-08-09T05:32:12Z</time>
      </trkpt>
      <trkpt lat="44.2255" lon="3.78979">
        <ele>826.87</ele>
        <time>2022-08-09T05:32:29Z</time>
      </trkpt>
      <trkpt lat="44.22538" lon="3.78983">
        <ele>828.31</ele>
        <time>2022-08-09T05:32:55Z</time>
      </trkpt>
      <trkpt lat="44.22522" lon="3.78995">
        <ele>827.35</ele>
        <time>2022-08-09T05:33:10Z</time>
      </trkpt>
      <trkpt lat="44.22511" lon="3.79016">
        <ele>827.35</ele>
        <time>2022-08-09T05:33:22Z</time>
      </trkpt>
      <trkpt lat="44.22504" lon="3.79046">
        <ele>823.51</ele>
        <time>2022-08-09T05:33:39Z</time>
      </trkpt>
      <trkpt lat="44.22495" lon="3.79071">
        <ele>820.62</ele>
        <time>2022-08-09T05:33:55Z</time>
      </trkpt>
      <trkpt lat="44.22489" lon="3.79093">
        <ele>818.22</ele>
        <time>2022-08-09T05:34:09Z</time>
      </trkpt>
      <trkpt lat="44.22482" lon="3.79117">
        <ele>816.3</ele>
        <time>2022-08-09T05:34:23Z</time>
      </trkpt>
      <trkpt lat="44.2248" lon="3.79123">
        <ele>815.34</ele>
        <time>2022-08-09T05:34:27Z</time>
      </trkpt>
      <trkpt lat="44.22473" lon="3.79147">
        <ele>812.93</ele>
        <time>2022-08-09T05:34:42Z</time>
      </trkpt>
      <trkpt lat="44.22464" lon="3.79166">
        <ele>811.01</ele>
        <time>2022-08-09T05:34:55Z</time>
      </trkpt>
      <trkpt lat="44.22451" lon="3.79188">
        <ele>810.53</ele>
        <time>2022-08-09T05:35:11Z</time>
      </trkpt>
      <trkpt lat="44.2244" lon="3.79206">
        <ele>810.05</ele>
        <time>2022-08-09T05:35:27Z</time>
      </trkpt>
      <trkpt lat="44.22431" lon="3.79227">
        <ele>811.97</ele>
        <time>2022-08-09T05:35:42Z</time>
      </trkpt>
      <trkpt lat="44.22419" lon="3.79253">
        <ele>817.26</ele>
        <time>2022-08-09T05:35:57Z</time>
      </trkpt>
      <trkpt lat="44.22411" lon="3.79271">
        <ele>815.34</ele>
        <time>2022-08-09T05:36:11Z</time>
      </trkpt>
      <trkpt lat="44.22407" lon="3.79278">
        <ele>813.89</ele>
        <time>2022-08-09T05:36:16Z</time>
      </trkpt>
      <trkpt lat="44.22398" lon="3.79298">
        <ele>811.97</ele>
        <time>2022-08-09T05:36:29Z</time>
      </trkpt>
      <trkpt lat="44.22399" lon="3.79315">
        <ele>809.57</ele>
        <time>2022-08-09T05:36:41Z</time>
      </trkpt>
      <trkpt lat="44.22404" lon="3.79332">
        <ele>807.16</ele>
        <time>2022-08-09T05:37:03Z</time>
      </trkpt>
      <trkpt lat="44.22395" lon="3.7934">
        <ele>805.72</ele>
        <time>2022-08-09T05:37:31Z</time>
      </trkpt>
      <trkpt lat="44.22394" lon="3.79347">
        <ele>806.68</ele>
        <time>2022-08-09T05:37:48Z</time>
      </trkpt>
      <trkpt lat="44.22395" lon="3.79353">
        <ele>809.57</ele>
        <time>2022-08-09T05:38:00Z</time>
      </trkpt>
      <trkpt lat="44.22401" lon="3.79369">
        <ele>810.53</ele>
        <time>2022-08-09T05:38:16Z</time>
      </trkpt>
      <trkpt lat="44.22408" lon="3.79391">
        <ele>807.64</ele>
        <time>2022-08-09T05:38:32Z</time>
      </trkpt>
      <trkpt lat="44.22414" lon="3.79405">
        <ele>803.32</ele>
        <time>2022-08-09T05:38:44Z</time>
      </trkpt>
      <trkpt lat="44.22425" lon="3.79425">
        <ele>799.95</ele>
        <time>2022-08-09T05:39:00Z</time>
      </trkpt>
      <trkpt lat="44.22429" lon="3.79432">
        <ele>799.95</ele>
        <time>2022-08-09T05:39:05Z</time>
      </trkpt>
      <trkpt lat="44.22441" lon="3.79447">
        <ele>799.47</ele>
        <time>2022-08-09T05:39:19Z</time>
      </trkpt>
      <trkpt lat="44.22447" lon="3.79455">
        <ele>798.99</ele>
        <time>2022-08-09T05:39:25Z</time>
      </trkpt>
      <trkpt lat="44.22454" lon="3.79471">
        <ele>798.03</ele>
        <time>2022-08-09T05:39:37Z</time>
      </trkpt>
      <trkpt lat="44.22454" lon="3.7948">
        <ele>798.51</ele>
        <time>2022-08-09T05:39:43Z</time>
      </trkpt>
      <trkpt lat="44.22457" lon="3.79502">
        <ele>796.11</ele>
        <time>2022-08-09T05:39:59Z</time>
      </trkpt>
      <trkpt lat="44.22466" lon="3.79524">
        <ele>796.11</ele>
        <time>2022-08-09T05:40:13Z</time>
      </trkpt>
      <trkpt lat="44.22469" lon="3.79547">
        <ele>795.63</ele>
        <time>2022-08-09T05:40:28Z</time>
      </trkpt>
      <trkpt lat="44.22469" lon="3.79548">
        <ele>795.63</ele>
        <time>2022-08-09T05:40:29Z</time>
      </trkpt>
      <trkpt lat="44.22473" lon="3.79577">
        <ele>798.03</ele>
        <time>2022-08-09T05:40:44Z</time>
      </trkpt>
      <trkpt lat="44.22472" lon="3.79596">
        <ele>797.55</ele>
        <time>2022-08-09T05:40:56Z</time>
      </trkpt>
      <trkpt lat="44.2247" lon="3.79624">
        <ele>797.07</ele>
        <time>2022-08-09T05:41:12Z</time>
      </trkpt>
      <trkpt lat="44.22466" lon="3.79648">
        <ele>795.63</ele>
        <time>2022-08-09T05:41:27Z</time>
      </trkpt>
      <trkpt lat="44.22465" lon="3.79666">
        <ele>796.11</ele>
        <time>2022-08-09T05:41:38Z</time>
      </trkpt>
      <trkpt lat="44.22459" lon="3.7968">
        <ele>795.63</ele>
        <time>2022-08-09T05:41:51Z</time>
      </trkpt>
      <trkpt lat="44.22456" lon="3.79683">
        <ele>796.11</ele>
        <time>2022-08-09T05:41:56Z</time>
      </trkpt>
      <trkpt lat="44.2245" lon="3.7968">
        <ele>795.15</ele>
        <time>2022-08-09T05:42:16Z</time>
      </trkpt>
      <trkpt lat="44.22464" lon="3.79679">
        <ele>795.15</ele>
        <time>2022-08-09T05:42:30Z</time>
      </trkpt>
      <trkpt lat="44.22468" lon="3.79681">
        <ele>796.59</ele>
        <time>2022-08-09T05:42:39Z</time>
      </trkpt>
      <trkpt lat="44.22478" lon="3.79674">
        <ele>795.63</ele>
        <time>2022-08-09T05:42:48Z</time>
      </trkpt>
      <trkpt lat="44.22485" lon="3.79652">
        <ele>792.74</ele>
        <time>2022-08-09T05:43:04Z</time>
      </trkpt>
      <trkpt lat="44.2249" lon="3.79631">
        <ele>790.34</ele>
        <time>2022-08-09T05:43:17Z</time>
      </trkpt>
      <trkpt lat="44.22496" lon="3.79622">
        <ele>791.78</ele>
        <time>2022-08-09T05:43:23Z</time>
      </trkpt>
      <trkpt lat="44.22499" lon="3.79609">
        <ele>790.82</ele>
        <time>2022-08-09T05:43:30Z</time>
      </trkpt>
      <trkpt lat="44.22505" lon="3.79586">
        <ele>789.38</ele>
        <time>2022-08-09T05:43:42Z</time>
      </trkpt>
      <trkpt lat="44.2251" lon="3.79587">
        <ele>791.3</ele>
        <time>2022-08-09T05:43:54Z</time>
      </trkpt>
      <trkpt lat="44.22511" lon="3.79604">
        <ele>788.42</ele>
        <time>2022-08-09T05:44:09Z</time>
      </trkpt>
      <trkpt lat="44.22512" lon="3.79612">
        <ele>787.46</ele>
        <time>2022-08-09T05:44:15Z</time>
      </trkpt>
      <trkpt lat="44.22516" lon="3.79639">
        <ele>786.5</ele>
        <time>2022-08-09T05:44:32Z</time>
      </trkpt>
      <trkpt lat="44.22521" lon="3.79666">
        <ele>788.42</ele>
        <time>2022-08-09T05:44:46Z</time>
      </trkpt>
      <trkpt lat="44.22525" lon="3.79682">
        <ele>787.94</ele>
        <time>2022-08-09T05:44:58Z</time>
      </trkpt>
      <trkpt lat="44.2253" lon="3.7971">
        <ele>787.46</ele>
        <time>2022-08-09T05:45:12Z</time>
      </trkpt>
      <trkpt lat="44.22533" lon="3.79734">
        <ele>786.98</ele>
        <time>2022-08-09T05:45:27Z</time>
      </trkpt>
      <trkpt lat="44.22538" lon="3.79751">
        <ele>782.65</ele>
        <time>2022-08-09T05:45:43Z</time>
      </trkpt>
      <trkpt lat="44.2254" lon="3.79775">
        <ele>780.25</ele>
        <time>2022-08-09T05:45:59Z</time>
      </trkpt>
      <trkpt lat="44.22538" lon="3.79795">
        <ele>778.32</ele>
        <time>2022-08-09T05:46:14Z</time>
      </trkpt>
      <trkpt lat="44.22536" lon="3.79819">
        <ele>776.88</ele>
        <time>2022-08-09T05:46:30Z</time>
      </trkpt>
      <trkpt lat="44.22532" lon="3.79843">
        <ele>775.44</ele>
        <time>2022-08-09T05:46:47Z</time>
      </trkpt>
      <trkpt lat="44.22525" lon="3.79861">
        <ele>770.15</ele>
        <time>2022-08-09T05:47:02Z</time>
      </trkpt>
      <trkpt lat="44.22509" lon="3.79872">
        <ele>767.27</ele>
        <time>2022-08-09T05:47:19Z</time>
      </trkpt>
      <trkpt lat="44.22495" lon="3.79876">
        <ele>762.46</ele>
        <time>2022-08-09T05:47:35Z</time>
      </trkpt>
      <trkpt lat="44.22476" lon="3.79889">
        <ele>758.14</ele>
        <time>2022-08-09T05:47:54Z</time>
      </trkpt>
      <trkpt lat="44.2246" lon="3.799">
        <ele>753.81</ele>
        <time>2022-08-09T05:48:09Z</time>
      </trkpt>
      <trkpt lat="44.22445" lon="3.79906">
        <ele>750.93</ele>
        <time>2022-08-09T05:48:23Z</time>
      </trkpt>
      <trkpt lat="44.22424" lon="3.79905">
        <ele>750.45</ele>
        <time>2022-08-09T05:48:38Z</time>
      </trkpt>
      <trkpt lat="44.2241" lon="3.79905">
        <ele>749</ele>
        <time>2022-08-09T05:48:52Z</time>
      </trkpt>
      <trkpt lat="44.22392" lon="3.79901">
        <ele>749.49</ele>
        <time>2022-08-09T05:49:07Z</time>
      </trkpt>
      <trkpt lat="44.22376" lon="3.7989">
        <ele>747.56</ele>
        <time>2022-08-09T05:49:23Z</time>
      </trkpt>
      <trkpt lat="44.22374" lon="3.7989">
        <ele>746.12</ele>
        <time>2022-08-09T05:49:38Z</time>
      </trkpt>
      <trkpt lat="44.22376" lon="3.79912">
        <ele>745.64</ele>
        <time>2022-08-09T05:49:56Z</time>
      </trkpt>
      <trkpt lat="44.22376" lon="3.79921">
        <ele>745.64</ele>
        <time>2022-08-09T05:50:02Z</time>
      </trkpt>
      <trkpt lat="44.2237" lon="3.7995">
        <ele>746.6</ele>
        <time>2022-08-09T05:50:18Z</time>
      </trkpt>
      <trkpt lat="44.22369" lon="3.79959">
        <ele>748.04</ele>
        <time>2022-08-09T05:50:24Z</time>
      </trkpt>
      <trkpt lat="44.22373" lon="3.79976">
        <ele>748.04</ele>
        <time>2022-08-09T05:50:38Z</time>
      </trkpt>
      <trkpt lat="44.22378" lon="3.79985">
        <ele>748.04</ele>
        <time>2022-08-09T05:50:48Z</time>
      </trkpt>
      <trkpt lat="44.22392" lon="3.79995">
        <ele>746.6</ele>
        <time>2022-08-09T05:51:03Z</time>
      </trkpt>
      <trkpt lat="44.22399" lon="3.79998">
        <ele>746.12</ele>
        <time>2022-08-09T05:51:16Z</time>
      </trkpt>
      <trkpt lat="44.22401" lon="3.79996">
        <ele>743.72</ele>
        <time>2022-08-09T05:51:28Z</time>
      </trkpt>
      <trkpt lat="44.224" lon="3.79995">
        <ele>742.76</ele>
        <time>2022-08-09T05:51:47Z</time>
      </trkpt>
      <trkpt lat="44.22401" lon="3.79993">
        <ele>745.16</ele>
        <time>2022-08-09T05:52:03Z</time>
      </trkpt>
      <trkpt lat="44.22401" lon="3.79996">
        <ele>745.16</ele>
        <time>2022-08-09T05:52:19Z</time>
      </trkpt>
      <trkpt lat="44.224" lon="3.79993">
        <ele>747.08</ele>
        <time>2022-08-09T05:52:55Z</time>
      </trkpt>
      <trkpt lat="44.22398" lon="3.79993">
        <ele>748.04</ele>
        <time>2022-08-09T05:53:29Z</time>
      </trkpt>
      <trkpt lat="44.22395" lon="3.79996">
        <ele>749</ele>
        <time>2022-08-09T05:53:51Z</time>
      </trkpt>
      <trkpt lat="44.22394" lon="3.79991">
        <ele>749.49</ele>
        <time>2022-08-09T05:53:59Z</time>
      </trkpt>
      <trkpt lat="44.22379" lon="3.79977">
        <ele>749</ele>
        <time>2022-08-09T05:54:15Z</time>
      </trkpt>
      <trkpt lat="44.22372" lon="3.79965">
        <ele>749</ele>
        <time>2022-08-09T05:54:30Z</time>
      </trkpt>
      <trkpt lat="44.22373" lon="3.7995">
        <ele>748.52</ele>
        <time>2022-08-09T05:54:44Z</time>
      </trkpt>
      <trkpt lat="44.22372" lon="3.79932">
        <ele>750.45</ele>
        <time>2022-08-09T05:54:58Z</time>
      </trkpt>
      <trkpt lat="44.22375" lon="3.79915">
        <ele>750.45</ele>
        <time>2022-08-09T05:55:12Z</time>
      </trkpt>
      <trkpt lat="44.22374" lon="3.79906">
        <ele>751.89</ele>
        <time>2022-08-09T05:55:21Z</time>
      </trkpt>
      <trkpt lat="44.22363" lon="3.79892">
        <ele>750.45</ele>
        <time>2022-08-09T05:55:35Z</time>
      </trkpt>
      <trkpt lat="44.22359" lon="3.79879">
        <ele>748.04</ele>
        <time>2022-08-09T05:55:49Z</time>
      </trkpt>
      <trkpt lat="44.22351" lon="3.79864">
        <ele>746.12</ele>
        <time>2022-08-09T05:56:03Z</time>
      </trkpt>
      <trkpt lat="44.22348" lon="3.79859">
        <ele>746.12</ele>
        <time>2022-08-09T05:56:07Z</time>
      </trkpt>
      <trkpt lat="44.2234" lon="3.79843">
        <ele>745.16</ele>
        <time>2022-08-09T05:56:23Z</time>
      </trkpt>
      <trkpt lat="44.22336" lon="3.7983">
        <ele>742.76</ele>
        <time>2022-08-09T05:56:37Z</time>
      </trkpt>
      <trkpt lat="44.22328" lon="3.79821">
        <ele>739.39</ele>
        <time>2022-08-09T05:56:51Z</time>
      </trkpt>
      <trkpt lat="44.2231" lon="3.7982">
        <ele>736.51</ele>
        <time>2022-08-09T05:57:06Z</time>
      </trkpt>
      <trkpt lat="44.22293" lon="3.79824">
        <ele>736.99</ele>
        <time>2022-08-09T05:57:21Z</time>
      </trkpt>
      <trkpt lat="44.22283" lon="3.7983">
        <ele>736.03</ele>
        <time>2022-08-09T05:57:34Z</time>
      </trkpt>
      <trkpt lat="44.22269" lon="3.79839">
        <ele>733.62</ele>
        <time>2022-08-09T05:57:51Z</time>
      </trkpt>
      <trkpt lat="44.22254" lon="3.79848">
        <ele>732.66</ele>
        <time>2022-08-09T05:58:07Z</time>
      </trkpt>
      <trkpt lat="44.22253" lon="3.79855">
        <ele>729.3</ele>
        <time>2022-08-09T05:58:22Z</time>
      </trkpt>
      <trkpt lat="44.22255" lon="3.79854">
        <ele>728.34</ele>
        <time>2022-08-09T05:58:25Z</time>
      </trkpt>
      <trkpt lat="44.22269" lon="3.7985">
        <ele>726.41</ele>
        <time>2022-08-09T05:58:39Z</time>
      </trkpt>
      <trkpt lat="44.2228" lon="3.79863">
        <ele>726.41</ele>
        <time>2022-08-09T05:58:53Z</time>
      </trkpt>
      <trkpt lat="44.22269" lon="3.79866">
        <ele>724.01</ele>
        <time>2022-08-09T05:59:07Z</time>
      </trkpt>
      <trkpt lat="44.22268" lon="3.79867">
        <ele>724.01</ele>
        <time>2022-08-09T05:59:08Z</time>
      </trkpt>
      <trkpt lat="44.22266" lon="3.79868">
        <ele>723.53</ele>
        <time>2022-08-09T05:59:10Z</time>
      </trkpt>
      <trkpt lat="44.22252" lon="3.79874">
        <ele>718.72</ele>
        <time>2022-08-09T05:59:26Z</time>
      </trkpt>
      <trkpt lat="44.22239" lon="3.79879">
        <ele>714.88</ele>
        <time>2022-08-09T05:59:38Z</time>
      </trkpt>
      <trkpt lat="44.22227" lon="3.79883">
        <ele>709.11</ele>
        <time>2022-08-09T05:59:53Z</time>
      </trkpt>
      <trkpt lat="44.22213" lon="3.7989">
        <ele>703.34</ele>
        <time>2022-08-09T06:00:08Z</time>
      </trkpt>
      <trkpt lat="44.22199" lon="3.79898">
        <ele>702.86</ele>
        <time>2022-08-09T06:00:21Z</time>
      </trkpt>
      <trkpt lat="44.22183" lon="3.79907">
        <ele>699.98</ele>
        <time>2022-08-09T06:00:36Z</time>
      </trkpt>
      <trkpt lat="44.22165" lon="3.79917">
        <ele>701.42</ele>
        <time>2022-08-09T06:00:51Z</time>
      </trkpt>
      <trkpt lat="44.22147" lon="3.79917">
        <ele>700.46</ele>
        <time>2022-08-09T06:01:09Z</time>
      </trkpt>
      <trkpt lat="44.22133" lon="3.79913">
        <ele>696.13</ele>
        <time>2022-08-09T06:01:24Z</time>
      </trkpt>
      <trkpt lat="44.22117" lon="3.79905">
        <ele>695.65</ele>
        <time>2022-08-09T06:01:38Z</time>
      </trkpt>
      <trkpt lat="44.22099" lon="3.79896">
        <ele>699.02</ele>
        <time>2022-08-09T06:01:54Z</time>
      </trkpt>
      <trkpt lat="44.22084" lon="3.79893">
        <ele>696.61</ele>
        <time>2022-08-09T06:02:09Z</time>
      </trkpt>
      <trkpt lat="44.22065" lon="3.79882">
        <ele>696.13</ele>
        <time>2022-08-09T06:02:26Z</time>
      </trkpt>
      <trkpt lat="44.22063" lon="3.79883">
        <ele>698.05</ele>
        <time>2022-08-09T06:02:37Z</time>
      </trkpt>
      <trkpt lat="44.22064" lon="3.79884">
        <ele>697.09</ele>
        <time>2022-08-09T06:02:59Z</time>
      </trkpt>
      <trkpt lat="44.22055" lon="3.79874">
        <ele>698.05</ele>
        <time>2022-08-09T06:03:11Z</time>
      </trkpt>
      <trkpt lat="44.22051" lon="3.79869">
        <ele>700.46</ele>
        <time>2022-08-09T06:03:37Z</time>
      </trkpt>
      <trkpt lat="44.22034" lon="3.79855">
        <ele>702.38</ele>
        <time>2022-08-09T06:03:52Z</time>
      </trkpt>
      <trkpt lat="44.22021" lon="3.79848">
        <ele>700.46</ele>
        <time>2022-08-09T06:04:05Z</time>
      </trkpt>
      <trkpt lat="44.22011" lon="3.79843">
        <ele>700.46</ele>
        <time>2022-08-09T06:04:18Z</time>
      </trkpt>
      <trkpt lat="44.21996" lon="3.79848">
        <ele>699.98</ele>
        <time>2022-08-09T06:04:32Z</time>
      </trkpt>
      <trkpt lat="44.21989" lon="3.79862">
        <ele>694.21</ele>
        <time>2022-08-09T06:04:46Z</time>
      </trkpt>
      <trkpt lat="44.21985" lon="3.79874">
        <ele>689.88</ele>
        <time>2022-08-09T06:05:00Z</time>
      </trkpt>
      <trkpt lat="44.21978" lon="3.79882">
        <ele>686.04</ele>
        <time>2022-08-09T06:05:13Z</time>
      </trkpt>
      <trkpt lat="44.21977" lon="3.79905">
        <ele>681.23</ele>
        <time>2022-08-09T06:05:31Z</time>
      </trkpt>
      <trkpt lat="44.21973" lon="3.7992">
        <ele>680.27</ele>
        <time>2022-08-09T06:05:45Z</time>
      </trkpt>
      <trkpt lat="44.21968" lon="3.7993">
        <ele>679.31</ele>
        <time>2022-08-09T06:05:58Z</time>
      </trkpt>
      <trkpt lat="44.21961" lon="3.79939">
        <ele>674.98</ele>
        <time>2022-08-09T06:06:15Z</time>
      </trkpt>
      <trkpt lat="44.21956" lon="3.79954">
        <ele>669.7</ele>
        <time>2022-08-09T06:06:30Z</time>
      </trkpt>
      <trkpt lat="44.21953" lon="3.79964">
        <ele>667.29</ele>
        <time>2022-08-09T06:06:43Z</time>
      </trkpt>
      <trkpt lat="44.21941" lon="3.7997">
        <ele>667.29</ele>
        <time>2022-08-09T06:07:00Z</time>
      </trkpt>
      <trkpt lat="44.21931" lon="3.79986">
        <ele>664.41</ele>
        <time>2022-08-09T06:07:16Z</time>
      </trkpt>
      <trkpt lat="44.21928" lon="3.80001">
        <ele>664.41</ele>
        <time>2022-08-09T06:07:28Z</time>
      </trkpt>
      <trkpt lat="44.21926" lon="3.80017">
        <ele>660.08</ele>
        <time>2022-08-09T06:07:44Z</time>
      </trkpt>
      <trkpt lat="44.21925" lon="3.80033">
        <ele>657.68</ele>
        <time>2022-08-09T06:07:57Z</time>
      </trkpt>
      <trkpt lat="44.21927" lon="3.80052">
        <ele>655.28</ele>
        <time>2022-08-09T06:08:10Z</time>
      </trkpt>
      <trkpt lat="44.21926" lon="3.80067">
        <ele>651.91</ele>
        <time>2022-08-09T06:08:24Z</time>
      </trkpt>
      <trkpt lat="44.21926" lon="3.80086">
        <ele>651.43</ele>
        <time>2022-08-09T06:08:40Z</time>
      </trkpt>
      <trkpt lat="44.21933" lon="3.80094">
        <ele>649.99</ele>
        <time>2022-08-09T06:08:52Z</time>
      </trkpt>
      <trkpt lat="44.21939" lon="3.80114">
        <ele>649.99</ele>
        <time>2022-08-09T06:09:07Z</time>
      </trkpt>
      <trkpt lat="44.21939" lon="3.80137">
        <ele>650.95</ele>
        <time>2022-08-09T06:09:21Z</time>
      </trkpt>
      <trkpt lat="44.21939" lon="3.80153">
        <ele>649.03</ele>
        <time>2022-08-09T06:09:34Z</time>
      </trkpt>
      <trkpt lat="44.2194" lon="3.80174">
        <ele>646.62</ele>
        <time>2022-08-09T06:09:48Z</time>
      </trkpt>
      <trkpt lat="44.21939" lon="3.80197">
        <ele>646.62</ele>
        <time>2022-08-09T06:10:04Z</time>
      </trkpt>
      <trkpt lat="44.21937" lon="3.80216">
        <ele>645.18</ele>
        <time>2022-08-09T06:10:18Z</time>
      </trkpt>
      <trkpt lat="44.21927" lon="3.80235">
        <ele>647.1</ele>
        <time>2022-08-09T06:10:33Z</time>
      </trkpt>
      <trkpt lat="44.21921" lon="3.80257">
        <ele>645.66</ele>
        <time>2022-08-09T06:10:49Z</time>
      </trkpt>
      <trkpt lat="44.21914" lon="3.80272">
        <ele>642.78</ele>
        <time>2022-08-09T06:11:04Z</time>
      </trkpt>
      <trkpt lat="44.21906" lon="3.80294">
        <ele>640.86</ele>
        <time>2022-08-09T06:11:23Z</time>
      </trkpt>
      <trkpt lat="44.21904" lon="3.80298">
        <ele>640.86</ele>
        <time>2022-08-09T06:11:25Z</time>
      </trkpt>
      <trkpt lat="44.219" lon="3.80307">
        <ele>641.34</ele>
        <time>2022-08-09T06:11:30Z</time>
      </trkpt>
      <trkpt lat="44.21893" lon="3.8033">
        <ele>643.74</ele>
        <time>2022-08-09T06:11:45Z</time>
      </trkpt>
      <trkpt lat="44.2189" lon="3.80352">
        <ele>640.86</ele>
        <time>2022-08-09T06:11:59Z</time>
      </trkpt>
      <trkpt lat="44.21885" lon="3.80368">
        <ele>638.93</ele>
        <time>2022-08-09T06:12:13Z</time>
      </trkpt>
      <trkpt lat="44.21873" lon="3.80385">
        <ele>635.09</ele>
        <time>2022-08-09T06:12:32Z</time>
      </trkpt>
      <trkpt lat="44.21857" lon="3.80395">
        <ele>630.28</ele>
        <time>2022-08-09T06:12:48Z</time>
      </trkpt>
      <trkpt lat="44.21844" lon="3.80403">
        <ele>624.99</ele>
        <time>2022-08-09T06:13:04Z</time>
      </trkpt>
      <trkpt lat="44.21835" lon="3.80408">
        <ele>625.47</ele>
        <time>2022-08-09T06:13:17Z</time>
      </trkpt>
      <trkpt lat="44.21827" lon="3.80405">
        <ele>622.11</ele>
        <time>2022-08-09T06:13:30Z</time>
      </trkpt>
      <trkpt lat="44.21826" lon="3.80401">
        <ele>617.78</ele>
        <time>2022-08-09T06:13:49Z</time>
      </trkpt>
      <trkpt lat="44.21818" lon="3.80388">
        <ele>616.82</ele>
        <time>2022-08-09T06:14:02Z</time>
      </trkpt>
      <trkpt lat="44.21816" lon="3.80406">
        <ele>615.86</ele>
        <time>2022-08-09T06:14:15Z</time>
      </trkpt>
      <trkpt lat="44.21816" lon="3.80427">
        <ele>621.15</ele>
        <time>2022-08-09T06:14:29Z</time>
      </trkpt>
      <trkpt lat="44.21825" lon="3.80438">
        <ele>619.23</ele>
        <time>2022-08-09T06:14:43Z</time>
      </trkpt>
      <trkpt lat="44.2185" lon="3.80471">
        <ele>612.98</ele>
        <time>2022-08-09T06:15:17Z</time>
      </trkpt>
      <trkpt lat="44.21862" lon="3.80476">
        <ele>613.94</ele>
        <time>2022-08-09T06:15:31Z</time>
      </trkpt>
      <trkpt lat="44.21873" lon="3.80485">
        <ele>613.94</ele>
        <time>2022-08-09T06:15:45Z</time>
      </trkpt>
      <trkpt lat="44.21886" lon="3.80492">
        <ele>612.02</ele>
        <time>2022-08-09T06:15:58Z</time>
      </trkpt>
      <trkpt lat="44.21909" lon="3.80497">
        <ele>609.61</ele>
        <time>2022-08-09T06:16:12Z</time>
      </trkpt>
      <trkpt lat="44.21923" lon="3.80495">
        <ele>604.33</ele>
        <time>2022-08-09T06:16:25Z</time>
      </trkpt>
      <trkpt lat="44.21924" lon="3.80493">
        <ele>603.85</ele>
        <time>2022-08-09T06:16:27Z</time>
      </trkpt>
      <trkpt lat="44.21937" lon="3.80479">
        <ele>599.52</ele>
        <time>2022-08-09T06:16:42Z</time>
      </trkpt>
      <trkpt lat="44.21951" lon="3.8046">
        <ele>597.12</ele>
        <time>2022-08-09T06:16:59Z</time>
      </trkpt>
      <trkpt lat="44.21963" lon="3.80445">
        <ele>597.6</ele>
        <time>2022-08-09T06:17:14Z</time>
      </trkpt>
      <trkpt lat="44.21975" lon="3.80433">
        <ele>594.71</ele>
        <time>2022-08-09T06:17:28Z</time>
      </trkpt>
      <trkpt lat="44.21982" lon="3.80424">
        <ele>592.31</ele>
        <time>2022-08-09T06:17:41Z</time>
      </trkpt>
      <trkpt lat="44.21992" lon="3.80411">
        <ele>588.95</ele>
        <time>2022-08-09T06:17:56Z</time>
      </trkpt>
      <trkpt lat="44.21998" lon="3.80396">
        <ele>585.58</ele>
        <time>2022-08-09T06:18:11Z</time>
      </trkpt>
      <trkpt lat="44.21997" lon="3.80408">
        <ele>584.62</ele>
        <time>2022-08-09T06:18:22Z</time>
      </trkpt>
      <trkpt lat="44.21996" lon="3.80426">
        <ele>583.18</ele>
        <time>2022-08-09T06:18:36Z</time>
      </trkpt>
      <trkpt lat="44.21993" lon="3.80445">
        <ele>579.81</ele>
        <time>2022-08-09T06:18:50Z</time>
      </trkpt>
      <trkpt lat="44.21998" lon="3.80452">
        <ele>579.81</ele>
        <time>2022-08-09T06:19:04Z</time>
      </trkpt>
      <trkpt lat="44.22008" lon="3.80436">
        <ele>573.56</ele>
        <time>2022-08-09T06:19:21Z</time>
      </trkpt>
      <trkpt lat="44.22019" lon="3.80422">
        <ele>571.64</ele>
        <time>2022-08-09T06:19:34Z</time>
      </trkpt>
      <trkpt lat="44.22027" lon="3.80406">
        <ele>567.32</ele>
        <time>2022-08-09T06:19:49Z</time>
      </trkpt>
      <trkpt lat="44.22033" lon="3.80389">
        <ele>562.03</ele>
        <time>2022-08-09T06:20:03Z</time>
      </trkpt>
      <trkpt lat="44.22036" lon="3.80371">
        <ele>561.07</ele>
        <time>2022-08-09T06:20:19Z</time>
      </trkpt>
      <trkpt lat="44.22044" lon="3.80383">
        <ele>562.51</ele>
        <time>2022-08-09T06:20:35Z</time>
      </trkpt>
      <trkpt lat="44.22045" lon="3.80387">
        <ele>563.95</ele>
        <time>2022-08-09T06:20:37Z</time>
      </trkpt>
      <trkpt lat="44.22047" lon="3.80391">
        <ele>564.43</ele>
        <time>2022-08-09T06:20:39Z</time>
      </trkpt>
      <trkpt lat="44.22051" lon="3.80411">
        <ele>563.95</ele>
        <time>2022-08-09T06:20:52Z</time>
      </trkpt>
      <trkpt lat="44.22055" lon="3.80431">
        <ele>562.51</ele>
        <time>2022-08-09T06:21:06Z</time>
      </trkpt>
      <trkpt lat="44.22051" lon="3.80451">
        <ele>560.11</ele>
        <time>2022-08-09T06:21:20Z</time>
      </trkpt>
      <trkpt lat="44.22044" lon="3.80467">
        <ele>555.78</ele>
        <time>2022-08-09T06:21:34Z</time>
      </trkpt>
      <trkpt lat="44.22036" lon="3.80486">
        <ele>552.41</ele>
        <time>2022-08-09T06:21:49Z</time>
      </trkpt>
      <trkpt lat="44.22029" lon="3.80506">
        <ele>549.53</ele>
        <time>2022-08-09T06:22:03Z</time>
      </trkpt>
      <trkpt lat="44.22021" lon="3.80522">
        <ele>548.09</ele>
        <time>2022-08-09T06:22:16Z</time>
      </trkpt>
      <trkpt lat="44.2202" lon="3.8054">
        <ele>546.17</ele>
        <time>2022-08-09T06:22:31Z</time>
      </trkpt>
      <trkpt lat="44.22022" lon="3.80535">
        <ele>543.28</ele>
        <time>2022-08-09T06:22:35Z</time>
      </trkpt>
      <trkpt lat="44.22034" lon="3.80522">
        <ele>539.92</ele>
        <time>2022-08-09T06:22:51Z</time>
      </trkpt>
      <trkpt lat="44.22039" lon="3.80522">
        <ele>537.51</ele>
        <time>2022-08-09T06:23:03Z</time>
      </trkpt>
      <trkpt lat="44.2204" lon="3.80517">
        <ele>535.59</ele>
        <time>2022-08-09T06:23:25Z</time>
      </trkpt>
      <trkpt lat="44.22047" lon="3.8051">
        <ele>534.63</ele>
        <time>2022-08-09T06:23:35Z</time>
      </trkpt>
      <trkpt lat="44.22061" lon="3.80498">
        <ele>534.15</ele>
        <time>2022-08-09T06:23:50Z</time>
      </trkpt>
      <trkpt lat="44.22067" lon="3.80497">
        <ele>533.67</ele>
        <time>2022-08-09T06:23:56Z</time>
      </trkpt>
      <trkpt lat="44.22067" lon="3.80509">
        <ele>531.75</ele>
        <time>2022-08-09T06:24:11Z</time>
      </trkpt>
      <trkpt lat="44.22058" lon="3.80522">
        <ele>531.75</ele>
        <time>2022-08-09T06:24:25Z</time>
      </trkpt>
      <trkpt lat="44.22055" lon="3.80528">
        <ele>531.27</ele>
        <time>2022-08-09T06:24:32Z</time>
      </trkpt>
      <trkpt lat="44.2205" lon="3.80543">
        <ele>529.82</ele>
        <time>2022-08-09T06:24:43Z</time>
      </trkpt>
      <trkpt lat="44.22041" lon="3.80555">
        <ele>527.9</ele>
        <time>2022-08-09T06:24:52Z</time>
      </trkpt>
      <trkpt lat="44.22031" lon="3.80574">
        <ele>525.98</ele>
        <time>2022-08-09T06:25:09Z</time>
      </trkpt>
      <trkpt lat="44.22031" lon="3.80575">
        <ele>525.98</ele>
        <time>2022-08-09T06:25:10Z</time>
      </trkpt>
      <trkpt lat="44.22028" lon="3.80597">
        <ele>525.98</ele>
        <time>2022-08-09T06:25:27Z</time>
      </trkpt>
      <trkpt lat="44.22021" lon="3.80621">
        <ele>524.06</ele>
        <time>2022-08-09T06:25:43Z</time>
      </trkpt>
      <trkpt lat="44.22016" lon="3.80644">
        <ele>521.65</ele>
        <time>2022-08-09T06:25:59Z</time>
      </trkpt>
      <trkpt lat="44.22011" lon="3.80657">
        <ele>517.81</ele>
        <time>2022-08-09T06:26:09Z</time>
      </trkpt>
      <trkpt lat="44.22013" lon="3.80684">
        <ele>515.88</ele>
        <time>2022-08-09T06:26:26Z</time>
      </trkpt>
      <trkpt lat="44.22014" lon="3.80701">
        <ele>516.37</ele>
        <time>2022-08-09T06:26:37Z</time>
      </trkpt>
      <trkpt lat="44.22013" lon="3.80706">
        <ele>516.37</ele>
        <time>2022-08-09T06:26:40Z</time>
      </trkpt>
      <trkpt lat="44.22012" lon="3.8071">
        <ele>516.37</ele>
        <time>2022-08-09T06:26:42Z</time>
      </trkpt>
      <trkpt lat="44.22004" lon="3.80731">
        <ele>514.92</ele>
        <time>2022-08-09T06:26:58Z</time>
      </trkpt>
      <trkpt lat="44.22002" lon="3.80733">
        <ele>512.52</ele>
        <time>2022-08-09T06:27:15Z</time>
      </trkpt>
      <trkpt lat="44.22" lon="3.80745">
        <ele>513</ele>
        <time>2022-08-09T06:27:31Z</time>
      </trkpt>
      <trkpt lat="44.2199" lon="3.80762">
        <ele>513.48</ele>
        <time>2022-08-09T06:27:45Z</time>
      </trkpt>
      <trkpt lat="44.21979" lon="3.80781">
        <ele>512.52</ele>
        <time>2022-08-09T06:28:01Z</time>
      </trkpt>
      <trkpt lat="44.21966" lon="3.80801">
        <ele>510.6</ele>
        <time>2022-08-09T06:28:19Z</time>
      </trkpt>
      <trkpt lat="44.21965" lon="3.80808">
        <ele>510.12</ele>
        <time>2022-08-09T06:28:32Z</time>
      </trkpt>
      <trkpt lat="44.21966" lon="3.80808">
        <ele>510.12</ele>
        <time>2022-08-09T06:28:33Z</time>
      </trkpt>
      <trkpt lat="44.21973" lon="3.80817">
        <ele>511.08</ele>
        <time>2022-08-09T06:28:48Z</time>
      </trkpt>
      <trkpt lat="44.21972" lon="3.80819">
        <ele>514.44</ele>
        <time>2022-08-09T06:29:20Z</time>
      </trkpt>
      <trkpt lat="44.21974" lon="3.8081">
        <ele>512.04</ele>
        <time>2022-08-09T06:29:39Z</time>
      </trkpt>
      <trkpt lat="44.21975" lon="3.80809">
        <ele>511.56</ele>
        <time>2022-08-09T06:29:54Z</time>
      </trkpt>
      <trkpt lat="44.21973" lon="3.80808">
        <ele>513</ele>
        <time>2022-08-09T06:30:14Z</time>
      </trkpt>
      <trkpt lat="44.21973" lon="3.80811">
        <ele>512.04</ele>
        <time>2022-08-09T06:30:55Z</time>
      </trkpt>
      <trkpt lat="44.21969" lon="3.80805">
        <ele>514.92</ele>
        <time>2022-08-09T06:31:34Z</time>
      </trkpt>
      <trkpt lat="44.21973" lon="3.80806">
        <ele>511.56</ele>
        <time>2022-08-09T06:32:10Z</time>
      </trkpt>
      <trkpt lat="44.21976" lon="3.80806">
        <ele>513</ele>
        <time>2022-08-09T06:32:49Z</time>
      </trkpt>
      <trkpt lat="44.21973" lon="3.80806">
        <ele>509.64</ele>
        <time>2022-08-09T06:33:18Z</time>
      </trkpt>
      <trkpt lat="44.21973" lon="3.80806">
        <ele>509.64</ele>
        <time>2022-08-09T06:33:28Z</time>
      </trkpt>
      <trkpt lat="44.21971" lon="3.80803">
        <ele>510.12</ele>
        <time>2022-08-09T06:33:47Z</time>
      </trkpt>
      <trkpt lat="44.21968" lon="3.80804">
        <ele>510.12</ele>
        <time>2022-08-09T06:33:51Z</time>
      </trkpt>
      <trkpt lat="44.21966" lon="3.80805">
        <ele>510.12</ele>
        <time>2022-08-09T06:33:53Z</time>
      </trkpt>
      <trkpt lat="44.21955" lon="3.80818">
        <ele>507.23</ele>
        <time>2022-08-09T06:34:05Z</time>
      </trkpt>
      <trkpt lat="44.21942" lon="3.8084">
        <ele>505.31</ele>
        <time>2022-08-09T06:34:22Z</time>
      </trkpt>
      <trkpt lat="44.21938" lon="3.80846">
        <ele>503.39</ele>
        <time>2022-08-09T06:34:29Z</time>
      </trkpt>
      <trkpt lat="44.21929" lon="3.80861">
        <ele>499.06</ele>
        <time>2022-08-09T06:34:43Z</time>
      </trkpt>
      <trkpt lat="44.21916" lon="3.80877">
        <ele>499.06</ele>
        <time>2022-08-09T06:34:58Z</time>
      </trkpt>
      <trkpt lat="44.21916" lon="3.80886">
        <ele>501.46</ele>
        <time>2022-08-09T06:35:18Z</time>
      </trkpt>
      <trkpt lat="44.21911" lon="3.80882">
        <ele>501.46</ele>
        <time>2022-08-09T06:35:37Z</time>
      </trkpt>
      <trkpt lat="44.21905" lon="3.80879">
        <ele>502.91</ele>
        <time>2022-08-09T06:35:49Z</time>
      </trkpt>
      <trkpt lat="44.21906" lon="3.8088">
        <ele>502.91</ele>
        <time>2022-08-09T06:36:03Z</time>
      </trkpt>
      <trkpt lat="44.21909" lon="3.80883">
        <ele>502.43</ele>
        <time>2022-08-09T06:36:22Z</time>
      </trkpt>
      <trkpt lat="44.21912" lon="3.80888">
        <ele>502.43</ele>
        <time>2022-08-09T06:36:36Z</time>
      </trkpt>
      <trkpt lat="44.21901" lon="3.80897">
        <ele>499.54</ele>
        <time>2022-08-09T06:36:48Z</time>
      </trkpt>
      <trkpt lat="44.21891" lon="3.80903">
        <ele>496.66</ele>
        <time>2022-08-09T06:36:58Z</time>
      </trkpt>
      <trkpt lat="44.2188" lon="3.80909">
        <ele>493.29</ele>
        <time>2022-08-09T06:37:11Z</time>
      </trkpt>
      <trkpt lat="44.21874" lon="3.80909">
        <ele>492.33</ele>
        <time>2022-08-09T06:37:16Z</time>
      </trkpt>
      <trkpt lat="44.21859" lon="3.8092">
        <ele>494.26</ele>
        <time>2022-08-09T06:37:30Z</time>
      </trkpt>
      <trkpt lat="44.21851" lon="3.8092">
        <ele>495.22</ele>
        <time>2022-08-09T06:37:42Z</time>
      </trkpt>
      <trkpt lat="44.21845" lon="3.80905">
        <ele>492.33</ele>
        <time>2022-08-09T06:37:55Z</time>
      </trkpt>
      <trkpt lat="44.21833" lon="3.80891">
        <ele>491.85</ele>
        <time>2022-08-09T06:38:09Z</time>
      </trkpt>
      <trkpt lat="44.21829" lon="3.8089">
        <ele>491.37</ele>
        <time>2022-08-09T06:38:13Z</time>
      </trkpt>
      <trkpt lat="44.21817" lon="3.80885">
        <ele>491.85</ele>
        <time>2022-08-09T06:38:25Z</time>
      </trkpt>
      <trkpt lat="44.21816" lon="3.80886">
        <ele>490.89</ele>
        <time>2022-08-09T06:38:46Z</time>
      </trkpt>
      <trkpt lat="44.2181" lon="3.80892">
        <ele>496.18</ele>
        <time>2022-08-09T06:39:06Z</time>
      </trkpt>
      <trkpt lat="44.21806" lon="3.8089">
        <ele>506.27</ele>
        <time>2022-08-09T06:39:20Z</time>
      </trkpt>
      <trkpt lat="44.21807" lon="3.80898">
        <ele>509.64</ele>
        <time>2022-08-09T06:39:37Z</time>
      </trkpt>
      <trkpt lat="44.21809" lon="3.80898">
        <ele>510.12</ele>
        <time>2022-08-09T06:39:53Z</time>
      </trkpt>
      <trkpt lat="44.21811" lon="3.80901">
        <ele>515.4</ele>
        <time>2022-08-09T06:40:12Z</time>
      </trkpt>
      <trkpt lat="44.21813" lon="3.80898">
        <ele>517.33</ele>
        <time>2022-08-09T06:40:25Z</time>
      </trkpt>
      <trkpt lat="44.21813" lon="3.80893">
        <ele>518.29</ele>
        <time>2022-08-09T06:40:47Z</time>
      </trkpt>
      <trkpt lat="44.21814" lon="3.80891">
        <ele>516.37</ele>
        <time>2022-08-09T06:41:13Z</time>
      </trkpt>
      <trkpt lat="44.21816" lon="3.80892">
        <ele>514.92</ele>
        <time>2022-08-09T06:41:45Z</time>
      </trkpt>
      <trkpt lat="44.21814" lon="3.80895">
        <ele>519.73</ele>
        <time>2022-08-09T06:42:20Z</time>
      </trkpt>
      <trkpt lat="44.21815" lon="3.80892">
        <ele>518.29</ele>
        <time>2022-08-09T06:42:45Z</time>
      </trkpt>
      <trkpt lat="44.21814" lon="3.80895">
        <ele>522.13</ele>
        <time>2022-08-09T06:43:15Z</time>
      </trkpt>
      <trkpt lat="44.21812" lon="3.80892">
        <ele>525.5</ele>
        <time>2022-08-09T06:43:39Z</time>
      </trkpt>
      <trkpt lat="44.21813" lon="3.80896">
        <ele>527.42</ele>
        <time>2022-08-09T06:43:59Z</time>
      </trkpt>
      <trkpt lat="44.21813" lon="3.80896">
        <ele>526.94</ele>
        <time>2022-08-09T06:44:21Z</time>
      </trkpt>
      <trkpt lat="44.21812" lon="3.80898">
        <ele>526.46</ele>
        <time>2022-08-09T06:44:46Z</time>
      </trkpt>
      <trkpt lat="44.21813" lon="3.80904">
        <ele>526.94</ele>
        <time>2022-08-09T06:45:13Z</time>
      </trkpt>
      <trkpt lat="44.2181" lon="3.80903">
        <ele>527.42</ele>
        <time>2022-08-09T06:45:39Z</time>
      </trkpt>
      <trkpt lat="44.21811" lon="3.80901">
        <ele>526.94</ele>
        <time>2022-08-09T06:46:10Z</time>
      </trkpt>
      <trkpt lat="44.21813" lon="3.809">
        <ele>531.27</ele>
        <time>2022-08-09T06:46:35Z</time>
      </trkpt>
      <trkpt lat="44.21812" lon="3.80901">
        <ele>534.15</ele>
        <time>2022-08-09T06:46:59Z</time>
      </trkpt>
      <trkpt lat="44.21811" lon="3.80903">
        <ele>538.48</ele>
        <time>2022-08-09T06:47:32Z</time>
      </trkpt>
      <trkpt lat="44.2181" lon="3.80904">
        <ele>531.75</ele>
        <time>2022-08-09T06:47:55Z</time>
      </trkpt>
      <trkpt lat="44.21808" lon="3.80907">
        <ele>537.51</ele>
        <time>2022-08-09T06:48:20Z</time>
      </trkpt>
      <trkpt lat="44.21809" lon="3.80907">
        <ele>542.32</ele>
        <time>2022-08-09T06:48:56Z</time>
      </trkpt>
      <trkpt lat="44.2181" lon="3.8091">
        <ele>537.99</ele>
        <time>2022-08-09T06:49:32Z</time>
      </trkpt>
      <trkpt lat="44.21813" lon="3.80908">
        <ele>543.28</ele>
        <time>2022-08-09T06:50:15Z</time>
      </trkpt>
      <trkpt lat="44.21813" lon="3.80907">
        <ele>549.05</ele>
        <time>2022-08-09T06:50:44Z</time>
      </trkpt>
      <trkpt lat="44.21814" lon="3.80908">
        <ele>549.05</ele>
        <time>2022-08-09T06:51:07Z</time>
      </trkpt>
      <trkpt lat="44.21811" lon="3.80904">
        <ele>546.65</ele>
        <time>2022-08-09T06:51:31Z</time>
      </trkpt>
      <trkpt lat="44.21811" lon="3.80906">
        <ele>544.24</ele>
        <time>2022-08-09T06:52:00Z</time>
      </trkpt>
      <trkpt lat="44.21809" lon="3.80905">
        <ele>535.11</ele>
        <time>2022-08-09T06:52:35Z</time>
      </trkpt>
      <trkpt lat="44.21806" lon="3.80901">
        <ele>531.27</ele>
        <time>2022-08-09T06:53:00Z</time>
      </trkpt>
      <trkpt lat="44.21809" lon="3.80898">
        <ele>523.09</ele>
        <time>2022-08-09T06:53:30Z</time>
      </trkpt>
      <trkpt lat="44.21812" lon="3.80897">
        <ele>520.21</ele>
        <time>2022-08-09T06:53:54Z</time>
      </trkpt>
      <trkpt lat="44.21811" lon="3.80894">
        <ele>524.54</ele>
        <time>2022-08-09T06:54:25Z</time>
      </trkpt>
      <trkpt lat="44.21814" lon="3.80902">
        <ele>526.46</ele>
        <time>2022-08-09T06:55:02Z</time>
      </trkpt>
      <trkpt lat="44.21809" lon="3.80903">
        <ele>526.94</ele>
        <time>2022-08-09T06:55:36Z</time>
      </trkpt>
      <trkpt lat="44.2181" lon="3.80899">
        <ele>527.42</ele>
        <time>2022-08-09T06:55:58Z</time>
      </trkpt>
      <trkpt lat="44.21809" lon="3.80898">
        <ele>528.38</ele>
        <time>2022-08-09T06:56:26Z</time>
      </trkpt>
      <trkpt lat="44.21815" lon="3.80902">
        <ele>525.98</ele>
        <time>2022-08-09T06:56:56Z</time>
      </trkpt>
      <trkpt lat="44.21817" lon="3.80907">
        <ele>526.94</ele>
        <time>2022-08-09T06:57:30Z</time>
      </trkpt>
      <trkpt lat="44.21816" lon="3.80904">
        <ele>531.75</ele>
        <time>2022-08-09T06:57:49Z</time>
      </trkpt>
      <trkpt lat="44.21817" lon="3.809">
        <ele>535.59</ele>
        <time>2022-08-09T06:58:15Z</time>
      </trkpt>
      <trkpt lat="44.21817" lon="3.80905">
        <ele>532.71</ele>
        <time>2022-08-09T06:58:41Z</time>
      </trkpt>
      <trkpt lat="44.2181" lon="3.80902">
        <ele>525.02</ele>
        <time>2022-08-09T06:59:04Z</time>
      </trkpt>
      <trkpt lat="44.21812" lon="3.809">
        <ele>521.65</ele>
        <time>2022-08-09T06:59:26Z</time>
      </trkpt>
      <trkpt lat="44.21814" lon="3.80903">
        <ele>519.73</ele>
        <time>2022-08-09T06:59:56Z</time>
      </trkpt>
      <trkpt lat="44.21812" lon="3.80901">
        <ele>528.86</ele>
        <time>2022-08-09T07:00:26Z</time>
      </trkpt>
      <trkpt lat="44.21807" lon="3.80899">
        <ele>531.27</ele>
        <time>2022-08-09T07:00:55Z</time>
      </trkpt>
      <trkpt lat="44.21813" lon="3.80905">
        <ele>536.07</ele>
        <time>2022-08-09T07:01:25Z</time>
      </trkpt>
      <trkpt lat="44.21814" lon="3.80912">
        <ele>532.23</ele>
        <time>2022-08-09T07:01:55Z</time>
      </trkpt>
      <trkpt lat="44.2181" lon="3.80918">
        <ele>541.84</ele>
        <time>2022-08-09T07:02:34Z</time>
      </trkpt>
      <trkpt lat="44.21808" lon="3.80915">
        <ele>541.36</ele>
        <time>2022-08-09T07:02:59Z</time>
      </trkpt>
      <trkpt lat="44.21811" lon="3.80913">
        <ele>542.32</ele>
        <time>2022-08-09T07:03:22Z</time>
      </trkpt>
      <trkpt lat="44.21812" lon="3.80912">
        <ele>538.48</ele>
        <time>2022-08-09T07:04:02Z</time>
      </trkpt>
      <trkpt lat="44.21812" lon="3.8091">
        <ele>536.55</ele>
        <time>2022-08-09T07:04:26Z</time>
      </trkpt>
      <trkpt lat="44.21812" lon="3.80909">
        <ele>534.15</ele>
        <time>2022-08-09T07:04:56Z</time>
      </trkpt>
      <trkpt lat="44.21812" lon="3.80906">
        <ele>535.11</ele>
        <time>2022-08-09T07:05:28Z</time>
      </trkpt>
      <trkpt lat="44.21809" lon="3.80909">
        <ele>542.8</ele>
        <time>2022-08-09T07:05:59Z</time>
      </trkpt>
      <trkpt lat="44.2181" lon="3.80915">
        <ele>554.34</ele>
        <time>2022-08-09T07:06:31Z</time>
      </trkpt>
      <trkpt lat="44.21811" lon="3.80912">
        <ele>550.97</ele>
        <time>2022-08-09T07:07:01Z</time>
      </trkpt>
      <trkpt lat="44.21813" lon="3.80913">
        <ele>545.69</ele>
        <time>2022-08-09T07:07:33Z</time>
      </trkpt>
      <trkpt lat="44.21815" lon="3.80909">
        <ele>544.24</ele>
        <time>2022-08-09T07:08:06Z</time>
      </trkpt>
      <trkpt lat="44.21812" lon="3.80907">
        <ele>537.51</ele>
        <time>2022-08-09T07:08:39Z</time>
      </trkpt>
      <trkpt lat="44.21811" lon="3.80908">
        <ele>534.15</ele>
        <time>2022-08-09T07:09:10Z</time>
      </trkpt>
      <trkpt lat="44.21813" lon="3.80911">
        <ele>536.55</ele>
        <time>2022-08-09T07:09:36Z</time>
      </trkpt>
      <trkpt lat="44.21811" lon="3.80913">
        <ele>538.48</ele>
        <time>2022-08-09T07:10:07Z</time>
      </trkpt>
      <trkpt lat="44.21813" lon="3.80907">
        <ele>527.9</ele>
        <time>2022-08-09T07:10:38Z</time>
      </trkpt>
      <trkpt lat="44.21812" lon="3.80909">
        <ele>531.27</ele>
        <time>2022-08-09T07:11:11Z</time>
      </trkpt>
      <trkpt lat="44.21815" lon="3.80903">
        <ele>531.27</ele>
        <time>2022-08-09T07:11:46Z</time>
      </trkpt>
      <trkpt lat="44.21813" lon="3.80905">
        <ele>527.9</ele>
        <time>2022-08-09T07:12:17Z</time>
      </trkpt>
      <trkpt lat="44.21813" lon="3.80913">
        <ele>527.9</ele>
        <time>2022-08-09T07:12:52Z</time>
      </trkpt>
      <trkpt lat="44.21813" lon="3.8091">
        <ele>525.5</ele>
        <time>2022-08-09T07:13:21Z</time>
      </trkpt>
      <trkpt lat="44.21813" lon="3.80906">
        <ele>518.77</ele>
        <time>2022-08-09T07:13:59Z</time>
      </trkpt>
      <trkpt lat="44.21815" lon="3.809">
        <ele>512.04</ele>
        <time>2022-08-09T07:14:25Z</time>
      </trkpt>
      <trkpt lat="44.21819" lon="3.80893">
        <ele>509.64</ele>
        <time>2022-08-09T07:14:53Z</time>
      </trkpt>
      <trkpt lat="44.21813" lon="3.80905">
        <ele>508.67</ele>
        <time>2022-08-09T07:15:30Z</time>
      </trkpt>
      <trkpt lat="44.21813" lon="3.80907">
        <ele>505.79</ele>
        <time>2022-08-09T07:15:56Z</time>
      </trkpt>
      <trkpt lat="44.21817" lon="3.80901">
        <ele>506.75</ele>
        <time>2022-08-09T07:16:32Z</time>
      </trkpt>
      <trkpt lat="44.21813" lon="3.80902">
        <ele>505.31</ele>
        <time>2022-08-09T07:17:03Z</time>
      </trkpt>
      <trkpt lat="44.21812" lon="3.80897">
        <ele>507.23</ele>
        <time>2022-08-09T07:17:19Z</time>
      </trkpt>
      <trkpt lat="44.21813" lon="3.80902">
        <ele>507.23</ele>
        <time>2022-08-09T07:17:39Z</time>
      </trkpt>
      <trkpt lat="44.21812" lon="3.80905">
        <ele>511.08</ele>
        <time>2022-08-09T07:18:14Z</time>
      </trkpt>
      <trkpt lat="44.21812" lon="3.80901">
        <ele>507.23</ele>
        <time>2022-08-09T07:18:32Z</time>
      </trkpt>
      <trkpt lat="44.21812" lon="3.80899">
        <ele>508.67</ele>
        <time>2022-08-09T07:18:45Z</time>
      </trkpt>
      <trkpt lat="44.21809" lon="3.80896">
        <ele>510.6</ele>
        <time>2022-08-09T07:18:56Z</time>
      </trkpt>
      <trkpt lat="44.21803" lon="3.80886">
        <ele>507.23</ele>
        <time>2022-08-09T07:19:03Z</time>
      </trkpt>
      <trkpt lat="44.21794" lon="3.8087">
        <ele>501.46</ele>
        <time>2022-08-09T07:19:16Z</time>
      </trkpt>
      <trkpt lat="44.21788" lon="3.80868">
        <ele>498.58</ele>
        <time>2022-08-09T07:19:32Z</time>
      </trkpt>
      <trkpt lat="44.21786" lon="3.80867">
        <ele>495.7</ele>
        <time>2022-08-09T07:19:50Z</time>
      </trkpt>
      <trkpt lat="44.21787" lon="3.80873">
        <ele>497.62</ele>
        <time>2022-08-09T07:20:17Z</time>
      </trkpt>
      <trkpt lat="44.21788" lon="3.80871">
        <ele>494.26</ele>
        <time>2022-08-09T07:20:46Z</time>
      </trkpt>
      <trkpt lat="44.21787" lon="3.80863">
        <ele>492.33</ele>
        <time>2022-08-09T07:21:13Z</time>
      </trkpt>
      <trkpt lat="44.21774" lon="3.80849">
        <ele>491.37</ele>
        <time>2022-08-09T07:21:26Z</time>
      </trkpt>
      <trkpt lat="44.2176" lon="3.80838">
        <ele>489.93</ele>
        <time>2022-08-09T07:21:42Z</time>
      </trkpt>
      <trkpt lat="44.21747" lon="3.80834">
        <ele>487.53</ele>
        <time>2022-08-09T07:21:55Z</time>
      </trkpt>
      <trkpt lat="44.21734" lon="3.80831">
        <ele>485.12</ele>
        <time>2022-08-09T07:22:08Z</time>
      </trkpt>
      <trkpt lat="44.21725" lon="3.80832">
        <ele>485.6</ele>
        <time>2022-08-09T07:22:15Z</time>
      </trkpt>
      <trkpt lat="44.21722" lon="3.80833">
        <ele>486.08</ele>
        <time>2022-08-09T07:22:17Z</time>
      </trkpt>
      <trkpt lat="44.21705" lon="3.80826">
        <ele>488.97</ele>
        <time>2022-08-09T07:22:33Z</time>
      </trkpt>
      <trkpt lat="44.21689" lon="3.80817">
        <ele>491.37</ele>
        <time>2022-08-09T07:22:49Z</time>
      </trkpt>
      <trkpt lat="44.21674" lon="3.80809">
        <ele>491.85</ele>
        <time>2022-08-09T07:23:04Z</time>
      </trkpt>
      <trkpt lat="44.21661" lon="3.80797">
        <ele>488.49</ele>
        <time>2022-08-09T07:23:19Z</time>
      </trkpt>
      <trkpt lat="44.21649" lon="3.80789">
        <ele>485.12</ele>
        <time>2022-08-09T07:23:34Z</time>
      </trkpt>
      <trkpt lat="44.21638" lon="3.80779">
        <ele>481.76</ele>
        <time>2022-08-09T07:23:46Z</time>
      </trkpt>
      <trkpt lat="44.21623" lon="3.80769">
        <ele>481.28</ele>
        <time>2022-08-09T07:24:00Z</time>
      </trkpt>
      <trkpt lat="44.21614" lon="3.80762">
        <ele>479.35</ele>
        <time>2022-08-09T07:24:10Z</time>
      </trkpt>
      <trkpt lat="44.21601" lon="3.80755">
        <ele>481.76</ele>
        <time>2022-08-09T07:24:23Z</time>
      </trkpt>
      <trkpt lat="44.21597" lon="3.80748">
        <ele>483.68</ele>
        <time>2022-08-09T07:24:30Z</time>
      </trkpt>
      <trkpt lat="44.21595" lon="3.80737">
        <ele>484.16</ele>
        <time>2022-08-09T07:24:37Z</time>
      </trkpt>
      <trkpt lat="44.21599" lon="3.80719">
        <ele>488.01</ele>
        <time>2022-08-09T07:24:53Z</time>
      </trkpt>
      <trkpt lat="44.21611" lon="3.80698">
        <ele>495.22</ele>
        <time>2022-08-09T07:25:09Z</time>
      </trkpt>
      <trkpt lat="44.21612" lon="3.80694">
        <ele>495.22</ele>
        <time>2022-08-09T07:25:12Z</time>
      </trkpt>
      <trkpt lat="44.21613" lon="3.80673">
        <ele>493.77</ele>
        <time>2022-08-09T07:25:28Z</time>
      </trkpt>
      <trkpt lat="44.21612" lon="3.80665">
        <ele>493.29</ele>
        <time>2022-08-09T07:25:33Z</time>
      </trkpt>
      <trkpt lat="44.21609" lon="3.80659">
        <ele>492.33</ele>
        <time>2022-08-09T07:25:37Z</time>
      </trkpt>
      <trkpt lat="44.21607" lon="3.80657">
        <ele>492.33</ele>
        <time>2022-08-09T07:25:39Z</time>
      </trkpt>
      <trkpt lat="44.21597" lon="3.8065">
        <ele>491.37</ele>
        <time>2022-08-09T07:25:51Z</time>
      </trkpt>
      <trkpt lat="44.2158" lon="3.80654">
        <ele>495.22</ele>
        <time>2022-08-09T07:26:05Z</time>
      </trkpt>
      <trkpt lat="44.21569" lon="3.80663">
        <ele>493.77</ele>
        <time>2022-08-09T07:26:18Z</time>
      </trkpt>
      <trkpt lat="44.21555" lon="3.80669">
        <ele>493.29</ele>
        <time>2022-08-09T07:26:33Z</time>
      </trkpt>
      <trkpt lat="44.21545" lon="3.80682">
        <ele>495.7</ele>
        <time>2022-08-09T07:26:47Z</time>
      </trkpt>
      <trkpt lat="44.21536" lon="3.8069">
        <ele>495.7</ele>
        <time>2022-08-09T07:26:58Z</time>
      </trkpt>
      <trkpt lat="44.21523" lon="3.80701">
        <ele>498.58</ele>
        <time>2022-08-09T07:27:11Z</time>
      </trkpt>
      <trkpt lat="44.21509" lon="3.80705">
        <ele>500.5</ele>
        <time>2022-08-09T07:27:25Z</time>
      </trkpt>
      <trkpt lat="44.21508" lon="3.80705">
        <ele>500.5</ele>
        <time>2022-08-09T07:27:26Z</time>
      </trkpt>
      <trkpt lat="44.21505" lon="3.80705">
        <ele>500.02</ele>
        <time>2022-08-09T07:27:29Z</time>
      </trkpt>
      <trkpt lat="44.21498" lon="3.80702">
        <ele>500.02</ele>
        <time>2022-08-09T07:27:35Z</time>
      </trkpt>
      <trkpt lat="44.21494" lon="3.807">
        <ele>500.5</ele>
        <time>2022-08-09T07:27:38Z</time>
      </trkpt>
      <trkpt lat="44.21482" lon="3.80697">
        <ele>499.54</ele>
        <time>2022-08-09T07:27:47Z</time>
      </trkpt>
      <trkpt lat="44.21479" lon="3.80699">
        <ele>500.02</ele>
        <time>2022-08-09T07:27:50Z</time>
      </trkpt>
      <trkpt lat="44.21468" lon="3.80707">
        <ele>498.1</ele>
        <time>2022-08-09T07:28:02Z</time>
      </trkpt>
      <trkpt lat="44.21459" lon="3.80714">
        <ele>496.66</ele>
        <time>2022-08-09T07:28:12Z</time>
      </trkpt>
      <trkpt lat="44.21442" lon="3.80719">
        <ele>498.1</ele>
        <time>2022-08-09T07:28:27Z</time>
      </trkpt>
      <trkpt lat="44.21428" lon="3.80722">
        <ele>498.1</ele>
        <time>2022-08-09T07:28:39Z</time>
      </trkpt>
      <trkpt lat="44.21427" lon="3.80723">
        <ele>498.58</ele>
        <time>2022-08-09T07:28:40Z</time>
      </trkpt>
      <trkpt lat="44.21421" lon="3.8073">
        <ele>498.58</ele>
        <time>2022-08-09T07:28:47Z</time>
      </trkpt>
      <trkpt lat="44.2142" lon="3.80733">
        <ele>499.06</ele>
        <time>2022-08-09T07:28:49Z</time>
      </trkpt>
      <trkpt lat="44.21419" lon="3.80736">
        <ele>498.58</ele>
        <time>2022-08-09T07:28:51Z</time>
      </trkpt>
      <trkpt lat="44.21409" lon="3.80759">
        <ele>501.46</ele>
        <time>2022-08-09T07:29:08Z</time>
      </trkpt>
      <trkpt lat="44.21402" lon="3.80774">
        <ele>503.39</ele>
        <time>2022-08-09T07:29:20Z</time>
      </trkpt>
      <trkpt lat="44.21394" lon="3.80788">
        <ele>505.31</ele>
        <time>2022-08-09T07:29:32Z</time>
      </trkpt>
      <trkpt lat="44.2138" lon="3.80796">
        <ele>507.23</ele>
        <time>2022-08-09T07:29:47Z</time>
      </trkpt>
      <trkpt lat="44.21368" lon="3.80793">
        <ele>507.23</ele>
        <time>2022-08-09T07:29:59Z</time>
      </trkpt>
      <trkpt lat="44.21357" lon="3.80789">
        <ele>510.12</ele>
        <time>2022-08-09T07:30:11Z</time>
      </trkpt>
      <trkpt lat="44.21345" lon="3.80784">
        <ele>511.56</ele>
        <time>2022-08-09T07:30:25Z</time>
      </trkpt>
      <trkpt lat="44.21333" lon="3.80777">
        <ele>513</ele>
        <time>2022-08-09T07:30:40Z</time>
      </trkpt>
      <trkpt lat="44.21318" lon="3.80773">
        <ele>514.92</ele>
        <time>2022-08-09T07:30:55Z</time>
      </trkpt>
      <trkpt lat="44.21308" lon="3.80765">
        <ele>513.96</ele>
        <time>2022-08-09T07:31:08Z</time>
      </trkpt>
      <trkpt lat="44.21296" lon="3.80763">
        <ele>512.04</ele>
        <time>2022-08-09T07:31:21Z</time>
      </trkpt>
      <trkpt lat="44.21284" lon="3.80761">
        <ele>511.56</ele>
        <time>2022-08-09T07:31:34Z</time>
      </trkpt>
      <trkpt lat="44.21274" lon="3.80761">
        <ele>510.6</ele>
        <time>2022-08-09T07:31:47Z</time>
      </trkpt>
      <trkpt lat="44.21263" lon="3.80757">
        <ele>509.64</ele>
        <time>2022-08-09T07:32:00Z</time>
      </trkpt>
      <trkpt lat="44.21251" lon="3.80755">
        <ele>509.64</ele>
        <time>2022-08-09T07:32:13Z</time>
      </trkpt>
      <trkpt lat="44.2124" lon="3.80752">
        <ele>507.71</ele>
        <time>2022-08-09T07:32:26Z</time>
      </trkpt>
      <trkpt lat="44.21227" lon="3.80757">
        <ele>507.23</ele>
        <time>2022-08-09T07:32:41Z</time>
      </trkpt>
      <trkpt lat="44.21218" lon="3.80754">
        <ele>506.27</ele>
        <time>2022-08-09T07:32:54Z</time>
      </trkpt>
      <trkpt lat="44.21209" lon="3.80754">
        <ele>503.87</ele>
        <time>2022-08-09T07:33:07Z</time>
      </trkpt>
      <trkpt lat="44.21204" lon="3.80751">
        <ele>504.35</ele>
        <time>2022-08-09T07:33:12Z</time>
      </trkpt>
      <trkpt lat="44.21201" lon="3.80751">
        <ele>504.83</ele>
        <time>2022-08-09T07:33:14Z</time>
      </trkpt>
      <trkpt lat="44.21188" lon="3.80744">
        <ele>509.64</ele>
        <time>2022-08-09T07:33:28Z</time>
      </trkpt>
      <trkpt lat="44.2118" lon="3.80728">
        <ele>510.12</ele>
        <time>2022-08-09T07:33:44Z</time>
      </trkpt>
      <trkpt lat="44.21169" lon="3.80724">
        <ele>514.92</ele>
        <time>2022-08-09T07:33:58Z</time>
      </trkpt>
      <trkpt lat="44.21161" lon="3.80742">
        <ele>524.06</ele>
        <time>2022-08-09T07:34:12Z</time>
      </trkpt>
      <trkpt lat="44.21154" lon="3.80763">
        <ele>531.27</ele>
        <time>2022-08-09T07:34:25Z</time>
      </trkpt>
      <trkpt lat="44.2114" lon="3.80769">
        <ele>534.15</ele>
        <time>2022-08-09T07:34:40Z</time>
      </trkpt>
      <trkpt lat="44.2113" lon="3.80774">
        <ele>531.75</ele>
        <time>2022-08-09T07:34:53Z</time>
      </trkpt>
      <trkpt lat="44.21133" lon="3.80787">
        <ele>530.79</ele>
        <time>2022-08-09T07:35:01Z</time>
      </trkpt>
      <trkpt lat="44.21129" lon="3.80809">
        <ele>532.23</ele>
        <time>2022-08-09T07:35:16Z</time>
      </trkpt>
      <trkpt lat="44.21121" lon="3.80824">
        <ele>533.19</ele>
        <time>2022-08-09T07:35:30Z</time>
      </trkpt>
      <trkpt lat="44.21107" lon="3.80827">
        <ele>538.48</ele>
        <time>2022-08-09T07:35:46Z</time>
      </trkpt>
      <trkpt lat="44.21096" lon="3.80836">
        <ele>542.8</ele>
        <time>2022-08-09T07:36:01Z</time>
      </trkpt>
      <trkpt lat="44.21085" lon="3.80855">
        <ele>546.17</ele>
        <time>2022-08-09T07:36:18Z</time>
      </trkpt>
      <trkpt lat="44.21077" lon="3.80866">
        <ele>547.13</ele>
        <time>2022-08-09T07:36:33Z</time>
      </trkpt>
      <trkpt lat="44.21066" lon="3.8088">
        <ele>549.53</ele>
        <time>2022-08-09T07:36:53Z</time>
      </trkpt>
      <trkpt lat="44.21059" lon="3.80892">
        <ele>555.3</ele>
        <time>2022-08-09T07:37:07Z</time>
      </trkpt>
      <trkpt lat="44.21046" lon="3.80903">
        <ele>555.78</ele>
        <time>2022-08-09T07:37:23Z</time>
      </trkpt>
      <trkpt lat="44.21034" lon="3.8091">
        <ele>554.82</ele>
        <time>2022-08-09T07:37:37Z</time>
      </trkpt>
      <trkpt lat="44.21016" lon="3.80918">
        <ele>557.22</ele>
        <time>2022-08-09T07:37:54Z</time>
      </trkpt>
      <trkpt lat="44.21005" lon="3.80919">
        <ele>559.14</ele>
        <time>2022-08-09T07:38:07Z</time>
      </trkpt>
      <trkpt lat="44.20995" lon="3.80918">
        <ele>561.55</ele>
        <time>2022-08-09T07:38:16Z</time>
      </trkpt>
      <trkpt lat="44.2098" lon="3.8092">
        <ele>564.91</ele>
        <time>2022-08-09T07:38:31Z</time>
      </trkpt>
      <trkpt lat="44.20968" lon="3.80918">
        <ele>564.91</ele>
        <time>2022-08-09T07:38:43Z</time>
      </trkpt>
      <trkpt lat="44.20956" lon="3.80909">
        <ele>560.59</ele>
        <time>2022-08-09T07:38:57Z</time>
      </trkpt>
      <trkpt lat="44.20949" lon="3.80893">
        <ele>557.22</ele>
        <time>2022-08-09T07:39:10Z</time>
      </trkpt>
      <trkpt lat="44.20943" lon="3.80885">
        <ele>556.26</ele>
        <time>2022-08-09T07:39:17Z</time>
      </trkpt>
      <trkpt lat="44.2093" lon="3.80864">
        <ele>558.18</ele>
        <time>2022-08-09T07:39:33Z</time>
      </trkpt>
      <trkpt lat="44.20925" lon="3.80862">
        <ele>559.62</ele>
        <time>2022-08-09T07:39:38Z</time>
      </trkpt>
      <trkpt lat="44.20913" lon="3.80859">
        <ele>558.66</ele>
        <time>2022-08-09T07:39:47Z</time>
      </trkpt>
      <trkpt lat="44.20897" lon="3.8086">
        <ele>557.7</ele>
        <time>2022-08-09T07:40:02Z</time>
      </trkpt>
      <trkpt lat="44.20893" lon="3.80864">
        <ele>557.22</ele>
        <time>2022-08-09T07:40:07Z</time>
      </trkpt>
      <trkpt lat="44.20887" lon="3.80881">
        <ele>558.18</ele>
        <time>2022-08-09T07:40:21Z</time>
      </trkpt>
      <trkpt lat="44.20883" lon="3.80888">
        <ele>558.66</ele>
        <time>2022-08-09T07:40:27Z</time>
      </trkpt>
      <trkpt lat="44.20878" lon="3.80893">
        <ele>558.66</ele>
        <time>2022-08-09T07:40:33Z</time>
      </trkpt>
      <trkpt lat="44.20876" lon="3.80897">
        <ele>558.66</ele>
        <time>2022-08-09T07:40:36Z</time>
      </trkpt>
      <trkpt lat="44.20863" lon="3.80909">
        <ele>558.18</ele>
        <time>2022-08-09T07:40:50Z</time>
      </trkpt>
      <trkpt lat="44.2085" lon="3.80922">
        <ele>558.18</ele>
        <time>2022-08-09T07:41:04Z</time>
      </trkpt>
      <trkpt lat="44.20837" lon="3.80935">
        <ele>557.22</ele>
        <time>2022-08-09T07:41:18Z</time>
      </trkpt>
      <trkpt lat="44.20828" lon="3.80947">
        <ele>556.26</ele>
        <time>2022-08-09T07:41:29Z</time>
      </trkpt>
      <trkpt lat="44.20827" lon="3.80949">
        <ele>556.26</ele>
        <time>2022-08-09T07:41:31Z</time>
      </trkpt>
      <trkpt lat="44.20823" lon="3.80958">
        <ele>556.26</ele>
        <time>2022-08-09T07:41:37Z</time>
      </trkpt>
      <trkpt lat="44.20815" lon="3.80974">
        <ele>556.26</ele>
        <time>2022-08-09T07:41:50Z</time>
      </trkpt>
      <trkpt lat="44.20807" lon="3.80989">
        <ele>556.26</ele>
        <time>2022-08-09T07:42:02Z</time>
      </trkpt>
      <trkpt lat="44.208" lon="3.81003">
        <ele>556.26</ele>
        <time>2022-08-09T07:42:13Z</time>
      </trkpt>
      <trkpt lat="44.20792" lon="3.8102">
        <ele>555.78</ele>
        <time>2022-08-09T07:42:25Z</time>
      </trkpt>
      <trkpt lat="44.20784" lon="3.81038">
        <ele>555.3</ele>
        <time>2022-08-09T07:42:39Z</time>
      </trkpt>
      <trkpt lat="44.20776" lon="3.81059">
        <ele>553.38</ele>
        <time>2022-08-09T07:42:53Z</time>
      </trkpt>
      <trkpt lat="44.20768" lon="3.81077">
        <ele>549.53</ele>
        <time>2022-08-09T07:43:07Z</time>
      </trkpt>
      <trkpt lat="44.20767" lon="3.81083">
        <ele>548.57</ele>
        <time>2022-08-09T07:43:11Z</time>
      </trkpt>
      <trkpt lat="44.20759" lon="3.81103">
        <ele>548.09</ele>
        <time>2022-08-09T07:43:25Z</time>
      </trkpt>
      <trkpt lat="44.20751" lon="3.81123">
        <ele>549.05</ele>
        <time>2022-08-09T07:43:38Z</time>
      </trkpt>
      <trkpt lat="44.20743" lon="3.81144">
        <ele>545.69</ele>
        <time>2022-08-09T07:43:53Z</time>
      </trkpt>
      <trkpt lat="44.20736" lon="3.81162">
        <ele>542.32</ele>
        <time>2022-08-09T07:44:07Z</time>
      </trkpt>
      <trkpt lat="44.20728" lon="3.81182">
        <ele>540.88</ele>
        <time>2022-08-09T07:44:22Z</time>
      </trkpt>
      <trkpt lat="44.20722" lon="3.81191">
        <ele>540.4</ele>
        <time>2022-08-09T07:44:30Z</time>
      </trkpt>
      <trkpt lat="44.20719" lon="3.81214">
        <ele>539.92</ele>
        <time>2022-08-09T07:44:46Z</time>
      </trkpt>
      <trkpt lat="44.20719" lon="3.8123">
        <ele>538.96</ele>
        <time>2022-08-09T07:45:00Z</time>
      </trkpt>
      <trkpt lat="44.20716" lon="3.81255">
        <ele>538.48</ele>
        <time>2022-08-09T07:45:14Z</time>
      </trkpt>
      <trkpt lat="44.20712" lon="3.8128">
        <ele>538.96</ele>
        <time>2022-08-09T07:45:26Z</time>
      </trkpt>
      <trkpt lat="44.20704" lon="3.81291">
        <ele>537.51</ele>
        <time>2022-08-09T07:45:37Z</time>
      </trkpt>
      <trkpt lat="44.20684" lon="3.81297">
        <ele>535.59</ele>
        <time>2022-08-09T07:45:51Z</time>
      </trkpt>
      <trkpt lat="44.20678" lon="3.81298">
        <ele>534.63</ele>
        <time>2022-08-09T07:45:56Z</time>
      </trkpt>
      <trkpt lat="44.20666" lon="3.81297">
        <ele>535.11</ele>
        <time>2022-08-09T07:46:04Z</time>
      </trkpt>
      <trkpt lat="44.20663" lon="3.81298">
        <ele>534.63</ele>
        <time>2022-08-09T07:46:07Z</time>
      </trkpt>
      <trkpt lat="44.20648" lon="3.81297">
        <ele>532.71</ele>
        <time>2022-08-09T07:46:22Z</time>
      </trkpt>
      <trkpt lat="44.20638" lon="3.81304">
        <ele>527.9</ele>
        <time>2022-08-09T07:46:34Z</time>
      </trkpt>
      <trkpt lat="44.20635" lon="3.81315">
        <ele>524.54</ele>
        <time>2022-08-09T07:46:41Z</time>
      </trkpt>
      <trkpt lat="44.20633" lon="3.81339">
        <ele>524.54</ele>
        <time>2022-08-09T07:46:56Z</time>
      </trkpt>
      <trkpt lat="44.20631" lon="3.81362">
        <ele>524.06</ele>
        <time>2022-08-09T07:47:10Z</time>
      </trkpt>
      <trkpt lat="44.20629" lon="3.81387">
        <ele>520.21</ele>
        <time>2022-08-09T07:47:25Z</time>
      </trkpt>
      <trkpt lat="44.20629" lon="3.81395">
        <ele>519.73</ele>
        <time>2022-08-09T07:47:30Z</time>
      </trkpt>
      <trkpt lat="44.2063" lon="3.81413">
        <ele>517.81</ele>
        <time>2022-08-09T07:47:45Z</time>
      </trkpt>
      <trkpt lat="44.20628" lon="3.81428">
        <ele>517.33</ele>
        <time>2022-08-09T07:47:58Z</time>
      </trkpt>
      <trkpt lat="44.20624" lon="3.81449">
        <ele>516.85</ele>
        <time>2022-08-09T07:48:12Z</time>
      </trkpt>
      <trkpt lat="44.20621" lon="3.81464">
        <ele>516.37</ele>
        <time>2022-08-09T07:48:22Z</time>
      </trkpt>
      <trkpt lat="44.20613" lon="3.81485">
        <ele>513.96</ele>
        <time>2022-08-09T07:48:36Z</time>
      </trkpt>
      <trkpt lat="44.20611" lon="3.81507">
        <ele>513</ele>
        <time>2022-08-09T07:48:51Z</time>
      </trkpt>
      <trkpt lat="44.20605" lon="3.81533">
        <ele>510.6</ele>
        <time>2022-08-09T07:49:06Z</time>
      </trkpt>
      <trkpt lat="44.20601" lon="3.81553">
        <ele>511.08</ele>
        <time>2022-08-09T07:49:20Z</time>
      </trkpt>
      <trkpt lat="44.20598" lon="3.81563">
        <ele>511.56</ele>
        <time>2022-08-09T07:49:28Z</time>
      </trkpt>
      <trkpt lat="44.20592" lon="3.81581">
        <ele>511.56</ele>
        <time>2022-08-09T07:49:42Z</time>
      </trkpt>
      <trkpt lat="44.20584" lon="3.816">
        <ele>512.52</ele>
        <time>2022-08-09T07:49:58Z</time>
      </trkpt>
      <trkpt lat="44.20575" lon="3.81618">
        <ele>514.44</ele>
        <time>2022-08-09T07:50:12Z</time>
      </trkpt>
      <trkpt lat="44.20566" lon="3.81636">
        <ele>514.92</ele>
        <time>2022-08-09T07:50:26Z</time>
      </trkpt>
      <trkpt lat="44.20555" lon="3.81652">
        <ele>514.44</ele>
        <time>2022-08-09T07:50:39Z</time>
      </trkpt>
      <trkpt lat="44.20548" lon="3.81666">
        <ele>513</ele>
        <time>2022-08-09T07:50:50Z</time>
      </trkpt>
      <trkpt lat="44.20534" lon="3.81684">
        <ele>511.56</ele>
        <time>2022-08-09T07:51:05Z</time>
      </trkpt>
      <trkpt lat="44.20521" lon="3.81699">
        <ele>509.16</ele>
        <time>2022-08-09T07:51:20Z</time>
      </trkpt>
      <trkpt lat="44.20507" lon="3.81706">
        <ele>507.71</ele>
        <time>2022-08-09T07:51:33Z</time>
      </trkpt>
      <trkpt lat="44.20491" lon="3.81711">
        <ele>508.19</ele>
        <time>2022-08-09T07:51:46Z</time>
      </trkpt>
      <trkpt lat="44.20479" lon="3.81723">
        <ele>507.23</ele>
        <time>2022-08-09T07:52:00Z</time>
      </trkpt>
      <trkpt lat="44.20473" lon="3.81737">
        <ele>507.23</ele>
        <time>2022-08-09T07:52:11Z</time>
      </trkpt>
      <trkpt lat="44.20464" lon="3.81759">
        <ele>505.31</ele>
        <time>2022-08-09T07:52:26Z</time>
      </trkpt>
      <trkpt lat="44.20462" lon="3.81763">
        <ele>505.31</ele>
        <time>2022-08-09T07:52:29Z</time>
      </trkpt>
      <trkpt lat="44.20455" lon="3.81783">
        <ele>504.35</ele>
        <time>2022-08-09T07:52:44Z</time>
      </trkpt>
      <trkpt lat="44.20449" lon="3.81806">
        <ele>501.95</ele>
        <time>2022-08-09T07:52:59Z</time>
      </trkpt>
      <trkpt lat="44.20445" lon="3.81826">
        <ele>501.46</ele>
        <time>2022-08-09T07:53:12Z</time>
      </trkpt>
      <trkpt lat="44.20438" lon="3.81849">
        <ele>500.5</ele>
        <time>2022-08-09T07:53:27Z</time>
      </trkpt>
      <trkpt lat="44.20431" lon="3.8187">
        <ele>499.54</ele>
        <time>2022-08-09T07:53:41Z</time>
      </trkpt>
      <trkpt lat="44.2043" lon="3.81886">
        <ele>498.1</ele>
        <time>2022-08-09T07:53:53Z</time>
      </trkpt>
      <trkpt lat="44.2043" lon="3.81891">
        <ele>498.58</ele>
        <time>2022-08-09T07:53:56Z</time>
      </trkpt>
      <trkpt lat="44.2043" lon="3.81906">
        <ele>499.06</ele>
        <time>2022-08-09T07:54:04Z</time>
      </trkpt>
      <trkpt lat="44.20428" lon="3.8192">
        <ele>499.54</ele>
        <time>2022-08-09T07:54:12Z</time>
      </trkpt>
      <trkpt lat="44.20424" lon="3.81943">
        <ele>498.1</ele>
        <time>2022-08-09T07:54:27Z</time>
      </trkpt>
      <trkpt lat="44.20416" lon="3.81962">
        <ele>496.66</ele>
        <time>2022-08-09T07:54:40Z</time>
      </trkpt>
      <trkpt lat="44.20405" lon="3.81983">
        <ele>498.1</ele>
        <time>2022-08-09T07:54:56Z</time>
      </trkpt>
      <trkpt lat="44.20403" lon="3.81988">
        <ele>498.1</ele>
        <time>2022-08-09T07:54:59Z</time>
      </trkpt>
      <trkpt lat="44.20394" lon="3.82008">
        <ele>498.58</ele>
        <time>2022-08-09T07:55:13Z</time>
      </trkpt>
      <trkpt lat="44.20392" lon="3.82025">
        <ele>497.62</ele>
        <time>2022-08-09T07:55:27Z</time>
      </trkpt>
      <trkpt lat="44.20393" lon="3.82045">
        <ele>494.74</ele>
        <time>2022-08-09T07:55:39Z</time>
      </trkpt>
      <trkpt lat="44.20393" lon="3.82072">
        <ele>490.41</ele>
        <time>2022-08-09T07:55:55Z</time>
      </trkpt>
      <trkpt lat="44.20394" lon="3.82096">
        <ele>488.49</ele>
        <time>2022-08-09T07:56:10Z</time>
      </trkpt>
      <trkpt lat="44.20392" lon="3.82109">
        <ele>487.05</ele>
        <time>2022-08-09T07:56:20Z</time>
      </trkpt>
      <trkpt lat="44.20382" lon="3.82134">
        <ele>485.6</ele>
        <time>2022-08-09T07:56:35Z</time>
      </trkpt>
      <trkpt lat="44.20369" lon="3.8215">
        <ele>484.64</ele>
        <time>2022-08-09T07:56:52Z</time>
      </trkpt>
      <trkpt lat="44.20352" lon="3.82159">
        <ele>480.8</ele>
        <time>2022-08-09T07:57:08Z</time>
      </trkpt>
      <trkpt lat="44.20341" lon="3.82166">
        <ele>477.91</ele>
        <time>2022-08-09T07:57:20Z</time>
      </trkpt>
      <trkpt lat="44.20328" lon="3.82179">
        <ele>476.95</ele>
        <time>2022-08-09T07:57:33Z</time>
      </trkpt>
      <trkpt lat="44.20318" lon="3.82195">
        <ele>478.87</ele>
        <time>2022-08-09T07:57:46Z</time>
      </trkpt>
      <trkpt lat="44.20317" lon="3.82198">
        <ele>479.35</ele>
        <time>2022-08-09T07:57:49Z</time>
      </trkpt>
      <trkpt lat="44.20312" lon="3.82222">
        <ele>479.84</ele>
        <time>2022-08-09T07:58:03Z</time>
      </trkpt>
      <trkpt lat="44.20308" lon="3.82241">
        <ele>477.91</ele>
        <time>2022-08-09T07:58:16Z</time>
      </trkpt>
      <trkpt lat="44.20303" lon="3.82262">
        <ele>475.99</ele>
        <time>2022-08-09T07:58:29Z</time>
      </trkpt>
      <trkpt lat="44.20294" lon="3.82286">
        <ele>473.59</ele>
        <time>2022-08-09T07:58:45Z</time>
      </trkpt>
      <trkpt lat="44.20292" lon="3.82294">
        <ele>471.66</ele>
        <time>2022-08-09T07:58:51Z</time>
      </trkpt>
      <trkpt lat="44.20288" lon="3.82308">
        <ele>470.22</ele>
        <time>2022-08-09T07:59:00Z</time>
      </trkpt>
      <trkpt lat="44.20286" lon="3.82315">
        <ele>470.7</ele>
        <time>2022-08-09T07:59:05Z</time>
      </trkpt>
      <trkpt lat="44.20275" lon="3.82331">
        <ele>470.7</ele>
        <time>2022-08-09T07:59:18Z</time>
      </trkpt>
      <trkpt lat="44.20262" lon="3.82349">
        <ele>468.3</ele>
        <time>2022-08-09T07:59:33Z</time>
      </trkpt>
      <trkpt lat="44.20256" lon="3.82357">
        <ele>467.34</ele>
        <time>2022-08-09T07:59:41Z</time>
      </trkpt>
      <trkpt lat="44.20247" lon="3.82381">
        <ele>466.86</ele>
        <time>2022-08-09T07:59:57Z</time>
      </trkpt>
      <trkpt lat="44.20244" lon="3.82404">
        <ele>464.45</ele>
        <time>2022-08-09T08:00:11Z</time>
      </trkpt>
      <trkpt lat="44.20243" lon="3.82426">
        <ele>464.45</ele>
        <time>2022-08-09T08:00:26Z</time>
      </trkpt>
      <trkpt lat="44.20244" lon="3.82447">
        <ele>463.97</ele>
        <time>2022-08-09T08:00:41Z</time>
      </trkpt>
      <trkpt lat="44.20244" lon="3.82473">
        <ele>465.9</ele>
        <time>2022-08-09T08:00:59Z</time>
      </trkpt>
      <trkpt lat="44.20244" lon="3.82494">
        <ele>465.9</ele>
        <time>2022-08-09T08:01:14Z</time>
      </trkpt>
      <trkpt lat="44.20248" lon="3.82515">
        <ele>466.86</ele>
        <time>2022-08-09T08:01:30Z</time>
      </trkpt>
      <trkpt lat="44.20248" lon="3.82517">
        <ele>467.34</ele>
        <time>2022-08-09T08:01:31Z</time>
      </trkpt>
      <trkpt lat="44.2025" lon="3.82521">
        <ele>467.34</ele>
        <time>2022-08-09T08:01:34Z</time>
      </trkpt>
      <trkpt lat="44.20255" lon="3.82544">
        <ele>470.7</ele>
        <time>2022-08-09T08:01:49Z</time>
      </trkpt>
      <trkpt lat="44.20258" lon="3.82563">
        <ele>470.22</ele>
        <time>2022-08-09T08:02:02Z</time>
      </trkpt>
      <trkpt lat="44.2026" lon="3.82578">
        <ele>469.74</ele>
        <time>2022-08-09T08:02:12Z</time>
      </trkpt>
      <trkpt lat="44.20261" lon="3.82586">
        <ele>470.7</ele>
        <time>2022-08-09T08:02:17Z</time>
      </trkpt>
      <trkpt lat="44.20261" lon="3.82604">
        <ele>470.22</ele>
        <time>2022-08-09T08:02:28Z</time>
      </trkpt>
      <trkpt lat="44.20259" lon="3.82621">
        <ele>469.74</ele>
        <time>2022-08-09T08:02:38Z</time>
      </trkpt>
      <trkpt lat="44.20253" lon="3.82641">
        <ele>469.26</ele>
        <time>2022-08-09T08:02:51Z</time>
      </trkpt>
      <trkpt lat="44.20245" lon="3.82664">
        <ele>468.78</ele>
        <time>2022-08-09T08:03:07Z</time>
      </trkpt>
      <trkpt lat="44.20237" lon="3.82687">
        <ele>468.3</ele>
        <time>2022-08-09T08:03:23Z</time>
      </trkpt>
      <trkpt lat="44.20225" lon="3.82711">
        <ele>468.3</ele>
        <time>2022-08-09T08:03:40Z</time>
      </trkpt>
      <trkpt lat="44.20222" lon="3.8272">
        <ele>468.3</ele>
        <time>2022-08-09T08:03:46Z</time>
      </trkpt>
      <trkpt lat="44.20221" lon="3.82724">
        <ele>468.3</ele>
        <time>2022-08-09T08:03:49Z</time>
      </trkpt>
      <trkpt lat="44.2022" lon="3.82746">
        <ele>469.26</ele>
        <time>2022-08-09T08:04:04Z</time>
      </trkpt>
      <trkpt lat="44.20227" lon="3.82768">
        <ele>473.11</ele>
        <time>2022-08-09T08:04:19Z</time>
      </trkpt>
      <trkpt lat="44.20231" lon="3.82786">
        <ele>473.11</ele>
        <time>2022-08-09T08:04:33Z</time>
      </trkpt>
      <trkpt lat="44.20227" lon="3.82793">
        <ele>471.66</ele>
        <time>2022-08-09T08:04:39Z</time>
      </trkpt>
      <trkpt lat="44.20215" lon="3.82791">
        <ele>467.34</ele>
        <time>2022-08-09T08:04:52Z</time>
      </trkpt>
      <trkpt lat="44.20198" lon="3.8278">
        <ele>466.86</ele>
        <time>2022-08-09T08:05:07Z</time>
      </trkpt>
      <trkpt lat="44.20185" lon="3.82785">
        <ele>466.86</ele>
        <time>2022-08-09T08:05:18Z</time>
      </trkpt>
      <trkpt lat="44.20169" lon="3.82801">
        <ele>462.05</ele>
        <time>2022-08-09T08:05:34Z</time>
      </trkpt>
      <trkpt lat="44.20169" lon="3.82808">
        <ele>460.13</ele>
        <time>2022-08-09T08:05:38Z</time>
      </trkpt>
      <trkpt lat="44.20172" lon="3.82813">
        <ele>459.17</ele>
        <time>2022-08-09T08:05:42Z</time>
      </trkpt>
      <trkpt lat="44.20188" lon="3.82813">
        <ele>455.8</ele>
        <time>2022-08-09T08:05:57Z</time>
      </trkpt>
      <trkpt lat="44.20199" lon="3.8282">
        <ele>455.32</ele>
        <time>2022-08-09T08:06:10Z</time>
      </trkpt>
      <trkpt lat="44.20188" lon="3.82829">
        <ele>449.55</ele>
        <time>2022-08-09T08:06:25Z</time>
      </trkpt>
      <trkpt lat="44.20172" lon="3.82833">
        <ele>447.15</ele>
        <time>2022-08-09T08:06:39Z</time>
      </trkpt>
      <trkpt lat="44.20171" lon="3.82833">
        <ele>447.15</ele>
        <time>2022-08-09T08:06:40Z</time>
      </trkpt>
      <trkpt lat="44.20161" lon="3.82852">
        <ele>446.67</ele>
        <time>2022-08-09T08:06:56Z</time>
      </trkpt>
      <trkpt lat="44.20156" lon="3.82865">
        <ele>446.67</ele>
        <time>2022-08-09T08:07:12Z</time>
      </trkpt>
      <trkpt lat="44.20157" lon="3.82864">
        <ele>448.59</ele>
        <time>2022-08-09T08:07:35Z</time>
      </trkpt>
      <trkpt lat="44.20157" lon="3.82863">
        <ele>447.15</ele>
        <time>2022-08-09T08:08:04Z</time>
      </trkpt>
      <trkpt lat="44.20157" lon="3.82867">
        <ele>449.55</ele>
        <time>2022-08-09T08:08:25Z</time>
      </trkpt>
      <trkpt lat="44.20159" lon="3.82869">
        <ele>450.03</ele>
        <time>2022-08-09T08:08:49Z</time>
      </trkpt>
      <trkpt lat="44.20153" lon="3.82868">
        <ele>451.48</ele>
        <time>2022-08-09T08:09:16Z</time>
      </trkpt>
      <trkpt lat="44.20156" lon="3.82866">
        <ele>449.07</ele>
        <time>2022-08-09T08:09:49Z</time>
      </trkpt>
      <trkpt lat="44.20155" lon="3.82872">
        <ele>448.11</ele>
        <time>2022-08-09T08:10:28Z</time>
      </trkpt>
      <trkpt lat="44.20157" lon="3.82864">
        <ele>448.11</ele>
        <time>2022-08-09T08:10:53Z</time>
      </trkpt>
      <trkpt lat="44.20155" lon="3.82865">
        <ele>448.11</ele>
        <time>2022-08-09T08:11:21Z</time>
      </trkpt>
      <trkpt lat="44.20153" lon="3.82873">
        <ele>458.69</ele>
        <time>2022-08-09T08:11:52Z</time>
      </trkpt>
      <trkpt lat="44.20155" lon="3.82869">
        <ele>456.28</ele>
        <time>2022-08-09T08:12:20Z</time>
      </trkpt>
      <trkpt lat="44.20153" lon="3.82868">
        <ele>456.76</ele>
        <time>2022-08-09T08:12:48Z</time>
      </trkpt>
      <trkpt lat="44.20155" lon="3.82872">
        <ele>454.36</ele>
        <time>2022-08-09T08:13:01Z</time>
      </trkpt>
      <trkpt lat="44.20154" lon="3.82874">
        <ele>453.4</ele>
        <time>2022-08-09T08:13:27Z</time>
      </trkpt>
      <trkpt lat="44.2015" lon="3.82874">
        <ele>450.03</ele>
        <time>2022-08-09T08:13:59Z</time>
      </trkpt>
      <trkpt lat="44.20143" lon="3.82881">
        <ele>448.11</ele>
        <time>2022-08-09T08:14:10Z</time>
      </trkpt>
      <trkpt lat="44.20139" lon="3.82886">
        <ele>447.15</ele>
        <time>2022-08-09T08:14:14Z</time>
      </trkpt>
      <trkpt lat="44.20123" lon="3.82898">
        <ele>449.07</ele>
        <time>2022-08-09T08:14:30Z</time>
      </trkpt>
      <trkpt lat="44.2012" lon="3.82899">
        <ele>449.07</ele>
        <time>2022-08-09T08:14:32Z</time>
      </trkpt>
      <trkpt lat="44.20116" lon="3.82901">
        <ele>449.55</ele>
        <time>2022-08-09T08:14:37Z</time>
      </trkpt>
      <trkpt lat="44.201" lon="3.82905">
        <ele>451</ele>
        <time>2022-08-09T08:14:52Z</time>
      </trkpt>
      <trkpt lat="44.20087" lon="3.82909">
        <ele>450.03</ele>
        <time>2022-08-09T08:15:05Z</time>
      </trkpt>
      <trkpt lat="44.2007" lon="3.82916">
        <ele>447.15</ele>
        <time>2022-08-09T08:15:20Z</time>
      </trkpt>
      <trkpt lat="44.20059" lon="3.82922">
        <ele>445.23</ele>
        <time>2022-08-09T08:15:31Z</time>
      </trkpt>
      <trkpt lat="44.20056" lon="3.82926">
        <ele>445.71</ele>
        <time>2022-08-09T08:15:34Z</time>
      </trkpt>
      <trkpt lat="44.20048" lon="3.82938">
        <ele>444.75</ele>
        <time>2022-08-09T08:15:47Z</time>
      </trkpt>
      <trkpt lat="44.20042" lon="3.82956">
        <ele>443.79</ele>
        <time>2022-08-09T08:15:59Z</time>
      </trkpt>
      <trkpt lat="44.20044" lon="3.82977">
        <ele>441.86</ele>
        <time>2022-08-09T08:16:11Z</time>
      </trkpt>
      <trkpt lat="44.20047" lon="3.82988">
        <ele>443.31</ele>
        <time>2022-08-09T08:16:16Z</time>
      </trkpt>
      <trkpt lat="44.20049" lon="3.8299">
        <ele>443.79</ele>
        <time>2022-08-09T08:16:18Z</time>
      </trkpt>
      <trkpt lat="44.20054" lon="3.83004">
        <ele>444.75</ele>
        <time>2022-08-09T08:16:27Z</time>
      </trkpt>
      <trkpt lat="44.20056" lon="3.83013">
        <ele>445.71</ele>
        <time>2022-08-09T08:16:34Z</time>
      </trkpt>
      <trkpt lat="44.20056" lon="3.83031">
        <ele>444.75</ele>
        <time>2022-08-09T08:16:46Z</time>
      </trkpt>
      <trkpt lat="44.20056" lon="3.83042">
        <ele>444.75</ele>
        <time>2022-08-09T08:16:52Z</time>
      </trkpt>
      <trkpt lat="44.20051" lon="3.83068">
        <ele>443.79</ele>
        <time>2022-08-09T08:17:07Z</time>
      </trkpt>
      <trkpt lat="44.2005" lon="3.83076">
        <ele>442.82</ele>
        <time>2022-08-09T08:17:12Z</time>
      </trkpt>
      <trkpt lat="44.20043" lon="3.83096">
        <ele>442.34</ele>
        <time>2022-08-09T08:17:24Z</time>
      </trkpt>
      <trkpt lat="44.20035" lon="3.83112">
        <ele>442.34</ele>
        <time>2022-08-09T08:17:35Z</time>
      </trkpt>
      <trkpt lat="44.20025" lon="3.83131">
        <ele>442.82</ele>
        <time>2022-08-09T08:17:50Z</time>
      </trkpt>
      <trkpt lat="44.20019" lon="3.8314">
        <ele>442.82</ele>
        <time>2022-08-09T08:17:57Z</time>
      </trkpt>
      <trkpt lat="44.20014" lon="3.83146">
        <ele>442.34</ele>
        <time>2022-08-09T08:18:03Z</time>
      </trkpt>
      <trkpt lat="44.20001" lon="3.83165">
        <ele>440.9</ele>
        <time>2022-08-09T08:18:17Z</time>
      </trkpt>
      <trkpt lat="44.19991" lon="3.83178">
        <ele>436.58</ele>
        <time>2022-08-09T08:18:30Z</time>
      </trkpt>
      <trkpt lat="44.19978" lon="3.83193">
        <ele>433.69</ele>
        <time>2022-08-09T08:18:46Z</time>
      </trkpt>
      <trkpt lat="44.19964" lon="3.832">
        <ele>432.73</ele>
        <time>2022-08-09T08:18:55Z</time>
      </trkpt>
      <trkpt lat="44.1995" lon="3.83198">
        <ele>431.77</ele>
        <time>2022-08-09T08:19:08Z</time>
      </trkpt>
      <trkpt lat="44.19949" lon="3.83198">
        <ele>431.77</ele>
        <time>2022-08-09T08:19:09Z</time>
      </trkpt>
      <trkpt lat="44.19932" lon="3.83191">
        <ele>430.81</ele>
        <time>2022-08-09T08:19:24Z</time>
      </trkpt>
      <trkpt lat="44.19918" lon="3.83183">
        <ele>430.33</ele>
        <time>2022-08-09T08:19:37Z</time>
      </trkpt>
      <trkpt lat="44.19898" lon="3.8318">
        <ele>430.81</ele>
        <time>2022-08-09T08:19:52Z</time>
      </trkpt>
      <trkpt lat="44.19883" lon="3.83178">
        <ele>428.4</ele>
        <time>2022-08-09T08:20:06Z</time>
      </trkpt>
      <trkpt lat="44.19879" lon="3.83197">
        <ele>428.4</ele>
        <time>2022-08-09T08:20:21Z</time>
      </trkpt>
      <trkpt lat="44.19879" lon="3.83201">
        <ele>428.4</ele>
        <time>2022-08-09T08:20:23Z</time>
      </trkpt>
      <trkpt lat="44.19881" lon="3.83211">
        <ele>427.92</ele>
        <time>2022-08-09T08:20:29Z</time>
      </trkpt>
      <trkpt lat="44.19878" lon="3.83233">
        <ele>426.48</ele>
        <time>2022-08-09T08:20:42Z</time>
      </trkpt>
      <trkpt lat="44.19871" lon="3.83255">
        <ele>421.68</ele>
        <time>2022-08-09T08:20:56Z</time>
      </trkpt>
      <trkpt lat="44.19865" lon="3.83271">
        <ele>420.23</ele>
        <time>2022-08-09T08:21:08Z</time>
      </trkpt>
      <trkpt lat="44.19856" lon="3.83285">
        <ele>420.23</ele>
        <time>2022-08-09T08:21:20Z</time>
      </trkpt>
      <trkpt lat="44.19845" lon="3.83305">
        <ele>417.35</ele>
        <time>2022-08-09T08:21:36Z</time>
      </trkpt>
      <trkpt lat="44.19834" lon="3.83321">
        <ele>415.43</ele>
        <time>2022-08-09T08:21:51Z</time>
      </trkpt>
      <trkpt lat="44.19822" lon="3.83333">
        <ele>413.98</ele>
        <time>2022-08-09T08:22:04Z</time>
      </trkpt>
      <trkpt lat="44.19809" lon="3.83328">
        <ele>414.95</ele>
        <time>2022-08-09T08:22:16Z</time>
      </trkpt>
      <trkpt lat="44.19793" lon="3.83321">
        <ele>413.02</ele>
        <time>2022-08-09T08:22:32Z</time>
      </trkpt>
      <trkpt lat="44.1979" lon="3.83317">
        <ele>412.54</ele>
        <time>2022-08-09T08:22:35Z</time>
      </trkpt>
      <trkpt lat="44.19779" lon="3.83308">
        <ele>412.06</ele>
        <time>2022-08-09T08:22:47Z</time>
      </trkpt>
      <trkpt lat="44.19766" lon="3.83296">
        <ele>411.1</ele>
        <time>2022-08-09T08:23:01Z</time>
      </trkpt>
      <trkpt lat="44.19753" lon="3.83281">
        <ele>408.7</ele>
        <time>2022-08-09T08:23:16Z</time>
      </trkpt>
      <trkpt lat="44.19741" lon="3.83268">
        <ele>407.74</ele>
        <time>2022-08-09T08:23:29Z</time>
      </trkpt>
      <trkpt lat="44.19731" lon="3.83254">
        <ele>408.7</ele>
        <time>2022-08-09T08:23:40Z</time>
      </trkpt>
      <trkpt lat="44.1973" lon="3.83254">
        <ele>408.7</ele>
        <time>2022-08-09T08:23:41Z</time>
      </trkpt>
      <trkpt lat="44.19721" lon="3.83255">
        <ele>408.7</ele>
        <time>2022-08-09T08:23:48Z</time>
      </trkpt>
      <trkpt lat="44.19713" lon="3.83249">
        <ele>407.74</ele>
        <time>2022-08-09T08:23:57Z</time>
      </trkpt>
      <trkpt lat="44.19698" lon="3.8325">
        <ele>407.74</ele>
        <time>2022-08-09T08:24:12Z</time>
      </trkpt>
      <trkpt lat="44.19696" lon="3.83277">
        <ele>404.85</ele>
        <time>2022-08-09T08:24:27Z</time>
      </trkpt>
      <trkpt lat="44.197" lon="3.83301">
        <ele>402.93</ele>
        <time>2022-08-09T08:24:41Z</time>
      </trkpt>
      <trkpt lat="44.19701" lon="3.83307">
        <ele>401.97</ele>
        <time>2022-08-09T08:24:45Z</time>
      </trkpt>
      <trkpt lat="44.197" lon="3.83319">
        <ele>399.57</ele>
        <time>2022-08-09T08:24:53Z</time>
      </trkpt>
      <trkpt lat="44.19684" lon="3.83341">
        <ele>396.68</ele>
        <time>2022-08-09T08:25:08Z</time>
      </trkpt>
      <trkpt lat="44.19674" lon="3.83348">
        <ele>395.72</ele>
        <time>2022-08-09T08:25:18Z</time>
      </trkpt>
      <trkpt lat="44.19669" lon="3.83351">
        <ele>395.72</ele>
        <time>2022-08-09T08:25:22Z</time>
      </trkpt>
      <trkpt lat="44.19665" lon="3.83352">
        <ele>396.2</ele>
        <time>2022-08-09T08:25:25Z</time>
      </trkpt>
      <trkpt lat="44.19656" lon="3.83356">
        <ele>394.76</ele>
        <time>2022-08-09T08:25:33Z</time>
      </trkpt>
      <trkpt lat="44.19642" lon="3.8335">
        <ele>394.28</ele>
        <time>2022-08-09T08:25:48Z</time>
      </trkpt>
      <trkpt lat="44.19633" lon="3.83343">
        <ele>393.32</ele>
        <time>2022-08-09T08:25:57Z</time>
      </trkpt>
      <trkpt lat="44.19619" lon="3.83354">
        <ele>393.32</ele>
        <time>2022-08-09T08:26:12Z</time>
      </trkpt>
      <trkpt lat="44.19617" lon="3.83359">
        <ele>393.8</ele>
        <time>2022-08-09T08:26:15Z</time>
      </trkpt>
      <trkpt lat="44.196" lon="3.83374">
        <ele>393.8</ele>
        <time>2022-08-09T08:26:31Z</time>
      </trkpt>
      <trkpt lat="44.19583" lon="3.83383">
        <ele>393.32</ele>
        <time>2022-08-09T08:26:46Z</time>
      </trkpt>
      <trkpt lat="44.19573" lon="3.834">
        <ele>392.84</ele>
        <time>2022-08-09T08:26:59Z</time>
      </trkpt>
      <trkpt lat="44.19572" lon="3.83405">
        <ele>392.36</ele>
        <time>2022-08-09T08:27:01Z</time>
      </trkpt>
      <trkpt lat="44.19572" lon="3.83411">
        <ele>391.87</ele>
        <time>2022-08-09T08:27:04Z</time>
      </trkpt>
      <trkpt lat="44.19569" lon="3.83423">
        <ele>390.43</ele>
        <time>2022-08-09T08:27:13Z</time>
      </trkpt>
      <trkpt lat="44.19559" lon="3.83447">
        <ele>389.95</ele>
        <time>2022-08-09T08:27:28Z</time>
      </trkpt>
      <trkpt lat="44.19546" lon="3.83464">
        <ele>389.47</ele>
        <time>2022-08-09T08:27:41Z</time>
      </trkpt>
      <trkpt lat="44.19529" lon="3.8348">
        <ele>388.03</ele>
        <time>2022-08-09T08:27:58Z</time>
      </trkpt>
      <trkpt lat="44.19509" lon="3.83493">
        <ele>389.47</ele>
        <time>2022-08-09T08:28:16Z</time>
      </trkpt>
      <trkpt lat="44.19495" lon="3.83506">
        <ele>390.91</ele>
        <time>2022-08-09T08:28:30Z</time>
      </trkpt>
      <trkpt lat="44.19488" lon="3.83523">
        <ele>388.03</ele>
        <time>2022-08-09T08:28:42Z</time>
      </trkpt>
      <trkpt lat="44.19493" lon="3.83537">
        <ele>386.11</ele>
        <time>2022-08-09T08:28:53Z</time>
      </trkpt>
      <trkpt lat="44.19501" lon="3.83562">
        <ele>384.18</ele>
        <time>2022-08-09T08:29:07Z</time>
      </trkpt>
      <trkpt lat="44.19502" lon="3.83564">
        <ele>383.7</ele>
        <time>2022-08-09T08:29:09Z</time>
      </trkpt>
      <trkpt lat="44.19511" lon="3.83576">
        <ele>383.22</ele>
        <time>2022-08-09T08:29:22Z</time>
      </trkpt>
      <trkpt lat="44.19527" lon="3.83592">
        <ele>380.82</ele>
        <time>2022-08-09T08:29:36Z</time>
      </trkpt>
      <trkpt lat="44.19539" lon="3.83609">
        <ele>380.82</ele>
        <time>2022-08-09T08:29:50Z</time>
      </trkpt>
      <trkpt lat="44.1954" lon="3.83613">
        <ele>380.34</ele>
        <time>2022-08-09T08:29:53Z</time>
      </trkpt>
      <trkpt lat="44.19543" lon="3.83632">
        <ele>379.38</ele>
        <time>2022-08-09T08:30:04Z</time>
      </trkpt>
      <trkpt lat="44.19541" lon="3.83651">
        <ele>377.94</ele>
        <time>2022-08-09T08:30:15Z</time>
      </trkpt>
      <trkpt lat="44.19533" lon="3.83665">
        <ele>376.49</ele>
        <time>2022-08-09T08:30:28Z</time>
      </trkpt>
      <trkpt lat="44.19523" lon="3.8368">
        <ele>374.09</ele>
        <time>2022-08-09T08:30:42Z</time>
      </trkpt>
      <trkpt lat="44.19514" lon="3.83699">
        <ele>374.57</ele>
        <time>2022-08-09T08:30:54Z</time>
      </trkpt>
      <trkpt lat="44.19511" lon="3.83707">
        <ele>373.61</ele>
        <time>2022-08-09T08:30:59Z</time>
      </trkpt>
      <trkpt lat="44.19504" lon="3.8373">
        <ele>372.17</ele>
        <time>2022-08-09T08:31:14Z</time>
      </trkpt>
      <trkpt lat="44.19499" lon="3.83747">
        <ele>372.17</ele>
        <time>2022-08-09T08:31:26Z</time>
      </trkpt>
      <trkpt lat="44.19499" lon="3.83748">
        <ele>371.69</ele>
        <time>2022-08-09T08:31:27Z</time>
      </trkpt>
      <trkpt lat="44.19493" lon="3.83772">
        <ele>370.73</ele>
        <time>2022-08-09T08:31:42Z</time>
      </trkpt>
      <trkpt lat="44.19489" lon="3.83795">
        <ele>368.32</ele>
        <time>2022-08-09T08:31:56Z</time>
      </trkpt>
      <trkpt lat="44.19486" lon="3.83812">
        <ele>365.44</ele>
        <time>2022-08-09T08:32:06Z</time>
      </trkpt>
      <trkpt lat="44.19486" lon="3.83815">
        <ele>365.44</ele>
        <time>2022-08-09T08:32:08Z</time>
      </trkpt>
      <trkpt lat="44.19482" lon="3.83827">
        <ele>365.44</ele>
        <time>2022-08-09T08:32:16Z</time>
      </trkpt>
      <trkpt lat="44.19479" lon="3.83837">
        <ele>364.96</ele>
        <time>2022-08-09T08:32:24Z</time>
      </trkpt>
      <trkpt lat="44.19474" lon="3.83858">
        <ele>363.52</ele>
        <time>2022-08-09T08:32:38Z</time>
      </trkpt>
      <trkpt lat="44.19467" lon="3.83879">
        <ele>362.55</ele>
        <time>2022-08-09T08:32:51Z</time>
      </trkpt>
      <trkpt lat="44.19461" lon="3.839">
        <ele>361.59</ele>
        <time>2022-08-09T08:33:04Z</time>
      </trkpt>
      <trkpt lat="44.19456" lon="3.83911">
        <ele>360.15</ele>
        <time>2022-08-09T08:33:11Z</time>
      </trkpt>
      <trkpt lat="44.19441" lon="3.83922">
        <ele>358.71</ele>
        <time>2022-08-09T08:33:25Z</time>
      </trkpt>
      <trkpt lat="44.19425" lon="3.83924">
        <ele>356.31</ele>
        <time>2022-08-09T08:33:40Z</time>
      </trkpt>
      <trkpt lat="44.1941" lon="3.83934">
        <ele>354.38</ele>
        <time>2022-08-09T08:33:54Z</time>
      </trkpt>
      <trkpt lat="44.19392" lon="3.83934">
        <ele>351.98</ele>
        <time>2022-08-09T08:34:09Z</time>
      </trkpt>
      <trkpt lat="44.19376" lon="3.83924">
        <ele>352.46</ele>
        <time>2022-08-09T08:34:23Z</time>
      </trkpt>
      <trkpt lat="44.19368" lon="3.83919">
        <ele>352.46</ele>
        <time>2022-08-09T08:34:37Z</time>
      </trkpt>
      <trkpt lat="44.19363" lon="3.83914">
        <ele>355.34</ele>
        <time>2022-08-09T08:35:14Z</time>
      </trkpt>
      <trkpt lat="44.19355" lon="3.83903">
        <ele>354.86</ele>
        <time>2022-08-09T08:35:27Z</time>
      </trkpt>
      <trkpt lat="44.19354" lon="3.83903">
        <ele>354.38</ele>
        <time>2022-08-09T08:35:28Z</time>
      </trkpt>
      <trkpt lat="44.19341" lon="3.83908">
        <ele>353.9</ele>
        <time>2022-08-09T08:35:42Z</time>
      </trkpt>
      <trkpt lat="44.19333" lon="3.83922">
        <ele>353.42</ele>
        <time>2022-08-09T08:35:54Z</time>
      </trkpt>
      <trkpt lat="44.19326" lon="3.8394">
        <ele>352.94</ele>
        <time>2022-08-09T08:36:06Z</time>
      </trkpt>
      <trkpt lat="44.19313" lon="3.83952">
        <ele>350.06</ele>
        <time>2022-08-09T08:36:16Z</time>
      </trkpt>
      <trkpt lat="44.19294" lon="3.83957">
        <ele>342.37</ele>
        <time>2022-08-09T08:36:32Z</time>
      </trkpt>
      <trkpt lat="44.19276" lon="3.83962">
        <ele>339.48</ele>
        <time>2022-08-09T08:36:47Z</time>
      </trkpt>
      <trkpt lat="44.19263" lon="3.83961">
        <ele>338.04</ele>
        <time>2022-08-09T08:36:58Z</time>
      </trkpt>
      <trkpt lat="44.19256" lon="3.8396">
        <ele>337.08</ele>
        <time>2022-08-09T08:37:04Z</time>
      </trkpt>
      <trkpt lat="44.1924" lon="3.83962">
        <ele>335.16</ele>
        <time>2022-08-09T08:37:17Z</time>
      </trkpt>
      <trkpt lat="44.19236" lon="3.83964">
        <ele>334.68</ele>
        <time>2022-08-09T08:37:21Z</time>
      </trkpt>
      <trkpt lat="44.19229" lon="3.83969">
        <ele>332.27</ele>
        <time>2022-08-09T08:37:28Z</time>
      </trkpt>
      <trkpt lat="44.1921" lon="3.83958">
        <ele>331.31</ele>
        <time>2022-08-09T08:37:45Z</time>
      </trkpt>
      <trkpt lat="44.19205" lon="3.83951">
        <ele>331.31</ele>
        <time>2022-08-09T08:37:51Z</time>
      </trkpt>
      <trkpt lat="44.19198" lon="3.8394">
        <ele>330.35</ele>
        <time>2022-08-09T08:38:00Z</time>
      </trkpt>
      <trkpt lat="44.19181" lon="3.8393">
        <ele>329.87</ele>
        <time>2022-08-09T08:38:16Z</time>
      </trkpt>
      <trkpt lat="44.19173" lon="3.83907">
        <ele>328.91</ele>
        <time>2022-08-09T08:38:32Z</time>
      </trkpt>
      <trkpt lat="44.19166" lon="3.83881">
        <ele>327.95</ele>
        <time>2022-08-09T08:38:49Z</time>
      </trkpt>
      <trkpt lat="44.19152" lon="3.83865">
        <ele>326.99</ele>
        <time>2022-08-09T08:39:04Z</time>
      </trkpt>
      <trkpt lat="44.19139" lon="3.83844">
        <ele>327.95</ele>
        <time>2022-08-09T08:39:20Z</time>
      </trkpt>
      <trkpt lat="44.19122" lon="3.83829">
        <ele>326.02</ele>
        <time>2022-08-09T08:39:37Z</time>
      </trkpt>
      <trkpt lat="44.19108" lon="3.83811">
        <ele>324.1</ele>
        <time>2022-08-09T08:39:53Z</time>
      </trkpt>
      <trkpt lat="44.19097" lon="3.83801">
        <ele>323.14</ele>
        <time>2022-08-09T08:40:07Z</time>
      </trkpt>
      <trkpt lat="44.1909" lon="3.83782">
        <ele>321.7</ele>
        <time>2022-08-09T08:40:20Z</time>
      </trkpt>
      <trkpt lat="44.1909" lon="3.83759">
        <ele>320.26</ele>
        <time>2022-08-09T08:40:33Z</time>
      </trkpt>
      <trkpt lat="44.19096" lon="3.83742">
        <ele>319.78</ele>
        <time>2022-08-09T08:40:43Z</time>
      </trkpt>
      <trkpt lat="44.19105" lon="3.83731">
        <ele>319.3</ele>
        <time>2022-08-09T08:40:53Z</time>
      </trkpt>
      <trkpt lat="44.1912" lon="3.83716">
        <ele>319.78</ele>
        <time>2022-08-09T08:41:08Z</time>
      </trkpt>
      <trkpt lat="44.19131" lon="3.83699">
        <ele>319.78</ele>
        <time>2022-08-09T08:41:23Z</time>
      </trkpt>
      <trkpt lat="44.19128" lon="3.8369">
        <ele>319.78</ele>
        <time>2022-08-09T08:41:34Z</time>
      </trkpt>
      <trkpt lat="44.19119" lon="3.83689">
        <ele>319.3</ele>
        <time>2022-08-09T08:41:41Z</time>
      </trkpt>
      <trkpt lat="44.19104" lon="3.83698">
        <ele>318.33</ele>
        <time>2022-08-09T08:41:50Z</time>
      </trkpt>
      <trkpt lat="44.19089" lon="3.83706">
        <ele>317.37</ele>
        <time>2022-08-09T08:42:00Z</time>
      </trkpt>
      <trkpt lat="44.19087" lon="3.83705">
        <ele>317.37</ele>
        <time>2022-08-09T08:42:01Z</time>
      </trkpt>
      <trkpt lat="44.19081" lon="3.83702">
        <ele>317.37</ele>
        <time>2022-08-09T08:42:05Z</time>
      </trkpt>
      <trkpt lat="44.19079" lon="3.83702">
        <ele>317.37</ele>
        <time>2022-08-09T08:42:06Z</time>
      </trkpt>
      <trkpt lat="44.19076" lon="3.83699">
        <ele>317.37</ele>
        <time>2022-08-09T08:42:08Z</time>
      </trkpt>
      <trkpt lat="44.19074" lon="3.83698">
        <ele>317.37</ele>
        <time>2022-08-09T08:42:09Z</time>
      </trkpt>
      <trkpt lat="44.19073" lon="3.83697">
        <ele>317.37</ele>
        <time>2022-08-09T08:42:10Z</time>
      </trkpt>
      <trkpt lat="44.19066" lon="3.83693">
        <ele>315.93</ele>
        <time>2022-08-09T08:42:16Z</time>
      </trkpt>
      <trkpt lat="44.19059" lon="3.83693">
        <ele>314.97</ele>
        <time>2022-08-09T08:42:22Z</time>
      </trkpt>
      <trkpt lat="44.19057" lon="3.83692">
        <ele>314.97</ele>
        <time>2022-08-09T08:42:23Z</time>
      </trkpt>
      <trkpt lat="44.19056" lon="3.83692">
        <ele>314.97</ele>
        <time>2022-08-09T08:42:24Z</time>
      </trkpt>
      <trkpt lat="44.19055" lon="3.83692">
        <ele>314.97</ele>
        <time>2022-08-09T08:42:25Z</time>
      </trkpt>
      <trkpt lat="44.19054" lon="3.83692">
        <ele>314.49</ele>
        <time>2022-08-09T08:42:26Z</time>
      </trkpt>
      <trkpt lat="44.19052" lon="3.83693">
        <ele>314.49</ele>
        <time>2022-08-09T08:42:27Z</time>
      </trkpt>
      <trkpt lat="44.19051" lon="3.83693">
        <ele>314.01</ele>
        <time>2022-08-09T08:42:28Z</time>
      </trkpt>
      <trkpt lat="44.1905" lon="3.83693">
        <ele>314.01</ele>
        <time>2022-08-09T08:42:29Z</time>
      </trkpt>
      <trkpt lat="44.19035" lon="3.83687">
        <ele>311.12</ele>
        <time>2022-08-09T08:42:43Z</time>
      </trkpt>
      <trkpt lat="44.19033" lon="3.83684">
        <ele>310.64</ele>
        <time>2022-08-09T08:42:46Z</time>
      </trkpt>
      <trkpt lat="44.19019" lon="3.83668">
        <ele>309.68</ele>
        <time>2022-08-09T08:43:02Z</time>
      </trkpt>
      <trkpt lat="44.19006" lon="3.83652">
        <ele>308.24</ele>
        <time>2022-08-09T08:43:18Z</time>
      </trkpt>
      <trkpt lat="44.18997" lon="3.83635">
        <ele>306.8</ele>
        <time>2022-08-09T08:43:32Z</time>
      </trkpt>
      <trkpt lat="44.18988" lon="3.83611">
        <ele>306.32</ele>
        <time>2022-08-09T08:43:48Z</time>
      </trkpt>
      <trkpt lat="44.1898" lon="3.8359">
        <ele>304.39</ele>
        <time>2022-08-09T08:44:03Z</time>
      </trkpt>
      <trkpt lat="44.1897" lon="3.83569">
        <ele>303.43</ele>
        <time>2022-08-09T08:44:19Z</time>
      </trkpt>
      <trkpt lat="44.18959" lon="3.83556">
        <ele>302.47</ele>
        <time>2022-08-09T08:44:32Z</time>
      </trkpt>
      <trkpt lat="44.18942" lon="3.8354">
        <ele>301.03</ele>
        <time>2022-08-09T08:44:50Z</time>
      </trkpt>
      <trkpt lat="44.18933" lon="3.83526">
        <ele>300.07</ele>
        <time>2022-08-09T08:45:03Z</time>
      </trkpt>
      <trkpt lat="44.18921" lon="3.8351">
        <ele>296.22</ele>
        <time>2022-08-09T08:45:17Z</time>
      </trkpt>
      <trkpt lat="44.18913" lon="3.83489">
        <ele>294.3</ele>
        <time>2022-08-09T08:45:32Z</time>
      </trkpt>
      <trkpt lat="44.18906" lon="3.83466">
        <ele>292.38</ele>
        <time>2022-08-09T08:45:48Z</time>
      </trkpt>
      <trkpt lat="44.18901" lon="3.8344">
        <ele>291.42</ele>
        <time>2022-08-09T08:46:05Z</time>
      </trkpt>
      <trkpt lat="44.18896" lon="3.83419">
        <ele>291.9</ele>
        <time>2022-08-09T08:46:18Z</time>
      </trkpt>
      <trkpt lat="44.18895" lon="3.83413">
        <ele>290.94</ele>
        <time>2022-08-09T08:46:21Z</time>
      </trkpt>
      <trkpt lat="44.18884" lon="3.83387">
        <ele>290.94</ele>
        <time>2022-08-09T08:46:39Z</time>
      </trkpt>
      <trkpt lat="44.18873" lon="3.83366">
        <ele>287.57</ele>
        <time>2022-08-09T08:46:55Z</time>
      </trkpt>
      <trkpt lat="44.18861" lon="3.83346">
        <ele>287.09</ele>
        <time>2022-08-09T08:47:10Z</time>
      </trkpt>
      <trkpt lat="44.1885" lon="3.83335">
        <ele>285.17</ele>
        <time>2022-08-09T08:47:24Z</time>
      </trkpt>
      <trkpt lat="44.18837" lon="3.83332">
        <ele>284.21</ele>
        <time>2022-08-09T08:47:35Z</time>
      </trkpt>
      <trkpt lat="44.1882" lon="3.83332">
        <ele>281.8</ele>
        <time>2022-08-09T08:47:49Z</time>
      </trkpt>
      <trkpt lat="44.1881" lon="3.83334">
        <ele>279.88</ele>
        <time>2022-08-09T08:47:58Z</time>
      </trkpt>
      <trkpt lat="44.18807" lon="3.83334">
        <ele>279.4</ele>
        <time>2022-08-09T08:48:00Z</time>
      </trkpt>
      <trkpt lat="44.18793" lon="3.83339">
        <ele>277.96</ele>
        <time>2022-08-09T08:48:13Z</time>
      </trkpt>
      <trkpt lat="44.18779" lon="3.83351">
        <ele>275.07</ele>
        <time>2022-08-09T08:48:28Z</time>
      </trkpt>
      <trkpt lat="44.18767" lon="3.83363">
        <ele>272.67</ele>
        <time>2022-08-09T08:48:40Z</time>
      </trkpt>
      <trkpt lat="44.18753" lon="3.8338">
        <ele>272.19</ele>
        <time>2022-08-09T08:48:55Z</time>
      </trkpt>
      <trkpt lat="44.18741" lon="3.83389">
        <ele>274.11</ele>
        <time>2022-08-09T08:49:06Z</time>
      </trkpt>
      <trkpt lat="44.18725" lon="3.83399">
        <ele>274.11</ele>
        <time>2022-08-09T08:49:20Z</time>
      </trkpt>
      <trkpt lat="44.18705" lon="3.83407">
        <ele>275.07</ele>
        <time>2022-08-09T08:49:36Z</time>
      </trkpt>
      <trkpt lat="44.1869" lon="3.83403">
        <ele>274.11</ele>
        <time>2022-08-09T08:49:49Z</time>
      </trkpt>
      <trkpt lat="44.18676" lon="3.83384">
        <ele>271.23</ele>
        <time>2022-08-09T08:50:06Z</time>
      </trkpt>
      <trkpt lat="44.18674" lon="3.83374">
        <ele>269.79</ele>
        <time>2022-08-09T08:50:13Z</time>
      </trkpt>
      <trkpt lat="44.18674" lon="3.83372">
        <ele>269.79</ele>
        <time>2022-08-09T08:50:14Z</time>
      </trkpt>
      <trkpt lat="44.18673" lon="3.83371">
        <ele>269.79</ele>
        <time>2022-08-09T08:50:15Z</time>
      </trkpt>
      <trkpt lat="44.18673" lon="3.83369">
        <ele>269.31</ele>
        <time>2022-08-09T08:50:16Z</time>
      </trkpt>
      <trkpt lat="44.18674" lon="3.83367">
        <ele>269.31</ele>
        <time>2022-08-09T08:50:17Z</time>
      </trkpt>
      <trkpt lat="44.18675" lon="3.83356">
        <ele>269.31</ele>
        <time>2022-08-09T08:50:24Z</time>
      </trkpt>
      <trkpt lat="44.18676" lon="3.83343">
        <ele>269.31</ele>
        <time>2022-08-09T08:50:32Z</time>
      </trkpt>
      <trkpt lat="44.18677" lon="3.83341">
        <ele>268.83</ele>
        <time>2022-08-09T08:50:33Z</time>
      </trkpt>
      <trkpt lat="44.18678" lon="3.83339">
        <ele>268.83</ele>
        <time>2022-08-09T08:50:34Z</time>
      </trkpt>
      <trkpt lat="44.18678" lon="3.83338">
        <ele>268.83</ele>
        <time>2022-08-09T08:50:35Z</time>
      </trkpt>
      <trkpt lat="44.18678" lon="3.83336">
        <ele>268.83</ele>
        <time>2022-08-09T08:50:36Z</time>
      </trkpt>
      <trkpt lat="44.18678" lon="3.83334">
        <ele>268.35</ele>
        <time>2022-08-09T08:50:37Z</time>
      </trkpt>
      <trkpt lat="44.18678" lon="3.83333">
        <ele>268.35</ele>
        <time>2022-08-09T08:50:38Z</time>
      </trkpt>
      <trkpt lat="44.18679" lon="3.83331">
        <ele>268.35</ele>
        <time>2022-08-09T08:50:39Z</time>
      </trkpt>
      <trkpt lat="44.18687" lon="3.83311">
        <ele>267.38</ele>
        <time>2022-08-09T08:50:52Z</time>
      </trkpt>
      <trkpt lat="44.18698" lon="3.83288">
        <ele>267.86</ele>
        <time>2022-08-09T08:51:07Z</time>
      </trkpt>
      <trkpt lat="44.18706" lon="3.83262">
        <ele>269.31</ele>
        <time>2022-08-09T08:51:23Z</time>
      </trkpt>
      <trkpt lat="44.18706" lon="3.83253">
        <ele>268.83</ele>
        <time>2022-08-09T08:51:28Z</time>
      </trkpt>
      <trkpt lat="44.18703" lon="3.83248">
        <ele>268.83</ele>
        <time>2022-08-09T08:51:32Z</time>
      </trkpt>
      <trkpt lat="44.18697" lon="3.83249">
        <ele>268.83</ele>
        <time>2022-08-09T08:51:44Z</time>
      </trkpt>
      <trkpt lat="44.18693" lon="3.83249">
        <ele>268.35</ele>
        <time>2022-08-09T08:52:01Z</time>
      </trkpt>
      <trkpt lat="44.18676" lon="3.83239">
        <ele>267.38</ele>
        <time>2022-08-09T08:52:16Z</time>
      </trkpt>
      <trkpt lat="44.18662" lon="3.83233">
        <ele>264.5</ele>
        <time>2022-08-09T08:52:32Z</time>
      </trkpt>
      <trkpt lat="44.18654" lon="3.83233">
        <ele>263.54</ele>
        <time>2022-08-09T08:52:39Z</time>
      </trkpt>
      <trkpt lat="44.1864" lon="3.83244">
        <ele>264.5</ele>
        <time>2022-08-09T08:52:54Z</time>
      </trkpt>
      <trkpt lat="44.1863" lon="3.83257">
        <ele>266.42</ele>
        <time>2022-08-09T08:53:07Z</time>
      </trkpt>
      <trkpt lat="44.1862" lon="3.83267">
        <ele>267.86</ele>
        <time>2022-08-09T08:53:17Z</time>
      </trkpt>
      <trkpt lat="44.18619" lon="3.83268">
        <ele>267.86</ele>
        <time>2022-08-09T08:53:18Z</time>
      </trkpt>
      <trkpt lat="44.18618" lon="3.8327">
        <ele>268.35</ele>
        <time>2022-08-09T08:53:19Z</time>
      </trkpt>
      <trkpt lat="44.18617" lon="3.83271">
        <ele>268.35</ele>
        <time>2022-08-09T08:53:20Z</time>
      </trkpt>
      <trkpt lat="44.18617" lon="3.83274">
        <ele>268.35</ele>
        <time>2022-08-09T08:53:22Z</time>
      </trkpt>
      <trkpt lat="44.18616" lon="3.83276">
        <ele>268.35</ele>
        <time>2022-08-09T08:53:23Z</time>
      </trkpt>
      <trkpt lat="44.18607" lon="3.83292">
        <ele>268.35</ele>
        <time>2022-08-09T08:53:35Z</time>
      </trkpt>
      <trkpt lat="44.18598" lon="3.83314">
        <ele>269.79</ele>
        <time>2022-08-09T08:53:50Z</time>
      </trkpt>
      <trkpt lat="44.18589" lon="3.83339">
        <ele>269.31</ele>
        <time>2022-08-09T08:54:07Z</time>
      </trkpt>
      <trkpt lat="44.18581" lon="3.83357">
        <ele>269.79</ele>
        <time>2022-08-09T08:54:21Z</time>
      </trkpt>
      <trkpt lat="44.18567" lon="3.83374">
        <ele>270.75</ele>
        <time>2022-08-09T08:54:35Z</time>
      </trkpt>
      <trkpt lat="44.18555" lon="3.83394">
        <ele>271.23</ele>
        <time>2022-08-09T08:54:51Z</time>
      </trkpt>
      <trkpt lat="44.18542" lon="3.83414">
        <ele>271.71</ele>
        <time>2022-08-09T08:55:08Z</time>
      </trkpt>
      <trkpt lat="44.18532" lon="3.83426">
        <ele>271.71</ele>
        <time>2022-08-09T08:55:19Z</time>
      </trkpt>
      <trkpt lat="44.18515" lon="3.83443">
        <ele>271.71</ele>
        <time>2022-08-09T08:55:35Z</time>
      </trkpt>
      <trkpt lat="44.18503" lon="3.83461">
        <ele>268.83</ele>
        <time>2022-08-09T08:55:50Z</time>
      </trkpt>
      <trkpt lat="44.18489" lon="3.83475">
        <ele>267.86</ele>
        <time>2022-08-09T08:56:04Z</time>
      </trkpt>
      <trkpt lat="44.18473" lon="3.83482">
        <ele>264.98</ele>
        <time>2022-08-09T08:56:20Z</time>
      </trkpt>
      <trkpt lat="44.18456" lon="3.83484">
        <ele>266.42</ele>
        <time>2022-08-09T08:56:33Z</time>
      </trkpt>
      <trkpt lat="44.18454" lon="3.83485">
        <ele>266.9</ele>
        <time>2022-08-09T08:56:34Z</time>
      </trkpt>
      <trkpt lat="44.18435" lon="3.83492">
        <ele>269.79</ele>
        <time>2022-08-09T08:56:50Z</time>
      </trkpt>
      <trkpt lat="44.18432" lon="3.83495">
        <ele>270.75</ele>
        <time>2022-08-09T08:56:53Z</time>
      </trkpt>
      <trkpt lat="44.18417" lon="3.83503">
        <ele>272.19</ele>
        <time>2022-08-09T08:57:07Z</time>
      </trkpt>
      <trkpt lat="44.18415" lon="3.83503">
        <ele>272.19</ele>
        <time>2022-08-09T08:57:08Z</time>
      </trkpt>
      <trkpt lat="44.18414" lon="3.83504">
        <ele>272.19</ele>
        <time>2022-08-09T08:57:09Z</time>
      </trkpt>
      <trkpt lat="44.18413" lon="3.83505">
        <ele>272.67</ele>
        <time>2022-08-09T08:57:10Z</time>
      </trkpt>
      <trkpt lat="44.18397" lon="3.83512">
        <ele>271.71</ele>
        <time>2022-08-09T08:57:24Z</time>
      </trkpt>
      <trkpt lat="44.18381" lon="3.83516">
        <ele>266.9</ele>
        <time>2022-08-09T08:57:40Z</time>
      </trkpt>
      <trkpt lat="44.18365" lon="3.83514">
        <ele>261.62</ele>
        <time>2022-08-09T08:57:54Z</time>
      </trkpt>
      <trkpt lat="44.18348" lon="3.83511">
        <ele>257.29</ele>
        <time>2022-08-09T08:58:09Z</time>
      </trkpt>
      <trkpt lat="44.18331" lon="3.83513">
        <ele>260.17</ele>
        <time>2022-08-09T08:58:22Z</time>
      </trkpt>
      <trkpt lat="44.18313" lon="3.83517">
        <ele>264.98</ele>
        <time>2022-08-09T08:58:36Z</time>
      </trkpt>
      <trkpt lat="44.18305" lon="3.83519">
        <ele>267.38</ele>
        <time>2022-08-09T08:58:42Z</time>
      </trkpt>
      <trkpt lat="44.18304" lon="3.8352">
        <ele>267.38</ele>
        <time>2022-08-09T08:58:43Z</time>
      </trkpt>
      <trkpt lat="44.18303" lon="3.8352">
        <ele>267.86</ele>
        <time>2022-08-09T08:58:44Z</time>
      </trkpt>
      <trkpt lat="44.18285" lon="3.83519">
        <ele>267.86</ele>
        <time>2022-08-09T08:59:00Z</time>
      </trkpt>
      <trkpt lat="44.18269" lon="3.8352">
        <ele>267.86</ele>
        <time>2022-08-09T08:59:15Z</time>
      </trkpt>
      <trkpt lat="44.18248" lon="3.83521">
        <ele>269.79</ele>
        <time>2022-08-09T08:59:32Z</time>
      </trkpt>
      <trkpt lat="44.1823" lon="3.83519">
        <ele>269.31</ele>
        <time>2022-08-09T08:59:47Z</time>
      </trkpt>
      <trkpt lat="44.18211" lon="3.83518">
        <ele>271.23</ele>
        <time>2022-08-09T09:00:03Z</time>
      </trkpt>
      <trkpt lat="44.18196" lon="3.83517">
        <ele>272.19</ele>
        <time>2022-08-09T09:00:15Z</time>
      </trkpt>
      <trkpt lat="44.18195" lon="3.83517">
        <ele>272.19</ele>
        <time>2022-08-09T09:00:16Z</time>
      </trkpt>
      <trkpt lat="44.1818" lon="3.83518">
        <ele>272.19</ele>
        <time>2022-08-09T09:00:30Z</time>
      </trkpt>
      <trkpt lat="44.18179" lon="3.83518">
        <ele>272.19</ele>
        <time>2022-08-09T09:00:31Z</time>
      </trkpt>
      <trkpt lat="44.18178" lon="3.83519">
        <ele>272.19</ele>
        <time>2022-08-09T09:00:32Z</time>
      </trkpt>
      <trkpt lat="44.18177" lon="3.83519">
        <ele>272.19</ele>
        <time>2022-08-09T09:00:33Z</time>
      </trkpt>
      <trkpt lat="44.18157" lon="3.83523">
        <ele>272.67</ele>
        <time>2022-08-09T09:00:50Z</time>
      </trkpt>
      <trkpt lat="44.18134" lon="3.83522">
        <ele>276.04</ele>
        <time>2022-08-09T09:01:08Z</time>
      </trkpt>
      <trkpt lat="44.18117" lon="3.83518">
        <ele>276.52</ele>
        <time>2022-08-09T09:01:23Z</time>
      </trkpt>
      <trkpt lat="44.18107" lon="3.83522">
        <ele>276.52</ele>
        <time>2022-08-09T09:01:31Z</time>
      </trkpt>
      <trkpt lat="44.18103" lon="3.83541">
        <ele>275.56</ele>
        <time>2022-08-09T09:01:43Z</time>
      </trkpt>
      <trkpt lat="44.18103" lon="3.83543">
        <ele>275.07</ele>
        <time>2022-08-09T09:01:44Z</time>
      </trkpt>
      <trkpt lat="44.18103" lon="3.83548">
        <ele>275.07</ele>
        <time>2022-08-09T09:01:47Z</time>
      </trkpt>
      <trkpt lat="44.18103" lon="3.83575">
        <ele>273.63</ele>
        <time>2022-08-09T09:02:02Z</time>
      </trkpt>
      <trkpt lat="44.18097" lon="3.83596">
        <ele>273.63</ele>
        <time>2022-08-09T09:02:15Z</time>
      </trkpt>
      <trkpt lat="44.1809" lon="3.83616">
        <ele>271.23</ele>
        <time>2022-08-09T09:02:28Z</time>
      </trkpt>
      <trkpt lat="44.18084" lon="3.83636">
        <ele>268.83</ele>
        <time>2022-08-09T09:02:42Z</time>
      </trkpt>
      <trkpt lat="44.18065" lon="3.83652">
        <ele>268.83</ele>
        <time>2022-08-09T09:02:59Z</time>
      </trkpt>
      <trkpt lat="44.18046" lon="3.83654">
        <ele>266.9</ele>
        <time>2022-08-09T09:03:15Z</time>
      </trkpt>
      <trkpt lat="44.18026" lon="3.8365">
        <ele>265.94</ele>
        <time>2022-08-09T09:03:31Z</time>
      </trkpt>
      <trkpt lat="44.18006" lon="3.83646">
        <ele>267.38</ele>
        <time>2022-08-09T09:03:48Z</time>
      </trkpt>
      <trkpt lat="44.17987" lon="3.83646">
        <ele>267.86</ele>
        <time>2022-08-09T09:04:02Z</time>
      </trkpt>
      <trkpt lat="44.17969" lon="3.83646">
        <ele>266.42</ele>
        <time>2022-08-09T09:04:17Z</time>
      </trkpt>
      <trkpt lat="44.1795" lon="3.83651">
        <ele>267.38</ele>
        <time>2022-08-09T09:04:33Z</time>
      </trkpt>
      <trkpt lat="44.17936" lon="3.8366">
        <ele>269.31</ele>
        <time>2022-08-09T09:04:46Z</time>
      </trkpt>
      <trkpt lat="44.17921" lon="3.83675">
        <ele>271.23</ele>
        <time>2022-08-09T09:05:00Z</time>
      </trkpt>
      <trkpt lat="44.17921" lon="3.83677">
        <ele>271.23</ele>
        <time>2022-08-09T09:05:01Z</time>
      </trkpt>
      <trkpt lat="44.1792" lon="3.83678">
        <ele>271.71</ele>
        <time>2022-08-09T09:05:02Z</time>
      </trkpt>
      <trkpt lat="44.17919" lon="3.83679">
        <ele>271.71</ele>
        <time>2022-08-09T09:05:03Z</time>
      </trkpt>
      <trkpt lat="44.17916" lon="3.83683">
        <ele>272.19</ele>
        <time>2022-08-09T09:05:06Z</time>
      </trkpt>
      <trkpt lat="44.17916" lon="3.83684">
        <ele>272.19</ele>
        <time>2022-08-09T09:05:07Z</time>
      </trkpt>
      <trkpt lat="44.17903" lon="3.83701">
        <ele>273.15</ele>
        <time>2022-08-09T09:05:21Z</time>
      </trkpt>
      <trkpt lat="44.17887" lon="3.83717">
        <ele>272.67</ele>
        <time>2022-08-09T09:05:36Z</time>
      </trkpt>
      <trkpt lat="44.17884" lon="3.83718">
        <ele>272.19</ele>
        <time>2022-08-09T09:05:38Z</time>
      </trkpt>
      <trkpt lat="44.1787" lon="3.83734">
        <ele>267.38</ele>
        <time>2022-08-09T09:05:54Z</time>
      </trkpt>
      <trkpt lat="44.17868" lon="3.83738">
        <ele>266.42</ele>
        <time>2022-08-09T09:05:58Z</time>
      </trkpt>
      <trkpt lat="44.17863" lon="3.83748">
        <ele>266.42</ele>
        <time>2022-08-09T09:06:04Z</time>
      </trkpt>
      <trkpt lat="44.17862" lon="3.8375">
        <ele>265.94</ele>
        <time>2022-08-09T09:06:05Z</time>
      </trkpt>
      <trkpt lat="44.17854" lon="3.83775">
        <ele>266.42</ele>
        <time>2022-08-09T09:06:21Z</time>
      </trkpt>
      <trkpt lat="44.17851" lon="3.83782">
        <ele>266.42</ele>
        <time>2022-08-09T09:06:26Z</time>
      </trkpt>
      <trkpt lat="44.17834" lon="3.83794">
        <ele>267.38</ele>
        <time>2022-08-09T09:06:42Z</time>
      </trkpt>
      <trkpt lat="44.17816" lon="3.83801">
        <ele>267.38</ele>
        <time>2022-08-09T09:06:59Z</time>
      </trkpt>
      <trkpt lat="44.17803" lon="3.83804">
        <ele>267.38</ele>
        <time>2022-08-09T09:07:13Z</time>
      </trkpt>
      <trkpt lat="44.17787" lon="3.83809">
        <ele>267.38</ele>
        <time>2022-08-09T09:07:28Z</time>
      </trkpt>
      <trkpt lat="44.17775" lon="3.8381">
        <ele>267.86</ele>
        <time>2022-08-09T09:07:41Z</time>
      </trkpt>
      <trkpt lat="44.1776" lon="3.83816">
        <ele>267.86</ele>
        <time>2022-08-09T09:07:59Z</time>
      </trkpt>
      <trkpt lat="44.17747" lon="3.83827">
        <ele>268.83</ele>
        <time>2022-08-09T09:08:15Z</time>
      </trkpt>
      <trkpt lat="44.17733" lon="3.83836">
        <ele>268.83</ele>
        <time>2022-08-09T09:08:30Z</time>
      </trkpt>
      <trkpt lat="44.17721" lon="3.83842">
        <ele>270.75</ele>
        <time>2022-08-09T09:08:45Z</time>
      </trkpt>
      <trkpt lat="44.1771" lon="3.83848">
        <ele>274.59</ele>
        <time>2022-08-09T09:09:01Z</time>
      </trkpt>
      <trkpt lat="44.17698" lon="3.83852">
        <ele>278.92</ele>
        <time>2022-08-09T09:09:17Z</time>
      </trkpt>
      <trkpt lat="44.17693" lon="3.83858">
        <ele>279.4</ele>
        <time>2022-08-09T09:09:36Z</time>
      </trkpt>
      <trkpt lat="44.17702" lon="3.83854">
        <ele>280.36</ele>
        <time>2022-08-09T09:09:59Z</time>
      </trkpt>
      <trkpt lat="44.177" lon="3.83852">
        <ele>279.88</ele>
        <time>2022-08-09T09:10:20Z</time>
      </trkpt>
      <trkpt lat="44.17698" lon="3.83854">
        <ele>279.88</ele>
        <time>2022-08-09T09:10:35Z</time>
      </trkpt>
      <trkpt lat="44.17686" lon="3.83859">
        <ele>277.48</ele>
        <time>2022-08-09T09:10:50Z</time>
      </trkpt>
      <trkpt lat="44.17684" lon="3.83861">
        <ele>277.96</ele>
        <time>2022-08-09T09:10:52Z</time>
      </trkpt>
      <trkpt lat="44.17683" lon="3.83862">
        <ele>278.44</ele>
        <time>2022-08-09T09:10:53Z</time>
      </trkpt>
      <trkpt lat="44.17668" lon="3.83875">
        <ele>279.88</ele>
        <time>2022-08-09T09:11:08Z</time>
      </trkpt>
      <trkpt lat="44.17655" lon="3.83889">
        <ele>279.4</ele>
        <time>2022-08-09T09:11:22Z</time>
      </trkpt>
      <trkpt lat="44.17651" lon="3.83895">
        <ele>279.4</ele>
        <time>2022-08-09T09:11:29Z</time>
      </trkpt>
      <trkpt lat="44.17642" lon="3.83907">
        <ele>280.84</ele>
        <time>2022-08-09T09:11:43Z</time>
      </trkpt>
      <trkpt lat="44.17633" lon="3.83928">
        <ele>283.73</ele>
        <time>2022-08-09T09:11:59Z</time>
      </trkpt>
      <trkpt lat="44.17632" lon="3.83932">
        <ele>284.21</ele>
        <time>2022-08-09T09:12:02Z</time>
      </trkpt>
      <trkpt lat="44.17629" lon="3.8395">
        <ele>283.25</ele>
        <time>2022-08-09T09:12:15Z</time>
      </trkpt>
      <trkpt lat="44.17622" lon="3.83969">
        <ele>280.84</ele>
        <time>2022-08-09T09:12:29Z</time>
      </trkpt>
      <trkpt lat="44.17616" lon="3.83987">
        <ele>277.96</ele>
        <time>2022-08-09T09:12:44Z</time>
      </trkpt>
      <trkpt lat="44.17608" lon="3.84004">
        <ele>277.96</ele>
        <time>2022-08-09T09:12:58Z</time>
      </trkpt>
      <trkpt lat="44.17599" lon="3.84017">
        <ele>277.96</ele>
        <time>2022-08-09T09:13:12Z</time>
      </trkpt>
      <trkpt lat="44.17595" lon="3.84034">
        <ele>279.4</ele>
        <time>2022-08-09T09:13:27Z</time>
      </trkpt>
      <trkpt lat="44.17594" lon="3.84048">
        <ele>281.8</ele>
        <time>2022-08-09T09:13:36Z</time>
      </trkpt>
      <trkpt lat="44.17593" lon="3.84066">
        <ele>284.21</ele>
        <time>2022-08-09T09:13:51Z</time>
      </trkpt>
      <trkpt lat="44.17587" lon="3.84082">
        <ele>287.57</ele>
        <time>2022-08-09T09:14:05Z</time>
      </trkpt>
      <trkpt lat="44.17578" lon="3.84097">
        <ele>289.97</ele>
        <time>2022-08-09T09:14:18Z</time>
      </trkpt>
      <trkpt lat="44.17577" lon="3.84099">
        <ele>290.46</ele>
        <time>2022-08-09T09:14:20Z</time>
      </trkpt>
      <trkpt lat="44.17573" lon="3.84117">
        <ele>291.9</ele>
        <time>2022-08-09T09:14:32Z</time>
      </trkpt>
      <trkpt lat="44.17571" lon="3.84137">
        <ele>291.42</ele>
        <time>2022-08-09T09:14:47Z</time>
      </trkpt>
      <trkpt lat="44.17571" lon="3.84138">
        <ele>291.42</ele>
        <time>2022-08-09T09:14:48Z</time>
      </trkpt>
      <trkpt lat="44.17567" lon="3.84155">
        <ele>292.86</ele>
        <time>2022-08-09T09:15:02Z</time>
      </trkpt>
      <trkpt lat="44.17563" lon="3.84171">
        <ele>294.3</ele>
        <time>2022-08-09T09:15:15Z</time>
      </trkpt>
      <trkpt lat="44.17558" lon="3.84187">
        <ele>296.22</ele>
        <time>2022-08-09T09:15:28Z</time>
      </trkpt>
      <trkpt lat="44.17553" lon="3.84205">
        <ele>298.15</ele>
        <time>2022-08-09T09:15:45Z</time>
      </trkpt>
      <trkpt lat="44.17548" lon="3.84221">
        <ele>297.67</ele>
        <time>2022-08-09T09:16:00Z</time>
      </trkpt>
      <trkpt lat="44.17536" lon="3.84232">
        <ele>297.67</ele>
        <time>2022-08-09T09:16:13Z</time>
      </trkpt>
      <trkpt lat="44.17534" lon="3.84235">
        <ele>298.63</ele>
        <time>2022-08-09T09:16:16Z</time>
      </trkpt>
      <trkpt lat="44.17526" lon="3.84245">
        <ele>303.43</ele>
        <time>2022-08-09T09:16:27Z</time>
      </trkpt>
      <trkpt lat="44.17514" lon="3.84261">
        <ele>304.88</ele>
        <time>2022-08-09T09:16:42Z</time>
      </trkpt>
      <trkpt lat="44.17509" lon="3.84266">
        <ele>304.88</ele>
        <time>2022-08-09T09:16:49Z</time>
      </trkpt>
      <trkpt lat="44.17507" lon="3.84267">
        <ele>304.39</ele>
        <time>2022-08-09T09:16:51Z</time>
      </trkpt>
      <trkpt lat="44.17492" lon="3.84271">
        <ele>301.51</ele>
        <time>2022-08-09T09:17:06Z</time>
      </trkpt>
      <trkpt lat="44.17478" lon="3.8427">
        <ele>298.15</ele>
        <time>2022-08-09T09:17:21Z</time>
      </trkpt>
      <trkpt lat="44.17457" lon="3.84268">
        <ele>299.59</ele>
        <time>2022-08-09T09:17:35Z</time>
      </trkpt>
      <trkpt lat="44.17442" lon="3.84266">
        <ele>299.11</ele>
        <time>2022-08-09T09:17:49Z</time>
      </trkpt>
      <trkpt lat="44.17423" lon="3.84259">
        <ele>298.63</ele>
        <time>2022-08-09T09:18:06Z</time>
      </trkpt>
      <trkpt lat="44.1741" lon="3.84248">
        <ele>296.22</ele>
        <time>2022-08-09T09:18:20Z</time>
      </trkpt>
      <trkpt lat="44.17396" lon="3.84238">
        <ele>292.86</ele>
        <time>2022-08-09T09:18:36Z</time>
      </trkpt>
      <trkpt lat="44.1738" lon="3.84234">
        <ele>290.94</ele>
        <time>2022-08-09T09:18:51Z</time>
      </trkpt>
      <trkpt lat="44.17361" lon="3.84225">
        <ele>288.53</ele>
        <time>2022-08-09T09:19:08Z</time>
      </trkpt>
      <trkpt lat="44.17347" lon="3.84218">
        <ele>284.21</ele>
        <time>2022-08-09T09:19:24Z</time>
      </trkpt>
      <trkpt lat="44.1734" lon="3.84218">
        <ele>282.28</ele>
        <time>2022-08-09T09:19:31Z</time>
      </trkpt>
      <trkpt lat="44.17321" lon="3.84217">
        <ele>279.4</ele>
        <time>2022-08-09T09:19:47Z</time>
      </trkpt>
      <trkpt lat="44.1731" lon="3.84218">
        <ele>279.4</ele>
        <time>2022-08-09T09:19:57Z</time>
      </trkpt>
      <trkpt lat="44.17295" lon="3.8422">
        <ele>277.48</ele>
        <time>2022-08-09T09:20:11Z</time>
      </trkpt>
      <trkpt lat="44.17282" lon="3.84219">
        <ele>275.56</ele>
        <time>2022-08-09T09:20:25Z</time>
      </trkpt>
      <trkpt lat="44.17271" lon="3.84211">
        <ele>271.71</ele>
        <time>2022-08-09T09:20:39Z</time>
      </trkpt>
      <trkpt lat="44.17258" lon="3.84194">
        <ele>273.15</ele>
        <time>2022-08-09T09:20:54Z</time>
      </trkpt>
      <trkpt lat="44.17245" lon="3.84178">
        <ele>274.11</ele>
        <time>2022-08-09T09:21:09Z</time>
      </trkpt>
      <trkpt lat="44.17234" lon="3.84161">
        <ele>271.71</ele>
        <time>2022-08-09T09:21:25Z</time>
      </trkpt>
      <trkpt lat="44.17218" lon="3.84144">
        <ele>269.31</ele>
        <time>2022-08-09T09:21:41Z</time>
      </trkpt>
      <trkpt lat="44.17201" lon="3.84133">
        <ele>269.79</ele>
        <time>2022-08-09T09:21:56Z</time>
      </trkpt>
      <trkpt lat="44.17198" lon="3.84122">
        <ele>267.86</ele>
        <time>2022-08-09T09:22:04Z</time>
      </trkpt>
      <trkpt lat="44.17201" lon="3.84116">
        <ele>266.9</ele>
        <time>2022-08-09T09:22:09Z</time>
      </trkpt>
      <trkpt lat="44.17202" lon="3.84115">
        <ele>266.9</ele>
        <time>2022-08-09T09:22:10Z</time>
      </trkpt>
      <trkpt lat="44.17211" lon="3.84106">
        <ele>264.98</ele>
        <time>2022-08-09T09:22:22Z</time>
      </trkpt>
      <trkpt lat="44.17224" lon="3.84095">
        <ele>264.02</ele>
        <time>2022-08-09T09:22:37Z</time>
      </trkpt>
      <trkpt lat="44.1723" lon="3.84078">
        <ele>264.02</ele>
        <time>2022-08-09T09:22:51Z</time>
      </trkpt>
      <trkpt lat="44.17229" lon="3.84076">
        <ele>263.54</ele>
        <time>2022-08-09T09:22:53Z</time>
      </trkpt>
      <trkpt lat="44.17218" lon="3.84056">
        <ele>258.73</ele>
        <time>2022-08-09T09:23:10Z</time>
      </trkpt>
      <trkpt lat="44.17206" lon="3.84041">
        <ele>254.41</ele>
        <time>2022-08-09T09:23:25Z</time>
      </trkpt>
      <trkpt lat="44.17195" lon="3.84029">
        <ele>250.08</ele>
        <time>2022-08-09T09:23:40Z</time>
      </trkpt>
      <trkpt lat="44.17183" lon="3.84012">
        <ele>247.68</ele>
        <time>2022-08-09T09:23:55Z</time>
      </trkpt>
      <trkpt lat="44.17169" lon="3.83996">
        <ele>244.79</ele>
        <time>2022-08-09T09:24:12Z</time>
      </trkpt>
      <trkpt lat="44.17159" lon="3.83973">
        <ele>245.75</ele>
        <time>2022-08-09T09:24:27Z</time>
      </trkpt>
      <trkpt lat="44.17148" lon="3.83954">
        <ele>246.72</ele>
        <time>2022-08-09T09:24:42Z</time>
      </trkpt>
      <trkpt lat="44.17139" lon="3.83939">
        <ele>248.16</ele>
        <time>2022-08-09T09:24:55Z</time>
      </trkpt>
      <trkpt lat="44.17134" lon="3.83921">
        <ele>247.68</ele>
        <time>2022-08-09T09:25:07Z</time>
      </trkpt>
      <trkpt lat="44.17122" lon="3.83907">
        <ele>244.31</ele>
        <time>2022-08-09T09:25:20Z</time>
      </trkpt>
      <trkpt lat="44.17104" lon="3.83901">
        <ele>243.35</ele>
        <time>2022-08-09T09:25:35Z</time>
      </trkpt>
      <trkpt lat="44.17085" lon="3.83894">
        <ele>244.79</ele>
        <time>2022-08-09T09:25:50Z</time>
      </trkpt>
      <trkpt lat="44.17068" lon="3.8389">
        <ele>245.75</ele>
        <time>2022-08-09T09:26:05Z</time>
      </trkpt>
      <trkpt lat="44.17052" lon="3.83886">
        <ele>247.68</ele>
        <time>2022-08-09T09:26:19Z</time>
      </trkpt>
      <trkpt lat="44.17036" lon="3.83887">
        <ele>249.12</ele>
        <time>2022-08-09T09:26:32Z</time>
      </trkpt>
      <trkpt lat="44.17016" lon="3.83895">
        <ele>247.68</ele>
        <time>2022-08-09T09:26:47Z</time>
      </trkpt>
      <trkpt lat="44.17011" lon="3.83902">
        <ele>249.12</ele>
        <time>2022-08-09T09:27:01Z</time>
      </trkpt>
      <trkpt lat="44.17" lon="3.83906">
        <ele>248.64</ele>
        <time>2022-08-09T09:27:20Z</time>
      </trkpt>
      <trkpt lat="44.16993" lon="3.83913">
        <ele>248.64</ele>
        <time>2022-08-09T09:27:29Z</time>
      </trkpt>
      <trkpt lat="44.16992" lon="3.83912">
        <ele>248.16</ele>
        <time>2022-08-09T09:27:30Z</time>
      </trkpt>
      <trkpt lat="44.1699" lon="3.83914">
        <ele>247.68</ele>
        <time>2022-08-09T09:27:32Z</time>
      </trkpt>
      <trkpt lat="44.1698" lon="3.83927">
        <ele>249.12</ele>
        <time>2022-08-09T09:27:42Z</time>
      </trkpt>
      <trkpt lat="44.16979" lon="3.83929">
        <ele>249.12</ele>
        <time>2022-08-09T09:27:43Z</time>
      </trkpt>
      <trkpt lat="44.16978" lon="3.8393">
        <ele>249.12</ele>
        <time>2022-08-09T09:27:44Z</time>
      </trkpt>
      <trkpt lat="44.16977" lon="3.83931">
        <ele>249.6</ele>
        <time>2022-08-09T09:27:45Z</time>
      </trkpt>
      <trkpt lat="44.16976" lon="3.83932">
        <ele>249.6</ele>
        <time>2022-08-09T09:27:46Z</time>
      </trkpt>
      <trkpt lat="44.16975" lon="3.83933">
        <ele>249.6</ele>
        <time>2022-08-09T09:27:47Z</time>
      </trkpt>
      <trkpt lat="44.16972" lon="3.83934">
        <ele>249.6</ele>
        <time>2022-08-09T09:27:50Z</time>
      </trkpt>
      <trkpt lat="44.16971" lon="3.83935">
        <ele>249.6</ele>
        <time>2022-08-09T09:27:51Z</time>
      </trkpt>
      <trkpt lat="44.16958" lon="3.83946">
        <ele>252</ele>
        <time>2022-08-09T09:28:04Z</time>
      </trkpt>
      <trkpt lat="44.16955" lon="3.83949">
        <ele>252.48</ele>
        <time>2022-08-09T09:28:08Z</time>
      </trkpt>
      <trkpt lat="44.16952" lon="3.83952">
        <ele>252.96</ele>
        <time>2022-08-09T09:28:11Z</time>
      </trkpt>
      <trkpt lat="44.16934" lon="3.83963">
        <ele>250.56</ele>
        <time>2022-08-09T09:28:27Z</time>
      </trkpt>
      <trkpt lat="44.16924" lon="3.83973">
        <ele>250.08</ele>
        <time>2022-08-09T09:28:38Z</time>
      </trkpt>
      <trkpt lat="44.16912" lon="3.8399">
        <ele>250.08</ele>
        <time>2022-08-09T09:28:52Z</time>
      </trkpt>
      <trkpt lat="44.16902" lon="3.84008">
        <ele>252</ele>
        <time>2022-08-09T09:29:06Z</time>
      </trkpt>
      <trkpt lat="44.16893" lon="3.84027">
        <ele>251.52</ele>
        <time>2022-08-09T09:29:21Z</time>
      </trkpt>
      <trkpt lat="44.16892" lon="3.84032">
        <ele>251.52</ele>
        <time>2022-08-09T09:29:24Z</time>
      </trkpt>
      <trkpt lat="44.16891" lon="3.84033">
        <ele>251.52</ele>
        <time>2022-08-09T09:29:25Z</time>
      </trkpt>
      <trkpt lat="44.1688" lon="3.84053">
        <ele>253.44</ele>
        <time>2022-08-09T09:29:40Z</time>
      </trkpt>
      <trkpt lat="44.16869" lon="3.8407">
        <ele>254.41</ele>
        <time>2022-08-09T09:29:54Z</time>
      </trkpt>
      <trkpt lat="44.16858" lon="3.84088">
        <ele>253.44</ele>
        <time>2022-08-09T09:30:10Z</time>
      </trkpt>
      <trkpt lat="44.16842" lon="3.84099">
        <ele>252.96</ele>
        <time>2022-08-09T09:30:25Z</time>
      </trkpt>
      <trkpt lat="44.16834" lon="3.84115">
        <ele>253.44</ele>
        <time>2022-08-09T09:30:40Z</time>
      </trkpt>
      <trkpt lat="44.16821" lon="3.84122">
        <ele>255.85</ele>
        <time>2022-08-09T09:30:53Z</time>
      </trkpt>
      <trkpt lat="44.16817" lon="3.84138">
        <ele>257.77</ele>
        <time>2022-08-09T09:31:03Z</time>
      </trkpt>
      <trkpt lat="44.16808" lon="3.84153">
        <ele>259.21</ele>
        <time>2022-08-09T09:31:17Z</time>
      </trkpt>
      <trkpt lat="44.16797" lon="3.84167">
        <ele>260.17</ele>
        <time>2022-08-09T09:31:31Z</time>
      </trkpt>
      <trkpt lat="44.16792" lon="3.8418">
        <ele>263.06</ele>
        <time>2022-08-09T09:31:42Z</time>
      </trkpt>
      <trkpt lat="44.16791" lon="3.84185">
        <ele>264.02</ele>
        <time>2022-08-09T09:31:45Z</time>
      </trkpt>
      <trkpt lat="44.16791" lon="3.84186">
        <ele>264.5</ele>
        <time>2022-08-09T09:31:46Z</time>
      </trkpt>
      <trkpt lat="44.1679" lon="3.84187">
        <ele>264.5</ele>
        <time>2022-08-09T09:31:47Z</time>
      </trkpt>
      <trkpt lat="44.16789" lon="3.84189">
        <ele>264.5</ele>
        <time>2022-08-09T09:31:48Z</time>
      </trkpt>
      <trkpt lat="44.16781" lon="3.84199">
        <ele>267.38</ele>
        <time>2022-08-09T09:32:02Z</time>
      </trkpt>
      <trkpt lat="44.1678" lon="3.84196">
        <ele>267.38</ele>
        <time>2022-08-09T09:32:15Z</time>
      </trkpt>
      <trkpt lat="44.16781" lon="3.84185">
        <ele>264.5</ele>
        <time>2022-08-09T09:32:29Z</time>
      </trkpt>
      <trkpt lat="44.16783" lon="3.84168">
        <ele>263.54</ele>
        <time>2022-08-09T09:32:43Z</time>
      </trkpt>
      <trkpt lat="44.16784" lon="3.84153">
        <ele>263.54</ele>
        <time>2022-08-09T09:32:55Z</time>
      </trkpt>
      <trkpt lat="44.16781" lon="3.84142">
        <ele>263.06</ele>
        <time>2022-08-09T09:33:08Z</time>
      </trkpt>
      <trkpt lat="44.1678" lon="3.8414">
        <ele>263.06</ele>
        <time>2022-08-09T09:33:09Z</time>
      </trkpt>
      <trkpt lat="44.16779" lon="3.84139">
        <ele>262.58</ele>
        <time>2022-08-09T09:33:10Z</time>
      </trkpt>
      <trkpt lat="44.16778" lon="3.84138">
        <ele>262.58</ele>
        <time>2022-08-09T09:33:11Z</time>
      </trkpt>
      <trkpt lat="44.1678" lon="3.84136">
        <ele>260.65</ele>
        <time>2022-08-09T09:33:25Z</time>
      </trkpt>
      <trkpt lat="44.16777" lon="3.84132">
        <ele>259.69</ele>
        <time>2022-08-09T09:33:37Z</time>
      </trkpt>
      <trkpt lat="44.16779" lon="3.84134">
        <ele>262.58</ele>
        <time>2022-08-09T09:33:52Z</time>
      </trkpt>
      <trkpt lat="44.1678" lon="3.84148">
        <ele>265.46</ele>
        <time>2022-08-09T09:34:03Z</time>
      </trkpt>
      <trkpt lat="44.16782" lon="3.84175">
        <ele>266.42</ele>
        <time>2022-08-09T09:34:19Z</time>
      </trkpt>
      <trkpt lat="44.16783" lon="3.84182">
        <ele>265.94</ele>
        <time>2022-08-09T09:34:25Z</time>
      </trkpt>
      <trkpt lat="44.16782" lon="3.84183">
        <ele>265.46</ele>
        <time>2022-08-09T09:34:26Z</time>
      </trkpt>
      <trkpt lat="44.16785" lon="3.84195">
        <ele>263.06</ele>
        <time>2022-08-09T09:34:37Z</time>
      </trkpt>
      <trkpt lat="44.16786" lon="3.84196">
        <ele>262.58</ele>
        <time>2022-08-09T09:34:39Z</time>
      </trkpt>
      <trkpt lat="44.16786" lon="3.84206">
        <ele>260.65</ele>
        <time>2022-08-09T09:34:47Z</time>
      </trkpt>
      <trkpt lat="44.16777" lon="3.84214">
        <ele>263.54</ele>
        <time>2022-08-09T09:34:58Z</time>
      </trkpt>
      <trkpt lat="44.16774" lon="3.84216">
        <ele>264.98</ele>
        <time>2022-08-09T09:35:00Z</time>
      </trkpt>
      <trkpt lat="44.16772" lon="3.84219">
        <ele>266.42</ele>
        <time>2022-08-09T09:35:02Z</time>
      </trkpt>
      <trkpt lat="44.1677" lon="3.84224">
        <ele>267.86</ele>
        <time>2022-08-09T09:35:06Z</time>
      </trkpt>
      <trkpt lat="44.16769" lon="3.84225">
        <ele>267.86</ele>
        <time>2022-08-09T09:35:07Z</time>
      </trkpt>
      <trkpt lat="44.16766" lon="3.84224">
        <ele>267.38</ele>
        <time>2022-08-09T09:35:21Z</time>
      </trkpt>
      <trkpt lat="44.16764" lon="3.8422">
        <ele>268.83</ele>
        <time>2022-08-09T09:35:40Z</time>
      </trkpt>
      <trkpt lat="44.1675" lon="3.84221">
        <ele>269.31</ele>
        <time>2022-08-09T09:36:04Z</time>
      </trkpt>
      <trkpt lat="44.16745" lon="3.84228">
        <ele>266.9</ele>
        <time>2022-08-09T09:36:10Z</time>
      </trkpt>
      <trkpt lat="44.16743" lon="3.84229">
        <ele>266.42</ele>
        <time>2022-08-09T09:36:12Z</time>
      </trkpt>
      <trkpt lat="44.16741" lon="3.84228">
        <ele>266.42</ele>
        <time>2022-08-09T09:36:13Z</time>
      </trkpt>
      <trkpt lat="44.1674" lon="3.84228">
        <ele>266.42</ele>
        <time>2022-08-09T09:36:14Z</time>
      </trkpt>
      <trkpt lat="44.16739" lon="3.84229">
        <ele>265.94</ele>
        <time>2022-08-09T09:36:15Z</time>
      </trkpt>
      <trkpt lat="44.16738" lon="3.84229">
        <ele>265.94</ele>
        <time>2022-08-09T09:36:16Z</time>
      </trkpt>
      <trkpt lat="44.16737" lon="3.84229">
        <ele>265.94</ele>
        <time>2022-08-09T09:36:17Z</time>
      </trkpt>
      <trkpt lat="44.16736" lon="3.84229">
        <ele>265.94</ele>
        <time>2022-08-09T09:36:18Z</time>
      </trkpt>
      <trkpt lat="44.16735" lon="3.84228">
        <ele>265.94</ele>
        <time>2022-08-09T09:36:19Z</time>
      </trkpt>
      <trkpt lat="44.16725" lon="3.84228">
        <ele>265.94</ele>
        <time>2022-08-09T09:36:31Z</time>
      </trkpt>
      <trkpt lat="44.16712" lon="3.84228">
        <ele>264.02</ele>
        <time>2022-08-09T09:36:44Z</time>
      </trkpt>
      <trkpt lat="44.16698" lon="3.84228">
        <ele>257.77</ele>
        <time>2022-08-09T09:37:00Z</time>
      </trkpt>
      <trkpt lat="44.1668" lon="3.84228">
        <ele>258.25</ele>
        <time>2022-08-09T09:37:16Z</time>
      </trkpt>
      <trkpt lat="44.16663" lon="3.84228">
        <ele>257.29</ele>
        <time>2022-08-09T09:37:32Z</time>
      </trkpt>
      <trkpt lat="44.16646" lon="3.84233">
        <ele>256.81</ele>
        <time>2022-08-09T09:37:46Z</time>
      </trkpt>
      <trkpt lat="44.16641" lon="3.84236">
        <ele>254.89</ele>
        <time>2022-08-09T09:37:59Z</time>
      </trkpt>
      <trkpt lat="44.16638" lon="3.84235">
        <ele>254.41</ele>
        <time>2022-08-09T09:38:02Z</time>
      </trkpt>
      <trkpt lat="44.16637" lon="3.84235">
        <ele>254.41</ele>
        <time>2022-08-09T09:38:03Z</time>
      </trkpt>
      <trkpt lat="44.16629" lon="3.84238">
        <ele>252</ele>
        <time>2022-08-09T09:38:17Z</time>
      </trkpt>
      <trkpt lat="44.16629" lon="3.84233">
        <ele>254.89</ele>
        <time>2022-08-09T09:38:44Z</time>
      </trkpt>
      <trkpt lat="44.1663" lon="3.84228">
        <ele>262.1</ele>
        <time>2022-08-09T09:39:08Z</time>
      </trkpt>
      <trkpt lat="44.16632" lon="3.8423">
        <ele>268.35</ele>
        <time>2022-08-09T09:39:51Z</time>
      </trkpt>
      <trkpt lat="44.1662" lon="3.84226">
        <ele>275.07</ele>
        <time>2022-08-09T09:40:26Z</time>
      </trkpt>
      <trkpt lat="44.16612" lon="3.84221">
        <ele>283.25</ele>
        <time>2022-08-09T09:41:02Z</time>
      </trkpt>
      <trkpt lat="44.16605" lon="3.84223">
        <ele>289.49</ele>
        <time>2022-08-09T09:41:35Z</time>
      </trkpt>
      <trkpt lat="44.16619" lon="3.84228">
        <ele>280.84</ele>
        <time>2022-08-09T09:42:10Z</time>
      </trkpt>
      <trkpt lat="44.16624" lon="3.84228">
        <ele>279.4</ele>
        <time>2022-08-09T09:42:45Z</time>
      </trkpt>
      <trkpt lat="44.16617" lon="3.84225">
        <ele>280.36</ele>
        <time>2022-08-09T09:43:11Z</time>
      </trkpt>
      <trkpt lat="44.16629" lon="3.8423">
        <ele>277.96</ele>
        <time>2022-08-09T09:43:40Z</time>
      </trkpt>
      <trkpt lat="44.16624" lon="3.84228">
        <ele>287.09</ele>
        <time>2022-08-09T09:44:14Z</time>
      </trkpt>
      <trkpt lat="44.16621" lon="3.84225">
        <ele>289.01</ele>
        <time>2022-08-09T09:44:48Z</time>
      </trkpt>
      <trkpt lat="44.16624" lon="3.84228">
        <ele>289.97</ele>
        <time>2022-08-09T09:45:19Z</time>
      </trkpt>
      <trkpt lat="44.16631" lon="3.84228">
        <ele>287.09</ele>
        <time>2022-08-09T09:45:58Z</time>
      </trkpt>
      <trkpt lat="44.16635" lon="3.84231">
        <ele>285.17</ele>
        <time>2022-08-09T09:46:18Z</time>
      </trkpt>
      <trkpt lat="44.16636" lon="3.84238">
        <ele>276.04</ele>
        <time>2022-08-09T09:46:49Z</time>
      </trkpt>
      <trkpt lat="44.16644" lon="3.84228">
        <ele>280.36</ele>
        <time>2022-08-09T09:47:17Z</time>
      </trkpt>
      <trkpt lat="44.16649" lon="3.84231">
        <ele>286.13</ele>
        <time>2022-08-09T09:47:47Z</time>
      </trkpt>
      <trkpt lat="44.16657" lon="3.84231">
        <ele>285.17</ele>
        <time>2022-08-09T09:48:15Z</time>
      </trkpt>
      <trkpt lat="44.16636" lon="3.84231">
        <ele>280.84</ele>
        <time>2022-08-09T09:48:46Z</time>
      </trkpt>
      <trkpt lat="44.16638" lon="3.84229">
        <ele>274.59</ele>
        <time>2022-08-09T09:49:25Z</time>
      </trkpt>
      <trkpt lat="44.16644" lon="3.84226">
        <ele>271.71</ele>
        <time>2022-08-09T09:49:53Z</time>
      </trkpt>
      <trkpt lat="44.16634" lon="3.84224">
        <ele>267.38</ele>
        <time>2022-08-09T09:50:26Z</time>
      </trkpt>
      <trkpt lat="44.16638" lon="3.8423">
        <ele>268.83</ele>
        <time>2022-08-09T09:51:01Z</time>
      </trkpt>
      <trkpt lat="44.16639" lon="3.84232">
        <ele>268.35</ele>
        <time>2022-08-09T09:51:31Z</time>
      </trkpt>
      <trkpt lat="44.16637" lon="3.84234">
        <ele>270.27</ele>
        <time>2022-08-09T09:52:06Z</time>
      </trkpt>
      <trkpt lat="44.1664" lon="3.84234">
        <ele>274.11</ele>
        <time>2022-08-09T09:52:33Z</time>
      </trkpt>
      <trkpt lat="44.1663" lon="3.84225">
        <ele>279.88</ele>
        <time>2022-08-09T09:53:03Z</time>
      </trkpt>
      <trkpt lat="44.16633" lon="3.84224">
        <ele>282.28</ele>
        <time>2022-08-09T09:53:27Z</time>
      </trkpt>
      <trkpt lat="44.16632" lon="3.84229">
        <ele>276.04</ele>
        <time>2022-08-09T09:53:58Z</time>
      </trkpt>
      <trkpt lat="44.16633" lon="3.84222">
        <ele>275.07</ele>
        <time>2022-08-09T09:54:32Z</time>
      </trkpt>
      <trkpt lat="44.16634" lon="3.84222">
        <ele>271.23</ele>
        <time>2022-08-09T09:54:53Z</time>
      </trkpt>
      <trkpt lat="44.16632" lon="3.84223">
        <ele>268.83</ele>
        <time>2022-08-09T09:55:15Z</time>
      </trkpt>
      <trkpt lat="44.16625" lon="3.84223">
        <ele>265.46</ele>
        <time>2022-08-09T09:55:37Z</time>
      </trkpt>
      <trkpt lat="44.16619" lon="3.84218">
        <ele>264.5</ele>
        <time>2022-08-09T09:55:49Z</time>
      </trkpt>
      <trkpt lat="44.16606" lon="3.84222">
        <ele>262.1</ele>
        <time>2022-08-09T09:56:00Z</time>
      </trkpt>
      <trkpt lat="44.16594" lon="3.84221">
        <ele>261.62</ele>
        <time>2022-08-09T09:56:12Z</time>
      </trkpt>
      <trkpt lat="44.16593" lon="3.84221">
        <ele>261.62</ele>
        <time>2022-08-09T09:56:13Z</time>
      </trkpt>
      <trkpt lat="44.16592" lon="3.84221">
        <ele>261.14</ele>
        <time>2022-08-09T09:56:14Z</time>
      </trkpt>
      <trkpt lat="44.16574" lon="3.8422">
        <ele>259.69</ele>
        <time>2022-08-09T09:56:30Z</time>
      </trkpt>
      <trkpt lat="44.16561" lon="3.8422">
        <ele>258.73</ele>
        <time>2022-08-09T09:56:43Z</time>
      </trkpt>
      <trkpt lat="44.16546" lon="3.84219">
        <ele>258.25</ele>
        <time>2022-08-09T09:56:56Z</time>
      </trkpt>
      <trkpt lat="44.16529" lon="3.84218">
        <ele>257.29</ele>
        <time>2022-08-09T09:57:10Z</time>
      </trkpt>
      <trkpt lat="44.16517" lon="3.84217">
        <ele>255.85</ele>
        <time>2022-08-09T09:57:23Z</time>
      </trkpt>
      <trkpt lat="44.16507" lon="3.84218">
        <ele>254.41</ele>
        <time>2022-08-09T09:57:34Z</time>
      </trkpt>
      <trkpt lat="44.16497" lon="3.84217">
        <ele>253.93</ele>
        <time>2022-08-09T09:57:43Z</time>
      </trkpt>
      <trkpt lat="44.16479" lon="3.84215">
        <ele>252.96</ele>
        <time>2022-08-09T09:57:58Z</time>
      </trkpt>
      <trkpt lat="44.16461" lon="3.84209">
        <ele>251.04</ele>
        <time>2022-08-09T09:58:12Z</time>
      </trkpt>
      <trkpt lat="44.16449" lon="3.84209">
        <ele>250.08</ele>
        <time>2022-08-09T09:58:24Z</time>
      </trkpt>
      <trkpt lat="44.16448" lon="3.84208">
        <ele>250.08</ele>
        <time>2022-08-09T09:58:25Z</time>
      </trkpt>
      <trkpt lat="44.1643" lon="3.84207">
        <ele>249.6</ele>
        <time>2022-08-09T09:58:40Z</time>
      </trkpt>
      <trkpt lat="44.16414" lon="3.84205">
        <ele>246.72</ele>
        <time>2022-08-09T09:58:53Z</time>
      </trkpt>
      <trkpt lat="44.16398" lon="3.84203">
        <ele>245.27</ele>
        <time>2022-08-09T09:59:08Z</time>
      </trkpt>
      <trkpt lat="44.16384" lon="3.84201">
        <ele>244.79</ele>
        <time>2022-08-09T09:59:21Z</time>
      </trkpt>
      <trkpt lat="44.16373" lon="3.84203">
        <ele>245.75</ele>
        <time>2022-08-09T09:59:35Z</time>
      </trkpt>
      <trkpt lat="44.16362" lon="3.84199">
        <ele>246.23</ele>
        <time>2022-08-09T09:59:51Z</time>
      </trkpt>
      <trkpt lat="44.16358" lon="3.84198">
        <ele>246.72</ele>
        <time>2022-08-09T10:00:00Z</time>
      </trkpt>
      <trkpt lat="44.16344" lon="3.84196">
        <ele>245.75</ele>
        <time>2022-08-09T10:00:17Z</time>
      </trkpt>
      <trkpt lat="44.16337" lon="3.84194">
        <ele>246.72</ele>
        <time>2022-08-09T10:00:33Z</time>
      </trkpt>
      <trkpt lat="44.16325" lon="3.84184">
        <ele>249.12</ele>
        <time>2022-08-09T10:00:46Z</time>
      </trkpt>
      <trkpt lat="44.16326" lon="3.84181">
        <ele>249.6</ele>
        <time>2022-08-09T10:01:02Z</time>
      </trkpt>
      <trkpt lat="44.16323" lon="3.84183">
        <ele>247.68</ele>
        <time>2022-08-09T10:01:17Z</time>
      </trkpt>
      <trkpt lat="44.16326" lon="3.84177">
        <ele>247.68</ele>
        <time>2022-08-09T10:01:27Z</time>
      </trkpt>
      <trkpt lat="44.16326" lon="3.84166">
        <ele>249.12</ele>
        <time>2022-08-09T10:01:37Z</time>
      </trkpt>
      <trkpt lat="44.16324" lon="3.84162">
        <ele>250.08</ele>
        <time>2022-08-09T10:01:56Z</time>
      </trkpt>
      <trkpt lat="44.16326" lon="3.84145">
        <ele>249.6</ele>
        <time>2022-08-09T10:02:10Z</time>
      </trkpt>
      <trkpt lat="44.16326" lon="3.84131">
        <ele>247.2</ele>
        <time>2022-08-09T10:02:24Z</time>
      </trkpt>
      <trkpt lat="44.16323" lon="3.84117">
        <ele>245.75</ele>
        <time>2022-08-09T10:02:36Z</time>
      </trkpt>
      <trkpt lat="44.1632" lon="3.84117">
        <ele>246.72</ele>
        <time>2022-08-09T10:02:40Z</time>
      </trkpt>
      <trkpt lat="44.16317" lon="3.8413">
        <ele>247.2</ele>
        <time>2022-08-09T10:02:53Z</time>
      </trkpt>
      <trkpt lat="44.16315" lon="3.84142">
        <ele>250.56</ele>
        <time>2022-08-09T10:03:08Z</time>
      </trkpt>
      <trkpt lat="44.16309" lon="3.84156">
        <ele>253.93</ele>
        <time>2022-08-09T10:03:24Z</time>
      </trkpt>
      <trkpt lat="44.16306" lon="3.84167">
        <ele>253.93</ele>
        <time>2022-08-09T10:03:37Z</time>
      </trkpt>
      <trkpt lat="44.16302" lon="3.84178">
        <ele>253.93</ele>
        <time>2022-08-09T10:03:50Z</time>
      </trkpt>
      <trkpt lat="44.16298" lon="3.8419">
        <ele>254.41</ele>
        <time>2022-08-09T10:04:05Z</time>
      </trkpt>
      <trkpt lat="44.16291" lon="3.84201">
        <ele>257.77</ele>
        <time>2022-08-09T10:04:22Z</time>
      </trkpt>
      <trkpt lat="44.16285" lon="3.84216">
        <ele>260.17</ele>
        <time>2022-08-09T10:04:39Z</time>
      </trkpt>
      <trkpt lat="44.16278" lon="3.84225">
        <ele>261.62</ele>
        <time>2022-08-09T10:04:53Z</time>
      </trkpt>
      <trkpt lat="44.16274" lon="3.84225">
        <ele>262.1</ele>
        <time>2022-08-09T10:05:06Z</time>
      </trkpt>
      <trkpt lat="44.16275" lon="3.84212">
        <ele>264.02</ele>
        <time>2022-08-09T10:05:20Z</time>
      </trkpt>
      <trkpt lat="44.16279" lon="3.84203">
        <ele>264.5</ele>
        <time>2022-08-09T10:05:28Z</time>
      </trkpt>
      <trkpt lat="44.16282" lon="3.84189">
        <ele>263.54</ele>
        <time>2022-08-09T10:05:40Z</time>
      </trkpt>
      <trkpt lat="44.16282" lon="3.84175">
        <ele>263.54</ele>
        <time>2022-08-09T10:05:53Z</time>
      </trkpt>
      <trkpt lat="44.16278" lon="3.84164">
        <ele>264.02</ele>
        <time>2022-08-09T10:06:05Z</time>
      </trkpt>
      <trkpt lat="44.16273" lon="3.84154">
        <ele>265.46</ele>
        <time>2022-08-09T10:06:19Z</time>
      </trkpt>
      <trkpt lat="44.16264" lon="3.84153">
        <ele>265.94</ele>
        <time>2022-08-09T10:06:32Z</time>
      </trkpt>
      <trkpt lat="44.16261" lon="3.84155">
        <ele>267.86</ele>
        <time>2022-08-09T10:06:46Z</time>
      </trkpt>
      <trkpt lat="44.16258" lon="3.84157">
        <ele>271.23</ele>
        <time>2022-08-09T10:07:02Z</time>
      </trkpt>
      <trkpt lat="44.16258" lon="3.84159">
        <ele>273.15</ele>
        <time>2022-08-09T10:07:21Z</time>
      </trkpt>
      <trkpt lat="44.1626" lon="3.84159">
        <ele>273.63</ele>
        <time>2022-08-09T10:07:32Z</time>
      </trkpt>
      <trkpt lat="44.1626" lon="3.84158">
        <ele>275.07</ele>
        <time>2022-08-09T10:07:59Z</time>
      </trkpt>
      <trkpt lat="44.16263" lon="3.84158">
        <ele>274.59</ele>
        <time>2022-08-09T10:08:27Z</time>
      </trkpt>
      <trkpt lat="44.16262" lon="3.84159">
        <ele>278.92</ele>
        <time>2022-08-09T10:09:04Z</time>
      </trkpt>
      <trkpt lat="44.16265" lon="3.84161">
        <ele>276.52</ele>
        <time>2022-08-09T10:09:37Z</time>
      </trkpt>
      <trkpt lat="44.16261" lon="3.84158">
        <ele>279.88</ele>
        <time>2022-08-09T10:10:16Z</time>
      </trkpt>
      <trkpt lat="44.1626" lon="3.84158">
        <ele>281.8</ele>
        <time>2022-08-09T10:10:44Z</time>
      </trkpt>
      <trkpt lat="44.16264" lon="3.84153">
        <ele>286.13</ele>
        <time>2022-08-09T10:11:29Z</time>
      </trkpt>
      <trkpt lat="44.1627" lon="3.84155">
        <ele>285.65</ele>
        <time>2022-08-09T10:12:13Z</time>
      </trkpt>
      <trkpt lat="44.16273" lon="3.84152">
        <ele>287.09</ele>
        <time>2022-08-09T10:13:02Z</time>
      </trkpt>
      <trkpt lat="44.16266" lon="3.84153">
        <ele>278.92</ele>
        <time>2022-08-09T10:13:43Z</time>
      </trkpt>
      <trkpt lat="44.16258" lon="3.8416">
        <ele>277</ele>
        <time>2022-08-09T10:14:20Z</time>
      </trkpt>
      <trkpt lat="44.16257" lon="3.84157">
        <ele>277.48</ele>
        <time>2022-08-09T10:15:05Z</time>
      </trkpt>
      <trkpt lat="44.16256" lon="3.8416">
        <ele>280.36</ele>
        <time>2022-08-09T10:15:49Z</time>
      </trkpt>
      <trkpt lat="44.16273" lon="3.84154">
        <ele>278.92</ele>
        <time>2022-08-09T10:16:26Z</time>
      </trkpt>
      <trkpt lat="44.16278" lon="3.84151">
        <ele>281.8</ele>
        <time>2022-08-09T10:17:03Z</time>
      </trkpt>
      <trkpt lat="44.16269" lon="3.84152">
        <ele>283.73</ele>
        <time>2022-08-09T10:17:42Z</time>
      </trkpt>
      <trkpt lat="44.16267" lon="3.84146">
        <ele>283.73</ele>
        <time>2022-08-09T10:18:13Z</time>
      </trkpt>
      <trkpt lat="44.16267" lon="3.84149">
        <ele>281.8</ele>
        <time>2022-08-09T10:18:55Z</time>
      </trkpt>
      <trkpt lat="44.16266" lon="3.84149">
        <ele>282.28</ele>
        <time>2022-08-09T10:19:30Z</time>
      </trkpt>
      <trkpt lat="44.16272" lon="3.84153">
        <ele>284.69</ele>
        <time>2022-08-09T10:20:10Z</time>
      </trkpt>
      <trkpt lat="44.16274" lon="3.84153">
        <ele>288.53</ele>
        <time>2022-08-09T10:20:46Z</time>
      </trkpt>
      <trkpt lat="44.16274" lon="3.84153">
        <ele>288.05</ele>
        <time>2022-08-09T10:21:32Z</time>
      </trkpt>
      <trkpt lat="44.16274" lon="3.84151">
        <ele>287.09</ele>
        <time>2022-08-09T10:22:09Z</time>
      </trkpt>
      <trkpt lat="44.16277" lon="3.84146">
        <ele>294.78</ele>
        <time>2022-08-09T10:22:35Z</time>
      </trkpt>
      <trkpt lat="44.16262" lon="3.84148">
        <ele>293.34</ele>
        <time>2022-08-09T10:23:21Z</time>
      </trkpt>
      <trkpt lat="44.16266" lon="3.84154">
        <ele>295.26</ele>
        <time>2022-08-09T10:24:03Z</time>
      </trkpt>
      <trkpt lat="44.16265" lon="3.84152">
        <ele>298.63</ele>
        <time>2022-08-09T10:24:37Z</time>
      </trkpt>
      <trkpt lat="44.1626" lon="3.84141">
        <ele>301.03</ele>
        <time>2022-08-09T10:25:13Z</time>
      </trkpt>
      <trkpt lat="44.1626" lon="3.84147">
        <ele>303.91</ele>
        <time>2022-08-09T10:25:55Z</time>
      </trkpt>
      <trkpt lat="44.16265" lon="3.84153">
        <ele>301.51</ele>
        <time>2022-08-09T10:26:43Z</time>
      </trkpt>
      <trkpt lat="44.16263" lon="3.84159">
        <ele>301.51</ele>
        <time>2022-08-09T10:27:21Z</time>
      </trkpt>
      <trkpt lat="44.16251" lon="3.84155">
        <ele>293.82</ele>
        <time>2022-08-09T10:27:53Z</time>
      </trkpt>
      <trkpt lat="44.16259" lon="3.84164">
        <ele>287.57</ele>
        <time>2022-08-09T10:28:19Z</time>
      </trkpt>
      <trkpt lat="44.16257" lon="3.84164">
        <ele>287.57</ele>
        <time>2022-08-09T10:28:51Z</time>
      </trkpt>
      <trkpt lat="44.16257" lon="3.84163">
        <ele>286.13</ele>
        <time>2022-08-09T10:29:27Z</time>
      </trkpt>
      <trkpt lat="44.16257" lon="3.84155">
        <ele>284.69</ele>
        <time>2022-08-09T10:30:05Z</time>
      </trkpt>
      <trkpt lat="44.1626" lon="3.8416">
        <ele>281.8</ele>
        <time>2022-08-09T10:30:45Z</time>
      </trkpt>
      <trkpt lat="44.16259" lon="3.84161">
        <ele>289.49</ele>
        <time>2022-08-09T10:31:27Z</time>
      </trkpt>
      <trkpt lat="44.16259" lon="3.84162">
        <ele>294.78</ele>
        <time>2022-08-09T10:32:03Z</time>
      </trkpt>
      <trkpt lat="44.16254" lon="3.84161">
        <ele>291.42</ele>
        <time>2022-08-09T10:32:36Z</time>
      </trkpt>
      <trkpt lat="44.16254" lon="3.84165">
        <ele>284.69</ele>
        <time>2022-08-09T10:33:12Z</time>
      </trkpt>
      <trkpt lat="44.16251" lon="3.84152">
        <ele>283.25</ele>
        <time>2022-08-09T10:33:56Z</time>
      </trkpt>
      <trkpt lat="44.16255" lon="3.84161">
        <ele>289.01</ele>
        <time>2022-08-09T10:34:35Z</time>
      </trkpt>
      <trkpt lat="44.16255" lon="3.84161">
        <ele>278.92</ele>
        <time>2022-08-09T10:35:16Z</time>
      </trkpt>
      <trkpt lat="44.16256" lon="3.8416">
        <ele>281.8</ele>
        <time>2022-08-09T10:35:50Z</time>
      </trkpt>
      <trkpt lat="44.16259" lon="3.84164">
        <ele>283.25</ele>
        <time>2022-08-09T10:36:34Z</time>
      </trkpt>
      <trkpt lat="44.16262" lon="3.84156">
        <ele>288.05</ele>
        <time>2022-08-09T10:37:14Z</time>
      </trkpt>
      <trkpt lat="44.16265" lon="3.84161">
        <ele>285.17</ele>
        <time>2022-08-09T10:37:44Z</time>
      </trkpt>
      <trkpt lat="44.16264" lon="3.84164">
        <ele>283.73</ele>
        <time>2022-08-09T10:38:33Z</time>
      </trkpt>
      <trkpt lat="44.1626" lon="3.84156">
        <ele>280.36</ele>
        <time>2022-08-09T10:39:15Z</time>
      </trkpt>
      <trkpt lat="44.1626" lon="3.84157">
        <ele>279.4</ele>
        <time>2022-08-09T10:39:59Z</time>
      </trkpt>
      <trkpt lat="44.16261" lon="3.84159">
        <ele>281.32</ele>
        <time>2022-08-09T10:40:43Z</time>
      </trkpt>
      <trkpt lat="44.16264" lon="3.84161">
        <ele>285.17</ele>
        <time>2022-08-09T10:41:27Z</time>
      </trkpt>
      <trkpt lat="44.16265" lon="3.84161">
        <ele>285.65</ele>
        <time>2022-08-09T10:42:19Z</time>
      </trkpt>
      <trkpt lat="44.16257" lon="3.84156">
        <ele>279.4</ele>
        <time>2022-08-09T10:43:07Z</time>
      </trkpt>
      <trkpt lat="44.16255" lon="3.84159">
        <ele>278.44</ele>
        <time>2022-08-09T10:43:51Z</time>
      </trkpt>
      <trkpt lat="44.16255" lon="3.84151">
        <ele>281.8</ele>
        <time>2022-08-09T10:44:33Z</time>
      </trkpt>
      <trkpt lat="44.1626" lon="3.84165">
        <ele>287.09</ele>
        <time>2022-08-09T10:45:16Z</time>
      </trkpt>
      <trkpt lat="44.16253" lon="3.84156">
        <ele>291.9</ele>
        <time>2022-08-09T10:46:02Z</time>
      </trkpt>
      <trkpt lat="44.1626" lon="3.84156">
        <ele>293.82</ele>
        <time>2022-08-09T10:46:40Z</time>
      </trkpt>
      <trkpt lat="44.16268" lon="3.84159">
        <ele>279.88</ele>
        <time>2022-08-09T10:47:13Z</time>
      </trkpt>
      <trkpt lat="44.16259" lon="3.8415">
        <ele>279.88</ele>
        <time>2022-08-09T10:47:47Z</time>
      </trkpt>
      <trkpt lat="44.1626" lon="3.84152">
        <ele>281.32</ele>
        <time>2022-08-09T10:48:19Z</time>
      </trkpt>
      <trkpt lat="44.1626" lon="3.84163">
        <ele>279.4</ele>
        <time>2022-08-09T10:48:47Z</time>
      </trkpt>
      <trkpt lat="44.16261" lon="3.84155">
        <ele>280.84</ele>
        <time>2022-08-09T10:49:28Z</time>
      </trkpt>
      <trkpt lat="44.1626" lon="3.84153">
        <ele>281.32</ele>
        <time>2022-08-09T10:49:56Z</time>
      </trkpt>
      <trkpt lat="44.16262" lon="3.84153">
        <ele>278.92</ele>
        <time>2022-08-09T10:50:26Z</time>
      </trkpt>
      <trkpt lat="44.1626" lon="3.84154">
        <ele>277.96</ele>
        <time>2022-08-09T10:50:44Z</time>
      </trkpt>
      <trkpt lat="44.16259" lon="3.84157">
        <ele>278.92</ele>
        <time>2022-08-09T10:51:26Z</time>
      </trkpt>
      <trkpt lat="44.16261" lon="3.84154">
        <ele>277.96</ele>
        <time>2022-08-09T10:52:15Z</time>
      </trkpt>
      <trkpt lat="44.16261" lon="3.84159">
        <ele>274.59</ele>
        <time>2022-08-09T10:52:53Z</time>
      </trkpt>
      <trkpt lat="44.16263" lon="3.84156">
        <ele>272.67</ele>
        <time>2022-08-09T10:53:23Z</time>
      </trkpt>
      <trkpt lat="44.16261" lon="3.84162">
        <ele>271.23</ele>
        <time>2022-08-09T10:53:50Z</time>
      </trkpt>
      <trkpt lat="44.1626" lon="3.8416">
        <ele>271.71</ele>
        <time>2022-08-09T10:54:21Z</time>
      </trkpt>
      <trkpt lat="44.16261" lon="3.84164">
        <ele>276.04</ele>
        <time>2022-08-09T10:54:58Z</time>
      </trkpt>
      <trkpt lat="44.16256" lon="3.84161">
        <ele>282.28</ele>
        <time>2022-08-09T10:55:38Z</time>
      </trkpt>
      <trkpt lat="44.16252" lon="3.84161">
        <ele>281.8</ele>
        <time>2022-08-09T10:56:13Z</time>
      </trkpt>
      <trkpt lat="44.16254" lon="3.84161">
        <ele>280.84</ele>
        <time>2022-08-09T10:56:50Z</time>
      </trkpt>
      <trkpt lat="44.16259" lon="3.84158">
        <ele>280.84</ele>
        <time>2022-08-09T10:57:27Z</time>
      </trkpt>
      <trkpt lat="44.16272" lon="3.84158">
        <ele>279.88</ele>
        <time>2022-08-09T10:58:06Z</time>
      </trkpt>
      <trkpt lat="44.16268" lon="3.84159">
        <ele>283.73</ele>
        <time>2022-08-09T10:58:42Z</time>
      </trkpt>
      <trkpt lat="44.16263" lon="3.84158">
        <ele>278.44</ele>
        <time>2022-08-09T10:59:32Z</time>
      </trkpt>
      <trkpt lat="44.16262" lon="3.84157">
        <ele>279.88</ele>
        <time>2022-08-09T11:00:18Z</time>
      </trkpt>
      <trkpt lat="44.16262" lon="3.84155">
        <ele>268.83</ele>
        <time>2022-08-09T11:01:05Z</time>
      </trkpt>
      <trkpt lat="44.16261" lon="3.84156">
        <ele>271.23</ele>
        <time>2022-08-09T11:01:52Z</time>
      </trkpt>
      <trkpt lat="44.1626" lon="3.84157">
        <ele>274.11</ele>
        <time>2022-08-09T11:02:49Z</time>
      </trkpt>
      <trkpt lat="44.1626" lon="3.84162">
        <ele>274.11</ele>
        <time>2022-08-09T11:03:40Z</time>
      </trkpt>
      <trkpt lat="44.16255" lon="3.84156">
        <ele>273.15</ele>
        <time>2022-08-09T11:04:26Z</time>
      </trkpt>
      <trkpt lat="44.16268" lon="3.8416">
        <ele>273.63</ele>
        <time>2022-08-09T11:05:16Z</time>
      </trkpt>
      <trkpt lat="44.16265" lon="3.84159">
        <ele>273.15</ele>
        <time>2022-08-09T11:06:01Z</time>
      </trkpt>
      <trkpt lat="44.16265" lon="3.84161">
        <ele>277.96</ele>
        <time>2022-08-09T11:06:47Z</time>
      </trkpt>
      <trkpt lat="44.16265" lon="3.8416">
        <ele>276.04</ele>
        <time>2022-08-09T11:07:45Z</time>
      </trkpt>
      <trkpt lat="44.16267" lon="3.84159">
        <ele>271.23</ele>
        <time>2022-08-09T11:08:30Z</time>
      </trkpt>
      <trkpt lat="44.16262" lon="3.84159">
        <ele>266.9</ele>
        <time>2022-08-09T11:09:15Z</time>
      </trkpt>
      <trkpt lat="44.16261" lon="3.84158">
        <ele>270.75</ele>
        <time>2022-08-09T11:10:11Z</time>
      </trkpt>
      <trkpt lat="44.16265" lon="3.84162">
        <ele>273.63</ele>
        <time>2022-08-09T11:11:01Z</time>
      </trkpt>
      <trkpt lat="44.1626" lon="3.8416">
        <ele>276.04</ele>
        <time>2022-08-09T11:11:45Z</time>
      </trkpt>
      <trkpt lat="44.16261" lon="3.84155">
        <ele>272.19</ele>
        <time>2022-08-09T11:12:27Z</time>
      </trkpt>
      <trkpt lat="44.16263" lon="3.84152">
        <ele>275.56</ele>
        <time>2022-08-09T11:13:03Z</time>
      </trkpt>
      <trkpt lat="44.16264" lon="3.84154">
        <ele>279.4</ele>
        <time>2022-08-09T11:13:42Z</time>
      </trkpt>
      <trkpt lat="44.16261" lon="3.8416">
        <ele>277.48</ele>
        <time>2022-08-09T11:14:14Z</time>
      </trkpt>
      <trkpt lat="44.1626" lon="3.84161">
        <ele>274.11</ele>
        <time>2022-08-09T11:14:49Z</time>
      </trkpt>
      <trkpt lat="44.1625" lon="3.8416">
        <ele>275.56</ele>
        <time>2022-08-09T11:15:24Z</time>
      </trkpt>
      <trkpt lat="44.16252" lon="3.84158">
        <ele>275.07</ele>
        <time>2022-08-09T11:15:56Z</time>
      </trkpt>
      <trkpt lat="44.16257" lon="3.84156">
        <ele>274.59</ele>
        <time>2022-08-09T11:16:26Z</time>
      </trkpt>
      <trkpt lat="44.16255" lon="3.84155">
        <ele>273.63</ele>
        <time>2022-08-09T11:16:40Z</time>
      </trkpt>
      <trkpt lat="44.16254" lon="3.84156">
        <ele>272.67</ele>
        <time>2022-08-09T11:17:06Z</time>
      </trkpt>
      <trkpt lat="44.16254" lon="3.84155">
        <ele>270.27</ele>
        <time>2022-08-09T11:17:30Z</time>
      </trkpt>
      <trkpt lat="44.16256" lon="3.84154">
        <ele>271.71</ele>
        <time>2022-08-09T11:18:00Z</time>
      </trkpt>
      <trkpt lat="44.16257" lon="3.84159">
        <ele>271.71</ele>
        <time>2022-08-09T11:18:16Z</time>
      </trkpt>
      <trkpt lat="44.16266" lon="3.84157">
        <ele>272.67</ele>
        <time>2022-08-09T11:18:36Z</time>
      </trkpt>
      <trkpt lat="44.16276" lon="3.84142">
        <ele>273.63</ele>
        <time>2022-08-09T11:18:51Z</time>
      </trkpt>
      <trkpt lat="44.16274" lon="3.84131">
        <ele>273.15</ele>
        <time>2022-08-09T11:19:03Z</time>
      </trkpt>
      <trkpt lat="44.16269" lon="3.84118">
        <ele>270.27</ele>
        <time>2022-08-09T11:19:18Z</time>
      </trkpt>
      <trkpt lat="44.16261" lon="3.84104">
        <ele>268.83</ele>
        <time>2022-08-09T11:19:35Z</time>
      </trkpt>
      <trkpt lat="44.16251" lon="3.84098">
        <ele>272.19</ele>
        <time>2022-08-09T11:19:54Z</time>
      </trkpt>
      <trkpt lat="44.16238" lon="3.84095">
        <ele>273.63</ele>
        <time>2022-08-09T11:20:12Z</time>
      </trkpt>
      <trkpt lat="44.16227" lon="3.84099">
        <ele>274.59</ele>
        <time>2022-08-09T11:20:29Z</time>
      </trkpt>
      <trkpt lat="44.1622" lon="3.84103">
        <ele>274.11</ele>
        <time>2022-08-09T11:20:44Z</time>
      </trkpt>
      <trkpt lat="44.16207" lon="3.84105">
        <ele>276.52</ele>
        <time>2022-08-09T11:21:02Z</time>
      </trkpt>
      <trkpt lat="44.16196" lon="3.84108">
        <ele>281.32</ele>
        <time>2022-08-09T11:21:19Z</time>
      </trkpt>
      <trkpt lat="44.16189" lon="3.84109">
        <ele>281.8</ele>
        <time>2022-08-09T11:21:34Z</time>
      </trkpt>
      <trkpt lat="44.16178" lon="3.84109">
        <ele>283.25</ele>
        <time>2022-08-09T11:21:47Z</time>
      </trkpt>
      <trkpt lat="44.16166" lon="3.84112">
        <ele>283.73</ele>
        <time>2022-08-09T11:22:03Z</time>
      </trkpt>
      <trkpt lat="44.16151" lon="3.84113">
        <ele>283.73</ele>
        <time>2022-08-09T11:22:19Z</time>
      </trkpt>
      <trkpt lat="44.16136" lon="3.84115">
        <ele>282.28</ele>
        <time>2022-08-09T11:22:35Z</time>
      </trkpt>
      <trkpt lat="44.16125" lon="3.84116">
        <ele>277.48</ele>
        <time>2022-08-09T11:22:50Z</time>
      </trkpt>
      <trkpt lat="44.16113" lon="3.84115">
        <ele>277</ele>
        <time>2022-08-09T11:23:03Z</time>
      </trkpt>
      <trkpt lat="44.16096" lon="3.84115">
        <ele>278.44</ele>
        <time>2022-08-09T11:23:19Z</time>
      </trkpt>
      <trkpt lat="44.16083" lon="3.84119">
        <ele>280.84</ele>
        <time>2022-08-09T11:23:34Z</time>
      </trkpt>
      <trkpt lat="44.1607" lon="3.8412">
        <ele>280.36</ele>
        <time>2022-08-09T11:23:49Z</time>
      </trkpt>
      <trkpt lat="44.16056" lon="3.84124">
        <ele>279.88</ele>
        <time>2022-08-09T11:24:05Z</time>
      </trkpt>
      <trkpt lat="44.1604" lon="3.84125">
        <ele>280.84</ele>
        <time>2022-08-09T11:24:19Z</time>
      </trkpt>
      <trkpt lat="44.16026" lon="3.84132">
        <ele>277.48</ele>
        <time>2022-08-09T11:24:34Z</time>
      </trkpt>
      <trkpt lat="44.16015" lon="3.84142">
        <ele>273.63</ele>
        <time>2022-08-09T11:24:48Z</time>
      </trkpt>
      <trkpt lat="44.16008" lon="3.8415">
        <ele>271.71</ele>
        <time>2022-08-09T11:25:02Z</time>
      </trkpt>
      <trkpt lat="44.15997" lon="3.84153">
        <ele>270.27</ele>
        <time>2022-08-09T11:25:17Z</time>
      </trkpt>
      <trkpt lat="44.15989" lon="3.84164">
        <ele>268.35</ele>
        <time>2022-08-09T11:25:31Z</time>
      </trkpt>
      <trkpt lat="44.1598" lon="3.84174">
        <ele>265.46</ele>
        <time>2022-08-09T11:25:46Z</time>
      </trkpt>
      <trkpt lat="44.15966" lon="3.84188">
        <ele>264.98</ele>
        <time>2022-08-09T11:26:03Z</time>
      </trkpt>
      <trkpt lat="44.15961" lon="3.84207">
        <ele>264.02</ele>
        <time>2022-08-09T11:26:18Z</time>
      </trkpt>
      <trkpt lat="44.15954" lon="3.84214">
        <ele>259.69</ele>
        <time>2022-08-09T11:26:35Z</time>
      </trkpt>
      <trkpt lat="44.15953" lon="3.842">
        <ele>255.37</ele>
        <time>2022-08-09T11:26:48Z</time>
      </trkpt>
      <trkpt lat="44.15955" lon="3.84187">
        <ele>251.04</ele>
        <time>2022-08-09T11:27:04Z</time>
      </trkpt>
      <trkpt lat="44.15956" lon="3.84164">
        <ele>249.12</ele>
        <time>2022-08-09T11:27:21Z</time>
      </trkpt>
      <trkpt lat="44.15947" lon="3.84154">
        <ele>247.68</ele>
        <time>2022-08-09T11:27:36Z</time>
      </trkpt>
      <trkpt lat="44.15938" lon="3.84147">
        <ele>247.2</ele>
        <time>2022-08-09T11:27:50Z</time>
      </trkpt>
      <trkpt lat="44.15931" lon="3.84139">
        <ele>247.2</ele>
        <time>2022-08-09T11:28:03Z</time>
      </trkpt>
      <trkpt lat="44.1592" lon="3.84125">
        <ele>244.79</ele>
        <time>2022-08-09T11:28:20Z</time>
      </trkpt>
      <trkpt lat="44.15907" lon="3.84116">
        <ele>241.43</ele>
        <time>2022-08-09T11:28:37Z</time>
      </trkpt>
      <trkpt lat="44.15895" lon="3.84121">
        <ele>239.02</ele>
        <time>2022-08-09T11:28:53Z</time>
      </trkpt>
      <trkpt lat="44.159" lon="3.84135">
        <ele>236.14</ele>
        <time>2022-08-09T11:29:07Z</time>
      </trkpt>
      <trkpt lat="44.15898" lon="3.8414">
        <ele>235.66</ele>
        <time>2022-08-09T11:29:11Z</time>
      </trkpt>
      <trkpt lat="44.15897" lon="3.84141">
        <ele>235.66</ele>
        <time>2022-08-09T11:29:12Z</time>
      </trkpt>
      <trkpt lat="44.15896" lon="3.84143">
        <ele>235.66</ele>
        <time>2022-08-09T11:29:13Z</time>
      </trkpt>
      <trkpt lat="44.15886" lon="3.84147">
        <ele>235.18</ele>
        <time>2022-08-09T11:29:24Z</time>
      </trkpt>
      <trkpt lat="44.15873" lon="3.84129">
        <ele>235.66</ele>
        <time>2022-08-09T11:29:40Z</time>
      </trkpt>
      <trkpt lat="44.15872" lon="3.84126">
        <ele>235.66</ele>
        <time>2022-08-09T11:29:42Z</time>
      </trkpt>
      <trkpt lat="44.15871" lon="3.84125">
        <ele>236.14</ele>
        <time>2022-08-09T11:29:43Z</time>
      </trkpt>
      <trkpt lat="44.15871" lon="3.84124">
        <ele>235.66</ele>
        <time>2022-08-09T11:29:44Z</time>
      </trkpt>
      <trkpt lat="44.15869" lon="3.84121">
        <ele>235.66</ele>
        <time>2022-08-09T11:29:46Z</time>
      </trkpt>
      <trkpt lat="44.15869" lon="3.84119">
        <ele>236.14</ele>
        <time>2022-08-09T11:29:47Z</time>
      </trkpt>
      <trkpt lat="44.15865" lon="3.84109">
        <ele>236.62</ele>
        <time>2022-08-09T11:29:55Z</time>
      </trkpt>
      <trkpt lat="44.15855" lon="3.84089">
        <ele>236.14</ele>
        <time>2022-08-09T11:30:10Z</time>
      </trkpt>
      <trkpt lat="44.1584" lon="3.84075">
        <ele>233.74</ele>
        <time>2022-08-09T11:30:26Z</time>
      </trkpt>
      <trkpt lat="44.15824" lon="3.84062">
        <ele>232.3</ele>
        <time>2022-08-09T11:30:42Z</time>
      </trkpt>
      <trkpt lat="44.15809" lon="3.84058">
        <ele>230.85</ele>
        <time>2022-08-09T11:30:56Z</time>
      </trkpt>
      <trkpt lat="44.15795" lon="3.84056">
        <ele>229.89</ele>
        <time>2022-08-09T11:31:10Z</time>
      </trkpt>
      <trkpt lat="44.15786" lon="3.84055">
        <ele>229.41</ele>
        <time>2022-08-09T11:31:18Z</time>
      </trkpt>
      <trkpt lat="44.15784" lon="3.84054">
        <ele>229.89</ele>
        <time>2022-08-09T11:31:20Z</time>
      </trkpt>
      <trkpt lat="44.15768" lon="3.84054">
        <ele>230.85</ele>
        <time>2022-08-09T11:31:33Z</time>
      </trkpt>
      <trkpt lat="44.15754" lon="3.84056">
        <ele>229.41</ele>
        <time>2022-08-09T11:31:46Z</time>
      </trkpt>
      <trkpt lat="44.15743" lon="3.84058">
        <ele>227.49</ele>
        <time>2022-08-09T11:31:59Z</time>
      </trkpt>
      <trkpt lat="44.15733" lon="3.84056">
        <ele>229.41</ele>
        <time>2022-08-09T11:32:16Z</time>
      </trkpt>
      <trkpt lat="44.15719" lon="3.84056">
        <ele>228.93</ele>
        <time>2022-08-09T11:32:29Z</time>
      </trkpt>
      <trkpt lat="44.15702" lon="3.84058">
        <ele>225.57</ele>
        <time>2022-08-09T11:32:45Z</time>
      </trkpt>
      <trkpt lat="44.15691" lon="3.84058">
        <ele>222.2</ele>
        <time>2022-08-09T11:32:56Z</time>
      </trkpt>
      <trkpt lat="44.15688" lon="3.84058">
        <ele>221.24</ele>
        <time>2022-08-09T11:32:59Z</time>
      </trkpt>
      <trkpt lat="44.15685" lon="3.84063">
        <ele>221.72</ele>
        <time>2022-08-09T11:33:02Z</time>
      </trkpt>
      <trkpt lat="44.15682" lon="3.84075">
        <ele>226.05</ele>
        <time>2022-08-09T11:33:07Z</time>
      </trkpt>
      <trkpt lat="44.15681" lon="3.8409">
        <ele>229.41</ele>
        <time>2022-08-09T11:33:18Z</time>
      </trkpt>
      <trkpt lat="44.15681" lon="3.84095">
        <ele>229.41</ele>
        <time>2022-08-09T11:33:21Z</time>
      </trkpt>
      <trkpt lat="44.1568" lon="3.84096">
        <ele>229.41</ele>
        <time>2022-08-09T11:33:22Z</time>
      </trkpt>
      <trkpt lat="44.15681" lon="3.84115">
        <ele>231.81</ele>
        <time>2022-08-09T11:33:36Z</time>
      </trkpt>
      <trkpt lat="44.1568" lon="3.84118">
        <ele>231.81</ele>
        <time>2022-08-09T11:33:39Z</time>
      </trkpt>
      <trkpt lat="44.15679" lon="3.84119">
        <ele>232.3</ele>
        <time>2022-08-09T11:33:40Z</time>
      </trkpt>
      <trkpt lat="44.15668" lon="3.84127">
        <ele>231.81</ele>
        <time>2022-08-09T11:33:54Z</time>
      </trkpt>
      <trkpt lat="44.15657" lon="3.84129">
        <ele>231.81</ele>
        <time>2022-08-09T11:34:09Z</time>
      </trkpt>
      <trkpt lat="44.15655" lon="3.84141">
        <ele>232.3</ele>
        <time>2022-08-09T11:34:23Z</time>
      </trkpt>
      <trkpt lat="44.15665" lon="3.84146">
        <ele>235.66</ele>
        <time>2022-08-09T11:34:38Z</time>
      </trkpt>
      <trkpt lat="44.15672" lon="3.84152">
        <ele>239.51</ele>
        <time>2022-08-09T11:34:51Z</time>
      </trkpt>
      <trkpt lat="44.15672" lon="3.84166">
        <ele>241.43</ele>
        <time>2022-08-09T11:35:05Z</time>
      </trkpt>
      <trkpt lat="44.15668" lon="3.84183">
        <ele>243.35</ele>
        <time>2022-08-09T11:35:20Z</time>
      </trkpt>
      <trkpt lat="44.15667" lon="3.84198">
        <ele>244.79</ele>
        <time>2022-08-09T11:35:34Z</time>
      </trkpt>
      <trkpt lat="44.1567" lon="3.84215">
        <ele>247.2</ele>
        <time>2022-08-09T11:35:51Z</time>
      </trkpt>
      <trkpt lat="44.15673" lon="3.84228">
        <ele>247.2</ele>
        <time>2022-08-09T11:36:04Z</time>
      </trkpt>
      <trkpt lat="44.15672" lon="3.84242">
        <ele>247.2</ele>
        <time>2022-08-09T11:36:17Z</time>
      </trkpt>
      <trkpt lat="44.1568" lon="3.84256">
        <ele>248.16</ele>
        <time>2022-08-09T11:36:32Z</time>
      </trkpt>
      <trkpt lat="44.15681" lon="3.84268">
        <ele>250.08</ele>
        <time>2022-08-09T11:36:47Z</time>
      </trkpt>
      <trkpt lat="44.15673" lon="3.84254">
        <ele>252.96</ele>
        <time>2022-08-09T11:37:03Z</time>
      </trkpt>
      <trkpt lat="44.15668" lon="3.84244">
        <ele>253.44</ele>
        <time>2022-08-09T11:37:16Z</time>
      </trkpt>
      <trkpt lat="44.1566" lon="3.84233">
        <ele>255.85</ele>
        <time>2022-08-09T11:37:32Z</time>
      </trkpt>
      <trkpt lat="44.15652" lon="3.84221">
        <ele>258.73</ele>
        <time>2022-08-09T11:37:48Z</time>
      </trkpt>
      <trkpt lat="44.15647" lon="3.84208">
        <ele>260.65</ele>
        <time>2022-08-09T11:38:02Z</time>
      </trkpt>
      <trkpt lat="44.15641" lon="3.84197">
        <ele>263.54</ele>
        <time>2022-08-09T11:38:17Z</time>
      </trkpt>
      <trkpt lat="44.15629" lon="3.84189">
        <ele>262.58</ele>
        <time>2022-08-09T11:38:30Z</time>
      </trkpt>
      <trkpt lat="44.15626" lon="3.84201">
        <ele>261.14</ele>
        <time>2022-08-09T11:38:44Z</time>
      </trkpt>
      <trkpt lat="44.15628" lon="3.84221">
        <ele>263.06</ele>
        <time>2022-08-09T11:39:00Z</time>
      </trkpt>
      <trkpt lat="44.15631" lon="3.84236">
        <ele>267.38</ele>
        <time>2022-08-09T11:39:16Z</time>
      </trkpt>
      <trkpt lat="44.15631" lon="3.84249">
        <ele>270.27</ele>
        <time>2022-08-09T11:39:32Z</time>
      </trkpt>
      <trkpt lat="44.1563" lon="3.84247">
        <ele>270.27</ele>
        <time>2022-08-09T11:39:34Z</time>
      </trkpt>
      <trkpt lat="44.15628" lon="3.84239">
        <ele>272.19</ele>
        <time>2022-08-09T11:39:41Z</time>
      </trkpt>
      <trkpt lat="44.15622" lon="3.84223">
        <ele>275.07</ele>
        <time>2022-08-09T11:39:54Z</time>
      </trkpt>
      <trkpt lat="44.15616" lon="3.84208">
        <ele>276.04</ele>
        <time>2022-08-09T11:40:09Z</time>
      </trkpt>
      <trkpt lat="44.15606" lon="3.84199">
        <ele>275.07</ele>
        <time>2022-08-09T11:40:24Z</time>
      </trkpt>
      <trkpt lat="44.15594" lon="3.84195">
        <ele>273.63</ele>
        <time>2022-08-09T11:40:38Z</time>
      </trkpt>
      <trkpt lat="44.15581" lon="3.8419">
        <ele>274.59</ele>
        <time>2022-08-09T11:40:53Z</time>
      </trkpt>
      <trkpt lat="44.15571" lon="3.84184">
        <ele>276.52</ele>
        <time>2022-08-09T11:41:09Z</time>
      </trkpt>
      <trkpt lat="44.1556" lon="3.84177">
        <ele>276.52</ele>
        <time>2022-08-09T11:41:23Z</time>
      </trkpt>
      <trkpt lat="44.15548" lon="3.84168">
        <ele>281.8</ele>
        <time>2022-08-09T11:41:40Z</time>
      </trkpt>
      <trkpt lat="44.15537" lon="3.84157">
        <ele>282.77</ele>
        <time>2022-08-09T11:41:56Z</time>
      </trkpt>
      <trkpt lat="44.15532" lon="3.84149">
        <ele>281.8</ele>
        <time>2022-08-09T11:42:10Z</time>
      </trkpt>
      <trkpt lat="44.15515" lon="3.84138">
        <ele>281.32</ele>
        <time>2022-08-09T11:42:29Z</time>
      </trkpt>
      <trkpt lat="44.15503" lon="3.84128">
        <ele>282.28</ele>
        <time>2022-08-09T11:42:45Z</time>
      </trkpt>
      <trkpt lat="44.15491" lon="3.8412">
        <ele>284.21</ele>
        <time>2022-08-09T11:42:59Z</time>
      </trkpt>
      <trkpt lat="44.15479" lon="3.84111">
        <ele>286.13</ele>
        <time>2022-08-09T11:43:13Z</time>
      </trkpt>
      <trkpt lat="44.15465" lon="3.84102">
        <ele>287.57</ele>
        <time>2022-08-09T11:43:28Z</time>
      </trkpt>
      <trkpt lat="44.15458" lon="3.84089">
        <ele>289.97</ele>
        <time>2022-08-09T11:43:40Z</time>
      </trkpt>
      <trkpt lat="44.15456" lon="3.84077">
        <ele>289.97</ele>
        <time>2022-08-09T11:43:51Z</time>
      </trkpt>
      <trkpt lat="44.1545" lon="3.8406">
        <ele>291.42</ele>
        <time>2022-08-09T11:44:05Z</time>
      </trkpt>
      <trkpt lat="44.15442" lon="3.84049">
        <ele>292.86</ele>
        <time>2022-08-09T11:44:18Z</time>
      </trkpt>
      <trkpt lat="44.15431" lon="3.84042">
        <ele>295.74</ele>
        <time>2022-08-09T11:44:31Z</time>
      </trkpt>
      <trkpt lat="44.15425" lon="3.84032">
        <ele>297.67</ele>
        <time>2022-08-09T11:44:43Z</time>
      </trkpt>
      <trkpt lat="44.15414" lon="3.84021">
        <ele>299.59</ele>
        <time>2022-08-09T11:44:58Z</time>
      </trkpt>
      <trkpt lat="44.15412" lon="3.84008">
        <ele>300.07</ele>
        <time>2022-08-09T11:45:09Z</time>
      </trkpt>
      <trkpt lat="44.15414" lon="3.83991">
        <ele>300.07</ele>
        <time>2022-08-09T11:45:22Z</time>
      </trkpt>
      <trkpt lat="44.15416" lon="3.83973">
        <ele>301.99</ele>
        <time>2022-08-09T11:45:37Z</time>
      </trkpt>
      <trkpt lat="44.15415" lon="3.83955">
        <ele>304.39</ele>
        <time>2022-08-09T11:45:50Z</time>
      </trkpt>
      <trkpt lat="44.15409" lon="3.83945">
        <ele>306.8</ele>
        <time>2022-08-09T11:46:01Z</time>
      </trkpt>
      <trkpt lat="44.15395" lon="3.8393">
        <ele>308.24</ele>
        <time>2022-08-09T11:46:17Z</time>
      </trkpt>
      <trkpt lat="44.15394" lon="3.83917">
        <ele>308.24</ele>
        <time>2022-08-09T11:46:32Z</time>
      </trkpt>
      <trkpt lat="44.15398" lon="3.83899">
        <ele>307.28</ele>
        <time>2022-08-09T11:46:47Z</time>
      </trkpt>
      <trkpt lat="44.15396" lon="3.83883">
        <ele>307.28</ele>
        <time>2022-08-09T11:47:00Z</time>
      </trkpt>
      <trkpt lat="44.15396" lon="3.83867">
        <ele>305.84</ele>
        <time>2022-08-09T11:47:14Z</time>
      </trkpt>
      <trkpt lat="44.15397" lon="3.83853">
        <ele>305.36</ele>
        <time>2022-08-09T11:47:27Z</time>
      </trkpt>
      <trkpt lat="44.15396" lon="3.83838">
        <ele>305.84</ele>
        <time>2022-08-09T11:47:41Z</time>
      </trkpt>
      <trkpt lat="44.15388" lon="3.8383">
        <ele>310.16</ele>
        <time>2022-08-09T11:47:56Z</time>
      </trkpt>
      <trkpt lat="44.15377" lon="3.83835">
        <ele>311.12</ele>
        <time>2022-08-09T11:48:11Z</time>
      </trkpt>
      <trkpt lat="44.15361" lon="3.83841">
        <ele>310.64</ele>
        <time>2022-08-09T11:48:26Z</time>
      </trkpt>
      <trkpt lat="44.15343" lon="3.83852">
        <ele>311.12</ele>
        <time>2022-08-09T11:48:46Z</time>
      </trkpt>
      <trkpt lat="44.15332" lon="3.83863">
        <ele>315.45</ele>
        <time>2022-08-09T11:49:04Z</time>
      </trkpt>
      <trkpt lat="44.15315" lon="3.83869">
        <ele>318.33</ele>
        <time>2022-08-09T11:49:24Z</time>
      </trkpt>
      <trkpt lat="44.15305" lon="3.83876">
        <ele>318.33</ele>
        <time>2022-08-09T11:49:40Z</time>
      </trkpt>
      <trkpt lat="44.15297" lon="3.83879">
        <ele>318.81</ele>
        <time>2022-08-09T11:49:53Z</time>
      </trkpt>
      <trkpt lat="44.15286" lon="3.83883">
        <ele>319.3</ele>
        <time>2022-08-09T11:50:10Z</time>
      </trkpt>
      <trkpt lat="44.15273" lon="3.83881">
        <ele>324.1</ele>
        <time>2022-08-09T11:50:27Z</time>
      </trkpt>
      <trkpt lat="44.15258" lon="3.83873">
        <ele>332.27</ele>
        <time>2022-08-09T11:50:45Z</time>
      </trkpt>
      <trkpt lat="44.15246" lon="3.83865">
        <ele>338.52</ele>
        <time>2022-08-09T11:51:01Z</time>
      </trkpt>
      <trkpt lat="44.15235" lon="3.83863">
        <ele>339</ele>
        <time>2022-08-09T11:51:14Z</time>
      </trkpt>
      <trkpt lat="44.15237" lon="3.83882">
        <ele>338.52</ele>
        <time>2022-08-09T11:51:28Z</time>
      </trkpt>
      <trkpt lat="44.15248" lon="3.83899">
        <ele>340.92</ele>
        <time>2022-08-09T11:51:45Z</time>
      </trkpt>
      <trkpt lat="44.15258" lon="3.83909">
        <ele>342.85</ele>
        <time>2022-08-09T11:52:01Z</time>
      </trkpt>
      <trkpt lat="44.15273" lon="3.83921">
        <ele>343.81</ele>
        <time>2022-08-09T11:52:20Z</time>
      </trkpt>
      <trkpt lat="44.1529" lon="3.83925">
        <ele>342.85</ele>
        <time>2022-08-09T11:52:37Z</time>
      </trkpt>
      <trkpt lat="44.15294" lon="3.83934">
        <ele>340.44</ele>
        <time>2022-08-09T11:52:51Z</time>
      </trkpt>
      <trkpt lat="44.15298" lon="3.83948">
        <ele>338.04</ele>
        <time>2022-08-09T11:53:06Z</time>
      </trkpt>
      <trkpt lat="44.153" lon="3.83959">
        <ele>335.64</ele>
        <time>2022-08-09T11:53:18Z</time>
      </trkpt>
      <trkpt lat="44.153" lon="3.83974">
        <ele>336.6</ele>
        <time>2022-08-09T11:53:32Z</time>
      </trkpt>
      <trkpt lat="44.15297" lon="3.83971">
        <ele>339.96</ele>
        <time>2022-08-09T11:53:48Z</time>
      </trkpt>
      <trkpt lat="44.15288" lon="3.83961">
        <ele>343.33</ele>
        <time>2022-08-09T11:54:03Z</time>
      </trkpt>
      <trkpt lat="44.15276" lon="3.83951">
        <ele>347.17</ele>
        <time>2022-08-09T11:54:21Z</time>
      </trkpt>
      <trkpt lat="44.15268" lon="3.83946">
        <ele>349.58</ele>
        <time>2022-08-09T11:54:34Z</time>
      </trkpt>
      <trkpt lat="44.15254" lon="3.83943">
        <ele>350.54</ele>
        <time>2022-08-09T11:54:51Z</time>
      </trkpt>
      <trkpt lat="44.15241" lon="3.8394">
        <ele>351.02</ele>
        <time>2022-08-09T11:55:09Z</time>
      </trkpt>
      <trkpt lat="44.15231" lon="3.83936">
        <ele>351.5</ele>
        <time>2022-08-09T11:55:24Z</time>
      </trkpt>
      <trkpt lat="44.15221" lon="3.83931">
        <ele>353.9</ele>
        <time>2022-08-09T11:55:38Z</time>
      </trkpt>
      <trkpt lat="44.15214" lon="3.83927">
        <ele>356.31</ele>
        <time>2022-08-09T11:55:51Z</time>
      </trkpt>
      <trkpt lat="44.15206" lon="3.83925">
        <ele>358.71</ele>
        <time>2022-08-09T11:56:05Z</time>
      </trkpt>
      <trkpt lat="44.15198" lon="3.83924">
        <ele>360.15</ele>
        <time>2022-08-09T11:56:18Z</time>
      </trkpt>
      <trkpt lat="44.15186" lon="3.83921">
        <ele>364</ele>
        <time>2022-08-09T11:56:34Z</time>
      </trkpt>
      <trkpt lat="44.15175" lon="3.83917">
        <ele>367.36</ele>
        <time>2022-08-09T11:56:50Z</time>
      </trkpt>
      <trkpt lat="44.15164" lon="3.83912">
        <ele>368.8</ele>
        <time>2022-08-09T11:57:06Z</time>
      </trkpt>
      <trkpt lat="44.15158" lon="3.83906">
        <ele>370.24</ele>
        <time>2022-08-09T11:57:19Z</time>
      </trkpt>
      <trkpt lat="44.15147" lon="3.83899">
        <ele>372.65</ele>
        <time>2022-08-09T11:57:34Z</time>
      </trkpt>
      <trkpt lat="44.1514" lon="3.83894">
        <ele>374.57</ele>
        <time>2022-08-09T11:57:49Z</time>
      </trkpt>
      <trkpt lat="44.1513" lon="3.83888">
        <ele>376.49</ele>
        <time>2022-08-09T11:58:04Z</time>
      </trkpt>
      <trkpt lat="44.15127" lon="3.83884">
        <ele>376.01</ele>
        <time>2022-08-09T11:58:18Z</time>
      </trkpt>
      <trkpt lat="44.1513" lon="3.83885">
        <ele>376.49</ele>
        <time>2022-08-09T11:58:43Z</time>
      </trkpt>
      <trkpt lat="44.1512" lon="3.83883">
        <ele>376.01</ele>
        <time>2022-08-09T11:58:56Z</time>
      </trkpt>
      <trkpt lat="44.15107" lon="3.83873">
        <ele>377.94</ele>
        <time>2022-08-09T11:59:12Z</time>
      </trkpt>
      <trkpt lat="44.15098" lon="3.83862">
        <ele>381.3</ele>
        <time>2022-08-09T11:59:27Z</time>
      </trkpt>
      <trkpt lat="44.15092" lon="3.83856">
        <ele>383.22</ele>
        <time>2022-08-09T11:59:40Z</time>
      </trkpt>
      <trkpt lat="44.1508" lon="3.83851">
        <ele>385.15</ele>
        <time>2022-08-09T11:59:56Z</time>
      </trkpt>
      <trkpt lat="44.15068" lon="3.83847">
        <ele>388.03</ele>
        <time>2022-08-09T12:00:11Z</time>
      </trkpt>
      <trkpt lat="44.15063" lon="3.83849">
        <ele>387.55</ele>
        <time>2022-08-09T12:00:26Z</time>
      </trkpt>
      <trkpt lat="44.15058" lon="3.83847">
        <ele>389.47</ele>
        <time>2022-08-09T12:00:46Z</time>
      </trkpt>
      <trkpt lat="44.15048" lon="3.83841">
        <ele>391.87</ele>
        <time>2022-08-09T12:01:02Z</time>
      </trkpt>
      <trkpt lat="44.15037" lon="3.83837">
        <ele>392.84</ele>
        <time>2022-08-09T12:01:17Z</time>
      </trkpt>
      <trkpt lat="44.15026" lon="3.83833">
        <ele>395.24</ele>
        <time>2022-08-09T12:01:34Z</time>
      </trkpt>
      <trkpt lat="44.15015" lon="3.8383">
        <ele>397.16</ele>
        <time>2022-08-09T12:01:50Z</time>
      </trkpt>
      <trkpt lat="44.15005" lon="3.83823">
        <ele>400.05</ele>
        <time>2022-08-09T12:02:04Z</time>
      </trkpt>
      <trkpt lat="44.14994" lon="3.83818">
        <ele>401.97</ele>
        <time>2022-08-09T12:02:20Z</time>
      </trkpt>
      <trkpt lat="44.14984" lon="3.83813">
        <ele>404.37</ele>
        <time>2022-08-09T12:02:35Z</time>
      </trkpt>
      <trkpt lat="44.14975" lon="3.83805">
        <ele>405.33</ele>
        <time>2022-08-09T12:02:51Z</time>
      </trkpt>
      <trkpt lat="44.14964" lon="3.83797">
        <ele>406.77</ele>
        <time>2022-08-09T12:03:08Z</time>
      </trkpt>
      <trkpt lat="44.14952" lon="3.83788">
        <ele>409.66</ele>
        <time>2022-08-09T12:03:24Z</time>
      </trkpt>
      <trkpt lat="44.1494" lon="3.83783">
        <ele>410.14</ele>
        <time>2022-08-09T12:03:40Z</time>
      </trkpt>
      <trkpt lat="44.14932" lon="3.83776">
        <ele>408.7</ele>
        <time>2022-08-09T12:03:55Z</time>
      </trkpt>
      <trkpt lat="44.14922" lon="3.8377">
        <ele>411.58</ele>
        <time>2022-08-09T12:04:09Z</time>
      </trkpt>
      <trkpt lat="44.14912" lon="3.8377">
        <ele>410.14</ele>
        <time>2022-08-09T12:04:26Z</time>
      </trkpt>
      <trkpt lat="44.14898" lon="3.83766">
        <ele>411.58</ele>
        <time>2022-08-09T12:04:42Z</time>
      </trkpt>
      <trkpt lat="44.14888" lon="3.83761">
        <ele>411.1</ele>
        <time>2022-08-09T12:04:59Z</time>
      </trkpt>
      <trkpt lat="44.14875" lon="3.83756">
        <ele>413.98</ele>
        <time>2022-08-09T12:05:13Z</time>
      </trkpt>
      <trkpt lat="44.14863" lon="3.83752">
        <ele>416.39</ele>
        <time>2022-08-09T12:05:28Z</time>
      </trkpt>
      <trkpt lat="44.14852" lon="3.83743">
        <ele>422.64</ele>
        <time>2022-08-09T12:05:44Z</time>
      </trkpt>
      <trkpt lat="44.1484" lon="3.83737">
        <ele>424.56</ele>
        <time>2022-08-09T12:05:59Z</time>
      </trkpt>
      <trkpt lat="44.1483" lon="3.83731">
        <ele>426</ele>
        <time>2022-08-09T12:06:14Z</time>
      </trkpt>
      <trkpt lat="44.14818" lon="3.83727">
        <ele>428.4</ele>
        <time>2022-08-09T12:06:29Z</time>
      </trkpt>
      <trkpt lat="44.14807" lon="3.83726">
        <ele>430.33</ele>
        <time>2022-08-09T12:06:46Z</time>
      </trkpt>
      <trkpt lat="44.14807" lon="3.83715">
        <ele>434.65</ele>
        <time>2022-08-09T12:06:59Z</time>
      </trkpt>
      <trkpt lat="44.14809" lon="3.83703">
        <ele>438.5</ele>
        <time>2022-08-09T12:07:12Z</time>
      </trkpt>
      <trkpt lat="44.14807" lon="3.83685">
        <ele>442.34</ele>
        <time>2022-08-09T12:07:25Z</time>
      </trkpt>
      <trkpt lat="44.14805" lon="3.83667">
        <ele>444.75</ele>
        <time>2022-08-09T12:07:40Z</time>
      </trkpt>
      <trkpt lat="44.14796" lon="3.83652">
        <ele>444.75</ele>
        <time>2022-08-09T12:07:54Z</time>
      </trkpt>
      <trkpt lat="44.1479" lon="3.83641">
        <ele>442.82</ele>
        <time>2022-08-09T12:08:07Z</time>
      </trkpt>
      <trkpt lat="44.1478" lon="3.83631">
        <ele>442.82</ele>
        <time>2022-08-09T12:08:20Z</time>
      </trkpt>
      <trkpt lat="44.14777" lon="3.83627">
        <ele>443.31</ele>
        <time>2022-08-09T12:08:35Z</time>
      </trkpt>
      <trkpt lat="44.14778" lon="3.83625">
        <ele>443.31</ele>
        <time>2022-08-09T12:09:07Z</time>
      </trkpt>
      <trkpt lat="44.14772" lon="3.83632">
        <ele>443.79</ele>
        <time>2022-08-09T12:09:41Z</time>
      </trkpt>
      <trkpt lat="44.1477" lon="3.83642">
        <ele>444.27</ele>
        <time>2022-08-09T12:09:57Z</time>
      </trkpt>
      <trkpt lat="44.14764" lon="3.83659">
        <ele>446.67</ele>
        <time>2022-08-09T12:10:12Z</time>
      </trkpt>
      <trkpt lat="44.14757" lon="3.83677">
        <ele>449.07</ele>
        <time>2022-08-09T12:10:30Z</time>
      </trkpt>
      <trkpt lat="44.14754" lon="3.83696">
        <ele>451.48</ele>
        <time>2022-08-09T12:10:48Z</time>
      </trkpt>
      <trkpt lat="44.14749" lon="3.83708">
        <ele>453.4</ele>
        <time>2022-08-09T12:11:01Z</time>
      </trkpt>
      <trkpt lat="44.14742" lon="3.83717">
        <ele>455.32</ele>
        <time>2022-08-09T12:11:16Z</time>
      </trkpt>
      <trkpt lat="44.14733" lon="3.83714">
        <ele>458.21</ele>
        <time>2022-08-09T12:11:32Z</time>
      </trkpt>
      <trkpt lat="44.14723" lon="3.8371">
        <ele>463.97</ele>
        <time>2022-08-09T12:11:49Z</time>
      </trkpt>
      <trkpt lat="44.14721" lon="3.83707">
        <ele>464.93</ele>
        <time>2022-08-09T12:11:56Z</time>
      </trkpt>
      <trkpt lat="44.14714" lon="3.837">
        <ele>467.34</ele>
        <time>2022-08-09T12:12:10Z</time>
      </trkpt>
      <trkpt lat="44.147" lon="3.83689">
        <ele>468.78</ele>
        <time>2022-08-09T12:12:25Z</time>
      </trkpt>
      <trkpt lat="44.1469" lon="3.83682">
        <ele>469.74</ele>
        <time>2022-08-09T12:12:40Z</time>
      </trkpt>
      <trkpt lat="44.14679" lon="3.83674">
        <ele>472.14</ele>
        <time>2022-08-09T12:12:56Z</time>
      </trkpt>
      <trkpt lat="44.14667" lon="3.83667">
        <ele>472.63</ele>
        <time>2022-08-09T12:13:10Z</time>
      </trkpt>
      <trkpt lat="44.14658" lon="3.83661">
        <ele>472.14</ele>
        <time>2022-08-09T12:13:23Z</time>
      </trkpt>
      <trkpt lat="44.14649" lon="3.8365">
        <ele>472.14</ele>
        <time>2022-08-09T12:13:38Z</time>
      </trkpt>
      <trkpt lat="44.14638" lon="3.83636">
        <ele>473.59</ele>
        <time>2022-08-09T12:13:55Z</time>
      </trkpt>
      <trkpt lat="44.14635" lon="3.83625">
        <ele>475.99</ele>
        <time>2022-08-09T12:14:08Z</time>
      </trkpt>
      <trkpt lat="44.14629" lon="3.83613">
        <ele>476.47</ele>
        <time>2022-08-09T12:14:20Z</time>
      </trkpt>
      <trkpt lat="44.14623" lon="3.83601">
        <ele>476.95</ele>
        <time>2022-08-09T12:14:33Z</time>
      </trkpt>
      <trkpt lat="44.14615" lon="3.83583">
        <ele>480.8</ele>
        <time>2022-08-09T12:14:52Z</time>
      </trkpt>
      <trkpt lat="44.1461" lon="3.83566">
        <ele>484.16</ele>
        <time>2022-08-09T12:15:09Z</time>
      </trkpt>
      <trkpt lat="44.14599" lon="3.83552">
        <ele>480.8</ele>
        <time>2022-08-09T12:15:24Z</time>
      </trkpt>
      <trkpt lat="44.14589" lon="3.83533">
        <ele>483.68</ele>
        <time>2022-08-09T12:15:44Z</time>
      </trkpt>
      <trkpt lat="44.14578" lon="3.8352">
        <ele>485.6</ele>
        <time>2022-08-09T12:16:01Z</time>
      </trkpt>
      <trkpt lat="44.14562" lon="3.8351">
        <ele>486.08</ele>
        <time>2022-08-09T12:16:18Z</time>
      </trkpt>
      <trkpt lat="44.14552" lon="3.835">
        <ele>488.97</ele>
        <time>2022-08-09T12:16:35Z</time>
      </trkpt>
      <trkpt lat="44.14543" lon="3.83484">
        <ele>490.89</ele>
        <time>2022-08-09T12:16:53Z</time>
      </trkpt>
      <trkpt lat="44.14532" lon="3.83467">
        <ele>492.33</ele>
        <time>2022-08-09T12:17:13Z</time>
      </trkpt>
      <trkpt lat="44.14523" lon="3.83452">
        <ele>495.22</ele>
        <time>2022-08-09T12:17:31Z</time>
      </trkpt>
      <trkpt lat="44.14516" lon="3.83442">
        <ele>494.74</ele>
        <time>2022-08-09T12:17:43Z</time>
      </trkpt>
      <trkpt lat="44.14508" lon="3.8343">
        <ele>497.14</ele>
        <time>2022-08-09T12:17:58Z</time>
      </trkpt>
      <trkpt lat="44.14501" lon="3.83415">
        <ele>500.98</ele>
        <time>2022-08-09T12:18:14Z</time>
      </trkpt>
      <trkpt lat="44.14489" lon="3.83398">
        <ele>501.95</ele>
        <time>2022-08-09T12:18:32Z</time>
      </trkpt>
      <trkpt lat="44.14487" lon="3.83397">
        <ele>501.95</ele>
        <time>2022-08-09T12:18:34Z</time>
      </trkpt>
      <trkpt lat="44.14482" lon="3.83398">
        <ele>502.43</ele>
        <time>2022-08-09T12:18:39Z</time>
      </trkpt>
      <trkpt lat="44.14481" lon="3.83401">
        <ele>502.43</ele>
        <time>2022-08-09T12:18:41Z</time>
      </trkpt>
      <trkpt lat="44.14485" lon="3.83424">
        <ele>503.39</ele>
        <time>2022-08-09T12:18:57Z</time>
      </trkpt>
      <trkpt lat="44.1449" lon="3.83447">
        <ele>505.31</ele>
        <time>2022-08-09T12:19:14Z</time>
      </trkpt>
      <trkpt lat="44.1449" lon="3.83469">
        <ele>504.35</ele>
        <time>2022-08-09T12:19:30Z</time>
      </trkpt>
      <trkpt lat="44.1449" lon="3.83493">
        <ele>505.79</ele>
        <time>2022-08-09T12:19:47Z</time>
      </trkpt>
      <trkpt lat="44.14488" lon="3.83514">
        <ele>507.23</ele>
        <time>2022-08-09T12:20:03Z</time>
      </trkpt>
      <trkpt lat="44.14487" lon="3.83531">
        <ele>508.67</ele>
        <time>2022-08-09T12:20:17Z</time>
      </trkpt>
      <trkpt lat="44.14483" lon="3.83544">
        <ele>510.12</ele>
        <time>2022-08-09T12:20:27Z</time>
      </trkpt>
      <trkpt lat="44.14477" lon="3.8355">
        <ele>511.56</ele>
        <time>2022-08-09T12:20:35Z</time>
      </trkpt>
      <trkpt lat="44.14466" lon="3.83544">
        <ele>515.4</ele>
        <time>2022-08-09T12:20:48Z</time>
      </trkpt>
      <trkpt lat="44.14455" lon="3.83534">
        <ele>518.29</ele>
        <time>2022-08-09T12:21:05Z</time>
      </trkpt>
      <trkpt lat="44.14456" lon="3.8354">
        <ele>520.69</ele>
        <time>2022-08-09T12:21:27Z</time>
      </trkpt>
      <trkpt lat="44.14451" lon="3.83539">
        <ele>519.25</ele>
        <time>2022-08-09T12:21:39Z</time>
      </trkpt>
      <trkpt lat="44.1445" lon="3.83539">
        <ele>518.77</ele>
        <time>2022-08-09T12:22:00Z</time>
      </trkpt>
      <trkpt lat="44.14452" lon="3.83541">
        <ele>519.25</ele>
        <time>2022-08-09T12:22:20Z</time>
      </trkpt>
      <trkpt lat="44.14458" lon="3.83539">
        <ele>521.65</ele>
        <time>2022-08-09T12:22:51Z</time>
      </trkpt>
      <trkpt lat="44.14447" lon="3.83529">
        <ele>520.69</ele>
        <time>2022-08-09T12:23:05Z</time>
      </trkpt>
      <trkpt lat="44.14428" lon="3.8351">
        <ele>519.25</ele>
        <time>2022-08-09T12:23:24Z</time>
      </trkpt>
      <trkpt lat="44.14407" lon="3.83497">
        <ele>519.73</ele>
        <time>2022-08-09T12:23:39Z</time>
      </trkpt>
      <trkpt lat="44.14406" lon="3.83497">
        <ele>519.73</ele>
        <time>2022-08-09T12:23:40Z</time>
      </trkpt>
      <trkpt lat="44.14402" lon="3.83498">
        <ele>519.73</ele>
        <time>2022-08-09T12:23:44Z</time>
      </trkpt>
      <trkpt lat="44.14397" lon="3.83498">
        <ele>519.25</ele>
        <time>2022-08-09T12:23:49Z</time>
      </trkpt>
      <trkpt lat="44.14381" lon="3.83501">
        <ele>519.73</ele>
        <time>2022-08-09T12:24:04Z</time>
      </trkpt>
      <trkpt lat="44.14365" lon="3.83503">
        <ele>516.85</ele>
        <time>2022-08-09T12:24:20Z</time>
      </trkpt>
      <trkpt lat="44.14352" lon="3.83496">
        <ele>513</ele>
        <time>2022-08-09T12:24:33Z</time>
      </trkpt>
      <trkpt lat="44.14346" lon="3.83491">
        <ele>511.56</ele>
        <time>2022-08-09T12:24:40Z</time>
      </trkpt>
      <trkpt lat="44.14334" lon="3.83477">
        <ele>511.08</ele>
        <time>2022-08-09T12:24:55Z</time>
      </trkpt>
      <trkpt lat="44.14332" lon="3.83475">
        <ele>511.08</ele>
        <time>2022-08-09T12:24:57Z</time>
      </trkpt>
      <trkpt lat="44.14325" lon="3.83466">
        <ele>511.56</ele>
        <time>2022-08-09T12:25:06Z</time>
      </trkpt>
      <trkpt lat="44.14314" lon="3.83454">
        <ele>513.48</ele>
        <time>2022-08-09T12:25:20Z</time>
      </trkpt>
      <trkpt lat="44.14305" lon="3.83448">
        <ele>514.44</ele>
        <time>2022-08-09T12:25:28Z</time>
      </trkpt>
      <trkpt lat="44.143" lon="3.83447">
        <ele>514.44</ele>
        <time>2022-08-09T12:25:33Z</time>
      </trkpt>
      <trkpt lat="44.14292" lon="3.83445">
        <ele>515.4</ele>
        <time>2022-08-09T12:25:40Z</time>
      </trkpt>
      <trkpt lat="44.14284" lon="3.83447">
        <ele>516.85</ele>
        <time>2022-08-09T12:25:48Z</time>
      </trkpt>
      <trkpt lat="44.14277" lon="3.83454">
        <ele>518.29</ele>
        <time>2022-08-09T12:25:56Z</time>
      </trkpt>
      <trkpt lat="44.14262" lon="3.83452">
        <ele>517.81</ele>
        <time>2022-08-09T12:26:10Z</time>
      </trkpt>
      <trkpt lat="44.14254" lon="3.83445">
        <ele>517.81</ele>
        <time>2022-08-09T12:26:24Z</time>
      </trkpt>
      <trkpt lat="44.14239" lon="3.83435">
        <ele>520.21</ele>
        <time>2022-08-09T12:26:39Z</time>
      </trkpt>
      <trkpt lat="44.14235" lon="3.83432">
        <ele>520.21</ele>
        <time>2022-08-09T12:26:43Z</time>
      </trkpt>
      <trkpt lat="44.14227" lon="3.8343">
        <ele>519.25</ele>
        <time>2022-08-09T12:26:51Z</time>
      </trkpt>
      <trkpt lat="44.14212" lon="3.83446">
        <ele>519.73</ele>
        <time>2022-08-09T12:27:07Z</time>
      </trkpt>
      <trkpt lat="44.14196" lon="3.83463">
        <ele>522.13</ele>
        <time>2022-08-09T12:27:22Z</time>
      </trkpt>
      <trkpt lat="44.14183" lon="3.83475">
        <ele>522.13</ele>
        <time>2022-08-09T12:27:36Z</time>
      </trkpt>
      <trkpt lat="44.14168" lon="3.83487">
        <ele>523.58</ele>
        <time>2022-08-09T12:27:51Z</time>
      </trkpt>
      <trkpt lat="44.1415" lon="3.835">
        <ele>525.02</ele>
        <time>2022-08-09T12:28:08Z</time>
      </trkpt>
      <trkpt lat="44.14137" lon="3.83508">
        <ele>523.58</ele>
        <time>2022-08-09T12:28:20Z</time>
      </trkpt>
      <trkpt lat="44.14133" lon="3.83509">
        <ele>522.61</ele>
        <time>2022-08-09T12:28:24Z</time>
      </trkpt>
      <trkpt lat="44.14117" lon="3.83511">
        <ele>520.69</ele>
        <time>2022-08-09T12:28:38Z</time>
      </trkpt>
      <trkpt lat="44.14112" lon="3.83509">
        <ele>519.73</ele>
        <time>2022-08-09T12:28:42Z</time>
      </trkpt>
      <trkpt lat="44.14102" lon="3.83507">
        <ele>517.33</ele>
        <time>2022-08-09T12:28:51Z</time>
      </trkpt>
      <trkpt lat="44.14081" lon="3.835">
        <ele>513.48</ele>
        <time>2022-08-09T12:29:08Z</time>
      </trkpt>
      <trkpt lat="44.14078" lon="3.83499">
        <ele>513</ele>
        <time>2022-08-09T12:29:11Z</time>
      </trkpt>
      <trkpt lat="44.14059" lon="3.835">
        <ele>512.04</ele>
        <time>2022-08-09T12:29:27Z</time>
      </trkpt>
      <trkpt lat="44.14056" lon="3.83499">
        <ele>511.08</ele>
        <time>2022-08-09T12:29:30Z</time>
      </trkpt>
      <trkpt lat="44.14051" lon="3.835">
        <ele>510.6</ele>
        <time>2022-08-09T12:29:34Z</time>
      </trkpt>
      <trkpt lat="44.14035" lon="3.83503">
        <ele>512.04</ele>
        <time>2022-08-09T12:29:47Z</time>
      </trkpt>
      <trkpt lat="44.14028" lon="3.83502">
        <ele>512.52</ele>
        <time>2022-08-09T12:29:53Z</time>
      </trkpt>
      <trkpt lat="44.1401" lon="3.83508">
        <ele>514.92</ele>
        <time>2022-08-09T12:30:09Z</time>
      </trkpt>
      <trkpt lat="44.13997" lon="3.83512">
        <ele>518.29</ele>
        <time>2022-08-09T12:30:24Z</time>
      </trkpt>
      <trkpt lat="44.13984" lon="3.83505">
        <ele>516.37</ele>
        <time>2022-08-09T12:30:39Z</time>
      </trkpt>
      <trkpt lat="44.13971" lon="3.83501">
        <ele>515.4</ele>
        <time>2022-08-09T12:30:52Z</time>
      </trkpt>
      <trkpt lat="44.13956" lon="3.83504">
        <ele>519.73</ele>
        <time>2022-08-09T12:31:07Z</time>
      </trkpt>
      <trkpt lat="44.13945" lon="3.83505">
        <ele>520.69</ele>
        <time>2022-08-09T12:31:20Z</time>
      </trkpt>
      <trkpt lat="44.13932" lon="3.83505">
        <ele>522.61</ele>
        <time>2022-08-09T12:31:35Z</time>
      </trkpt>
      <trkpt lat="44.13927" lon="3.83501">
        <ele>522.61</ele>
        <time>2022-08-09T12:31:41Z</time>
      </trkpt>
      <trkpt lat="44.13919" lon="3.83491">
        <ele>525.02</ele>
        <time>2022-08-09T12:31:56Z</time>
      </trkpt>
      <trkpt lat="44.13914" lon="3.83478">
        <ele>529.82</ele>
        <time>2022-08-09T12:32:10Z</time>
      </trkpt>
      <trkpt lat="44.13901" lon="3.8347">
        <ele>535.11</ele>
        <time>2022-08-09T12:32:26Z</time>
      </trkpt>
      <trkpt lat="44.13883" lon="3.83475">
        <ele>538.96</ele>
        <time>2022-08-09T12:32:41Z</time>
      </trkpt>
      <trkpt lat="44.13871" lon="3.83479">
        <ele>544.24</ele>
        <time>2022-08-09T12:32:55Z</time>
      </trkpt>
      <trkpt lat="44.13859" lon="3.83486">
        <ele>545.69</ele>
        <time>2022-08-09T12:33:08Z</time>
      </trkpt>
      <trkpt lat="44.13842" lon="3.83498">
        <ele>541.84</ele>
        <time>2022-08-09T12:33:24Z</time>
      </trkpt>
      <trkpt lat="44.13831" lon="3.83494">
        <ele>536.55</ele>
        <time>2022-08-09T12:33:37Z</time>
      </trkpt>
      <trkpt lat="44.13822" lon="3.83486">
        <ele>533.19</ele>
        <time>2022-08-09T12:33:50Z</time>
      </trkpt>
      <trkpt lat="44.13813" lon="3.83478">
        <ele>528.38</ele>
        <time>2022-08-09T12:34:04Z</time>
      </trkpt>
      <trkpt lat="44.13804" lon="3.83471">
        <ele>525.98</ele>
        <time>2022-08-09T12:34:15Z</time>
      </trkpt>
      <trkpt lat="44.13787" lon="3.83462">
        <ele>528.86</ele>
        <time>2022-08-09T12:34:32Z</time>
      </trkpt>
      <trkpt lat="44.13772" lon="3.83471">
        <ele>537.99</ele>
        <time>2022-08-09T12:34:44Z</time>
      </trkpt>
      <trkpt lat="44.13769" lon="3.83474">
        <ele>539.92</ele>
        <time>2022-08-09T12:34:46Z</time>
      </trkpt>
      <trkpt lat="44.13763" lon="3.83476">
        <ele>541.84</ele>
        <time>2022-08-09T12:34:50Z</time>
      </trkpt>
      <trkpt lat="44.13748" lon="3.83489">
        <ele>548.57</ele>
        <time>2022-08-09T12:35:10Z</time>
      </trkpt>
      <trkpt lat="44.13739" lon="3.83495">
        <ele>549.05</ele>
        <time>2022-08-09T12:35:24Z</time>
      </trkpt>
      <trkpt lat="44.13728" lon="3.83504">
        <ele>550.97</ele>
        <time>2022-08-09T12:35:37Z</time>
      </trkpt>
      <trkpt lat="44.13719" lon="3.83523">
        <ele>553.86</ele>
        <time>2022-08-09T12:35:52Z</time>
      </trkpt>
      <trkpt lat="44.13712" lon="3.83538">
        <ele>558.18</ele>
        <time>2022-08-09T12:36:07Z</time>
      </trkpt>
      <trkpt lat="44.13702" lon="3.83547">
        <ele>560.11</ele>
        <time>2022-08-09T12:36:19Z</time>
      </trkpt>
      <trkpt lat="44.13691" lon="3.83559">
        <ele>562.03</ele>
        <time>2022-08-09T12:36:33Z</time>
      </trkpt>
      <trkpt lat="44.13682" lon="3.83579">
        <ele>562.99</ele>
        <time>2022-08-09T12:36:48Z</time>
      </trkpt>
      <trkpt lat="44.13681" lon="3.83602">
        <ele>564.91</ele>
        <time>2022-08-09T12:37:01Z</time>
      </trkpt>
      <trkpt lat="44.13675" lon="3.83622">
        <ele>568.28</ele>
        <time>2022-08-09T12:37:16Z</time>
      </trkpt>
      <trkpt lat="44.13671" lon="3.8364">
        <ele>566.83</ele>
        <time>2022-08-09T12:37:29Z</time>
      </trkpt>
      <trkpt lat="44.13668" lon="3.83655">
        <ele>567.32</ele>
        <time>2022-08-09T12:37:40Z</time>
      </trkpt>
      <trkpt lat="44.13664" lon="3.83676">
        <ele>569.24</ele>
        <time>2022-08-09T12:37:53Z</time>
      </trkpt>
      <trkpt lat="44.13662" lon="3.83699">
        <ele>571.16</ele>
        <time>2022-08-09T12:38:08Z</time>
      </trkpt>
      <trkpt lat="44.13658" lon="3.83716">
        <ele>573.56</ele>
        <time>2022-08-09T12:38:22Z</time>
      </trkpt>
      <trkpt lat="44.13656" lon="3.83734">
        <ele>574.04</ele>
        <time>2022-08-09T12:38:35Z</time>
      </trkpt>
      <trkpt lat="44.13647" lon="3.83754">
        <ele>573.56</ele>
        <time>2022-08-09T12:38:49Z</time>
      </trkpt>
      <trkpt lat="44.13646" lon="3.83774">
        <ele>573.08</ele>
        <time>2022-08-09T12:39:02Z</time>
      </trkpt>
      <trkpt lat="44.1364" lon="3.83796">
        <ele>575.97</ele>
        <time>2022-08-09T12:39:17Z</time>
      </trkpt>
      <trkpt lat="44.13632" lon="3.83807">
        <ele>578.37</ele>
        <time>2022-08-09T12:39:29Z</time>
      </trkpt>
      <trkpt lat="44.13633" lon="3.83827">
        <ele>579.81</ele>
        <time>2022-08-09T12:39:44Z</time>
      </trkpt>
      <trkpt lat="44.13635" lon="3.83837">
        <ele>582.7</ele>
        <time>2022-08-09T12:39:52Z</time>
      </trkpt>
      <trkpt lat="44.1364" lon="3.83862">
        <ele>585.1</ele>
        <time>2022-08-09T12:40:06Z</time>
      </trkpt>
      <trkpt lat="44.1365" lon="3.83895">
        <ele>583.66</ele>
        <time>2022-08-09T12:40:23Z</time>
      </trkpt>
      <trkpt lat="44.13654" lon="3.83912">
        <ele>586.06</ele>
        <time>2022-08-09T12:40:39Z</time>
      </trkpt>
      <trkpt lat="44.1365" lon="3.83911">
        <ele>585.1</ele>
        <time>2022-08-09T12:40:51Z</time>
      </trkpt>
      <trkpt lat="44.13651" lon="3.83909">
        <ele>583.18</ele>
        <time>2022-08-09T12:40:54Z</time>
      </trkpt>
      <trkpt lat="44.13645" lon="3.83902">
        <ele>581.25</ele>
        <time>2022-08-09T12:41:07Z</time>
      </trkpt>
      <trkpt lat="44.13636" lon="3.83894">
        <ele>587.02</ele>
        <time>2022-08-09T12:41:21Z</time>
      </trkpt>
      <trkpt lat="44.13623" lon="3.83886">
        <ele>585.58</ele>
        <time>2022-08-09T12:41:36Z</time>
      </trkpt>
      <trkpt lat="44.13623" lon="3.83897">
        <ele>585.58</ele>
        <time>2022-08-09T12:42:02Z</time>
      </trkpt>
      <trkpt lat="44.13623" lon="3.83898">
        <ele>589.91</ele>
        <time>2022-08-09T12:42:34Z</time>
      </trkpt>
      <trkpt lat="44.13623" lon="3.83903">
        <ele>592.79</ele>
        <time>2022-08-09T12:43:14Z</time>
      </trkpt>
      <trkpt lat="44.13624" lon="3.83897">
        <ele>592.31</ele>
        <time>2022-08-09T12:43:40Z</time>
      </trkpt>
      <trkpt lat="44.13624" lon="3.83895">
        <ele>590.87</ele>
        <time>2022-08-09T12:44:05Z</time>
      </trkpt>
      <trkpt lat="44.1362" lon="3.83895">
        <ele>590.87</ele>
        <time>2022-08-09T12:44:30Z</time>
      </trkpt>
      <trkpt lat="44.13615" lon="3.83901">
        <ele>592.79</ele>
        <time>2022-08-09T12:44:56Z</time>
      </trkpt>
      <trkpt lat="44.1362" lon="3.83896">
        <ele>591.83</ele>
        <time>2022-08-09T12:45:27Z</time>
      </trkpt>
      <trkpt lat="44.13612" lon="3.83886">
        <ele>584.62</ele>
        <time>2022-08-09T12:45:53Z</time>
      </trkpt>
      <trkpt lat="44.136" lon="3.83874">
        <ele>583.18</ele>
        <time>2022-08-09T12:46:11Z</time>
      </trkpt>
      <trkpt lat="44.13583" lon="3.83852">
        <ele>591.35</ele>
        <time>2022-08-09T12:46:31Z</time>
      </trkpt>
      <trkpt lat="44.13573" lon="3.83842">
        <ele>593.27</ele>
        <time>2022-08-09T12:46:46Z</time>
      </trkpt>
      <trkpt lat="44.1357" lon="3.83822">
        <ele>594.23</ele>
        <time>2022-08-09T12:47:04Z</time>
      </trkpt>
      <trkpt lat="44.13571" lon="3.83812">
        <ele>595.19</ele>
        <time>2022-08-09T12:47:10Z</time>
      </trkpt>
      <trkpt lat="44.13571" lon="3.8379">
        <ele>596.15</ele>
        <time>2022-08-09T12:47:26Z</time>
      </trkpt>
      <trkpt lat="44.13573" lon="3.83771">
        <ele>595.19</ele>
        <time>2022-08-09T12:47:41Z</time>
      </trkpt>
      <trkpt lat="44.13574" lon="3.8375">
        <ele>593.75</ele>
        <time>2022-08-09T12:47:57Z</time>
      </trkpt>
      <trkpt lat="44.13567" lon="3.83754">
        <ele>592.79</ele>
        <time>2022-08-09T12:48:06Z</time>
      </trkpt>
      <trkpt lat="44.13563" lon="3.83777">
        <ele>591.83</ele>
        <time>2022-08-09T12:48:23Z</time>
      </trkpt>
      <trkpt lat="44.13552" lon="3.83795">
        <ele>594.71</ele>
        <time>2022-08-09T12:48:39Z</time>
      </trkpt>
      <trkpt lat="44.13542" lon="3.83814">
        <ele>598.56</ele>
        <time>2022-08-09T12:48:55Z</time>
      </trkpt>
      <trkpt lat="44.13535" lon="3.83824">
        <ele>600</ele>
        <time>2022-08-09T12:49:06Z</time>
      </trkpt>
      <trkpt lat="44.1353" lon="3.83834">
        <ele>601.44</ele>
        <time>2022-08-09T12:49:14Z</time>
      </trkpt>
      <trkpt lat="44.13525" lon="3.83846">
        <ele>603.36</ele>
        <time>2022-08-09T12:49:29Z</time>
      </trkpt>
      <trkpt lat="44.13526" lon="3.83851">
        <ele>606.25</ele>
        <time>2022-08-09T12:49:48Z</time>
      </trkpt>
      <trkpt lat="44.13527" lon="3.83849">
        <ele>602.88</ele>
        <time>2022-08-09T12:50:07Z</time>
      </trkpt>
      <trkpt lat="44.13527" lon="3.83844">
        <ele>603.85</ele>
        <time>2022-08-09T12:50:26Z</time>
      </trkpt>
      <trkpt lat="44.13523" lon="3.83848">
        <ele>604.33</ele>
        <time>2022-08-09T12:50:33Z</time>
      </trkpt>
      <trkpt lat="44.13518" lon="3.83855">
        <ele>604.81</ele>
        <time>2022-08-09T12:50:39Z</time>
      </trkpt>
      <trkpt lat="44.13517" lon="3.83861">
        <ele>604.81</ele>
        <time>2022-08-09T12:50:42Z</time>
      </trkpt>
      <trkpt lat="44.13502" lon="3.83871">
        <ele>603.36</ele>
        <time>2022-08-09T12:50:57Z</time>
      </trkpt>
      <trkpt lat="44.13502" lon="3.83874">
        <ele>600</ele>
        <time>2022-08-09T12:51:07Z</time>
      </trkpt>
      <trkpt lat="44.13505" lon="3.83885">
        <ele>598.08</ele>
        <time>2022-08-09T12:51:18Z</time>
      </trkpt>
      <trkpt lat="44.13505" lon="3.83892">
        <ele>597.12</ele>
        <time>2022-08-09T12:51:24Z</time>
      </trkpt>
      <trkpt lat="44.13502" lon="3.83914">
        <ele>597.12</ele>
        <time>2022-08-09T12:51:38Z</time>
      </trkpt>
      <trkpt lat="44.135" lon="3.83943">
        <ele>593.27</ele>
        <time>2022-08-09T12:51:56Z</time>
      </trkpt>
      <trkpt lat="44.13498" lon="3.83971">
        <ele>592.79</ele>
        <time>2022-08-09T12:52:13Z</time>
      </trkpt>
      <trkpt lat="44.13497" lon="3.83991">
        <ele>592.31</ele>
        <time>2022-08-09T12:52:26Z</time>
      </trkpt>
      <trkpt lat="44.13496" lon="3.84004">
        <ele>593.27</ele>
        <time>2022-08-09T12:52:41Z</time>
      </trkpt>
      <trkpt lat="44.13495" lon="3.8402">
        <ele>592.79</ele>
        <time>2022-08-09T12:52:53Z</time>
      </trkpt>
      <trkpt lat="44.13495" lon="3.84023">
        <ele>592.79</ele>
        <time>2022-08-09T12:52:55Z</time>
      </trkpt>
      <trkpt lat="44.13493" lon="3.84053">
        <ele>592.31</ele>
        <time>2022-08-09T12:53:13Z</time>
      </trkpt>
      <trkpt lat="44.13493" lon="3.84082">
        <ele>590.39</ele>
        <time>2022-08-09T12:53:30Z</time>
      </trkpt>
      <trkpt lat="44.13493" lon="3.84098">
        <ele>588.95</ele>
        <time>2022-08-09T12:53:39Z</time>
      </trkpt>
      <trkpt lat="44.13496" lon="3.84126">
        <ele>587.5</ele>
        <time>2022-08-09T12:53:56Z</time>
      </trkpt>
      <trkpt lat="44.13497" lon="3.84132">
        <ele>586.54</ele>
        <time>2022-08-09T12:54:00Z</time>
      </trkpt>
      <trkpt lat="44.13501" lon="3.84151">
        <ele>583.18</ele>
        <time>2022-08-09T12:54:12Z</time>
      </trkpt>
      <trkpt lat="44.13505" lon="3.84174">
        <ele>580.29</ele>
        <time>2022-08-09T12:54:27Z</time>
      </trkpt>
      <trkpt lat="44.13508" lon="3.84196">
        <ele>579.81</ele>
        <time>2022-08-09T12:54:40Z</time>
      </trkpt>
      <trkpt lat="44.13509" lon="3.84201">
        <ele>580.29</ele>
        <time>2022-08-09T12:54:43Z</time>
      </trkpt>
      <trkpt lat="44.13509" lon="3.84226">
        <ele>578.85</ele>
        <time>2022-08-09T12:55:00Z</time>
      </trkpt>
      <trkpt lat="44.13508" lon="3.84237">
        <ele>578.85</ele>
        <time>2022-08-09T12:55:08Z</time>
      </trkpt>
      <trkpt lat="44.13504" lon="3.84256">
        <ele>578.85</ele>
        <time>2022-08-09T12:55:22Z</time>
      </trkpt>
      <trkpt lat="44.135" lon="3.84271">
        <ele>578.85</ele>
        <time>2022-08-09T12:55:30Z</time>
      </trkpt>
      <trkpt lat="44.135" lon="3.84281">
        <ele>578.85</ele>
        <time>2022-08-09T12:55:35Z</time>
      </trkpt>
      <trkpt lat="44.13491" lon="3.84305">
        <ele>581.25</ele>
        <time>2022-08-09T12:55:49Z</time>
      </trkpt>
      <trkpt lat="44.13482" lon="3.84324">
        <ele>583.18</ele>
        <time>2022-08-09T12:56:03Z</time>
      </trkpt>
      <trkpt lat="44.13478" lon="3.84329">
        <ele>584.14</ele>
        <time>2022-08-09T12:56:07Z</time>
      </trkpt>
      <trkpt lat="44.13476" lon="3.84331">
        <ele>584.14</ele>
        <time>2022-08-09T12:56:10Z</time>
      </trkpt>
      <trkpt lat="44.13466" lon="3.84346">
        <ele>584.62</ele>
        <time>2022-08-09T12:56:25Z</time>
      </trkpt>
      <trkpt lat="44.13461" lon="3.84361">
        <ele>588.95</ele>
        <time>2022-08-09T12:56:39Z</time>
      </trkpt>
      <trkpt lat="44.13458" lon="3.8438">
        <ele>589.43</ele>
        <time>2022-08-09T12:56:54Z</time>
      </trkpt>
      <trkpt lat="44.13459" lon="3.84403">
        <ele>587.5</ele>
        <time>2022-08-09T12:57:12Z</time>
      </trkpt>
      <trkpt lat="44.13469" lon="3.84419">
        <ele>589.91</ele>
        <time>2022-08-09T12:57:30Z</time>
      </trkpt>
      <trkpt lat="44.13481" lon="3.84424">
        <ele>591.83</ele>
        <time>2022-08-09T12:57:44Z</time>
      </trkpt>
      <trkpt lat="44.13495" lon="3.84428">
        <ele>593.75</ele>
        <time>2022-08-09T12:57:59Z</time>
      </trkpt>
      <trkpt lat="44.13506" lon="3.84434">
        <ele>595.67</ele>
        <time>2022-08-09T12:58:13Z</time>
      </trkpt>
      <trkpt lat="44.13516" lon="3.84448">
        <ele>596.64</ele>
        <time>2022-08-09T12:58:28Z</time>
      </trkpt>
      <trkpt lat="44.13529" lon="3.84463">
        <ele>595.19</ele>
        <time>2022-08-09T12:58:45Z</time>
      </trkpt>
      <trkpt lat="44.13537" lon="3.84478">
        <ele>595.19</ele>
        <time>2022-08-09T12:59:00Z</time>
      </trkpt>
      <trkpt lat="44.13538" lon="3.84482">
        <ele>595.19</ele>
        <time>2022-08-09T12:59:02Z</time>
      </trkpt>
      <trkpt lat="44.13539" lon="3.84503">
        <ele>596.15</ele>
        <time>2022-08-09T12:59:16Z</time>
      </trkpt>
      <trkpt lat="44.13538" lon="3.84514">
        <ele>596.64</ele>
        <time>2022-08-09T12:59:24Z</time>
      </trkpt>
      <trkpt lat="44.13535" lon="3.8453">
        <ele>597.12</ele>
        <time>2022-08-09T12:59:36Z</time>
      </trkpt>
      <trkpt lat="44.13534" lon="3.8455">
        <ele>597.6</ele>
        <time>2022-08-09T12:59:50Z</time>
      </trkpt>
      <trkpt lat="44.13537" lon="3.84571">
        <ele>597.6</ele>
        <time>2022-08-09T13:00:06Z</time>
      </trkpt>
      <trkpt lat="44.13546" lon="3.84586">
        <ele>599.04</ele>
        <time>2022-08-09T13:00:21Z</time>
      </trkpt>
      <trkpt lat="44.1356" lon="3.84601">
        <ele>600.96</ele>
        <time>2022-08-09T13:00:37Z</time>
      </trkpt>
      <trkpt lat="44.13569" lon="3.84614">
        <ele>600.96</ele>
        <time>2022-08-09T13:00:50Z</time>
      </trkpt>
      <trkpt lat="44.13578" lon="3.8463">
        <ele>600.96</ele>
        <time>2022-08-09T13:01:06Z</time>
      </trkpt>
      <trkpt lat="44.13584" lon="3.84651">
        <ele>601.44</ele>
        <time>2022-08-09T13:01:23Z</time>
      </trkpt>
      <trkpt lat="44.1359" lon="3.84667">
        <ele>603.85</ele>
        <time>2022-08-09T13:01:40Z</time>
      </trkpt>
      <trkpt lat="44.13593" lon="3.84682">
        <ele>608.65</ele>
        <time>2022-08-09T13:01:53Z</time>
      </trkpt>
      <trkpt lat="44.13595" lon="3.84696">
        <ele>612.02</ele>
        <time>2022-08-09T13:02:08Z</time>
      </trkpt>
      <trkpt lat="44.13595" lon="3.84712">
        <ele>613.46</ele>
        <time>2022-08-09T13:02:25Z</time>
      </trkpt>
      <trkpt lat="44.1359" lon="3.84722">
        <ele>614.9</ele>
        <time>2022-08-09T13:02:41Z</time>
      </trkpt>
      <trkpt lat="44.13592" lon="3.84736">
        <ele>616.34</ele>
        <time>2022-08-09T13:02:58Z</time>
      </trkpt>
      <trkpt lat="44.13588" lon="3.8475">
        <ele>619.71</ele>
        <time>2022-08-09T13:03:17Z</time>
      </trkpt>
      <trkpt lat="44.13585" lon="3.84769">
        <ele>624.51</ele>
        <time>2022-08-09T13:03:36Z</time>
      </trkpt>
      <trkpt lat="44.13581" lon="3.84782">
        <ele>629.32</ele>
        <time>2022-08-09T13:03:52Z</time>
      </trkpt>
      <trkpt lat="44.13574" lon="3.84791">
        <ele>630.76</ele>
        <time>2022-08-09T13:04:05Z</time>
      </trkpt>
      <trkpt lat="44.13563" lon="3.84803">
        <ele>630.28</ele>
        <time>2022-08-09T13:04:20Z</time>
      </trkpt>
      <trkpt lat="44.13548" lon="3.8481">
        <ele>628.36</ele>
        <time>2022-08-09T13:04:34Z</time>
      </trkpt>
      <trkpt lat="44.13533" lon="3.84818">
        <ele>626.92</ele>
        <time>2022-08-09T13:04:48Z</time>
      </trkpt>
      <trkpt lat="44.13522" lon="3.84819">
        <ele>625.47</ele>
        <time>2022-08-09T13:05:03Z</time>
      </trkpt>
      <trkpt lat="44.13514" lon="3.84822">
        <ele>622.11</ele>
        <time>2022-08-09T13:05:16Z</time>
      </trkpt>
      <trkpt lat="44.13504" lon="3.84828">
        <ele>621.63</ele>
        <time>2022-08-09T13:05:29Z</time>
      </trkpt>
      <trkpt lat="44.13493" lon="3.84835">
        <ele>622.11</ele>
        <time>2022-08-09T13:05:46Z</time>
      </trkpt>
      <trkpt lat="44.13489" lon="3.84842">
        <ele>621.63</ele>
        <time>2022-08-09T13:05:54Z</time>
      </trkpt>
      <trkpt lat="44.13476" lon="3.84849">
        <ele>621.15</ele>
        <time>2022-08-09T13:06:07Z</time>
      </trkpt>
      <trkpt lat="44.13461" lon="3.84858">
        <ele>617.78</ele>
        <time>2022-08-09T13:06:25Z</time>
      </trkpt>
      <trkpt lat="44.13453" lon="3.8486">
        <ele>615.86</ele>
        <time>2022-08-09T13:06:37Z</time>
      </trkpt>
      <trkpt lat="44.13444" lon="3.8486">
        <ele>616.34</ele>
        <time>2022-08-09T13:06:50Z</time>
      </trkpt>
      <trkpt lat="44.13435" lon="3.84866">
        <ele>619.71</ele>
        <time>2022-08-09T13:07:05Z</time>
      </trkpt>
      <trkpt lat="44.13427" lon="3.84869">
        <ele>618.26</ele>
        <time>2022-08-09T13:07:20Z</time>
      </trkpt>
      <trkpt lat="44.13422" lon="3.84875">
        <ele>617.78</ele>
        <time>2022-08-09T13:07:35Z</time>
      </trkpt>
      <trkpt lat="44.13413" lon="3.84884">
        <ele>619.23</ele>
        <time>2022-08-09T13:07:48Z</time>
      </trkpt>
      <trkpt lat="44.13407" lon="3.84893">
        <ele>618.26</ele>
        <time>2022-08-09T13:08:02Z</time>
      </trkpt>
      <trkpt lat="44.13396" lon="3.84903">
        <ele>619.23</ele>
        <time>2022-08-09T13:08:17Z</time>
      </trkpt>
      <trkpt lat="44.13385" lon="3.84914">
        <ele>621.63</ele>
        <time>2022-08-09T13:08:33Z</time>
      </trkpt>
      <trkpt lat="44.1338" lon="3.84916">
        <ele>622.11</ele>
        <time>2022-08-09T13:08:52Z</time>
      </trkpt>
      <trkpt lat="44.1338" lon="3.84924">
        <ele>621.63</ele>
        <time>2022-08-09T13:09:08Z</time>
      </trkpt>
      <trkpt lat="44.13376" lon="3.84932">
        <ele>622.11</ele>
        <time>2022-08-09T13:09:21Z</time>
      </trkpt>
      <trkpt lat="44.13368" lon="3.84932">
        <ele>621.63</ele>
        <time>2022-08-09T13:09:37Z</time>
      </trkpt>
      <trkpt lat="44.13366" lon="3.84935">
        <ele>623.07</ele>
        <time>2022-08-09T13:10:00Z</time>
      </trkpt>
      <trkpt lat="44.13365" lon="3.8494">
        <ele>625.47</ele>
        <time>2022-08-09T13:10:23Z</time>
      </trkpt>
      <trkpt lat="44.13365" lon="3.84941">
        <ele>628.36</ele>
        <time>2022-08-09T13:10:49Z</time>
      </trkpt>
      <trkpt lat="44.13364" lon="3.84952">
        <ele>627.4</ele>
        <time>2022-08-09T13:11:04Z</time>
      </trkpt>
      <trkpt lat="44.13355" lon="3.84961">
        <ele>628.36</ele>
        <time>2022-08-09T13:11:18Z</time>
      </trkpt>
      <trkpt lat="44.13345" lon="3.8498">
        <ele>628.36</ele>
        <time>2022-08-09T13:11:36Z</time>
      </trkpt>
      <trkpt lat="44.13348" lon="3.84989">
        <ele>628.36</ele>
        <time>2022-08-09T13:11:49Z</time>
      </trkpt>
      <trkpt lat="44.13349" lon="3.85003">
        <ele>624.99</ele>
        <time>2022-08-09T13:12:05Z</time>
      </trkpt>
      <trkpt lat="44.13348" lon="3.85017">
        <ele>622.59</ele>
        <time>2022-08-09T13:12:17Z</time>
      </trkpt>
      <trkpt lat="44.13345" lon="3.8503">
        <ele>618.75</ele>
        <time>2022-08-09T13:12:31Z</time>
      </trkpt>
      <trkpt lat="44.13348" lon="3.85044">
        <ele>616.34</ele>
        <time>2022-08-09T13:12:45Z</time>
      </trkpt>
      <trkpt lat="44.13343" lon="3.85061">
        <ele>616.34</ele>
        <time>2022-08-09T13:13:00Z</time>
      </trkpt>
      <trkpt lat="44.13344" lon="3.85074">
        <ele>615.38</ele>
        <time>2022-08-09T13:13:13Z</time>
      </trkpt>
      <trkpt lat="44.1334" lon="3.85092">
        <ele>613.46</ele>
        <time>2022-08-09T13:13:28Z</time>
      </trkpt>
      <trkpt lat="44.13334" lon="3.85103">
        <ele>613.94</ele>
        <time>2022-08-09T13:13:43Z</time>
      </trkpt>
      <trkpt lat="44.13325" lon="3.85108">
        <ele>611.06</ele>
        <time>2022-08-09T13:14:00Z</time>
      </trkpt>
      <trkpt lat="44.1332" lon="3.85103">
        <ele>608.65</ele>
        <time>2022-08-09T13:14:14Z</time>
      </trkpt>
      <trkpt lat="44.13317" lon="3.85106">
        <ele>606.25</ele>
        <time>2022-08-09T13:14:26Z</time>
      </trkpt>
      <trkpt lat="44.13314" lon="3.85116">
        <ele>605.29</ele>
        <time>2022-08-09T13:14:35Z</time>
      </trkpt>
      <trkpt lat="44.1331" lon="3.85131">
        <ele>603.36</ele>
        <time>2022-08-09T13:14:49Z</time>
      </trkpt>
      <trkpt lat="44.13301" lon="3.85134">
        <ele>602.88</ele>
        <time>2022-08-09T13:15:02Z</time>
      </trkpt>
      <trkpt lat="44.13298" lon="3.85139">
        <ele>599.52</ele>
        <time>2022-08-09T13:15:15Z</time>
      </trkpt>
      <trkpt lat="44.13296" lon="3.85151">
        <ele>598.08</ele>
        <time>2022-08-09T13:15:28Z</time>
      </trkpt>
      <trkpt lat="44.13284" lon="3.85162">
        <ele>598.08</ele>
        <time>2022-08-09T13:15:43Z</time>
      </trkpt>
      <trkpt lat="44.13274" lon="3.85173">
        <ele>597.6</ele>
        <time>2022-08-09T13:15:58Z</time>
      </trkpt>
      <trkpt lat="44.13264" lon="3.85179">
        <ele>595.19</ele>
        <time>2022-08-09T13:16:16Z</time>
      </trkpt>
      <trkpt lat="44.13257" lon="3.85178">
        <ele>593.27</ele>
        <time>2022-08-09T13:16:31Z</time>
      </trkpt>
      <trkpt lat="44.1325" lon="3.85185">
        <ele>591.35</ele>
        <time>2022-08-09T13:16:43Z</time>
      </trkpt>
      <trkpt lat="44.13241" lon="3.85191">
        <ele>589.91</ele>
        <time>2022-08-09T13:16:56Z</time>
      </trkpt>
      <trkpt lat="44.13235" lon="3.85193">
        <ele>588.46</ele>
        <time>2022-08-09T13:17:09Z</time>
      </trkpt>
      <trkpt lat="44.13225" lon="3.85197">
        <ele>585.1</ele>
        <time>2022-08-09T13:17:24Z</time>
      </trkpt>
      <trkpt lat="44.13217" lon="3.85202">
        <ele>582.22</ele>
        <time>2022-08-09T13:17:39Z</time>
      </trkpt>
      <trkpt lat="44.1321" lon="3.85213">
        <ele>581.73</ele>
        <time>2022-08-09T13:17:53Z</time>
      </trkpt>
      <trkpt lat="44.13201" lon="3.85214">
        <ele>580.29</ele>
        <time>2022-08-09T13:18:07Z</time>
      </trkpt>
      <trkpt lat="44.13191" lon="3.85214">
        <ele>577.41</ele>
        <time>2022-08-09T13:18:22Z</time>
      </trkpt>
      <trkpt lat="44.13183" lon="3.85228">
        <ele>575.49</ele>
        <time>2022-08-09T13:18:37Z</time>
      </trkpt>
      <trkpt lat="44.13174" lon="3.85244">
        <ele>574.04</ele>
        <time>2022-08-09T13:18:50Z</time>
      </trkpt>
      <trkpt lat="44.13164" lon="3.85255">
        <ele>572.12</ele>
        <time>2022-08-09T13:19:05Z</time>
      </trkpt>
      <trkpt lat="44.13153" lon="3.85269">
        <ele>574.53</ele>
        <time>2022-08-09T13:19:19Z</time>
      </trkpt>
      <trkpt lat="44.13143" lon="3.8528">
        <ele>576.45</ele>
        <time>2022-08-09T13:19:33Z</time>
      </trkpt>
      <trkpt lat="44.13136" lon="3.85299">
        <ele>579.33</ele>
        <time>2022-08-09T13:19:49Z</time>
      </trkpt>
      <trkpt lat="44.13132" lon="3.85316">
        <ele>581.25</ele>
        <time>2022-08-09T13:20:03Z</time>
      </trkpt>
      <trkpt lat="44.13127" lon="3.85337">
        <ele>582.7</ele>
        <time>2022-08-09T13:20:18Z</time>
      </trkpt>
      <trkpt lat="44.13124" lon="3.85356">
        <ele>581.25</ele>
        <time>2022-08-09T13:20:33Z</time>
      </trkpt>
      <trkpt lat="44.13124" lon="3.8537">
        <ele>578.85</ele>
        <time>2022-08-09T13:20:48Z</time>
      </trkpt>
      <trkpt lat="44.13124" lon="3.85387">
        <ele>579.81</ele>
        <time>2022-08-09T13:21:03Z</time>
      </trkpt>
      <trkpt lat="44.13118" lon="3.85411">
        <ele>583.66</ele>
        <time>2022-08-09T13:21:21Z</time>
      </trkpt>
      <trkpt lat="44.13116" lon="3.85425">
        <ele>585.58</ele>
        <time>2022-08-09T13:21:36Z</time>
      </trkpt>
      <trkpt lat="44.1312" lon="3.85446">
        <ele>590.39</ele>
        <time>2022-08-09T13:21:49Z</time>
      </trkpt>
      <trkpt lat="44.13109" lon="3.85454">
        <ele>589.91</ele>
        <time>2022-08-09T13:22:05Z</time>
      </trkpt>
      <trkpt lat="44.13107" lon="3.85472">
        <ele>594.23</ele>
        <time>2022-08-09T13:22:21Z</time>
      </trkpt>
      <trkpt lat="44.13105" lon="3.85487">
        <ele>598.08</ele>
        <time>2022-08-09T13:22:38Z</time>
      </trkpt>
      <trkpt lat="44.13101" lon="3.85504">
        <ele>600.48</ele>
        <time>2022-08-09T13:22:58Z</time>
      </trkpt>
      <trkpt lat="44.13096" lon="3.85516">
        <ele>605.29</ele>
        <time>2022-08-09T13:23:15Z</time>
      </trkpt>
      <trkpt lat="44.13089" lon="3.85526">
        <ele>609.13</ele>
        <time>2022-08-09T13:23:34Z</time>
      </trkpt>
      <trkpt lat="44.13083" lon="3.85538">
        <ele>612.5</ele>
        <time>2022-08-09T13:23:55Z</time>
      </trkpt>
      <trkpt lat="44.13081" lon="3.85549">
        <ele>614.9</ele>
        <time>2022-08-09T13:24:10Z</time>
      </trkpt>
      <trkpt lat="44.13077" lon="3.85566">
        <ele>616.34</ele>
        <time>2022-08-09T13:24:30Z</time>
      </trkpt>
      <trkpt lat="44.13071" lon="3.85578">
        <ele>614.9</ele>
        <time>2022-08-09T13:24:48Z</time>
      </trkpt>
      <trkpt lat="44.13066" lon="3.85588">
        <ele>618.75</ele>
        <time>2022-08-09T13:25:05Z</time>
      </trkpt>
      <trkpt lat="44.13057" lon="3.85597">
        <ele>625.96</ele>
        <time>2022-08-09T13:25:23Z</time>
      </trkpt>
      <trkpt lat="44.13052" lon="3.85613">
        <ele>629.32</ele>
        <time>2022-08-09T13:25:43Z</time>
      </trkpt>
      <trkpt lat="44.13042" lon="3.85618">
        <ele>630.76</ele>
        <time>2022-08-09T13:26:00Z</time>
      </trkpt>
      <trkpt lat="44.13029" lon="3.85626">
        <ele>635.09</ele>
        <time>2022-08-09T13:26:16Z</time>
      </trkpt>
      <trkpt lat="44.13019" lon="3.85638">
        <ele>634.13</ele>
        <time>2022-08-09T13:26:32Z</time>
      </trkpt>
      <trkpt lat="44.13014" lon="3.85654">
        <ele>636.53</ele>
        <time>2022-08-09T13:26:47Z</time>
      </trkpt>
      <trkpt lat="44.13009" lon="3.85662">
        <ele>640.38</ele>
        <time>2022-08-09T13:27:01Z</time>
      </trkpt>
      <trkpt lat="44.13009" lon="3.85662">
        <ele>640.86</ele>
        <time>2022-08-09T13:27:30Z</time>
      </trkpt>
      <trkpt lat="44.13009" lon="3.85663">
        <ele>640.86</ele>
        <time>2022-08-09T13:27:58Z</time>
      </trkpt>
      <trkpt lat="44.13003" lon="3.85669">
        <ele>637.49</ele>
        <time>2022-08-09T13:28:22Z</time>
      </trkpt>
      <trkpt lat="44.1299" lon="3.85677">
        <ele>634.61</ele>
        <time>2022-08-09T13:28:35Z</time>
      </trkpt>
      <trkpt lat="44.12979" lon="3.85691">
        <ele>632.68</ele>
        <time>2022-08-09T13:28:49Z</time>
      </trkpt>
      <trkpt lat="44.1298" lon="3.85705">
        <ele>630.76</ele>
        <time>2022-08-09T13:29:03Z</time>
      </trkpt>
      <trkpt lat="44.12988" lon="3.85717">
        <ele>628.84</ele>
        <time>2022-08-09T13:29:17Z</time>
      </trkpt>
      <trkpt lat="44.13001" lon="3.85723">
        <ele>627.88</ele>
        <time>2022-08-09T13:29:34Z</time>
      </trkpt>
      <trkpt lat="44.12992" lon="3.85714">
        <ele>625.96</ele>
        <time>2022-08-09T13:29:52Z</time>
      </trkpt>
      <trkpt lat="44.1298" lon="3.857">
        <ele>624.99</ele>
        <time>2022-08-09T13:30:08Z</time>
      </trkpt>
      <trkpt lat="44.12979" lon="3.85688">
        <ele>624.99</ele>
        <time>2022-08-09T13:30:22Z</time>
      </trkpt>
      <trkpt lat="44.12988" lon="3.85676">
        <ele>630.28</ele>
        <time>2022-08-09T13:30:37Z</time>
      </trkpt>
      <trkpt lat="44.12996" lon="3.85673">
        <ele>634.13</ele>
        <time>2022-08-09T13:30:50Z</time>
      </trkpt>
      <trkpt lat="44.13007" lon="3.85668">
        <ele>635.09</ele>
        <time>2022-08-09T13:31:04Z</time>
      </trkpt>
      <trkpt lat="44.1301" lon="3.85664">
        <ele>637.01</ele>
        <time>2022-08-09T13:31:22Z</time>
      </trkpt>
      <trkpt lat="44.13012" lon="3.85655">
        <ele>636.05</ele>
        <time>2022-08-09T13:31:50Z</time>
      </trkpt>
      <trkpt lat="44.13007" lon="3.85648">
        <ele>642.78</ele>
        <time>2022-08-09T13:32:13Z</time>
      </trkpt>
      <trkpt lat="44.13007" lon="3.8565">
        <ele>640.86</ele>
        <time>2022-08-09T13:32:39Z</time>
      </trkpt>
      <trkpt lat="44.13012" lon="3.85655">
        <ele>636.05</ele>
        <time>2022-08-09T13:33:10Z</time>
      </trkpt>
      <trkpt lat="44.13018" lon="3.85648">
        <ele>634.13</ele>
        <time>2022-08-09T13:33:39Z</time>
      </trkpt>
      <trkpt lat="44.13" lon="3.85659">
        <ele>627.88</ele>
        <time>2022-08-09T13:33:55Z</time>
      </trkpt>
      <trkpt lat="44.12996" lon="3.85663">
        <ele>628.36</ele>
        <time>2022-08-09T13:34:00Z</time>
      </trkpt>
      <trkpt lat="44.1298" lon="3.85681">
        <ele>628.36</ele>
        <time>2022-08-09T13:34:17Z</time>
      </trkpt>
      <trkpt lat="44.12979" lon="3.85685">
        <ele>628.36</ele>
        <time>2022-08-09T13:34:20Z</time>
      </trkpt>
      <trkpt lat="44.12981" lon="3.85705">
        <ele>626.44</ele>
        <time>2022-08-09T13:34:36Z</time>
      </trkpt>
      <trkpt lat="44.1299" lon="3.85714">
        <ele>625.96</ele>
        <time>2022-08-09T13:34:48Z</time>
      </trkpt>
      <trkpt lat="44.12997" lon="3.85719">
        <ele>625.96</ele>
        <time>2022-08-09T13:34:56Z</time>
      </trkpt>
      <trkpt lat="44.13014" lon="3.85726">
        <ele>626.44</ele>
        <time>2022-08-09T13:35:11Z</time>
      </trkpt>
      <trkpt lat="44.13033" lon="3.85733">
        <ele>626.44</ele>
        <time>2022-08-09T13:35:27Z</time>
      </trkpt>
      <trkpt lat="44.13034" lon="3.85738">
        <ele>625.96</ele>
        <time>2022-08-09T13:35:31Z</time>
      </trkpt>
      <trkpt lat="44.13024" lon="3.85755">
        <ele>621.15</ele>
        <time>2022-08-09T13:35:49Z</time>
      </trkpt>
      <trkpt lat="44.13028" lon="3.85769">
        <ele>618.75</ele>
        <time>2022-08-09T13:36:01Z</time>
      </trkpt>
      <trkpt lat="44.13035" lon="3.85782">
        <ele>612.5</ele>
        <time>2022-08-09T13:36:13Z</time>
      </trkpt>
      <trkpt lat="44.13047" lon="3.85804">
        <ele>607.69</ele>
        <time>2022-08-09T13:36:29Z</time>
      </trkpt>
      <trkpt lat="44.13057" lon="3.85819">
        <ele>604.81</ele>
        <time>2022-08-09T13:36:42Z</time>
      </trkpt>
      <trkpt lat="44.13064" lon="3.85835">
        <ele>601.44</ele>
        <time>2022-08-09T13:36:55Z</time>
      </trkpt>
      <trkpt lat="44.13075" lon="3.8585">
        <ele>598.08</ele>
        <time>2022-08-09T13:37:09Z</time>
      </trkpt>
      <trkpt lat="44.13089" lon="3.8586">
        <ele>595.67</ele>
        <time>2022-08-09T13:37:24Z</time>
      </trkpt>
      <trkpt lat="44.13091" lon="3.85863">
        <ele>595.19</ele>
        <time>2022-08-09T13:37:26Z</time>
      </trkpt>
      <trkpt lat="44.13104" lon="3.85874">
        <ele>593.27</ele>
        <time>2022-08-09T13:37:41Z</time>
      </trkpt>
      <trkpt lat="44.1311" lon="3.85887">
        <ele>589.91</ele>
        <time>2022-08-09T13:37:53Z</time>
      </trkpt>
      <trkpt lat="44.13121" lon="3.85901">
        <ele>587.02</ele>
        <time>2022-08-09T13:38:08Z</time>
      </trkpt>
      <trkpt lat="44.13132" lon="3.8591">
        <ele>583.66</ele>
        <time>2022-08-09T13:38:22Z</time>
      </trkpt>
      <trkpt lat="44.13145" lon="3.85925">
        <ele>579.81</ele>
        <time>2022-08-09T13:38:37Z</time>
      </trkpt>
      <trkpt lat="44.13157" lon="3.85941">
        <ele>576.93</ele>
        <time>2022-08-09T13:38:53Z</time>
      </trkpt>
      <trkpt lat="44.13165" lon="3.85956">
        <ele>572.12</ele>
        <time>2022-08-09T13:39:07Z</time>
      </trkpt>
      <trkpt lat="44.13171" lon="3.8597">
        <ele>565.87</ele>
        <time>2022-08-09T13:39:23Z</time>
      </trkpt>
      <trkpt lat="44.13179" lon="3.85983">
        <ele>561.55</ele>
        <time>2022-08-09T13:39:40Z</time>
      </trkpt>
      <trkpt lat="44.13187" lon="3.85992">
        <ele>557.7</ele>
        <time>2022-08-09T13:39:55Z</time>
      </trkpt>
      <trkpt lat="44.13195" lon="3.86">
        <ele>555.3</ele>
        <time>2022-08-09T13:40:07Z</time>
      </trkpt>
      <trkpt lat="44.13199" lon="3.86005">
        <ele>554.82</ele>
        <time>2022-08-09T13:40:12Z</time>
      </trkpt>
      <trkpt lat="44.13209" lon="3.86021">
        <ele>552.9</ele>
        <time>2022-08-09T13:40:27Z</time>
      </trkpt>
      <trkpt lat="44.1322" lon="3.86038">
        <ele>550.49</ele>
        <time>2022-08-09T13:40:43Z</time>
      </trkpt>
      <trkpt lat="44.13231" lon="3.86056">
        <ele>547.13</ele>
        <time>2022-08-09T13:41:00Z</time>
      </trkpt>
      <trkpt lat="44.13235" lon="3.86062">
        <ele>546.17</ele>
        <time>2022-08-09T13:41:06Z</time>
      </trkpt>
      <trkpt lat="44.13253" lon="3.86074">
        <ele>545.2</ele>
        <time>2022-08-09T13:41:25Z</time>
      </trkpt>
      <trkpt lat="44.13268" lon="3.86085">
        <ele>543.76</ele>
        <time>2022-08-09T13:41:41Z</time>
      </trkpt>
      <trkpt lat="44.13282" lon="3.861">
        <ele>539.92</ele>
        <time>2022-08-09T13:41:58Z</time>
      </trkpt>
      <trkpt lat="44.13286" lon="3.86108">
        <ele>537.99</ele>
        <time>2022-08-09T13:42:05Z</time>
      </trkpt>
      <trkpt lat="44.13296" lon="3.86128">
        <ele>534.63</ele>
        <time>2022-08-09T13:42:21Z</time>
      </trkpt>
      <trkpt lat="44.13305" lon="3.86141">
        <ele>531.27</ele>
        <time>2022-08-09T13:42:36Z</time>
      </trkpt>
      <trkpt lat="44.13311" lon="3.86158">
        <ele>529.82</ele>
        <time>2022-08-09T13:42:51Z</time>
      </trkpt>
      <trkpt lat="44.1331" lon="3.86171">
        <ele>529.34</ele>
        <time>2022-08-09T13:43:00Z</time>
      </trkpt>
      <trkpt lat="44.133" lon="3.86183">
        <ele>530.79</ele>
        <time>2022-08-09T13:43:13Z</time>
      </trkpt>
      <trkpt lat="44.13284" lon="3.86193">
        <ele>528.38</ele>
        <time>2022-08-09T13:43:30Z</time>
      </trkpt>
      <trkpt lat="44.13266" lon="3.86207">
        <ele>524.06</ele>
        <time>2022-08-09T13:43:48Z</time>
      </trkpt>
      <trkpt lat="44.13253" lon="3.8622">
        <ele>519.25</ele>
        <time>2022-08-09T13:44:05Z</time>
      </trkpt>
      <trkpt lat="44.13241" lon="3.86231">
        <ele>515.4</ele>
        <time>2022-08-09T13:44:19Z</time>
      </trkpt>
      <trkpt lat="44.13227" lon="3.86242">
        <ele>513</ele>
        <time>2022-08-09T13:44:35Z</time>
      </trkpt>
      <trkpt lat="44.13226" lon="3.86243">
        <ele>513</ele>
        <time>2022-08-09T13:44:36Z</time>
      </trkpt>
      <trkpt lat="44.13212" lon="3.86253">
        <ele>511.56</ele>
        <time>2022-08-09T13:44:53Z</time>
      </trkpt>
      <trkpt lat="44.13205" lon="3.86269">
        <ele>508.19</ele>
        <time>2022-08-09T13:45:09Z</time>
      </trkpt>
      <trkpt lat="44.13197" lon="3.86289">
        <ele>507.23</ele>
        <time>2022-08-09T13:45:24Z</time>
      </trkpt>
      <trkpt lat="44.1319" lon="3.86301">
        <ele>506.27</ele>
        <time>2022-08-09T13:45:37Z</time>
      </trkpt>
      <trkpt lat="44.13183" lon="3.86323">
        <ele>501.46</ele>
        <time>2022-08-09T13:45:53Z</time>
      </trkpt>
      <trkpt lat="44.13186" lon="3.86332">
        <ele>499.54</ele>
        <time>2022-08-09T13:46:06Z</time>
      </trkpt>
      <trkpt lat="44.13186" lon="3.86333">
        <ele>498.1</ele>
        <time>2022-08-09T13:46:33Z</time>
      </trkpt>
      <trkpt lat="44.1319" lon="3.8633">
        <ele>500.02</ele>
        <time>2022-08-09T13:47:01Z</time>
      </trkpt>
      <trkpt lat="44.1319" lon="3.8633">
        <ele>500.5</ele>
        <time>2022-08-09T13:47:27Z</time>
      </trkpt>
      <trkpt lat="44.13186" lon="3.86327">
        <ele>498.1</ele>
        <time>2022-08-09T13:47:59Z</time>
      </trkpt>
      <trkpt lat="44.13185" lon="3.86342">
        <ele>497.14</ele>
        <time>2022-08-09T13:48:13Z</time>
      </trkpt>
      <trkpt lat="44.13187" lon="3.86363">
        <ele>495.22</ele>
        <time>2022-08-09T13:48:31Z</time>
      </trkpt>
      <trkpt lat="44.13182" lon="3.86384">
        <ele>495.22</ele>
        <time>2022-08-09T13:48:47Z</time>
      </trkpt>
      <trkpt lat="44.13177" lon="3.864">
        <ele>492.81</ele>
        <time>2022-08-09T13:49:01Z</time>
      </trkpt>
      <trkpt lat="44.1317" lon="3.86424">
        <ele>488.97</ele>
        <time>2022-08-09T13:49:20Z</time>
      </trkpt>
      <trkpt lat="44.13161" lon="3.86446">
        <ele>485.6</ele>
        <time>2022-08-09T13:49:36Z</time>
      </trkpt>
      <trkpt lat="44.13155" lon="3.86464">
        <ele>482.72</ele>
        <time>2022-08-09T13:49:51Z</time>
      </trkpt>
      <trkpt lat="44.13147" lon="3.86486">
        <ele>478.87</ele>
        <time>2022-08-09T13:50:09Z</time>
      </trkpt>
      <trkpt lat="44.1314" lon="3.86503">
        <ele>475.51</ele>
        <time>2022-08-09T13:50:25Z</time>
      </trkpt>
      <trkpt lat="44.13135" lon="3.86521">
        <ele>470.7</ele>
        <time>2022-08-09T13:50:42Z</time>
      </trkpt>
      <trkpt lat="44.13133" lon="3.86528">
        <ele>469.74</ele>
        <time>2022-08-09T13:50:47Z</time>
      </trkpt>
      <trkpt lat="44.1313" lon="3.86551">
        <ele>467.34</ele>
        <time>2022-08-09T13:51:04Z</time>
      </trkpt>
      <trkpt lat="44.13126" lon="3.86572">
        <ele>465.42</ele>
        <time>2022-08-09T13:51:21Z</time>
      </trkpt>
      <trkpt lat="44.13122" lon="3.86597">
        <ele>462.05</ele>
        <time>2022-08-09T13:51:39Z</time>
      </trkpt>
      <trkpt lat="44.13116" lon="3.86617">
        <ele>459.17</ele>
        <time>2022-08-09T13:51:56Z</time>
      </trkpt>
      <trkpt lat="44.13109" lon="3.86637">
        <ele>457.24</ele>
        <time>2022-08-09T13:52:12Z</time>
      </trkpt>
      <trkpt lat="44.13107" lon="3.86642">
        <ele>456.76</ele>
        <time>2022-08-09T13:52:16Z</time>
      </trkpt>
      <trkpt lat="44.131" lon="3.86665">
        <ele>454.84</ele>
        <time>2022-08-09T13:52:33Z</time>
      </trkpt>
      <trkpt lat="44.13094" lon="3.86684">
        <ele>451.96</ele>
        <time>2022-08-09T13:52:49Z</time>
      </trkpt>
      <trkpt lat="44.13084" lon="3.86707">
        <ele>449.55</ele>
        <time>2022-08-09T13:53:08Z</time>
      </trkpt>
      <trkpt lat="44.13079" lon="3.86718">
        <ele>447.15</ele>
        <time>2022-08-09T13:53:18Z</time>
      </trkpt>
      <trkpt lat="44.13066" lon="3.8673">
        <ele>443.79</ele>
        <time>2022-08-09T13:53:34Z</time>
      </trkpt>
      <trkpt lat="44.13052" lon="3.86738">
        <ele>440.42</ele>
        <time>2022-08-09T13:53:48Z</time>
      </trkpt>
      <trkpt lat="44.13037" lon="3.86745">
        <ele>438.02</ele>
        <time>2022-08-09T13:54:04Z</time>
      </trkpt>
      <trkpt lat="44.13018" lon="3.86762">
        <ele>438.02</ele>
        <time>2022-08-09T13:54:22Z</time>
      </trkpt>
      <trkpt lat="44.13003" lon="3.86769">
        <ele>438.5</ele>
        <time>2022-08-09T13:54:38Z</time>
      </trkpt>
      <trkpt lat="44.1299" lon="3.86776">
        <ele>434.65</ele>
        <time>2022-08-09T13:54:52Z</time>
      </trkpt>
      <trkpt lat="44.1298" lon="3.8679">
        <ele>429.37</ele>
        <time>2022-08-09T13:55:07Z</time>
      </trkpt>
      <trkpt lat="44.12978" lon="3.86795">
        <ele>429.37</ele>
        <time>2022-08-09T13:55:11Z</time>
      </trkpt>
      <trkpt lat="44.12971" lon="3.86809">
        <ele>426.48</ele>
        <time>2022-08-09T13:55:22Z</time>
      </trkpt>
      <trkpt lat="44.12963" lon="3.86821">
        <ele>422.64</ele>
        <time>2022-08-09T13:55:33Z</time>
      </trkpt>
      <trkpt lat="44.12953" lon="3.8684">
        <ele>420.71</ele>
        <time>2022-08-09T13:55:49Z</time>
      </trkpt>
      <trkpt lat="44.12944" lon="3.86861">
        <ele>422.16</ele>
        <time>2022-08-09T13:56:05Z</time>
      </trkpt>
      <trkpt lat="44.12937" lon="3.86874">
        <ele>423.6</ele>
        <time>2022-08-09T13:56:16Z</time>
      </trkpt>
      <trkpt lat="44.12928" lon="3.8689">
        <ele>424.08</ele>
        <time>2022-08-09T13:56:30Z</time>
      </trkpt>
      <trkpt lat="44.12928" lon="3.86891">
        <ele>424.08</ele>
        <time>2022-08-09T13:56:31Z</time>
      </trkpt>
      <trkpt lat="44.12926" lon="3.86898">
        <ele>424.08</ele>
        <time>2022-08-09T13:56:36Z</time>
      </trkpt>
      <trkpt lat="44.12921" lon="3.8691">
        <ele>423.6</ele>
        <time>2022-08-09T13:56:45Z</time>
      </trkpt>
      <trkpt lat="44.12912" lon="3.86925">
        <ele>423.6</ele>
        <time>2022-08-09T13:57:01Z</time>
      </trkpt>
      <trkpt lat="44.129" lon="3.86941">
        <ele>425.04</ele>
        <time>2022-08-09T13:57:17Z</time>
      </trkpt>
      <trkpt lat="44.12888" lon="3.86955">
        <ele>424.08</ele>
        <time>2022-08-09T13:57:33Z</time>
      </trkpt>
      <trkpt lat="44.12877" lon="3.86972">
        <ele>424.56</ele>
        <time>2022-08-09T13:57:48Z</time>
      </trkpt>
      <trkpt lat="44.12869" lon="3.86983">
        <ele>425.04</ele>
        <time>2022-08-09T13:57:58Z</time>
      </trkpt>
      <trkpt lat="44.12859" lon="3.87">
        <ele>423.6</ele>
        <time>2022-08-09T13:58:12Z</time>
      </trkpt>
      <trkpt lat="44.12855" lon="3.87005">
        <ele>422.64</ele>
        <time>2022-08-09T13:58:17Z</time>
      </trkpt>
      <trkpt lat="44.12846" lon="3.87021">
        <ele>419.75</ele>
        <time>2022-08-09T13:58:32Z</time>
      </trkpt>
      <trkpt lat="44.12836" lon="3.87039">
        <ele>413.98</ele>
        <time>2022-08-09T13:58:48Z</time>
      </trkpt>
      <trkpt lat="44.12829" lon="3.87046">
        <ele>412.54</ele>
        <time>2022-08-09T13:58:53Z</time>
      </trkpt>
      <trkpt lat="44.12815" lon="3.87058">
        <ele>412.54</ele>
        <time>2022-08-09T13:59:08Z</time>
      </trkpt>
      <trkpt lat="44.12802" lon="3.87064">
        <ele>414.95</ele>
        <time>2022-08-09T13:59:22Z</time>
      </trkpt>
      <trkpt lat="44.12786" lon="3.87064">
        <ele>416.87</ele>
        <time>2022-08-09T13:59:34Z</time>
      </trkpt>
      <trkpt lat="44.1277" lon="3.87064">
        <ele>415.91</ele>
        <time>2022-08-09T13:59:49Z</time>
      </trkpt>
      <trkpt lat="44.12763" lon="3.87063">
        <ele>415.91</ele>
        <time>2022-08-09T13:59:56Z</time>
      </trkpt>
      <trkpt lat="44.12753" lon="3.87056">
        <ele>417.83</ele>
        <time>2022-08-09T14:00:07Z</time>
      </trkpt>
      <trkpt lat="44.12742" lon="3.87046">
        <ele>419.75</ele>
        <time>2022-08-09T14:00:20Z</time>
      </trkpt>
      <trkpt lat="44.12728" lon="3.87034">
        <ele>420.71</ele>
        <time>2022-08-09T14:00:36Z</time>
      </trkpt>
      <trkpt lat="44.12719" lon="3.87019">
        <ele>420.23</ele>
        <time>2022-08-09T14:00:49Z</time>
      </trkpt>
      <trkpt lat="44.12707" lon="3.87002">
        <ele>421.68</ele>
        <time>2022-08-09T14:01:04Z</time>
      </trkpt>
      <trkpt lat="44.12698" lon="3.86988">
        <ele>425.52</ele>
        <time>2022-08-09T14:01:16Z</time>
      </trkpt>
      <trkpt lat="44.12684" lon="3.86976">
        <ele>427.92</ele>
        <time>2022-08-09T14:01:32Z</time>
      </trkpt>
      <trkpt lat="44.12687" lon="3.86968">
        <ele>425.52</ele>
        <time>2022-08-09T14:01:46Z</time>
      </trkpt>
      <trkpt lat="44.12697" lon="3.86971">
        <ele>423.6</ele>
        <time>2022-08-09T14:01:55Z</time>
      </trkpt>
      <trkpt lat="44.12713" lon="3.86977">
        <ele>422.16</ele>
        <time>2022-08-09T14:02:10Z</time>
      </trkpt>
      <trkpt lat="44.1273" lon="3.86987">
        <ele>418.79</ele>
        <time>2022-08-09T14:02:28Z</time>
      </trkpt>
      <trkpt lat="44.12745" lon="3.86998">
        <ele>415.43</ele>
        <time>2022-08-09T14:02:45Z</time>
      </trkpt>
      <trkpt lat="44.12749" lon="3.86994">
        <ele>414.47</ele>
        <time>2022-08-09T14:02:48Z</time>
      </trkpt>
      <trkpt lat="44.12749" lon="3.86984">
        <ele>412.54</ele>
        <time>2022-08-09T14:02:54Z</time>
      </trkpt>
      <trkpt lat="44.12737" lon="3.86968">
        <ele>409.18</ele>
        <time>2022-08-09T14:03:10Z</time>
      </trkpt>
      <trkpt lat="44.12727" lon="3.86956">
        <ele>407.74</ele>
        <time>2022-08-09T14:03:25Z</time>
      </trkpt>
      <trkpt lat="44.12715" lon="3.86932">
        <ele>407.74</ele>
        <time>2022-08-09T14:03:40Z</time>
      </trkpt>
      <trkpt lat="44.12706" lon="3.86917">
        <ele>406.29</ele>
        <time>2022-08-09T14:03:54Z</time>
      </trkpt>
      <trkpt lat="44.12694" lon="3.86901">
        <ele>404.85</ele>
        <time>2022-08-09T14:04:09Z</time>
      </trkpt>
      <trkpt lat="44.12687" lon="3.8689">
        <ele>401.97</ele>
        <time>2022-08-09T14:04:21Z</time>
      </trkpt>
      <trkpt lat="44.12672" lon="3.86873">
        <ele>399.08</ele>
        <time>2022-08-09T14:04:38Z</time>
      </trkpt>
      <trkpt lat="44.1266" lon="3.86864">
        <ele>394.28</ele>
        <time>2022-08-09T14:04:53Z</time>
      </trkpt>
      <trkpt lat="44.12643" lon="3.86862">
        <ele>390.91</ele>
        <time>2022-08-09T14:05:09Z</time>
      </trkpt>
      <trkpt lat="44.12624" lon="3.86867">
        <ele>387.07</ele>
        <time>2022-08-09T14:05:25Z</time>
      </trkpt>
      <trkpt lat="44.12623" lon="3.86868">
        <ele>386.59</ele>
        <time>2022-08-09T14:05:26Z</time>
      </trkpt>
      <trkpt lat="44.1262" lon="3.86871">
        <ele>386.11</ele>
        <time>2022-08-09T14:05:30Z</time>
      </trkpt>
      <trkpt lat="44.12619" lon="3.86877">
        <ele>386.11</ele>
        <time>2022-08-09T14:05:42Z</time>
      </trkpt>
      <trkpt lat="44.12619" lon="3.86882">
        <ele>386.59</ele>
        <time>2022-08-09T14:05:46Z</time>
      </trkpt>
      <trkpt lat="44.1262" lon="3.86885">
        <ele>386.11</ele>
        <time>2022-08-09T14:05:48Z</time>
      </trkpt>
      <trkpt lat="44.12621" lon="3.86905">
        <ele>388.03</ele>
        <time>2022-08-09T14:06:02Z</time>
      </trkpt>
      <trkpt lat="44.12623" lon="3.86922">
        <ele>389.47</ele>
        <time>2022-08-09T14:06:17Z</time>
      </trkpt>
      <trkpt lat="44.12627" lon="3.86939">
        <ele>391.39</ele>
        <time>2022-08-09T14:06:31Z</time>
      </trkpt>
      <trkpt lat="44.12626" lon="3.86951">
        <ele>392.36</ele>
        <time>2022-08-09T14:06:45Z</time>
      </trkpt>
      <trkpt lat="44.12627" lon="3.86941">
        <ele>393.8</ele>
        <time>2022-08-09T14:07:18Z</time>
      </trkpt>
      <trkpt lat="44.12625" lon="3.86961">
        <ele>393.8</ele>
        <time>2022-08-09T14:07:39Z</time>
      </trkpt>
      <trkpt lat="44.12622" lon="3.86982">
        <ele>393.8</ele>
        <time>2022-08-09T14:07:55Z</time>
      </trkpt>
      <trkpt lat="44.12622" lon="3.86999">
        <ele>393.32</ele>
        <time>2022-08-09T14:08:11Z</time>
      </trkpt>
      <trkpt lat="44.12619" lon="3.87014">
        <ele>392.84</ele>
        <time>2022-08-09T14:08:26Z</time>
      </trkpt>
      <trkpt lat="44.12616" lon="3.8703">
        <ele>392.84</ele>
        <time>2022-08-09T14:08:40Z</time>
      </trkpt>
      <trkpt lat="44.12614" lon="3.87048">
        <ele>392.84</ele>
        <time>2022-08-09T14:08:55Z</time>
      </trkpt>
      <trkpt lat="44.12613" lon="3.87056">
        <ele>395.24</ele>
        <time>2022-08-09T14:09:02Z</time>
      </trkpt>
      <trkpt lat="44.12609" lon="3.87071">
        <ele>395.72</ele>
        <time>2022-08-09T14:09:17Z</time>
      </trkpt>
      <trkpt lat="44.12605" lon="3.87086">
        <ele>396.68</ele>
        <time>2022-08-09T14:09:30Z</time>
      </trkpt>
      <trkpt lat="44.12596" lon="3.87101">
        <ele>399.57</ele>
        <time>2022-08-09T14:09:45Z</time>
      </trkpt>
      <trkpt lat="44.12593" lon="3.87124">
        <ele>400.05</ele>
        <time>2022-08-09T14:10:03Z</time>
      </trkpt>
      <trkpt lat="44.12594" lon="3.87139">
        <ele>403.41</ele>
        <time>2022-08-09T14:10:16Z</time>
      </trkpt>
      <trkpt lat="44.12595" lon="3.87145">
        <ele>403.41</ele>
        <time>2022-08-09T14:10:21Z</time>
      </trkpt>
      <trkpt lat="44.12597" lon="3.8716">
        <ele>404.85</ele>
        <time>2022-08-09T14:10:35Z</time>
      </trkpt>
      <trkpt lat="44.12595" lon="3.87174">
        <ele>407.74</ele>
        <time>2022-08-09T14:10:49Z</time>
      </trkpt>
      <trkpt lat="44.12581" lon="3.87183">
        <ele>410.14</ele>
        <time>2022-08-09T14:11:04Z</time>
      </trkpt>
      <trkpt lat="44.1258" lon="3.87183">
        <ele>410.14</ele>
        <time>2022-08-09T14:11:05Z</time>
      </trkpt>
      <trkpt lat="44.12578" lon="3.87183">
        <ele>411.1</ele>
        <time>2022-08-09T14:11:07Z</time>
      </trkpt>
      <trkpt lat="44.12567" lon="3.87183">
        <ele>416.39</ele>
        <time>2022-08-09T14:11:19Z</time>
      </trkpt>
      <trkpt lat="44.12553" lon="3.87192">
        <ele>419.27</ele>
        <time>2022-08-09T14:11:33Z</time>
      </trkpt>
      <trkpt lat="44.12547" lon="3.872">
        <ele>421.19</ele>
        <time>2022-08-09T14:11:42Z</time>
      </trkpt>
      <trkpt lat="44.12542" lon="3.87205">
        <ele>421.19</ele>
        <time>2022-08-09T14:11:48Z</time>
      </trkpt>
      <trkpt lat="44.12534" lon="3.87213">
        <ele>420.23</ele>
        <time>2022-08-09T14:12:01Z</time>
      </trkpt>
      <trkpt lat="44.12527" lon="3.87208">
        <ele>419.75</ele>
        <time>2022-08-09T14:12:14Z</time>
      </trkpt>
      <trkpt lat="44.1252" lon="3.87202">
        <ele>419.27</ele>
        <time>2022-08-09T14:12:27Z</time>
      </trkpt>
      <trkpt lat="44.12511" lon="3.87192">
        <ele>419.27</ele>
        <time>2022-08-09T14:12:45Z</time>
      </trkpt>
      <trkpt lat="44.125" lon="3.87195">
        <ele>419.27</ele>
        <time>2022-08-09T14:13:00Z</time>
      </trkpt>
      <trkpt lat="44.12487" lon="3.87202">
        <ele>418.31</ele>
        <time>2022-08-09T14:13:14Z</time>
      </trkpt>
      <trkpt lat="44.12476" lon="3.87212">
        <ele>418.31</ele>
        <time>2022-08-09T14:13:28Z</time>
      </trkpt>
      <trkpt lat="44.12467" lon="3.87221">
        <ele>420.71</ele>
        <time>2022-08-09T14:13:41Z</time>
      </trkpt>
      <trkpt lat="44.1246" lon="3.87234">
        <ele>423.6</ele>
        <time>2022-08-09T14:13:55Z</time>
      </trkpt>
      <trkpt lat="44.1245" lon="3.87242">
        <ele>425.04</ele>
        <time>2022-08-09T14:14:09Z</time>
      </trkpt>
      <trkpt lat="44.12435" lon="3.87241">
        <ele>427.44</ele>
        <time>2022-08-09T14:14:23Z</time>
      </trkpt>
      <trkpt lat="44.12422" lon="3.8724">
        <ele>426.48</ele>
        <time>2022-08-09T14:14:36Z</time>
      </trkpt>
      <trkpt lat="44.12413" lon="3.87233">
        <ele>424.56</ele>
        <time>2022-08-09T14:14:49Z</time>
      </trkpt>
      <trkpt lat="44.12405" lon="3.8722">
        <ele>422.64</ele>
        <time>2022-08-09T14:15:04Z</time>
      </trkpt>
      <trkpt lat="44.12393" lon="3.87209">
        <ele>421.68</ele>
        <time>2022-08-09T14:15:18Z</time>
      </trkpt>
      <trkpt lat="44.1238" lon="3.87201">
        <ele>417.83</ele>
        <time>2022-08-09T14:15:31Z</time>
      </trkpt>
      <trkpt lat="44.12367" lon="3.87187">
        <ele>423.6</ele>
        <time>2022-08-09T14:15:45Z</time>
      </trkpt>
      <trkpt lat="44.12356" lon="3.87177">
        <ele>423.12</ele>
        <time>2022-08-09T14:15:58Z</time>
      </trkpt>
      <trkpt lat="44.12342" lon="3.87166">
        <ele>423.12</ele>
        <time>2022-08-09T14:16:14Z</time>
      </trkpt>
      <trkpt lat="44.12329" lon="3.87153">
        <ele>422.64</ele>
        <time>2022-08-09T14:16:28Z</time>
      </trkpt>
      <trkpt lat="44.12319" lon="3.87145">
        <ele>423.12</ele>
        <time>2022-08-09T14:16:39Z</time>
      </trkpt>
      <trkpt lat="44.12316" lon="3.87143">
        <ele>423.12</ele>
        <time>2022-08-09T14:16:41Z</time>
      </trkpt>
      <trkpt lat="44.12308" lon="3.87137">
        <ele>429.85</ele>
        <time>2022-08-09T14:16:56Z</time>
      </trkpt>
      <trkpt lat="44.12304" lon="3.87137">
        <ele>431.77</ele>
        <time>2022-08-09T14:17:15Z</time>
      </trkpt>
      <trkpt lat="44.12291" lon="3.87143">
        <ele>434.65</ele>
        <time>2022-08-09T14:17:29Z</time>
      </trkpt>
      <trkpt lat="44.12286" lon="3.87159">
        <ele>432.73</ele>
        <time>2022-08-09T14:17:43Z</time>
      </trkpt>
      <trkpt lat="44.12284" lon="3.87171">
        <ele>432.25</ele>
        <time>2022-08-09T14:17:56Z</time>
      </trkpt>
      <trkpt lat="44.12281" lon="3.87187">
        <ele>431.77</ele>
        <time>2022-08-09T14:18:12Z</time>
      </trkpt>
      <trkpt lat="44.12281" lon="3.87199">
        <ele>429.85</ele>
        <time>2022-08-09T14:18:26Z</time>
      </trkpt>
      <trkpt lat="44.12271" lon="3.8721">
        <ele>432.25</ele>
        <time>2022-08-09T14:18:39Z</time>
      </trkpt>
      <trkpt lat="44.1227" lon="3.87211">
        <ele>432.73</ele>
        <time>2022-08-09T14:18:40Z</time>
      </trkpt>
      <trkpt lat="44.12254" lon="3.87224">
        <ele>431.29</ele>
        <time>2022-08-09T14:18:54Z</time>
      </trkpt>
      <trkpt lat="44.12248" lon="3.87232">
        <ele>428.89</ele>
        <time>2022-08-09T14:19:04Z</time>
      </trkpt>
      <trkpt lat="44.12247" lon="3.87245">
        <ele>427.44</ele>
        <time>2022-08-09T14:19:16Z</time>
      </trkpt>
      <trkpt lat="44.12248" lon="3.87268">
        <ele>426</ele>
        <time>2022-08-09T14:19:29Z</time>
      </trkpt>
      <trkpt lat="44.12228" lon="3.87271">
        <ele>428.89</ele>
        <time>2022-08-09T14:19:42Z</time>
      </trkpt>
      <trkpt lat="44.12226" lon="3.87272">
        <ele>427.92</ele>
        <time>2022-08-09T14:19:44Z</time>
      </trkpt>
      <trkpt lat="44.1221" lon="3.87274">
        <ele>426.48</ele>
        <time>2022-08-09T14:20:00Z</time>
      </trkpt>
      <trkpt lat="44.12198" lon="3.87279">
        <ele>421.68</ele>
        <time>2022-08-09T14:20:13Z</time>
      </trkpt>
      <trkpt lat="44.12183" lon="3.87277">
        <ele>419.75</ele>
        <time>2022-08-09T14:20:27Z</time>
      </trkpt>
      <trkpt lat="44.12168" lon="3.87278">
        <ele>420.23</ele>
        <time>2022-08-09T14:20:41Z</time>
      </trkpt>
      <trkpt lat="44.12154" lon="3.87281">
        <ele>421.19</ele>
        <time>2022-08-09T14:20:53Z</time>
      </trkpt>
      <trkpt lat="44.12141" lon="3.8729">
        <ele>419.27</ele>
        <time>2022-08-09T14:21:04Z</time>
      </trkpt>
      <trkpt lat="44.12127" lon="3.873">
        <ele>417.83</ele>
        <time>2022-08-09T14:21:18Z</time>
      </trkpt>
      <trkpt lat="44.12116" lon="3.87304">
        <ele>416.87</ele>
        <time>2022-08-09T14:21:32Z</time>
      </trkpt>
      <trkpt lat="44.12105" lon="3.87317">
        <ele>415.43</ele>
        <time>2022-08-09T14:21:46Z</time>
      </trkpt>
      <trkpt lat="44.12098" lon="3.87334">
        <ele>412.54</ele>
        <time>2022-08-09T14:21:59Z</time>
      </trkpt>
      <trkpt lat="44.12093" lon="3.87357">
        <ele>411.58</ele>
        <time>2022-08-09T14:22:17Z</time>
      </trkpt>
      <trkpt lat="44.12092" lon="3.87364">
        <ele>411.58</ele>
        <time>2022-08-09T14:22:22Z</time>
      </trkpt>
      <trkpt lat="44.1209" lon="3.8738">
        <ele>411.1</ele>
        <time>2022-08-09T14:22:33Z</time>
      </trkpt>
      <trkpt lat="44.12092" lon="3.87404">
        <ele>410.14</ele>
        <time>2022-08-09T14:22:48Z</time>
      </trkpt>
      <trkpt lat="44.12092" lon="3.87426">
        <ele>410.14</ele>
        <time>2022-08-09T14:23:02Z</time>
      </trkpt>
      <trkpt lat="44.12087" lon="3.87447">
        <ele>409.66</ele>
        <time>2022-08-09T14:23:16Z</time>
      </trkpt>
      <trkpt lat="44.12083" lon="3.87458">
        <ele>409.66</ele>
        <time>2022-08-09T14:23:23Z</time>
      </trkpt>
      <trkpt lat="44.12081" lon="3.87467">
        <ele>408.7</ele>
        <time>2022-08-09T14:23:29Z</time>
      </trkpt>
      <trkpt lat="44.12075" lon="3.87494">
        <ele>404.37</ele>
        <time>2022-08-09T14:23:48Z</time>
      </trkpt>
      <trkpt lat="44.1207" lon="3.87508">
        <ele>402.45</ele>
        <time>2022-08-09T14:24:00Z</time>
      </trkpt>
      <trkpt lat="44.12064" lon="3.87525">
        <ele>398.6</ele>
        <time>2022-08-09T14:24:16Z</time>
      </trkpt>
      <trkpt lat="44.12058" lon="3.87533">
        <ele>396.68</ele>
        <time>2022-08-09T14:24:25Z</time>
      </trkpt>
      <trkpt lat="44.12049" lon="3.87535">
        <ele>395.24</ele>
        <time>2022-08-09T14:24:38Z</time>
      </trkpt>
      <trkpt lat="44.12046" lon="3.87533">
        <ele>395.24</ele>
        <time>2022-08-09T14:24:43Z</time>
      </trkpt>
      <trkpt lat="44.12046" lon="3.87529">
        <ele>394.76</ele>
        <time>2022-08-09T14:24:46Z</time>
      </trkpt>
      <trkpt lat="44.12042" lon="3.87502">
        <ele>392.84</ele>
        <time>2022-08-09T14:25:03Z</time>
      </trkpt>
      <trkpt lat="44.12038" lon="3.8748">
        <ele>389.95</ele>
        <time>2022-08-09T14:25:20Z</time>
      </trkpt>
      <trkpt lat="44.12037" lon="3.8746">
        <ele>382.74</ele>
        <time>2022-08-09T14:25:36Z</time>
      </trkpt>
      <trkpt lat="44.12036" lon="3.8744">
        <ele>376.49</ele>
        <time>2022-08-09T14:25:51Z</time>
      </trkpt>
      <trkpt lat="44.12034" lon="3.87436">
        <ele>376.01</ele>
        <time>2022-08-09T14:25:54Z</time>
      </trkpt>
      <trkpt lat="44.12029" lon="3.87443">
        <ele>373.61</ele>
        <time>2022-08-09T14:26:07Z</time>
      </trkpt>
      <trkpt lat="44.12029" lon="3.87444">
        <ele>373.61</ele>
        <time>2022-08-09T14:26:08Z</time>
      </trkpt>
      <trkpt lat="44.12022" lon="3.87457">
        <ele>372.17</ele>
        <time>2022-08-09T14:26:22Z</time>
      </trkpt>
      <trkpt lat="44.12009" lon="3.87479">
        <ele>370.73</ele>
        <time>2022-08-09T14:26:40Z</time>
      </trkpt>
      <trkpt lat="44.12004" lon="3.87492">
        <ele>369.28</ele>
        <time>2022-08-09T14:26:53Z</time>
      </trkpt>
      <trkpt lat="44.12003" lon="3.87495">
        <ele>369.28</ele>
        <time>2022-08-09T14:26:55Z</time>
      </trkpt>
      <trkpt lat="44.11999" lon="3.87515">
        <ele>366.88</ele>
        <time>2022-08-09T14:27:08Z</time>
      </trkpt>
      <trkpt lat="44.11989" lon="3.87533">
        <ele>366.4</ele>
        <time>2022-08-09T14:27:22Z</time>
      </trkpt>
      <trkpt lat="44.11975" lon="3.87551">
        <ele>361.59</ele>
        <time>2022-08-09T14:27:38Z</time>
      </trkpt>
      <trkpt lat="44.11969" lon="3.87565">
        <ele>357.75</ele>
        <time>2022-08-09T14:27:50Z</time>
      </trkpt>
      <trkpt lat="44.11966" lon="3.87573">
        <ele>356.79</ele>
        <time>2022-08-09T14:27:56Z</time>
      </trkpt>
      <trkpt lat="44.11953" lon="3.87588">
        <ele>354.38</ele>
        <time>2022-08-09T14:28:11Z</time>
      </trkpt>
      <trkpt lat="44.11948" lon="3.87593">
        <ele>352.46</ele>
        <time>2022-08-09T14:28:17Z</time>
      </trkpt>
      <trkpt lat="44.1193" lon="3.876">
        <ele>351.02</ele>
        <time>2022-08-09T14:28:33Z</time>
      </trkpt>
      <trkpt lat="44.1192" lon="3.87604">
        <ele>351.5</ele>
        <time>2022-08-09T14:28:41Z</time>
      </trkpt>
      <trkpt lat="44.11907" lon="3.87613">
        <ele>349.58</ele>
        <time>2022-08-09T14:28:55Z</time>
      </trkpt>
      <trkpt lat="44.11899" lon="3.87616">
        <ele>345.25</ele>
        <time>2022-08-09T14:29:11Z</time>
      </trkpt>
      <trkpt lat="44.11894" lon="3.87617">
        <ele>343.33</ele>
        <time>2022-08-09T14:29:16Z</time>
      </trkpt>
      <trkpt lat="44.11876" lon="3.87617">
        <ele>341.89</ele>
        <time>2022-08-09T14:29:32Z</time>
      </trkpt>
      <trkpt lat="44.11867" lon="3.87638">
        <ele>340.44</ele>
        <time>2022-08-09T14:29:48Z</time>
      </trkpt>
      <trkpt lat="44.11868" lon="3.87651">
        <ele>339</ele>
        <time>2022-08-09T14:29:56Z</time>
      </trkpt>
      <trkpt lat="44.11868" lon="3.87672">
        <ele>337.56</ele>
        <time>2022-08-09T14:30:10Z</time>
      </trkpt>
      <trkpt lat="44.11869" lon="3.87684">
        <ele>337.56</ele>
        <time>2022-08-09T14:30:18Z</time>
      </trkpt>
      <trkpt lat="44.1188" lon="3.87713">
        <ele>336.12</ele>
        <time>2022-08-09T14:30:39Z</time>
      </trkpt>
      <trkpt lat="44.11883" lon="3.87728">
        <ele>335.16</ele>
        <time>2022-08-09T14:30:49Z</time>
      </trkpt>
      <trkpt lat="44.11884" lon="3.87746">
        <ele>335.64</ele>
        <time>2022-08-09T14:31:00Z</time>
      </trkpt>
      <trkpt lat="44.11888" lon="3.87767">
        <ele>333.23</ele>
        <time>2022-08-09T14:31:14Z</time>
      </trkpt>
      <trkpt lat="44.11892" lon="3.87778">
        <ele>332.27</ele>
        <time>2022-08-09T14:31:22Z</time>
      </trkpt>
      <trkpt lat="44.11901" lon="3.87789">
        <ele>329.87</ele>
        <time>2022-08-09T14:31:36Z</time>
      </trkpt>
      <trkpt lat="44.11903" lon="3.87791">
        <ele>330.83</ele>
        <time>2022-08-09T14:31:53Z</time>
      </trkpt>
      <trkpt lat="44.11905" lon="3.87803">
        <ele>333.71</ele>
        <time>2022-08-09T14:32:20Z</time>
      </trkpt>
      <trkpt lat="44.11901" lon="3.87798">
        <ele>337.08</ele>
        <time>2022-08-09T14:32:39Z</time>
      </trkpt>
      <trkpt lat="44.11912" lon="3.87813">
        <ele>336.12</ele>
        <time>2022-08-09T14:32:55Z</time>
      </trkpt>
      <trkpt lat="44.11921" lon="3.87833">
        <ele>332.27</ele>
        <time>2022-08-09T14:33:11Z</time>
      </trkpt>
      <trkpt lat="44.11921" lon="3.8784">
        <ele>331.79</ele>
        <time>2022-08-09T14:33:15Z</time>
      </trkpt>
      <trkpt lat="44.11919" lon="3.87852">
        <ele>332.75</ele>
        <time>2022-08-09T14:33:23Z</time>
      </trkpt>
      <trkpt lat="44.11902" lon="3.87867">
        <ele>332.75</ele>
        <time>2022-08-09T14:33:41Z</time>
      </trkpt>
      <trkpt lat="44.11883" lon="3.87866">
        <ele>330.35</ele>
        <time>2022-08-09T14:33:59Z</time>
      </trkpt>
      <trkpt lat="44.11868" lon="3.87868">
        <ele>328.91</ele>
        <time>2022-08-09T14:34:13Z</time>
      </trkpt>
      <trkpt lat="44.11854" lon="3.8787">
        <ele>327.47</ele>
        <time>2022-08-09T14:34:25Z</time>
      </trkpt>
      <trkpt lat="44.11843" lon="3.87871">
        <ele>326.02</ele>
        <time>2022-08-09T14:34:35Z</time>
      </trkpt>
      <trkpt lat="44.11828" lon="3.87873">
        <ele>325.06</ele>
        <time>2022-08-09T14:34:48Z</time>
      </trkpt>
      <trkpt lat="44.1181" lon="3.87881">
        <ele>322.66</ele>
        <time>2022-08-09T14:35:04Z</time>
      </trkpt>
      <trkpt lat="44.11807" lon="3.87881">
        <ele>321.7</ele>
        <time>2022-08-09T14:35:07Z</time>
      </trkpt>
      <trkpt lat="44.11799" lon="3.87876">
        <ele>320.74</ele>
        <time>2022-08-09T14:35:16Z</time>
      </trkpt>
      <trkpt lat="44.11797" lon="3.87877">
        <ele>320.74</ele>
        <time>2022-08-09T14:35:18Z</time>
      </trkpt>
      <trkpt lat="44.11785" lon="3.87876">
        <ele>319.3</ele>
        <time>2022-08-09T14:35:32Z</time>
      </trkpt>
      <trkpt lat="44.11773" lon="3.87864">
        <ele>315.45</ele>
        <time>2022-08-09T14:35:47Z</time>
      </trkpt>
      <trkpt lat="44.11756" lon="3.87857">
        <ele>313.05</ele>
        <time>2022-08-09T14:36:03Z</time>
      </trkpt>
      <trkpt lat="44.11738" lon="3.87856">
        <ele>309.2</ele>
        <time>2022-08-09T14:36:19Z</time>
      </trkpt>
      <trkpt lat="44.11721" lon="3.87859">
        <ele>309.68</ele>
        <time>2022-08-09T14:36:35Z</time>
      </trkpt>
      <trkpt lat="44.11706" lon="3.87863">
        <ele>308.24</ele>
        <time>2022-08-09T14:36:50Z</time>
      </trkpt>
      <trkpt lat="44.11688" lon="3.87869">
        <ele>305.36</ele>
        <time>2022-08-09T14:37:06Z</time>
      </trkpt>
      <trkpt lat="44.11675" lon="3.87879">
        <ele>304.88</ele>
        <time>2022-08-09T14:37:19Z</time>
      </trkpt>
      <trkpt lat="44.11666" lon="3.87897">
        <ele>303.91</ele>
        <time>2022-08-09T14:37:32Z</time>
      </trkpt>
      <trkpt lat="44.11668" lon="3.87921">
        <ele>301.03</ele>
        <time>2022-08-09T14:37:49Z</time>
      </trkpt>
      <trkpt lat="44.11666" lon="3.87932">
        <ele>299.11</ele>
        <time>2022-08-09T14:38:03Z</time>
      </trkpt>
      <trkpt lat="44.11669" lon="3.87944">
        <ele>294.78</ele>
        <time>2022-08-09T14:38:18Z</time>
      </trkpt>
      <trkpt lat="44.11665" lon="3.87959">
        <ele>291.9</ele>
        <time>2022-08-09T14:38:35Z</time>
      </trkpt>
      <trkpt lat="44.11657" lon="3.8797">
        <ele>290.94</ele>
        <time>2022-08-09T14:38:48Z</time>
      </trkpt>
      <trkpt lat="44.11646" lon="3.87982">
        <ele>289.01</ele>
        <time>2022-08-09T14:39:03Z</time>
      </trkpt>
      <trkpt lat="44.11643" lon="3.87992">
        <ele>287.09</ele>
        <time>2022-08-09T14:39:17Z</time>
      </trkpt>
      <trkpt lat="44.1164" lon="3.87991">
        <ele>287.57</ele>
        <time>2022-08-09T14:39:21Z</time>
      </trkpt>
      <trkpt lat="44.11624" lon="3.87992">
        <ele>287.09</ele>
        <time>2022-08-09T14:39:35Z</time>
      </trkpt>
      <trkpt lat="44.1162" lon="3.87998">
        <ele>285.65</ele>
        <time>2022-08-09T14:39:41Z</time>
      </trkpt>
      <trkpt lat="44.11608" lon="3.88008">
        <ele>284.21</ele>
        <time>2022-08-09T14:39:56Z</time>
      </trkpt>
      <trkpt lat="44.11599" lon="3.88014">
        <ele>284.21</ele>
        <time>2022-08-09T14:40:06Z</time>
      </trkpt>
      <trkpt lat="44.11581" lon="3.88027">
        <ele>281.32</ele>
        <time>2022-08-09T14:40:24Z</time>
      </trkpt>
      <trkpt lat="44.11566" lon="3.88033">
        <ele>280.84</ele>
        <time>2022-08-09T14:40:41Z</time>
      </trkpt>
      <trkpt lat="44.11553" lon="3.88034">
        <ele>280.84</ele>
        <time>2022-08-09T14:40:55Z</time>
      </trkpt>
      <trkpt lat="44.11539" lon="3.88039">
        <ele>277.96</ele>
        <time>2022-08-09T14:41:10Z</time>
      </trkpt>
      <trkpt lat="44.11522" lon="3.88042">
        <ele>274.11</ele>
        <time>2022-08-09T14:41:25Z</time>
      </trkpt>
      <trkpt lat="44.11512" lon="3.88044">
        <ele>273.15</ele>
        <time>2022-08-09T14:41:39Z</time>
      </trkpt>
      <trkpt lat="44.11502" lon="3.88057">
        <ele>274.59</ele>
        <time>2022-08-09T14:41:55Z</time>
      </trkpt>
      <trkpt lat="44.11488" lon="3.88063">
        <ele>273.15</ele>
        <time>2022-08-09T14:42:11Z</time>
      </trkpt>
      <trkpt lat="44.11474" lon="3.88063">
        <ele>271.23</ele>
        <time>2022-08-09T14:42:27Z</time>
      </trkpt>
      <trkpt lat="44.11464" lon="3.88066">
        <ele>270.75</ele>
        <time>2022-08-09T14:42:41Z</time>
      </trkpt>
      <trkpt lat="44.11447" lon="3.88069">
        <ele>270.75</ele>
        <time>2022-08-09T14:42:58Z</time>
      </trkpt>
      <trkpt lat="44.11431" lon="3.88069">
        <ele>265.46</ele>
        <time>2022-08-09T14:43:15Z</time>
      </trkpt>
      <trkpt lat="44.11418" lon="3.88062">
        <ele>264.02</ele>
        <time>2022-08-09T14:43:28Z</time>
      </trkpt>
      <trkpt lat="44.11408" lon="3.88058">
        <ele>261.62</ele>
        <time>2022-08-09T14:43:41Z</time>
      </trkpt>
      <trkpt lat="44.11398" lon="3.88049">
        <ele>260.17</ele>
        <time>2022-08-09T14:43:57Z</time>
      </trkpt>
      <trkpt lat="44.11385" lon="3.88049">
        <ele>258.25</ele>
        <time>2022-08-09T14:44:10Z</time>
      </trkpt>
      <trkpt lat="44.11374" lon="3.88045">
        <ele>255.37</ele>
        <time>2022-08-09T14:44:26Z</time>
      </trkpt>
      <trkpt lat="44.11366" lon="3.8804">
        <ele>251.04</ele>
        <time>2022-08-09T14:44:37Z</time>
      </trkpt>
      <trkpt lat="44.11358" lon="3.88045">
        <ele>244.79</ele>
        <time>2022-08-09T14:44:50Z</time>
      </trkpt>
      <trkpt lat="44.11347" lon="3.88051">
        <ele>237.58</ele>
        <time>2022-08-09T14:45:02Z</time>
      </trkpt>
      <trkpt lat="44.11333" lon="3.88056">
        <ele>235.66</ele>
        <time>2022-08-09T14:45:17Z</time>
      </trkpt>
      <trkpt lat="44.1132" lon="3.88056">
        <ele>233.26</ele>
        <time>2022-08-09T14:45:31Z</time>
      </trkpt>
      <trkpt lat="44.11314" lon="3.88056">
        <ele>232.78</ele>
        <time>2022-08-09T14:45:38Z</time>
      </trkpt>
      <trkpt lat="44.113" lon="3.88059">
        <ele>231.33</ele>
        <time>2022-08-09T14:45:53Z</time>
      </trkpt>
      <trkpt lat="44.11293" lon="3.8806">
        <ele>230.37</ele>
        <time>2022-08-09T14:45:59Z</time>
      </trkpt>
      <trkpt lat="44.11276" lon="3.88062">
        <ele>227.97</ele>
        <time>2022-08-09T14:46:17Z</time>
      </trkpt>
      <trkpt lat="44.11273" lon="3.88062">
        <ele>227.49</ele>
        <time>2022-08-09T14:46:20Z</time>
      </trkpt>
      <trkpt lat="44.11253" lon="3.88062">
        <ele>229.41</ele>
        <time>2022-08-09T14:46:35Z</time>
      </trkpt>
      <trkpt lat="44.11237" lon="3.88062">
        <ele>229.41</ele>
        <time>2022-08-09T14:46:50Z</time>
      </trkpt>
      <trkpt lat="44.11224" lon="3.88068">
        <ele>228.93</ele>
        <time>2022-08-09T14:47:03Z</time>
      </trkpt>
      <trkpt lat="44.11211" lon="3.88073">
        <ele>226.53</ele>
        <time>2022-08-09T14:47:16Z</time>
      </trkpt>
      <trkpt lat="44.11197" lon="3.88079">
        <ele>223.64</ele>
        <time>2022-08-09T14:47:30Z</time>
      </trkpt>
      <trkpt lat="44.11182" lon="3.88082">
        <ele>222.2</ele>
        <time>2022-08-09T14:47:44Z</time>
      </trkpt>
      <trkpt lat="44.11166" lon="3.88083">
        <ele>222.68</ele>
        <time>2022-08-09T14:47:57Z</time>
      </trkpt>
      <trkpt lat="44.11151" lon="3.88078">
        <ele>221.72</ele>
        <time>2022-08-09T14:48:12Z</time>
      </trkpt>
      <trkpt lat="44.11133" lon="3.88073">
        <ele>215.95</ele>
        <time>2022-08-09T14:48:29Z</time>
      </trkpt>
      <trkpt lat="44.11117" lon="3.88071">
        <ele>214.99</ele>
        <time>2022-08-09T14:48:45Z</time>
      </trkpt>
      <trkpt lat="44.11097" lon="3.88062">
        <ele>213.55</ele>
        <time>2022-08-09T14:49:03Z</time>
      </trkpt>
      <trkpt lat="44.11085" lon="3.88056">
        <ele>209.22</ele>
        <time>2022-08-09T14:49:16Z</time>
      </trkpt>
      <trkpt lat="44.11064" lon="3.88057">
        <ele>210.67</ele>
        <time>2022-08-09T14:49:33Z</time>
      </trkpt>
      <trkpt lat="44.11058" lon="3.88062">
        <ele>210.67</ele>
        <time>2022-08-09T14:49:38Z</time>
      </trkpt>
      <trkpt lat="44.11044" lon="3.88084">
        <ele>212.59</ele>
        <time>2022-08-09T14:49:56Z</time>
      </trkpt>
      <trkpt lat="44.11029" lon="3.88097">
        <ele>213.55</ele>
        <time>2022-08-09T14:50:12Z</time>
      </trkpt>
      <trkpt lat="44.11016" lon="3.88106">
        <ele>212.59</ele>
        <time>2022-08-09T14:50:25Z</time>
      </trkpt>
      <trkpt lat="44.11003" lon="3.88107">
        <ele>212.11</ele>
        <time>2022-08-09T14:50:38Z</time>
      </trkpt>
      <trkpt lat="44.10991" lon="3.88109">
        <ele>213.07</ele>
        <time>2022-08-09T14:50:48Z</time>
      </trkpt>
      <trkpt lat="44.10977" lon="3.8811">
        <ele>213.07</ele>
        <time>2022-08-09T14:50:58Z</time>
      </trkpt>
      <trkpt lat="44.10965" lon="3.88121">
        <ele>213.07</ele>
        <time>2022-08-09T14:51:14Z</time>
      </trkpt>
      <trkpt lat="44.10965" lon="3.88123">
        <ele>213.07</ele>
        <time>2022-08-09T14:51:16Z</time>
      </trkpt>
      <trkpt lat="44.10955" lon="3.88129">
        <ele>212.11</ele>
        <time>2022-08-09T14:51:30Z</time>
      </trkpt>
      <trkpt lat="44.10955" lon="3.88129">
        <ele>212.11</ele>
        <time>2022-08-09T14:51:31Z</time>
      </trkpt>
      <trkpt lat="44.10945" lon="3.88126">
        <ele>212.11</ele>
        <time>2022-08-09T14:51:44Z</time>
      </trkpt>
      <trkpt lat="44.10925" lon="3.8812">
        <ele>211.63</ele>
        <time>2022-08-09T14:52:04Z</time>
      </trkpt>
      <trkpt lat="44.1091" lon="3.88123">
        <ele>209.7</ele>
        <time>2022-08-09T14:52:22Z</time>
      </trkpt>
      <trkpt lat="44.10898" lon="3.88137">
        <ele>205.38</ele>
        <time>2022-08-09T14:52:39Z</time>
      </trkpt>
      <trkpt lat="44.10884" lon="3.88155">
        <ele>202.49</ele>
        <time>2022-08-09T14:52:57Z</time>
      </trkpt>
      <trkpt lat="44.1088" lon="3.88159">
        <ele>201.53</ele>
        <time>2022-08-09T14:53:02Z</time>
      </trkpt>
      <trkpt lat="44.10865" lon="3.88179">
        <ele>201.53</ele>
        <time>2022-08-09T14:53:20Z</time>
      </trkpt>
      <trkpt lat="44.10861" lon="3.88185">
        <ele>201.05</ele>
        <time>2022-08-09T14:53:25Z</time>
      </trkpt>
      <trkpt lat="44.1085" lon="3.88187">
        <ele>199.61</ele>
        <time>2022-08-09T14:53:35Z</time>
      </trkpt>
      <trkpt lat="44.10837" lon="3.88201">
        <ele>196.73</ele>
        <time>2022-08-09T14:53:50Z</time>
      </trkpt>
      <trkpt lat="44.10827" lon="3.88211">
        <ele>195.28</ele>
        <time>2022-08-09T14:54:03Z</time>
      </trkpt>
      <trkpt lat="44.10812" lon="3.88218">
        <ele>194.32</ele>
        <time>2022-08-09T14:54:17Z</time>
      </trkpt>
      <trkpt lat="44.10805" lon="3.88225">
        <ele>189.52</ele>
        <time>2022-08-09T14:54:34Z</time>
      </trkpt>
      <trkpt lat="44.10805" lon="3.88225">
        <ele>191.44</ele>
        <time>2022-08-09T14:54:56Z</time>
      </trkpt>
      <trkpt lat="44.10805" lon="3.88227">
        <ele>191.92</ele>
        <time>2022-08-09T14:55:13Z</time>
      </trkpt>
      <trkpt lat="44.108" lon="3.8825">
        <ele>192.4</ele>
        <time>2022-08-09T14:55:29Z</time>
      </trkpt>
      <trkpt lat="44.10796" lon="3.88273">
        <ele>194.32</ele>
        <time>2022-08-09T14:55:43Z</time>
      </trkpt>
      <trkpt lat="44.10795" lon="3.88281">
        <ele>194.8</ele>
        <time>2022-08-09T14:55:48Z</time>
      </trkpt>
      <trkpt lat="44.10794" lon="3.883">
        <ele>191.44</ele>
        <time>2022-08-09T14:56:02Z</time>
      </trkpt>
      <trkpt lat="44.10793" lon="3.88317">
        <ele>189.04</ele>
        <time>2022-08-09T14:56:14Z</time>
      </trkpt>
      <trkpt lat="44.10792" lon="3.88322">
        <ele>187.59</ele>
        <time>2022-08-09T14:56:18Z</time>
      </trkpt>
      <trkpt lat="44.10788" lon="3.88338">
        <ele>187.59</ele>
        <time>2022-08-09T14:56:31Z</time>
      </trkpt>
      <trkpt lat="44.10787" lon="3.88352">
        <ele>186.63</ele>
        <time>2022-08-09T14:56:43Z</time>
      </trkpt>
      <trkpt lat="44.1078" lon="3.88372">
        <ele>185.67</ele>
        <time>2022-08-09T14:56:56Z</time>
      </trkpt>
      <trkpt lat="44.1077" lon="3.88396">
        <ele>184.71</ele>
        <time>2022-08-09T14:57:10Z</time>
      </trkpt>
      <trkpt lat="44.10761" lon="3.88413">
        <ele>186.15</ele>
        <time>2022-08-09T14:57:20Z</time>
      </trkpt>
      <trkpt lat="44.1075" lon="3.88433">
        <ele>186.63</ele>
        <time>2022-08-09T14:57:35Z</time>
      </trkpt>
      <trkpt lat="44.10739" lon="3.88455">
        <ele>187.59</ele>
        <time>2022-08-09T14:57:51Z</time>
      </trkpt>
      <trkpt lat="44.10735" lon="3.88462">
        <ele>187.11</ele>
        <time>2022-08-09T14:57:57Z</time>
      </trkpt>
      <trkpt lat="44.10725" lon="3.88485">
        <ele>186.15</ele>
        <time>2022-08-09T14:58:14Z</time>
      </trkpt>
      <trkpt lat="44.10719" lon="3.88502">
        <ele>185.67</ele>
        <time>2022-08-09T14:58:28Z</time>
      </trkpt>
      <trkpt lat="44.10708" lon="3.88521">
        <ele>185.67</ele>
        <time>2022-08-09T14:58:44Z</time>
      </trkpt>
      <trkpt lat="44.10696" lon="3.88541">
        <ele>185.19</ele>
        <time>2022-08-09T14:59:02Z</time>
      </trkpt>
      <trkpt lat="44.10688" lon="3.88558">
        <ele>185.19</ele>
        <time>2022-08-09T14:59:16Z</time>
      </trkpt>
      <trkpt lat="44.10675" lon="3.88579">
        <ele>189.52</ele>
        <time>2022-08-09T14:59:30Z</time>
      </trkpt>
      <trkpt lat="44.10674" lon="3.8858">
        <ele>190.96</ele>
        <time>2022-08-09T14:59:43Z</time>
      </trkpt>
      <trkpt lat="44.10672" lon="3.8858">
        <ele>190.96</ele>
        <time>2022-08-09T14:59:45Z</time>
      </trkpt>
      <trkpt lat="44.10661" lon="3.88579">
        <ele>189.52</ele>
        <time>2022-08-09T14:59:56Z</time>
      </trkpt>
      <trkpt lat="44.10658" lon="3.88579">
        <ele>189.52</ele>
        <time>2022-08-09T14:59:59Z</time>
      </trkpt>
      <trkpt lat="44.10651" lon="3.88597">
        <ele>190</ele>
        <time>2022-08-09T15:00:12Z</time>
      </trkpt>
      <trkpt lat="44.10651" lon="3.88597">
        <ele>191.92</ele>
        <time>2022-08-09T15:00:30Z</time>
      </trkpt>
      <trkpt lat="44.10644" lon="3.88585">
        <ele>191.44</ele>
        <time>2022-08-09T15:00:43Z</time>
      </trkpt>
      <trkpt lat="44.1064" lon="3.88578">
        <ele>191.92</ele>
        <time>2022-08-09T15:00:48Z</time>
      </trkpt>
      <trkpt lat="44.10636" lon="3.8857">
        <ele>192.4</ele>
        <time>2022-08-09T15:00:57Z</time>
      </trkpt>
      <trkpt lat="44.10635" lon="3.88562">
        <ele>192.4</ele>
        <time>2022-08-09T15:01:02Z</time>
      </trkpt>
      <trkpt lat="44.10625" lon="3.88552">
        <ele>190</ele>
        <time>2022-08-09T15:01:15Z</time>
      </trkpt>
      <trkpt lat="44.10624" lon="3.88535">
        <ele>189.04</ele>
        <time>2022-08-09T15:01:26Z</time>
      </trkpt>
      <trkpt lat="44.10617" lon="3.88521">
        <ele>190.96</ele>
        <time>2022-08-09T15:01:40Z</time>
      </trkpt>
      <trkpt lat="44.10609" lon="3.88513">
        <ele>190.48</ele>
        <time>2022-08-09T15:01:54Z</time>
      </trkpt>
      <trkpt lat="44.10606" lon="3.8851">
        <ele>190.96</ele>
        <time>2022-08-09T15:02:16Z</time>
      </trkpt>
      <trkpt lat="44.10605" lon="3.88508">
        <ele>191.44</ele>
        <time>2022-08-09T15:02:29Z</time>
      </trkpt>
      <trkpt lat="44.10606" lon="3.88505">
        <ele>193.36</ele>
        <time>2022-08-09T15:02:52Z</time>
      </trkpt>
      <trkpt lat="44.10598" lon="3.88504">
        <ele>193.36</ele>
        <time>2022-08-09T15:03:08Z</time>
      </trkpt>
      <trkpt lat="44.10594" lon="3.88514">
        <ele>191.44</ele>
        <time>2022-08-09T15:03:22Z</time>
      </trkpt>
      <trkpt lat="44.1058" lon="3.88507">
        <ele>189.52</ele>
        <time>2022-08-09T15:03:39Z</time>
      </trkpt>
      <trkpt lat="44.10578" lon="3.88506">
        <ele>189.52</ele>
        <time>2022-08-09T15:03:41Z</time>
      </trkpt>
      <trkpt lat="44.10568" lon="3.88499">
        <ele>189.52</ele>
        <time>2022-08-09T15:03:57Z</time>
      </trkpt>
      <trkpt lat="44.10552" lon="3.88493">
        <ele>186.63</ele>
        <time>2022-08-09T15:04:15Z</time>
      </trkpt>
      <trkpt lat="44.10538" lon="3.88484">
        <ele>188.56</ele>
        <time>2022-08-09T15:04:30Z</time>
      </trkpt>
      <trkpt lat="44.10537" lon="3.8847">
        <ele>193.84</ele>
        <time>2022-08-09T15:04:46Z</time>
      </trkpt>
      <trkpt lat="44.10534" lon="3.88471">
        <ele>193.36</ele>
        <time>2022-08-09T15:04:56Z</time>
      </trkpt>
      <trkpt lat="44.10548" lon="3.88452">
        <ele>192.4</ele>
        <time>2022-08-09T15:05:13Z</time>
      </trkpt>
      <trkpt lat="44.10545" lon="3.88442">
        <ele>195.28</ele>
        <time>2022-08-09T15:05:25Z</time>
      </trkpt>
      <trkpt lat="44.10542" lon="3.88442">
        <ele>197.21</ele>
        <time>2022-08-09T15:05:49Z</time>
      </trkpt>
      <trkpt lat="44.10545" lon="3.88464">
        <ele>195.28</ele>
        <time>2022-08-09T15:06:04Z</time>
      </trkpt>
      <trkpt lat="44.10536" lon="3.88472">
        <ele>193.36</ele>
        <time>2022-08-09T15:06:20Z</time>
      </trkpt>
      <trkpt lat="44.10519" lon="3.88462">
        <ele>190</ele>
        <time>2022-08-09T15:06:38Z</time>
      </trkpt>
      <trkpt lat="44.10497" lon="3.88451">
        <ele>186.63</ele>
        <time>2022-08-09T15:06:54Z</time>
      </trkpt>
      <trkpt lat="44.10491" lon="3.8845">
        <ele>187.59</ele>
        <time>2022-08-09T15:06:58Z</time>
      </trkpt>
      <trkpt lat="44.10481" lon="3.88444">
        <ele>188.56</ele>
        <time>2022-08-09T15:07:11Z</time>
      </trkpt>
      <trkpt lat="44.10468" lon="3.88452">
        <ele>188.08</ele>
        <time>2022-08-09T15:07:26Z</time>
      </trkpt>
      <trkpt lat="44.10468" lon="3.88465">
        <ele>185.19</ele>
        <time>2022-08-09T15:07:42Z</time>
      </trkpt>
      <trkpt lat="44.10475" lon="3.88468">
        <ele>183.27</ele>
        <time>2022-08-09T15:08:01Z</time>
      </trkpt>
      <trkpt lat="44.10476" lon="3.88468">
        <ele>181.35</ele>
        <time>2022-08-09T15:08:20Z</time>
      </trkpt>
      <trkpt lat="44.10472" lon="3.88467">
        <ele>180.38</ele>
        <time>2022-08-09T15:08:39Z</time>
      </trkpt>
      <trkpt lat="44.10476" lon="3.88465">
        <ele>179.42</ele>
        <time>2022-08-09T15:09:06Z</time>
      </trkpt>
      <trkpt lat="44.10477" lon="3.8847">
        <ele>185.67</ele>
        <time>2022-08-09T15:09:40Z</time>
      </trkpt>
      <trkpt lat="44.10473" lon="3.88473">
        <ele>187.59</ele>
        <time>2022-08-09T15:10:00Z</time>
      </trkpt>
      <trkpt lat="44.10472" lon="3.88473">
        <ele>188.08</ele>
        <time>2022-08-09T15:10:07Z</time>
      </trkpt>
      <trkpt lat="44.11324" lon="3.89085">
        <ele>227.97</ele>
        <time>2022-08-10T05:03:09Z</time>
      </trkpt>
      <trkpt lat="44.11325" lon="3.89046">
        <ele>237.58</ele>
        <time>2022-08-10T05:03:50Z</time>
      </trkpt>
      <trkpt lat="44.11321" lon="3.89046">
        <ele>240.95</ele>
        <time>2022-08-10T05:04:04Z</time>
      </trkpt>
      <trkpt lat="44.11327" lon="3.89044">
        <ele>240.95</ele>
        <time>2022-08-10T05:04:11Z</time>
      </trkpt>
      <trkpt lat="44.1134" lon="3.89047">
        <ele>242.87</ele>
        <time>2022-08-10T05:04:25Z</time>
      </trkpt>
      <trkpt lat="44.11344" lon="3.89053">
        <ele>243.83</ele>
        <time>2022-08-10T05:04:33Z</time>
      </trkpt>
      <trkpt lat="44.11345" lon="3.89075">
        <ele>245.27</ele>
        <time>2022-08-10T05:04:50Z</time>
      </trkpt>
      <trkpt lat="44.11339" lon="3.89091">
        <ele>244.79</ele>
        <time>2022-08-10T05:05:05Z</time>
      </trkpt>
      <trkpt lat="44.11334" lon="3.8911">
        <ele>243.35</ele>
        <time>2022-08-10T05:05:21Z</time>
      </trkpt>
      <trkpt lat="44.11336" lon="3.8913">
        <ele>241.91</ele>
        <time>2022-08-10T05:05:36Z</time>
      </trkpt>
      <trkpt lat="44.11339" lon="3.89141">
        <ele>239.99</ele>
        <time>2022-08-10T05:05:44Z</time>
      </trkpt>
      <trkpt lat="44.11354" lon="3.89158">
        <ele>239.02</ele>
        <time>2022-08-10T05:06:04Z</time>
      </trkpt>
      <trkpt lat="44.11368" lon="3.8916">
        <ele>239.51</ele>
        <time>2022-08-10T05:06:21Z</time>
      </trkpt>
      <trkpt lat="44.11379" lon="3.89163">
        <ele>239.99</ele>
        <time>2022-08-10T05:06:36Z</time>
      </trkpt>
      <trkpt lat="44.11392" lon="3.8917">
        <ele>238.06</ele>
        <time>2022-08-10T05:06:52Z</time>
      </trkpt>
      <trkpt lat="44.11406" lon="3.89184">
        <ele>240.95</ele>
        <time>2022-08-10T05:07:09Z</time>
      </trkpt>
      <trkpt lat="44.11416" lon="3.89198">
        <ele>244.79</ele>
        <time>2022-08-10T05:07:21Z</time>
      </trkpt>
      <trkpt lat="44.1142" lon="3.89206">
        <ele>245.75</ele>
        <time>2022-08-10T05:07:27Z</time>
      </trkpt>
      <trkpt lat="44.11422" lon="3.89216">
        <ele>246.72</ele>
        <time>2022-08-10T05:07:33Z</time>
      </trkpt>
      <trkpt lat="44.11427" lon="3.89242">
        <ele>241.91</ele>
        <time>2022-08-10T05:07:52Z</time>
      </trkpt>
      <trkpt lat="44.11431" lon="3.89258">
        <ele>237.1</ele>
        <time>2022-08-10T05:08:04Z</time>
      </trkpt>
      <trkpt lat="44.11442" lon="3.89278">
        <ele>235.18</ele>
        <time>2022-08-10T05:08:22Z</time>
      </trkpt>
      <trkpt lat="44.1145" lon="3.89296">
        <ele>235.66</ele>
        <time>2022-08-10T05:08:39Z</time>
      </trkpt>
      <trkpt lat="44.11457" lon="3.89311">
        <ele>237.1</ele>
        <time>2022-08-10T05:08:53Z</time>
      </trkpt>
      <trkpt lat="44.11467" lon="3.89327">
        <ele>235.18</ele>
        <time>2022-08-10T05:09:09Z</time>
      </trkpt>
      <trkpt lat="44.11474" lon="3.89345">
        <ele>234.7</ele>
        <time>2022-08-10T05:09:24Z</time>
      </trkpt>
      <trkpt lat="44.11477" lon="3.89366">
        <ele>237.1</ele>
        <time>2022-08-10T05:09:40Z</time>
      </trkpt>
      <trkpt lat="44.11482" lon="3.89386">
        <ele>235.18</ele>
        <time>2022-08-10T05:09:57Z</time>
      </trkpt>
      <trkpt lat="44.1149" lon="3.89409">
        <ele>238.54</ele>
        <time>2022-08-10T05:10:15Z</time>
      </trkpt>
      <trkpt lat="44.11506" lon="3.89425">
        <ele>242.39</ele>
        <time>2022-08-10T05:10:36Z</time>
      </trkpt>
      <trkpt lat="44.11515" lon="3.89437">
        <ele>245.75</ele>
        <time>2022-08-10T05:10:51Z</time>
      </trkpt>
      <trkpt lat="44.11525" lon="3.89447">
        <ele>250.56</ele>
        <time>2022-08-10T05:11:04Z</time>
      </trkpt>
      <trkpt lat="44.11539" lon="3.89465">
        <ele>252.48</ele>
        <time>2022-08-10T05:11:24Z</time>
      </trkpt>
      <trkpt lat="44.11543" lon="3.89484">
        <ele>252</ele>
        <time>2022-08-10T05:11:38Z</time>
      </trkpt>
      <trkpt lat="44.11543" lon="3.89491">
        <ele>252.48</ele>
        <time>2022-08-10T05:11:43Z</time>
      </trkpt>
      <trkpt lat="44.1154" lon="3.89511">
        <ele>253.44</ele>
        <time>2022-08-10T05:12:01Z</time>
      </trkpt>
      <trkpt lat="44.11538" lon="3.8954">
        <ele>252.96</ele>
        <time>2022-08-10T05:12:21Z</time>
      </trkpt>
      <trkpt lat="44.11541" lon="3.89567">
        <ele>254.89</ele>
        <time>2022-08-10T05:12:39Z</time>
      </trkpt>
      <trkpt lat="44.11551" lon="3.89578">
        <ele>255.85</ele>
        <time>2022-08-10T05:12:55Z</time>
      </trkpt>
      <trkpt lat="44.11561" lon="3.89591">
        <ele>255.85</ele>
        <time>2022-08-10T05:13:09Z</time>
      </trkpt>
      <trkpt lat="44.11562" lon="3.89593">
        <ele>255.85</ele>
        <time>2022-08-10T05:13:11Z</time>
      </trkpt>
      <trkpt lat="44.11568" lon="3.89608">
        <ele>255.85</ele>
        <time>2022-08-10T05:13:25Z</time>
      </trkpt>
      <trkpt lat="44.11568" lon="3.89634">
        <ele>255.85</ele>
        <time>2022-08-10T05:13:43Z</time>
      </trkpt>
      <trkpt lat="44.11567" lon="3.89663">
        <ele>252</ele>
        <time>2022-08-10T05:14:02Z</time>
      </trkpt>
      <trkpt lat="44.11572" lon="3.89679">
        <ele>250.56</ele>
        <time>2022-08-10T05:14:15Z</time>
      </trkpt>
      <trkpt lat="44.11578" lon="3.89698">
        <ele>251.52</ele>
        <time>2022-08-10T05:14:33Z</time>
      </trkpt>
      <trkpt lat="44.11592" lon="3.89707">
        <ele>251.52</ele>
        <time>2022-08-10T05:14:48Z</time>
      </trkpt>
      <trkpt lat="44.1161" lon="3.89717">
        <ele>250.08</ele>
        <time>2022-08-10T05:15:02Z</time>
      </trkpt>
      <trkpt lat="44.11622" lon="3.89731">
        <ele>253.93</ele>
        <time>2022-08-10T05:15:18Z</time>
      </trkpt>
      <trkpt lat="44.11635" lon="3.8974">
        <ele>255.37</ele>
        <time>2022-08-10T05:15:31Z</time>
      </trkpt>
      <trkpt lat="44.11651" lon="3.89754">
        <ele>256.81</ele>
        <time>2022-08-10T05:15:47Z</time>
      </trkpt>
      <trkpt lat="44.11662" lon="3.89769">
        <ele>257.77</ele>
        <time>2022-08-10T05:16:01Z</time>
      </trkpt>
      <trkpt lat="44.11667" lon="3.8979">
        <ele>258.73</ele>
        <time>2022-08-10T05:16:16Z</time>
      </trkpt>
      <trkpt lat="44.11677" lon="3.89806">
        <ele>264.5</ele>
        <time>2022-08-10T05:16:31Z</time>
      </trkpt>
      <trkpt lat="44.11673" lon="3.89806">
        <ele>265.46</ele>
        <time>2022-08-10T05:16:42Z</time>
      </trkpt>
      <trkpt lat="44.11666" lon="3.89811">
        <ele>265.94</ele>
        <time>2022-08-10T05:16:57Z</time>
      </trkpt>
      <trkpt lat="44.11668" lon="3.89829">
        <ele>264.98</ele>
        <time>2022-08-10T05:17:09Z</time>
      </trkpt>
      <trkpt lat="44.1167" lon="3.8984">
        <ele>264.5</ele>
        <time>2022-08-10T05:17:17Z</time>
      </trkpt>
      <trkpt lat="44.1167" lon="3.89846">
        <ele>264.98</ele>
        <time>2022-08-10T05:17:21Z</time>
      </trkpt>
      <trkpt lat="44.11664" lon="3.89853">
        <ele>264.98</ele>
        <time>2022-08-10T05:17:29Z</time>
      </trkpt>
      <trkpt lat="44.11648" lon="3.89859">
        <ele>263.54</ele>
        <time>2022-08-10T05:17:47Z</time>
      </trkpt>
      <trkpt lat="44.11639" lon="3.89868">
        <ele>263.06</ele>
        <time>2022-08-10T05:17:59Z</time>
      </trkpt>
      <trkpt lat="44.11631" lon="3.89875">
        <ele>264.02</ele>
        <time>2022-08-10T05:18:10Z</time>
      </trkpt>
      <trkpt lat="44.11612" lon="3.89876">
        <ele>265.94</ele>
        <time>2022-08-10T05:18:28Z</time>
      </trkpt>
      <trkpt lat="44.116" lon="3.89864">
        <ele>272.19</ele>
        <time>2022-08-10T05:18:45Z</time>
      </trkpt>
      <trkpt lat="44.11596" lon="3.8986">
        <ele>275.07</ele>
        <time>2022-08-10T05:18:50Z</time>
      </trkpt>
      <trkpt lat="44.11589" lon="3.89855">
        <ele>278.44</ele>
        <time>2022-08-10T05:18:58Z</time>
      </trkpt>
      <trkpt lat="44.11575" lon="3.89861">
        <ele>278.44</ele>
        <time>2022-08-10T05:19:13Z</time>
      </trkpt>
      <trkpt lat="44.11565" lon="3.89868">
        <ele>277.96</ele>
        <time>2022-08-10T05:19:25Z</time>
      </trkpt>
      <trkpt lat="44.11553" lon="3.89875">
        <ele>277.96</ele>
        <time>2022-08-10T05:19:37Z</time>
      </trkpt>
      <trkpt lat="44.11542" lon="3.89882">
        <ele>280.84</ele>
        <time>2022-08-10T05:19:50Z</time>
      </trkpt>
      <trkpt lat="44.11528" lon="3.8989">
        <ele>279.4</ele>
        <time>2022-08-10T05:20:05Z</time>
      </trkpt>
      <trkpt lat="44.1152" lon="3.89889">
        <ele>278.92</ele>
        <time>2022-08-10T05:20:12Z</time>
      </trkpt>
      <trkpt lat="44.11507" lon="3.8989">
        <ele>279.88</ele>
        <time>2022-08-10T05:20:26Z</time>
      </trkpt>
      <trkpt lat="44.11496" lon="3.89878">
        <ele>283.73</ele>
        <time>2022-08-10T05:20:39Z</time>
      </trkpt>
      <trkpt lat="44.11486" lon="3.89865">
        <ele>287.09</ele>
        <time>2022-08-10T05:20:55Z</time>
      </trkpt>
      <trkpt lat="44.11475" lon="3.8985">
        <ele>289.97</ele>
        <time>2022-08-10T05:21:11Z</time>
      </trkpt>
      <trkpt lat="44.11469" lon="3.89833">
        <ele>291.42</ele>
        <time>2022-08-10T05:21:26Z</time>
      </trkpt>
      <trkpt lat="44.11456" lon="3.89816">
        <ele>291.9</ele>
        <time>2022-08-10T05:21:42Z</time>
      </trkpt>
      <trkpt lat="44.11455" lon="3.89814">
        <ele>291.9</ele>
        <time>2022-08-10T05:21:44Z</time>
      </trkpt>
      <trkpt lat="44.11444" lon="3.89817">
        <ele>293.34</ele>
        <time>2022-08-10T05:22:01Z</time>
      </trkpt>
      <trkpt lat="44.11436" lon="3.89839">
        <ele>292.38</ele>
        <time>2022-08-10T05:22:18Z</time>
      </trkpt>
      <trkpt lat="44.1143" lon="3.89858">
        <ele>294.78</ele>
        <time>2022-08-10T05:22:34Z</time>
      </trkpt>
      <trkpt lat="44.11425" lon="3.89866">
        <ele>295.26</ele>
        <time>2022-08-10T05:22:41Z</time>
      </trkpt>
      <trkpt lat="44.11414" lon="3.89884">
        <ele>297.18</ele>
        <time>2022-08-10T05:22:57Z</time>
      </trkpt>
      <trkpt lat="44.11404" lon="3.89898">
        <ele>296.22</ele>
        <time>2022-08-10T05:23:11Z</time>
      </trkpt>
      <trkpt lat="44.11394" lon="3.89915">
        <ele>294.3</ele>
        <time>2022-08-10T05:23:24Z</time>
      </trkpt>
      <trkpt lat="44.11384" lon="3.89931">
        <ele>294.78</ele>
        <time>2022-08-10T05:23:38Z</time>
      </trkpt>
      <trkpt lat="44.11373" lon="3.89949">
        <ele>294.78</ele>
        <time>2022-08-10T05:23:51Z</time>
      </trkpt>
      <trkpt lat="44.1136" lon="3.8997">
        <ele>298.15</ele>
        <time>2022-08-10T05:24:07Z</time>
      </trkpt>
      <trkpt lat="44.11352" lon="3.89989">
        <ele>299.59</ele>
        <time>2022-08-10T05:24:20Z</time>
      </trkpt>
      <trkpt lat="44.11343" lon="3.90011">
        <ele>303.43</ele>
        <time>2022-08-10T05:24:34Z</time>
      </trkpt>
      <trkpt lat="44.11336" lon="3.90034">
        <ele>306.32</ele>
        <time>2022-08-10T05:24:47Z</time>
      </trkpt>
      <trkpt lat="44.11325" lon="3.90057">
        <ele>308.24</ele>
        <time>2022-08-10T05:25:02Z</time>
      </trkpt>
      <trkpt lat="44.11333" lon="3.90073">
        <ele>307.76</ele>
        <time>2022-08-10T05:25:16Z</time>
      </trkpt>
      <trkpt lat="44.11336" lon="3.90078">
        <ele>307.76</ele>
        <time>2022-08-10T05:25:21Z</time>
      </trkpt>
      <trkpt lat="44.11349" lon="3.90088">
        <ele>307.76</ele>
        <time>2022-08-10T05:25:30Z</time>
      </trkpt>
      <trkpt lat="44.11358" lon="3.90103">
        <ele>307.28</ele>
        <time>2022-08-10T05:25:43Z</time>
      </trkpt>
      <trkpt lat="44.11364" lon="3.90114">
        <ele>307.28</ele>
        <time>2022-08-10T05:25:52Z</time>
      </trkpt>
      <trkpt lat="44.11375" lon="3.90133">
        <ele>308.24</ele>
        <time>2022-08-10T05:26:06Z</time>
      </trkpt>
      <trkpt lat="44.11385" lon="3.90159">
        <ele>305.84</ele>
        <time>2022-08-10T05:26:24Z</time>
      </trkpt>
      <trkpt lat="44.11402" lon="3.90159">
        <ele>305.36</ele>
        <time>2022-08-10T05:26:40Z</time>
      </trkpt>
      <trkpt lat="44.11421" lon="3.9015">
        <ele>305.36</ele>
        <time>2022-08-10T05:26:57Z</time>
      </trkpt>
      <trkpt lat="44.11435" lon="3.90151">
        <ele>302.47</ele>
        <time>2022-08-10T05:27:07Z</time>
      </trkpt>
      <trkpt lat="44.11454" lon="3.90162">
        <ele>299.11</ele>
        <time>2022-08-10T05:27:22Z</time>
      </trkpt>
      <trkpt lat="44.1147" lon="3.90174">
        <ele>296.7</ele>
        <time>2022-08-10T05:27:37Z</time>
      </trkpt>
      <trkpt lat="44.11484" lon="3.90189">
        <ele>296.22</ele>
        <time>2022-08-10T05:27:53Z</time>
      </trkpt>
      <trkpt lat="44.11492" lon="3.90203">
        <ele>295.74</ele>
        <time>2022-08-10T05:28:10Z</time>
      </trkpt>
      <trkpt lat="44.11502" lon="3.90219">
        <ele>296.22</ele>
        <time>2022-08-10T05:28:23Z</time>
      </trkpt>
      <trkpt lat="44.11511" lon="3.90246">
        <ele>295.74</ele>
        <time>2022-08-10T05:28:38Z</time>
      </trkpt>
      <trkpt lat="44.11516" lon="3.9027">
        <ele>296.22</ele>
        <time>2022-08-10T05:28:53Z</time>
      </trkpt>
      <trkpt lat="44.11522" lon="3.9029">
        <ele>295.26</ele>
        <time>2022-08-10T05:29:08Z</time>
      </trkpt>
      <trkpt lat="44.11532" lon="3.90302">
        <ele>289.97</ele>
        <time>2022-08-10T05:29:24Z</time>
      </trkpt>
      <trkpt lat="44.11537" lon="3.90328">
        <ele>292.38</ele>
        <time>2022-08-10T05:29:40Z</time>
      </trkpt>
      <trkpt lat="44.11538" lon="3.9036">
        <ele>299.11</ele>
        <time>2022-08-10T05:29:56Z</time>
      </trkpt>
      <trkpt lat="44.11535" lon="3.90375">
        <ele>302.95</ele>
        <time>2022-08-10T05:30:06Z</time>
      </trkpt>
      <trkpt lat="44.11527" lon="3.90388">
        <ele>306.32</ele>
        <time>2022-08-10T05:30:22Z</time>
      </trkpt>
      <trkpt lat="44.11516" lon="3.90408">
        <ele>311.12</ele>
        <time>2022-08-10T05:30:38Z</time>
      </trkpt>
      <trkpt lat="44.11507" lon="3.90433">
        <ele>315.45</ele>
        <time>2022-08-10T05:30:53Z</time>
      </trkpt>
      <trkpt lat="44.11507" lon="3.90454">
        <ele>319.3</ele>
        <time>2022-08-10T05:31:06Z</time>
      </trkpt>
      <trkpt lat="44.11506" lon="3.90478">
        <ele>320.26</ele>
        <time>2022-08-10T05:31:20Z</time>
      </trkpt>
      <trkpt lat="44.11511" lon="3.90499">
        <ele>319.3</ele>
        <time>2022-08-10T05:31:35Z</time>
      </trkpt>
      <trkpt lat="44.11512" lon="3.9052">
        <ele>315.93</ele>
        <time>2022-08-10T05:31:50Z</time>
      </trkpt>
      <trkpt lat="44.11514" lon="3.9054">
        <ele>314.97</ele>
        <time>2022-08-10T05:32:02Z</time>
      </trkpt>
      <trkpt lat="44.11519" lon="3.90562">
        <ele>316.89</ele>
        <time>2022-08-10T05:32:18Z</time>
      </trkpt>
      <trkpt lat="44.11528" lon="3.9058">
        <ele>316.41</ele>
        <time>2022-08-10T05:32:33Z</time>
      </trkpt>
      <trkpt lat="44.11525" lon="3.90601">
        <ele>317.85</ele>
        <time>2022-08-10T05:32:46Z</time>
      </trkpt>
      <trkpt lat="44.11517" lon="3.90614">
        <ele>320.26</ele>
        <time>2022-08-10T05:33:01Z</time>
      </trkpt>
      <trkpt lat="44.11515" lon="3.90617">
        <ele>320.26</ele>
        <time>2022-08-10T05:33:04Z</time>
      </trkpt>
      <trkpt lat="44.11506" lon="3.90638">
        <ele>323.62</ele>
        <time>2022-08-10T05:33:19Z</time>
      </trkpt>
      <trkpt lat="44.11506" lon="3.90649">
        <ele>325.06</ele>
        <time>2022-08-10T05:33:28Z</time>
      </trkpt>
      <trkpt lat="44.11515" lon="3.90671">
        <ele>323.14</ele>
        <time>2022-08-10T05:33:46Z</time>
      </trkpt>
      <trkpt lat="44.11517" lon="3.90674">
        <ele>322.66</ele>
        <time>2022-08-10T05:33:49Z</time>
      </trkpt>
      <trkpt lat="44.11522" lon="3.90691">
        <ele>322.18</ele>
        <time>2022-08-10T05:34:03Z</time>
      </trkpt>
      <trkpt lat="44.11528" lon="3.9071">
        <ele>322.66</ele>
        <time>2022-08-10T05:34:18Z</time>
      </trkpt>
      <trkpt lat="44.11535" lon="3.90733">
        <ele>325.54</ele>
        <time>2022-08-10T05:34:36Z</time>
      </trkpt>
      <trkpt lat="44.11542" lon="3.90749">
        <ele>325.54</ele>
        <time>2022-08-10T05:34:50Z</time>
      </trkpt>
      <trkpt lat="44.11547" lon="3.90764">
        <ele>326.5</ele>
        <time>2022-08-10T05:35:04Z</time>
      </trkpt>
      <trkpt lat="44.1155" lon="3.90788">
        <ele>329.39</ele>
        <time>2022-08-10T05:35:22Z</time>
      </trkpt>
      <trkpt lat="44.11562" lon="3.90807">
        <ele>329.39</ele>
        <time>2022-08-10T05:35:39Z</time>
      </trkpt>
      <trkpt lat="44.11572" lon="3.90821">
        <ele>326.5</ele>
        <time>2022-08-10T05:35:55Z</time>
      </trkpt>
      <trkpt lat="44.1158" lon="3.90842">
        <ele>326.02</ele>
        <time>2022-08-10T05:36:11Z</time>
      </trkpt>
      <trkpt lat="44.11585" lon="3.9086">
        <ele>328.43</ele>
        <time>2022-08-10T05:36:26Z</time>
      </trkpt>
      <trkpt lat="44.11594" lon="3.90877">
        <ele>329.39</ele>
        <time>2022-08-10T05:36:41Z</time>
      </trkpt>
      <trkpt lat="44.11602" lon="3.90902">
        <ele>329.87</ele>
        <time>2022-08-10T05:36:58Z</time>
      </trkpt>
      <trkpt lat="44.11609" lon="3.90925">
        <ele>330.83</ele>
        <time>2022-08-10T05:37:13Z</time>
      </trkpt>
      <trkpt lat="44.1161" lon="3.90951">
        <ele>332.75</ele>
        <time>2022-08-10T05:37:28Z</time>
      </trkpt>
      <trkpt lat="44.11609" lon="3.90957">
        <ele>333.23</ele>
        <time>2022-08-10T05:37:32Z</time>
      </trkpt>
      <trkpt lat="44.11608" lon="3.90965">
        <ele>333.71</ele>
        <time>2022-08-10T05:37:37Z</time>
      </trkpt>
      <trkpt lat="44.11604" lon="3.90986">
        <ele>334.2</ele>
        <time>2022-08-10T05:37:50Z</time>
      </trkpt>
      <trkpt lat="44.11596" lon="3.91001">
        <ele>334.2</ele>
        <time>2022-08-10T05:38:02Z</time>
      </trkpt>
      <trkpt lat="44.1159" lon="3.91022">
        <ele>335.16</ele>
        <time>2022-08-10T05:38:18Z</time>
      </trkpt>
      <trkpt lat="44.1159" lon="3.91043">
        <ele>335.16</ele>
        <time>2022-08-10T05:38:31Z</time>
      </trkpt>
      <trkpt lat="44.11593" lon="3.91068">
        <ele>336.6</ele>
        <time>2022-08-10T05:38:45Z</time>
      </trkpt>
      <trkpt lat="44.11597" lon="3.91089">
        <ele>337.56</ele>
        <time>2022-08-10T05:38:59Z</time>
      </trkpt>
      <trkpt lat="44.11597" lon="3.91108">
        <ele>336.6</ele>
        <time>2022-08-10T05:39:12Z</time>
      </trkpt>
      <trkpt lat="44.11596" lon="3.91133">
        <ele>338.04</ele>
        <time>2022-08-10T05:39:25Z</time>
      </trkpt>
      <trkpt lat="44.11591" lon="3.91157">
        <ele>338.52</ele>
        <time>2022-08-10T05:39:41Z</time>
      </trkpt>
      <trkpt lat="44.11604" lon="3.91181">
        <ele>341.41</ele>
        <time>2022-08-10T05:39:58Z</time>
      </trkpt>
      <trkpt lat="44.11621" lon="3.912">
        <ele>341.41</ele>
        <time>2022-08-10T05:40:15Z</time>
      </trkpt>
      <trkpt lat="44.11627" lon="3.9123">
        <ele>339.96</ele>
        <time>2022-08-10T05:40:32Z</time>
      </trkpt>
      <trkpt lat="44.11626" lon="3.91261">
        <ele>335.64</ele>
        <time>2022-08-10T05:40:50Z</time>
      </trkpt>
      <trkpt lat="44.11632" lon="3.91284">
        <ele>334.2</ele>
        <time>2022-08-10T05:41:06Z</time>
      </trkpt>
      <trkpt lat="44.11634" lon="3.91298">
        <ele>331.79</ele>
        <time>2022-08-10T05:41:17Z</time>
      </trkpt>
      <trkpt lat="44.11641" lon="3.91318">
        <ele>331.79</ele>
        <time>2022-08-10T05:41:30Z</time>
      </trkpt>
      <trkpt lat="44.11651" lon="3.91339">
        <ele>335.64</ele>
        <time>2022-08-10T05:41:45Z</time>
      </trkpt>
      <trkpt lat="44.11657" lon="3.91359">
        <ele>336.12</ele>
        <time>2022-08-10T05:42:00Z</time>
      </trkpt>
      <trkpt lat="44.11657" lon="3.91364">
        <ele>335.64</ele>
        <time>2022-08-10T05:42:03Z</time>
      </trkpt>
      <trkpt lat="44.11658" lon="3.91389">
        <ele>334.68</ele>
        <time>2022-08-10T05:42:16Z</time>
      </trkpt>
      <trkpt lat="44.11661" lon="3.91407">
        <ele>334.2</ele>
        <time>2022-08-10T05:42:28Z</time>
      </trkpt>
      <trkpt lat="44.11666" lon="3.91421">
        <ele>333.23</ele>
        <time>2022-08-10T05:42:39Z</time>
      </trkpt>
      <trkpt lat="44.11672" lon="3.91435">
        <ele>329.87</ele>
        <time>2022-08-10T05:42:53Z</time>
      </trkpt>
      <trkpt lat="44.11674" lon="3.91453">
        <ele>329.39</ele>
        <time>2022-08-10T05:43:05Z</time>
      </trkpt>
      <trkpt lat="44.11679" lon="3.91472">
        <ele>328.91</ele>
        <time>2022-08-10T05:43:17Z</time>
      </trkpt>
      <trkpt lat="44.11683" lon="3.91492">
        <ele>325.54</ele>
        <time>2022-08-10T05:43:31Z</time>
      </trkpt>
      <trkpt lat="44.11689" lon="3.91506">
        <ele>321.7</ele>
        <time>2022-08-10T05:43:44Z</time>
      </trkpt>
      <trkpt lat="44.11694" lon="3.91527">
        <ele>319.3</ele>
        <time>2022-08-10T05:43:58Z</time>
      </trkpt>
      <trkpt lat="44.11697" lon="3.91549">
        <ele>317.85</ele>
        <time>2022-08-10T05:44:13Z</time>
      </trkpt>
      <trkpt lat="44.11706" lon="3.91567">
        <ele>314.01</ele>
        <time>2022-08-10T05:44:28Z</time>
      </trkpt>
      <trkpt lat="44.11713" lon="3.91581">
        <ele>311.6</ele>
        <time>2022-08-10T05:44:40Z</time>
      </trkpt>
      <trkpt lat="44.1172" lon="3.91597">
        <ele>308.72</ele>
        <time>2022-08-10T05:44:54Z</time>
      </trkpt>
      <trkpt lat="44.11733" lon="3.91616">
        <ele>305.84</ele>
        <time>2022-08-10T05:45:11Z</time>
      </trkpt>
      <trkpt lat="44.11746" lon="3.91637">
        <ele>309.2</ele>
        <time>2022-08-10T05:45:26Z</time>
      </trkpt>
      <trkpt lat="44.11756" lon="3.91655">
        <ele>308.24</ele>
        <time>2022-08-10T05:45:41Z</time>
      </trkpt>
      <trkpt lat="44.11764" lon="3.91673">
        <ele>305.84</ele>
        <time>2022-08-10T05:45:55Z</time>
      </trkpt>
      <trkpt lat="44.11769" lon="3.91692">
        <ele>306.32</ele>
        <time>2022-08-10T05:46:07Z</time>
      </trkpt>
      <trkpt lat="44.11778" lon="3.91707">
        <ele>306.32</ele>
        <time>2022-08-10T05:46:21Z</time>
      </trkpt>
      <trkpt lat="44.11782" lon="3.91723">
        <ele>304.39</ele>
        <time>2022-08-10T05:46:33Z</time>
      </trkpt>
      <trkpt lat="44.11779" lon="3.91739">
        <ele>300.55</ele>
        <time>2022-08-10T05:46:47Z</time>
      </trkpt>
      <trkpt lat="44.11778" lon="3.91742">
        <ele>299.59</ele>
        <time>2022-08-10T05:46:49Z</time>
      </trkpt>
      <trkpt lat="44.11765" lon="3.91765">
        <ele>292.38</ele>
        <time>2022-08-10T05:47:04Z</time>
      </trkpt>
      <trkpt lat="44.11761" lon="3.91786">
        <ele>289.97</ele>
        <time>2022-08-10T05:47:17Z</time>
      </trkpt>
      <trkpt lat="44.1176" lon="3.91791">
        <ele>289.49</ele>
        <time>2022-08-10T05:47:21Z</time>
      </trkpt>
      <trkpt lat="44.1176" lon="3.91799">
        <ele>289.49</ele>
        <time>2022-08-10T05:47:25Z</time>
      </trkpt>
      <trkpt lat="44.11754" lon="3.91819">
        <ele>288.53</ele>
        <time>2022-08-10T05:47:37Z</time>
      </trkpt>
      <trkpt lat="44.11747" lon="3.91841">
        <ele>287.09</ele>
        <time>2022-08-10T05:47:50Z</time>
      </trkpt>
      <trkpt lat="44.11743" lon="3.91862">
        <ele>286.61</ele>
        <time>2022-08-10T05:48:05Z</time>
      </trkpt>
      <trkpt lat="44.11736" lon="3.91877">
        <ele>286.61</ele>
        <time>2022-08-10T05:48:17Z</time>
      </trkpt>
      <trkpt lat="44.11734" lon="3.91888">
        <ele>286.61</ele>
        <time>2022-08-10T05:48:25Z</time>
      </trkpt>
      <trkpt lat="44.11731" lon="3.9191">
        <ele>286.13</ele>
        <time>2022-08-10T05:48:39Z</time>
      </trkpt>
      <trkpt lat="44.11732" lon="3.91935">
        <ele>286.13</ele>
        <time>2022-08-10T05:48:53Z</time>
      </trkpt>
      <trkpt lat="44.11733" lon="3.91958">
        <ele>286.13</ele>
        <time>2022-08-10T05:49:07Z</time>
      </trkpt>
      <trkpt lat="44.11733" lon="3.91978">
        <ele>286.13</ele>
        <time>2022-08-10T05:49:22Z</time>
      </trkpt>
      <trkpt lat="44.11734" lon="3.91997">
        <ele>285.65</ele>
        <time>2022-08-10T05:49:36Z</time>
      </trkpt>
      <trkpt lat="44.11735" lon="3.92022">
        <ele>285.65</ele>
        <time>2022-08-10T05:49:49Z</time>
      </trkpt>
      <trkpt lat="44.11737" lon="3.9204">
        <ele>285.65</ele>
        <time>2022-08-10T05:50:01Z</time>
      </trkpt>
      <trkpt lat="44.11737" lon="3.92045">
        <ele>285.65</ele>
        <time>2022-08-10T05:50:04Z</time>
      </trkpt>
      <trkpt lat="44.11737" lon="3.92073">
        <ele>285.65</ele>
        <time>2022-08-10T05:50:21Z</time>
      </trkpt>
      <trkpt lat="44.11737" lon="3.92093">
        <ele>285.65</ele>
        <time>2022-08-10T05:50:33Z</time>
      </trkpt>
      <trkpt lat="44.11736" lon="3.92109">
        <ele>285.65</ele>
        <time>2022-08-10T05:50:41Z</time>
      </trkpt>
      <trkpt lat="44.11737" lon="3.92116">
        <ele>285.65</ele>
        <time>2022-08-10T05:50:45Z</time>
      </trkpt>
      <trkpt lat="44.11737" lon="3.92122">
        <ele>285.65</ele>
        <time>2022-08-10T05:50:49Z</time>
      </trkpt>
      <trkpt lat="44.11738" lon="3.9214">
        <ele>284.69</ele>
        <time>2022-08-10T05:50:56Z</time>
      </trkpt>
      <trkpt lat="44.11731" lon="3.92167">
        <ele>282.77</ele>
        <time>2022-08-10T05:51:15Z</time>
      </trkpt>
      <trkpt lat="44.11722" lon="3.92191">
        <ele>281.8</ele>
        <time>2022-08-10T05:51:32Z</time>
      </trkpt>
      <trkpt lat="44.11711" lon="3.92212">
        <ele>278.44</ele>
        <time>2022-08-10T05:51:48Z</time>
      </trkpt>
      <trkpt lat="44.11696" lon="3.92232">
        <ele>274.11</ele>
        <time>2022-08-10T05:52:04Z</time>
      </trkpt>
      <trkpt lat="44.11682" lon="3.92246">
        <ele>268.83</ele>
        <time>2022-08-10T05:52:19Z</time>
      </trkpt>
      <trkpt lat="44.11669" lon="3.92252">
        <ele>259.21</ele>
        <time>2022-08-10T05:52:34Z</time>
      </trkpt>
      <trkpt lat="44.11666" lon="3.92255">
        <ele>258.25</ele>
        <time>2022-08-10T05:52:37Z</time>
      </trkpt>
      <trkpt lat="44.11651" lon="3.9227">
        <ele>258.25</ele>
        <time>2022-08-10T05:52:52Z</time>
      </trkpt>
      <trkpt lat="44.11645" lon="3.92288">
        <ele>258.25</ele>
        <time>2022-08-10T05:53:06Z</time>
      </trkpt>
      <trkpt lat="44.11631" lon="3.92316">
        <ele>259.69</ele>
        <time>2022-08-10T05:53:24Z</time>
      </trkpt>
      <trkpt lat="44.11627" lon="3.92329">
        <ele>259.69</ele>
        <time>2022-08-10T05:53:34Z</time>
      </trkpt>
      <trkpt lat="44.11627" lon="3.92335">
        <ele>259.69</ele>
        <time>2022-08-10T05:53:37Z</time>
      </trkpt>
      <trkpt lat="44.11628" lon="3.92339">
        <ele>259.69</ele>
        <time>2022-08-10T05:53:39Z</time>
      </trkpt>
      <trkpt lat="44.1163" lon="3.92346">
        <ele>259.69</ele>
        <time>2022-08-10T05:53:43Z</time>
      </trkpt>
      <trkpt lat="44.11633" lon="3.92368">
        <ele>260.65</ele>
        <time>2022-08-10T05:53:57Z</time>
      </trkpt>
      <trkpt lat="44.11641" lon="3.9239">
        <ele>259.69</ele>
        <time>2022-08-10T05:54:13Z</time>
      </trkpt>
      <trkpt lat="44.11644" lon="3.92404">
        <ele>259.69</ele>
        <time>2022-08-10T05:54:22Z</time>
      </trkpt>
      <trkpt lat="44.11646" lon="3.92411">
        <ele>259.69</ele>
        <time>2022-08-10T05:54:26Z</time>
      </trkpt>
      <trkpt lat="44.11648" lon="3.92419">
        <ele>259.69</ele>
        <time>2022-08-10T05:54:31Z</time>
      </trkpt>
      <trkpt lat="44.1165" lon="3.92442">
        <ele>259.69</ele>
        <time>2022-08-10T05:54:46Z</time>
      </trkpt>
      <trkpt lat="44.1165" lon="3.92444">
        <ele>259.69</ele>
        <time>2022-08-10T05:54:47Z</time>
      </trkpt>
      <trkpt lat="44.11655" lon="3.92462">
        <ele>258.73</ele>
        <time>2022-08-10T05:55:00Z</time>
      </trkpt>
      <trkpt lat="44.11647" lon="3.92483">
        <ele>251.52</ele>
        <time>2022-08-10T05:55:17Z</time>
      </trkpt>
      <trkpt lat="44.11639" lon="3.92498">
        <ele>239.99</ele>
        <time>2022-08-10T05:55:34Z</time>
      </trkpt>
      <trkpt lat="44.11638" lon="3.925">
        <ele>239.51</ele>
        <time>2022-08-10T05:55:35Z</time>
      </trkpt>
      <trkpt lat="44.11623" lon="3.92522">
        <ele>235.18</ele>
        <time>2022-08-10T05:55:52Z</time>
      </trkpt>
      <trkpt lat="44.11612" lon="3.92545">
        <ele>232.78</ele>
        <time>2022-08-10T05:56:08Z</time>
      </trkpt>
      <trkpt lat="44.11596" lon="3.92566">
        <ele>226.53</ele>
        <time>2022-08-10T05:56:24Z</time>
      </trkpt>
      <trkpt lat="44.11592" lon="3.9257">
        <ele>225.09</ele>
        <time>2022-08-10T05:56:28Z</time>
      </trkpt>
      <trkpt lat="44.11578" lon="3.92592">
        <ele>222.68</ele>
        <time>2022-08-10T05:56:45Z</time>
      </trkpt>
      <trkpt lat="44.11572" lon="3.92614">
        <ele>222.68</ele>
        <time>2022-08-10T05:56:58Z</time>
      </trkpt>
      <trkpt lat="44.11589" lon="3.92631">
        <ele>222.68</ele>
        <time>2022-08-10T05:57:15Z</time>
      </trkpt>
      <trkpt lat="44.11601" lon="3.92654">
        <ele>222.68</ele>
        <time>2022-08-10T05:57:29Z</time>
      </trkpt>
      <trkpt lat="44.11605" lon="3.92687">
        <ele>222.68</ele>
        <time>2022-08-10T05:57:46Z</time>
      </trkpt>
      <trkpt lat="44.11606" lon="3.92719">
        <ele>231.33</ele>
        <time>2022-08-10T05:58:01Z</time>
      </trkpt>
      <trkpt lat="44.11609" lon="3.92745">
        <ele>236.62</ele>
        <time>2022-08-10T05:58:15Z</time>
      </trkpt>
      <trkpt lat="44.11613" lon="3.92769">
        <ele>240.47</ele>
        <time>2022-08-10T05:58:29Z</time>
      </trkpt>
      <trkpt lat="44.11618" lon="3.92795">
        <ele>242.87</ele>
        <time>2022-08-10T05:58:44Z</time>
      </trkpt>
      <trkpt lat="44.11621" lon="3.92825">
        <ele>239.99</ele>
        <time>2022-08-10T05:59:02Z</time>
      </trkpt>
      <trkpt lat="44.11617" lon="3.92847">
        <ele>235.18</ele>
        <time>2022-08-10T05:59:17Z</time>
      </trkpt>
      <trkpt lat="44.11615" lon="3.92863">
        <ele>233.26</ele>
        <time>2022-08-10T05:59:26Z</time>
      </trkpt>
      <trkpt lat="44.11627" lon="3.92885">
        <ele>232.78</ele>
        <time>2022-08-10T05:59:42Z</time>
      </trkpt>
      <trkpt lat="44.1163" lon="3.92909">
        <ele>227.97</ele>
        <time>2022-08-10T05:59:59Z</time>
      </trkpt>
      <trkpt lat="44.11633" lon="3.92931">
        <ele>227.97</ele>
        <time>2022-08-10T06:00:13Z</time>
      </trkpt>
      <trkpt lat="44.11632" lon="3.92954">
        <ele>224.61</ele>
        <time>2022-08-10T06:00:28Z</time>
      </trkpt>
      <trkpt lat="44.11632" lon="3.92965">
        <ele>223.64</ele>
        <time>2022-08-10T06:00:35Z</time>
      </trkpt>
      <trkpt lat="44.11632" lon="3.92988">
        <ele>224.12</ele>
        <time>2022-08-10T06:00:50Z</time>
      </trkpt>
      <trkpt lat="44.11632" lon="3.93011">
        <ele>222.68</ele>
        <time>2022-08-10T06:01:06Z</time>
      </trkpt>
      <trkpt lat="44.11636" lon="3.93033">
        <ele>218.84</ele>
        <time>2022-08-10T06:01:21Z</time>
      </trkpt>
      <trkpt lat="44.11633" lon="3.93056">
        <ele>214.99</ele>
        <time>2022-08-10T06:01:35Z</time>
      </trkpt>
      <trkpt lat="44.11633" lon="3.93063">
        <ele>214.99</ele>
        <time>2022-08-10T06:01:39Z</time>
      </trkpt>
      <trkpt lat="44.11638" lon="3.93091">
        <ele>214.51</ele>
        <time>2022-08-10T06:01:55Z</time>
      </trkpt>
      <trkpt lat="44.11637" lon="3.93111">
        <ele>212.59</ele>
        <time>2022-08-10T06:02:09Z</time>
      </trkpt>
      <trkpt lat="44.11633" lon="3.93132">
        <ele>212.59</ele>
        <time>2022-08-10T06:02:22Z</time>
      </trkpt>
      <trkpt lat="44.1163" lon="3.9316">
        <ele>211.63</ele>
        <time>2022-08-10T06:02:37Z</time>
      </trkpt>
      <trkpt lat="44.11626" lon="3.93184">
        <ele>210.19</ele>
        <time>2022-08-10T06:02:52Z</time>
      </trkpt>
      <trkpt lat="44.11623" lon="3.93206">
        <ele>209.22</ele>
        <time>2022-08-10T06:03:05Z</time>
      </trkpt>
      <trkpt lat="44.11616" lon="3.93232">
        <ele>209.22</ele>
        <time>2022-08-10T06:03:23Z</time>
      </trkpt>
      <trkpt lat="44.11612" lon="3.93249">
        <ele>209.22</ele>
        <time>2022-08-10T06:03:34Z</time>
      </trkpt>
      <trkpt lat="44.11607" lon="3.93267">
        <ele>208.74</ele>
        <time>2022-08-10T06:03:46Z</time>
      </trkpt>
      <trkpt lat="44.11595" lon="3.93281">
        <ele>208.26</ele>
        <time>2022-08-10T06:04:01Z</time>
      </trkpt>
      <trkpt lat="44.11582" lon="3.93286">
        <ele>207.78</ele>
        <time>2022-08-10T06:04:15Z</time>
      </trkpt>
      <trkpt lat="44.11575" lon="3.93289">
        <ele>207.78</ele>
        <time>2022-08-10T06:04:23Z</time>
      </trkpt>
      <trkpt lat="44.11557" lon="3.93288">
        <ele>207.3</ele>
        <time>2022-08-10T06:04:39Z</time>
      </trkpt>
      <trkpt lat="44.11547" lon="3.93308">
        <ele>208.26</ele>
        <time>2022-08-10T06:04:55Z</time>
      </trkpt>
      <trkpt lat="44.11544" lon="3.93335">
        <ele>209.22</ele>
        <time>2022-08-10T06:05:10Z</time>
      </trkpt>
      <trkpt lat="44.11543" lon="3.9336">
        <ele>206.34</ele>
        <time>2022-08-10T06:05:24Z</time>
      </trkpt>
      <trkpt lat="44.11545" lon="3.93375">
        <ele>203.94</ele>
        <time>2022-08-10T06:05:37Z</time>
      </trkpt>
      <trkpt lat="44.1154" lon="3.93392">
        <ele>203.94</ele>
        <time>2022-08-10T06:05:52Z</time>
      </trkpt>
      <trkpt lat="44.11535" lon="3.93414">
        <ele>204.42</ele>
        <time>2022-08-10T06:06:07Z</time>
      </trkpt>
      <trkpt lat="44.11532" lon="3.93423">
        <ele>204.42</ele>
        <time>2022-08-10T06:06:13Z</time>
      </trkpt>
      <trkpt lat="44.11524" lon="3.93438">
        <ele>203.46</ele>
        <time>2022-08-10T06:06:28Z</time>
      </trkpt>
      <trkpt lat="44.11522" lon="3.93443">
        <ele>203.46</ele>
        <time>2022-08-10T06:06:32Z</time>
      </trkpt>
      <trkpt lat="44.11517" lon="3.93452">
        <ele>203.46</ele>
        <time>2022-08-10T06:06:41Z</time>
      </trkpt>
      <trkpt lat="44.11505" lon="3.93476">
        <ele>203.46</ele>
        <time>2022-08-10T06:06:58Z</time>
      </trkpt>
      <trkpt lat="44.11496" lon="3.93502">
        <ele>203.94</ele>
        <time>2022-08-10T06:07:13Z</time>
      </trkpt>
      <trkpt lat="44.11484" lon="3.93523">
        <ele>204.9</ele>
        <time>2022-08-10T06:07:27Z</time>
      </trkpt>
      <trkpt lat="44.11483" lon="3.93526">
        <ele>205.38</ele>
        <time>2022-08-10T06:07:29Z</time>
      </trkpt>
      <trkpt lat="44.11479" lon="3.9353">
        <ele>205.86</ele>
        <time>2022-08-10T06:07:33Z</time>
      </trkpt>
      <trkpt lat="44.1147" lon="3.93546">
        <ele>205.86</ele>
        <time>2022-08-10T06:07:42Z</time>
      </trkpt>
      <trkpt lat="44.11454" lon="3.93569">
        <ele>206.34</ele>
        <time>2022-08-10T06:07:58Z</time>
      </trkpt>
      <trkpt lat="44.11452" lon="3.93572">
        <ele>206.34</ele>
        <time>2022-08-10T06:08:00Z</time>
      </trkpt>
      <trkpt lat="44.11438" lon="3.9359">
        <ele>205.86</ele>
        <time>2022-08-10T06:08:14Z</time>
      </trkpt>
      <trkpt lat="44.11436" lon="3.93595">
        <ele>205.38</ele>
        <time>2022-08-10T06:08:18Z</time>
      </trkpt>
      <trkpt lat="44.11428" lon="3.93604">
        <ele>205.38</ele>
        <time>2022-08-10T06:08:25Z</time>
      </trkpt>
      <trkpt lat="44.11422" lon="3.93608">
        <ele>204.9</ele>
        <time>2022-08-10T06:08:30Z</time>
      </trkpt>
      <trkpt lat="44.11419" lon="3.9361">
        <ele>204.9</ele>
        <time>2022-08-10T06:08:32Z</time>
      </trkpt>
      <trkpt lat="44.11414" lon="3.93613">
        <ele>204.9</ele>
        <time>2022-08-10T06:08:36Z</time>
      </trkpt>
      <trkpt lat="44.11395" lon="3.93628">
        <ele>204.42</ele>
        <time>2022-08-10T06:08:51Z</time>
      </trkpt>
      <trkpt lat="44.11376" lon="3.9364">
        <ele>202.98</ele>
        <time>2022-08-10T06:09:06Z</time>
      </trkpt>
      <trkpt lat="44.11359" lon="3.93662">
        <ele>201.53</ele>
        <time>2022-08-10T06:09:24Z</time>
      </trkpt>
      <trkpt lat="44.11345" lon="3.93686">
        <ele>201.53</ele>
        <time>2022-08-10T06:09:39Z</time>
      </trkpt>
      <trkpt lat="44.1132" lon="3.93721">
        <ele>203.46</ele>
        <time>2022-08-10T06:09:56Z</time>
      </trkpt>
      <trkpt lat="44.11301" lon="3.93741">
        <ele>198.65</ele>
        <time>2022-08-10T06:10:13Z</time>
      </trkpt>
      <trkpt lat="44.11281" lon="3.93763">
        <ele>196.25</ele>
        <time>2022-08-10T06:10:33Z</time>
      </trkpt>
      <trkpt lat="44.11272" lon="3.93771">
        <ele>196.25</ele>
        <time>2022-08-10T06:10:43Z</time>
      </trkpt>
      <trkpt lat="44.11269" lon="3.93772">
        <ele>196.25</ele>
        <time>2022-08-10T06:10:45Z</time>
      </trkpt>
      <trkpt lat="44.11251" lon="3.93783">
        <ele>191.44</ele>
        <time>2022-08-10T06:10:59Z</time>
      </trkpt>
      <trkpt lat="44.11241" lon="3.93789">
        <ele>184.71</ele>
        <time>2022-08-10T06:11:10Z</time>
      </trkpt>
      <trkpt lat="44.11226" lon="3.93796">
        <ele>182.31</ele>
        <time>2022-08-10T06:11:22Z</time>
      </trkpt>
      <trkpt lat="44.11214" lon="3.93801">
        <ele>182.31</ele>
        <time>2022-08-10T06:11:31Z</time>
      </trkpt>
      <trkpt lat="44.11194" lon="3.93815">
        <ele>182.31</ele>
        <time>2022-08-10T06:11:48Z</time>
      </trkpt>
      <trkpt lat="44.11184" lon="3.9382">
        <ele>182.79</ele>
        <time>2022-08-10T06:12:01Z</time>
      </trkpt>
      <trkpt lat="44.11183" lon="3.93819">
        <ele>181.35</ele>
        <time>2022-08-10T06:12:13Z</time>
      </trkpt>
      <trkpt lat="44.1118" lon="3.93834">
        <ele>179.42</ele>
        <time>2022-08-10T06:12:24Z</time>
      </trkpt>
      <trkpt lat="44.1118" lon="3.93847">
        <ele>183.27</ele>
        <time>2022-08-10T06:12:40Z</time>
      </trkpt>
      <trkpt lat="44.11176" lon="3.93862">
        <ele>177.02</ele>
        <time>2022-08-10T06:12:53Z</time>
      </trkpt>
      <trkpt lat="44.11177" lon="3.93861">
        <ele>175.58</ele>
        <time>2022-08-10T06:13:10Z</time>
      </trkpt>
      <trkpt lat="44.11175" lon="3.93862">
        <ele>175.1</ele>
        <time>2022-08-10T06:13:12Z</time>
      </trkpt>
      <trkpt lat="44.11172" lon="3.93879">
        <ele>175.58</ele>
        <time>2022-08-10T06:13:26Z</time>
      </trkpt>
      <trkpt lat="44.11171" lon="3.93896">
        <ele>177.5</ele>
        <time>2022-08-10T06:13:40Z</time>
      </trkpt>
      <trkpt lat="44.11165" lon="3.93917">
        <ele>181.83</ele>
        <time>2022-08-10T06:13:57Z</time>
      </trkpt>
      <trkpt lat="44.11166" lon="3.93939">
        <ele>185.19</ele>
        <time>2022-08-10T06:14:13Z</time>
      </trkpt>
      <trkpt lat="44.11168" lon="3.93939">
        <ele>185.19</ele>
        <time>2022-08-10T06:14:16Z</time>
      </trkpt>
      <trkpt lat="44.11183" lon="3.93934">
        <ele>184.71</ele>
        <time>2022-08-10T06:14:31Z</time>
      </trkpt>
      <trkpt lat="44.11206" lon="3.93935">
        <ele>185.19</ele>
        <time>2022-08-10T06:14:50Z</time>
      </trkpt>
      <trkpt lat="44.11201" lon="3.93936">
        <ele>184.23</ele>
        <time>2022-08-10T06:14:56Z</time>
      </trkpt>
      <trkpt lat="44.11187" lon="3.93938">
        <ele>182.31</ele>
        <time>2022-08-10T06:15:12Z</time>
      </trkpt>
      <trkpt lat="44.11177" lon="3.93946">
        <ele>182.31</ele>
        <time>2022-08-10T06:15:23Z</time>
      </trkpt>
      <trkpt lat="44.11164" lon="3.93964">
        <ele>181.83</ele>
        <time>2022-08-10T06:15:39Z</time>
      </trkpt>
      <trkpt lat="44.11152" lon="3.9398">
        <ele>181.35</ele>
        <time>2022-08-10T06:15:54Z</time>
      </trkpt>
      <trkpt lat="44.11142" lon="3.93998">
        <ele>181.35</ele>
        <time>2022-08-10T06:16:11Z</time>
      </trkpt>
      <trkpt lat="44.11137" lon="3.94017">
        <ele>181.83</ele>
        <time>2022-08-10T06:16:25Z</time>
      </trkpt>
      <trkpt lat="44.11133" lon="3.94038">
        <ele>179.9</ele>
        <time>2022-08-10T06:16:39Z</time>
      </trkpt>
      <trkpt lat="44.11133" lon="3.9404">
        <ele>179.9</ele>
        <time>2022-08-10T06:16:40Z</time>
      </trkpt>
      <trkpt lat="44.11133" lon="3.94046">
        <ele>179.42</ele>
        <time>2022-08-10T06:16:44Z</time>
      </trkpt>
      <trkpt lat="44.11137" lon="3.94064">
        <ele>178.94</ele>
        <time>2022-08-10T06:16:58Z</time>
      </trkpt>
      <trkpt lat="44.11135" lon="3.94076">
        <ele>179.42</ele>
        <time>2022-08-10T06:17:09Z</time>
      </trkpt>
      <trkpt lat="44.11141" lon="3.94089">
        <ele>180.87</ele>
        <time>2022-08-10T06:17:23Z</time>
      </trkpt>
      <trkpt lat="44.11145" lon="3.94096">
        <ele>182.31</ele>
        <time>2022-08-10T06:17:37Z</time>
      </trkpt>
      <trkpt lat="44.11145" lon="3.9409">
        <ele>183.75</ele>
        <time>2022-08-10T06:18:09Z</time>
      </trkpt>
      <trkpt lat="44.11145" lon="3.94092">
        <ele>187.59</ele>
        <time>2022-08-10T06:18:39Z</time>
      </trkpt>
      <trkpt lat="44.11145" lon="3.94097">
        <ele>188.08</ele>
        <time>2022-08-10T06:19:15Z</time>
      </trkpt>
      <trkpt lat="44.1114" lon="3.94095">
        <ele>191.92</ele>
        <time>2022-08-10T06:19:45Z</time>
      </trkpt>
      <trkpt lat="44.11139" lon="3.9409">
        <ele>190.96</ele>
        <time>2022-08-10T06:20:13Z</time>
      </trkpt>
      <trkpt lat="44.11143" lon="3.94096">
        <ele>185.67</ele>
        <time>2022-08-10T06:20:37Z</time>
      </trkpt>
      <trkpt lat="44.11141" lon="3.94095">
        <ele>185.67</ele>
        <time>2022-08-10T06:21:01Z</time>
      </trkpt>
      <trkpt lat="44.11142" lon="3.94095">
        <ele>186.63</ele>
        <time>2022-08-10T06:21:33Z</time>
      </trkpt>
      <trkpt lat="44.11142" lon="3.94095">
        <ele>185.67</ele>
        <time>2022-08-10T06:22:02Z</time>
      </trkpt>
      <trkpt lat="44.11143" lon="3.94091">
        <ele>185.67</ele>
        <time>2022-08-10T06:22:27Z</time>
      </trkpt>
      <trkpt lat="44.11141" lon="3.94094">
        <ele>187.11</ele>
        <time>2022-08-10T06:22:53Z</time>
      </trkpt>
      <trkpt lat="44.11142" lon="3.94092">
        <ele>185.19</ele>
        <time>2022-08-10T06:23:01Z</time>
      </trkpt>
      <trkpt lat="44.11151" lon="3.94106">
        <ele>184.23</ele>
        <time>2022-08-10T06:23:17Z</time>
      </trkpt>
      <trkpt lat="44.11158" lon="3.94124">
        <ele>184.71</ele>
        <time>2022-08-10T06:23:31Z</time>
      </trkpt>
      <trkpt lat="44.11164" lon="3.94144">
        <ele>183.75</ele>
        <time>2022-08-10T06:23:46Z</time>
      </trkpt>
      <trkpt lat="44.11163" lon="3.94162">
        <ele>183.75</ele>
        <time>2022-08-10T06:23:59Z</time>
      </trkpt>
      <trkpt lat="44.11161" lon="3.94179">
        <ele>186.15</ele>
        <time>2022-08-10T06:24:13Z</time>
      </trkpt>
      <trkpt lat="44.11162" lon="3.94195">
        <ele>187.59</ele>
        <time>2022-08-10T06:24:27Z</time>
      </trkpt>
      <trkpt lat="44.11161" lon="3.94198">
        <ele>188.08</ele>
        <time>2022-08-10T06:24:28Z</time>
      </trkpt>
      <trkpt lat="44.11156" lon="3.9422">
        <ele>188.08</ele>
        <time>2022-08-10T06:24:42Z</time>
      </trkpt>
      <trkpt lat="44.11153" lon="3.94232">
        <ele>188.08</ele>
        <time>2022-08-10T06:24:51Z</time>
      </trkpt>
      <trkpt lat="44.11148" lon="3.94249">
        <ele>186.15</ele>
        <time>2022-08-10T06:25:04Z</time>
      </trkpt>
      <trkpt lat="44.11134" lon="3.94261">
        <ele>185.67</ele>
        <time>2022-08-10T06:25:19Z</time>
      </trkpt>
      <trkpt lat="44.11128" lon="3.94267">
        <ele>185.19</ele>
        <time>2022-08-10T06:25:31Z</time>
      </trkpt>
      <trkpt lat="44.11119" lon="3.94279">
        <ele>189.52</ele>
        <time>2022-08-10T06:25:39Z</time>
      </trkpt>
      <trkpt lat="44.1112" lon="3.94297">
        <ele>189.52</ele>
        <time>2022-08-10T06:25:53Z</time>
      </trkpt>
      <trkpt lat="44.11122" lon="3.94315">
        <ele>188.56</ele>
        <time>2022-08-10T06:26:14Z</time>
      </trkpt>
      <trkpt lat="44.11122" lon="3.94335">
        <ele>185.19</ele>
        <time>2022-08-10T06:26:28Z</time>
      </trkpt>
      <trkpt lat="44.11122" lon="3.94338">
        <ele>185.19</ele>
        <time>2022-08-10T06:26:30Z</time>
      </trkpt>
      <trkpt lat="44.1111" lon="3.94359">
        <ele>182.79</ele>
        <time>2022-08-10T06:26:44Z</time>
      </trkpt>
      <trkpt lat="44.11103" lon="3.94363">
        <ele>180.38</ele>
        <time>2022-08-10T06:27:01Z</time>
      </trkpt>
      <trkpt lat="44.111" lon="3.94353">
        <ele>175.58</ele>
        <time>2022-08-10T06:27:24Z</time>
      </trkpt>
      <trkpt lat="44.11096" lon="3.94345">
        <ele>184.71</ele>
        <time>2022-08-10T06:27:38Z</time>
      </trkpt>
      <trkpt lat="44.11096" lon="3.94351">
        <ele>183.75</ele>
        <time>2022-08-10T06:27:53Z</time>
      </trkpt>
      <trkpt lat="44.11096" lon="3.9435">
        <ele>180.87</ele>
        <time>2022-08-10T06:28:12Z</time>
      </trkpt>
      <trkpt lat="44.11099" lon="3.94349">
        <ele>179.42</ele>
        <time>2022-08-10T06:28:46Z</time>
      </trkpt>
      <trkpt lat="44.11098" lon="3.9435">
        <ele>178.94</ele>
        <time>2022-08-10T06:29:20Z</time>
      </trkpt>
      <trkpt lat="44.11095" lon="3.9435">
        <ele>183.27</ele>
        <time>2022-08-10T06:29:50Z</time>
      </trkpt>
      <trkpt lat="44.1109" lon="3.94347">
        <ele>189.04</ele>
        <time>2022-08-10T06:30:25Z</time>
      </trkpt>
      <trkpt lat="44.11089" lon="3.9435">
        <ele>189.04</ele>
        <time>2022-08-10T06:31:10Z</time>
      </trkpt>
      <trkpt lat="44.11088" lon="3.94347">
        <ele>190.96</ele>
        <time>2022-08-10T06:31:52Z</time>
      </trkpt>
      <trkpt lat="44.1109" lon="3.94349">
        <ele>189.04</ele>
        <time>2022-08-10T06:32:29Z</time>
      </trkpt>
      <trkpt lat="44.11089" lon="3.9435">
        <ele>190</ele>
        <time>2022-08-10T06:33:02Z</time>
      </trkpt>
      <trkpt lat="44.1109" lon="3.9435">
        <ele>191.44</ele>
        <time>2022-08-10T06:33:41Z</time>
      </trkpt>
      <trkpt lat="44.1109" lon="3.94354">
        <ele>190</ele>
        <time>2022-08-10T06:34:17Z</time>
      </trkpt>
      <trkpt lat="44.11089" lon="3.94354">
        <ele>190</ele>
        <time>2022-08-10T06:34:51Z</time>
      </trkpt>
      <trkpt lat="44.11095" lon="3.94351">
        <ele>184.23</ele>
        <time>2022-08-10T06:35:18Z</time>
      </trkpt>
      <trkpt lat="44.11099" lon="3.94351">
        <ele>179.9</ele>
        <time>2022-08-10T06:35:47Z</time>
      </trkpt>
      <trkpt lat="44.11098" lon="3.9435">
        <ele>176.06</ele>
        <time>2022-08-10T06:36:19Z</time>
      </trkpt>
      <trkpt lat="44.11097" lon="3.94351">
        <ele>173.66</ele>
        <time>2022-08-10T06:36:55Z</time>
      </trkpt>
      <trkpt lat="44.11095" lon="3.9435">
        <ele>178.94</ele>
        <time>2022-08-10T06:37:29Z</time>
      </trkpt>
      <trkpt lat="44.11093" lon="3.94349">
        <ele>184.71</ele>
        <time>2022-08-10T06:38:05Z</time>
      </trkpt>
      <trkpt lat="44.11095" lon="3.94351">
        <ele>187.11</ele>
        <time>2022-08-10T06:38:37Z</time>
      </trkpt>
      <trkpt lat="44.11098" lon="3.94356">
        <ele>180.87</ele>
        <time>2022-08-10T06:39:02Z</time>
      </trkpt>
      <trkpt lat="44.11103" lon="3.94355">
        <ele>177.02</ele>
        <time>2022-08-10T06:39:26Z</time>
      </trkpt>
      <trkpt lat="44.11105" lon="3.94353">
        <ele>169.81</ele>
        <time>2022-08-10T06:39:57Z</time>
      </trkpt>
      <trkpt lat="44.11106" lon="3.94352">
        <ele>164.52</ele>
        <time>2022-08-10T06:40:32Z</time>
      </trkpt>
      <trkpt lat="44.11107" lon="3.94351">
        <ele>160.2</ele>
        <time>2022-08-10T06:41:08Z</time>
      </trkpt>
      <trkpt lat="44.11107" lon="3.9435">
        <ele>161.16</ele>
        <time>2022-08-10T06:41:37Z</time>
      </trkpt>
      <trkpt lat="44.11107" lon="3.94347">
        <ele>156.83</ele>
        <time>2022-08-10T06:42:09Z</time>
      </trkpt>
      <trkpt lat="44.11104" lon="3.94346">
        <ele>158.75</ele>
        <time>2022-08-10T06:42:35Z</time>
      </trkpt>
      <trkpt lat="44.11103" lon="3.94347">
        <ele>158.75</ele>
        <time>2022-08-10T06:43:01Z</time>
      </trkpt>
      <trkpt lat="44.11103" lon="3.94347">
        <ele>159.72</ele>
        <time>2022-08-10T06:43:32Z</time>
      </trkpt>
      <trkpt lat="44.11102" lon="3.94346">
        <ele>159.72</ele>
        <time>2022-08-10T06:44:07Z</time>
      </trkpt>
      <trkpt lat="44.11102" lon="3.9435">
        <ele>165.48</ele>
        <time>2022-08-10T06:44:42Z</time>
      </trkpt>
      <trkpt lat="44.111" lon="3.9435">
        <ele>167.89</ele>
        <time>2022-08-10T06:45:07Z</time>
      </trkpt>
      <trkpt lat="44.11099" lon="3.9435">
        <ele>170.77</ele>
        <time>2022-08-10T06:45:47Z</time>
      </trkpt>
      <trkpt lat="44.11099" lon="3.94349">
        <ele>171.25</ele>
        <time>2022-08-10T06:46:16Z</time>
      </trkpt>
      <trkpt lat="44.111" lon="3.94351">
        <ele>173.66</ele>
        <time>2022-08-10T06:46:43Z</time>
      </trkpt>
      <trkpt lat="44.11098" lon="3.9435">
        <ele>175.1</ele>
        <time>2022-08-10T06:47:24Z</time>
      </trkpt>
      <trkpt lat="44.11098" lon="3.94349">
        <ele>173.66</ele>
        <time>2022-08-10T06:47:44Z</time>
      </trkpt>
      <trkpt lat="44.11098" lon="3.94347">
        <ele>172.21</ele>
        <time>2022-08-10T06:48:10Z</time>
      </trkpt>
      <trkpt lat="44.11098" lon="3.94347">
        <ele>171.25</ele>
        <time>2022-08-10T06:48:36Z</time>
      </trkpt>
      <trkpt lat="44.11099" lon="3.94344">
        <ele>169.81</ele>
        <time>2022-08-10T06:49:11Z</time>
      </trkpt>
      <trkpt lat="44.11098" lon="3.94346">
        <ele>168.85</ele>
        <time>2022-08-10T06:49:39Z</time>
      </trkpt>
      <trkpt lat="44.11101" lon="3.94342">
        <ele>167.89</ele>
        <time>2022-08-10T06:50:02Z</time>
      </trkpt>
      <trkpt lat="44.11103" lon="3.94342">
        <ele>168.37</ele>
        <time>2022-08-10T06:50:30Z</time>
      </trkpt>
      <trkpt lat="44.11101" lon="3.94346">
        <ele>175.1</ele>
        <time>2022-08-10T06:50:54Z</time>
      </trkpt>
      <trkpt lat="44.11099" lon="3.94346">
        <ele>178.94</ele>
        <time>2022-08-10T06:51:22Z</time>
      </trkpt>
      <trkpt lat="44.11099" lon="3.94351">
        <ele>181.35</ele>
        <time>2022-08-10T06:51:50Z</time>
      </trkpt>
      <trkpt lat="44.11096" lon="3.94352">
        <ele>185.19</ele>
        <time>2022-08-10T06:52:29Z</time>
      </trkpt>
      <trkpt lat="44.11096" lon="3.94351">
        <ele>183.75</ele>
        <time>2022-08-10T06:52:55Z</time>
      </trkpt>
      <trkpt lat="44.11098" lon="3.9435">
        <ele>182.31</ele>
        <time>2022-08-10T06:53:21Z</time>
      </trkpt>
      <trkpt lat="44.11097" lon="3.9435">
        <ele>184.23</ele>
        <time>2022-08-10T06:53:49Z</time>
      </trkpt>
      <trkpt lat="44.11096" lon="3.94352">
        <ele>184.23</ele>
        <time>2022-08-10T06:54:05Z</time>
      </trkpt>
      <trkpt lat="44.11098" lon="3.94352">
        <ele>180.87</ele>
        <time>2022-08-10T06:54:22Z</time>
      </trkpt>
      <trkpt lat="44.111" lon="3.94354">
        <ele>178.46</ele>
        <time>2022-08-10T06:54:44Z</time>
      </trkpt>
      <trkpt lat="44.111" lon="3.94348">
        <ele>179.42</ele>
        <time>2022-08-10T06:55:11Z</time>
      </trkpt>
      <trkpt lat="44.11097" lon="3.94341">
        <ele>175.1</ele>
        <time>2022-08-10T06:55:38Z</time>
      </trkpt>
      <trkpt lat="44.11098" lon="3.94344">
        <ele>176.54</ele>
        <time>2022-08-10T06:55:48Z</time>
      </trkpt>
      <trkpt lat="44.11103" lon="3.94373">
        <ele>177.5</ele>
        <time>2022-08-10T06:56:03Z</time>
      </trkpt>
      <trkpt lat="44.111" lon="3.94375">
        <ele>178.94</ele>
        <time>2022-08-10T06:56:20Z</time>
      </trkpt>
      <trkpt lat="44.11099" lon="3.94381">
        <ele>178.94</ele>
        <time>2022-08-10T06:56:24Z</time>
      </trkpt>
      <trkpt lat="44.11098" lon="3.94407">
        <ele>179.42</ele>
        <time>2022-08-10T06:56:43Z</time>
      </trkpt>
      <trkpt lat="44.11097" lon="3.94426">
        <ele>179.9</ele>
        <time>2022-08-10T06:56:56Z</time>
      </trkpt>
      <trkpt lat="44.11096" lon="3.94437">
        <ele>180.38</ele>
        <time>2022-08-10T06:57:04Z</time>
      </trkpt>
      <trkpt lat="44.11095" lon="3.94449">
        <ele>181.35</ele>
        <time>2022-08-10T06:57:11Z</time>
      </trkpt>
      <trkpt lat="44.11088" lon="3.9447">
        <ele>183.75</ele>
        <time>2022-08-10T06:57:26Z</time>
      </trkpt>
      <trkpt lat="44.11082" lon="3.94492">
        <ele>185.19</ele>
        <time>2022-08-10T06:57:42Z</time>
      </trkpt>
      <trkpt lat="44.1108" lon="3.94517">
        <ele>191.92</ele>
        <time>2022-08-10T06:57:56Z</time>
      </trkpt>
      <trkpt lat="44.11075" lon="3.94533">
        <ele>190.48</ele>
        <time>2022-08-10T06:58:10Z</time>
      </trkpt>
      <trkpt lat="44.11069" lon="3.94555">
        <ele>190</ele>
        <time>2022-08-10T06:58:25Z</time>
      </trkpt>
      <trkpt lat="44.11063" lon="3.94576">
        <ele>189.04</ele>
        <time>2022-08-10T06:58:40Z</time>
      </trkpt>
      <trkpt lat="44.11057" lon="3.94596">
        <ele>187.59</ele>
        <time>2022-08-10T06:58:55Z</time>
      </trkpt>
      <trkpt lat="44.1105" lon="3.94621">
        <ele>187.59</ele>
        <time>2022-08-10T06:59:11Z</time>
      </trkpt>
      <trkpt lat="44.11048" lon="3.94628">
        <ele>187.11</ele>
        <time>2022-08-10T06:59:17Z</time>
      </trkpt>
      <trkpt lat="44.11042" lon="3.94645">
        <ele>186.15</ele>
        <time>2022-08-10T06:59:30Z</time>
      </trkpt>
      <trkpt lat="44.11034" lon="3.94661">
        <ele>185.19</ele>
        <time>2022-08-10T06:59:44Z</time>
      </trkpt>
      <trkpt lat="44.1103" lon="3.94678">
        <ele>183.75</ele>
        <time>2022-08-10T06:59:57Z</time>
      </trkpt>
      <trkpt lat="44.11028" lon="3.94682">
        <ele>183.27</ele>
        <time>2022-08-10T07:00:00Z</time>
      </trkpt>
      <trkpt lat="44.11021" lon="3.94704">
        <ele>181.83</ele>
        <time>2022-08-10T07:00:16Z</time>
      </trkpt>
      <trkpt lat="44.11024" lon="3.94724">
        <ele>180.87</ele>
        <time>2022-08-10T07:00:29Z</time>
      </trkpt>
      <trkpt lat="44.11024" lon="3.94745">
        <ele>179.9</ele>
        <time>2022-08-10T07:00:45Z</time>
      </trkpt>
      <trkpt lat="44.11028" lon="3.9476">
        <ele>178.94</ele>
        <time>2022-08-10T07:00:57Z</time>
      </trkpt>
      <trkpt lat="44.1103" lon="3.94762">
        <ele>178.94</ele>
        <time>2022-08-10T07:01:00Z</time>
      </trkpt>
      <trkpt lat="44.11034" lon="3.94778">
        <ele>177.98</ele>
        <time>2022-08-10T07:01:13Z</time>
      </trkpt>
      <trkpt lat="44.11042" lon="3.94795">
        <ele>177.02</ele>
        <time>2022-08-10T07:01:28Z</time>
      </trkpt>
      <trkpt lat="44.1105" lon="3.94814">
        <ele>176.06</ele>
        <time>2022-08-10T07:01:45Z</time>
      </trkpt>
      <trkpt lat="44.11058" lon="3.94832">
        <ele>175.58</ele>
        <time>2022-08-10T07:01:59Z</time>
      </trkpt>
      <trkpt lat="44.11064" lon="3.94845">
        <ele>175.1</ele>
        <time>2022-08-10T07:02:09Z</time>
      </trkpt>
      <trkpt lat="44.11074" lon="3.94862">
        <ele>174.14</ele>
        <time>2022-08-10T07:02:23Z</time>
      </trkpt>
      <trkpt lat="44.11089" lon="3.9488">
        <ele>174.14</ele>
        <time>2022-08-10T07:02:40Z</time>
      </trkpt>
      <trkpt lat="44.111" lon="3.94891">
        <ele>174.14</ele>
        <time>2022-08-10T07:02:52Z</time>
      </trkpt>
      <trkpt lat="44.11108" lon="3.94898">
        <ele>173.66</ele>
        <time>2022-08-10T07:03:00Z</time>
      </trkpt>
      <trkpt lat="44.11118" lon="3.9491">
        <ele>172.21</ele>
        <time>2022-08-10T07:03:11Z</time>
      </trkpt>
      <trkpt lat="44.11131" lon="3.94921">
        <ele>172.21</ele>
        <time>2022-08-10T07:03:25Z</time>
      </trkpt>
      <trkpt lat="44.11137" lon="3.94927">
        <ele>172.21</ele>
        <time>2022-08-10T07:03:31Z</time>
      </trkpt>
      <trkpt lat="44.11153" lon="3.94942">
        <ele>172.21</ele>
        <time>2022-08-10T07:03:47Z</time>
      </trkpt>
      <trkpt lat="44.11163" lon="3.94951">
        <ele>172.21</ele>
        <time>2022-08-10T07:03:58Z</time>
      </trkpt>
      <trkpt lat="44.11168" lon="3.94956">
        <ele>172.21</ele>
        <time>2022-08-10T07:04:03Z</time>
      </trkpt>
      <trkpt lat="44.11186" lon="3.94974">
        <ele>174.14</ele>
        <time>2022-08-10T07:04:21Z</time>
      </trkpt>
      <trkpt lat="44.11202" lon="3.94987">
        <ele>175.1</ele>
        <time>2022-08-10T07:04:38Z</time>
      </trkpt>
      <trkpt lat="44.11217" lon="3.94994">
        <ele>174.62</ele>
        <time>2022-08-10T07:04:51Z</time>
      </trkpt>
      <trkpt lat="44.11231" lon="3.95">
        <ele>175.1</ele>
        <time>2022-08-10T07:05:04Z</time>
      </trkpt>
      <trkpt lat="44.11235" lon="3.95005">
        <ele>175.58</ele>
        <time>2022-08-10T07:05:09Z</time>
      </trkpt>
      <trkpt lat="44.11233" lon="3.95011">
        <ele>177.02</ele>
        <time>2022-08-10T07:05:17Z</time>
      </trkpt>
      <trkpt lat="44.11228" lon="3.95029">
        <ele>181.83</ele>
        <time>2022-08-10T07:05:35Z</time>
      </trkpt>
      <trkpt lat="44.11237" lon="3.95038">
        <ele>184.71</ele>
        <time>2022-08-10T07:05:50Z</time>
      </trkpt>
      <trkpt lat="44.11248" lon="3.95051">
        <ele>186.15</ele>
        <time>2022-08-10T07:06:05Z</time>
      </trkpt>
      <trkpt lat="44.11256" lon="3.9506">
        <ele>188.08</ele>
        <time>2022-08-10T07:06:20Z</time>
      </trkpt>
      <trkpt lat="44.11263" lon="3.95068">
        <ele>189.52</ele>
        <time>2022-08-10T07:06:35Z</time>
      </trkpt>
      <trkpt lat="44.11273" lon="3.95076">
        <ele>187.59</ele>
        <time>2022-08-10T07:06:51Z</time>
      </trkpt>
      <trkpt lat="44.11281" lon="3.95083">
        <ele>190.48</ele>
        <time>2022-08-10T07:07:07Z</time>
      </trkpt>
      <trkpt lat="44.11291" lon="3.9509">
        <ele>190.96</ele>
        <time>2022-08-10T07:07:22Z</time>
      </trkpt>
      <trkpt lat="44.113" lon="3.95096">
        <ele>193.36</ele>
        <time>2022-08-10T07:07:38Z</time>
      </trkpt>
      <trkpt lat="44.11306" lon="3.95102">
        <ele>192.4</ele>
        <time>2022-08-10T07:07:51Z</time>
      </trkpt>
      <trkpt lat="44.11314" lon="3.95108">
        <ele>196.25</ele>
        <time>2022-08-10T07:08:06Z</time>
      </trkpt>
      <trkpt lat="44.11322" lon="3.95119">
        <ele>198.17</ele>
        <time>2022-08-10T07:08:23Z</time>
      </trkpt>
      <trkpt lat="44.11328" lon="3.95129">
        <ele>197.21</ele>
        <time>2022-08-10T07:08:38Z</time>
      </trkpt>
      <trkpt lat="44.11333" lon="3.95138">
        <ele>197.69</ele>
        <time>2022-08-10T07:08:52Z</time>
      </trkpt>
      <trkpt lat="44.11339" lon="3.95149">
        <ele>198.17</ele>
        <time>2022-08-10T07:09:08Z</time>
      </trkpt>
      <trkpt lat="44.11344" lon="3.95158">
        <ele>198.17</ele>
        <time>2022-08-10T07:09:22Z</time>
      </trkpt>
      <trkpt lat="44.11349" lon="3.95169">
        <ele>198.65</ele>
        <time>2022-08-10T07:09:38Z</time>
      </trkpt>
      <trkpt lat="44.11356" lon="3.95182">
        <ele>199.13</ele>
        <time>2022-08-10T07:09:55Z</time>
      </trkpt>
      <trkpt lat="44.11363" lon="3.95198">
        <ele>199.13</ele>
        <time>2022-08-10T07:10:11Z</time>
      </trkpt>
      <trkpt lat="44.11369" lon="3.95208">
        <ele>206.82</ele>
        <time>2022-08-10T07:10:28Z</time>
      </trkpt>
      <trkpt lat="44.11364" lon="3.952">
        <ele>212.59</ele>
        <time>2022-08-10T07:10:42Z</time>
      </trkpt>
      <trkpt lat="44.11356" lon="3.95194">
        <ele>213.07</ele>
        <time>2022-08-10T07:10:56Z</time>
      </trkpt>
      <trkpt lat="44.11346" lon="3.95186">
        <ele>212.11</ele>
        <time>2022-08-10T07:11:11Z</time>
      </trkpt>
      <trkpt lat="44.11335" lon="3.95178">
        <ele>214.51</ele>
        <time>2022-08-10T07:11:27Z</time>
      </trkpt>
      <trkpt lat="44.11328" lon="3.95179">
        <ele>215.95</ele>
        <time>2022-08-10T07:11:42Z</time>
      </trkpt>
      <trkpt lat="44.11332" lon="3.9519">
        <ele>215.95</ele>
        <time>2022-08-10T07:11:55Z</time>
      </trkpt>
      <trkpt lat="44.11336" lon="3.95201">
        <ele>216.43</ele>
        <time>2022-08-10T07:12:10Z</time>
      </trkpt>
      <trkpt lat="44.11344" lon="3.95211">
        <ele>216.91</ele>
        <time>2022-08-10T07:12:25Z</time>
      </trkpt>
      <trkpt lat="44.11343" lon="3.95217">
        <ele>217.88</ele>
        <time>2022-08-10T07:12:39Z</time>
      </trkpt>
      <trkpt lat="44.11334" lon="3.95208">
        <ele>218.36</ele>
        <time>2022-08-10T07:12:54Z</time>
      </trkpt>
      <trkpt lat="44.11326" lon="3.95202">
        <ele>225.57</ele>
        <time>2022-08-10T07:13:10Z</time>
      </trkpt>
      <trkpt lat="44.11328" lon="3.95214">
        <ele>226.53</ele>
        <time>2022-08-10T07:13:23Z</time>
      </trkpt>
      <trkpt lat="44.11332" lon="3.9523">
        <ele>228.93</ele>
        <time>2022-08-10T07:13:39Z</time>
      </trkpt>
      <trkpt lat="44.11337" lon="3.95247">
        <ele>231.33</ele>
        <time>2022-08-10T07:13:55Z</time>
      </trkpt>
      <trkpt lat="44.11338" lon="3.95258">
        <ele>232.3</ele>
        <time>2022-08-10T07:14:10Z</time>
      </trkpt>
      <trkpt lat="44.11337" lon="3.95268">
        <ele>233.26</ele>
        <time>2022-08-10T07:14:22Z</time>
      </trkpt>
      <trkpt lat="44.11334" lon="3.9528">
        <ele>234.22</ele>
        <time>2022-08-10T07:14:38Z</time>
      </trkpt>
      <trkpt lat="44.11333" lon="3.95294">
        <ele>236.62</ele>
        <time>2022-08-10T07:14:53Z</time>
      </trkpt>
      <trkpt lat="44.11331" lon="3.95309">
        <ele>238.54</ele>
        <time>2022-08-10T07:15:09Z</time>
      </trkpt>
      <trkpt lat="44.1133" lon="3.95323">
        <ele>240.47</ele>
        <time>2022-08-10T07:15:23Z</time>
      </trkpt>
      <trkpt lat="44.11328" lon="3.95336">
        <ele>243.35</ele>
        <time>2022-08-10T07:15:37Z</time>
      </trkpt>
      <trkpt lat="44.11327" lon="3.95349">
        <ele>245.27</ele>
        <time>2022-08-10T07:15:50Z</time>
      </trkpt>
      <trkpt lat="44.11323" lon="3.9536">
        <ele>247.2</ele>
        <time>2022-08-10T07:16:05Z</time>
      </trkpt>
      <trkpt lat="44.11321" lon="3.95371">
        <ele>247.68</ele>
        <time>2022-08-10T07:16:19Z</time>
      </trkpt>
      <trkpt lat="44.11317" lon="3.95383">
        <ele>250.08</ele>
        <time>2022-08-10T07:16:33Z</time>
      </trkpt>
      <trkpt lat="44.11317" lon="3.95395">
        <ele>250.08</ele>
        <time>2022-08-10T07:16:47Z</time>
      </trkpt>
      <trkpt lat="44.11316" lon="3.95408">
        <ele>249.6</ele>
        <time>2022-08-10T07:17:01Z</time>
      </trkpt>
      <trkpt lat="44.11315" lon="3.95421">
        <ele>249.6</ele>
        <time>2022-08-10T07:17:15Z</time>
      </trkpt>
      <trkpt lat="44.11315" lon="3.95436">
        <ele>252</ele>
        <time>2022-08-10T07:17:28Z</time>
      </trkpt>
      <trkpt lat="44.11313" lon="3.95447">
        <ele>253.93</ele>
        <time>2022-08-10T07:17:40Z</time>
      </trkpt>
      <trkpt lat="44.11311" lon="3.9546">
        <ele>254.89</ele>
        <time>2022-08-10T07:17:53Z</time>
      </trkpt>
      <trkpt lat="44.11308" lon="3.95474">
        <ele>258.25</ele>
        <time>2022-08-10T07:18:08Z</time>
      </trkpt>
      <trkpt lat="44.11305" lon="3.9549">
        <ele>259.69</ele>
        <time>2022-08-10T07:18:25Z</time>
      </trkpt>
      <trkpt lat="44.11304" lon="3.95506">
        <ele>260.65</ele>
        <time>2022-08-10T07:18:40Z</time>
      </trkpt>
      <trkpt lat="44.11302" lon="3.95521">
        <ele>263.06</ele>
        <time>2022-08-10T07:18:55Z</time>
      </trkpt>
      <trkpt lat="44.113" lon="3.95536">
        <ele>264.5</ele>
        <time>2022-08-10T07:19:11Z</time>
      </trkpt>
      <trkpt lat="44.11298" lon="3.95552">
        <ele>267.38</ele>
        <time>2022-08-10T07:19:27Z</time>
      </trkpt>
      <trkpt lat="44.11294" lon="3.95566">
        <ele>269.31</ele>
        <time>2022-08-10T07:19:41Z</time>
      </trkpt>
      <trkpt lat="44.1129" lon="3.9558">
        <ele>270.75</ele>
        <time>2022-08-10T07:19:55Z</time>
      </trkpt>
      <trkpt lat="44.11284" lon="3.95591">
        <ele>274.59</ele>
        <time>2022-08-10T07:20:09Z</time>
      </trkpt>
      <trkpt lat="44.11276" lon="3.95601">
        <ele>277.96</ele>
        <time>2022-08-10T07:20:23Z</time>
      </trkpt>
      <trkpt lat="44.11266" lon="3.95606">
        <ele>279.88</ele>
        <time>2022-08-10T07:20:37Z</time>
      </trkpt>
      <trkpt lat="44.11257" lon="3.95611">
        <ele>280.84</ele>
        <time>2022-08-10T07:20:49Z</time>
      </trkpt>
      <trkpt lat="44.1125" lon="3.95622">
        <ele>281.32</ele>
        <time>2022-08-10T07:21:04Z</time>
      </trkpt>
      <trkpt lat="44.11249" lon="3.95636">
        <ele>282.28</ele>
        <time>2022-08-10T07:21:17Z</time>
      </trkpt>
      <trkpt lat="44.11245" lon="3.95653">
        <ele>286.13</ele>
        <time>2022-08-10T07:21:31Z</time>
      </trkpt>
      <trkpt lat="44.11243" lon="3.95669">
        <ele>286.13</ele>
        <time>2022-08-10T07:21:45Z</time>
      </trkpt>
      <trkpt lat="44.11243" lon="3.9568">
        <ele>286.13</ele>
        <time>2022-08-10T07:21:54Z</time>
      </trkpt>
      <trkpt lat="44.1125" lon="3.95689">
        <ele>289.01</ele>
        <time>2022-08-10T07:22:07Z</time>
      </trkpt>
      <trkpt lat="44.11257" lon="3.95688">
        <ele>290.94</ele>
        <time>2022-08-10T07:22:18Z</time>
      </trkpt>
      <trkpt lat="44.11266" lon="3.95688">
        <ele>294.3</ele>
        <time>2022-08-10T07:22:30Z</time>
      </trkpt>
      <trkpt lat="44.11275" lon="3.95691">
        <ele>294.78</ele>
        <time>2022-08-10T07:22:44Z</time>
      </trkpt>
      <trkpt lat="44.11286" lon="3.95696">
        <ele>295.74</ele>
        <time>2022-08-10T07:23:01Z</time>
      </trkpt>
      <trkpt lat="44.11298" lon="3.95703">
        <ele>297.18</ele>
        <time>2022-08-10T07:23:16Z</time>
      </trkpt>
      <trkpt lat="44.11306" lon="3.95709">
        <ele>300.55</ele>
        <time>2022-08-10T07:23:30Z</time>
      </trkpt>
      <trkpt lat="44.11316" lon="3.95719">
        <ele>301.99</ele>
        <time>2022-08-10T07:23:46Z</time>
      </trkpt>
      <trkpt lat="44.11324" lon="3.95731">
        <ele>301.51</ele>
        <time>2022-08-10T07:24:00Z</time>
      </trkpt>
      <trkpt lat="44.11332" lon="3.95744">
        <ele>300.07</ele>
        <time>2022-08-10T07:24:15Z</time>
      </trkpt>
      <trkpt lat="44.11339" lon="3.9576">
        <ele>300.07</ele>
        <time>2022-08-10T07:24:33Z</time>
      </trkpt>
      <trkpt lat="44.11342" lon="3.95775">
        <ele>299.11</ele>
        <time>2022-08-10T07:24:48Z</time>
      </trkpt>
      <trkpt lat="44.11347" lon="3.95792">
        <ele>301.03</ele>
        <time>2022-08-10T07:25:03Z</time>
      </trkpt>
      <trkpt lat="44.11352" lon="3.9581">
        <ele>301.51</ele>
        <time>2022-08-10T07:25:19Z</time>
      </trkpt>
      <trkpt lat="44.11357" lon="3.95816">
        <ele>301.99</ele>
        <time>2022-08-10T07:25:27Z</time>
      </trkpt>
      <trkpt lat="44.11358" lon="3.95816">
        <ele>302.95</ele>
        <time>2022-08-10T07:25:42Z</time>
      </trkpt>
      <trkpt lat="44.11354" lon="3.9582">
        <ele>304.39</ele>
        <time>2022-08-10T07:25:58Z</time>
      </trkpt>
      <trkpt lat="44.11354" lon="3.95822">
        <ele>305.36</ele>
        <time>2022-08-10T07:26:14Z</time>
      </trkpt>
      <trkpt lat="44.11359" lon="3.95817">
        <ele>310.16</ele>
        <time>2022-08-10T07:26:29Z</time>
      </trkpt>
      <trkpt lat="44.11365" lon="3.95813">
        <ele>310.16</ele>
        <time>2022-08-10T07:26:42Z</time>
      </trkpt>
      <trkpt lat="44.11361" lon="3.95816">
        <ele>310.16</ele>
        <time>2022-08-10T07:27:00Z</time>
      </trkpt>
      <trkpt lat="44.11357" lon="3.95816">
        <ele>312.09</ele>
        <time>2022-08-10T07:27:21Z</time>
      </trkpt>
      <trkpt lat="44.11361" lon="3.95815">
        <ele>314.49</ele>
        <time>2022-08-10T07:27:52Z</time>
      </trkpt>
      <trkpt lat="44.11362" lon="3.95816">
        <ele>315.45</ele>
        <time>2022-08-10T07:28:18Z</time>
      </trkpt>
      <trkpt lat="44.11362" lon="3.95816">
        <ele>315.93</ele>
        <time>2022-08-10T07:28:44Z</time>
      </trkpt>
      <trkpt lat="44.1136" lon="3.95818">
        <ele>317.37</ele>
        <time>2022-08-10T07:29:12Z</time>
      </trkpt>
      <trkpt lat="44.11367" lon="3.95813">
        <ele>315.93</ele>
        <time>2022-08-10T07:29:26Z</time>
      </trkpt>
      <trkpt lat="44.11374" lon="3.95804">
        <ele>317.37</ele>
        <time>2022-08-10T07:29:39Z</time>
      </trkpt>
      <trkpt lat="44.11382" lon="3.95795">
        <ele>316.89</ele>
        <time>2022-08-10T07:29:52Z</time>
      </trkpt>
      <trkpt lat="44.11391" lon="3.95782">
        <ele>315.93</ele>
        <time>2022-08-10T07:30:05Z</time>
      </trkpt>
      <trkpt lat="44.11401" lon="3.95767">
        <ele>315.93</ele>
        <time>2022-08-10T07:30:23Z</time>
      </trkpt>
      <trkpt lat="44.11407" lon="3.95752">
        <ele>316.89</ele>
        <time>2022-08-10T07:30:38Z</time>
      </trkpt>
      <trkpt lat="44.11414" lon="3.95736">
        <ele>315.93</ele>
        <time>2022-08-10T07:30:53Z</time>
      </trkpt>
      <trkpt lat="44.1142" lon="3.95724">
        <ele>315.93</ele>
        <time>2022-08-10T07:31:04Z</time>
      </trkpt>
      <trkpt lat="44.1142" lon="3.95721">
        <ele>315.93</ele>
        <time>2022-08-10T07:31:06Z</time>
      </trkpt>
      <trkpt lat="44.11426" lon="3.95703">
        <ele>317.37</ele>
        <time>2022-08-10T07:31:21Z</time>
      </trkpt>
      <trkpt lat="44.11431" lon="3.95689">
        <ele>316.41</ele>
        <time>2022-08-10T07:31:34Z</time>
      </trkpt>
      <trkpt lat="44.11435" lon="3.95671">
        <ele>317.37</ele>
        <time>2022-08-10T07:31:49Z</time>
      </trkpt>
      <trkpt lat="44.1144" lon="3.95656">
        <ele>320.26</ele>
        <time>2022-08-10T07:32:02Z</time>
      </trkpt>
      <trkpt lat="44.11446" lon="3.9564">
        <ele>323.14</ele>
        <time>2022-08-10T07:32:16Z</time>
      </trkpt>
      <trkpt lat="44.11453" lon="3.95623">
        <ele>326.02</ele>
        <time>2022-08-10T07:32:31Z</time>
      </trkpt>
      <trkpt lat="44.11462" lon="3.9561">
        <ele>324.58</ele>
        <time>2022-08-10T07:32:47Z</time>
      </trkpt>
      <trkpt lat="44.11471" lon="3.95597">
        <ele>327.95</ele>
        <time>2022-08-10T07:33:03Z</time>
      </trkpt>
      <trkpt lat="44.11481" lon="3.95586">
        <ele>328.91</ele>
        <time>2022-08-10T07:33:19Z</time>
      </trkpt>
      <trkpt lat="44.11492" lon="3.95578">
        <ele>329.87</ele>
        <time>2022-08-10T07:33:34Z</time>
      </trkpt>
      <trkpt lat="44.11504" lon="3.95576">
        <ele>330.83</ele>
        <time>2022-08-10T07:33:49Z</time>
      </trkpt>
      <trkpt lat="44.11513" lon="3.95584">
        <ele>332.27</ele>
        <time>2022-08-10T07:34:04Z</time>
      </trkpt>
      <trkpt lat="44.1152" lon="3.95596">
        <ele>332.27</ele>
        <time>2022-08-10T07:34:19Z</time>
      </trkpt>
      <trkpt lat="44.11526" lon="3.95606">
        <ele>334.68</ele>
        <time>2022-08-10T07:34:32Z</time>
      </trkpt>
      <trkpt lat="44.11534" lon="3.95616">
        <ele>337.56</ele>
        <time>2022-08-10T07:34:46Z</time>
      </trkpt>
      <trkpt lat="44.11543" lon="3.95628">
        <ele>339</ele>
        <time>2022-08-10T07:35:00Z</time>
      </trkpt>
      <trkpt lat="44.11552" lon="3.95637">
        <ele>342.37</ele>
        <time>2022-08-10T07:35:14Z</time>
      </trkpt>
      <trkpt lat="44.11561" lon="3.95648">
        <ele>344.77</ele>
        <time>2022-08-10T07:35:29Z</time>
      </trkpt>
      <trkpt lat="44.11572" lon="3.95658">
        <ele>346.69</ele>
        <time>2022-08-10T07:35:44Z</time>
      </trkpt>
      <trkpt lat="44.11581" lon="3.95675">
        <ele>347.17</ele>
        <time>2022-08-10T07:36:01Z</time>
      </trkpt>
      <trkpt lat="44.11589" lon="3.95694">
        <ele>346.69</ele>
        <time>2022-08-10T07:36:17Z</time>
      </trkpt>
      <trkpt lat="44.1159" lon="3.95695">
        <ele>346.69</ele>
        <time>2022-08-10T07:36:18Z</time>
      </trkpt>
      <trkpt lat="44.11596" lon="3.95714">
        <ele>347.65</ele>
        <time>2022-08-10T07:36:33Z</time>
      </trkpt>
      <trkpt lat="44.116" lon="3.95735">
        <ele>349.1</ele>
        <time>2022-08-10T07:36:47Z</time>
      </trkpt>
      <trkpt lat="44.11603" lon="3.95756">
        <ele>350.54</ele>
        <time>2022-08-10T07:37:00Z</time>
      </trkpt>
      <trkpt lat="44.11606" lon="3.95776">
        <ele>348.62</ele>
        <time>2022-08-10T07:37:15Z</time>
      </trkpt>
      <trkpt lat="44.11609" lon="3.95793">
        <ele>346.21</ele>
        <time>2022-08-10T07:37:28Z</time>
      </trkpt>
      <trkpt lat="44.11613" lon="3.95814">
        <ele>347.17</ele>
        <time>2022-08-10T07:37:42Z</time>
      </trkpt>
      <trkpt lat="44.11618" lon="3.95834">
        <ele>347.17</ele>
        <time>2022-08-10T07:37:56Z</time>
      </trkpt>
      <trkpt lat="44.11626" lon="3.95855">
        <ele>346.21</ele>
        <time>2022-08-10T07:38:11Z</time>
      </trkpt>
      <trkpt lat="44.11633" lon="3.95871">
        <ele>345.25</ele>
        <time>2022-08-10T07:38:24Z</time>
      </trkpt>
      <trkpt lat="44.11638" lon="3.95888">
        <ele>345.73</ele>
        <time>2022-08-10T07:38:38Z</time>
      </trkpt>
      <trkpt lat="44.11646" lon="3.95909">
        <ele>347.65</ele>
        <time>2022-08-10T07:38:54Z</time>
      </trkpt>
      <trkpt lat="44.11651" lon="3.95923">
        <ele>348.62</ele>
        <time>2022-08-10T07:39:04Z</time>
      </trkpt>
      <trkpt lat="44.1166" lon="3.9594">
        <ele>350.54</ele>
        <time>2022-08-10T07:39:18Z</time>
      </trkpt>
      <trkpt lat="44.11668" lon="3.95957">
        <ele>352.46</ele>
        <time>2022-08-10T07:39:31Z</time>
      </trkpt>
      <trkpt lat="44.11675" lon="3.95973">
        <ele>352.94</ele>
        <time>2022-08-10T07:39:46Z</time>
      </trkpt>
      <trkpt lat="44.11683" lon="3.95987">
        <ele>353.42</ele>
        <time>2022-08-10T07:40:00Z</time>
      </trkpt>
      <trkpt lat="44.11684" lon="3.95989">
        <ele>353.42</ele>
        <time>2022-08-10T07:40:02Z</time>
      </trkpt>
      <trkpt lat="44.11695" lon="3.96003">
        <ele>352.46</ele>
        <time>2022-08-10T07:40:16Z</time>
      </trkpt>
      <trkpt lat="44.11708" lon="3.96011">
        <ele>353.42</ele>
        <time>2022-08-10T07:40:30Z</time>
      </trkpt>
      <trkpt lat="44.11724" lon="3.96002">
        <ele>355.34</ele>
        <time>2022-08-10T07:40:43Z</time>
      </trkpt>
      <trkpt lat="44.11735" lon="3.95994">
        <ele>358.23</ele>
        <time>2022-08-10T07:40:56Z</time>
      </trkpt>
      <trkpt lat="44.11749" lon="3.95983">
        <ele>359.67</ele>
        <time>2022-08-10T07:41:09Z</time>
      </trkpt>
      <trkpt lat="44.11758" lon="3.95975">
        <ele>360.63</ele>
        <time>2022-08-10T07:41:20Z</time>
      </trkpt>
      <trkpt lat="44.1177" lon="3.95964">
        <ele>361.11</ele>
        <time>2022-08-10T07:41:34Z</time>
      </trkpt>
      <trkpt lat="44.1178" lon="3.95955">
        <ele>362.55</ele>
        <time>2022-08-10T07:41:47Z</time>
      </trkpt>
      <trkpt lat="44.11796" lon="3.95945">
        <ele>364.96</ele>
        <time>2022-08-10T07:42:03Z</time>
      </trkpt>
      <trkpt lat="44.11807" lon="3.95939">
        <ele>364.96</ele>
        <time>2022-08-10T07:42:15Z</time>
      </trkpt>
      <trkpt lat="44.11818" lon="3.95938">
        <ele>365.92</ele>
        <time>2022-08-10T07:42:26Z</time>
      </trkpt>
      <trkpt lat="44.11828" lon="3.9594">
        <ele>366.88</ele>
        <time>2022-08-10T07:42:39Z</time>
      </trkpt>
      <trkpt lat="44.1184" lon="3.95947">
        <ele>369.28</ele>
        <time>2022-08-10T07:42:52Z</time>
      </trkpt>
      <trkpt lat="44.11855" lon="3.95958">
        <ele>372.17</ele>
        <time>2022-08-10T07:43:08Z</time>
      </trkpt>
      <trkpt lat="44.11858" lon="3.9596">
        <ele>372.17</ele>
        <time>2022-08-10T07:43:11Z</time>
      </trkpt>
      <trkpt lat="44.11874" lon="3.95973">
        <ele>374.57</ele>
        <time>2022-08-10T07:43:28Z</time>
      </trkpt>
      <trkpt lat="44.11885" lon="3.95978">
        <ele>377.45</ele>
        <time>2022-08-10T07:43:41Z</time>
      </trkpt>
      <trkpt lat="44.11899" lon="3.95988">
        <ele>378.9</ele>
        <time>2022-08-10T07:43:56Z</time>
      </trkpt>
      <trkpt lat="44.11912" lon="3.95995">
        <ele>380.34</ele>
        <time>2022-08-10T07:44:11Z</time>
      </trkpt>
      <trkpt lat="44.11924" lon="3.96">
        <ele>381.78</ele>
        <time>2022-08-10T07:44:24Z</time>
      </trkpt>
      <trkpt lat="44.11937" lon="3.96005">
        <ele>384.66</ele>
        <time>2022-08-10T07:44:39Z</time>
      </trkpt>
      <trkpt lat="44.11949" lon="3.96011">
        <ele>385.15</ele>
        <time>2022-08-10T07:44:53Z</time>
      </trkpt>
      <trkpt lat="44.11961" lon="3.96015">
        <ele>384.66</ele>
        <time>2022-08-10T07:45:07Z</time>
      </trkpt>
      <trkpt lat="44.11971" lon="3.96021">
        <ele>383.7</ele>
        <time>2022-08-10T07:45:20Z</time>
      </trkpt>
      <trkpt lat="44.11981" lon="3.96023">
        <ele>384.18</ele>
        <time>2022-08-10T07:45:33Z</time>
      </trkpt>
      <trkpt lat="44.11991" lon="3.96024">
        <ele>383.22</ele>
        <time>2022-08-10T07:45:46Z</time>
      </trkpt>
      <trkpt lat="44.12002" lon="3.96026">
        <ele>384.66</ele>
        <time>2022-08-10T07:45:59Z</time>
      </trkpt>
      <trkpt lat="44.12014" lon="3.96027">
        <ele>386.11</ele>
        <time>2022-08-10T07:46:12Z</time>
      </trkpt>
      <trkpt lat="44.12024" lon="3.96031">
        <ele>387.07</ele>
        <time>2022-08-10T07:46:26Z</time>
      </trkpt>
      <trkpt lat="44.12035" lon="3.96032">
        <ele>388.03</ele>
        <time>2022-08-10T07:46:39Z</time>
      </trkpt>
      <trkpt lat="44.12047" lon="3.96034">
        <ele>391.87</ele>
        <time>2022-08-10T07:46:55Z</time>
      </trkpt>
      <trkpt lat="44.12061" lon="3.96036">
        <ele>394.28</ele>
        <time>2022-08-10T07:47:11Z</time>
      </trkpt>
      <trkpt lat="44.1207" lon="3.96036">
        <ele>396.2</ele>
        <time>2022-08-10T07:47:23Z</time>
      </trkpt>
      <trkpt lat="44.1208" lon="3.96038">
        <ele>397.64</ele>
        <time>2022-08-10T07:47:35Z</time>
      </trkpt>
      <trkpt lat="44.12092" lon="3.96039">
        <ele>398.6</ele>
        <time>2022-08-10T07:47:50Z</time>
      </trkpt>
      <trkpt lat="44.12104" lon="3.96038">
        <ele>401.49</ele>
        <time>2022-08-10T07:48:06Z</time>
      </trkpt>
      <trkpt lat="44.12115" lon="3.96037">
        <ele>402.93</ele>
        <time>2022-08-10T07:48:19Z</time>
      </trkpt>
      <trkpt lat="44.12129" lon="3.96036">
        <ele>403.41</ele>
        <time>2022-08-10T07:48:36Z</time>
      </trkpt>
      <trkpt lat="44.1214" lon="3.96034">
        <ele>405.33</ele>
        <time>2022-08-10T07:48:50Z</time>
      </trkpt>
      <trkpt lat="44.12153" lon="3.9603">
        <ele>405.81</ele>
        <time>2022-08-10T07:49:05Z</time>
      </trkpt>
      <trkpt lat="44.12166" lon="3.96028">
        <ele>409.18</ele>
        <time>2022-08-10T07:49:21Z</time>
      </trkpt>
      <trkpt lat="44.12177" lon="3.96024">
        <ele>410.62</ele>
        <time>2022-08-10T07:49:35Z</time>
      </trkpt>
      <trkpt lat="44.1219" lon="3.96018">
        <ele>413.02</ele>
        <time>2022-08-10T07:49:50Z</time>
      </trkpt>
      <trkpt lat="44.12201" lon="3.96015">
        <ele>415.91</ele>
        <time>2022-08-10T07:50:03Z</time>
      </trkpt>
      <trkpt lat="44.12201" lon="3.96018">
        <ele>418.79</ele>
        <time>2022-08-10T07:50:14Z</time>
      </trkpt>
      <trkpt lat="44.1219" lon="3.96026">
        <ele>423.6</ele>
        <time>2022-08-10T07:50:29Z</time>
      </trkpt>
      <trkpt lat="44.12177" lon="3.96039">
        <ele>426</ele>
        <time>2022-08-10T07:50:45Z</time>
      </trkpt>
      <trkpt lat="44.12173" lon="3.96043">
        <ele>426.48</ele>
        <time>2022-08-10T07:50:49Z</time>
      </trkpt>
      <trkpt lat="44.1217" lon="3.96045">
        <ele>427.44</ele>
        <time>2022-08-10T07:50:52Z</time>
      </trkpt>
      <trkpt lat="44.12156" lon="3.96063">
        <ele>428.89</ele>
        <time>2022-08-10T07:51:09Z</time>
      </trkpt>
      <trkpt lat="44.12144" lon="3.96077">
        <ele>430.81</ele>
        <time>2022-08-10T07:51:23Z</time>
      </trkpt>
      <trkpt lat="44.12131" lon="3.96095">
        <ele>431.29</ele>
        <time>2022-08-10T07:51:39Z</time>
      </trkpt>
      <trkpt lat="44.12124" lon="3.96107">
        <ele>431.77</ele>
        <time>2022-08-10T07:51:50Z</time>
      </trkpt>
      <trkpt lat="44.12117" lon="3.96118">
        <ele>431.29</ele>
        <time>2022-08-10T07:52:05Z</time>
      </trkpt>
      <trkpt lat="44.12115" lon="3.96125">
        <ele>430.33</ele>
        <time>2022-08-10T07:52:24Z</time>
      </trkpt>
      <trkpt lat="44.12116" lon="3.96125">
        <ele>428.89</ele>
        <time>2022-08-10T07:52:43Z</time>
      </trkpt>
      <trkpt lat="44.12118" lon="3.96123">
        <ele>426</ele>
        <time>2022-08-10T07:53:09Z</time>
      </trkpt>
      <trkpt lat="44.12121" lon="3.96122">
        <ele>427.44</ele>
        <time>2022-08-10T07:53:35Z</time>
      </trkpt>
      <trkpt lat="44.12125" lon="3.96122">
        <ele>426</ele>
        <time>2022-08-10T07:53:51Z</time>
      </trkpt>
      <trkpt lat="44.12126" lon="3.96122">
        <ele>426.96</ele>
        <time>2022-08-10T07:54:22Z</time>
      </trkpt>
      <trkpt lat="44.12129" lon="3.96121">
        <ele>428.4</ele>
        <time>2022-08-10T07:54:50Z</time>
      </trkpt>
      <trkpt lat="44.12134" lon="3.96121">
        <ele>429.37</ele>
        <time>2022-08-10T07:55:04Z</time>
      </trkpt>
      <trkpt lat="44.12143" lon="3.96114">
        <ele>430.81</ele>
        <time>2022-08-10T07:55:18Z</time>
      </trkpt>
      <trkpt lat="44.12154" lon="3.96108">
        <ele>431.29</ele>
        <time>2022-08-10T07:55:32Z</time>
      </trkpt>
      <trkpt lat="44.12166" lon="3.96102">
        <ele>432.25</ele>
        <time>2022-08-10T07:55:47Z</time>
      </trkpt>
      <trkpt lat="44.12178" lon="3.96095">
        <ele>433.69</ele>
        <time>2022-08-10T07:56:02Z</time>
      </trkpt>
      <trkpt lat="44.12189" lon="3.96091">
        <ele>435.13</ele>
        <time>2022-08-10T07:56:15Z</time>
      </trkpt>
      <trkpt lat="44.122" lon="3.96086">
        <ele>436.58</ele>
        <time>2022-08-10T07:56:30Z</time>
      </trkpt>
      <trkpt lat="44.1221" lon="3.96081">
        <ele>437.06</ele>
        <time>2022-08-10T07:56:44Z</time>
      </trkpt>
      <trkpt lat="44.12223" lon="3.96078">
        <ele>439.46</ele>
        <time>2022-08-10T07:56:59Z</time>
      </trkpt>
      <trkpt lat="44.12234" lon="3.96074">
        <ele>441.86</ele>
        <time>2022-08-10T07:57:14Z</time>
      </trkpt>
      <trkpt lat="44.12248" lon="3.96066">
        <ele>444.27</ele>
        <time>2022-08-10T07:57:31Z</time>
      </trkpt>
      <trkpt lat="44.12261" lon="3.96064">
        <ele>445.23</ele>
        <time>2022-08-10T07:57:46Z</time>
      </trkpt>
      <trkpt lat="44.12271" lon="3.96064">
        <ele>446.67</ele>
        <time>2022-08-10T07:57:58Z</time>
      </trkpt>
      <trkpt lat="44.12284" lon="3.96067">
        <ele>446.67</ele>
        <time>2022-08-10T07:58:12Z</time>
      </trkpt>
      <trkpt lat="44.12293" lon="3.96071">
        <ele>449.07</ele>
        <time>2022-08-10T07:58:26Z</time>
      </trkpt>
      <trkpt lat="44.12301" lon="3.96078">
        <ele>451</ele>
        <time>2022-08-10T07:58:36Z</time>
      </trkpt>
      <trkpt lat="44.1231" lon="3.96089">
        <ele>452.92</ele>
        <time>2022-08-10T07:58:49Z</time>
      </trkpt>
      <trkpt lat="44.12311" lon="3.9609">
        <ele>453.4</ele>
        <time>2022-08-10T07:58:50Z</time>
      </trkpt>
      <trkpt lat="44.12322" lon="3.9611">
        <ele>455.32</ele>
        <time>2022-08-10T07:59:06Z</time>
      </trkpt>
      <trkpt lat="44.12326" lon="3.96115">
        <ele>455.32</ele>
        <time>2022-08-10T07:59:11Z</time>
      </trkpt>
      <trkpt lat="44.12329" lon="3.96121">
        <ele>455.8</ele>
        <time>2022-08-10T07:59:16Z</time>
      </trkpt>
      <trkpt lat="44.12333" lon="3.96127">
        <ele>456.28</ele>
        <time>2022-08-10T07:59:21Z</time>
      </trkpt>
      <trkpt lat="44.12346" lon="3.96145">
        <ele>454.36</ele>
        <time>2022-08-10T07:59:37Z</time>
      </trkpt>
      <trkpt lat="44.12357" lon="3.96158">
        <ele>451.96</ele>
        <time>2022-08-10T07:59:50Z</time>
      </trkpt>
      <trkpt lat="44.1237" lon="3.9617">
        <ele>452.92</ele>
        <time>2022-08-10T08:00:03Z</time>
      </trkpt>
      <trkpt lat="44.12376" lon="3.96176">
        <ele>452.44</ele>
        <time>2022-08-10T08:00:09Z</time>
      </trkpt>
      <trkpt lat="44.12379" lon="3.96179">
        <ele>452.92</ele>
        <time>2022-08-10T08:00:12Z</time>
      </trkpt>
      <trkpt lat="44.12395" lon="3.9619">
        <ele>452.92</ele>
        <time>2022-08-10T08:00:26Z</time>
      </trkpt>
      <trkpt lat="44.12399" lon="3.96193">
        <ele>452.44</ele>
        <time>2022-08-10T08:00:30Z</time>
      </trkpt>
      <trkpt lat="44.12405" lon="3.96197">
        <ele>451.96</ele>
        <time>2022-08-10T08:00:36Z</time>
      </trkpt>
      <trkpt lat="44.12419" lon="3.9621">
        <ele>453.88</ele>
        <time>2022-08-10T08:00:50Z</time>
      </trkpt>
      <trkpt lat="44.12436" lon="3.96221">
        <ele>454.36</ele>
        <time>2022-08-10T08:01:04Z</time>
      </trkpt>
      <trkpt lat="44.12454" lon="3.96228">
        <ele>453.88</ele>
        <time>2022-08-10T08:01:19Z</time>
      </trkpt>
      <trkpt lat="44.12469" lon="3.96234">
        <ele>452.92</ele>
        <time>2022-08-10T08:01:31Z</time>
      </trkpt>
      <trkpt lat="44.12487" lon="3.96239">
        <ele>450.03</ele>
        <time>2022-08-10T08:01:46Z</time>
      </trkpt>
      <trkpt lat="44.12507" lon="3.96245">
        <ele>445.71</ele>
        <time>2022-08-10T08:02:02Z</time>
      </trkpt>
      <trkpt lat="44.12529" lon="3.96251">
        <ele>443.79</ele>
        <time>2022-08-10T08:02:19Z</time>
      </trkpt>
      <trkpt lat="44.12551" lon="3.96259">
        <ele>443.79</ele>
        <time>2022-08-10T08:02:34Z</time>
      </trkpt>
      <trkpt lat="44.12569" lon="3.9627">
        <ele>443.31</ele>
        <time>2022-08-10T08:02:49Z</time>
      </trkpt>
      <trkpt lat="44.12589" lon="3.96279">
        <ele>439.94</ele>
        <time>2022-08-10T08:03:05Z</time>
      </trkpt>
      <trkpt lat="44.12606" lon="3.96283">
        <ele>438.98</ele>
        <time>2022-08-10T08:03:18Z</time>
      </trkpt>
      <trkpt lat="44.12629" lon="3.96283">
        <ele>438.5</ele>
        <time>2022-08-10T08:03:36Z</time>
      </trkpt>
      <trkpt lat="44.1265" lon="3.96283">
        <ele>439.46</ele>
        <time>2022-08-10T08:03:52Z</time>
      </trkpt>
      <trkpt lat="44.12673" lon="3.96285">
        <ele>440.42</ele>
        <time>2022-08-10T08:04:09Z</time>
      </trkpt>
      <trkpt lat="44.12688" lon="3.96286">
        <ele>440.42</ele>
        <time>2022-08-10T08:04:21Z</time>
      </trkpt>
      <trkpt lat="44.12708" lon="3.96289">
        <ele>442.34</ele>
        <time>2022-08-10T08:04:36Z</time>
      </trkpt>
      <trkpt lat="44.12726" lon="3.96293">
        <ele>442.34</ele>
        <time>2022-08-10T08:04:50Z</time>
      </trkpt>
      <trkpt lat="44.12743" lon="3.96294">
        <ele>441.86</ele>
        <time>2022-08-10T08:05:03Z</time>
      </trkpt>
      <trkpt lat="44.12765" lon="3.96294">
        <ele>441.86</ele>
        <time>2022-08-10T08:05:19Z</time>
      </trkpt>
      <trkpt lat="44.12783" lon="3.96293">
        <ele>440.9</ele>
        <time>2022-08-10T08:05:32Z</time>
      </trkpt>
      <trkpt lat="44.12805" lon="3.96289">
        <ele>440.9</ele>
        <time>2022-08-10T08:05:48Z</time>
      </trkpt>
      <trkpt lat="44.12828" lon="3.96282">
        <ele>438.98</ele>
        <time>2022-08-10T08:06:06Z</time>
      </trkpt>
      <trkpt lat="44.12846" lon="3.96275">
        <ele>437.54</ele>
        <time>2022-08-10T08:06:20Z</time>
      </trkpt>
      <trkpt lat="44.12868" lon="3.96265">
        <ele>437.06</ele>
        <time>2022-08-10T08:06:36Z</time>
      </trkpt>
      <trkpt lat="44.12893" lon="3.96261">
        <ele>436.58</ele>
        <time>2022-08-10T08:06:55Z</time>
      </trkpt>
      <trkpt lat="44.12913" lon="3.96259">
        <ele>435.61</ele>
        <time>2022-08-10T08:07:10Z</time>
      </trkpt>
      <trkpt lat="44.12934" lon="3.9626">
        <ele>438.98</ele>
        <time>2022-08-10T08:07:26Z</time>
      </trkpt>
      <trkpt lat="44.12949" lon="3.96258">
        <ele>439.46</ele>
        <time>2022-08-10T08:07:40Z</time>
      </trkpt>
      <trkpt lat="44.12951" lon="3.96254">
        <ele>439.46</ele>
        <time>2022-08-10T08:07:48Z</time>
      </trkpt>
      <trkpt lat="44.12952" lon="3.96266">
        <ele>439.94</ele>
        <time>2022-08-10T08:08:02Z</time>
      </trkpt>
      <trkpt lat="44.12954" lon="3.96263">
        <ele>439.46</ele>
        <time>2022-08-10T08:08:27Z</time>
      </trkpt>
      <trkpt lat="44.12959" lon="3.96271">
        <ele>440.42</ele>
        <time>2022-08-10T08:08:38Z</time>
      </trkpt>
      <trkpt lat="44.12961" lon="3.96278">
        <ele>440.9</ele>
        <time>2022-08-10T08:08:43Z</time>
      </trkpt>
      <trkpt lat="44.12967" lon="3.96298">
        <ele>441.38</ele>
        <time>2022-08-10T08:08:56Z</time>
      </trkpt>
      <trkpt lat="44.1297" lon="3.96323">
        <ele>441.38</ele>
        <time>2022-08-10T08:09:11Z</time>
      </trkpt>
      <trkpt lat="44.1297" lon="3.96345">
        <ele>440.9</ele>
        <time>2022-08-10T08:09:24Z</time>
      </trkpt>
      <trkpt lat="44.12976" lon="3.96371">
        <ele>440.42</ele>
        <time>2022-08-10T08:09:41Z</time>
      </trkpt>
      <trkpt lat="44.12982" lon="3.96392">
        <ele>439.94</ele>
        <time>2022-08-10T08:09:57Z</time>
      </trkpt>
      <trkpt lat="44.12985" lon="3.96417">
        <ele>440.9</ele>
        <time>2022-08-10T08:10:12Z</time>
      </trkpt>
      <trkpt lat="44.12984" lon="3.96438">
        <ele>440.42</ele>
        <time>2022-08-10T08:10:24Z</time>
      </trkpt>
      <trkpt lat="44.12984" lon="3.96457">
        <ele>441.38</ele>
        <time>2022-08-10T08:10:36Z</time>
      </trkpt>
      <trkpt lat="44.1299" lon="3.96477">
        <ele>443.31</ele>
        <time>2022-08-10T08:10:50Z</time>
      </trkpt>
      <trkpt lat="44.12993" lon="3.96485">
        <ele>443.79</ele>
        <time>2022-08-10T08:10:56Z</time>
      </trkpt>
      <trkpt lat="44.12998" lon="3.96491">
        <ele>445.23</ele>
        <time>2022-08-10T08:11:02Z</time>
      </trkpt>
      <trkpt lat="44.13001" lon="3.96495">
        <ele>445.23</ele>
        <time>2022-08-10T08:11:06Z</time>
      </trkpt>
      <trkpt lat="44.13009" lon="3.96497">
        <ele>445.23</ele>
        <time>2022-08-10T08:11:15Z</time>
      </trkpt>
      <trkpt lat="44.1302" lon="3.96489">
        <ele>448.59</ele>
        <time>2022-08-10T08:11:29Z</time>
      </trkpt>
      <trkpt lat="44.1303" lon="3.96481">
        <ele>451.96</ele>
        <time>2022-08-10T08:11:43Z</time>
      </trkpt>
      <trkpt lat="44.13036" lon="3.96462">
        <ele>455.8</ele>
        <time>2022-08-10T08:12:00Z</time>
      </trkpt>
      <trkpt lat="44.13038" lon="3.96443">
        <ele>458.21</ele>
        <time>2022-08-10T08:12:16Z</time>
      </trkpt>
      <trkpt lat="44.13039" lon="3.96438">
        <ele>458.21</ele>
        <time>2022-08-10T08:12:20Z</time>
      </trkpt>
      <trkpt lat="44.13042" lon="3.96418">
        <ele>462.05</ele>
        <time>2022-08-10T08:12:36Z</time>
      </trkpt>
      <trkpt lat="44.13046" lon="3.96399">
        <ele>464.45</ele>
        <time>2022-08-10T08:12:52Z</time>
      </trkpt>
      <trkpt lat="44.1305" lon="3.96381">
        <ele>465.9</ele>
        <time>2022-08-10T08:13:07Z</time>
      </trkpt>
      <trkpt lat="44.13054" lon="3.96364">
        <ele>468.3</ele>
        <time>2022-08-10T08:13:22Z</time>
      </trkpt>
      <trkpt lat="44.13059" lon="3.96344">
        <ele>468.78</ele>
        <time>2022-08-10T08:13:40Z</time>
      </trkpt>
      <trkpt lat="44.13067" lon="3.9633">
        <ele>470.22</ele>
        <time>2022-08-10T08:13:54Z</time>
      </trkpt>
      <trkpt lat="44.13071" lon="3.96331">
        <ele>471.66</ele>
        <time>2022-08-10T08:13:58Z</time>
      </trkpt>
      <trkpt lat="44.13079" lon="3.96348">
        <ele>474.55</ele>
        <time>2022-08-10T08:14:14Z</time>
      </trkpt>
      <trkpt lat="44.13089" lon="3.9636">
        <ele>477.43</ele>
        <time>2022-08-10T08:14:28Z</time>
      </trkpt>
      <trkpt lat="44.13091" lon="3.96361">
        <ele>477.91</ele>
        <time>2022-08-10T08:14:30Z</time>
      </trkpt>
      <trkpt lat="44.13101" lon="3.96362">
        <ele>478.87</ele>
        <time>2022-08-10T08:14:41Z</time>
      </trkpt>
      <trkpt lat="44.13115" lon="3.96356">
        <ele>480.8</ele>
        <time>2022-08-10T08:14:57Z</time>
      </trkpt>
      <trkpt lat="44.13129" lon="3.96348">
        <ele>484.16</ele>
        <time>2022-08-10T08:15:15Z</time>
      </trkpt>
      <trkpt lat="44.13133" lon="3.96348">
        <ele>484.64</ele>
        <time>2022-08-10T08:15:20Z</time>
      </trkpt>
      <trkpt lat="44.13146" lon="3.96344">
        <ele>488.01</ele>
        <time>2022-08-10T08:15:35Z</time>
      </trkpt>
      <trkpt lat="44.13162" lon="3.96337">
        <ele>490.41</ele>
        <time>2022-08-10T08:15:55Z</time>
      </trkpt>
      <trkpt lat="44.13175" lon="3.96331">
        <ele>493.77</ele>
        <time>2022-08-10T08:16:11Z</time>
      </trkpt>
      <trkpt lat="44.13187" lon="3.96325">
        <ele>496.66</ele>
        <time>2022-08-10T08:16:29Z</time>
      </trkpt>
      <trkpt lat="44.13201" lon="3.96324">
        <ele>499.06</ele>
        <time>2022-08-10T08:16:46Z</time>
      </trkpt>
      <trkpt lat="44.13212" lon="3.96324">
        <ele>501.46</ele>
        <time>2022-08-10T08:17:00Z</time>
      </trkpt>
      <trkpt lat="44.13225" lon="3.96324">
        <ele>502.91</ele>
        <time>2022-08-10T08:17:15Z</time>
      </trkpt>
      <trkpt lat="44.1324" lon="3.96324">
        <ele>507.23</ele>
        <time>2022-08-10T08:17:34Z</time>
      </trkpt>
      <trkpt lat="44.13253" lon="3.96326">
        <ele>510.12</ele>
        <time>2022-08-10T08:17:50Z</time>
      </trkpt>
      <trkpt lat="44.13265" lon="3.96329">
        <ele>511.08</ele>
        <time>2022-08-10T08:18:04Z</time>
      </trkpt>
      <trkpt lat="44.13266" lon="3.96329">
        <ele>511.08</ele>
        <time>2022-08-10T08:18:05Z</time>
      </trkpt>
      <trkpt lat="44.13279" lon="3.96328">
        <ele>513</ele>
        <time>2022-08-10T08:18:22Z</time>
      </trkpt>
      <trkpt lat="44.1329" lon="3.96331">
        <ele>515.4</ele>
        <time>2022-08-10T08:18:37Z</time>
      </trkpt>
      <trkpt lat="44.13302" lon="3.96336">
        <ele>516.37</ele>
        <time>2022-08-10T08:18:52Z</time>
      </trkpt>
      <trkpt lat="44.13312" lon="3.96342">
        <ele>518.29</ele>
        <time>2022-08-10T08:19:06Z</time>
      </trkpt>
      <trkpt lat="44.13323" lon="3.96346">
        <ele>519.73</ele>
        <time>2022-08-10T08:19:19Z</time>
      </trkpt>
      <trkpt lat="44.13335" lon="3.96349">
        <ele>521.17</ele>
        <time>2022-08-10T08:19:34Z</time>
      </trkpt>
      <trkpt lat="44.13343" lon="3.96353">
        <ele>522.61</ele>
        <time>2022-08-10T08:19:46Z</time>
      </trkpt>
      <trkpt lat="44.13357" lon="3.9636">
        <ele>524.06</ele>
        <time>2022-08-10T08:20:01Z</time>
      </trkpt>
      <trkpt lat="44.13368" lon="3.96363">
        <ele>525.98</ele>
        <time>2022-08-10T08:20:15Z</time>
      </trkpt>
      <trkpt lat="44.13378" lon="3.96365">
        <ele>528.86</ele>
        <time>2022-08-10T08:20:28Z</time>
      </trkpt>
      <trkpt lat="44.13391" lon="3.96366">
        <ele>531.75</ele>
        <time>2022-08-10T08:20:43Z</time>
      </trkpt>
      <trkpt lat="44.13402" lon="3.96365">
        <ele>533.67</ele>
        <time>2022-08-10T08:20:56Z</time>
      </trkpt>
      <trkpt lat="44.13415" lon="3.96367">
        <ele>535.59</ele>
        <time>2022-08-10T08:21:10Z</time>
      </trkpt>
      <trkpt lat="44.13425" lon="3.96369">
        <ele>536.07</ele>
        <time>2022-08-10T08:21:21Z</time>
      </trkpt>
      <trkpt lat="44.13433" lon="3.96373">
        <ele>537.99</ele>
        <time>2022-08-10T08:21:31Z</time>
      </trkpt>
      <trkpt lat="44.13446" lon="3.96381">
        <ele>538.96</ele>
        <time>2022-08-10T08:21:47Z</time>
      </trkpt>
      <trkpt lat="44.13455" lon="3.96389">
        <ele>540.88</ele>
        <time>2022-08-10T08:21:58Z</time>
      </trkpt>
      <trkpt lat="44.13471" lon="3.96399">
        <ele>541.36</ele>
        <time>2022-08-10T08:22:14Z</time>
      </trkpt>
      <trkpt lat="44.13484" lon="3.96403">
        <ele>543.28</ele>
        <time>2022-08-10T08:22:30Z</time>
      </trkpt>
      <trkpt lat="44.13498" lon="3.96408">
        <ele>545.2</ele>
        <time>2022-08-10T08:22:44Z</time>
      </trkpt>
      <trkpt lat="44.13512" lon="3.96418">
        <ele>546.65</ele>
        <time>2022-08-10T08:23:00Z</time>
      </trkpt>
      <trkpt lat="44.13524" lon="3.96427">
        <ele>548.09</ele>
        <time>2022-08-10T08:23:14Z</time>
      </trkpt>
      <trkpt lat="44.13537" lon="3.96438">
        <ele>550.49</ele>
        <time>2022-08-10T08:23:31Z</time>
      </trkpt>
      <trkpt lat="44.13547" lon="3.96445">
        <ele>551.45</ele>
        <time>2022-08-10T08:23:44Z</time>
      </trkpt>
      <trkpt lat="44.13553" lon="3.96449">
        <ele>552.41</ele>
        <time>2022-08-10T08:23:52Z</time>
      </trkpt>
      <trkpt lat="44.13565" lon="3.96464">
        <ele>554.82</ele>
        <time>2022-08-10T08:24:09Z</time>
      </trkpt>
      <trkpt lat="44.13569" lon="3.96467">
        <ele>555.3</ele>
        <time>2022-08-10T08:24:15Z</time>
      </trkpt>
      <trkpt lat="44.13581" lon="3.96477">
        <ele>556.26</ele>
        <time>2022-08-10T08:24:29Z</time>
      </trkpt>
      <trkpt lat="44.13585" lon="3.9648">
        <ele>556.74</ele>
        <time>2022-08-10T08:24:33Z</time>
      </trkpt>
      <trkpt lat="44.13602" lon="3.96483">
        <ele>560.11</ele>
        <time>2022-08-10T08:24:52Z</time>
      </trkpt>
      <trkpt lat="44.13616" lon="3.96489">
        <ele>562.51</ele>
        <time>2022-08-10T08:25:08Z</time>
      </trkpt>
      <trkpt lat="44.13627" lon="3.96498">
        <ele>564.91</ele>
        <time>2022-08-10T08:25:23Z</time>
      </trkpt>
      <trkpt lat="44.13637" lon="3.9651">
        <ele>568.76</ele>
        <time>2022-08-10T08:25:39Z</time>
      </trkpt>
      <trkpt lat="44.13649" lon="3.96519">
        <ele>571.16</ele>
        <time>2022-08-10T08:25:55Z</time>
      </trkpt>
      <trkpt lat="44.13659" lon="3.9653">
        <ele>573.56</ele>
        <time>2022-08-10T08:26:12Z</time>
      </trkpt>
      <trkpt lat="44.13665" lon="3.96539">
        <ele>575.01</ele>
        <time>2022-08-10T08:26:30Z</time>
      </trkpt>
      <trkpt lat="44.13673" lon="3.96555">
        <ele>576.93</ele>
        <time>2022-08-10T08:26:43Z</time>
      </trkpt>
      <trkpt lat="44.13673" lon="3.96556">
        <ele>576.93</ele>
        <time>2022-08-10T08:26:44Z</time>
      </trkpt>
      <trkpt lat="44.13675" lon="3.96563">
        <ele>577.41</ele>
        <time>2022-08-10T08:26:50Z</time>
      </trkpt>
      <trkpt lat="44.13686" lon="3.96587">
        <ele>578.37</ele>
        <time>2022-08-10T08:27:09Z</time>
      </trkpt>
      <trkpt lat="44.13689" lon="3.96594">
        <ele>578.85</ele>
        <time>2022-08-10T08:27:15Z</time>
      </trkpt>
      <trkpt lat="44.13697" lon="3.9662">
        <ele>579.81</ele>
        <time>2022-08-10T08:27:33Z</time>
      </trkpt>
      <trkpt lat="44.13706" lon="3.96646">
        <ele>580.29</ele>
        <time>2022-08-10T08:27:51Z</time>
      </trkpt>
      <trkpt lat="44.13715" lon="3.96669">
        <ele>582.22</ele>
        <time>2022-08-10T08:28:09Z</time>
      </trkpt>
      <trkpt lat="44.13725" lon="3.96692">
        <ele>583.18</ele>
        <time>2022-08-10T08:28:26Z</time>
      </trkpt>
      <trkpt lat="44.13734" lon="3.96706">
        <ele>585.1</ele>
        <time>2022-08-10T08:28:39Z</time>
      </trkpt>
      <trkpt lat="44.13747" lon="3.96721">
        <ele>586.06</ele>
        <time>2022-08-10T08:28:55Z</time>
      </trkpt>
      <trkpt lat="44.13761" lon="3.96729">
        <ele>586.06</ele>
        <time>2022-08-10T08:29:09Z</time>
      </trkpt>
      <trkpt lat="44.13777" lon="3.96737">
        <ele>586.54</ele>
        <time>2022-08-10T08:29:23Z</time>
      </trkpt>
      <trkpt lat="44.13792" lon="3.9674">
        <ele>587.02</ele>
        <time>2022-08-10T08:29:35Z</time>
      </trkpt>
      <trkpt lat="44.13805" lon="3.9674">
        <ele>588.95</ele>
        <time>2022-08-10T08:29:48Z</time>
      </trkpt>
      <trkpt lat="44.13807" lon="3.9674">
        <ele>587.02</ele>
        <time>2022-08-10T08:30:11Z</time>
      </trkpt>
      <trkpt lat="44.1381" lon="3.96739">
        <ele>587.02</ele>
        <time>2022-08-10T08:30:14Z</time>
      </trkpt>
      <trkpt lat="44.13827" lon="3.96738">
        <ele>586.06</ele>
        <time>2022-08-10T08:30:30Z</time>
      </trkpt>
      <trkpt lat="44.13846" lon="3.96737">
        <ele>585.58</ele>
        <time>2022-08-10T08:30:45Z</time>
      </trkpt>
      <trkpt lat="44.13863" lon="3.96735">
        <ele>588.46</ele>
        <time>2022-08-10T08:30:59Z</time>
      </trkpt>
      <trkpt lat="44.13881" lon="3.96724">
        <ele>589.91</ele>
        <time>2022-08-10T08:31:16Z</time>
      </trkpt>
      <trkpt lat="44.139" lon="3.96712">
        <ele>591.35</ele>
        <time>2022-08-10T08:31:34Z</time>
      </trkpt>
      <trkpt lat="44.13917" lon="3.96706">
        <ele>591.83</ele>
        <time>2022-08-10T08:31:49Z</time>
      </trkpt>
      <trkpt lat="44.13927" lon="3.96698">
        <ele>593.27</ele>
        <time>2022-08-10T08:32:03Z</time>
      </trkpt>
      <trkpt lat="44.13931" lon="3.96697">
        <ele>594.23</ele>
        <time>2022-08-10T08:32:13Z</time>
      </trkpt>
      <trkpt lat="44.13935" lon="3.96697">
        <ele>594.23</ele>
        <time>2022-08-10T08:32:27Z</time>
      </trkpt>
      <trkpt lat="44.13938" lon="3.96696">
        <ele>594.71</ele>
        <time>2022-08-10T08:32:30Z</time>
      </trkpt>
      <trkpt lat="44.13943" lon="3.96695">
        <ele>594.71</ele>
        <time>2022-08-10T08:32:35Z</time>
      </trkpt>
      <trkpt lat="44.13954" lon="3.9669">
        <ele>596.64</ele>
        <time>2022-08-10T08:32:50Z</time>
      </trkpt>
      <trkpt lat="44.13961" lon="3.96686">
        <ele>597.6</ele>
        <time>2022-08-10T08:33:19Z</time>
      </trkpt>
      <trkpt lat="44.13972" lon="3.96678">
        <ele>600</ele>
        <time>2022-08-10T08:33:32Z</time>
      </trkpt>
      <trkpt lat="44.13983" lon="3.96663">
        <ele>602.88</ele>
        <time>2022-08-10T08:33:49Z</time>
      </trkpt>
      <trkpt lat="44.13992" lon="3.96652">
        <ele>603.85</ele>
        <time>2022-08-10T08:34:03Z</time>
      </trkpt>
      <trkpt lat="44.14001" lon="3.96639">
        <ele>606.73</ele>
        <time>2022-08-10T08:34:17Z</time>
      </trkpt>
      <trkpt lat="44.1401" lon="3.96625">
        <ele>607.69</ele>
        <time>2022-08-10T08:34:31Z</time>
      </trkpt>
      <trkpt lat="44.14023" lon="3.96617">
        <ele>608.65</ele>
        <time>2022-08-10T08:34:47Z</time>
      </trkpt>
      <trkpt lat="44.1404" lon="3.96614">
        <ele>609.61</ele>
        <time>2022-08-10T08:35:03Z</time>
      </trkpt>
      <trkpt lat="44.14057" lon="3.96612">
        <ele>609.61</ele>
        <time>2022-08-10T08:35:19Z</time>
      </trkpt>
      <trkpt lat="44.14074" lon="3.96611">
        <ele>609.13</ele>
        <time>2022-08-10T08:35:34Z</time>
      </trkpt>
      <trkpt lat="44.14093" lon="3.96612">
        <ele>608.17</ele>
        <time>2022-08-10T08:35:50Z</time>
      </trkpt>
      <trkpt lat="44.14107" lon="3.96614">
        <ele>609.13</ele>
        <time>2022-08-10T08:36:03Z</time>
      </trkpt>
      <trkpt lat="44.14118" lon="3.96617">
        <ele>611.54</ele>
        <time>2022-08-10T08:36:15Z</time>
      </trkpt>
      <trkpt lat="44.14135" lon="3.96627">
        <ele>613.46</ele>
        <time>2022-08-10T08:36:32Z</time>
      </trkpt>
      <trkpt lat="44.1415" lon="3.96636">
        <ele>616.34</ele>
        <time>2022-08-10T08:36:48Z</time>
      </trkpt>
      <trkpt lat="44.14164" lon="3.9665">
        <ele>619.23</ele>
        <time>2022-08-10T08:37:06Z</time>
      </trkpt>
      <trkpt lat="44.1417" lon="3.96658">
        <ele>619.71</ele>
        <time>2022-08-10T08:37:14Z</time>
      </trkpt>
      <trkpt lat="44.14175" lon="3.96669">
        <ele>620.19</ele>
        <time>2022-08-10T08:37:22Z</time>
      </trkpt>
      <trkpt lat="44.14192" lon="3.96695">
        <ele>619.71</ele>
        <time>2022-08-10T08:37:43Z</time>
      </trkpt>
      <trkpt lat="44.14207" lon="3.96712">
        <ele>622.11</ele>
        <time>2022-08-10T08:38:00Z</time>
      </trkpt>
      <trkpt lat="44.14221" lon="3.96725">
        <ele>624.99</ele>
        <time>2022-08-10T08:38:15Z</time>
      </trkpt>
      <trkpt lat="44.14229" lon="3.96735">
        <ele>624.51</ele>
        <time>2022-08-10T08:38:24Z</time>
      </trkpt>
      <trkpt lat="44.14244" lon="3.96755">
        <ele>622.59</ele>
        <time>2022-08-10T08:38:40Z</time>
      </trkpt>
      <trkpt lat="44.14246" lon="3.9676">
        <ele>622.59</ele>
        <time>2022-08-10T08:38:43Z</time>
      </trkpt>
      <trkpt lat="44.14246" lon="3.96772">
        <ele>622.59</ele>
        <time>2022-08-10T08:38:51Z</time>
      </trkpt>
      <trkpt lat="44.14245" lon="3.96785">
        <ele>624.51</ele>
        <time>2022-08-10T08:39:06Z</time>
      </trkpt>
      <trkpt lat="44.14244" lon="3.96779">
        <ele>624.99</ele>
        <time>2022-08-10T08:39:35Z</time>
      </trkpt>
      <trkpt lat="44.14241" lon="3.96797">
        <ele>623.55</ele>
        <time>2022-08-10T08:39:57Z</time>
      </trkpt>
      <trkpt lat="44.1423" lon="3.96831">
        <ele>621.63</ele>
        <time>2022-08-10T08:40:17Z</time>
      </trkpt>
      <trkpt lat="44.14218" lon="3.9686">
        <ele>620.19</ele>
        <time>2022-08-10T08:40:36Z</time>
      </trkpt>
      <trkpt lat="44.14208" lon="3.96886">
        <ele>620.67</ele>
        <time>2022-08-10T08:40:52Z</time>
      </trkpt>
      <trkpt lat="44.14201" lon="3.96917">
        <ele>619.71</ele>
        <time>2022-08-10T08:41:11Z</time>
      </trkpt>
      <trkpt lat="44.14194" lon="3.9695">
        <ele>617.3</ele>
        <time>2022-08-10T08:41:29Z</time>
      </trkpt>
      <trkpt lat="44.14186" lon="3.9698">
        <ele>616.34</ele>
        <time>2022-08-10T08:41:47Z</time>
      </trkpt>
      <trkpt lat="44.14178" lon="3.96998">
        <ele>614.42</ele>
        <time>2022-08-10T08:42:01Z</time>
      </trkpt>
      <trkpt lat="44.14168" lon="3.9702">
        <ele>612.98</ele>
        <time>2022-08-10T08:42:16Z</time>
      </trkpt>
      <trkpt lat="44.14165" lon="3.97045">
        <ele>613.46</ele>
        <time>2022-08-10T08:42:30Z</time>
      </trkpt>
      <trkpt lat="44.14169" lon="3.97071">
        <ele>612.98</ele>
        <time>2022-08-10T08:42:46Z</time>
      </trkpt>
      <trkpt lat="44.14176" lon="3.971">
        <ele>616.34</ele>
        <time>2022-08-10T08:43:04Z</time>
      </trkpt>
      <trkpt lat="44.14183" lon="3.97111">
        <ele>617.3</ele>
        <time>2022-08-10T08:43:15Z</time>
      </trkpt>
      <trkpt lat="44.14186" lon="3.97114">
        <ele>619.71</ele>
        <time>2022-08-10T08:43:24Z</time>
      </trkpt>
      <trkpt lat="44.14181" lon="3.97139">
        <ele>621.15</ele>
        <time>2022-08-10T08:43:42Z</time>
      </trkpt>
      <trkpt lat="44.14182" lon="3.97162">
        <ele>622.59</ele>
        <time>2022-08-10T08:43:56Z</time>
      </trkpt>
      <trkpt lat="44.14185" lon="3.97187">
        <ele>622.59</ele>
        <time>2022-08-10T08:44:10Z</time>
      </trkpt>
      <trkpt lat="44.14191" lon="3.97214">
        <ele>621.63</ele>
        <time>2022-08-10T08:44:26Z</time>
      </trkpt>
      <trkpt lat="44.14196" lon="3.97244">
        <ele>620.19</ele>
        <time>2022-08-10T08:44:43Z</time>
      </trkpt>
      <trkpt lat="44.142" lon="3.97272">
        <ele>619.71</ele>
        <time>2022-08-10T08:45:00Z</time>
      </trkpt>
      <trkpt lat="44.142" lon="3.97274">
        <ele>620.19</ele>
        <time>2022-08-10T08:45:01Z</time>
      </trkpt>
      <trkpt lat="44.14205" lon="3.97302">
        <ele>621.63</ele>
        <time>2022-08-10T08:45:19Z</time>
      </trkpt>
      <trkpt lat="44.14212" lon="3.97331">
        <ele>623.07</ele>
        <time>2022-08-10T08:45:36Z</time>
      </trkpt>
      <trkpt lat="44.14217" lon="3.97358">
        <ele>624.99</ele>
        <time>2022-08-10T08:45:53Z</time>
      </trkpt>
      <trkpt lat="44.14222" lon="3.97383">
        <ele>627.4</ele>
        <time>2022-08-10T08:46:11Z</time>
      </trkpt>
      <trkpt lat="44.14221" lon="3.97392">
        <ele>628.84</ele>
        <time>2022-08-10T08:46:32Z</time>
      </trkpt>
      <trkpt lat="44.1422" lon="3.97417">
        <ele>626.92</ele>
        <time>2022-08-10T08:46:46Z</time>
      </trkpt>
      <trkpt lat="44.14219" lon="3.97445">
        <ele>625.47</ele>
        <time>2022-08-10T08:47:01Z</time>
      </trkpt>
      <trkpt lat="44.14219" lon="3.97477">
        <ele>623.55</ele>
        <time>2022-08-10T08:47:19Z</time>
      </trkpt>
      <trkpt lat="44.14218" lon="3.97501">
        <ele>624.03</ele>
        <time>2022-08-10T08:47:34Z</time>
      </trkpt>
      <trkpt lat="44.14216" lon="3.9752">
        <ele>625.47</ele>
        <time>2022-08-10T08:47:48Z</time>
      </trkpt>
      <trkpt lat="44.14218" lon="3.97529">
        <ele>627.88</ele>
        <time>2022-08-10T08:48:03Z</time>
      </trkpt>
      <trkpt lat="44.14215" lon="3.97547">
        <ele>628.84</ele>
        <time>2022-08-10T08:48:19Z</time>
      </trkpt>
      <trkpt lat="44.14215" lon="3.9756">
        <ele>630.28</ele>
        <time>2022-08-10T08:48:32Z</time>
      </trkpt>
      <trkpt lat="44.14213" lon="3.97572">
        <ele>630.76</ele>
        <time>2022-08-10T08:48:45Z</time>
      </trkpt>
      <trkpt lat="44.14213" lon="3.97585">
        <ele>632.68</ele>
        <time>2022-08-10T08:49:00Z</time>
      </trkpt>
      <trkpt lat="44.14208" lon="3.97605">
        <ele>636.53</ele>
        <time>2022-08-10T08:49:17Z</time>
      </trkpt>
      <trkpt lat="44.14203" lon="3.9762">
        <ele>638.93</ele>
        <time>2022-08-10T08:49:31Z</time>
      </trkpt>
      <trkpt lat="44.14198" lon="3.97633">
        <ele>641.34</ele>
        <time>2022-08-10T08:49:46Z</time>
      </trkpt>
      <trkpt lat="44.14195" lon="3.97647">
        <ele>638.93</ele>
        <time>2022-08-10T08:50:02Z</time>
      </trkpt>
      <trkpt lat="44.14194" lon="3.97658">
        <ele>636.53</ele>
        <time>2022-08-10T08:50:14Z</time>
      </trkpt>
      <trkpt lat="44.14188" lon="3.97677">
        <ele>637.01</ele>
        <time>2022-08-10T08:50:29Z</time>
      </trkpt>
      <trkpt lat="44.14181" lon="3.97695">
        <ele>640.38</ele>
        <time>2022-08-10T08:50:43Z</time>
      </trkpt>
      <trkpt lat="44.1417" lon="3.97708">
        <ele>642.3</ele>
        <time>2022-08-10T08:50:57Z</time>
      </trkpt>
      <trkpt lat="44.14167" lon="3.97722">
        <ele>644.22</ele>
        <time>2022-08-10T08:51:11Z</time>
      </trkpt>
      <trkpt lat="44.14161" lon="3.97739">
        <ele>645.66</ele>
        <time>2022-08-10T08:51:26Z</time>
      </trkpt>
      <trkpt lat="44.14162" lon="3.97749">
        <ele>646.14</ele>
        <time>2022-08-10T08:51:37Z</time>
      </trkpt>
      <trkpt lat="44.14157" lon="3.97767">
        <ele>648.07</ele>
        <time>2022-08-10T08:51:53Z</time>
      </trkpt>
      <trkpt lat="44.14158" lon="3.97782">
        <ele>649.51</ele>
        <time>2022-08-10T08:52:05Z</time>
      </trkpt>
      <trkpt lat="44.14152" lon="3.97798">
        <ele>652.39</ele>
        <time>2022-08-10T08:52:23Z</time>
      </trkpt>
      <trkpt lat="44.14149" lon="3.97811">
        <ele>653.83</ele>
        <time>2022-08-10T08:52:38Z</time>
      </trkpt>
      <trkpt lat="44.14149" lon="3.97824">
        <ele>653.83</ele>
        <time>2022-08-10T08:52:51Z</time>
      </trkpt>
      <trkpt lat="44.14149" lon="3.97834">
        <ele>651.43</ele>
        <time>2022-08-10T08:53:06Z</time>
      </trkpt>
      <trkpt lat="44.14148" lon="3.97834">
        <ele>652.87</ele>
        <time>2022-08-10T08:53:27Z</time>
      </trkpt>
      <trkpt lat="44.14146" lon="3.97834">
        <ele>653.83</ele>
        <time>2022-08-10T08:53:43Z</time>
      </trkpt>
      <trkpt lat="44.14146" lon="3.97837">
        <ele>657.68</ele>
        <time>2022-08-10T08:54:25Z</time>
      </trkpt>
      <trkpt lat="44.14146" lon="3.97841">
        <ele>660.08</ele>
        <time>2022-08-10T08:55:08Z</time>
      </trkpt>
      <trkpt lat="44.14146" lon="3.97839">
        <ele>661.52</ele>
        <time>2022-08-10T08:55:52Z</time>
      </trkpt>
      <trkpt lat="44.14146" lon="3.97839">
        <ele>658.64</ele>
        <time>2022-08-10T08:56:32Z</time>
      </trkpt>
      <trkpt lat="44.14146" lon="3.97837">
        <ele>657.68</ele>
        <time>2022-08-10T08:57:13Z</time>
      </trkpt>
      <trkpt lat="44.14147" lon="3.97837">
        <ele>656.72</ele>
        <time>2022-08-10T08:57:56Z</time>
      </trkpt>
      <trkpt lat="44.14146" lon="3.97841">
        <ele>661.04</ele>
        <time>2022-08-10T08:58:39Z</time>
      </trkpt>
      <trkpt lat="44.14147" lon="3.97837">
        <ele>661.52</ele>
        <time>2022-08-10T08:59:31Z</time>
      </trkpt>
      <trkpt lat="44.14146" lon="3.97837">
        <ele>660.56</ele>
        <time>2022-08-10T09:00:11Z</time>
      </trkpt>
      <trkpt lat="44.14147" lon="3.97835">
        <ele>660.56</ele>
        <time>2022-08-10T09:01:00Z</time>
      </trkpt>
      <trkpt lat="44.14146" lon="3.97841">
        <ele>663.45</ele>
        <time>2022-08-10T09:01:50Z</time>
      </trkpt>
      <trkpt lat="44.14146" lon="3.97838">
        <ele>661.04</ele>
        <time>2022-08-10T09:02:35Z</time>
      </trkpt>
      <trkpt lat="44.14146" lon="3.97836">
        <ele>660.56</ele>
        <time>2022-08-10T09:03:15Z</time>
      </trkpt>
      <trkpt lat="44.14147" lon="3.97834">
        <ele>658.64</ele>
        <time>2022-08-10T09:03:54Z</time>
      </trkpt>
      <trkpt lat="44.14149" lon="3.97833">
        <ele>658.64</ele>
        <time>2022-08-10T09:04:29Z</time>
      </trkpt>
      <trkpt lat="44.14147" lon="3.97835">
        <ele>658.64</ele>
        <time>2022-08-10T09:05:05Z</time>
      </trkpt>
      <trkpt lat="44.14148" lon="3.97839">
        <ele>660.08</ele>
        <time>2022-08-10T09:05:45Z</time>
      </trkpt>
      <trkpt lat="44.14149" lon="3.97838">
        <ele>660.08</ele>
        <time>2022-08-10T09:06:29Z</time>
      </trkpt>
      <trkpt lat="44.14148" lon="3.97838">
        <ele>660.08</ele>
        <time>2022-08-10T09:07:05Z</time>
      </trkpt>
      <trkpt lat="44.14147" lon="3.97839">
        <ele>662.01</ele>
        <time>2022-08-10T09:07:43Z</time>
      </trkpt>
      <trkpt lat="44.14146" lon="3.9784">
        <ele>663.45</ele>
        <time>2022-08-10T09:08:19Z</time>
      </trkpt>
      <trkpt lat="44.14147" lon="3.97837">
        <ele>660.08</ele>
        <time>2022-08-10T09:09:06Z</time>
      </trkpt>
      <trkpt lat="44.14148" lon="3.97836">
        <ele>658.64</ele>
        <time>2022-08-10T09:09:48Z</time>
      </trkpt>
      <trkpt lat="44.14149" lon="3.97835">
        <ele>657.2</ele>
        <time>2022-08-10T09:10:06Z</time>
      </trkpt>
      <trkpt lat="44.14148" lon="3.97833">
        <ele>657.68</ele>
        <time>2022-08-10T09:10:34Z</time>
      </trkpt>
      <trkpt lat="44.14148" lon="3.97839">
        <ele>657.68</ele>
        <time>2022-08-10T09:10:56Z</time>
      </trkpt>
      <trkpt lat="44.14148" lon="3.97838">
        <ele>657.68</ele>
        <time>2022-08-10T09:11:13Z</time>
      </trkpt>
      <trkpt lat="44.14149" lon="3.97839">
        <ele>658.16</ele>
        <time>2022-08-10T09:11:32Z</time>
      </trkpt>
      <trkpt lat="44.14147" lon="3.97851">
        <ele>653.35</ele>
        <time>2022-08-10T09:11:52Z</time>
      </trkpt>
      <trkpt lat="44.14145" lon="3.97868">
        <ele>649.99</ele>
        <time>2022-08-10T09:12:08Z</time>
      </trkpt>
      <trkpt lat="44.14143" lon="3.97885">
        <ele>647.1</ele>
        <time>2022-08-10T09:12:21Z</time>
      </trkpt>
      <trkpt lat="44.14145" lon="3.97901">
        <ele>645.66</ele>
        <time>2022-08-10T09:12:33Z</time>
      </trkpt>
      <trkpt lat="44.14146" lon="3.97903">
        <ele>645.18</ele>
        <time>2022-08-10T09:12:35Z</time>
      </trkpt>
      <trkpt lat="44.14155" lon="3.97915">
        <ele>642.78</ele>
        <time>2022-08-10T09:12:49Z</time>
      </trkpt>
      <trkpt lat="44.14159" lon="3.97927">
        <ele>639.89</ele>
        <time>2022-08-10T09:13:02Z</time>
      </trkpt>
      <trkpt lat="44.14159" lon="3.97942">
        <ele>636.53</ele>
        <time>2022-08-10T09:13:15Z</time>
      </trkpt>
      <trkpt lat="44.14158" lon="3.97958">
        <ele>632.68</ele>
        <time>2022-08-10T09:13:31Z</time>
      </trkpt>
      <trkpt lat="44.1416" lon="3.97965">
        <ele>631.24</ele>
        <time>2022-08-10T09:13:36Z</time>
      </trkpt>
      <trkpt lat="44.14173" lon="3.97973">
        <ele>631.24</ele>
        <time>2022-08-10T09:13:52Z</time>
      </trkpt>
      <trkpt lat="44.14181" lon="3.97984">
        <ele>627.4</ele>
        <time>2022-08-10T09:14:07Z</time>
      </trkpt>
      <trkpt lat="44.14184" lon="3.97995">
        <ele>623.55</ele>
        <time>2022-08-10T09:14:21Z</time>
      </trkpt>
      <trkpt lat="44.14191" lon="3.98006">
        <ele>619.71</ele>
        <time>2022-08-10T09:14:34Z</time>
      </trkpt>
      <trkpt lat="44.14202" lon="3.98017">
        <ele>616.82</ele>
        <time>2022-08-10T09:14:49Z</time>
      </trkpt>
      <trkpt lat="44.14208" lon="3.9803">
        <ele>614.9</ele>
        <time>2022-08-10T09:15:03Z</time>
      </trkpt>
      <trkpt lat="44.14213" lon="3.98043">
        <ele>611.54</ele>
        <time>2022-08-10T09:15:16Z</time>
      </trkpt>
      <trkpt lat="44.14217" lon="3.9806">
        <ele>607.69</ele>
        <time>2022-08-10T09:15:31Z</time>
      </trkpt>
      <trkpt lat="44.14216" lon="3.98073">
        <ele>604.33</ele>
        <time>2022-08-10T09:15:45Z</time>
      </trkpt>
      <trkpt lat="44.14218" lon="3.98088">
        <ele>600</ele>
        <time>2022-08-10T09:15:59Z</time>
      </trkpt>
      <trkpt lat="44.14215" lon="3.98099">
        <ele>598.08</ele>
        <time>2022-08-10T09:16:11Z</time>
      </trkpt>
      <trkpt lat="44.14218" lon="3.98116">
        <ele>595.67</ele>
        <time>2022-08-10T09:16:24Z</time>
      </trkpt>
      <trkpt lat="44.14221" lon="3.98129">
        <ele>592.79</ele>
        <time>2022-08-10T09:16:40Z</time>
      </trkpt>
      <trkpt lat="44.14225" lon="3.98138">
        <ele>590.39</ele>
        <time>2022-08-10T09:16:55Z</time>
      </trkpt>
      <trkpt lat="44.14226" lon="3.98136">
        <ele>591.83</ele>
        <time>2022-08-10T09:17:29Z</time>
      </trkpt>
      <trkpt lat="44.1422" lon="3.98148">
        <ele>588.95</ele>
        <time>2022-08-10T09:17:42Z</time>
      </trkpt>
      <trkpt lat="44.14217" lon="3.98164">
        <ele>586.06</ele>
        <time>2022-08-10T09:17:56Z</time>
      </trkpt>
      <trkpt lat="44.14215" lon="3.98184">
        <ele>584.14</ele>
        <time>2022-08-10T09:18:10Z</time>
      </trkpt>
      <trkpt lat="44.14212" lon="3.982">
        <ele>582.22</ele>
        <time>2022-08-10T09:18:22Z</time>
      </trkpt>
      <trkpt lat="44.14209" lon="3.98221">
        <ele>580.29</ele>
        <time>2022-08-10T09:18:37Z</time>
      </trkpt>
      <trkpt lat="44.14208" lon="3.98237">
        <ele>576.93</ele>
        <time>2022-08-10T09:18:50Z</time>
      </trkpt>
      <trkpt lat="44.14204" lon="3.98254">
        <ele>574.53</ele>
        <time>2022-08-10T09:19:04Z</time>
      </trkpt>
      <trkpt lat="44.14199" lon="3.98271">
        <ele>571.16</ele>
        <time>2022-08-10T09:19:18Z</time>
      </trkpt>
      <trkpt lat="44.142" lon="3.98289">
        <ele>569.72</ele>
        <time>2022-08-10T09:19:32Z</time>
      </trkpt>
      <trkpt lat="44.14199" lon="3.98311">
        <ele>568.28</ele>
        <time>2022-08-10T09:19:48Z</time>
      </trkpt>
      <trkpt lat="44.14198" lon="3.98331">
        <ele>565.39</ele>
        <time>2022-08-10T09:20:03Z</time>
      </trkpt>
      <trkpt lat="44.14199" lon="3.9834">
        <ele>563.95</ele>
        <time>2022-08-10T09:20:09Z</time>
      </trkpt>
      <trkpt lat="44.14198" lon="3.98366">
        <ele>560.59</ele>
        <time>2022-08-10T09:20:24Z</time>
      </trkpt>
      <trkpt lat="44.14199" lon="3.98384">
        <ele>559.14</ele>
        <time>2022-08-10T09:20:35Z</time>
      </trkpt>
      <trkpt lat="44.14197" lon="3.98402">
        <ele>557.22</ele>
        <time>2022-08-10T09:20:46Z</time>
      </trkpt>
      <trkpt lat="44.14196" lon="3.98426">
        <ele>557.7</ele>
        <time>2022-08-10T09:21:01Z</time>
      </trkpt>
      <trkpt lat="44.14195" lon="3.98448">
        <ele>557.7</ele>
        <time>2022-08-10T09:21:15Z</time>
      </trkpt>
      <trkpt lat="44.14193" lon="3.9847">
        <ele>556.74</ele>
        <time>2022-08-10T09:21:29Z</time>
      </trkpt>
      <trkpt lat="44.14192" lon="3.98474">
        <ele>555.3</ele>
        <time>2022-08-10T09:21:33Z</time>
      </trkpt>
      <trkpt lat="44.14193" lon="3.98482">
        <ele>554.34</ele>
        <time>2022-08-10T09:21:37Z</time>
      </trkpt>
      <trkpt lat="44.14193" lon="3.98491">
        <ele>553.86</ele>
        <time>2022-08-10T09:21:42Z</time>
      </trkpt>
      <trkpt lat="44.1419" lon="3.9851">
        <ele>552.9</ele>
        <time>2022-08-10T09:21:56Z</time>
      </trkpt>
      <trkpt lat="44.14192" lon="3.98517">
        <ele>552.9</ele>
        <time>2022-08-10T09:22:00Z</time>
      </trkpt>
      <trkpt lat="44.14193" lon="3.98528">
        <ele>550.97</ele>
        <time>2022-08-10T09:22:08Z</time>
      </trkpt>
      <trkpt lat="44.14191" lon="3.98546">
        <ele>546.65</ele>
        <time>2022-08-10T09:22:24Z</time>
      </trkpt>
      <trkpt lat="44.1419" lon="3.98552">
        <ele>545.69</ele>
        <time>2022-08-10T09:22:28Z</time>
      </trkpt>
      <trkpt lat="44.1419" lon="3.98555">
        <ele>545.69</ele>
        <time>2022-08-10T09:22:30Z</time>
      </trkpt>
      <trkpt lat="44.1419" lon="3.98577">
        <ele>544.24</ele>
        <time>2022-08-10T09:22:44Z</time>
      </trkpt>
      <trkpt lat="44.1419" lon="3.98582">
        <ele>544.24</ele>
        <time>2022-08-10T09:22:48Z</time>
      </trkpt>
      <trkpt lat="44.14192" lon="3.98589">
        <ele>543.76</ele>
        <time>2022-08-10T09:22:52Z</time>
      </trkpt>
      <trkpt lat="44.14196" lon="3.98601">
        <ele>544.24</ele>
        <time>2022-08-10T09:23:05Z</time>
      </trkpt>
      <trkpt lat="44.14194" lon="3.98608">
        <ele>544.72</ele>
        <time>2022-08-10T09:23:24Z</time>
      </trkpt>
      <trkpt lat="44.14192" lon="3.98625">
        <ele>542.32</ele>
        <time>2022-08-10T09:23:38Z</time>
      </trkpt>
      <trkpt lat="44.14188" lon="3.98642">
        <ele>541.36</ele>
        <time>2022-08-10T09:23:53Z</time>
      </trkpt>
      <trkpt lat="44.14185" lon="3.98657">
        <ele>543.28</ele>
        <time>2022-08-10T09:24:06Z</time>
      </trkpt>
      <trkpt lat="44.14181" lon="3.98672">
        <ele>544.24</ele>
        <time>2022-08-10T09:24:21Z</time>
      </trkpt>
      <trkpt lat="44.14175" lon="3.98683">
        <ele>546.17</ele>
        <time>2022-08-10T09:24:35Z</time>
      </trkpt>
      <trkpt lat="44.14174" lon="3.98698">
        <ele>547.61</ele>
        <time>2022-08-10T09:24:49Z</time>
      </trkpt>
      <trkpt lat="44.14165" lon="3.98715">
        <ele>547.61</ele>
        <time>2022-08-10T09:25:07Z</time>
      </trkpt>
      <trkpt lat="44.1416" lon="3.98731">
        <ele>548.09</ele>
        <time>2022-08-10T09:25:23Z</time>
      </trkpt>
      <trkpt lat="44.14153" lon="3.98749">
        <ele>548.09</ele>
        <time>2022-08-10T09:25:38Z</time>
      </trkpt>
      <trkpt lat="44.14149" lon="3.98757">
        <ele>548.57</ele>
        <time>2022-08-10T09:25:46Z</time>
      </trkpt>
      <trkpt lat="44.14143" lon="3.98774">
        <ele>548.09</ele>
        <time>2022-08-10T09:26:00Z</time>
      </trkpt>
      <trkpt lat="44.14137" lon="3.98784">
        <ele>545.2</ele>
        <time>2022-08-10T09:26:15Z</time>
      </trkpt>
      <trkpt lat="44.14135" lon="3.98802">
        <ele>542.8</ele>
        <time>2022-08-10T09:26:28Z</time>
      </trkpt>
      <trkpt lat="44.14133" lon="3.9882">
        <ele>539.92</ele>
        <time>2022-08-10T09:26:43Z</time>
      </trkpt>
      <trkpt lat="44.14133" lon="3.98834">
        <ele>537.99</ele>
        <time>2022-08-10T09:26:56Z</time>
      </trkpt>
      <trkpt lat="44.14131" lon="3.98852">
        <ele>536.55</ele>
        <time>2022-08-10T09:27:12Z</time>
      </trkpt>
      <trkpt lat="44.1413" lon="3.98865">
        <ele>534.63</ele>
        <time>2022-08-10T09:27:24Z</time>
      </trkpt>
      <trkpt lat="44.14128" lon="3.98879">
        <ele>532.23</ele>
        <time>2022-08-10T09:27:37Z</time>
      </trkpt>
      <trkpt lat="44.14125" lon="3.98897">
        <ele>529.34</ele>
        <time>2022-08-10T09:27:52Z</time>
      </trkpt>
      <trkpt lat="44.14124" lon="3.98915">
        <ele>526.94</ele>
        <time>2022-08-10T09:28:07Z</time>
      </trkpt>
      <trkpt lat="44.14119" lon="3.98929">
        <ele>522.61</ele>
        <time>2022-08-10T09:28:21Z</time>
      </trkpt>
      <trkpt lat="44.14118" lon="3.98941">
        <ele>521.65</ele>
        <time>2022-08-10T09:28:32Z</time>
      </trkpt>
      <trkpt lat="44.1411" lon="3.98958">
        <ele>520.21</ele>
        <time>2022-08-10T09:28:46Z</time>
      </trkpt>
      <trkpt lat="44.14109" lon="3.98959">
        <ele>519.73</ele>
        <time>2022-08-10T09:28:48Z</time>
      </trkpt>
      <trkpt lat="44.14099" lon="3.98976">
        <ele>515.4</ele>
        <time>2022-08-10T09:29:04Z</time>
      </trkpt>
      <trkpt lat="44.14089" lon="3.98995">
        <ele>512.04</ele>
        <time>2022-08-10T09:29:19Z</time>
      </trkpt>
      <trkpt lat="44.14088" lon="3.98996">
        <ele>511.56</ele>
        <time>2022-08-10T09:29:20Z</time>
      </trkpt>
      <trkpt lat="44.14082" lon="3.99007">
        <ele>511.08</ele>
        <time>2022-08-10T09:29:26Z</time>
      </trkpt>
      <trkpt lat="44.14076" lon="3.99027">
        <ele>511.56</ele>
        <time>2022-08-10T09:29:38Z</time>
      </trkpt>
      <trkpt lat="44.1407" lon="3.9905">
        <ele>510.12</ele>
        <time>2022-08-10T09:29:54Z</time>
      </trkpt>
      <trkpt lat="44.14061" lon="3.9907">
        <ele>506.75</ele>
        <time>2022-08-10T09:30:10Z</time>
      </trkpt>
      <trkpt lat="44.14053" lon="3.99092">
        <ele>503.87</ele>
        <time>2022-08-10T09:30:25Z</time>
      </trkpt>
      <trkpt lat="44.14042" lon="3.9911">
        <ele>501.46</ele>
        <time>2022-08-10T09:30:40Z</time>
      </trkpt>
      <trkpt lat="44.14035" lon="3.99126">
        <ele>502.91</ele>
        <time>2022-08-10T09:30:52Z</time>
      </trkpt>
      <trkpt lat="44.14031" lon="3.99141">
        <ele>502.43</ele>
        <time>2022-08-10T09:31:02Z</time>
      </trkpt>
      <trkpt lat="44.14027" lon="3.99149">
        <ele>501.46</ele>
        <time>2022-08-10T09:31:08Z</time>
      </trkpt>
      <trkpt lat="44.14024" lon="3.99153">
        <ele>500.98</ele>
        <time>2022-08-10T09:31:11Z</time>
      </trkpt>
      <trkpt lat="44.14023" lon="3.99157">
        <ele>500.98</ele>
        <time>2022-08-10T09:31:14Z</time>
      </trkpt>
      <trkpt lat="44.1401" lon="3.99175">
        <ele>498.58</ele>
        <time>2022-08-10T09:31:30Z</time>
      </trkpt>
      <trkpt lat="44.14003" lon="3.9919">
        <ele>499.54</ele>
        <time>2022-08-10T09:31:43Z</time>
      </trkpt>
      <trkpt lat="44.13992" lon="3.99205">
        <ele>500.02</ele>
        <time>2022-08-10T09:32:00Z</time>
      </trkpt>
      <trkpt lat="44.13981" lon="3.99223">
        <ele>500.02</ele>
        <time>2022-08-10T09:32:15Z</time>
      </trkpt>
      <trkpt lat="44.13974" lon="3.99235">
        <ele>500.02</ele>
        <time>2022-08-10T09:32:28Z</time>
      </trkpt>
      <trkpt lat="44.13965" lon="3.99245">
        <ele>501.95</ele>
        <time>2022-08-10T09:32:44Z</time>
      </trkpt>
      <trkpt lat="44.13954" lon="3.99256">
        <ele>500.98</ele>
        <time>2022-08-10T09:33:00Z</time>
      </trkpt>
      <trkpt lat="44.13948" lon="3.99269">
        <ele>502.43</ele>
        <time>2022-08-10T09:33:14Z</time>
      </trkpt>
      <trkpt lat="44.1394" lon="3.99281">
        <ele>502.43</ele>
        <time>2022-08-10T09:33:29Z</time>
      </trkpt>
      <trkpt lat="44.1393" lon="3.99293">
        <ele>504.35</ele>
        <time>2022-08-10T09:33:43Z</time>
      </trkpt>
      <trkpt lat="44.1392" lon="3.99305">
        <ele>504.83</ele>
        <time>2022-08-10T09:33:57Z</time>
      </trkpt>
      <trkpt lat="44.13912" lon="3.99319">
        <ele>506.75</ele>
        <time>2022-08-10T09:34:12Z</time>
      </trkpt>
      <trkpt lat="44.13902" lon="3.99333">
        <ele>506.75</ele>
        <time>2022-08-10T09:34:27Z</time>
      </trkpt>
      <trkpt lat="44.13895" lon="3.99346">
        <ele>508.67</ele>
        <time>2022-08-10T09:34:40Z</time>
      </trkpt>
      <trkpt lat="44.13886" lon="3.99363">
        <ele>511.08</ele>
        <time>2022-08-10T09:34:56Z</time>
      </trkpt>
      <trkpt lat="44.13877" lon="3.9938">
        <ele>512.52</ele>
        <time>2022-08-10T09:35:12Z</time>
      </trkpt>
      <trkpt lat="44.13871" lon="3.99398">
        <ele>513.96</ele>
        <time>2022-08-10T09:35:26Z</time>
      </trkpt>
      <trkpt lat="44.13866" lon="3.99416">
        <ele>514.44</ele>
        <time>2022-08-10T09:35:41Z</time>
      </trkpt>
      <trkpt lat="44.13863" lon="3.9943">
        <ele>515.88</ele>
        <time>2022-08-10T09:35:53Z</time>
      </trkpt>
      <trkpt lat="44.13862" lon="3.99431">
        <ele>515.88</ele>
        <time>2022-08-10T09:35:54Z</time>
      </trkpt>
      <trkpt lat="44.13855" lon="3.99446">
        <ele>517.81</ele>
        <time>2022-08-10T09:36:09Z</time>
      </trkpt>
      <trkpt lat="44.13852" lon="3.99467">
        <ele>516.85</ele>
        <time>2022-08-10T09:36:24Z</time>
      </trkpt>
      <trkpt lat="44.13851" lon="3.99485">
        <ele>515.4</ele>
        <time>2022-08-10T09:36:38Z</time>
      </trkpt>
      <trkpt lat="44.13848" lon="3.99501">
        <ele>515.88</ele>
        <time>2022-08-10T09:36:50Z</time>
      </trkpt>
      <trkpt lat="44.13841" lon="3.99518">
        <ele>515.88</ele>
        <time>2022-08-10T09:37:04Z</time>
      </trkpt>
      <trkpt lat="44.13833" lon="3.99535">
        <ele>517.33</ele>
        <time>2022-08-10T09:37:19Z</time>
      </trkpt>
      <trkpt lat="44.13822" lon="3.99547">
        <ele>518.29</ele>
        <time>2022-08-10T09:37:34Z</time>
      </trkpt>
      <trkpt lat="44.13814" lon="3.9956">
        <ele>518.29</ele>
        <time>2022-08-10T09:37:48Z</time>
      </trkpt>
      <trkpt lat="44.13808" lon="3.99578">
        <ele>519.73</ele>
        <time>2022-08-10T09:38:05Z</time>
      </trkpt>
      <trkpt lat="44.13799" lon="3.99592">
        <ele>522.61</ele>
        <time>2022-08-10T09:38:21Z</time>
      </trkpt>
      <trkpt lat="44.13791" lon="3.99604">
        <ele>524.54</ele>
        <time>2022-08-10T09:38:35Z</time>
      </trkpt>
      <trkpt lat="44.13782" lon="3.99619">
        <ele>525.5</ele>
        <time>2022-08-10T09:38:49Z</time>
      </trkpt>
      <trkpt lat="44.13774" lon="3.9964">
        <ele>526.46</ele>
        <time>2022-08-10T09:39:04Z</time>
      </trkpt>
      <trkpt lat="44.13772" lon="3.99656">
        <ele>527.42</ele>
        <time>2022-08-10T09:39:18Z</time>
      </trkpt>
      <trkpt lat="44.13772" lon="3.99672">
        <ele>528.38</ele>
        <time>2022-08-10T09:39:31Z</time>
      </trkpt>
      <trkpt lat="44.13772" lon="3.99693">
        <ele>528.86</ele>
        <time>2022-08-10T09:39:46Z</time>
      </trkpt>
      <trkpt lat="44.13775" lon="3.99711">
        <ele>529.82</ele>
        <time>2022-08-10T09:39:59Z</time>
      </trkpt>
      <trkpt lat="44.13776" lon="3.99727">
        <ele>528.86</ele>
        <time>2022-08-10T09:40:13Z</time>
      </trkpt>
      <trkpt lat="44.13774" lon="3.99744">
        <ele>527.9</ele>
        <time>2022-08-10T09:40:27Z</time>
      </trkpt>
      <trkpt lat="44.13774" lon="3.99762">
        <ele>526.46</ele>
        <time>2022-08-10T09:40:41Z</time>
      </trkpt>
      <trkpt lat="44.13775" lon="3.99781">
        <ele>528.38</ele>
        <time>2022-08-10T09:40:53Z</time>
      </trkpt>
      <trkpt lat="44.13776" lon="3.99788">
        <ele>528.86</ele>
        <time>2022-08-10T09:40:58Z</time>
      </trkpt>
      <trkpt lat="44.13778" lon="3.99815">
        <ele>528.86</ele>
        <time>2022-08-10T09:41:14Z</time>
      </trkpt>
      <trkpt lat="44.13778" lon="3.99821">
        <ele>527.9</ele>
        <time>2022-08-10T09:41:18Z</time>
      </trkpt>
      <trkpt lat="44.13779" lon="3.99846">
        <ele>525.98</ele>
        <time>2022-08-10T09:41:33Z</time>
      </trkpt>
      <trkpt lat="44.13779" lon="3.99864">
        <ele>525.98</ele>
        <time>2022-08-10T09:41:45Z</time>
      </trkpt>
      <trkpt lat="44.13781" lon="3.99883">
        <ele>526.94</ele>
        <time>2022-08-10T09:41:59Z</time>
      </trkpt>
      <trkpt lat="44.13779" lon="3.99906">
        <ele>525.5</ele>
        <time>2022-08-10T09:42:14Z</time>
      </trkpt>
      <trkpt lat="44.13779" lon="3.99923">
        <ele>523.58</ele>
        <time>2022-08-10T09:42:26Z</time>
      </trkpt>
      <trkpt lat="44.13777" lon="3.99941">
        <ele>523.09</ele>
        <time>2022-08-10T09:42:36Z</time>
      </trkpt>
      <trkpt lat="44.13773" lon="3.99962">
        <ele>524.06</ele>
        <time>2022-08-10T09:42:50Z</time>
      </trkpt>
      <trkpt lat="44.13776" lon="3.99974">
        <ele>525.5</ele>
        <time>2022-08-10T09:43:05Z</time>
      </trkpt>
      <trkpt lat="44.13778" lon="3.99989">
        <ele>525.98</ele>
        <time>2022-08-10T09:43:16Z</time>
      </trkpt>
      <trkpt lat="44.13777" lon="4.00007">
        <ele>525.02</ele>
        <time>2022-08-10T09:43:30Z</time>
      </trkpt>
      <trkpt lat="44.13777" lon="4.0002">
        <ele>526.46</ele>
        <time>2022-08-10T09:43:41Z</time>
      </trkpt>
      <trkpt lat="44.13774" lon="4.00037">
        <ele>527.42</ele>
        <time>2022-08-10T09:43:56Z</time>
      </trkpt>
      <trkpt lat="44.13769" lon="4.00041">
        <ele>528.86</ele>
        <time>2022-08-10T09:44:12Z</time>
      </trkpt>
      <trkpt lat="44.13762" lon="4.00052">
        <ele>528.86</ele>
        <time>2022-08-10T09:44:26Z</time>
      </trkpt>
      <trkpt lat="44.1376" lon="4.00065">
        <ele>530.79</ele>
        <time>2022-08-10T09:44:39Z</time>
      </trkpt>
      <trkpt lat="44.13755" lon="4.00077">
        <ele>533.67</ele>
        <time>2022-08-10T09:44:53Z</time>
      </trkpt>
      <trkpt lat="44.13751" lon="4.00084">
        <ele>534.15</ele>
        <time>2022-08-10T09:45:07Z</time>
      </trkpt>
      <trkpt lat="44.13748" lon="4.00099">
        <ele>536.55</ele>
        <time>2022-08-10T09:45:22Z</time>
      </trkpt>
      <trkpt lat="44.13747" lon="4.00114">
        <ele>537.03</ele>
        <time>2022-08-10T09:45:36Z</time>
      </trkpt>
      <trkpt lat="44.13742" lon="4.00128">
        <ele>538.48</ele>
        <time>2022-08-10T09:45:51Z</time>
      </trkpt>
      <trkpt lat="44.13736" lon="4.0014">
        <ele>539.44</ele>
        <time>2022-08-10T09:46:05Z</time>
      </trkpt>
      <trkpt lat="44.13733" lon="4.00153">
        <ele>540.88</ele>
        <time>2022-08-10T09:46:18Z</time>
      </trkpt>
      <trkpt lat="44.13726" lon="4.00169">
        <ele>541.36</ele>
        <time>2022-08-10T09:46:32Z</time>
      </trkpt>
      <trkpt lat="44.13719" lon="4.00185">
        <ele>541.36</ele>
        <time>2022-08-10T09:46:47Z</time>
      </trkpt>
      <trkpt lat="44.13711" lon="4.00195">
        <ele>541.84</ele>
        <time>2022-08-10T09:47:01Z</time>
      </trkpt>
      <trkpt lat="44.13704" lon="4.00211">
        <ele>542.32</ele>
        <time>2022-08-10T09:47:14Z</time>
      </trkpt>
      <trkpt lat="44.13695" lon="4.00224">
        <ele>540.4</ele>
        <time>2022-08-10T09:47:29Z</time>
      </trkpt>
      <trkpt lat="44.13687" lon="4.00234">
        <ele>537.51</ele>
        <time>2022-08-10T09:47:42Z</time>
      </trkpt>
      <trkpt lat="44.13685" lon="4.00246">
        <ele>536.07</ele>
        <time>2022-08-10T09:47:53Z</time>
      </trkpt>
      <trkpt lat="44.13685" lon="4.00261">
        <ele>533.67</ele>
        <time>2022-08-10T09:48:07Z</time>
      </trkpt>
      <trkpt lat="44.13685" lon="4.00277">
        <ele>532.71</ele>
        <time>2022-08-10T09:48:20Z</time>
      </trkpt>
      <trkpt lat="44.13684" lon="4.00285">
        <ele>534.15</ele>
        <time>2022-08-10T09:48:37Z</time>
      </trkpt>
      <trkpt lat="44.13685" lon="4.0029">
        <ele>538.96</ele>
        <time>2022-08-10T09:49:01Z</time>
      </trkpt>
      <trkpt lat="44.13685" lon="4.0029">
        <ele>541.36</ele>
        <time>2022-08-10T09:49:30Z</time>
      </trkpt>
      <trkpt lat="44.13683" lon="4.00293">
        <ele>541.84</ele>
        <time>2022-08-10T09:49:54Z</time>
      </trkpt>
      <trkpt lat="44.13681" lon="4.00299">
        <ele>539.92</ele>
        <time>2022-08-10T09:50:08Z</time>
      </trkpt>
      <trkpt lat="44.13678" lon="4.00301">
        <ele>537.51</ele>
        <time>2022-08-10T09:50:19Z</time>
      </trkpt>
      <trkpt lat="44.13677" lon="4.00304">
        <ele>536.07</ele>
        <time>2022-08-10T09:50:30Z</time>
      </trkpt>
      <trkpt lat="44.13674" lon="4.00307">
        <ele>533.67</ele>
        <time>2022-08-10T09:50:47Z</time>
      </trkpt>
      <trkpt lat="44.13677" lon="4.00312">
        <ele>528.86</ele>
        <time>2022-08-10T09:51:01Z</time>
      </trkpt>
      <trkpt lat="44.13675" lon="4.00324">
        <ele>526.46</ele>
        <time>2022-08-10T09:51:15Z</time>
      </trkpt>
      <trkpt lat="44.13672" lon="4.00338">
        <ele>525.02</ele>
        <time>2022-08-10T09:51:30Z</time>
      </trkpt>
      <trkpt lat="44.1367" lon="4.00343">
        <ele>525.5</ele>
        <time>2022-08-10T09:51:43Z</time>
      </trkpt>
      <trkpt lat="44.13668" lon="4.00346">
        <ele>522.13</ele>
        <time>2022-08-10T09:51:56Z</time>
      </trkpt>
      <trkpt lat="44.13661" lon="4.00348">
        <ele>516.85</ele>
        <time>2022-08-10T09:52:10Z</time>
      </trkpt>
      <trkpt lat="44.13658" lon="4.00353">
        <ele>513.48</ele>
        <time>2022-08-10T09:52:24Z</time>
      </trkpt>
      <trkpt lat="44.13656" lon="4.00363">
        <ele>512.04</ele>
        <time>2022-08-10T09:52:37Z</time>
      </trkpt>
      <trkpt lat="44.13654" lon="4.00367">
        <ele>512.52</ele>
        <time>2022-08-10T09:52:53Z</time>
      </trkpt>
      <trkpt lat="44.13653" lon="4.00374">
        <ele>512.04</ele>
        <time>2022-08-10T09:53:09Z</time>
      </trkpt>
      <trkpt lat="44.13649" lon="4.00376">
        <ele>509.16</ele>
        <time>2022-08-10T09:53:21Z</time>
      </trkpt>
      <trkpt lat="44.13651" lon="4.00387">
        <ele>505.79</ele>
        <time>2022-08-10T09:53:35Z</time>
      </trkpt>
      <trkpt lat="44.13648" lon="4.00398">
        <ele>504.35</ele>
        <time>2022-08-10T09:53:48Z</time>
      </trkpt>
      <trkpt lat="44.13645" lon="4.00409">
        <ele>502.91</ele>
        <time>2022-08-10T09:54:01Z</time>
      </trkpt>
      <trkpt lat="44.13641" lon="4.00416">
        <ele>501.46</ele>
        <time>2022-08-10T09:54:14Z</time>
      </trkpt>
      <trkpt lat="44.13636" lon="4.00429">
        <ele>497.62</ele>
        <time>2022-08-10T09:54:29Z</time>
      </trkpt>
      <trkpt lat="44.13632" lon="4.00446">
        <ele>495.7</ele>
        <time>2022-08-10T09:54:43Z</time>
      </trkpt>
      <trkpt lat="44.13626" lon="4.00464">
        <ele>493.77</ele>
        <time>2022-08-10T09:54:58Z</time>
      </trkpt>
      <trkpt lat="44.13622" lon="4.0047">
        <ele>491.85</ele>
        <time>2022-08-10T09:55:06Z</time>
      </trkpt>
      <trkpt lat="44.13614" lon="4.00484">
        <ele>490.41</ele>
        <time>2022-08-10T09:55:19Z</time>
      </trkpt>
      <trkpt lat="44.1361" lon="4.00493">
        <ele>488.97</ele>
        <time>2022-08-10T09:55:32Z</time>
      </trkpt>
      <trkpt lat="44.13605" lon="4.00505">
        <ele>487.05</ele>
        <time>2022-08-10T09:55:44Z</time>
      </trkpt>
      <trkpt lat="44.136" lon="4.00514">
        <ele>486.08</ele>
        <time>2022-08-10T09:56:01Z</time>
      </trkpt>
      <trkpt lat="44.136" lon="4.00519">
        <ele>484.16</ele>
        <time>2022-08-10T09:56:08Z</time>
      </trkpt>
      <trkpt lat="44.13599" lon="4.00523">
        <ele>483.68</ele>
        <time>2022-08-10T09:56:10Z</time>
      </trkpt>
      <trkpt lat="44.136" lon="4.00526">
        <ele>483.68</ele>
        <time>2022-08-10T09:56:12Z</time>
      </trkpt>
      <trkpt lat="44.136" lon="4.00553">
        <ele>482.24</ele>
        <time>2022-08-10T09:56:26Z</time>
      </trkpt>
      <trkpt lat="44.136" lon="4.00578">
        <ele>481.76</ele>
        <time>2022-08-10T09:56:41Z</time>
      </trkpt>
      <trkpt lat="44.13602" lon="4.00599">
        <ele>479.35</ele>
        <time>2022-08-10T09:56:55Z</time>
      </trkpt>
      <trkpt lat="44.136" lon="4.00615">
        <ele>479.84</ele>
        <time>2022-08-10T09:57:05Z</time>
      </trkpt>
      <trkpt lat="44.13601" lon="4.00628">
        <ele>480.32</ele>
        <time>2022-08-10T09:57:13Z</time>
      </trkpt>
      <trkpt lat="44.136" lon="4.00635">
        <ele>479.84</ele>
        <time>2022-08-10T09:57:18Z</time>
      </trkpt>
      <trkpt lat="44.13602" lon="4.00658">
        <ele>476.95</ele>
        <time>2022-08-10T09:57:34Z</time>
      </trkpt>
      <trkpt lat="44.13605" lon="4.00683">
        <ele>475.51</ele>
        <time>2022-08-10T09:57:49Z</time>
      </trkpt>
      <trkpt lat="44.13602" lon="4.00705">
        <ele>474.55</ele>
        <time>2022-08-10T09:58:03Z</time>
      </trkpt>
      <trkpt lat="44.13596" lon="4.00725">
        <ele>472.63</ele>
        <time>2022-08-10T09:58:18Z</time>
      </trkpt>
      <trkpt lat="44.13588" lon="4.00745">
        <ele>469.74</ele>
        <time>2022-08-10T09:58:34Z</time>
      </trkpt>
      <trkpt lat="44.13587" lon="4.00749">
        <ele>469.74</ele>
        <time>2022-08-10T09:58:37Z</time>
      </trkpt>
      <trkpt lat="44.13583" lon="4.00764">
        <ele>469.26</ele>
        <time>2022-08-10T09:58:47Z</time>
      </trkpt>
      <trkpt lat="44.13577" lon="4.00776">
        <ele>470.22</ele>
        <time>2022-08-10T09:58:56Z</time>
      </trkpt>
      <trkpt lat="44.13563" lon="4.00794">
        <ele>468.78</ele>
        <time>2022-08-10T09:59:13Z</time>
      </trkpt>
      <trkpt lat="44.13555" lon="4.00806">
        <ele>466.86</ele>
        <time>2022-08-10T09:59:24Z</time>
      </trkpt>
      <trkpt lat="44.1354" lon="4.0082">
        <ele>463.97</ele>
        <time>2022-08-10T09:59:40Z</time>
      </trkpt>
      <trkpt lat="44.13532" lon="4.00832">
        <ele>458.21</ele>
        <time>2022-08-10T09:59:55Z</time>
      </trkpt>
      <trkpt lat="44.13531" lon="4.00859">
        <ele>451.96</ele>
        <time>2022-08-10T10:00:12Z</time>
      </trkpt>
      <trkpt lat="44.1353" lon="4.00866">
        <ele>450.52</ele>
        <time>2022-08-10T10:00:16Z</time>
      </trkpt>
      <trkpt lat="44.13523" lon="4.00892">
        <ele>456.28</ele>
        <time>2022-08-10T10:00:31Z</time>
      </trkpt>
      <trkpt lat="44.13524" lon="4.00901">
        <ele>459.65</ele>
        <time>2022-08-10T10:00:38Z</time>
      </trkpt>
      <trkpt lat="44.13526" lon="4.0092">
        <ele>461.57</ele>
        <time>2022-08-10T10:00:52Z</time>
      </trkpt>
      <trkpt lat="44.13526" lon="4.00921">
        <ele>461.57</ele>
        <time>2022-08-10T10:00:53Z</time>
      </trkpt>
      <trkpt lat="44.13527" lon="4.0094">
        <ele>462.05</ele>
        <time>2022-08-10T10:01:10Z</time>
      </trkpt>
      <trkpt lat="44.13532" lon="4.00961">
        <ele>463.01</ele>
        <time>2022-08-10T10:01:27Z</time>
      </trkpt>
      <trkpt lat="44.13543" lon="4.00981">
        <ele>465.42</ele>
        <time>2022-08-10T10:01:43Z</time>
      </trkpt>
      <trkpt lat="44.13546" lon="4.00988">
        <ele>465.42</ele>
        <time>2022-08-10T10:01:49Z</time>
      </trkpt>
      <trkpt lat="44.1355" lon="4.01005">
        <ele>464.45</ele>
        <time>2022-08-10T10:02:06Z</time>
      </trkpt>
      <trkpt lat="44.13554" lon="4.01026">
        <ele>467.34</ele>
        <time>2022-08-10T10:02:21Z</time>
      </trkpt>
      <trkpt lat="44.13563" lon="4.01044">
        <ele>467.82</ele>
        <time>2022-08-10T10:02:36Z</time>
      </trkpt>
      <trkpt lat="44.13571" lon="4.01065">
        <ele>466.86</ele>
        <time>2022-08-10T10:02:53Z</time>
      </trkpt>
      <trkpt lat="44.1358" lon="4.01081">
        <ele>469.74</ele>
        <time>2022-08-10T10:03:09Z</time>
      </trkpt>
      <trkpt lat="44.13583" lon="4.01086">
        <ele>471.66</ele>
        <time>2022-08-10T10:03:14Z</time>
      </trkpt>
      <trkpt lat="44.13593" lon="4.011">
        <ele>477.43</ele>
        <time>2022-08-10T10:03:32Z</time>
      </trkpt>
      <trkpt lat="44.13595" lon="4.01103">
        <ele>481.76</ele>
        <time>2022-08-10T10:03:54Z</time>
      </trkpt>
      <trkpt lat="44.136" lon="4.01125">
        <ele>483.2</ele>
        <time>2022-08-10T10:04:10Z</time>
      </trkpt>
      <trkpt lat="44.136" lon="4.01145">
        <ele>485.12</ele>
        <time>2022-08-10T10:04:23Z</time>
      </trkpt>
      <trkpt lat="44.13593" lon="4.0116">
        <ele>487.05</ele>
        <time>2022-08-10T10:04:37Z</time>
      </trkpt>
      <trkpt lat="44.13583" lon="4.01175">
        <ele>487.53</ele>
        <time>2022-08-10T10:04:52Z</time>
      </trkpt>
      <trkpt lat="44.13581" lon="4.01178">
        <ele>487.53</ele>
        <time>2022-08-10T10:04:55Z</time>
      </trkpt>
      <trkpt lat="44.13575" lon="4.01195">
        <ele>489.45</ele>
        <time>2022-08-10T10:05:09Z</time>
      </trkpt>
      <trkpt lat="44.13572" lon="4.01213">
        <ele>490.89</ele>
        <time>2022-08-10T10:05:24Z</time>
      </trkpt>
      <trkpt lat="44.13565" lon="4.01225">
        <ele>490.89</ele>
        <time>2022-08-10T10:05:37Z</time>
      </trkpt>
      <trkpt lat="44.13552" lon="4.0123">
        <ele>493.77</ele>
        <time>2022-08-10T10:05:51Z</time>
      </trkpt>
      <trkpt lat="44.13536" lon="4.01234">
        <ele>496.18</ele>
        <time>2022-08-10T10:06:07Z</time>
      </trkpt>
      <trkpt lat="44.13535" lon="4.01236">
        <ele>496.66</ele>
        <time>2022-08-10T10:06:09Z</time>
      </trkpt>
      <trkpt lat="44.13529" lon="4.01244">
        <ele>497.14</ele>
        <time>2022-08-10T10:06:17Z</time>
      </trkpt>
      <trkpt lat="44.13516" lon="4.01256">
        <ele>498.1</ele>
        <time>2022-08-10T10:06:31Z</time>
      </trkpt>
      <trkpt lat="44.13501" lon="4.01266">
        <ele>500.02</ele>
        <time>2022-08-10T10:06:46Z</time>
      </trkpt>
      <trkpt lat="44.13493" lon="4.01282">
        <ele>502.43</ele>
        <time>2022-08-10T10:07:00Z</time>
      </trkpt>
      <trkpt lat="44.13482" lon="4.01299">
        <ele>506.75</ele>
        <time>2022-08-10T10:07:17Z</time>
      </trkpt>
      <trkpt lat="44.13473" lon="4.01315">
        <ele>509.64</ele>
        <time>2022-08-10T10:07:33Z</time>
      </trkpt>
      <trkpt lat="44.13463" lon="4.01335">
        <ele>511.56</ele>
        <time>2022-08-10T10:07:49Z</time>
      </trkpt>
      <trkpt lat="44.1345" lon="4.01344">
        <ele>510.6</ele>
        <time>2022-08-10T10:08:03Z</time>
      </trkpt>
      <trkpt lat="44.13441" lon="4.01362">
        <ele>513</ele>
        <time>2022-08-10T10:08:17Z</time>
      </trkpt>
      <trkpt lat="44.13428" lon="4.0137">
        <ele>517.33</ele>
        <time>2022-08-10T10:08:32Z</time>
      </trkpt>
      <trkpt lat="44.13413" lon="4.01369">
        <ele>518.77</ele>
        <time>2022-08-10T10:08:47Z</time>
      </trkpt>
      <trkpt lat="44.13413" lon="4.01372">
        <ele>519.73</ele>
        <time>2022-08-10T10:08:50Z</time>
      </trkpt>
      <trkpt lat="44.134" lon="4.01387">
        <ele>523.58</ele>
        <time>2022-08-10T10:09:06Z</time>
      </trkpt>
      <trkpt lat="44.13386" lon="4.01403">
        <ele>525.02</ele>
        <time>2022-08-10T10:09:21Z</time>
      </trkpt>
      <trkpt lat="44.13374" lon="4.01415">
        <ele>525.98</ele>
        <time>2022-08-10T10:09:34Z</time>
      </trkpt>
      <trkpt lat="44.13357" lon="4.0143">
        <ele>526.46</ele>
        <time>2022-08-10T10:09:51Z</time>
      </trkpt>
      <trkpt lat="44.13351" lon="4.01451">
        <ele>526.94</ele>
        <time>2022-08-10T10:10:06Z</time>
      </trkpt>
      <trkpt lat="44.13354" lon="4.01456">
        <ele>526.94</ele>
        <time>2022-08-10T10:10:10Z</time>
      </trkpt>
      <trkpt lat="44.13355" lon="4.0146">
        <ele>526.46</ele>
        <time>2022-08-10T10:10:13Z</time>
      </trkpt>
      <trkpt lat="44.13372" lon="4.01479">
        <ele>527.42</ele>
        <time>2022-08-10T10:10:30Z</time>
      </trkpt>
      <trkpt lat="44.13384" lon="4.01488">
        <ele>527.42</ele>
        <time>2022-08-10T10:10:42Z</time>
      </trkpt>
      <trkpt lat="44.13391" lon="4.01496">
        <ele>527.42</ele>
        <time>2022-08-10T10:10:51Z</time>
      </trkpt>
      <trkpt lat="44.13398" lon="4.01505">
        <ele>528.86</ele>
        <time>2022-08-10T10:11:01Z</time>
      </trkpt>
      <trkpt lat="44.13402" lon="4.01509">
        <ele>528.38</ele>
        <time>2022-08-10T10:11:05Z</time>
      </trkpt>
      <trkpt lat="44.1341" lon="4.01512">
        <ele>527.42</ele>
        <time>2022-08-10T10:11:09Z</time>
      </trkpt>
      <trkpt lat="44.13413" lon="4.01515">
        <ele>525.98</ele>
        <time>2022-08-10T10:11:12Z</time>
      </trkpt>
      <trkpt lat="44.13421" lon="4.01525">
        <ele>526.46</ele>
        <time>2022-08-10T10:11:20Z</time>
      </trkpt>
      <trkpt lat="44.13436" lon="4.01543">
        <ele>527.42</ele>
        <time>2022-08-10T10:11:35Z</time>
      </trkpt>
      <trkpt lat="44.13443" lon="4.01561">
        <ele>528.38</ele>
        <time>2022-08-10T10:11:48Z</time>
      </trkpt>
      <trkpt lat="44.13447" lon="4.01573">
        <ele>526.46</ele>
        <time>2022-08-10T10:11:57Z</time>
      </trkpt>
      <trkpt lat="44.13452" lon="4.01596">
        <ele>523.58</ele>
        <time>2022-08-10T10:12:11Z</time>
      </trkpt>
      <trkpt lat="44.13455" lon="4.01619">
        <ele>521.17</ele>
        <time>2022-08-10T10:12:25Z</time>
      </trkpt>
      <trkpt lat="44.13457" lon="4.01646">
        <ele>520.21</ele>
        <time>2022-08-10T10:12:40Z</time>
      </trkpt>
      <trkpt lat="44.13457" lon="4.01667">
        <ele>516.37</ele>
        <time>2022-08-10T10:12:54Z</time>
      </trkpt>
      <trkpt lat="44.13459" lon="4.01687">
        <ele>516.85</ele>
        <time>2022-08-10T10:13:05Z</time>
      </trkpt>
      <trkpt lat="44.13462" lon="4.01697">
        <ele>518.29</ele>
        <time>2022-08-10T10:13:12Z</time>
      </trkpt>
      <trkpt lat="44.13459" lon="4.01709">
        <ele>519.25</ele>
        <time>2022-08-10T10:13:28Z</time>
      </trkpt>
      <trkpt lat="44.13463" lon="4.0171">
        <ele>518.29</ele>
        <time>2022-08-10T10:13:44Z</time>
      </trkpt>
      <trkpt lat="44.13464" lon="4.01714">
        <ele>518.29</ele>
        <time>2022-08-10T10:13:48Z</time>
      </trkpt>
      <trkpt lat="44.13463" lon="4.01725">
        <ele>519.73</ele>
        <time>2022-08-10T10:13:56Z</time>
      </trkpt>
      <trkpt lat="44.13458" lon="4.01729">
        <ele>519.25</ele>
        <time>2022-08-10T10:14:02Z</time>
      </trkpt>
      <trkpt lat="44.13453" lon="4.01749">
        <ele>521.17</ele>
        <time>2022-08-10T10:14:18Z</time>
      </trkpt>
      <trkpt lat="44.1345" lon="4.01764">
        <ele>524.06</ele>
        <time>2022-08-10T10:14:31Z</time>
      </trkpt>
      <trkpt lat="44.13444" lon="4.01779">
        <ele>527.42</ele>
        <time>2022-08-10T10:14:46Z</time>
      </trkpt>
      <trkpt lat="44.13443" lon="4.01792">
        <ele>530.79</ele>
        <time>2022-08-10T10:14:58Z</time>
      </trkpt>
      <trkpt lat="44.13437" lon="4.01804">
        <ele>530.3</ele>
        <time>2022-08-10T10:15:09Z</time>
      </trkpt>
      <trkpt lat="44.13433" lon="4.01818">
        <ele>530.3</ele>
        <time>2022-08-10T10:15:22Z</time>
      </trkpt>
      <trkpt lat="44.13433" lon="4.01835">
        <ele>533.67</ele>
        <time>2022-08-10T10:15:38Z</time>
      </trkpt>
      <trkpt lat="44.13436" lon="4.01844">
        <ele>536.55</ele>
        <time>2022-08-10T10:15:53Z</time>
      </trkpt>
      <trkpt lat="44.13436" lon="4.01854">
        <ele>539.44</ele>
        <time>2022-08-10T10:16:07Z</time>
      </trkpt>
      <trkpt lat="44.13436" lon="4.01859">
        <ele>540.88</ele>
        <time>2022-08-10T10:16:14Z</time>
      </trkpt>
      <trkpt lat="44.13436" lon="4.01868">
        <ele>542.8</ele>
        <time>2022-08-10T10:16:21Z</time>
      </trkpt>
      <trkpt lat="44.13435" lon="4.01873">
        <ele>541.84</ele>
        <time>2022-08-10T10:16:25Z</time>
      </trkpt>
      <trkpt lat="44.13439" lon="4.01883">
        <ele>540.4</ele>
        <time>2022-08-10T10:16:33Z</time>
      </trkpt>
      <trkpt lat="44.13448" lon="4.01896">
        <ele>541.84</ele>
        <time>2022-08-10T10:16:48Z</time>
      </trkpt>
      <trkpt lat="44.13448" lon="4.01896">
        <ele>543.28</ele>
        <time>2022-08-10T10:17:04Z</time>
      </trkpt>
      <trkpt lat="44.13448" lon="4.01895">
        <ele>544.72</ele>
        <time>2022-08-10T10:17:27Z</time>
      </trkpt>
      <trkpt lat="44.13448" lon="4.01895">
        <ele>543.76</ele>
        <time>2022-08-10T10:17:42Z</time>
      </trkpt>
      <trkpt lat="44.13446" lon="4.01897">
        <ele>542.32</ele>
        <time>2022-08-10T10:17:49Z</time>
      </trkpt>
      <trkpt lat="44.1344" lon="4.019">
        <ele>540.88</ele>
        <time>2022-08-10T10:17:56Z</time>
      </trkpt>
      <trkpt lat="44.13434" lon="4.01911">
        <ele>540.88</ele>
        <time>2022-08-10T10:18:12Z</time>
      </trkpt>
      <trkpt lat="44.13431" lon="4.0192">
        <ele>540.4</ele>
        <time>2022-08-10T10:18:28Z</time>
      </trkpt>
      <trkpt lat="44.13429" lon="4.01928">
        <ele>540.88</ele>
        <time>2022-08-10T10:18:35Z</time>
      </trkpt>
      <trkpt lat="44.13425" lon="4.01942">
        <ele>541.84</ele>
        <time>2022-08-10T10:18:46Z</time>
      </trkpt>
      <trkpt lat="44.13424" lon="4.01956">
        <ele>543.28</ele>
        <time>2022-08-10T10:18:57Z</time>
      </trkpt>
      <trkpt lat="44.13419" lon="4.01971">
        <ele>545.2</ele>
        <time>2022-08-10T10:19:11Z</time>
      </trkpt>
      <trkpt lat="44.13415" lon="4.01976">
        <ele>545.69</ele>
        <time>2022-08-10T10:19:17Z</time>
      </trkpt>
      <trkpt lat="44.13412" lon="4.01996">
        <ele>546.65</ele>
        <time>2022-08-10T10:19:32Z</time>
      </trkpt>
      <trkpt lat="44.13411" lon="4.01998">
        <ele>546.65</ele>
        <time>2022-08-10T10:19:34Z</time>
      </trkpt>
      <trkpt lat="44.1341" lon="4.02007">
        <ele>547.61</ele>
        <time>2022-08-10T10:19:41Z</time>
      </trkpt>
      <trkpt lat="44.13404" lon="4.02016">
        <ele>549.05</ele>
        <time>2022-08-10T10:19:50Z</time>
      </trkpt>
      <trkpt lat="44.13404" lon="4.0202">
        <ele>549.53</ele>
        <time>2022-08-10T10:19:52Z</time>
      </trkpt>
      <trkpt lat="44.13403" lon="4.02036">
        <ele>551.45</ele>
        <time>2022-08-10T10:20:06Z</time>
      </trkpt>
      <trkpt lat="44.13404" lon="4.02046">
        <ele>551.93</ele>
        <time>2022-08-10T10:20:15Z</time>
      </trkpt>
      <trkpt lat="44.13392" lon="4.02057">
        <ele>552.9</ele>
        <time>2022-08-10T10:20:30Z</time>
      </trkpt>
      <trkpt lat="44.13392" lon="4.02057">
        <ele>552.9</ele>
        <time>2022-08-10T10:20:31Z</time>
      </trkpt>
      <trkpt lat="44.13378" lon="4.02061">
        <ele>550.97</ele>
        <time>2022-08-10T10:20:45Z</time>
      </trkpt>
      <trkpt lat="44.13367" lon="4.02072">
        <ele>553.86</ele>
        <time>2022-08-10T10:20:59Z</time>
      </trkpt>
      <trkpt lat="44.13358" lon="4.02078">
        <ele>554.82</ele>
        <time>2022-08-10T10:21:11Z</time>
      </trkpt>
      <trkpt lat="44.13357" lon="4.02085">
        <ele>555.78</ele>
        <time>2022-08-10T10:21:23Z</time>
      </trkpt>
      <trkpt lat="44.13355" lon="4.02086">
        <ele>555.78</ele>
        <time>2022-08-10T10:21:25Z</time>
      </trkpt>
      <trkpt lat="44.13347" lon="4.02102">
        <ele>559.14</ele>
        <time>2022-08-10T10:21:41Z</time>
      </trkpt>
      <trkpt lat="44.13346" lon="4.02122">
        <ele>561.55</ele>
        <time>2022-08-10T10:21:56Z</time>
      </trkpt>
      <trkpt lat="44.13347" lon="4.02132">
        <ele>562.51</ele>
        <time>2022-08-10T10:22:03Z</time>
      </trkpt>
      <trkpt lat="44.13348" lon="4.02135">
        <ele>562.99</ele>
        <time>2022-08-10T10:22:06Z</time>
      </trkpt>
      <trkpt lat="44.13355" lon="4.02139">
        <ele>562.51</ele>
        <time>2022-08-10T10:22:18Z</time>
      </trkpt>
      <trkpt lat="44.13356" lon="4.02138">
        <ele>562.03</ele>
        <time>2022-08-10T10:22:36Z</time>
      </trkpt>
      <trkpt lat="44.13356" lon="4.02137">
        <ele>563.47</ele>
        <time>2022-08-10T10:23:06Z</time>
      </trkpt>
      <trkpt lat="44.13356" lon="4.02138">
        <ele>563.95</ele>
        <time>2022-08-10T10:23:31Z</time>
      </trkpt>
      <trkpt lat="44.13356" lon="4.0214">
        <ele>560.59</ele>
        <time>2022-08-10T10:23:58Z</time>
      </trkpt>
      <trkpt lat="44.13357" lon="4.02137">
        <ele>564.91</ele>
        <time>2022-08-10T10:24:23Z</time>
      </trkpt>
      <trkpt lat="44.13355" lon="4.02142">
        <ele>565.87</ele>
        <time>2022-08-10T10:24:57Z</time>
      </trkpt>
      <trkpt lat="44.13355" lon="4.02136">
        <ele>565.39</ele>
        <time>2022-08-10T10:25:24Z</time>
      </trkpt>
      <trkpt lat="44.13353" lon="4.02137">
        <ele>563.95</ele>
        <time>2022-08-10T10:25:56Z</time>
      </trkpt>
      <trkpt lat="44.13354" lon="4.02145">
        <ele>563.95</ele>
        <time>2022-08-10T10:26:05Z</time>
      </trkpt>
      <trkpt lat="44.13345" lon="4.02159">
        <ele>564.43</ele>
        <time>2022-08-10T10:26:20Z</time>
      </trkpt>
      <trkpt lat="44.13335" lon="4.0218">
        <ele>564.43</ele>
        <time>2022-08-10T10:26:36Z</time>
      </trkpt>
      <trkpt lat="44.13327" lon="4.02193">
        <ele>564.43</ele>
        <time>2022-08-10T10:26:48Z</time>
      </trkpt>
      <trkpt lat="44.13323" lon="4.02203">
        <ele>563.95</ele>
        <time>2022-08-10T10:27:03Z</time>
      </trkpt>
      <trkpt lat="44.13323" lon="4.02203">
        <ele>563.95</ele>
        <time>2022-08-10T10:27:33Z</time>
      </trkpt>
      <trkpt lat="44.13325" lon="4.02202">
        <ele>562.99</ele>
        <time>2022-08-10T10:27:57Z</time>
      </trkpt>
      <trkpt lat="44.13327" lon="4.02212">
        <ele>562.03</ele>
        <time>2022-08-10T10:28:29Z</time>
      </trkpt>
      <trkpt lat="44.13328" lon="4.0222">
        <ele>561.55</ele>
        <time>2022-08-10T10:28:36Z</time>
      </trkpt>
      <trkpt lat="44.13335" lon="4.02234">
        <ele>560.59</ele>
        <time>2022-08-10T10:28:46Z</time>
      </trkpt>
      <trkpt lat="44.13353" lon="4.02244">
        <ele>559.62</ele>
        <time>2022-08-10T10:29:02Z</time>
      </trkpt>
      <trkpt lat="44.13355" lon="4.02244">
        <ele>559.62</ele>
        <time>2022-08-10T10:29:03Z</time>
      </trkpt>
      <trkpt lat="44.13364" lon="4.02255">
        <ele>558.66</ele>
        <time>2022-08-10T10:29:14Z</time>
      </trkpt>
      <trkpt lat="44.13365" lon="4.02261">
        <ele>559.14</ele>
        <time>2022-08-10T10:29:18Z</time>
      </trkpt>
      <trkpt lat="44.13367" lon="4.02265">
        <ele>559.14</ele>
        <time>2022-08-10T10:29:21Z</time>
      </trkpt>
      <trkpt lat="44.13382" lon="4.02277">
        <ele>557.22</ele>
        <time>2022-08-10T10:29:37Z</time>
      </trkpt>
      <trkpt lat="44.13387" lon="4.02287">
        <ele>556.74</ele>
        <time>2022-08-10T10:29:44Z</time>
      </trkpt>
      <trkpt lat="44.13395" lon="4.02311">
        <ele>557.7</ele>
        <time>2022-08-10T10:30:01Z</time>
      </trkpt>
      <trkpt lat="44.13401" lon="4.02329">
        <ele>556.74</ele>
        <time>2022-08-10T10:30:13Z</time>
      </trkpt>
      <trkpt lat="44.13405" lon="4.02337">
        <ele>556.26</ele>
        <time>2022-08-10T10:30:19Z</time>
      </trkpt>
      <trkpt lat="44.13412" lon="4.02345">
        <ele>554.82</ele>
        <time>2022-08-10T10:30:26Z</time>
      </trkpt>
      <trkpt lat="44.13415" lon="4.02349">
        <ele>555.78</ele>
        <time>2022-08-10T10:30:29Z</time>
      </trkpt>
      <trkpt lat="44.13419" lon="4.02356">
        <ele>556.26</ele>
        <time>2022-08-10T10:30:45Z</time>
      </trkpt>
      <trkpt lat="44.13421" lon="4.02368">
        <ele>554.34</ele>
        <time>2022-08-10T10:30:59Z</time>
      </trkpt>
      <trkpt lat="44.13426" lon="4.0238">
        <ele>550.49</ele>
        <time>2022-08-10T10:31:11Z</time>
      </trkpt>
      <trkpt lat="44.13429" lon="4.02392">
        <ele>546.17</ele>
        <time>2022-08-10T10:31:24Z</time>
      </trkpt>
      <trkpt lat="44.13431" lon="4.02404">
        <ele>543.28</ele>
        <time>2022-08-10T10:31:39Z</time>
      </trkpt>
      <trkpt lat="44.13427" lon="4.02415">
        <ele>541.84</ele>
        <time>2022-08-10T10:31:51Z</time>
      </trkpt>
      <trkpt lat="44.13424" lon="4.02427">
        <ele>539.92</ele>
        <time>2022-08-10T10:32:03Z</time>
      </trkpt>
      <trkpt lat="44.13419" lon="4.02442">
        <ele>537.99</ele>
        <time>2022-08-10T10:32:16Z</time>
      </trkpt>
      <trkpt lat="44.1342" lon="4.02457">
        <ele>535.59</ele>
        <time>2022-08-10T10:32:27Z</time>
      </trkpt>
      <trkpt lat="44.13432" lon="4.02471">
        <ele>527.42</ele>
        <time>2022-08-10T10:32:42Z</time>
      </trkpt>
      <trkpt lat="44.13432" lon="4.02486">
        <ele>524.54</ele>
        <time>2022-08-10T10:32:52Z</time>
      </trkpt>
      <trkpt lat="44.13433" lon="4.02505">
        <ele>523.09</ele>
        <time>2022-08-10T10:33:05Z</time>
      </trkpt>
      <trkpt lat="44.13436" lon="4.02515">
        <ele>522.61</ele>
        <time>2022-08-10T10:33:12Z</time>
      </trkpt>
      <trkpt lat="44.13437" lon="4.02518">
        <ele>522.61</ele>
        <time>2022-08-10T10:33:14Z</time>
      </trkpt>
      <trkpt lat="44.13448" lon="4.02528">
        <ele>519.73</ele>
        <time>2022-08-10T10:33:25Z</time>
      </trkpt>
      <trkpt lat="44.13452" lon="4.02548">
        <ele>520.21</ele>
        <time>2022-08-10T10:33:39Z</time>
      </trkpt>
      <trkpt lat="44.13453" lon="4.02561">
        <ele>518.77</ele>
        <time>2022-08-10T10:33:47Z</time>
      </trkpt>
      <trkpt lat="44.13452" lon="4.02565">
        <ele>518.29</ele>
        <time>2022-08-10T10:33:50Z</time>
      </trkpt>
      <trkpt lat="44.13452" lon="4.02585">
        <ele>519.25</ele>
        <time>2022-08-10T10:34:04Z</time>
      </trkpt>
      <trkpt lat="44.13453" lon="4.02604">
        <ele>520.21</ele>
        <time>2022-08-10T10:34:18Z</time>
      </trkpt>
      <trkpt lat="44.13449" lon="4.0261">
        <ele>518.29</ele>
        <time>2022-08-10T10:34:34Z</time>
      </trkpt>
      <trkpt lat="44.1345" lon="4.02621">
        <ele>515.88</ele>
        <time>2022-08-10T10:34:45Z</time>
      </trkpt>
      <trkpt lat="44.13451" lon="4.02628">
        <ele>513.96</ele>
        <time>2022-08-10T10:34:55Z</time>
      </trkpt>
      <trkpt lat="44.13453" lon="4.02629">
        <ele>513.96</ele>
        <time>2022-08-10T10:35:09Z</time>
      </trkpt>
      <trkpt lat="44.1345" lon="4.02639">
        <ele>513</ele>
        <time>2022-08-10T10:35:16Z</time>
      </trkpt>
      <trkpt lat="44.13448" lon="4.02652">
        <ele>510.6</ele>
        <time>2022-08-10T10:35:29Z</time>
      </trkpt>
      <trkpt lat="44.13447" lon="4.0266">
        <ele>509.16</ele>
        <time>2022-08-10T10:35:38Z</time>
      </trkpt>
      <trkpt lat="44.13449" lon="4.02671">
        <ele>507.71</ele>
        <time>2022-08-10T10:35:46Z</time>
      </trkpt>
      <trkpt lat="44.13451" lon="4.02687">
        <ele>504.35</ele>
        <time>2022-08-10T10:36:01Z</time>
      </trkpt>
      <trkpt lat="44.13445" lon="4.02711">
        <ele>504.35</ele>
        <time>2022-08-10T10:36:16Z</time>
      </trkpt>
      <trkpt lat="44.13444" lon="4.02732">
        <ele>505.31</ele>
        <time>2022-08-10T10:36:30Z</time>
      </trkpt>
      <trkpt lat="44.13444" lon="4.02747">
        <ele>507.23</ele>
        <time>2022-08-10T10:36:43Z</time>
      </trkpt>
      <trkpt lat="44.1345" lon="4.02767">
        <ele>504.83</ele>
        <time>2022-08-10T10:36:59Z</time>
      </trkpt>
      <trkpt lat="44.1345" lon="4.0278">
        <ele>507.71</ele>
        <time>2022-08-10T10:37:13Z</time>
      </trkpt>
      <trkpt lat="44.13451" lon="4.0279">
        <ele>508.67</ele>
        <time>2022-08-10T10:37:20Z</time>
      </trkpt>
      <trkpt lat="44.13453" lon="4.02809">
        <ele>510.12</ele>
        <time>2022-08-10T10:37:35Z</time>
      </trkpt>
      <trkpt lat="44.13456" lon="4.02827">
        <ele>505.79</ele>
        <time>2022-08-10T10:37:47Z</time>
      </trkpt>
      <trkpt lat="44.1346" lon="4.02845">
        <ele>500.98</ele>
        <time>2022-08-10T10:38:01Z</time>
      </trkpt>
      <trkpt lat="44.13457" lon="4.02871">
        <ele>500.98</ele>
        <time>2022-08-10T10:38:16Z</time>
      </trkpt>
      <trkpt lat="44.13457" lon="4.02879">
        <ele>500.98</ele>
        <time>2022-08-10T10:38:21Z</time>
      </trkpt>
      <trkpt lat="44.13467" lon="4.02893">
        <ele>499.06</ele>
        <time>2022-08-10T10:38:36Z</time>
      </trkpt>
      <trkpt lat="44.13469" lon="4.02898">
        <ele>498.58</ele>
        <time>2022-08-10T10:38:40Z</time>
      </trkpt>
      <trkpt lat="44.13468" lon="4.02908">
        <ele>498.1</ele>
        <time>2022-08-10T10:38:46Z</time>
      </trkpt>
      <trkpt lat="44.13469" lon="4.02928">
        <ele>496.66</ele>
        <time>2022-08-10T10:39:01Z</time>
      </trkpt>
      <trkpt lat="44.13467" lon="4.02951">
        <ele>495.7</ele>
        <time>2022-08-10T10:39:16Z</time>
      </trkpt>
      <trkpt lat="44.13469" lon="4.02961">
        <ele>495.7</ele>
        <time>2022-08-10T10:39:24Z</time>
      </trkpt>
      <trkpt lat="44.1348" lon="4.02975">
        <ele>492.33</ele>
        <time>2022-08-10T10:39:39Z</time>
      </trkpt>
      <trkpt lat="44.13488" lon="4.02987">
        <ele>489.45</ele>
        <time>2022-08-10T10:39:53Z</time>
      </trkpt>
      <trkpt lat="44.13493" lon="4.03005">
        <ele>487.53</ele>
        <time>2022-08-10T10:40:05Z</time>
      </trkpt>
      <trkpt lat="44.13496" lon="4.03023">
        <ele>486.08</ele>
        <time>2022-08-10T10:40:20Z</time>
      </trkpt>
      <trkpt lat="44.13496" lon="4.03025">
        <ele>486.08</ele>
        <time>2022-08-10T10:40:21Z</time>
      </trkpt>
      <trkpt lat="44.13497" lon="4.03027">
        <ele>485.6</ele>
        <time>2022-08-10T10:40:23Z</time>
      </trkpt>
      <trkpt lat="44.13501" lon="4.03036">
        <ele>484.64</ele>
        <time>2022-08-10T10:40:37Z</time>
      </trkpt>
      <trkpt lat="44.13503" lon="4.03041">
        <ele>485.6</ele>
        <time>2022-08-10T10:40:59Z</time>
      </trkpt>
      <trkpt lat="44.13504" lon="4.03062">
        <ele>482.72</ele>
        <time>2022-08-10T10:41:13Z</time>
      </trkpt>
      <trkpt lat="44.13512" lon="4.0308">
        <ele>482.24</ele>
        <time>2022-08-10T10:41:29Z</time>
      </trkpt>
      <trkpt lat="44.13516" lon="4.03091">
        <ele>483.2</ele>
        <time>2022-08-10T10:41:43Z</time>
      </trkpt>
      <trkpt lat="44.13515" lon="4.03099">
        <ele>483.2</ele>
        <time>2022-08-10T10:41:49Z</time>
      </trkpt>
      <trkpt lat="44.13524" lon="4.03112">
        <ele>485.6</ele>
        <time>2022-08-10T10:42:04Z</time>
      </trkpt>
      <trkpt lat="44.13527" lon="4.03121">
        <ele>487.53</ele>
        <time>2022-08-10T10:42:18Z</time>
      </trkpt>
      <trkpt lat="44.13527" lon="4.03132">
        <ele>489.45</ele>
        <time>2022-08-10T10:42:33Z</time>
      </trkpt>
      <trkpt lat="44.13527" lon="4.03135">
        <ele>489.45</ele>
        <time>2022-08-10T10:42:36Z</time>
      </trkpt>
      <trkpt lat="44.13535" lon="4.03146">
        <ele>492.33</ele>
        <time>2022-08-10T10:42:51Z</time>
      </trkpt>
      <trkpt lat="44.13541" lon="4.03154">
        <ele>495.7</ele>
        <time>2022-08-10T10:43:07Z</time>
      </trkpt>
      <trkpt lat="44.13546" lon="4.03161">
        <ele>496.18</ele>
        <time>2022-08-10T10:43:21Z</time>
      </trkpt>
      <trkpt lat="44.13551" lon="4.0317">
        <ele>497.14</ele>
        <time>2022-08-10T10:43:33Z</time>
      </trkpt>
      <trkpt lat="44.13557" lon="4.03183">
        <ele>497.14</ele>
        <time>2022-08-10T10:43:48Z</time>
      </trkpt>
      <trkpt lat="44.13558" lon="4.03193">
        <ele>495.22</ele>
        <time>2022-08-10T10:44:00Z</time>
      </trkpt>
      <trkpt lat="44.13554" lon="4.03198">
        <ele>494.74</ele>
        <time>2022-08-10T10:44:20Z</time>
      </trkpt>
      <trkpt lat="44.13555" lon="4.03206">
        <ele>499.06</ele>
        <time>2022-08-10T10:44:35Z</time>
      </trkpt>
      <trkpt lat="44.13556" lon="4.03211">
        <ele>500.98</ele>
        <time>2022-08-10T10:44:51Z</time>
      </trkpt>
      <trkpt lat="44.13558" lon="4.03215">
        <ele>504.83</ele>
        <time>2022-08-10T10:45:03Z</time>
      </trkpt>
      <trkpt lat="44.13563" lon="4.03226">
        <ele>506.27</ele>
        <time>2022-08-10T10:45:17Z</time>
      </trkpt>
      <trkpt lat="44.13563" lon="4.0323">
        <ele>506.27</ele>
        <time>2022-08-10T10:45:33Z</time>
      </trkpt>
      <trkpt lat="44.13563" lon="4.03232">
        <ele>503.39</ele>
        <time>2022-08-10T10:45:47Z</time>
      </trkpt>
      <trkpt lat="44.13564" lon="4.03236">
        <ele>502.91</ele>
        <time>2022-08-10T10:46:12Z</time>
      </trkpt>
      <trkpt lat="44.13566" lon="4.03249">
        <ele>500.98</ele>
        <time>2022-08-10T10:46:26Z</time>
      </trkpt>
      <trkpt lat="44.13566" lon="4.03253">
        <ele>500.02</ele>
        <time>2022-08-10T10:46:29Z</time>
      </trkpt>
      <trkpt lat="44.13561" lon="4.03271">
        <ele>498.58</ele>
        <time>2022-08-10T10:46:43Z</time>
      </trkpt>
      <trkpt lat="44.13561" lon="4.03272">
        <ele>498.58</ele>
        <time>2022-08-10T10:46:44Z</time>
      </trkpt>
      <trkpt lat="44.13558" lon="4.03287">
        <ele>496.66</ele>
        <time>2022-08-10T10:47:00Z</time>
      </trkpt>
      <trkpt lat="44.13552" lon="4.03302">
        <ele>494.74</ele>
        <time>2022-08-10T10:47:15Z</time>
      </trkpt>
      <trkpt lat="44.13552" lon="4.03314">
        <ele>492.33</ele>
        <time>2022-08-10T10:47:28Z</time>
      </trkpt>
      <trkpt lat="44.13552" lon="4.03328">
        <ele>488.97</ele>
        <time>2022-08-10T10:47:42Z</time>
      </trkpt>
      <trkpt lat="44.13553" lon="4.03334">
        <ele>489.45</ele>
        <time>2022-08-10T10:47:46Z</time>
      </trkpt>
      <trkpt lat="44.13555" lon="4.03337">
        <ele>489.45</ele>
        <time>2022-08-10T10:47:48Z</time>
      </trkpt>
      <trkpt lat="44.1356" lon="4.03349">
        <ele>488.01</ele>
        <time>2022-08-10T10:48:00Z</time>
      </trkpt>
      <trkpt lat="44.13561" lon="4.03358">
        <ele>489.45</ele>
        <time>2022-08-10T10:48:18Z</time>
      </trkpt>
      <trkpt lat="44.1356" lon="4.03366">
        <ele>488.49</ele>
        <time>2022-08-10T10:48:31Z</time>
      </trkpt>
      <trkpt lat="44.13557" lon="4.03381">
        <ele>485.12</ele>
        <time>2022-08-10T10:48:46Z</time>
      </trkpt>
      <trkpt lat="44.13563" lon="4.03397">
        <ele>482.72</ele>
        <time>2022-08-10T10:49:01Z</time>
      </trkpt>
      <trkpt lat="44.13559" lon="4.03411">
        <ele>479.35</ele>
        <time>2022-08-10T10:49:15Z</time>
      </trkpt>
      <trkpt lat="44.13557" lon="4.03427">
        <ele>475.51</ele>
        <time>2022-08-10T10:49:30Z</time>
      </trkpt>
      <trkpt lat="44.13555" lon="4.03439">
        <ele>472.14</ele>
        <time>2022-08-10T10:49:43Z</time>
      </trkpt>
      <trkpt lat="44.1355" lon="4.03451">
        <ele>469.26</ele>
        <time>2022-08-10T10:49:56Z</time>
      </trkpt>
      <trkpt lat="44.13555" lon="4.03468">
        <ele>465.42</ele>
        <time>2022-08-10T10:50:10Z</time>
      </trkpt>
      <trkpt lat="44.13555" lon="4.03489">
        <ele>461.57</ele>
        <time>2022-08-10T10:50:25Z</time>
      </trkpt>
      <trkpt lat="44.13559" lon="4.0351">
        <ele>461.57</ele>
        <time>2022-08-10T10:50:39Z</time>
      </trkpt>
      <trkpt lat="44.13557" lon="4.03524">
        <ele>463.97</ele>
        <time>2022-08-10T10:50:53Z</time>
      </trkpt>
      <trkpt lat="44.13555" lon="4.03533">
        <ele>468.3</ele>
        <time>2022-08-10T10:51:09Z</time>
      </trkpt>
      <trkpt lat="44.13556" lon="4.03544">
        <ele>468.78</ele>
        <time>2022-08-10T10:51:23Z</time>
      </trkpt>
      <trkpt lat="44.13556" lon="4.03552">
        <ele>470.22</ele>
        <time>2022-08-10T10:51:35Z</time>
      </trkpt>
      <trkpt lat="44.13553" lon="4.03558">
        <ele>472.14</ele>
        <time>2022-08-10T10:51:50Z</time>
      </trkpt>
      <trkpt lat="44.13553" lon="4.03567">
        <ele>476.47</ele>
        <time>2022-08-10T10:52:06Z</time>
      </trkpt>
      <trkpt lat="44.13553" lon="4.03575">
        <ele>478.39</ele>
        <time>2022-08-10T10:52:19Z</time>
      </trkpt>
      <trkpt lat="44.13556" lon="4.03579">
        <ele>480.8</ele>
        <time>2022-08-10T10:52:35Z</time>
      </trkpt>
      <trkpt lat="44.13558" lon="4.03579">
        <ele>481.76</ele>
        <time>2022-08-10T10:52:53Z</time>
      </trkpt>
      <trkpt lat="44.13557" lon="4.03584">
        <ele>483.2</ele>
        <time>2022-08-10T10:53:13Z</time>
      </trkpt>
      <trkpt lat="44.13554" lon="4.03594">
        <ele>483.68</ele>
        <time>2022-08-10T10:53:27Z</time>
      </trkpt>
      <trkpt lat="44.13556" lon="4.03594">
        <ele>484.64</ele>
        <time>2022-08-10T10:53:54Z</time>
      </trkpt>
      <trkpt lat="44.13558" lon="4.03595">
        <ele>483.2</ele>
        <time>2022-08-10T10:54:19Z</time>
      </trkpt>
      <trkpt lat="44.13556" lon="4.03608">
        <ele>480.32</ele>
        <time>2022-08-10T10:54:32Z</time>
      </trkpt>
      <trkpt lat="44.13558" lon="4.03623">
        <ele>482.72</ele>
        <time>2022-08-10T10:54:45Z</time>
      </trkpt>
      <trkpt lat="44.13558" lon="4.03633">
        <ele>484.64</ele>
        <time>2022-08-10T10:54:54Z</time>
      </trkpt>
      <trkpt lat="44.13551" lon="4.03645">
        <ele>483.2</ele>
        <time>2022-08-10T10:55:07Z</time>
      </trkpt>
      <trkpt lat="44.13546" lon="4.0366">
        <ele>479.84</ele>
        <time>2022-08-10T10:55:21Z</time>
      </trkpt>
      <trkpt lat="44.13545" lon="4.03661">
        <ele>478.87</ele>
        <time>2022-08-10T10:55:23Z</time>
      </trkpt>
      <trkpt lat="44.13533" lon="4.03668">
        <ele>476.95</ele>
        <time>2022-08-10T10:55:39Z</time>
      </trkpt>
      <trkpt lat="44.13523" lon="4.03679">
        <ele>475.03</ele>
        <time>2022-08-10T10:55:54Z</time>
      </trkpt>
      <trkpt lat="44.13515" lon="4.03687">
        <ele>473.11</ele>
        <time>2022-08-10T10:56:07Z</time>
      </trkpt>
      <trkpt lat="44.13508" lon="4.03695">
        <ele>469.74</ele>
        <time>2022-08-10T10:56:21Z</time>
      </trkpt>
      <trkpt lat="44.13503" lon="4.03711">
        <ele>466.38</ele>
        <time>2022-08-10T10:56:38Z</time>
      </trkpt>
      <trkpt lat="44.13502" lon="4.03725">
        <ele>465.9</ele>
        <time>2022-08-10T10:56:51Z</time>
      </trkpt>
      <trkpt lat="44.13502" lon="4.03733">
        <ele>462.53</ele>
        <time>2022-08-10T10:57:02Z</time>
      </trkpt>
      <trkpt lat="44.13497" lon="4.03745">
        <ele>459.17</ele>
        <time>2022-08-10T10:57:14Z</time>
      </trkpt>
      <trkpt lat="44.13493" lon="4.03761">
        <ele>457.72</ele>
        <time>2022-08-10T10:57:28Z</time>
      </trkpt>
      <trkpt lat="44.13486" lon="4.03774">
        <ele>454.84</ele>
        <time>2022-08-10T10:57:41Z</time>
      </trkpt>
      <trkpt lat="44.13476" lon="4.03782">
        <ele>451</ele>
        <time>2022-08-10T10:57:55Z</time>
      </trkpt>
      <trkpt lat="44.13469" lon="4.03798">
        <ele>449.07</ele>
        <time>2022-08-10T10:58:09Z</time>
      </trkpt>
      <trkpt lat="44.13471" lon="4.03811">
        <ele>446.19</ele>
        <time>2022-08-10T10:58:23Z</time>
      </trkpt>
      <trkpt lat="44.13473" lon="4.03822">
        <ele>441.86</ele>
        <time>2022-08-10T10:58:37Z</time>
      </trkpt>
      <trkpt lat="44.13475" lon="4.03835">
        <ele>439.94</ele>
        <time>2022-08-10T10:58:54Z</time>
      </trkpt>
      <trkpt lat="44.13476" lon="4.03846">
        <ele>438.02</ele>
        <time>2022-08-10T10:59:07Z</time>
      </trkpt>
      <trkpt lat="44.13476" lon="4.03855">
        <ele>434.65</ele>
        <time>2022-08-10T10:59:23Z</time>
      </trkpt>
      <trkpt lat="44.13475" lon="4.03868">
        <ele>434.65</ele>
        <time>2022-08-10T10:59:36Z</time>
      </trkpt>
      <trkpt lat="44.13478" lon="4.03877">
        <ele>430.33</ele>
        <time>2022-08-10T10:59:50Z</time>
      </trkpt>
      <trkpt lat="44.13475" lon="4.03888">
        <ele>428.89</ele>
        <time>2022-08-10T11:00:05Z</time>
      </trkpt>
      <trkpt lat="44.13471" lon="4.03893">
        <ele>427.44</ele>
        <time>2022-08-10T11:00:11Z</time>
      </trkpt>
      <trkpt lat="44.13456" lon="4.03905">
        <ele>426.96</ele>
        <time>2022-08-10T11:00:27Z</time>
      </trkpt>
      <trkpt lat="44.13439" lon="4.03912">
        <ele>424.08</ele>
        <time>2022-08-10T11:00:43Z</time>
      </trkpt>
      <trkpt lat="44.13437" lon="4.03913">
        <ele>423.6</ele>
        <time>2022-08-10T11:00:45Z</time>
      </trkpt>
      <trkpt lat="44.13423" lon="4.03917">
        <ele>419.75</ele>
        <time>2022-08-10T11:01:01Z</time>
      </trkpt>
      <trkpt lat="44.13415" lon="4.03926">
        <ele>415.91</ele>
        <time>2022-08-10T11:01:15Z</time>
      </trkpt>
      <trkpt lat="44.13404" lon="4.03938">
        <ele>413.98</ele>
        <time>2022-08-10T11:01:29Z</time>
      </trkpt>
      <trkpt lat="44.13394" lon="4.03949">
        <ele>410.14</ele>
        <time>2022-08-10T11:01:44Z</time>
      </trkpt>
      <trkpt lat="44.13386" lon="4.03962">
        <ele>407.26</ele>
        <time>2022-08-10T11:01:59Z</time>
      </trkpt>
      <trkpt lat="44.13375" lon="4.03971">
        <ele>402.45</ele>
        <time>2022-08-10T11:02:15Z</time>
      </trkpt>
      <trkpt lat="44.13365" lon="4.03978">
        <ele>397.64</ele>
        <time>2022-08-10T11:02:30Z</time>
      </trkpt>
      <trkpt lat="44.13355" lon="4.03986">
        <ele>392.84</ele>
        <time>2022-08-10T11:02:47Z</time>
      </trkpt>
      <trkpt lat="44.13345" lon="4.03993">
        <ele>388.51</ele>
        <time>2022-08-10T11:03:03Z</time>
      </trkpt>
      <trkpt lat="44.13333" lon="4.03998">
        <ele>385.15</ele>
        <time>2022-08-10T11:03:18Z</time>
      </trkpt>
      <trkpt lat="44.1332" lon="4.04006">
        <ele>380.82</ele>
        <time>2022-08-10T11:03:34Z</time>
      </trkpt>
      <trkpt lat="44.13307" lon="4.04015">
        <ele>376.01</ele>
        <time>2022-08-10T11:03:49Z</time>
      </trkpt>
      <trkpt lat="44.13289" lon="4.04028">
        <ele>374.09</ele>
        <time>2022-08-10T11:04:06Z</time>
      </trkpt>
      <trkpt lat="44.13273" lon="4.04042">
        <ele>370.73</ele>
        <time>2022-08-10T11:04:23Z</time>
      </trkpt>
      <trkpt lat="44.13257" lon="4.04052">
        <ele>363.04</ele>
        <time>2022-08-10T11:04:40Z</time>
      </trkpt>
      <trkpt lat="44.1324" lon="4.04059">
        <ele>362.07</ele>
        <time>2022-08-10T11:04:55Z</time>
      </trkpt>
      <trkpt lat="44.13226" lon="4.04065">
        <ele>364.96</ele>
        <time>2022-08-10T11:05:09Z</time>
      </trkpt>
      <trkpt lat="44.13216" lon="4.04072">
        <ele>364</ele>
        <time>2022-08-10T11:05:21Z</time>
      </trkpt>
      <trkpt lat="44.13203" lon="4.04082">
        <ele>361.11</ele>
        <time>2022-08-10T11:05:34Z</time>
      </trkpt>
      <trkpt lat="44.1319" lon="4.04095">
        <ele>359.19</ele>
        <time>2022-08-10T11:05:49Z</time>
      </trkpt>
      <trkpt lat="44.13179" lon="4.04107">
        <ele>353.9</ele>
        <time>2022-08-10T11:06:05Z</time>
      </trkpt>
      <trkpt lat="44.13171" lon="4.04117">
        <ele>351.02</ele>
        <time>2022-08-10T11:06:18Z</time>
      </trkpt>
      <trkpt lat="44.13164" lon="4.04126">
        <ele>350.06</ele>
        <time>2022-08-10T11:06:30Z</time>
      </trkpt>
      <trkpt lat="44.13156" lon="4.04134">
        <ele>346.69</ele>
        <time>2022-08-10T11:06:44Z</time>
      </trkpt>
      <trkpt lat="44.13149" lon="4.04143">
        <ele>343.33</ele>
        <time>2022-08-10T11:06:58Z</time>
      </trkpt>
      <trkpt lat="44.13143" lon="4.04147">
        <ele>338.04</ele>
        <time>2022-08-10T11:07:08Z</time>
      </trkpt>
      <trkpt lat="44.13143" lon="4.04156">
        <ele>336.12</ele>
        <time>2022-08-10T11:07:22Z</time>
      </trkpt>
      <trkpt lat="44.13144" lon="4.04156">
        <ele>336.12</ele>
        <time>2022-08-10T11:07:23Z</time>
      </trkpt>
      <trkpt lat="44.13149" lon="4.04163">
        <ele>337.08</ele>
        <time>2022-08-10T11:07:29Z</time>
      </trkpt>
      <trkpt lat="44.13154" lon="4.04164">
        <ele>337.08</ele>
        <time>2022-08-10T11:07:34Z</time>
      </trkpt>
      <trkpt lat="44.13163" lon="4.04168">
        <ele>336.6</ele>
        <time>2022-08-10T11:07:42Z</time>
      </trkpt>
      <trkpt lat="44.13173" lon="4.04176">
        <ele>337.08</ele>
        <time>2022-08-10T11:07:52Z</time>
      </trkpt>
      <trkpt lat="44.13188" lon="4.04182">
        <ele>336.12</ele>
        <time>2022-08-10T11:08:05Z</time>
      </trkpt>
      <trkpt lat="44.13198" lon="4.04183">
        <ele>334.2</ele>
        <time>2022-08-10T11:08:13Z</time>
      </trkpt>
      <trkpt lat="44.13203" lon="4.04185">
        <ele>333.23</ele>
        <time>2022-08-10T11:08:17Z</time>
      </trkpt>
      <trkpt lat="44.13206" lon="4.04184">
        <ele>332.27</ele>
        <time>2022-08-10T11:08:28Z</time>
      </trkpt>
      <trkpt lat="44.1321" lon="4.04183">
        <ele>332.27</ele>
        <time>2022-08-10T11:08:32Z</time>
      </trkpt>
      <trkpt lat="44.13224" lon="4.04183">
        <ele>328.91</ele>
        <time>2022-08-10T11:08:44Z</time>
      </trkpt>
      <trkpt lat="44.13228" lon="4.04184">
        <ele>327.95</ele>
        <time>2022-08-10T11:08:48Z</time>
      </trkpt>
      <trkpt lat="44.13242" lon="4.0419">
        <ele>328.43</ele>
        <time>2022-08-10T11:09:01Z</time>
      </trkpt>
      <trkpt lat="44.13259" lon="4.04193">
        <ele>329.39</ele>
        <time>2022-08-10T11:09:15Z</time>
      </trkpt>
      <trkpt lat="44.13268" lon="4.04193">
        <ele>329.87</ele>
        <time>2022-08-10T11:09:27Z</time>
      </trkpt>
      <trkpt lat="44.13292" lon="4.04187">
        <ele>328.43</ele>
        <time>2022-08-10T11:09:42Z</time>
      </trkpt>
      <trkpt lat="44.13308" lon="4.04185">
        <ele>326.5</ele>
        <time>2022-08-10T11:09:54Z</time>
      </trkpt>
      <trkpt lat="44.13329" lon="4.0419">
        <ele>324.58</ele>
        <time>2022-08-10T11:10:10Z</time>
      </trkpt>
      <trkpt lat="44.13348" lon="4.04194">
        <ele>326.5</ele>
        <time>2022-08-10T11:10:24Z</time>
      </trkpt>
      <trkpt lat="44.13361" lon="4.04195">
        <ele>326.99</ele>
        <time>2022-08-10T11:10:36Z</time>
      </trkpt>
      <trkpt lat="44.13373" lon="4.042">
        <ele>326.02</ele>
        <time>2022-08-10T11:10:47Z</time>
      </trkpt>
      <trkpt lat="44.13379" lon="4.04205">
        <ele>326.02</ele>
        <time>2022-08-10T11:10:53Z</time>
      </trkpt>
      <trkpt lat="44.13381" lon="4.04207">
        <ele>325.06</ele>
        <time>2022-08-10T11:10:56Z</time>
      </trkpt>
      <trkpt lat="44.13397" lon="4.04212">
        <ele>322.66</ele>
        <time>2022-08-10T11:11:09Z</time>
      </trkpt>
      <trkpt lat="44.13417" lon="4.04215">
        <ele>320.26</ele>
        <time>2022-08-10T11:11:25Z</time>
      </trkpt>
      <trkpt lat="44.13425" lon="4.04223">
        <ele>318.81</ele>
        <time>2022-08-10T11:11:34Z</time>
      </trkpt>
      <trkpt lat="44.13432" lon="4.04236">
        <ele>318.33</ele>
        <time>2022-08-10T11:11:43Z</time>
      </trkpt>
      <trkpt lat="44.13439" lon="4.04247">
        <ele>317.37</ele>
        <time>2022-08-10T11:11:51Z</time>
      </trkpt>
      <trkpt lat="44.13441" lon="4.0425">
        <ele>317.37</ele>
        <time>2022-08-10T11:11:53Z</time>
      </trkpt>
      <trkpt lat="44.13443" lon="4.04256">
        <ele>316.89</ele>
        <time>2022-08-10T11:11:57Z</time>
      </trkpt>
      <trkpt lat="44.13444" lon="4.04258">
        <ele>316.89</ele>
        <time>2022-08-10T11:11:59Z</time>
      </trkpt>
      <trkpt lat="44.13448" lon="4.04268">
        <ele>316.89</ele>
        <time>2022-08-10T11:12:06Z</time>
      </trkpt>
      <trkpt lat="44.13452" lon="4.04278">
        <ele>317.37</ele>
        <time>2022-08-10T11:12:13Z</time>
      </trkpt>
      <trkpt lat="44.13453" lon="4.04286">
        <ele>317.37</ele>
        <time>2022-08-10T11:12:18Z</time>
      </trkpt>
      <trkpt lat="44.13456" lon="4.04289">
        <ele>316.89</ele>
        <time>2022-08-10T11:12:21Z</time>
      </trkpt>
      <trkpt lat="44.1346" lon="4.0429">
        <ele>316.89</ele>
        <time>2022-08-10T11:12:24Z</time>
      </trkpt>
      <trkpt lat="44.13467" lon="4.04294">
        <ele>316.41</ele>
        <time>2022-08-10T11:12:30Z</time>
      </trkpt>
      <trkpt lat="44.13481" lon="4.04296">
        <ele>316.41</ele>
        <time>2022-08-10T11:12:43Z</time>
      </trkpt>
      <trkpt lat="44.13483" lon="4.04296">
        <ele>316.41</ele>
        <time>2022-08-10T11:12:45Z</time>
      </trkpt>
      <trkpt lat="44.13499" lon="4.04311">
        <ele>314.97</ele>
        <time>2022-08-10T11:13:01Z</time>
      </trkpt>
      <trkpt lat="44.135" lon="4.04312">
        <ele>314.97</ele>
        <time>2022-08-10T11:13:02Z</time>
      </trkpt>
      <trkpt lat="44.13504" lon="4.04334">
        <ele>314.49</ele>
        <time>2022-08-10T11:13:17Z</time>
      </trkpt>
      <trkpt lat="44.1351" lon="4.04351">
        <ele>314.01</ele>
        <time>2022-08-10T11:13:28Z</time>
      </trkpt>
      <trkpt lat="44.13516" lon="4.04366">
        <ele>312.57</ele>
        <time>2022-08-10T11:13:38Z</time>
      </trkpt>
      <trkpt lat="44.13532" lon="4.04389">
        <ele>307.76</ele>
        <time>2022-08-10T11:13:54Z</time>
      </trkpt>
      <trkpt lat="44.13531" lon="4.04414">
        <ele>309.2</ele>
        <time>2022-08-10T11:14:09Z</time>
      </trkpt>
      <trkpt lat="44.13528" lon="4.04433">
        <ele>307.28</ele>
        <time>2022-08-10T11:14:22Z</time>
      </trkpt>
      <trkpt lat="44.13534" lon="4.04461">
        <ele>306.32</ele>
        <time>2022-08-10T11:14:36Z</time>
      </trkpt>
      <trkpt lat="44.13543" lon="4.04478">
        <ele>305.36</ele>
        <time>2022-08-10T11:14:50Z</time>
      </trkpt>
      <trkpt lat="44.13544" lon="4.04487">
        <ele>305.36</ele>
        <time>2022-08-10T11:15:03Z</time>
      </trkpt>
      <trkpt lat="44.13539" lon="4.04499">
        <ele>305.36</ele>
        <time>2022-08-10T11:15:17Z</time>
      </trkpt>
      <trkpt lat="44.13534" lon="4.04509">
        <ele>305.84</ele>
        <time>2022-08-10T11:15:29Z</time>
      </trkpt>
      <trkpt lat="44.13528" lon="4.04524">
        <ele>306.8</ele>
        <time>2022-08-10T11:15:45Z</time>
      </trkpt>
      <trkpt lat="44.13522" lon="4.0454">
        <ele>309.68</ele>
        <time>2022-08-10T11:16:00Z</time>
      </trkpt>
      <trkpt lat="44.13516" lon="4.04554">
        <ele>311.6</ele>
        <time>2022-08-10T11:16:14Z</time>
      </trkpt>
      <trkpt lat="44.13514" lon="4.04555">
        <ele>311.12</ele>
        <time>2022-08-10T11:16:16Z</time>
      </trkpt>
      <trkpt lat="44.13511" lon="4.04559">
        <ele>310.64</ele>
        <time>2022-08-10T11:16:20Z</time>
      </trkpt>
      <trkpt lat="44.135" lon="4.04574">
        <ele>310.16</ele>
        <time>2022-08-10T11:16:34Z</time>
      </trkpt>
      <trkpt lat="44.13495" lon="4.04583">
        <ele>310.16</ele>
        <time>2022-08-10T11:16:42Z</time>
      </trkpt>
      <trkpt lat="44.13489" lon="4.04595">
        <ele>310.16</ele>
        <time>2022-08-10T11:16:52Z</time>
      </trkpt>
      <trkpt lat="44.13476" lon="4.04612">
        <ele>312.09</ele>
        <time>2022-08-10T11:17:08Z</time>
      </trkpt>
      <trkpt lat="44.1347" lon="4.0463">
        <ele>312.09</ele>
        <time>2022-08-10T11:17:22Z</time>
      </trkpt>
      <trkpt lat="44.1346" lon="4.04646">
        <ele>313.05</ele>
        <time>2022-08-10T11:17:38Z</time>
      </trkpt>
      <trkpt lat="44.13457" lon="4.0465">
        <ele>313.05</ele>
        <time>2022-08-10T11:17:42Z</time>
      </trkpt>
      <trkpt lat="44.13455" lon="4.04652">
        <ele>313.05</ele>
        <time>2022-08-10T11:17:44Z</time>
      </trkpt>
      <trkpt lat="44.13451" lon="4.04659">
        <ele>313.53</ele>
        <time>2022-08-10T11:17:51Z</time>
      </trkpt>
      <trkpt lat="44.1344" lon="4.04674">
        <ele>311.6</ele>
        <time>2022-08-10T11:18:07Z</time>
      </trkpt>
      <trkpt lat="44.13429" lon="4.04685">
        <ele>310.16</ele>
        <time>2022-08-10T11:18:21Z</time>
      </trkpt>
      <trkpt lat="44.13416" lon="4.04701">
        <ele>308.72</ele>
        <time>2022-08-10T11:18:38Z</time>
      </trkpt>
      <trkpt lat="44.13405" lon="4.04718">
        <ele>309.68</ele>
        <time>2022-08-10T11:18:53Z</time>
      </trkpt>
      <trkpt lat="44.13394" lon="4.04732">
        <ele>308.72</ele>
        <time>2022-08-10T11:19:07Z</time>
      </trkpt>
      <trkpt lat="44.13381" lon="4.04747">
        <ele>307.76</ele>
        <time>2022-08-10T11:19:22Z</time>
      </trkpt>
      <trkpt lat="44.13372" lon="4.04758">
        <ele>306.8</ele>
        <time>2022-08-10T11:19:32Z</time>
      </trkpt>
      <trkpt lat="44.1337" lon="4.04761">
        <ele>306.8</ele>
        <time>2022-08-10T11:19:34Z</time>
      </trkpt>
      <trkpt lat="44.13365" lon="4.04767">
        <ele>306.8</ele>
        <time>2022-08-10T11:19:40Z</time>
      </trkpt>
      <trkpt lat="44.1336" lon="4.04775">
        <ele>306.32</ele>
        <time>2022-08-10T11:19:48Z</time>
      </trkpt>
      <trkpt lat="44.13349" lon="4.04788">
        <ele>304.39</ele>
        <time>2022-08-10T11:20:01Z</time>
      </trkpt>
      <trkpt lat="44.13348" lon="4.04789">
        <ele>304.39</ele>
        <time>2022-08-10T11:20:02Z</time>
      </trkpt>
      <trkpt lat="44.13336" lon="4.04804">
        <ele>303.43</ele>
        <time>2022-08-10T11:20:17Z</time>
      </trkpt>
      <trkpt lat="44.13335" lon="4.04805">
        <ele>302.95</ele>
        <time>2022-08-10T11:20:18Z</time>
      </trkpt>
      <trkpt lat="44.13334" lon="4.04807">
        <ele>302.95</ele>
        <time>2022-08-10T11:20:20Z</time>
      </trkpt>
      <trkpt lat="44.13321" lon="4.04822">
        <ele>301.51</ele>
        <time>2022-08-10T11:20:35Z</time>
      </trkpt>
      <trkpt lat="44.13318" lon="4.04827">
        <ele>301.51</ele>
        <time>2022-08-10T11:20:39Z</time>
      </trkpt>
      <trkpt lat="44.1331" lon="4.04838">
        <ele>301.99</ele>
        <time>2022-08-10T11:20:50Z</time>
      </trkpt>
      <trkpt lat="44.13299" lon="4.04854">
        <ele>302.47</ele>
        <time>2022-08-10T11:21:04Z</time>
      </trkpt>
      <trkpt lat="44.13288" lon="4.04865">
        <ele>300.55</ele>
        <time>2022-08-10T11:21:18Z</time>
      </trkpt>
      <trkpt lat="44.13278" lon="4.04881">
        <ele>300.55</ele>
        <time>2022-08-10T11:21:32Z</time>
      </trkpt>
      <trkpt lat="44.13272" lon="4.04893">
        <ele>300.55</ele>
        <time>2022-08-10T11:21:40Z</time>
      </trkpt>
      <trkpt lat="44.13271" lon="4.04898">
        <ele>300.55</ele>
        <time>2022-08-10T11:21:43Z</time>
      </trkpt>
      <trkpt lat="44.1327" lon="4.04901">
        <ele>301.03</ele>
        <time>2022-08-10T11:21:45Z</time>
      </trkpt>
      <trkpt lat="44.13266" lon="4.04928">
        <ele>300.55</ele>
        <time>2022-08-10T11:22:01Z</time>
      </trkpt>
      <trkpt lat="44.13265" lon="4.04943">
        <ele>301.99</ele>
        <time>2022-08-10T11:22:10Z</time>
      </trkpt>
      <trkpt lat="44.13263" lon="4.0495">
        <ele>301.99</ele>
        <time>2022-08-10T11:22:15Z</time>
      </trkpt>
      <trkpt lat="44.13262" lon="4.04973">
        <ele>299.59</ele>
        <time>2022-08-10T11:22:30Z</time>
      </trkpt>
      <trkpt lat="44.13268" lon="4.04993">
        <ele>296.22</ele>
        <time>2022-08-10T11:22:44Z</time>
      </trkpt>
      <trkpt lat="44.13273" lon="4.05003">
        <ele>294.3</ele>
        <time>2022-08-10T11:22:51Z</time>
      </trkpt>
      <trkpt lat="44.13285" lon="4.05025">
        <ele>291.9</ele>
        <time>2022-08-10T11:23:08Z</time>
      </trkpt>
      <trkpt lat="44.13293" lon="4.05042">
        <ele>291.42</ele>
        <time>2022-08-10T11:23:21Z</time>
      </trkpt>
      <trkpt lat="44.13297" lon="4.05049">
        <ele>290.94</ele>
        <time>2022-08-10T11:23:27Z</time>
      </trkpt>
      <trkpt lat="44.13312" lon="4.05061">
        <ele>289.01</ele>
        <time>2022-08-10T11:23:43Z</time>
      </trkpt>
      <trkpt lat="44.13324" lon="4.05069">
        <ele>285.65</ele>
        <time>2022-08-10T11:23:56Z</time>
      </trkpt>
      <trkpt lat="44.13332" lon="4.05079">
        <ele>285.17</ele>
        <time>2022-08-10T11:24:08Z</time>
      </trkpt>
      <trkpt lat="44.13342" lon="4.05085">
        <ele>282.77</ele>
        <time>2022-08-10T11:24:19Z</time>
      </trkpt>
      <trkpt lat="44.13355" lon="4.05097">
        <ele>280.36</ele>
        <time>2022-08-10T11:24:33Z</time>
      </trkpt>
      <trkpt lat="44.1337" lon="4.05104">
        <ele>277</ele>
        <time>2022-08-10T11:24:48Z</time>
      </trkpt>
      <trkpt lat="44.13377" lon="4.05107">
        <ele>275.56</ele>
        <time>2022-08-10T11:24:55Z</time>
      </trkpt>
      <trkpt lat="44.13392" lon="4.05107">
        <ele>272.19</ele>
        <time>2022-08-10T11:25:08Z</time>
      </trkpt>
      <trkpt lat="44.13406" lon="4.05113">
        <ele>268.83</ele>
        <time>2022-08-10T11:25:22Z</time>
      </trkpt>
      <trkpt lat="44.13413" lon="4.05131">
        <ele>270.75</ele>
        <time>2022-08-10T11:25:36Z</time>
      </trkpt>
      <trkpt lat="44.13415" lon="4.0514">
        <ele>273.15</ele>
        <time>2022-08-10T11:25:44Z</time>
      </trkpt>
      <trkpt lat="44.13418" lon="4.05158">
        <ele>273.15</ele>
        <time>2022-08-10T11:25:58Z</time>
      </trkpt>
      <trkpt lat="44.13416" lon="4.05182">
        <ele>274.11</ele>
        <time>2022-08-10T11:26:14Z</time>
      </trkpt>
      <trkpt lat="44.13417" lon="4.05199">
        <ele>273.63</ele>
        <time>2022-08-10T11:26:27Z</time>
      </trkpt>
      <trkpt lat="44.13414" lon="4.0521">
        <ele>272.19</ele>
        <time>2022-08-10T11:26:35Z</time>
      </trkpt>
      <trkpt lat="44.13406" lon="4.0523">
        <ele>270.27</ele>
        <time>2022-08-10T11:26:50Z</time>
      </trkpt>
      <trkpt lat="44.13396" lon="4.05246">
        <ele>268.83</ele>
        <time>2022-08-10T11:27:03Z</time>
      </trkpt>
      <trkpt lat="44.13384" lon="4.05261">
        <ele>266.42</ele>
        <time>2022-08-10T11:27:18Z</time>
      </trkpt>
      <trkpt lat="44.13372" lon="4.05275">
        <ele>264.98</ele>
        <time>2022-08-10T11:27:33Z</time>
      </trkpt>
      <trkpt lat="44.13362" lon="4.05287">
        <ele>263.54</ele>
        <time>2022-08-10T11:27:45Z</time>
      </trkpt>
      <trkpt lat="44.13352" lon="4.05304">
        <ele>262.58</ele>
        <time>2022-08-10T11:27:58Z</time>
      </trkpt>
      <trkpt lat="44.13344" lon="4.05321">
        <ele>261.62</ele>
        <time>2022-08-10T11:28:11Z</time>
      </trkpt>
      <trkpt lat="44.13332" lon="4.05336">
        <ele>261.14</ele>
        <time>2022-08-10T11:28:24Z</time>
      </trkpt>
      <trkpt lat="44.1332" lon="4.05351">
        <ele>261.14</ele>
        <time>2022-08-10T11:28:36Z</time>
      </trkpt>
      <trkpt lat="44.13307" lon="4.05366">
        <ele>260.65</ele>
        <time>2022-08-10T11:28:52Z</time>
      </trkpt>
      <trkpt lat="44.13293" lon="4.05381">
        <ele>258.25</ele>
        <time>2022-08-10T11:29:08Z</time>
      </trkpt>
      <trkpt lat="44.13282" lon="4.05396">
        <ele>254.41</ele>
        <time>2022-08-10T11:29:23Z</time>
      </trkpt>
      <trkpt lat="44.13268" lon="4.05404">
        <ele>253.93</ele>
        <time>2022-08-10T11:29:36Z</time>
      </trkpt>
      <trkpt lat="44.13256" lon="4.05416">
        <ele>253.44</ele>
        <time>2022-08-10T11:29:50Z</time>
      </trkpt>
      <trkpt lat="44.13247" lon="4.05432">
        <ele>255.37</ele>
        <time>2022-08-10T11:30:02Z</time>
      </trkpt>
      <trkpt lat="44.13245" lon="4.05441">
        <ele>255.37</ele>
        <time>2022-08-10T11:30:06Z</time>
      </trkpt>
      <trkpt lat="44.13246" lon="4.05459">
        <ele>254.89</ele>
        <time>2022-08-10T11:30:21Z</time>
      </trkpt>
      <trkpt lat="44.13249" lon="4.05465">
        <ele>252.96</ele>
        <time>2022-08-10T11:30:35Z</time>
      </trkpt>
      <trkpt lat="44.13258" lon="4.05465">
        <ele>253.93</ele>
        <time>2022-08-10T11:30:51Z</time>
      </trkpt>
      <trkpt lat="44.1327" lon="4.05454">
        <ele>253.93</ele>
        <time>2022-08-10T11:31:04Z</time>
      </trkpt>
      <trkpt lat="44.13284" lon="4.05447">
        <ele>252.96</ele>
        <time>2022-08-10T11:31:19Z</time>
      </trkpt>
      <trkpt lat="44.13297" lon="4.05458">
        <ele>250.08</ele>
        <time>2022-08-10T11:31:35Z</time>
      </trkpt>
      <trkpt lat="44.13307" lon="4.05464">
        <ele>248.16</ele>
        <time>2022-08-10T11:31:43Z</time>
      </trkpt>
      <trkpt lat="44.13321" lon="4.05473">
        <ele>246.72</ele>
        <time>2022-08-10T11:31:56Z</time>
      </trkpt>
      <trkpt lat="44.13338" lon="4.05482">
        <ele>244.31</ele>
        <time>2022-08-10T11:32:09Z</time>
      </trkpt>
      <trkpt lat="44.13352" lon="4.0548">
        <ele>245.27</ele>
        <time>2022-08-10T11:32:21Z</time>
      </trkpt>
      <trkpt lat="44.13367" lon="4.05477">
        <ele>245.27</ele>
        <time>2022-08-10T11:32:35Z</time>
      </trkpt>
      <trkpt lat="44.13371" lon="4.05478">
        <ele>244.79</ele>
        <time>2022-08-10T11:32:39Z</time>
      </trkpt>
      <trkpt lat="44.13378" lon="4.05479">
        <ele>244.79</ele>
        <time>2022-08-10T11:32:45Z</time>
      </trkpt>
      <trkpt lat="44.1339" lon="4.05479">
        <ele>245.27</ele>
        <time>2022-08-10T11:32:57Z</time>
      </trkpt>
      <trkpt lat="44.13393" lon="4.05479">
        <ele>245.75</ele>
        <time>2022-08-10T11:32:59Z</time>
      </trkpt>
      <trkpt lat="44.13406" lon="4.05481">
        <ele>245.75</ele>
        <time>2022-08-10T11:33:11Z</time>
      </trkpt>
      <trkpt lat="44.13416" lon="4.05484">
        <ele>244.79</ele>
        <time>2022-08-10T11:33:20Z</time>
      </trkpt>
      <trkpt lat="44.13419" lon="4.05487">
        <ele>244.31</ele>
        <time>2022-08-10T11:33:23Z</time>
      </trkpt>
      <trkpt lat="44.13426" lon="4.05507">
        <ele>244.31</ele>
        <time>2022-08-10T11:33:37Z</time>
      </trkpt>
      <trkpt lat="44.13427" lon="4.05527">
        <ele>246.23</ele>
        <time>2022-08-10T11:33:53Z</time>
      </trkpt>
      <trkpt lat="44.13434" lon="4.05546">
        <ele>246.72</ele>
        <time>2022-08-10T11:34:08Z</time>
      </trkpt>
      <trkpt lat="44.13447" lon="4.05558">
        <ele>250.08</ele>
        <time>2022-08-10T11:34:23Z</time>
      </trkpt>
      <trkpt lat="44.1346" lon="4.05555">
        <ele>251.52</ele>
        <time>2022-08-10T11:34:37Z</time>
      </trkpt>
      <trkpt lat="44.13473" lon="4.05557">
        <ele>252.96</ele>
        <time>2022-08-10T11:34:50Z</time>
      </trkpt>
      <trkpt lat="44.13484" lon="4.05563">
        <ele>253.44</ele>
        <time>2022-08-10T11:35:02Z</time>
      </trkpt>
      <trkpt lat="44.13497" lon="4.05577">
        <ele>254.89</ele>
        <time>2022-08-10T11:35:18Z</time>
      </trkpt>
      <trkpt lat="44.13501" lon="4.05595">
        <ele>254.89</ele>
        <time>2022-08-10T11:35:32Z</time>
      </trkpt>
      <trkpt lat="44.13508" lon="4.05618">
        <ele>256.81</ele>
        <time>2022-08-10T11:35:49Z</time>
      </trkpt>
      <trkpt lat="44.13512" lon="4.05638">
        <ele>258.25</ele>
        <time>2022-08-10T11:36:04Z</time>
      </trkpt>
      <trkpt lat="44.13514" lon="4.05655">
        <ele>259.69</ele>
        <time>2022-08-10T11:36:21Z</time>
      </trkpt>
      <trkpt lat="44.13518" lon="4.05676">
        <ele>261.62</ele>
        <time>2022-08-10T11:36:36Z</time>
      </trkpt>
      <trkpt lat="44.13521" lon="4.05684">
        <ele>261.14</ele>
        <time>2022-08-10T11:36:42Z</time>
      </trkpt>
      <trkpt lat="44.13527" lon="4.05708">
        <ele>263.54</ele>
        <time>2022-08-10T11:36:58Z</time>
      </trkpt>
      <trkpt lat="44.13537" lon="4.05728">
        <ele>264.98</ele>
        <time>2022-08-10T11:37:14Z</time>
      </trkpt>
      <trkpt lat="44.13538" lon="4.0573">
        <ele>265.46</ele>
        <time>2022-08-10T11:37:16Z</time>
      </trkpt>
      <trkpt lat="44.13549" lon="4.05749">
        <ele>264.02</ele>
        <time>2022-08-10T11:37:30Z</time>
      </trkpt>
      <trkpt lat="44.13564" lon="4.05759">
        <ele>262.1</ele>
        <time>2022-08-10T11:37:45Z</time>
      </trkpt>
      <trkpt lat="44.13567" lon="4.05763">
        <ele>262.1</ele>
        <time>2022-08-10T11:37:49Z</time>
      </trkpt>
      <trkpt lat="44.13575" lon="4.05779">
        <ele>262.58</ele>
        <time>2022-08-10T11:38:02Z</time>
      </trkpt>
      <trkpt lat="44.13576" lon="4.05799">
        <ele>265.46</ele>
        <time>2022-08-10T11:38:18Z</time>
      </trkpt>
      <trkpt lat="44.13572" lon="4.05816">
        <ele>265.94</ele>
        <time>2022-08-10T11:38:35Z</time>
      </trkpt>
      <trkpt lat="44.13569" lon="4.05817">
        <ele>268.35</ele>
        <time>2022-08-10T11:38:53Z</time>
      </trkpt>
      <trkpt lat="44.13572" lon="4.05826">
        <ele>265.94</ele>
        <time>2022-08-10T11:39:07Z</time>
      </trkpt>
      <trkpt lat="44.13571" lon="4.05846">
        <ele>264.5</ele>
        <time>2022-08-10T11:39:22Z</time>
      </trkpt>
      <trkpt lat="44.13567" lon="4.05866">
        <ele>262.1</ele>
        <time>2022-08-10T11:39:35Z</time>
      </trkpt>
      <trkpt lat="44.13566" lon="4.0589">
        <ele>261.62</ele>
        <time>2022-08-10T11:39:49Z</time>
      </trkpt>
      <trkpt lat="44.13561" lon="4.05911">
        <ele>262.58</ele>
        <time>2022-08-10T11:40:03Z</time>
      </trkpt>
      <trkpt lat="44.13559" lon="4.0592">
        <ele>262.58</ele>
        <time>2022-08-10T11:40:09Z</time>
      </trkpt>
      <trkpt lat="44.13556" lon="4.05937">
        <ele>264.5</ele>
        <time>2022-08-10T11:40:25Z</time>
      </trkpt>
      <trkpt lat="44.13558" lon="4.05963">
        <ele>266.42</ele>
        <time>2022-08-10T11:40:40Z</time>
      </trkpt>
      <trkpt lat="44.13561" lon="4.05984">
        <ele>265.46</ele>
        <time>2022-08-10T11:40:55Z</time>
      </trkpt>
      <trkpt lat="44.13559" lon="4.05997">
        <ele>265.46</ele>
        <time>2022-08-10T11:41:10Z</time>
      </trkpt>
      <trkpt lat="44.13557" lon="4.06004">
        <ele>264.5</ele>
        <time>2022-08-10T11:41:17Z</time>
      </trkpt>
      <trkpt lat="44.13545" lon="4.06014">
        <ele>264.5</ele>
        <time>2022-08-10T11:41:32Z</time>
      </trkpt>
      <trkpt lat="44.13531" lon="4.06023">
        <ele>264.02</ele>
        <time>2022-08-10T11:41:47Z</time>
      </trkpt>
      <trkpt lat="44.13515" lon="4.06036">
        <ele>262.58</ele>
        <time>2022-08-10T11:42:03Z</time>
      </trkpt>
      <trkpt lat="44.1351" lon="4.06051">
        <ele>263.54</ele>
        <time>2022-08-10T11:42:14Z</time>
      </trkpt>
      <trkpt lat="44.13511" lon="4.06057">
        <ele>263.06</ele>
        <time>2022-08-10T11:42:17Z</time>
      </trkpt>
      <trkpt lat="44.13503" lon="4.06082">
        <ele>262.58</ele>
        <time>2022-08-10T11:42:33Z</time>
      </trkpt>
      <trkpt lat="44.13499" lon="4.06093">
        <ele>260.17</ele>
        <time>2022-08-10T11:42:46Z</time>
      </trkpt>
      <trkpt lat="44.13496" lon="4.06105">
        <ele>256.81</ele>
        <time>2022-08-10T11:42:58Z</time>
      </trkpt>
      <trkpt lat="44.13488" lon="4.06116">
        <ele>254.41</ele>
        <time>2022-08-10T11:43:10Z</time>
      </trkpt>
      <trkpt lat="44.13477" lon="4.0613">
        <ele>251.52</ele>
        <time>2022-08-10T11:43:26Z</time>
      </trkpt>
      <trkpt lat="44.13469" lon="4.06139">
        <ele>248.64</ele>
        <time>2022-08-10T11:43:41Z</time>
      </trkpt>
      <trkpt lat="44.13459" lon="4.06146">
        <ele>244.79</ele>
        <time>2022-08-10T11:43:54Z</time>
      </trkpt>
      <trkpt lat="44.13446" lon="4.06157">
        <ele>241.43</ele>
        <time>2022-08-10T11:44:10Z</time>
      </trkpt>
      <trkpt lat="44.13435" lon="4.06164">
        <ele>238.54</ele>
        <time>2022-08-10T11:44:26Z</time>
      </trkpt>
      <trkpt lat="44.13424" lon="4.06172">
        <ele>236.14</ele>
        <time>2022-08-10T11:44:38Z</time>
      </trkpt>
      <trkpt lat="44.13413" lon="4.06179">
        <ele>233.26</ele>
        <time>2022-08-10T11:44:52Z</time>
      </trkpt>
      <trkpt lat="44.13405" lon="4.06187">
        <ele>229.41</ele>
        <time>2022-08-10T11:45:07Z</time>
      </trkpt>
      <trkpt lat="44.13397" lon="4.06201">
        <ele>228.93</ele>
        <time>2022-08-10T11:45:20Z</time>
      </trkpt>
      <trkpt lat="44.13391" lon="4.06213">
        <ele>226.05</ele>
        <time>2022-08-10T11:45:33Z</time>
      </trkpt>
      <trkpt lat="44.13385" lon="4.06226">
        <ele>221.72</ele>
        <time>2022-08-10T11:45:48Z</time>
      </trkpt>
      <trkpt lat="44.13373" lon="4.06241">
        <ele>218.84</ele>
        <time>2022-08-10T11:46:02Z</time>
      </trkpt>
      <trkpt lat="44.13373" lon="4.06242">
        <ele>218.36</ele>
        <time>2022-08-10T11:46:03Z</time>
      </trkpt>
      <trkpt lat="44.13365" lon="4.06255">
        <ele>216.91</ele>
        <time>2022-08-10T11:46:14Z</time>
      </trkpt>
      <trkpt lat="44.1335" lon="4.06266">
        <ele>216.43</ele>
        <time>2022-08-10T11:46:30Z</time>
      </trkpt>
      <trkpt lat="44.13334" lon="4.06276">
        <ele>216.91</ele>
        <time>2022-08-10T11:46:45Z</time>
      </trkpt>
      <trkpt lat="44.13327" lon="4.06288">
        <ele>215.95</ele>
        <time>2022-08-10T11:46:57Z</time>
      </trkpt>
      <trkpt lat="44.13322" lon="4.06296">
        <ele>213.07</ele>
        <time>2022-08-10T11:47:06Z</time>
      </trkpt>
      <trkpt lat="44.13315" lon="4.06314">
        <ele>212.59</ele>
        <time>2022-08-10T11:47:21Z</time>
      </trkpt>
      <trkpt lat="44.13304" lon="4.06333">
        <ele>213.07</ele>
        <time>2022-08-10T11:47:36Z</time>
      </trkpt>
      <trkpt lat="44.13295" lon="4.06351">
        <ele>212.59</ele>
        <time>2022-08-10T11:47:50Z</time>
      </trkpt>
      <trkpt lat="44.13291" lon="4.06369">
        <ele>210.19</ele>
        <time>2022-08-10T11:48:06Z</time>
      </trkpt>
      <trkpt lat="44.1329" lon="4.06389">
        <ele>207.78</ele>
        <time>2022-08-10T11:48:21Z</time>
      </trkpt>
      <trkpt lat="44.13294" lon="4.06409">
        <ele>206.82</ele>
        <time>2022-08-10T11:48:36Z</time>
      </trkpt>
      <trkpt lat="44.13295" lon="4.06431">
        <ele>203.46</ele>
        <time>2022-08-10T11:48:50Z</time>
      </trkpt>
      <trkpt lat="44.13296" lon="4.06433">
        <ele>203.46</ele>
        <time>2022-08-10T11:48:52Z</time>
      </trkpt>
      <trkpt lat="44.13293" lon="4.06453">
        <ele>202.49</ele>
        <time>2022-08-10T11:49:05Z</time>
      </trkpt>
      <trkpt lat="44.13284" lon="4.0646">
        <ele>198.17</ele>
        <time>2022-08-10T11:49:21Z</time>
      </trkpt>
      <trkpt lat="44.13274" lon="4.06475">
        <ele>197.21</ele>
        <time>2022-08-10T11:49:36Z</time>
      </trkpt>
      <trkpt lat="44.13262" lon="4.06484">
        <ele>195.28</ele>
        <time>2022-08-10T11:49:52Z</time>
      </trkpt>
      <trkpt lat="44.13246" lon="4.06496">
        <ele>193.36</ele>
        <time>2022-08-10T11:50:08Z</time>
      </trkpt>
      <trkpt lat="44.13233" lon="4.06512">
        <ele>191.92</ele>
        <time>2022-08-10T11:50:25Z</time>
      </trkpt>
      <trkpt lat="44.13224" lon="4.06529">
        <ele>190</ele>
        <time>2022-08-10T11:50:40Z</time>
      </trkpt>
      <trkpt lat="44.13209" lon="4.06548">
        <ele>189.52</ele>
        <time>2022-08-10T11:50:57Z</time>
      </trkpt>
      <trkpt lat="44.13202" lon="4.06574">
        <ele>191.44</ele>
        <time>2022-08-10T11:51:13Z</time>
      </trkpt>
      <trkpt lat="44.13196" lon="4.06589">
        <ele>189.04</ele>
        <time>2022-08-10T11:51:26Z</time>
      </trkpt>
      <trkpt lat="44.13191" lon="4.06598">
        <ele>189.04</ele>
        <time>2022-08-10T11:51:34Z</time>
      </trkpt>
      <trkpt lat="44.13177" lon="4.06609">
        <ele>187.11</ele>
        <time>2022-08-10T11:51:52Z</time>
      </trkpt>
      <trkpt lat="44.13168" lon="4.0662">
        <ele>181.35</ele>
        <time>2022-08-10T11:52:08Z</time>
      </trkpt>
      <trkpt lat="44.13157" lon="4.0663">
        <ele>176.06</ele>
        <time>2022-08-10T11:52:23Z</time>
      </trkpt>
      <trkpt lat="44.13147" lon="4.06639">
        <ele>171.73</ele>
        <time>2022-08-10T11:52:37Z</time>
      </trkpt>
      <trkpt lat="44.13138" lon="4.06649">
        <ele>169.33</ele>
        <time>2022-08-10T11:52:52Z</time>
      </trkpt>
      <trkpt lat="44.1313" lon="4.06663">
        <ele>168.85</ele>
        <time>2022-08-10T11:53:04Z</time>
      </trkpt>
      <trkpt lat="44.1312" lon="4.06674">
        <ele>167.41</ele>
        <time>2022-08-10T11:53:18Z</time>
      </trkpt>
      <trkpt lat="44.13111" lon="4.06683">
        <ele>165.96</ele>
        <time>2022-08-10T11:53:31Z</time>
      </trkpt>
      <trkpt lat="44.13107" lon="4.06693">
        <ele>163.56</ele>
        <time>2022-08-10T11:53:41Z</time>
      </trkpt>
      <trkpt lat="44.13112" lon="4.06708">
        <ele>161.64</ele>
        <time>2022-08-10T11:53:55Z</time>
      </trkpt>
      <trkpt lat="44.13113" lon="4.06721">
        <ele>162.6</ele>
        <time>2022-08-10T11:54:11Z</time>
      </trkpt>
      <trkpt lat="44.13113" lon="4.06743">
        <ele>159.72</ele>
        <time>2022-08-10T11:54:27Z</time>
      </trkpt>
      <trkpt lat="44.13107" lon="4.06754">
        <ele>157.31</ele>
        <time>2022-08-10T11:54:37Z</time>
      </trkpt>
      <trkpt lat="44.13102" lon="4.06757">
        <ele>157.79</ele>
        <time>2022-08-10T11:54:42Z</time>
      </trkpt>
      <trkpt lat="44.13094" lon="4.06758">
        <ele>157.31</ele>
        <time>2022-08-10T11:54:50Z</time>
      </trkpt>
      <trkpt lat="44.13084" lon="4.06755">
        <ele>156.83</ele>
        <time>2022-08-10T11:54:59Z</time>
      </trkpt>
      <trkpt lat="44.13073" lon="4.06757">
        <ele>154.91</ele>
        <time>2022-08-10T11:55:08Z</time>
      </trkpt>
      <trkpt lat="44.13069" lon="4.06757">
        <ele>154.43</ele>
        <time>2022-08-10T11:55:12Z</time>
      </trkpt>
      <trkpt lat="44.13058" lon="4.06762">
        <ele>151.06</ele>
        <time>2022-08-10T11:55:24Z</time>
      </trkpt>
      <trkpt lat="44.13044" lon="4.06778">
        <ele>148.66</ele>
        <time>2022-08-10T11:55:38Z</time>
      </trkpt>
      <trkpt lat="44.13038" lon="4.06796">
        <ele>148.18</ele>
        <time>2022-08-10T11:55:53Z</time>
      </trkpt>
      <trkpt lat="44.13037" lon="4.06825">
        <ele>146.74</ele>
        <time>2022-08-10T11:56:10Z</time>
      </trkpt>
      <trkpt lat="44.13037" lon="4.06854">
        <ele>144.82</ele>
        <time>2022-08-10T11:56:28Z</time>
      </trkpt>
      <trkpt lat="44.13039" lon="4.06873">
        <ele>142.41</ele>
        <time>2022-08-10T11:56:41Z</time>
      </trkpt>
      <trkpt lat="44.13039" lon="4.06884">
        <ele>141.93</ele>
        <time>2022-08-10T11:56:47Z</time>
      </trkpt>
      <trkpt lat="44.13034" lon="4.06895">
        <ele>140.01</ele>
        <time>2022-08-10T11:57:03Z</time>
      </trkpt>
      <trkpt lat="44.13025" lon="4.069">
        <ele>138.57</ele>
        <time>2022-08-10T11:57:16Z</time>
      </trkpt>
      <trkpt lat="44.13024" lon="4.06899">
        <ele>138.09</ele>
        <time>2022-08-10T11:57:21Z</time>
      </trkpt>
      <trkpt lat="44.13026" lon="4.06874">
        <ele>139.53</ele>
        <time>2022-08-10T11:57:37Z</time>
      </trkpt>
      <trkpt lat="44.13027" lon="4.06852">
        <ele>140.49</ele>
        <time>2022-08-10T11:57:54Z</time>
      </trkpt>
      <trkpt lat="44.13029" lon="4.0684">
        <ele>140.97</ele>
        <time>2022-08-10T11:58:09Z</time>
      </trkpt>
      <trkpt lat="44.13032" lon="4.06828">
        <ele>134.24</ele>
        <time>2022-08-10T11:58:21Z</time>
      </trkpt>
      <trkpt lat="44.13025" lon="4.06822">
        <ele>123.19</ele>
        <time>2022-08-10T11:58:31Z</time>
      </trkpt>
      <trkpt lat="44.13013" lon="4.06808">
        <ele>127.99</ele>
        <time>2022-08-10T11:58:45Z</time>
      </trkpt>
      <trkpt lat="44.1301" lon="4.06807">
        <ele>129.92</ele>
        <time>2022-08-10T11:58:56Z</time>
      </trkpt>
      <trkpt lat="44.1301" lon="4.06807">
        <ele>140.97</ele>
        <time>2022-08-10T11:59:24Z</time>
      </trkpt>
      <trkpt lat="44.13006" lon="4.06807">
        <ele>145.78</ele>
        <time>2022-08-10T11:59:50Z</time>
      </trkpt>
      <trkpt lat="44.13007" lon="4.06806">
        <ele>146.26</ele>
        <time>2022-08-10T12:00:28Z</time>
      </trkpt>
      <trkpt lat="44.13006" lon="4.06807">
        <ele>147.7</ele>
        <time>2022-08-10T12:00:57Z</time>
      </trkpt>
      <trkpt lat="44.13005" lon="4.06806">
        <ele>151.54</ele>
        <time>2022-08-10T12:01:25Z</time>
      </trkpt>
      <trkpt lat="44.13013" lon="4.06814">
        <ele>145.3</ele>
        <time>2022-08-10T12:01:40Z</time>
      </trkpt>
      <trkpt lat="44.13012" lon="4.0682">
        <ele>144.82</ele>
        <time>2022-08-10T12:01:48Z</time>
      </trkpt>
      <trkpt lat="44.13011" lon="4.06843">
        <ele>142.41</ele>
        <time>2022-08-10T12:02:04Z</time>
      </trkpt>
      <trkpt lat="44.13012" lon="4.06861">
        <ele>141.45</ele>
        <time>2022-08-10T12:02:17Z</time>
      </trkpt>
      <trkpt lat="44.13014" lon="4.06869">
        <ele>140.49</ele>
        <time>2022-08-10T12:02:22Z</time>
      </trkpt>
      <trkpt lat="44.13014" lon="4.06873">
        <ele>140.49</ele>
        <time>2022-08-10T12:02:24Z</time>
      </trkpt>
      <trkpt lat="44.1302" lon="4.06895">
        <ele>139.53</ele>
        <time>2022-08-10T12:02:40Z</time>
      </trkpt>
      <trkpt lat="44.13011" lon="4.06902">
        <ele>138.57</ele>
        <time>2022-08-10T12:02:53Z</time>
      </trkpt>
      <trkpt lat="44.13006" lon="4.06906">
        <ele>135.68</ele>
        <time>2022-08-10T12:03:00Z</time>
      </trkpt>
      <trkpt lat="44.12993" lon="4.06922">
        <ele>134.24</ele>
        <time>2022-08-10T12:03:16Z</time>
      </trkpt>
      <trkpt lat="44.12991" lon="4.06925">
        <ele>133.76</ele>
        <time>2022-08-10T12:03:19Z</time>
      </trkpt>
      <trkpt lat="44.12988" lon="4.06931">
        <ele>134.24</ele>
        <time>2022-08-10T12:03:23Z</time>
      </trkpt>
      <trkpt lat="44.12974" lon="4.06953">
        <ele>135.68</ele>
        <time>2022-08-10T12:03:40Z</time>
      </trkpt>
      <trkpt lat="44.12962" lon="4.06969">
        <ele>135.68</ele>
        <time>2022-08-10T12:03:53Z</time>
      </trkpt>
      <trkpt lat="44.12947" lon="4.0699">
        <ele>136.16</ele>
        <time>2022-08-10T12:04:10Z</time>
      </trkpt>
      <trkpt lat="44.12929" lon="4.06998">
        <ele>135.2</ele>
        <time>2022-08-10T12:04:27Z</time>
      </trkpt>
      <trkpt lat="44.12916" lon="4.07002">
        <ele>134.24</ele>
        <time>2022-08-10T12:04:41Z</time>
      </trkpt>
      <trkpt lat="44.12904" lon="4.07008">
        <ele>133.28</ele>
        <time>2022-08-10T12:04:51Z</time>
      </trkpt>
      <trkpt lat="44.12888" lon="4.07019">
        <ele>135.2</ele>
        <time>2022-08-10T12:05:07Z</time>
      </trkpt>
      <trkpt lat="44.12875" lon="4.07027">
        <ele>136.64</ele>
        <time>2022-08-10T12:05:21Z</time>
      </trkpt>
      <trkpt lat="44.12865" lon="4.07037">
        <ele>136.16</ele>
        <time>2022-08-10T12:05:34Z</time>
      </trkpt>
      <trkpt lat="44.12852" lon="4.07051">
        <ele>137.13</ele>
        <time>2022-08-10T12:05:46Z</time>
      </trkpt>
      <trkpt lat="44.12839" lon="4.07066">
        <ele>139.05</ele>
        <time>2022-08-10T12:05:59Z</time>
      </trkpt>
      <trkpt lat="44.12827" lon="4.07074">
        <ele>139.05</ele>
        <time>2022-08-10T12:06:13Z</time>
      </trkpt>
      <trkpt lat="44.12808" lon="4.07086">
        <ele>138.57</ele>
        <time>2022-08-10T12:06:26Z</time>
      </trkpt>
      <trkpt lat="44.12792" lon="4.07086">
        <ele>134.72</ele>
        <time>2022-08-10T12:06:40Z</time>
      </trkpt>
      <trkpt lat="44.12776" lon="4.07088">
        <ele>133.28</ele>
        <time>2022-08-10T12:06:53Z</time>
      </trkpt>
      <trkpt lat="44.12763" lon="4.07086">
        <ele>130.88</ele>
        <time>2022-08-10T12:07:06Z</time>
      </trkpt>
      <trkpt lat="44.12753" lon="4.07083">
        <ele>128.47</ele>
        <time>2022-08-10T12:07:17Z</time>
      </trkpt>
      <trkpt lat="44.12751" lon="4.07083">
        <ele>128.47</ele>
        <time>2022-08-10T12:07:19Z</time>
      </trkpt>
      <trkpt lat="44.12734" lon="4.07081">
        <ele>127.51</ele>
        <time>2022-08-10T12:07:34Z</time>
      </trkpt>
      <trkpt lat="44.1272" lon="4.0708">
        <ele>130.4</ele>
        <time>2022-08-10T12:07:46Z</time>
      </trkpt>
      <trkpt lat="44.12705" lon="4.07074">
        <ele>130.88</ele>
        <time>2022-08-10T12:07:59Z</time>
      </trkpt>
      <trkpt lat="44.12691" lon="4.07065">
        <ele>128.95</ele>
        <time>2022-08-10T12:08:11Z</time>
      </trkpt>
      <trkpt lat="44.12679" lon="4.07065">
        <ele>124.63</ele>
        <time>2022-08-10T12:08:24Z</time>
      </trkpt>
      <trkpt lat="44.12674" lon="4.07088">
        <ele>130.4</ele>
        <time>2022-08-10T12:08:38Z</time>
      </trkpt>
      <trkpt lat="44.12674" lon="4.0709">
        <ele>130.4</ele>
        <time>2022-08-10T12:08:39Z</time>
      </trkpt>
      <trkpt lat="44.12671" lon="4.07113">
        <ele>130.88</ele>
        <time>2022-08-10T12:08:52Z</time>
      </trkpt>
      <trkpt lat="44.1267" lon="4.07136">
        <ele>132.32</ele>
        <time>2022-08-10T12:09:05Z</time>
      </trkpt>
      <trkpt lat="44.12671" lon="4.07158">
        <ele>133.28</ele>
        <time>2022-08-10T12:09:19Z</time>
      </trkpt>
      <trkpt lat="44.12677" lon="4.07169">
        <ele>133.76</ele>
        <time>2022-08-10T12:09:28Z</time>
      </trkpt>
      <trkpt lat="44.12679" lon="4.07172">
        <ele>134.72</ele>
        <time>2022-08-10T12:09:41Z</time>
      </trkpt>
      <trkpt lat="44.12679" lon="4.07167">
        <ele>132.8</ele>
        <time>2022-08-10T12:09:56Z</time>
      </trkpt>
      <trkpt lat="44.12678" lon="4.07167">
        <ele>131.84</ele>
        <time>2022-08-10T12:10:16Z</time>
      </trkpt>
      <trkpt lat="44.12678" lon="4.07164">
        <ele>133.76</ele>
        <time>2022-08-10T12:10:39Z</time>
      </trkpt>
      <trkpt lat="44.12679" lon="4.07168">
        <ele>134.72</ele>
        <time>2022-08-10T12:10:53Z</time>
      </trkpt>
      <trkpt lat="44.12683" lon="4.07178">
        <ele>133.76</ele>
        <time>2022-08-10T12:11:12Z</time>
      </trkpt>
      <trkpt lat="44.12686" lon="4.07186">
        <ele>134.24</ele>
        <time>2022-08-10T12:11:24Z</time>
      </trkpt>
      <trkpt lat="44.12685" lon="4.0719">
        <ele>133.76</ele>
        <time>2022-08-10T12:11:27Z</time>
      </trkpt>
      <trkpt lat="44.12675" lon="4.07195">
        <ele>134.24</ele>
        <time>2022-08-10T12:11:39Z</time>
      </trkpt>
      <trkpt lat="44.12673" lon="4.07207">
        <ele>135.2</ele>
        <time>2022-08-10T12:11:54Z</time>
      </trkpt>
      <trkpt lat="44.12675" lon="4.07235">
        <ele>133.28</ele>
        <time>2022-08-10T12:12:11Z</time>
      </trkpt>
      <trkpt lat="44.12675" lon="4.07257">
        <ele>132.8</ele>
        <time>2022-08-10T12:12:25Z</time>
      </trkpt>
      <trkpt lat="44.12676" lon="4.07282">
        <ele>132.8</ele>
        <time>2022-08-10T12:12:41Z</time>
      </trkpt>
      <trkpt lat="44.12677" lon="4.07307">
        <ele>132.8</ele>
        <time>2022-08-10T12:12:57Z</time>
      </trkpt>
      <trkpt lat="44.12677" lon="4.07313">
        <ele>132.8</ele>
        <time>2022-08-10T12:13:01Z</time>
      </trkpt>
      <trkpt lat="44.12685" lon="4.07329">
        <ele>135.2</ele>
        <time>2022-08-10T12:13:14Z</time>
      </trkpt>
      <trkpt lat="44.12688" lon="4.07338">
        <ele>135.68</ele>
        <time>2022-08-10T12:13:20Z</time>
      </trkpt>
      <trkpt lat="44.12687" lon="4.07356">
        <ele>135.68</ele>
        <time>2022-08-10T12:13:33Z</time>
      </trkpt>
      <trkpt lat="44.12684" lon="4.07377">
        <ele>135.68</ele>
        <time>2022-08-10T12:13:49Z</time>
      </trkpt>
      <trkpt lat="44.12682" lon="4.07384">
        <ele>134.72</ele>
        <time>2022-08-10T12:13:55Z</time>
      </trkpt>
      <trkpt lat="44.12672" lon="4.07394">
        <ele>135.2</ele>
        <time>2022-08-10T12:14:08Z</time>
      </trkpt>
      <trkpt lat="44.1267" lon="4.07407">
        <ele>134.72</ele>
        <time>2022-08-10T12:14:20Z</time>
      </trkpt>
      <trkpt lat="44.12672" lon="4.0743">
        <ele>135.2</ele>
        <time>2022-08-10T12:14:35Z</time>
      </trkpt>
      <trkpt lat="44.12673" lon="4.07444">
        <ele>135.68</ele>
        <time>2022-08-10T12:14:48Z</time>
      </trkpt>
      <trkpt lat="44.12676" lon="4.07463">
        <ele>138.57</ele>
        <time>2022-08-10T12:14:59Z</time>
      </trkpt>
      <trkpt lat="44.12679" lon="4.07478">
        <ele>135.68</ele>
        <time>2022-08-10T12:15:12Z</time>
      </trkpt>
      <trkpt lat="44.12679" lon="4.07496">
        <ele>132.32</ele>
        <time>2022-08-10T12:15:25Z</time>
      </trkpt>
      <trkpt lat="44.12685" lon="4.0752">
        <ele>131.84</ele>
        <time>2022-08-10T12:15:41Z</time>
      </trkpt>
      <trkpt lat="44.12686" lon="4.0754">
        <ele>132.32</ele>
        <time>2022-08-10T12:15:55Z</time>
      </trkpt>
      <trkpt lat="44.12689" lon="4.07557">
        <ele>133.76</ele>
        <time>2022-08-10T12:16:08Z</time>
      </trkpt>
      <trkpt lat="44.12683" lon="4.07572">
        <ele>131.36</ele>
        <time>2022-08-10T12:16:20Z</time>
      </trkpt>
      <trkpt lat="44.12691" lon="4.07602">
        <ele>130.88</ele>
        <time>2022-08-10T12:16:36Z</time>
      </trkpt>
      <trkpt lat="44.12709" lon="4.07629">
        <ele>142.89</ele>
        <time>2022-08-10T12:16:51Z</time>
      </trkpt>
      <trkpt lat="44.12712" lon="4.07648">
        <ele>143.37</ele>
        <time>2022-08-10T12:17:04Z</time>
      </trkpt>
      <trkpt lat="44.12713" lon="4.07654">
        <ele>144.34</ele>
        <time>2022-08-10T12:17:08Z</time>
      </trkpt>
      <trkpt lat="44.12717" lon="4.0767">
        <ele>146.26</ele>
        <time>2022-08-10T12:17:18Z</time>
      </trkpt>
      <trkpt lat="44.12715" lon="4.07673">
        <ele>145.78</ele>
        <time>2022-08-10T12:17:20Z</time>
      </trkpt>
      <trkpt lat="44.12709" lon="4.07693">
        <ele>141.93</ele>
        <time>2022-08-10T12:17:33Z</time>
      </trkpt>
      <trkpt lat="44.12704" lon="4.07709">
        <ele>139.05</ele>
        <time>2022-08-10T12:17:45Z</time>
      </trkpt>
      <trkpt lat="44.12704" lon="4.07722">
        <ele>132.32</ele>
        <time>2022-08-10T12:17:57Z</time>
      </trkpt>
      <trkpt lat="44.12702" lon="4.0773">
        <ele>128.95</ele>
        <time>2022-08-10T12:18:03Z</time>
      </trkpt>
      <trkpt lat="44.127" lon="4.07734">
        <ele>127.51</ele>
        <time>2022-08-10T12:18:06Z</time>
      </trkpt>
      <trkpt lat="44.12714" lon="4.07759">
        <ele>132.32</ele>
        <time>2022-08-10T12:18:21Z</time>
      </trkpt>
      <trkpt lat="44.12711" lon="4.07777">
        <ele>133.76</ele>
        <time>2022-08-10T12:18:32Z</time>
      </trkpt>
      <trkpt lat="44.12711" lon="4.07785">
        <ele>135.68</ele>
        <time>2022-08-10T12:18:45Z</time>
      </trkpt>
      <trkpt lat="44.12706" lon="4.07785">
        <ele>136.64</ele>
        <time>2022-08-10T12:18:58Z</time>
      </trkpt>
      <trkpt lat="44.12687" lon="4.07788">
        <ele>139.53</ele>
        <time>2022-08-10T12:19:14Z</time>
      </trkpt>
      <trkpt lat="44.12673" lon="4.07793">
        <ele>139.53</ele>
        <time>2022-08-10T12:19:28Z</time>
      </trkpt>
      <trkpt lat="44.12658" lon="4.078">
        <ele>141.45</ele>
        <time>2022-08-10T12:19:40Z</time>
      </trkpt>
      <trkpt lat="44.12645" lon="4.07809">
        <ele>139.05</ele>
        <time>2022-08-10T12:19:55Z</time>
      </trkpt>
      <trkpt lat="44.12631" lon="4.07817">
        <ele>142.89</ele>
        <time>2022-08-10T12:20:08Z</time>
      </trkpt>
      <trkpt lat="44.12616" lon="4.07825">
        <ele>144.34</ele>
        <time>2022-08-10T12:20:23Z</time>
      </trkpt>
      <trkpt lat="44.12605" lon="4.07832">
        <ele>142.41</ele>
        <time>2022-08-10T12:20:37Z</time>
      </trkpt>
      <trkpt lat="44.12591" lon="4.07841">
        <ele>138.09</ele>
        <time>2022-08-10T12:20:54Z</time>
      </trkpt>
      <trkpt lat="44.12582" lon="4.07856">
        <ele>134.72</ele>
        <time>2022-08-10T12:21:06Z</time>
      </trkpt>
      <trkpt lat="44.12577" lon="4.07873">
        <ele>128.95</ele>
        <time>2022-08-10T12:21:19Z</time>
      </trkpt>
      <trkpt lat="44.12575" lon="4.07875">
        <ele>127.51</ele>
        <time>2022-08-10T12:21:22Z</time>
      </trkpt>
      <trkpt lat="44.12573" lon="4.07878">
        <ele>126.55</ele>
        <time>2022-08-10T12:21:25Z</time>
      </trkpt>
      <trkpt lat="44.12565" lon="4.07894">
        <ele>128.47</ele>
        <time>2022-08-10T12:21:40Z</time>
      </trkpt>
      <trkpt lat="44.1256" lon="4.07907">
        <ele>131.84</ele>
        <time>2022-08-10T12:21:52Z</time>
      </trkpt>
      <trkpt lat="44.12548" lon="4.07931">
        <ele>136.64</ele>
        <time>2022-08-10T12:22:08Z</time>
      </trkpt>
      <trkpt lat="44.12539" lon="4.07941">
        <ele>135.2</ele>
        <time>2022-08-10T12:22:21Z</time>
      </trkpt>
      <trkpt lat="44.12536" lon="4.0794">
        <ele>134.24</ele>
        <time>2022-08-10T12:22:25Z</time>
      </trkpt>
      <trkpt lat="44.12531" lon="4.07937">
        <ele>130.88</ele>
        <time>2022-08-10T12:22:36Z</time>
      </trkpt>
      <trkpt lat="44.12529" lon="4.07947">
        <ele>127.51</ele>
        <time>2022-08-10T12:22:51Z</time>
      </trkpt>
      <trkpt lat="44.1253" lon="4.07963">
        <ele>126.55</ele>
        <time>2022-08-10T12:23:05Z</time>
      </trkpt>
      <trkpt lat="44.12525" lon="4.0798">
        <ele>127.03</ele>
        <time>2022-08-10T12:23:17Z</time>
      </trkpt>
      <trkpt lat="44.12518" lon="4.07988">
        <ele>127.51</ele>
        <time>2022-08-10T12:23:32Z</time>
      </trkpt>
      <trkpt lat="44.12508" lon="4.07993">
        <ele>127.51</ele>
        <time>2022-08-10T12:23:43Z</time>
      </trkpt>
      <trkpt lat="44.12492" lon="4.07994">
        <ele>126.07</ele>
        <time>2022-08-10T12:23:59Z</time>
      </trkpt>
      <trkpt lat="44.12486" lon="4.07996">
        <ele>125.59</ele>
        <time>2022-08-10T12:24:05Z</time>
      </trkpt>
      <trkpt lat="44.12471" lon="4.07999">
        <ele>126.07</ele>
        <time>2022-08-10T12:24:20Z</time>
      </trkpt>
      <trkpt lat="44.12459" lon="4.08002">
        <ele>125.11</ele>
        <time>2022-08-10T12:24:33Z</time>
      </trkpt>
      <trkpt lat="44.12444" lon="4.08009">
        <ele>125.11</ele>
        <time>2022-08-10T12:24:47Z</time>
      </trkpt>
      <trkpt lat="44.12431" lon="4.08013">
        <ele>121.74</ele>
        <time>2022-08-10T12:25:01Z</time>
      </trkpt>
      <trkpt lat="44.12419" lon="4.0801">
        <ele>119.82</ele>
        <time>2022-08-10T12:25:14Z</time>
      </trkpt>
      <trkpt lat="44.12408" lon="4.0801">
        <ele>118.38</ele>
        <time>2022-08-10T12:25:29Z</time>
      </trkpt>
      <trkpt lat="44.12401" lon="4.08016">
        <ele>119.82</ele>
        <time>2022-08-10T12:25:44Z</time>
      </trkpt>
      <trkpt lat="44.12386" lon="4.08018">
        <ele>121.26</ele>
        <time>2022-08-10T12:26:01Z</time>
      </trkpt>
      <trkpt lat="44.12373" lon="4.08018">
        <ele>121.74</ele>
        <time>2022-08-10T12:26:16Z</time>
      </trkpt>
      <trkpt lat="44.1237" lon="4.08025">
        <ele>122.71</ele>
        <time>2022-08-10T12:26:28Z</time>
      </trkpt>
      <trkpt lat="44.12366" lon="4.08029">
        <ele>126.55</ele>
        <time>2022-08-10T12:26:48Z</time>
      </trkpt>
      <trkpt lat="44.12364" lon="4.08034">
        <ele>130.88</ele>
        <time>2022-08-10T12:27:07Z</time>
      </trkpt>
      <trkpt lat="44.12366" lon="4.08036">
        <ele>131.36</ele>
        <time>2022-08-10T12:27:19Z</time>
      </trkpt>
      <trkpt lat="44.12362" lon="4.08036">
        <ele>132.32</ele>
        <time>2022-08-10T12:27:58Z</time>
      </trkpt>
      <trkpt lat="44.12363" lon="4.0804">
        <ele>134.72</ele>
        <time>2022-08-10T12:28:27Z</time>
      </trkpt>
      <trkpt lat="44.12362" lon="4.08038">
        <ele>134.72</ele>
        <time>2022-08-10T12:28:54Z</time>
      </trkpt>
    </trkseg>
  </trk>
</gpx>